<?xml version='1.0' encoding='UTF-8'?><gpx version="1.1" creator="JPX - https://github.com/jenetics/jpx" xmlns="http://www.topografix.com/GPX/1/1"><trk><trkseg><trkpt lat="43.99247934303939" lon="12.659475057888889"><ele>12.999999999999998</ele><time>2026-05-04T06:03:32.002Z</time></trkpt><trkpt lat="43.99255729713298" lon="12.659421854328771"><ele>13.0</ele><time>2026-05-04T06:03:50.002Z</time></trkpt><trkpt lat="43.99254996413063" lon="12.659310292334748"><ele>13.0</ele><time>2026-05-04T06:03:51.002Z</time></trkpt><trkpt lat="43.99252576619368" lon="12.659198164055294"><ele>13.0</ele><time>2026-05-04T06:03:52.002Z</time></trkpt><trkpt lat="43.99250570067909" lon="12.65910015682884"><ele>12.999999999999998</ele><time>2026-05-04T06:03:53.002Z</time></trkpt><trkpt lat="43.99249816771834" lon="12.658998717373443"><ele>13.0</ele><time>2026-05-04T06:03:54.002Z</time></trkpt><trkpt lat="43.99248514306042" lon="12.65890230636656"><ele>13.0</ele><time>2026-05-04T06:03:55.002Z</time></trkpt><trkpt lat="43.992468882911126" lon="12.65881570296484"><ele>13.0</ele><time>2026-05-04T06:03:56.002Z</time></trkpt><trkpt lat="43.992447557518574" lon="12.65864306825467"><ele>13.0</ele><time>2026-05-04T06:03:58.002Z</time></trkpt><trkpt lat="43.99242119924075" lon="12.658472820754724"><ele>13.0</ele><time>2026-05-04T06:04:00.002Z</time></trkpt><trkpt lat="43.99239257985872" lon="12.658318440356934"><ele>13.0</ele><time>2026-05-04T06:04:02.002Z</time></trkpt><trkpt lat="43.99237530115451" lon="12.658212685584036"><ele>13.0</ele><time>2026-05-04T06:04:04.002Z</time></trkpt><trkpt lat="43.99235849608545" lon="12.658114561577559"><ele>13.0</ele><time>2026-05-04T06:04:06.001Z</time></trkpt><trkpt lat="43.99234188885793" lon="12.658028705933813"><ele>13.0</ele><time>2026-05-04T06:04:10.001Z</time></trkpt><trkpt lat="43.99233362531198" lon="12.657891008485699"><ele>13.0</ele><time>2026-05-04T06:04:14.001Z</time></trkpt><trkpt lat="43.992318951996126" lon="12.65777045791671"><ele>13.0</ele><time>2026-05-04T06:04:16.001Z</time></trkpt><trkpt lat="43.99227557450939" lon="12.657597105867154"><ele>13.2</ele><time>2026-05-04T06:04:18.001Z</time></trkpt><trkpt lat="43.992256946940884" lon="12.65748839438574"><ele>13.4</ele><time>2026-05-04T06:04:19.001Z</time></trkpt><trkpt lat="43.99228614083881" lon="12.657368342347352"><ele>13.599999999999998</ele><time>2026-05-04T06:04:20.001Z</time></trkpt><trkpt lat="43.99223004873901" lon="12.657256859045999"><ele>13.799999999999999</ele><time>2026-05-04T06:04:21.001Z</time></trkpt><trkpt lat="43.9922181133983" lon="12.657138475007228"><ele>14.0</ele><time>2026-05-04T06:04:22.001Z</time></trkpt><trkpt lat="43.99219956305384" lon="12.65700988599526"><ele>14.000000000000002</ele><time>2026-05-04T06:04:23.001Z</time></trkpt><trkpt lat="43.99218267758083" lon="12.65689927291713"><ele>14.0</ele><time>2026-05-04T06:04:24.001Z</time></trkpt><trkpt lat="43.992165543691264" lon="12.656792909877156"><ele>14.0</ele><time>2026-05-04T06:04:25.001Z</time></trkpt><trkpt lat="43.99215802430289" lon="12.656686414343051"><ele>14.0</ele><time>2026-05-04T06:04:26.001Z</time></trkpt><trkpt lat="43.99214822715102" lon="12.656590995726205"><ele>14.000000000000002</ele><time>2026-05-04T06:04:27.001Z</time></trkpt><trkpt lat="43.992126131295024" lon="12.65639614399069"><ele>14.0</ele><time>2026-05-04T06:04:29.001Z</time></trkpt><trkpt lat="43.99213934907357" lon="12.656279965878056"><ele>14.000000000000002</ele><time>2026-05-04T06:04:30.001Z</time></trkpt><trkpt lat="43.99212306638153" lon="12.656167067639094"><ele>14.0</ele><time>2026-05-04T06:04:31.001Z</time></trkpt><trkpt lat="43.992106377747014" lon="12.65604875714464"><ele>14.0</ele><time>2026-05-04T06:04:32Z</time></trkpt><trkpt lat="43.99209139938007" lon="12.655935743793458"><ele>14.0</ele><time>2026-05-04T06:04:33Z</time></trkpt><trkpt lat="43.99207848198333" lon="12.655837570229707"><ele>14.000000000000002</ele><time>2026-05-04T06:04:34Z</time></trkpt><trkpt lat="43.99205835579108" lon="12.65566820641513"><ele>14.0</ele><time>2026-05-04T06:04:36Z</time></trkpt><trkpt lat="43.99204684341398" lon="12.655542754069808"><ele>14.2</ele><time>2026-05-04T06:04:38Z</time></trkpt><trkpt lat="43.992040683313" lon="12.65545515270072"><ele>14.399999999999999</ele><time>2026-05-04T06:04:41Z</time></trkpt><trkpt lat="43.99190817383451" lon="12.655408444740626"><ele>14.6</ele><time>2026-05-04T06:04:54Z</time></trkpt><trkpt lat="43.99179202000404" lon="12.655416077205102"><ele>14.8</ele><time>2026-05-04T06:04:56Z</time></trkpt><trkpt lat="43.99175022212916" lon="12.655346752890491"><ele>15.0</ele><time>2026-05-04T06:04:57Z</time></trkpt><trkpt lat="43.991633554075264" lon="12.655248666537418"><ele>15.4</ele><time>2026-05-04T06:04:59Z</time></trkpt><trkpt lat="43.99155090273515" lon="12.655183288508724"><ele>15.8</ele><time>2026-05-04T06:05:00Z</time></trkpt><trkpt lat="43.99146296007879" lon="12.65511372499552"><ele>16.2</ele><time>2026-05-04T06:05:01Z</time></trkpt><trkpt lat="43.99137073730868" lon="12.65504077587371"><ele>16.6</ele><time>2026-05-04T06:05:02Z</time></trkpt><trkpt lat="43.991275395803456" lon="12.654965359855128"><ele>17.0</ele><time>2026-05-04T06:05:03Z</time></trkpt><trkpt lat="43.99118322110248" lon="12.654892905214187"><ele>17.0</ele><time>2026-05-04T06:05:04Z</time></trkpt><trkpt lat="43.991078376878434" lon="12.654810392551157"><ele>17.0</ele><time>2026-05-04T06:05:05Z</time></trkpt><trkpt lat="43.99097226374636" lon="12.654726881244123"><ele>17.0</ele><time>2026-05-04T06:05:06Z</time></trkpt><trkpt lat="43.990861051724" lon="12.654655953232577"><ele>17.0</ele><time>2026-05-04T06:05:07Z</time></trkpt><trkpt lat="43.99075486925851" lon="12.654571541964994"><ele>18.5</ele><time>2026-05-04T06:05:08Z</time></trkpt><trkpt lat="43.99064860834439" lon="12.654493173979574"><ele>20.0</ele><time>2026-05-04T06:05:09Z</time></trkpt><trkpt lat="43.99055048521179" lon="12.654411066647361"><ele>21.5</ele><time>2026-05-04T06:05:10Z</time></trkpt><trkpt lat="43.99045635346591" lon="12.654335137365983"><ele>23.0</ele><time>2026-05-04T06:05:11Z</time></trkpt><trkpt lat="43.990358817651654" lon="12.654257191510014"><ele>23.2</ele><time>2026-05-04T06:05:12Z</time></trkpt><trkpt lat="43.9902662058398" lon="12.654181588149267"><ele>23.4</ele><time>2026-05-04T06:05:13Z</time></trkpt><trkpt lat="43.99017336807674" lon="12.65410281225385"><ele>23.599999999999998</ele><time>2026-05-04T06:05:14Z</time></trkpt><trkpt lat="43.99007933305452" lon="12.654030157559012"><ele>23.799999999999997</ele><time>2026-05-04T06:05:15Z</time></trkpt><trkpt lat="43.98998817204106" lon="12.653956812345912"><ele>24.0</ele><time>2026-05-04T06:05:16Z</time></trkpt><trkpt lat="43.989892365154645" lon="12.653882800428802"><ele>28.0</ele><time>2026-05-04T06:05:17Z</time></trkpt><trkpt lat="43.98980367611611" lon="12.65381082505293"><ele>32.0</ele><time>2026-05-04T06:05:18Z</time></trkpt><trkpt lat="43.98970020285521" lon="12.653727182710481"><ele>36.0</ele><time>2026-05-04T06:05:19Z</time></trkpt><trkpt lat="43.98959209585945" lon="12.65363534900996"><ele>40.0</ele><time>2026-05-04T06:05:20Z</time></trkpt><trkpt lat="43.989486738541274" lon="12.65352491882034"><ele>40.0</ele><time>2026-05-04T06:05:21Z</time></trkpt><trkpt lat="43.989378743085425" lon="12.653407992290106"><ele>40.0</ele><time>2026-05-04T06:05:22Z</time></trkpt><trkpt lat="43.98926834681916" lon="12.653282389332727"><ele>40.0</ele><time>2026-05-04T06:05:23Z</time></trkpt><trkpt lat="43.989172814350596" lon="12.653166713318432"><ele>40.0</ele><time>2026-05-04T06:05:24Z</time></trkpt><trkpt lat="43.98909082867502" lon="12.653056470519477"><ele>42.75</ele><time>2026-05-04T06:05:25Z</time></trkpt><trkpt lat="43.98901053399611" lon="12.652945525435463"><ele>45.5</ele><time>2026-05-04T06:05:26Z</time></trkpt><trkpt lat="43.988939920624496" lon="12.652818840030541"><ele>48.25</ele><time>2026-05-04T06:05:27.001Z</time></trkpt><trkpt lat="43.98886677737386" lon="12.652678692489138"><ele>51.0</ele><time>2026-05-04T06:05:28.001Z</time></trkpt><trkpt lat="43.988802469886586" lon="12.652525315780093"><ele>51.0</ele><time>2026-05-04T06:05:29.001Z</time></trkpt><trkpt lat="43.98874015951274" lon="12.652372125062454"><ele>51.0</ele><time>2026-05-04T06:05:30.001Z</time></trkpt><trkpt lat="43.988675001229126" lon="12.652198763752581"><ele>51.0</ele><time>2026-05-04T06:05:31.001Z</time></trkpt><trkpt lat="43.98860324996458" lon="12.652054127965686"><ele>51.0</ele><time>2026-05-04T06:05:32.001Z</time></trkpt><trkpt lat="43.98854655364225" lon="12.651915725645786"><ele>51.599999999999994</ele><time>2026-05-04T06:05:33.001Z</time></trkpt><trkpt lat="43.988489493881254" lon="12.651792591708235"><ele>52.2</ele><time>2026-05-04T06:05:34.001Z</time></trkpt><trkpt lat="43.98843721416845" lon="12.651669745764448"><ele>52.800000000000004</ele><time>2026-05-04T06:05:35.001Z</time></trkpt><trkpt lat="43.988387459386196" lon="12.651549549979562"><ele>53.400000000000006</ele><time>2026-05-04T06:05:36.001Z</time></trkpt><trkpt lat="43.9883428249361" lon="12.651435784691484"><ele>54.0</ele><time>2026-05-04T06:05:37.001Z</time></trkpt><trkpt lat="43.988297813564834" lon="12.651310098376833"><ele>54.800000000000004</ele><time>2026-05-04T06:05:38.001Z</time></trkpt><trkpt lat="43.988250696473536" lon="12.65117986474271"><ele>55.60000000000001</ele><time>2026-05-04T06:05:39.001Z</time></trkpt><trkpt lat="43.98821449331098" lon="12.651037746277934"><ele>56.4</ele><time>2026-05-04T06:05:40.001Z</time></trkpt><trkpt lat="43.988183471641165" lon="12.650897857675654"><ele>57.2</ele><time>2026-05-04T06:05:41.001Z</time></trkpt><trkpt lat="43.98816032283958" lon="12.650757654030329"><ele>58.0</ele><time>2026-05-04T06:05:42.001Z</time></trkpt><trkpt lat="43.98812332193462" lon="12.650621538155123"><ele>58.0</ele><time>2026-05-04T06:05:43.001Z</time></trkpt><trkpt lat="43.988070941712685" lon="12.650482302021729"><ele>58.0</ele><time>2026-05-04T06:05:44.001Z</time></trkpt><trkpt lat="43.98801670587088" lon="12.650345408692989"><ele>58.0</ele><time>2026-05-04T06:05:45.001Z</time></trkpt><trkpt lat="43.987954555672296" lon="12.650216659557481"><ele>58.0</ele><time>2026-05-04T06:05:46.001Z</time></trkpt><trkpt lat="43.98789368383629" lon="12.650084314962198"><ele>57.0</ele><time>2026-05-04T06:05:47.001Z</time></trkpt><trkpt lat="43.98783137111867" lon="12.649951464905927"><ele>56.0</ele><time>2026-05-04T06:05:48.001Z</time></trkpt><trkpt lat="43.98777206254092" lon="12.649816729668732"><ele>55.0</ele><time>2026-05-04T06:05:49.001Z</time></trkpt><trkpt lat="43.98771411596245" lon="12.649694232858122"><ele>54.0</ele><time>2026-05-04T06:05:50.001Z</time></trkpt><trkpt lat="43.98764706964572" lon="12.649562535206103"><ele>53.0</ele><time>2026-05-04T06:05:51.001Z</time></trkpt><trkpt lat="43.987591091191305" lon="12.649436956156114"><ele>52.66666666666667</ele><time>2026-05-04T06:05:52.001Z</time></trkpt><trkpt lat="43.98753650906481" lon="12.649317324791713"><ele>52.333333333333336</ele><time>2026-05-04T06:05:53.001Z</time></trkpt><trkpt lat="43.98748941946603" lon="12.649210830498987"><ele>52.0</ele><time>2026-05-04T06:05:54.001Z</time></trkpt><trkpt lat="43.98743606319546" lon="12.649113537005407"><ele>51.66666666666667</ele><time>2026-05-04T06:05:55.001Z</time></trkpt><trkpt lat="43.987398627117884" lon="12.649028409168647"><ele>51.333333333333336</ele><time>2026-05-04T06:05:56.001Z</time></trkpt><trkpt lat="43.98736027465542" lon="12.648940897736658"><ele>51.0</ele><time>2026-05-04T06:05:57.001Z</time></trkpt><trkpt lat="43.98731269934845" lon="12.648868996770203"><ele>51.0</ele><time>2026-05-04T06:05:59.001Z</time></trkpt><trkpt lat="43.98726316675871" lon="12.648803212843594"><ele>51.0</ele><time>2026-05-04T06:06:01.001Z</time></trkpt><trkpt lat="43.98715640846091" lon="12.64879837769259"><ele>51.0</ele><time>2026-05-04T06:06:03.001Z</time></trkpt><trkpt lat="43.987082322950606" lon="12.648837113740786"><ele>51.0</ele><time>2026-05-04T06:06:04.001Z</time></trkpt><trkpt lat="43.987013322831" lon="12.648882997057415"><ele>51.0</ele><time>2026-05-04T06:06:05.001Z</time></trkpt><trkpt lat="43.986932383871405" lon="12.648903737538198"><ele>51.0</ele><time>2026-05-04T06:06:06.001Z</time></trkpt><trkpt lat="43.986844568924674" lon="12.648906402163071"><ele>51.0</ele><time>2026-05-04T06:06:07.001Z</time></trkpt><trkpt lat="43.98676479267733" lon="12.648879721937718"><ele>51.0</ele><time>2026-05-04T06:06:08.001Z</time></trkpt><trkpt lat="43.98667003694866" lon="12.648811293421629"><ele>51.0</ele><time>2026-05-04T06:06:09.001Z</time></trkpt><trkpt lat="43.986575161876715" lon="12.64870935424373"><ele>51.0</ele><time>2026-05-04T06:06:10.001Z</time></trkpt><trkpt lat="43.986483879280385" lon="12.6486088684619"><ele>51.0</ele><time>2026-05-04T06:06:11.001Z</time></trkpt><trkpt lat="43.986388541754465" lon="12.648506689705794"><ele>49.25</ele><time>2026-05-04T06:06:12.001Z</time></trkpt><trkpt lat="43.986291313565076" lon="12.648402661849596"><ele>47.5</ele><time>2026-05-04T06:06:13.001Z</time></trkpt><trkpt lat="43.98618930358928" lon="12.648292924310525"><ele>45.75</ele><time>2026-05-04T06:06:14Z</time></trkpt><trkpt lat="43.98609182716953" lon="12.648185448627054"><ele>44.0</ele><time>2026-05-04T06:06:15.001Z</time></trkpt><trkpt lat="43.9859977853259" lon="12.648082002027293"><ele>44.0</ele><time>2026-05-04T06:06:16Z</time></trkpt><trkpt lat="43.985911714362835" lon="12.647981260535861"><ele>44.0</ele><time>2026-05-04T06:06:17Z</time></trkpt><trkpt lat="43.98583298647088" lon="12.647896823104443"><ele>44.0</ele><time>2026-05-04T06:06:18Z</time></trkpt><trkpt lat="43.985767661421" lon="12.647819895742456"><ele>44.0</ele><time>2026-05-04T06:06:19Z</time></trkpt><trkpt lat="43.98571700068081" lon="12.64774265272099"><ele>44.0</ele><time>2026-05-04T06:06:20Z</time></trkpt><trkpt lat="43.98568495898416" lon="12.647644290995455"><ele>43.33333333333333</ele><time>2026-05-04T06:06:21Z</time></trkpt><trkpt lat="43.98566365254566" lon="12.647529671917338"><ele>42.666666666666664</ele><time>2026-05-04T06:06:22Z</time></trkpt><trkpt lat="43.9856304203791" lon="12.647435290898674"><ele>42.0</ele><time>2026-05-04T06:06:23Z</time></trkpt><trkpt lat="43.985569787721815" lon="12.64737200099509"><ele>41.333333333333336</ele><time>2026-05-04T06:06:24Z</time></trkpt><trkpt lat="43.98548440336916" lon="12.647328587205985"><ele>40.66666666666667</ele><time>2026-05-04T06:06:25Z</time></trkpt><trkpt lat="43.98537851338062" lon="12.647299306461623"><ele>40.0</ele><time>2026-05-04T06:06:26Z</time></trkpt><trkpt lat="43.985272818221745" lon="12.647244604810792"><ele>40.0</ele><time>2026-05-04T06:06:27Z</time></trkpt><trkpt lat="43.9851756471758" lon="12.647147923965736"><ele>40.0</ele><time>2026-05-04T06:06:28Z</time></trkpt><trkpt lat="43.98508699950591" lon="12.647029674949541"><ele>40.0</ele><time>2026-05-04T06:06:29Z</time></trkpt><trkpt lat="43.98499438548009" lon="12.646913759792756"><ele>40.0</ele><time>2026-05-04T06:06:30Z</time></trkpt><trkpt lat="43.98489359099767" lon="12.646797882937086"><ele>39.0</ele><time>2026-05-04T06:06:31Z</time></trkpt><trkpt lat="43.98479419913958" lon="12.646688138701947"><ele>38.0</ele><time>2026-05-04T06:06:32Z</time></trkpt><trkpt lat="43.98469743809171" lon="12.646583099222132"><ele>37.0</ele><time>2026-05-04T06:06:33Z</time></trkpt><trkpt lat="43.984608702063134" lon="12.646488140860878"><ele>36.0</ele><time>2026-05-04T06:06:34Z</time></trkpt><trkpt lat="43.98453407044936" lon="12.646403066888574"><ele>36.0</ele><time>2026-05-04T06:06:35Z</time></trkpt><trkpt lat="43.984472039271246" lon="12.646320569654417"><ele>36.0</ele><time>2026-05-04T06:06:36Z</time></trkpt><trkpt lat="43.984424523156726" lon="12.646230885516365"><ele>36.0</ele><time>2026-05-04T06:06:37Z</time></trkpt><trkpt lat="43.98439891382397" lon="12.646128894375101"><ele>36.0</ele><time>2026-05-04T06:06:38Z</time></trkpt><trkpt lat="43.98437938384798" lon="12.646019888657646"><ele>36.0</ele><time>2026-05-04T06:06:39Z</time></trkpt><trkpt lat="43.984366404393185" lon="12.645911656902287"><ele>36.0</ele><time>2026-05-04T06:06:40Z</time></trkpt><trkpt lat="43.98436390566721" lon="12.645798393407503"><ele>35.0</ele><time>2026-05-04T06:06:41Z</time></trkpt><trkpt lat="43.98438847108239" lon="12.645689851595929"><ele>34.0</ele><time>2026-05-04T06:06:42Z</time></trkpt><trkpt lat="43.98444458825312" lon="12.645591121632194"><ele>33.0</ele><time>2026-05-04T06:06:43Z</time></trkpt><trkpt lat="43.984510563685284" lon="12.645492337210538"><ele>32.0</ele><time>2026-05-04T06:06:44Z</time></trkpt><trkpt lat="43.98457321559546" lon="12.645376325615272"><ele>31.0</ele><time>2026-05-04T06:06:45Z</time></trkpt><trkpt lat="43.98462290762687" lon="12.645251613053029"><ele>29.833333333333336</ele><time>2026-05-04T06:06:46Z</time></trkpt><trkpt lat="43.98466547064822" lon="12.645140312621642"><ele>28.666666666666668</ele><time>2026-05-04T06:06:47Z</time></trkpt><trkpt lat="43.98470725499499" lon="12.645044729971607"><ele>27.5</ele><time>2026-05-04T06:06:48Z</time></trkpt><trkpt lat="43.98475607611061" lon="12.644961565345486"><ele>26.333333333333336</ele><time>2026-05-04T06:06:49Z</time></trkpt><trkpt lat="43.98480840964404" lon="12.644892070464596"><ele>25.166666666666668</ele><time>2026-05-04T06:06:50Z</time></trkpt><trkpt lat="43.98486456561819" lon="12.644832137095998"><ele>24.0</ele><time>2026-05-04T06:06:51Z</time></trkpt><trkpt lat="43.984911983938154" lon="12.644774018091743"><ele>24.0</ele><time>2026-05-04T06:06:52Z</time></trkpt><trkpt lat="43.98492177939052" lon="12.644617267182607"><ele>24.0</ele><time>2026-05-04T06:06:54Z</time></trkpt><trkpt lat="43.984854945371076" lon="12.644515669793826"><ele>24.0</ele><time>2026-05-04T06:06:56Z</time></trkpt><trkpt lat="43.98472540552986" lon="12.644524704767008"><ele>24.0</ele><time>2026-05-04T06:06:58Z</time></trkpt><trkpt lat="43.984646831208075" lon="12.644528483053712"><ele>24.0</ele><time>2026-05-04T06:06:59Z</time></trkpt><trkpt lat="43.98456892838909" lon="12.644501200355698"><ele>23.4</ele><time>2026-05-04T06:07:00Z</time></trkpt><trkpt lat="43.984482779427374" lon="12.644450815252723"><ele>22.799999999999997</ele><time>2026-05-04T06:07:01Z</time></trkpt><trkpt lat="43.984400845568814" lon="12.644385495343032"><ele>22.200000000000003</ele><time>2026-05-04T06:07:02Z</time></trkpt><trkpt lat="43.9843080556471" lon="12.644314570827019"><ele>21.6</ele><time>2026-05-04T06:07:03Z</time></trkpt><trkpt lat="43.98421308660827" lon="12.644245040521763"><ele>21.0</ele><time>2026-05-04T06:07:04Z</time></trkpt><trkpt lat="43.98411095259261" lon="12.644170929477474"><ele>21.0</ele><time>2026-05-04T06:07:05Z</time></trkpt><trkpt lat="43.9840123918561" lon="12.644091099003402"><ele>21.0</ele><time>2026-05-04T06:07:06Z</time></trkpt><trkpt lat="43.98391292901151" lon="12.643997267444346"><ele>21.0</ele><time>2026-05-04T06:07:07Z</time></trkpt><trkpt lat="43.983816342555926" lon="12.643897505920721"><ele>21.0</ele><time>2026-05-04T06:07:08Z</time></trkpt><trkpt lat="43.98371682288503" lon="12.64380670706218"><ele>21.0</ele><time>2026-05-04T06:07:09Z</time></trkpt><trkpt lat="43.98360209969315" lon="12.643786255288553"><ele>21.0</ele><time>2026-05-04T06:07:10Z</time></trkpt><trkpt lat="43.983503017986145" lon="12.643712300148087"><ele>21.0</ele><time>2026-05-04T06:07:11Z</time></trkpt><trkpt lat="43.983410509481196" lon="12.643632552839001"><ele>21.0</ele><time>2026-05-04T06:07:12Z</time></trkpt><trkpt lat="43.98331984096506" lon="12.643561543161288"><ele>21.0</ele><time>2026-05-04T06:07:13Z</time></trkpt><trkpt lat="43.98322814936578" lon="12.643500555319957"><ele>20.6</ele><time>2026-05-04T06:07:14Z</time></trkpt><trkpt lat="43.983133003478" lon="12.6434666186308"><ele>20.200000000000003</ele><time>2026-05-04T06:07:15Z</time></trkpt><trkpt lat="43.98303265070494" lon="12.643465481794127"><ele>19.799999999999997</ele><time>2026-05-04T06:07:16Z</time></trkpt><trkpt lat="43.982934689717744" lon="12.64349379150533"><ele>19.4</ele><time>2026-05-04T06:07:17Z</time></trkpt><trkpt lat="43.982830005148905" lon="12.643525748762341"><ele>19.0</ele><time>2026-05-04T06:07:18Z</time></trkpt><trkpt lat="43.982723186476974" lon="12.643561573226282"><ele>19.0</ele><time>2026-05-04T06:07:19Z</time></trkpt><trkpt lat="43.98262057758658" lon="12.643592010259635"><ele>19.0</ele><time>2026-05-04T06:07:20Z</time></trkpt><trkpt lat="43.98252380381035" lon="12.64360290205265"><ele>19.0</ele><time>2026-05-04T06:07:21Z</time></trkpt><trkpt lat="43.98243215283807" lon="12.643599955190119"><ele>19.0</ele><time>2026-05-04T06:07:22Z</time></trkpt><trkpt lat="43.98233110823277" lon="12.643575739551874"><ele>19.0</ele><time>2026-05-04T06:07:23Z</time></trkpt><trkpt lat="43.98223471085745" lon="12.64353194378453"><ele>18.75</ele><time>2026-05-04T06:07:24Z</time></trkpt><trkpt lat="43.982132077202486" lon="12.643454619611203"><ele>18.5</ele><time>2026-05-04T06:07:25Z</time></trkpt><trkpt lat="43.98202493800044" lon="12.643364917385547"><ele>18.25</ele><time>2026-05-04T06:07:26Z</time></trkpt><trkpt lat="43.981914005610726" lon="12.643267131241693"><ele>18.0</ele><time>2026-05-04T06:07:27Z</time></trkpt><trkpt lat="43.981804972835484" lon="12.643172956626378"><ele>18.0</ele><time>2026-05-04T06:07:28Z</time></trkpt><trkpt lat="43.98169697254655" lon="12.643080235123394"><ele>18.0</ele><time>2026-05-04T06:07:29Z</time></trkpt><trkpt lat="43.98158601466962" lon="12.642985553426929"><ele>18.0</ele><time>2026-05-04T06:07:30Z</time></trkpt><trkpt lat="43.9814778670431" lon="12.642898059848036"><ele>18.0</ele><time>2026-05-04T06:07:31Z</time></trkpt><trkpt lat="43.98136978379339" lon="12.642811175508285"><ele>18.0</ele><time>2026-05-04T06:07:32Z</time></trkpt><trkpt lat="43.9812571229004" lon="12.642720262984444"><ele>18.0</ele><time>2026-05-04T06:07:33Z</time></trkpt><trkpt lat="43.98114881843015" lon="12.642627908658907"><ele>18.0</ele><time>2026-05-04T06:07:34Z</time></trkpt><trkpt lat="43.9810412307024" lon="12.642537301894398"><ele>18.0</ele><time>2026-05-04T06:07:35Z</time></trkpt><trkpt lat="43.98093052574367" lon="12.642447089723618"><ele>18.0</ele><time>2026-05-04T06:07:36Z</time></trkpt><trkpt lat="43.98082068385208" lon="12.642354639794496"><ele>18.0</ele><time>2026-05-04T06:07:37Z</time></trkpt><trkpt lat="43.98071260787715" lon="12.642258740979626"><ele>18.0</ele><time>2026-05-04T06:07:38Z</time></trkpt><trkpt lat="43.980611878758495" lon="12.642146673824376"><ele>18.0</ele><time>2026-05-04T06:07:39Z</time></trkpt><trkpt lat="43.98052449590627" lon="12.642004922624917"><ele>18.0</ele><time>2026-05-04T06:07:40Z</time></trkpt><trkpt lat="43.98044051463989" lon="12.641868864384367"><ele>18.0</ele><time>2026-05-04T06:07:41Z</time></trkpt><trkpt lat="43.980358318248356" lon="12.64173813182694"><ele>18.0</ele><time>2026-05-04T06:07:42Z</time></trkpt><trkpt lat="43.98028202154351" lon="12.641619109961573"><ele>18.0</ele><time>2026-05-04T06:07:43Z</time></trkpt><trkpt lat="43.980210504067365" lon="12.641507227993218"><ele>18.0</ele><time>2026-05-04T06:07:44Z</time></trkpt><trkpt lat="43.98014897000069" lon="12.64141438439718"><ele>18.0</ele><time>2026-05-04T06:07:45Z</time></trkpt><trkpt lat="43.98009722417838" lon="12.641335800361826"><ele>18.0</ele><time>2026-05-04T06:07:46Z</time></trkpt><trkpt lat="43.9800272517844" lon="12.641232503890269"><ele>18.0</ele><time>2026-05-04T06:07:48Z</time></trkpt><trkpt lat="43.979994677333266" lon="12.64114821312411"><ele>18.0</ele><time>2026-05-04T06:07:50Z</time></trkpt><trkpt lat="43.97996931045686" lon="12.6410126167187"><ele>18.0</ele><time>2026-05-04T06:07:52Z</time></trkpt><trkpt lat="43.97993907225391" lon="12.640861557848309"><ele>18.42857142857143</ele><time>2026-05-04T06:07:54Z</time></trkpt><trkpt lat="43.97985673373896" lon="12.640827830083952"><ele>18.857142857142858</ele><time>2026-05-04T06:07:56Z</time></trkpt><trkpt lat="43.97979404546291" lon="12.640851473734525"><ele>19.285714285714285</ele><time>2026-05-04T06:07:57Z</time></trkpt><trkpt lat="43.97973144750228" lon="12.640884197480098"><ele>19.714285714285715</ele><time>2026-05-04T06:07:58Z</time></trkpt><trkpt lat="43.97966463593784" lon="12.640898263781946"><ele>20.142857142857142</ele><time>2026-05-04T06:07:59Z</time></trkpt><trkpt lat="43.97960076135005" lon="12.640889586082444"><ele>20.571428571428573</ele><time>2026-05-04T06:08:00Z</time></trkpt><trkpt lat="43.979532119936444" lon="12.640851446205925"><ele>21.0</ele><time>2026-05-04T06:08:01Z</time></trkpt><trkpt lat="43.97946831400012" lon="12.64080228843065"><ele>21.0</ele><time>2026-05-04T06:08:02Z</time></trkpt><trkpt lat="43.97939694470085" lon="12.640739293122664"><ele>21.0</ele><time>2026-05-04T06:08:03Z</time></trkpt><trkpt lat="43.979326695968915" lon="12.640668405476736"><ele>21.0</ele><time>2026-05-04T06:08:04Z</time></trkpt><trkpt lat="43.979263307661974" lon="12.640590042633768"><ele>21.0</ele><time>2026-05-04T06:08:05Z</time></trkpt><trkpt lat="43.97919648977986" lon="12.640497135887058"><ele>21.0</ele><time>2026-05-04T06:08:06Z</time></trkpt><trkpt lat="43.979128819995225" lon="12.64039459451332"><ele>21.4</ele><time>2026-05-04T06:08:07Z</time></trkpt><trkpt lat="43.9790615574612" lon="12.64029007517589"><ele>21.8</ele><time>2026-05-04T06:08:08Z</time></trkpt><trkpt lat="43.978996181982446" lon="12.640176838551554"><ele>22.2</ele><time>2026-05-04T06:08:09Z</time></trkpt><trkpt lat="43.97892766987831" lon="12.640061800213974"><ele>22.599999999999998</ele><time>2026-05-04T06:08:10Z</time></trkpt><trkpt lat="43.97885600742469" lon="12.639952280252103"><ele>23.0</ele><time>2026-05-04T06:08:11Z</time></trkpt><trkpt lat="43.978784596129096" lon="12.639851556994815"><ele>23.0</ele><time>2026-05-04T06:08:12Z</time></trkpt><trkpt lat="43.97870642644226" lon="12.639753361926088"><ele>23.0</ele><time>2026-05-04T06:08:13Z</time></trkpt><trkpt lat="43.97862722055411" lon="12.639656174621106"><ele>23.0</ele><time>2026-05-04T06:08:14Z</time></trkpt><trkpt lat="43.97855063282691" lon="12.639565789242111"><ele>23.0</ele><time>2026-05-04T06:08:15Z</time></trkpt><trkpt lat="43.978481707964576" lon="12.639482178046137"><ele>23.0</ele><time>2026-05-04T06:08:16Z</time></trkpt><trkpt lat="43.978432454138506" lon="12.639398869036519"><ele>22.666666666666668</ele><time>2026-05-04T06:08:17Z</time></trkpt><trkpt lat="43.978407445973126" lon="12.639300465530114"><ele>22.333333333333336</ele><time>2026-05-04T06:08:18Z</time></trkpt><trkpt lat="43.97840188692797" lon="12.639181059126166"><ele>22.0</ele><time>2026-05-04T06:08:19Z</time></trkpt><trkpt lat="43.978405045648145" lon="12.639057156036978"><ele>21.666666666666668</ele><time>2026-05-04T06:08:20Z</time></trkpt><trkpt lat="43.97842904489237" lon="12.638940263898911"><ele>21.333333333333332</ele><time>2026-05-04T06:08:21Z</time></trkpt><trkpt lat="43.97847508276008" lon="12.638822217354072"><ele>21.0</ele><time>2026-05-04T06:08:22Z</time></trkpt><trkpt lat="43.97852529155135" lon="12.638704862427494"><ele>21.5</ele><time>2026-05-04T06:08:23Z</time></trkpt><trkpt lat="43.97858101980322" lon="12.63857550601463"><ele>22.0</ele><time>2026-05-04T06:08:24Z</time></trkpt><trkpt lat="43.97864192013425" lon="12.638453060129025"><ele>22.5</ele><time>2026-05-04T06:08:25Z</time></trkpt><trkpt lat="43.97870806500806" lon="12.63832572804516"><ele>23.0</ele><time>2026-05-04T06:08:26Z</time></trkpt><trkpt lat="43.97877560114109" lon="12.638183818960442"><ele>23.0</ele><time>2026-05-04T06:08:27Z</time></trkpt><trkpt lat="43.97882993216465" lon="12.638026867973124"><ele>23.0</ele><time>2026-05-04T06:08:28Z</time></trkpt><trkpt lat="43.97886545622382" lon="12.637851433488072"><ele>23.0</ele><time>2026-05-04T06:08:29Z</time></trkpt><trkpt lat="43.97889370197547" lon="12.637664590246375"><ele>23.0</ele><time>2026-05-04T06:08:30Z</time></trkpt><trkpt lat="43.97891663030625" lon="12.637471895362896"><ele>23.25</ele><time>2026-05-04T06:08:31Z</time></trkpt><trkpt lat="43.97894087987027" lon="12.637278473115325"><ele>23.5</ele><time>2026-05-04T06:08:32Z</time></trkpt><trkpt lat="43.97897279769924" lon="12.63707653882321"><ele>23.75</ele><time>2026-05-04T06:08:33Z</time></trkpt><trkpt lat="43.978998559839376" lon="12.636871882335647"><ele>24.0</ele><time>2026-05-04T06:08:34Z</time></trkpt><trkpt lat="43.979027198015196" lon="12.636663143340005"><ele>24.0</ele><time>2026-05-04T06:08:35Z</time></trkpt><trkpt lat="43.97905510891047" lon="12.636456708525586"><ele>24.0</ele><time>2026-05-04T06:08:36Z</time></trkpt><trkpt lat="43.979085300406794" lon="12.636240119673413"><ele>24.0</ele><time>2026-05-04T06:08:37Z</time></trkpt><trkpt lat="43.97911638493666" lon="12.636019354184329"><ele>23.666666666666668</ele><time>2026-05-04T06:08:38Z</time></trkpt><trkpt lat="43.97915052986859" lon="12.635809438492334"><ele>23.333333333333336</ele><time>2026-05-04T06:08:39Z</time></trkpt><trkpt lat="43.97918805683321" lon="12.635606545767697"><ele>23.0</ele><time>2026-05-04T06:08:40Z</time></trkpt><trkpt lat="43.97922968690945" lon="12.63539247207297"><ele>24.333333333333336</ele><time>2026-05-04T06:08:41Z</time></trkpt><trkpt lat="43.979277150893445" lon="12.635150389059739"><ele>25.666666666666668</ele><time>2026-05-04T06:08:42Z</time></trkpt><trkpt lat="43.97931784507316" lon="12.634929951266056"><ele>27.0</ele><time>2026-05-04T06:08:43Z</time></trkpt><trkpt lat="43.97935687448309" lon="12.634732750497541"><ele>27.0</ele><time>2026-05-04T06:08:44Z</time></trkpt><trkpt lat="43.97940403142827" lon="12.634549719762827"><ele>27.0</ele><time>2026-05-04T06:08:45Z</time></trkpt><trkpt lat="43.97945698018077" lon="12.634358086358423"><ele>27.0</ele><time>2026-05-04T06:08:46Z</time></trkpt><trkpt lat="43.97950470103631" lon="12.63419457449631"><ele>27.0</ele><time>2026-05-04T06:08:47Z</time></trkpt><trkpt lat="43.97954074047287" lon="12.63406781975362"><ele>26.200000000000003</ele><time>2026-05-04T06:08:48Z</time></trkpt><trkpt lat="43.97955852946468" lon="12.63397208544214"><ele>25.400000000000002</ele><time>2026-05-04T06:08:49Z</time></trkpt><trkpt lat="43.979495775006356" lon="12.633799438130536"><ele>24.6</ele><time>2026-05-04T06:08:51Z</time></trkpt><trkpt lat="43.97942308467101" lon="12.633694642459133"><ele>23.799999999999997</ele><time>2026-05-04T06:08:52Z</time></trkpt><trkpt lat="43.979342976193024" lon="12.633589835569623"><ele>23.0</ele><time>2026-05-04T06:08:53Z</time></trkpt><trkpt lat="43.97926630025912" lon="12.633466288024065"><ele>23.0</ele><time>2026-05-04T06:08:54Z</time></trkpt><trkpt lat="43.97919507581145" lon="12.63333059157251"><ele>23.0</ele><time>2026-05-04T06:08:55Z</time></trkpt><trkpt lat="43.97912131583754" lon="12.633204439940371"><ele>23.0</ele><time>2026-05-04T06:08:56Z</time></trkpt><trkpt lat="43.97904733762505" lon="12.633084042923228"><ele>23.0</ele><time>2026-05-04T06:08:57Z</time></trkpt><trkpt lat="43.97896133482276" lon="12.632973103765874"><ele>23.0</ele><time>2026-05-04T06:08:58Z</time></trkpt><trkpt lat="43.97887036610009" lon="12.632868013454148"><ele>23.0</ele><time>2026-05-04T06:08:59Z</time></trkpt><trkpt lat="43.97877008872491" lon="12.632758017856958"><ele>23.0</ele><time>2026-05-04T06:09:00Z</time></trkpt><trkpt lat="43.978657480034975" lon="12.632646876703399"><ele>23.0</ele><time>2026-05-04T06:09:01Z</time></trkpt><trkpt lat="43.97854174557789" lon="12.632532927061291"><ele>23.0</ele><time>2026-05-04T06:09:02Z</time></trkpt><trkpt lat="43.97842893980946" lon="12.632419154064507"><ele>23.0</ele><time>2026-05-04T06:09:03Z</time></trkpt><trkpt lat="43.97832288526854" lon="12.632297446933206"><ele>23.0</ele><time>2026-05-04T06:09:04Z</time></trkpt><trkpt lat="43.97822278781846" lon="12.632168852718847"><ele>23.0</ele><time>2026-05-04T06:09:05Z</time></trkpt><trkpt lat="43.978121178159704" lon="12.632030607916645"><ele>22.75</ele><time>2026-05-04T06:09:06Z</time></trkpt><trkpt lat="43.9780292185371" lon="12.631888836117485"><ele>22.5</ele><time>2026-05-04T06:09:07Z</time></trkpt><trkpt lat="43.97793822334579" lon="12.6317457106491"><ele>22.25</ele><time>2026-05-04T06:09:08Z</time></trkpt><trkpt lat="43.97785281765509" lon="12.631598797154252"><ele>22.0</ele><time>2026-05-04T06:09:09Z</time></trkpt><trkpt lat="43.977762698430254" lon="12.631462077350339"><ele>22.0</ele><time>2026-05-04T06:09:10Z</time></trkpt><trkpt lat="43.97766778326692" lon="12.631328417145731"><ele>22.0</ele><time>2026-05-04T06:09:11Z</time></trkpt><trkpt lat="43.977570896741305" lon="12.631198086052352"><ele>22.0</ele><time>2026-05-04T06:09:12Z</time></trkpt><trkpt lat="43.97747297303993" lon="12.631063523981608"><ele>22.0</ele><time>2026-05-04T06:09:13Z</time></trkpt><trkpt lat="43.97737928950346" lon="12.630934068982562"><ele>22.0</ele><time>2026-05-04T06:09:14Z</time></trkpt><trkpt lat="43.97729260575754" lon="12.630818294167609"><ele>22.0</ele><time>2026-05-04T06:09:15Z</time></trkpt><trkpt lat="43.977211259551346" lon="12.63071655349913"><ele>22.0</ele><time>2026-05-04T06:09:16Z</time></trkpt><trkpt lat="43.977148907801975" lon="12.630634050932661"><ele>22.0</ele><time>2026-05-04T06:09:17Z</time></trkpt><trkpt lat="43.97710596470687" lon="12.630567624190055"><ele>22.0</ele><time>2026-05-04T06:09:18Z</time></trkpt><trkpt lat="43.97709497729655" lon="12.630428301995522"><ele>22.0</ele><time>2026-05-04T06:09:20Z</time></trkpt><trkpt lat="43.97712828356291" lon="12.630329519952484"><ele>22.0</ele><time>2026-05-04T06:09:21Z</time></trkpt><trkpt lat="43.97717602531932" lon="12.6302252901988"><ele>22.0</ele><time>2026-05-04T06:09:22Z</time></trkpt><trkpt lat="43.97722163643488" lon="12.630125505469964"><ele>22.0</ele><time>2026-05-04T06:09:23Z</time></trkpt><trkpt lat="43.977266560093426" lon="12.630038454094608"><ele>22.0</ele><time>2026-05-04T06:09:24Z</time></trkpt><trkpt lat="43.97730024123215" lon="12.629957214094922"><ele>22.0</ele><time>2026-05-04T06:09:25Z</time></trkpt><trkpt lat="43.97731747973026" lon="12.629809568378105"><ele>22.0</ele><time>2026-05-04T06:09:27Z</time></trkpt><trkpt lat="43.977279740026425" lon="12.629717551365363"><ele>22.0</ele><time>2026-05-04T06:09:28Z</time></trkpt><trkpt lat="43.977219191167265" lon="12.629624980236136"><ele>22.0</ele><time>2026-05-04T06:09:29Z</time></trkpt><trkpt lat="43.97715036107418" lon="12.629526349474093"><ele>22.0</ele><time>2026-05-04T06:09:30Z</time></trkpt><trkpt lat="43.977075008039776" lon="12.629428272160645"><ele>22.0</ele><time>2026-05-04T06:09:31Z</time></trkpt><trkpt lat="43.97699504586038" lon="12.62933611823296"><ele>22.0</ele><time>2026-05-04T06:09:32Z</time></trkpt><trkpt lat="43.97693889418755" lon="12.629201055752144"><ele>22.0</ele><time>2026-05-04T06:09:33Z</time></trkpt><trkpt lat="43.97685097867554" lon="12.629079077617371"><ele>22.0</ele><time>2026-05-04T06:09:34Z</time></trkpt><trkpt lat="43.97676889299548" lon="12.628947442567304"><ele>22.0</ele><time>2026-05-04T06:09:35Z</time></trkpt><trkpt lat="43.97668654408876" lon="12.628807875477598"><ele>22.0</ele><time>2026-05-04T06:09:36Z</time></trkpt><trkpt lat="43.976607699511455" lon="12.628661015777586"><ele>22.0</ele><time>2026-05-04T06:09:37Z</time></trkpt><trkpt lat="43.976538890638224" lon="12.628514574990662"><ele>22.0</ele><time>2026-05-04T06:09:38Z</time></trkpt><trkpt lat="43.9764764171261" lon="12.62836206625748"><ele>22.0</ele><time>2026-05-04T06:09:39Z</time></trkpt><trkpt lat="43.97641710414233" lon="12.628211120907894"><ele>22.0</ele><time>2026-05-04T06:09:40Z</time></trkpt><trkpt lat="43.976363477062534" lon="12.628074626418861"><ele>22.0</ele><time>2026-05-04T06:09:41Z</time></trkpt><trkpt lat="43.97631361969628" lon="12.627949885633791"><ele>22.0</ele><time>2026-05-04T06:09:42Z</time></trkpt><trkpt lat="43.97626832973545" lon="12.627830574145719"><ele>22.0</ele><time>2026-05-04T06:09:43Z</time></trkpt><trkpt lat="43.97623173304597" lon="12.62771666457852"><ele>22.0</ele><time>2026-05-04T06:09:44Z</time></trkpt><trkpt lat="43.97619488582538" lon="12.62760427435159"><ele>22.0</ele><time>2026-05-04T06:09:45Z</time></trkpt><trkpt lat="43.97613536396567" lon="12.627495045959426"><ele>22.0</ele><time>2026-05-04T06:09:46Z</time></trkpt><trkpt lat="43.976058020810854" lon="12.627378559002178"><ele>22.0</ele><time>2026-05-04T06:09:47Z</time></trkpt><trkpt lat="43.97597800524568" lon="12.627238219404163"><ele>22.0</ele><time>2026-05-04T06:09:48Z</time></trkpt><trkpt lat="43.97589063290128" lon="12.627097148549472"><ele>22.5</ele><time>2026-05-04T06:09:49Z</time></trkpt><trkpt lat="43.975806763386785" lon="12.626964053369097"><ele>23.0</ele><time>2026-05-04T06:09:50Z</time></trkpt><trkpt lat="43.97572492978037" lon="12.626833072289443"><ele>23.5</ele><time>2026-05-04T06:09:51Z</time></trkpt><trkpt lat="43.975648487789314" lon="12.626694832395062"><ele>24.0</ele><time>2026-05-04T06:09:52Z</time></trkpt><trkpt lat="43.97557421326435" lon="12.626550029738505"><ele>24.0</ele><time>2026-05-04T06:09:53Z</time></trkpt><trkpt lat="43.975511561512135" lon="12.626400281073463"><ele>24.0</ele><time>2026-05-04T06:09:54Z</time></trkpt><trkpt lat="43.97545905397548" lon="12.626243744453713"><ele>24.0</ele><time>2026-05-04T06:09:55Z</time></trkpt><trkpt lat="43.975400481246254" lon="12.626095066536987"><ele>24.0</ele><time>2026-05-04T06:09:56Z</time></trkpt><trkpt lat="43.97533228037817" lon="12.62597369518405"><ele>24.0</ele><time>2026-05-04T06:09:57Z</time></trkpt><trkpt lat="43.9752477200961" lon="12.625859588493695"><ele>24.0</ele><time>2026-05-04T06:09:58Z</time></trkpt><trkpt lat="43.975147222085894" lon="12.62576399167416"><ele>24.0</ele><time>2026-05-04T06:09:59Z</time></trkpt><trkpt lat="43.97505766356528" lon="12.625684062195168"><ele>24.0</ele><time>2026-05-04T06:10:00Z</time></trkpt><trkpt lat="43.97498044334275" lon="12.62560833670441"><ele>24.0</ele><time>2026-05-04T06:10:01Z</time></trkpt><trkpt lat="43.97491310844577" lon="12.625512328327307"><ele>24.0</ele><time>2026-05-04T06:10:02Z</time></trkpt><trkpt lat="43.97485152425062" lon="12.625387365238318"><ele>24.0</ele><time>2026-05-04T06:10:03Z</time></trkpt><trkpt lat="43.974809166298336" lon="12.625232459470336"><ele>24.0</ele><time>2026-05-04T06:10:04Z</time></trkpt><trkpt lat="43.97477593041441" lon="12.625070985585618"><ele>24.0</ele><time>2026-05-04T06:10:05Z</time></trkpt><trkpt lat="43.97475008486448" lon="12.624900513799618"><ele>24.4</ele><time>2026-05-04T06:10:06Z</time></trkpt><trkpt lat="43.9747403329782" lon="12.624734278555396"><ele>24.799999999999997</ele><time>2026-05-04T06:10:07Z</time></trkpt><trkpt lat="43.97473636259857" lon="12.624591709235883"><ele>25.200000000000003</ele><time>2026-05-04T06:10:08Z</time></trkpt><trkpt lat="43.97473140784979" lon="12.624446311153376"><ele>25.6</ele><time>2026-05-04T06:10:09Z</time></trkpt><trkpt lat="43.9747212973928" lon="12.62430780709343"><ele>26.0</ele><time>2026-05-04T06:10:10Z</time></trkpt><trkpt lat="43.97469362106945" lon="12.624177664693061"><ele>27.5</ele><time>2026-05-04T06:10:11Z</time></trkpt><trkpt lat="43.97464423221647" lon="12.62404858294941"><ele>29.0</ele><time>2026-05-04T06:10:12Z</time></trkpt><trkpt lat="43.97457501093993" lon="12.623917872478273"><ele>30.5</ele><time>2026-05-04T06:10:13Z</time></trkpt><trkpt lat="43.97449121045368" lon="12.623784327976944"><ele>32.0</ele><time>2026-05-04T06:10:14Z</time></trkpt><trkpt lat="43.97440574821104" lon="12.623656414995947"><ele>31.8</ele><time>2026-05-04T06:10:15Z</time></trkpt><trkpt lat="43.974314884224476" lon="12.623556877455071"><ele>31.6</ele><time>2026-05-04T06:10:16Z</time></trkpt><trkpt lat="43.97421506647481" lon="12.623476787877012"><ele>31.400000000000002</ele><time>2026-05-04T06:10:17Z</time></trkpt><trkpt lat="43.97410473351852" lon="12.62343619060859"><ele>31.200000000000003</ele><time>2026-05-04T06:10:18Z</time></trkpt><trkpt lat="43.97400585606672" lon="12.62341563300868"><ele>31.0</ele><time>2026-05-04T06:10:19Z</time></trkpt><trkpt lat="43.97392490360223" lon="12.6233923918773"><ele>31.000000000000004</ele><time>2026-05-04T06:10:20Z</time></trkpt><trkpt lat="43.97387095272327" lon="12.623345650943174"><ele>31.0</ele><time>2026-05-04T06:10:21Z</time></trkpt><trkpt lat="43.97384167084428" lon="12.623264483681297"><ele>31.0</ele><time>2026-05-04T06:10:22Z</time></trkpt><trkpt lat="43.97384455893757" lon="12.623140782269378"><ele>31.0</ele><time>2026-05-04T06:10:23Z</time></trkpt><trkpt lat="43.97386660914442" lon="12.622989143627553"><ele>31.000000000000004</ele><time>2026-05-04T06:10:24Z</time></trkpt><trkpt lat="43.97389126780868" lon="12.622839142451705"><ele>31.0</ele><time>2026-05-04T06:10:25Z</time></trkpt><trkpt lat="43.97390589142627" lon="12.622670433387253"><ele>32.0</ele><time>2026-05-04T06:10:26Z</time></trkpt><trkpt lat="43.97391592911989" lon="12.622500156208872"><ele>33.0</ele><time>2026-05-04T06:10:27Z</time></trkpt><trkpt lat="43.97392256522953" lon="12.62233180544915"><ele>34.0</ele><time>2026-05-04T06:10:28Z</time></trkpt><trkpt lat="43.97392325050372" lon="12.622166134476226"><ele>35.0</ele><time>2026-05-04T06:10:29Z</time></trkpt><trkpt lat="43.97392442506776" lon="12.621997812625098"><ele>36.6</ele><time>2026-05-04T06:10:30Z</time></trkpt><trkpt lat="43.973925531751256" lon="12.621831880269069"><ele>38.2</ele><time>2026-05-04T06:10:31Z</time></trkpt><trkpt lat="43.97392666932296" lon="12.6216741807122"><ele>39.8</ele><time>2026-05-04T06:10:32Z</time></trkpt><trkpt lat="43.973928003407664" lon="12.621535339884678"><ele>41.4</ele><time>2026-05-04T06:10:33Z</time></trkpt><trkpt lat="43.97394036950596" lon="12.621402009275158"><ele>43.0</ele><time>2026-05-04T06:10:34Z</time></trkpt><trkpt lat="43.97397590452009" lon="12.621268005502051"><ele>44.75</ele><time>2026-05-04T06:10:35Z</time></trkpt><trkpt lat="43.974034923529864" lon="12.621132911810204"><ele>46.5</ele><time>2026-05-04T06:10:36Z</time></trkpt><trkpt lat="43.974099578151844" lon="12.62099747183457"><ele>48.25</ele><time>2026-05-04T06:10:37Z</time></trkpt><trkpt lat="43.97417213047492" lon="12.620865532543993"><ele>50.0</ele><time>2026-05-04T06:10:38Z</time></trkpt><trkpt lat="43.974256213080366" lon="12.620728286925647"><ele>50.0</ele><time>2026-05-04T06:10:39Z</time></trkpt><trkpt lat="43.97435469812827" lon="12.620589077957186"><ele>50.0</ele><time>2026-05-04T06:10:40Z</time></trkpt><trkpt lat="43.97445958162626" lon="12.620449685350104"><ele>50.0</ele><time>2026-05-04T06:10:41Z</time></trkpt><trkpt lat="43.974569697170544" lon="12.620313998760828"><ele>50.0</ele><time>2026-05-04T06:10:42Z</time></trkpt><trkpt lat="43.97466584219199" lon="12.620188207992872"><ele>52.2</ele><time>2026-05-04T06:10:43Z</time></trkpt><trkpt lat="43.974747509399855" lon="12.620065271588516"><ele>54.4</ele><time>2026-05-04T06:10:44Z</time></trkpt><trkpt lat="43.974812011300905" lon="12.619943246406597"><ele>56.599999999999994</ele><time>2026-05-04T06:10:45Z</time></trkpt><trkpt lat="43.974858938310454" lon="12.619812799627447"><ele>58.8</ele><time>2026-05-04T06:10:46Z</time></trkpt><trkpt lat="43.974883915408284" lon="12.619695737489103"><ele>61.0</ele><time>2026-05-04T06:10:47Z</time></trkpt><trkpt lat="43.97489252065163" lon="12.619594524453559"><ele>61.599999999999994</ele><time>2026-05-04T06:10:48Z</time></trkpt><trkpt lat="43.97489077956703" lon="12.619462661611237"><ele>62.199999999999996</ele><time>2026-05-04T06:10:50Z</time></trkpt><trkpt lat="43.97487646165165" lon="12.619372288716"><ele>62.800000000000004</ele><time>2026-05-04T06:10:54Z</time></trkpt><trkpt lat="43.974714209095104" lon="12.619336781706108"><ele>63.400000000000006</ele><time>2026-05-04T06:10:56Z</time></trkpt><trkpt lat="43.974599005782046" lon="12.619298433333363"><ele>64.0</ele><time>2026-05-04T06:10:57Z</time></trkpt><trkpt lat="43.974479727988864" lon="12.619245070320694"><ele>64.0</ele><time>2026-05-04T06:10:58Z</time></trkpt><trkpt lat="43.974343330713374" lon="12.619182352158333"><ele>64.0</ele><time>2026-05-04T06:10:59Z</time></trkpt><trkpt lat="43.974201686182084" lon="12.619117156226672"><ele>64.0</ele><time>2026-05-04T06:11:00Z</time></trkpt><trkpt lat="43.97406441851251" lon="12.619052614963199"><ele>64.0</ele><time>2026-05-04T06:11:01Z</time></trkpt><trkpt lat="43.97394102225044" lon="12.618997335891152"><ele>63.25</ele><time>2026-05-04T06:11:02Z</time></trkpt><trkpt lat="43.9738186954038" lon="12.618940969411137"><ele>62.5</ele><time>2026-05-04T06:11:03Z</time></trkpt><trkpt lat="43.973697884836426" lon="12.618883422824617"><ele>61.75</ele><time>2026-05-04T06:11:04Z</time></trkpt><trkpt lat="43.97357626059795" lon="12.618825706399047"><ele>61.0</ele><time>2026-05-04T06:11:05Z</time></trkpt><trkpt lat="43.97345134048602" lon="12.618768025517088"><ele>60.75</ele><time>2026-05-04T06:11:06Z</time></trkpt><trkpt lat="43.973325678169886" lon="12.618713505727023"><ele>60.5</ele><time>2026-05-04T06:11:07Z</time></trkpt><trkpt lat="43.97320312354641" lon="12.618660538838338"><ele>60.25</ele><time>2026-05-04T06:11:08Z</time></trkpt><trkpt lat="43.973079198166204" lon="12.618602211751163"><ele>60.0</ele><time>2026-05-04T06:11:09Z</time></trkpt><trkpt lat="43.972954685305766" lon="12.618550194282705"><ele>60.0</ele><time>2026-05-04T06:11:10Z</time></trkpt><trkpt lat="43.972824888789134" lon="12.618502914007022"><ele>60.0</ele><time>2026-05-04T06:11:11Z</time></trkpt><trkpt lat="43.97268695129578" lon="12.618465514925663"><ele>60.0</ele><time>2026-05-04T06:11:12Z</time></trkpt><trkpt lat="43.97254288820477" lon="12.618430519568882"><ele>60.0</ele><time>2026-05-04T06:11:13Z</time></trkpt><trkpt lat="43.97239687888701" lon="12.61839737180847"><ele>61.0</ele><time>2026-05-04T06:11:14Z</time></trkpt><trkpt lat="43.97224670384636" lon="12.61836337545963"><ele>62.0</ele><time>2026-05-04T06:11:15Z</time></trkpt><trkpt lat="43.97209476811516" lon="12.618329475285693"><ele>63.0</ele><time>2026-05-04T06:11:16Z</time></trkpt><trkpt lat="43.97195280580249" lon="12.618294503510011"><ele>63.0</ele><time>2026-05-04T06:11:17Z</time></trkpt><trkpt lat="43.97179639911833" lon="12.618270317943356"><ele>63.0</ele><time>2026-05-04T06:11:18Z</time></trkpt><trkpt lat="43.97163834677311" lon="12.618231468425199"><ele>63.0</ele><time>2026-05-04T06:11:19Z</time></trkpt><trkpt lat="43.971477388937984" lon="12.618194207995668"><ele>62.25</ele><time>2026-05-04T06:11:20Z</time></trkpt><trkpt lat="43.9713212549944" lon="12.618156463797892"><ele>61.5</ele><time>2026-05-04T06:11:21Z</time></trkpt><trkpt lat="43.97117708170124" lon="12.61812725166199"><ele>60.75</ele><time>2026-05-04T06:11:22Z</time></trkpt><trkpt lat="43.97103947843054" lon="12.618094900436262"><ele>60.0</ele><time>2026-05-04T06:11:23Z</time></trkpt><trkpt lat="43.970904603896" lon="12.61806545696854"><ele>60.5</ele><time>2026-05-04T06:11:24Z</time></trkpt><trkpt lat="43.97077298718077" lon="12.618037862311297"><ele>61.0</ele><time>2026-05-04T06:11:25Z</time></trkpt><trkpt lat="43.970647269616286" lon="12.618014692608455"><ele>61.5</ele><time>2026-05-04T06:11:26Z</time></trkpt><trkpt lat="43.970526239159895" lon="12.61798825893632"><ele>62.0</ele><time>2026-05-04T06:11:27Z</time></trkpt><trkpt lat="43.970409198576" lon="12.617969281691098"><ele>62.00000000000001</ele><time>2026-05-04T06:11:28Z</time></trkpt><trkpt lat="43.97031284228585" lon="12.617941244609737"><ele>62.0</ele><time>2026-05-04T06:11:29Z</time></trkpt><trkpt lat="43.97022896122149" lon="12.617921202487473"><ele>62.0</ele><time>2026-05-04T06:11:30Z</time></trkpt><trkpt lat="43.97016198495642" lon="12.617895900479166"><ele>62.0</ele><time>2026-05-04T06:11:31Z</time></trkpt><trkpt lat="43.970079532872234" lon="12.617816276389878"><ele>62.00000000000001</ele><time>2026-05-04T06:11:33Z</time></trkpt><trkpt lat="43.97004352089353" lon="12.617737210722096"><ele>62.0</ele><time>2026-05-04T06:11:34Z</time></trkpt><trkpt lat="43.97001197908961" lon="12.617629566189597"><ele>61.8</ele><time>2026-05-04T06:11:35Z</time></trkpt><trkpt lat="43.970001804377674" lon="12.617509547248856"><ele>61.6</ele><time>2026-05-04T06:11:36Z</time></trkpt><trkpt lat="43.970002578846966" lon="12.617359587852317"><ele>61.39999999999999</ele><time>2026-05-04T06:11:37Z</time></trkpt><trkpt lat="43.97002113912744" lon="12.617211385121905"><ele>61.199999999999996</ele><time>2026-05-04T06:11:38Z</time></trkpt><trkpt lat="43.97003881468746" lon="12.617061876362865"><ele>61.0</ele><time>2026-05-04T06:11:39Z</time></trkpt><trkpt lat="43.97005587294094" lon="12.616907310243263"><ele>59.0</ele><time>2026-05-04T06:11:40Z</time></trkpt><trkpt lat="43.97007382117859" lon="12.616746706345593"><ele>57.0</ele><time>2026-05-04T06:11:41Z</time></trkpt><trkpt lat="43.970089316187696" lon="12.616590039316629"><ele>55.0</ele><time>2026-05-04T06:11:42Z</time></trkpt><trkpt lat="43.97010391277704" lon="12.616425956606426"><ele>53.0</ele><time>2026-05-04T06:11:43Z</time></trkpt><trkpt lat="43.970122635492885" lon="12.616262933095262"><ele>51.25</ele><time>2026-05-04T06:11:44Z</time></trkpt><trkpt lat="43.9701407853883" lon="12.616099199999036"><ele>49.5</ele><time>2026-05-04T06:11:45Z</time></trkpt><trkpt lat="43.97016020636868" lon="12.615929754415038"><ele>47.75</ele><time>2026-05-04T06:11:46Z</time></trkpt><trkpt lat="43.97017979842177" lon="12.615754314250484"><ele>46.0</ele><time>2026-05-04T06:11:47Z</time></trkpt><trkpt lat="43.970199695065816" lon="12.615571340970435"><ele>46.0</ele><time>2026-05-04T06:11:48Z</time></trkpt><trkpt lat="43.970218704035915" lon="12.615382624439878"><ele>46.0</ele><time>2026-05-04T06:11:49Z</time></trkpt><trkpt lat="43.97023900677563" lon="12.615183751000624"><ele>46.0</ele><time>2026-05-04T06:11:50Z</time></trkpt><trkpt lat="43.97025982988022" lon="12.614986911123435"><ele>46.0</ele><time>2026-05-04T06:11:51Z</time></trkpt><trkpt lat="43.97027868524503" lon="12.614787556736111"><ele>44.5</ele><time>2026-05-04T06:11:52Z</time></trkpt><trkpt lat="43.9702980051214" lon="12.61458873766988"><ele>43.0</ele><time>2026-05-04T06:11:53Z</time></trkpt><trkpt lat="43.9703178035761" lon="12.61438268284706"><ele>41.5</ele><time>2026-05-04T06:11:54Z</time></trkpt><trkpt lat="43.97033741860212" lon="12.614170978130659"><ele>40.0</ele><time>2026-05-04T06:11:55Z</time></trkpt><trkpt lat="43.97035979995267" lon="12.613954569623525"><ele>39.66666666666667</ele><time>2026-05-04T06:11:56Z</time></trkpt><trkpt lat="43.970380286729345" lon="12.613749612626961"><ele>39.333333333333336</ele><time>2026-05-04T06:11:57Z</time></trkpt><trkpt lat="43.97040119388719" lon="12.613543709851728"><ele>39.0</ele><time>2026-05-04T06:11:58Z</time></trkpt><trkpt lat="43.97042098234689" lon="12.613331011998996"><ele>37.333333333333336</ele><time>2026-05-04T06:11:59Z</time></trkpt><trkpt lat="43.970442958984556" lon="12.613126061933066"><ele>35.66666666666667</ele><time>2026-05-04T06:12:00Z</time></trkpt><trkpt lat="43.970463900150655" lon="12.61290897165653"><ele>34.0</ele><time>2026-05-04T06:12:01Z</time></trkpt><trkpt lat="43.97048704420242" lon="12.612691579226684"><ele>33.0</ele><time>2026-05-04T06:12:02Z</time></trkpt><trkpt lat="43.97051214899121" lon="12.612477652086115"><ele>32.0</ele><time>2026-05-04T06:12:03Z</time></trkpt><trkpt lat="43.97053337238274" lon="12.612260900464843"><ele>31.0</ele><time>2026-05-04T06:12:04Z</time></trkpt><trkpt lat="43.97055612743556" lon="12.6120467832193"><ele>31.25</ele><time>2026-05-04T06:12:05Z</time></trkpt><trkpt lat="43.970577400924626" lon="12.611848033267826"><ele>31.5</ele><time>2026-05-04T06:12:06Z</time></trkpt><trkpt lat="43.9705967904483" lon="12.611657766719679"><ele>31.75</ele><time>2026-05-04T06:12:07Z</time></trkpt><trkpt lat="43.97061595276918" lon="12.611476588832682"><ele>32.0</ele><time>2026-05-04T06:12:08Z</time></trkpt><trkpt lat="43.9706281776182" lon="12.611304061667715"><ele>32.25</ele><time>2026-05-04T06:12:09Z</time></trkpt><trkpt lat="43.97063612303834" lon="12.611139229799418"><ele>32.5</ele><time>2026-05-04T06:12:10Z</time></trkpt><trkpt lat="43.9706335923719" lon="12.610974285410878"><ele>32.75</ele><time>2026-05-04T06:12:11Z</time></trkpt><trkpt lat="43.97062562233383" lon="12.61081028304258"><ele>33.0</ele><time>2026-05-04T06:12:12Z</time></trkpt><trkpt lat="43.97060359309202" lon="12.61065186949525"><ele>33.0</ele><time>2026-05-04T06:12:13Z</time></trkpt><trkpt lat="43.970568710754826" lon="12.610505475047919"><ele>33.0</ele><time>2026-05-04T06:12:14Z</time></trkpt><trkpt lat="43.9705107820851" lon="12.610375840757202"><ele>33.0</ele><time>2026-05-04T06:12:15Z</time></trkpt><trkpt lat="43.97042558685376" lon="12.61026405628615"><ele>33.0</ele><time>2026-05-04T06:12:16Z</time></trkpt><trkpt lat="43.970319004713886" lon="12.610159860099015"><ele>32.5</ele><time>2026-05-04T06:12:17Z</time></trkpt><trkpt lat="43.97022238706533" lon="12.610045484349644"><ele>32.0</ele><time>2026-05-04T06:12:18Z</time></trkpt><trkpt lat="43.97014834492013" lon="12.609902651954982"><ele>31.5</ele><time>2026-05-04T06:12:19Z</time></trkpt><trkpt lat="43.97009977140541" lon="12.60973732184108"><ele>31.0</ele><time>2026-05-04T06:12:20Z</time></trkpt><trkpt lat="43.97006704903385" lon="12.609558942162337"><ele>30.25</ele><time>2026-05-04T06:12:21Z</time></trkpt><trkpt lat="43.9700452533493" lon="12.609364369539751"><ele>29.5</ele><time>2026-05-04T06:12:22Z</time></trkpt><trkpt lat="43.97002765935567" lon="12.609171345835835"><ele>28.75</ele><time>2026-05-04T06:12:23Z</time></trkpt><trkpt lat="43.97000761843906" lon="12.608968712142989"><ele>28.0</ele><time>2026-05-04T06:12:24Z</time></trkpt><trkpt lat="43.96998749194632" lon="12.608775400623578"><ele>29.0</ele><time>2026-05-04T06:12:25Z</time></trkpt><trkpt lat="43.9699602159631" lon="12.608580762259079"><ele>30.0</ele><time>2026-05-04T06:12:26Z</time></trkpt><trkpt lat="43.969933398236066" lon="12.608381964020907"><ele>31.0</ele><time>2026-05-04T06:12:27Z</time></trkpt><trkpt lat="43.969904533912334" lon="12.608170306267734"><ele>32.0</ele><time>2026-05-04T06:12:28Z</time></trkpt><trkpt lat="43.96987614628099" lon="12.607966797739167"><ele>34.5</ele><time>2026-05-04T06:12:29Z</time></trkpt><trkpt lat="43.96984627882754" lon="12.607767873433659"><ele>37.0</ele><time>2026-05-04T06:12:30Z</time></trkpt><trkpt lat="43.969813333046226" lon="12.607579159710474"><ele>39.5</ele><time>2026-05-04T06:12:31Z</time></trkpt><trkpt lat="43.96977294481275" lon="12.607384273761307"><ele>42.0</ele><time>2026-05-04T06:12:32Z</time></trkpt><trkpt lat="43.96972821538787" lon="12.607191935017532"><ele>42.0</ele><time>2026-05-04T06:12:33Z</time></trkpt><trkpt lat="43.969683158481665" lon="12.607008684769214"><ele>42.0</ele><time>2026-05-04T06:12:34Z</time></trkpt><trkpt lat="43.96963890439935" lon="12.606828507589292"><ele>42.0</ele><time>2026-05-04T06:12:35Z</time></trkpt><trkpt lat="43.969594812029285" lon="12.606651421255513"><ele>42.0</ele><time>2026-05-04T06:12:36Z</time></trkpt><trkpt lat="43.96955014337378" lon="12.606479777166465"><ele>43.75</ele><time>2026-05-04T06:12:37Z</time></trkpt><trkpt lat="43.96950505291936" lon="12.606304081843744"><ele>45.5</ele><time>2026-05-04T06:12:38Z</time></trkpt><trkpt lat="43.96946044507781" lon="12.606134466739137"><ele>47.25</ele><time>2026-05-04T06:12:39Z</time></trkpt><trkpt lat="43.96941601790898" lon="12.605972816959794"><ele>49.0</ele><time>2026-05-04T06:12:40Z</time></trkpt><trkpt lat="43.969378027458745" lon="12.605820726384758"><ele>50.6</ele><time>2026-05-04T06:12:41Z</time></trkpt><trkpt lat="43.969342232548655" lon="12.605671011290246"><ele>52.2</ele><time>2026-05-04T06:12:42Z</time></trkpt><trkpt lat="43.96931509879762" lon="12.605524528794867"><ele>53.800000000000004</ele><time>2026-05-04T06:12:43Z</time></trkpt><trkpt lat="43.96930195041563" lon="12.605374119921127"><ele>55.400000000000006</ele><time>2026-05-04T06:12:44Z</time></trkpt><trkpt lat="43.96931054752902" lon="12.60522084741476"><ele>57.0</ele><time>2026-05-04T06:12:45Z</time></trkpt><trkpt lat="43.96932839800031" lon="12.605064608364417"><ele>58.8</ele><time>2026-05-04T06:12:46Z</time></trkpt><trkpt lat="43.96935918487686" lon="12.604919867907386"><ele>60.6</ele><time>2026-05-04T06:12:47Z</time></trkpt><trkpt lat="43.96938565145054" lon="12.604794259759922"><ele>62.39999999999999</ele><time>2026-05-04T06:12:48Z</time></trkpt><trkpt lat="43.9694065827398" lon="12.604689591841268"><ele>64.2</ele><time>2026-05-04T06:12:49Z</time></trkpt><trkpt lat="43.96942570391771" lon="12.604584491864843"><ele>66.0</ele><time>2026-05-04T06:12:50Z</time></trkpt><trkpt lat="43.96944931021651" lon="12.604462057932295"><ele>67.8</ele><time>2026-05-04T06:12:51Z</time></trkpt><trkpt lat="43.96947475808672" lon="12.604332713871448"><ele>69.6</ele><time>2026-05-04T06:12:52Z</time></trkpt><trkpt lat="43.96949555164961" lon="12.604214145229104"><ele>71.4</ele><time>2026-05-04T06:12:53Z</time></trkpt><trkpt lat="43.969517083991065" lon="12.604093251438604"><ele>73.2</ele><time>2026-05-04T06:12:54Z</time></trkpt><trkpt lat="43.96953915058466" lon="12.60396150170282"><ele>75.0</ele><time>2026-05-04T06:12:55Z</time></trkpt><trkpt lat="43.96956602336709" lon="12.603826498163833"><ele>75.0</ele><time>2026-05-04T06:12:56Z</time></trkpt><trkpt lat="43.96959140176059" lon="12.603692277443919"><ele>75.0</ele><time>2026-05-04T06:12:57Z</time></trkpt><trkpt lat="43.96961639620051" lon="12.603556888718444"><ele>75.0</ele><time>2026-05-04T06:12:58Z</time></trkpt><trkpt lat="43.9696390315303" lon="12.603435459468026"><ele>75.0</ele><time>2026-05-04T06:12:59Z</time></trkpt><trkpt lat="43.969659408198396" lon="12.603327811797325"><ele>75.0</ele><time>2026-05-04T06:13:00Z</time></trkpt><trkpt lat="43.9696767999507" lon="12.603236953938294"><ele>75.0</ele><time>2026-05-04T06:13:01Z</time></trkpt><trkpt lat="43.9697010465332" lon="12.603074937102727"><ele>75.5</ele><time>2026-05-04T06:13:03Z</time></trkpt><trkpt lat="43.96972140534308" lon="12.60294425848248"><ele>76.0</ele><time>2026-05-04T06:13:05Z</time></trkpt><trkpt lat="43.969734759354004" lon="12.602856960453373"><ele>76.5</ele><time>2026-05-04T06:13:09Z</time></trkpt><trkpt lat="43.969749558081894" lon="12.60275401339465"><ele>77.0</ele><time>2026-05-04T06:13:11Z</time></trkpt><trkpt lat="43.96976226406251" lon="12.602649967638724"><ele>77.5</ele><time>2026-05-04T06:13:14Z</time></trkpt><trkpt lat="43.969778105748354" lon="12.60255314737769"><ele>78.0</ele><time>2026-05-04T06:13:18Z</time></trkpt><trkpt lat="43.96977344230456" lon="12.60245667238117"><ele>78.71428571428572</ele><time>2026-05-04T06:13:23Z</time></trkpt><trkpt lat="43.969709542177135" lon="12.602382096571578"><ele>79.42857142857142</ele><time>2026-05-04T06:13:25Z</time></trkpt><trkpt lat="43.96964750127628" lon="12.60236157939721"><ele>80.14285714285714</ele><time>2026-05-04T06:13:26Z</time></trkpt><trkpt lat="43.9695749333978" lon="12.602334154177422"><ele>80.85714285714286</ele><time>2026-05-04T06:13:27Z</time></trkpt><trkpt lat="43.96950524090214" lon="12.602292578083471"><ele>81.57142857142858</ele><time>2026-05-04T06:13:28Z</time></trkpt><trkpt lat="43.96943566795076" lon="12.602253848149775"><ele>82.28571428571428</ele><time>2026-05-04T06:13:29Z</time></trkpt><trkpt lat="43.969365503502395" lon="12.602220520205199"><ele>83.0</ele><time>2026-05-04T06:13:30Z</time></trkpt><trkpt lat="43.96930509137412" lon="12.602179820721595"><ele>83.0</ele><time>2026-05-04T06:13:31Z</time></trkpt><trkpt lat="43.969209969034374" lon="12.602105275812516"><ele>83.0</ele><time>2026-05-04T06:13:33Z</time></trkpt><trkpt lat="43.9691429696126" lon="12.602098641637651"><ele>83.0</ele><time>2026-05-04T06:13:36Z</time></trkpt><trkpt lat="43.969084746575284" lon="12.602025741550403"><ele>83.0</ele><time>2026-05-04T06:13:42Z</time></trkpt><trkpt lat="43.96903340136961" lon="12.601929872149606"><ele>83.0</ele><time>2026-05-04T06:13:54Z</time></trkpt><trkpt lat="43.96893401796895" lon="12.601885125490728"><ele>83.0</ele><time>2026-05-04T06:13:56Z</time></trkpt><trkpt lat="43.96886364372497" lon="12.601899704954374"><ele>83.14285714285714</ele><time>2026-05-04T06:13:57Z</time></trkpt><trkpt lat="43.96879759390298" lon="12.601904228466292"><ele>83.28571428571429</ele><time>2026-05-04T06:13:58Z</time></trkpt><trkpt lat="43.96872965263694" lon="12.60189624829066"><ele>83.42857142857143</ele><time>2026-05-04T06:13:59Z</time></trkpt><trkpt lat="43.968660311649955" lon="12.601849788407167"><ele>83.57142857142857</ele><time>2026-05-04T06:14:01Z</time></trkpt><trkpt lat="43.968580296729264" lon="12.601816888963828"><ele>83.71428571428572</ele><time>2026-05-04T06:14:03Z</time></trkpt><trkpt lat="43.9685200735133" lon="12.601778743247815"><ele>83.85714285714286</ele><time>2026-05-04T06:14:04Z</time></trkpt><trkpt lat="43.968456092489276" lon="12.60173503569768"><ele>84.0</ele><time>2026-05-04T06:14:05Z</time></trkpt><trkpt lat="43.96839205465657" lon="12.601691967686032"><ele>84.5</ele><time>2026-05-04T06:14:06Z</time></trkpt><trkpt lat="43.96833038200823" lon="12.60166294272764"><ele>85.0</ele><time>2026-05-04T06:14:07Z</time></trkpt><trkpt lat="43.96826013645295" lon="12.601633935109241"><ele>85.5</ele><time>2026-05-04T06:14:08Z</time></trkpt><trkpt lat="43.96819059717252" lon="12.601603886850084"><ele>86.0</ele><time>2026-05-04T06:14:09Z</time></trkpt><trkpt lat="43.96812307500323" lon="12.601576733094955"><ele>86.5</ele><time>2026-05-04T06:14:10Z</time></trkpt><trkpt lat="43.96805887294395" lon="12.601555415291752"><ele>87.0</ele><time>2026-05-04T06:14:11Z</time></trkpt><trkpt lat="43.96793422995188" lon="12.601522620118045"><ele>87.0</ele><time>2026-05-04T06:14:13Z</time></trkpt><trkpt lat="43.96782913102196" lon="12.601479199008937"><ele>87.0</ele><time>2026-05-04T06:14:15Z</time></trkpt><trkpt lat="43.967765670163494" lon="12.60131862696914"><ele>87.0</ele><time>2026-05-04T06:14:17Z</time></trkpt><trkpt lat="43.967742971126604" lon="12.601209854007763"><ele>87.0</ele><time>2026-05-04T06:14:18Z</time></trkpt><trkpt lat="43.96770562534486" lon="12.60109884232314"><ele>87.0</ele><time>2026-05-04T06:14:19Z</time></trkpt><trkpt lat="43.96766396929829" lon="12.600985367720993"><ele>87.0</ele><time>2026-05-04T06:14:20Z</time></trkpt><trkpt lat="43.96762026863886" lon="12.600874815379186"><ele>87.0</ele><time>2026-05-04T06:14:21Z</time></trkpt><trkpt lat="43.967566528504456" lon="12.600773151625377"><ele>87.0</ele><time>2026-05-04T06:14:22Z</time></trkpt><trkpt lat="43.96751992356401" lon="12.600658650618932"><ele>87.0</ele><time>2026-05-04T06:14:23Z</time></trkpt><trkpt lat="43.96747028737825" lon="12.600542906435455"><ele>87.0</ele><time>2026-05-04T06:14:24Z</time></trkpt><trkpt lat="43.967413965833934" lon="12.600427336440205"><ele>86.16666666666667</ele><time>2026-05-04T06:14:25Z</time></trkpt><trkpt lat="43.96735805334963" lon="12.600318010963376"><ele>85.33333333333333</ele><time>2026-05-04T06:14:26Z</time></trkpt><trkpt lat="43.96730873561283" lon="12.600209826568033"><ele>84.5</ele><time>2026-05-04T06:14:27Z</time></trkpt><trkpt lat="43.96726420698338" lon="12.600111693330117"><ele>83.66666666666666</ele><time>2026-05-04T06:14:28Z</time></trkpt><trkpt lat="43.967236832044755" lon="12.600013040545855"><ele>82.83333333333333</ele><time>2026-05-04T06:14:29Z</time></trkpt><trkpt lat="43.96723751586889" lon="12.59991789187068"><ele>82.0</ele><time>2026-05-04T06:14:30Z</time></trkpt><trkpt lat="43.967261716261945" lon="12.599821917880183"><ele>82.0</ele><time>2026-05-04T06:14:31Z</time></trkpt><trkpt lat="43.96731632424548" lon="12.599732630414051"><ele>82.0</ele><time>2026-05-04T06:14:32Z</time></trkpt><trkpt lat="43.96738749282047" lon="12.599650646458226"><ele>82.0</ele><time>2026-05-04T06:14:33Z</time></trkpt><trkpt lat="43.96748755597797" lon="12.599558297840405"><ele>82.0</ele><time>2026-05-04T06:14:34Z</time></trkpt><trkpt lat="43.96759799852457" lon="12.599467429709033"><ele>82.0</ele><time>2026-05-04T06:14:35Z</time></trkpt><trkpt lat="43.96771250239026" lon="12.599362530958796"><ele>78.75</ele><time>2026-05-04T06:14:36Z</time></trkpt><trkpt lat="43.967816805660384" lon="12.599256114649007"><ele>75.5</ele><time>2026-05-04T06:14:37Z</time></trkpt><trkpt lat="43.96791811020807" lon="12.599145902384272"><ele>72.25</ele><time>2026-05-04T06:14:38Z</time></trkpt><trkpt lat="43.96801894045196" lon="12.599029752803618"><ele>69.0</ele><time>2026-05-04T06:14:39Z</time></trkpt><trkpt lat="43.968118874954584" lon="12.598915239560176"><ele>69.0</ele><time>2026-05-04T06:14:40Z</time></trkpt><trkpt lat="43.96821977180618" lon="12.598796675686984"><ele>69.0</ele><time>2026-05-04T06:14:41Z</time></trkpt><trkpt lat="43.96831967756342" lon="12.598675589704635"><ele>69.0</ele><time>2026-05-04T06:14:42Z</time></trkpt><trkpt lat="43.968408753326095" lon="12.598541739971004"><ele>69.0</ele><time>2026-05-04T06:14:43Z</time></trkpt><trkpt lat="43.96849151971296" lon="12.598393125944966"><ele>65.25</ele><time>2026-05-04T06:14:44Z</time></trkpt><trkpt lat="43.96857298686458" lon="12.598236186785478"><ele>61.5</ele><time>2026-05-04T06:14:45Z</time></trkpt><trkpt lat="43.96864848949022" lon="12.598097638745793"><ele>57.75</ele><time>2026-05-04T06:14:46Z</time></trkpt><trkpt lat="43.968726298218066" lon="12.59796340041456"><ele>54.0</ele><time>2026-05-04T06:14:47Z</time></trkpt><trkpt lat="43.968801345966554" lon="12.597826765675942"><ele>52.800000000000004</ele><time>2026-05-04T06:14:48Z</time></trkpt><trkpt lat="43.968873115707446" lon="12.597696013591264"><ele>51.60000000000001</ele><time>2026-05-04T06:14:49Z</time></trkpt><trkpt lat="43.96893001370051" lon="12.597577385066694"><ele>50.4</ele><time>2026-05-04T06:14:50Z</time></trkpt><trkpt lat="43.96896029150267" lon="12.59744774299378"><ele>49.2</ele><time>2026-05-04T06:14:51Z</time></trkpt><trkpt lat="43.96897243338402" lon="12.597320290303301"><ele>48.0</ele><time>2026-05-04T06:14:52Z</time></trkpt><trkpt lat="43.96895428387408" lon="12.59716574047543"><ele>46.25</ele><time>2026-05-04T06:14:53Z</time></trkpt><trkpt lat="43.96892677370931" lon="12.596984118122347"><ele>44.5</ele><time>2026-05-04T06:14:54Z</time></trkpt><trkpt lat="43.96889634719956" lon="12.596794257219601"><ele>42.75</ele><time>2026-05-04T06:14:55Z</time></trkpt><trkpt lat="43.968862705636035" lon="12.59660880396914"><ele>41.0</ele><time>2026-05-04T06:14:56Z</time></trkpt><trkpt lat="43.968822899642895" lon="12.596430912725388"><ele>41.0</ele><time>2026-05-04T06:14:57Z</time></trkpt><trkpt lat="43.96877793784474" lon="12.596264128223387"><ele>41.0</ele><time>2026-05-04T06:14:58Z</time></trkpt><trkpt lat="43.96872794582486" lon="12.596091679244985"><ele>41.0</ele><time>2026-05-04T06:14:59Z</time></trkpt><trkpt lat="43.96868056291845" lon="12.595918364128451"><ele>41.0</ele><time>2026-05-04T06:15:00Z</time></trkpt><trkpt lat="43.96863710792574" lon="12.595752440523338"><ele>40.4</ele><time>2026-05-04T06:15:01Z</time></trkpt><trkpt lat="43.96859917061057" lon="12.595593211920592"><ele>39.8</ele><time>2026-05-04T06:15:02Z</time></trkpt><trkpt lat="43.96856465921999" lon="12.5954466734996"><ele>39.199999999999996</ele><time>2026-05-04T06:15:03Z</time></trkpt><trkpt lat="43.96853741700411" lon="12.59530730628938"><ele>38.599999999999994</ele><time>2026-05-04T06:15:04Z</time></trkpt><trkpt lat="43.96852684646311" lon="12.595193174491067"><ele>38.0</ele><time>2026-05-04T06:15:05Z</time></trkpt><trkpt lat="43.96853340798299" lon="12.59510306129871"><ele>37.8</ele><time>2026-05-04T06:15:06Z</time></trkpt><trkpt lat="43.968577608904376" lon="12.594963048686749"><ele>37.599999999999994</ele><time>2026-05-04T06:15:08Z</time></trkpt><trkpt lat="43.96861602180317" lon="12.594893636644944"><ele>37.400000000000006</ele><time>2026-05-04T06:15:09Z</time></trkpt><trkpt lat="43.96867900486357" lon="12.594776385937314"><ele>37.2</ele><time>2026-05-04T06:15:11Z</time></trkpt><trkpt lat="43.968639696911545" lon="12.5946330496025"><ele>37.0</ele><time>2026-05-04T06:15:13Z</time></trkpt><trkpt lat="43.96856968153488" lon="12.594587099932628"><ele>37.0</ele><time>2026-05-04T06:15:14Z</time></trkpt><trkpt lat="43.968478133870434" lon="12.594528229660636"><ele>37.0</ele><time>2026-05-04T06:15:15Z</time></trkpt><trkpt lat="43.96839082509745" lon="12.594437403544768"><ele>37.0</ele><time>2026-05-04T06:15:16Z</time></trkpt><trkpt lat="43.96829246134286" lon="12.594313878033077"><ele>37.0</ele><time>2026-05-04T06:15:17Z</time></trkpt><trkpt lat="43.96819635872782" lon="12.594202344757887"><ele>37.25</ele><time>2026-05-04T06:15:18Z</time></trkpt><trkpt lat="43.968097699280406" lon="12.594089388360405"><ele>37.5</ele><time>2026-05-04T06:15:19Z</time></trkpt><trkpt lat="43.967998295952135" lon="12.593969386475896"><ele>37.75</ele><time>2026-05-04T06:15:20Z</time></trkpt><trkpt lat="43.96789742433651" lon="12.593836484441717"><ele>38.0</ele><time>2026-05-04T06:15:21Z</time></trkpt><trkpt lat="43.96779288158886" lon="12.59369605137281"><ele>38.0</ele><time>2026-05-04T06:15:22Z</time></trkpt><trkpt lat="43.96768950929126" lon="12.593558371790392"><ele>38.0</ele><time>2026-05-04T06:15:23Z</time></trkpt><trkpt lat="43.96759482289212" lon="12.593423942741591"><ele>38.0</ele><time>2026-05-04T06:15:24Z</time></trkpt><trkpt lat="43.96749729139188" lon="12.593281271434522"><ele>38.0</ele><time>2026-05-04T06:15:25Z</time></trkpt><trkpt lat="43.967404813608354" lon="12.593148830011863"><ele>38.25</ele><time>2026-05-04T06:15:26Z</time></trkpt><trkpt lat="43.96731315904163" lon="12.593012450947821"><ele>38.5</ele><time>2026-05-04T06:15:27Z</time></trkpt><trkpt lat="43.967221604757846" lon="12.59287945010296"><ele>38.75</ele><time>2026-05-04T06:15:28Z</time></trkpt><trkpt lat="43.967129112097446" lon="12.592743704762784"><ele>39.0</ele><time>2026-05-04T06:15:29Z</time></trkpt><trkpt lat="43.967037627410114" lon="12.592610087729353"><ele>39.0</ele><time>2026-05-04T06:15:30Z</time></trkpt><trkpt lat="43.9669478613729" lon="12.592480389952195"><ele>39.0</ele><time>2026-05-04T06:15:31Z</time></trkpt><trkpt lat="43.9668567392684" lon="12.592355294377233"><ele>39.0</ele><time>2026-05-04T06:15:32Z</time></trkpt><trkpt lat="43.966774193202085" lon="12.592235183361133"><ele>39.0</ele><time>2026-05-04T06:15:33Z</time></trkpt><trkpt lat="43.966690927210635" lon="12.592103346713708"><ele>40.5</ele><time>2026-05-04T06:15:34Z</time></trkpt><trkpt lat="43.96662411852904" lon="12.5919445071138"><ele>42.0</ele><time>2026-05-04T06:15:35Z</time></trkpt><trkpt lat="43.966571271498566" lon="12.591778556583437"><ele>43.5</ele><time>2026-05-04T06:15:36Z</time></trkpt><trkpt lat="43.96652795972677" lon="12.591598097325424"><ele>45.0</ele><time>2026-05-04T06:15:37Z</time></trkpt><trkpt lat="43.96648448659854" lon="12.591412932620786"><ele>45.0</ele><time>2026-05-04T06:15:38Z</time></trkpt><trkpt lat="43.96644284358189" lon="12.591249020245922"><ele>45.0</ele><time>2026-05-04T06:15:39Z</time></trkpt><trkpt lat="43.96639643829038" lon="12.59110362348306"><ele>45.0</ele><time>2026-05-04T06:15:40Z</time></trkpt><trkpt lat="43.966340376580604" lon="12.590980033904195"><ele>45.0</ele><time>2026-05-04T06:15:41Z</time></trkpt><trkpt lat="43.966260971427545" lon="12.590874434703137"><ele>44.75</ele><time>2026-05-04T06:15:42Z</time></trkpt><trkpt lat="43.96615894889822" lon="12.590789446959866"><ele>44.5</ele><time>2026-05-04T06:15:43Z</time></trkpt><trkpt lat="43.96604409284492" lon="12.59071493623643"><ele>44.25</ele><time>2026-05-04T06:15:44Z</time></trkpt><trkpt lat="43.96591721249458" lon="12.590644760346823"><ele>44.0</ele><time>2026-05-04T06:15:45Z</time></trkpt><trkpt lat="43.96578365942369" lon="12.590571972551894"><ele>47.75</ele><time>2026-05-04T06:15:46Z</time></trkpt><trkpt lat="43.965650466848814" lon="12.590508234358557"><ele>51.5</ele><time>2026-05-04T06:15:47Z</time></trkpt><trkpt lat="43.965523810609994" lon="12.590450175916196"><ele>55.25</ele><time>2026-05-04T06:15:48Z</time></trkpt><trkpt lat="43.96540338144564" lon="12.590402347372546"><ele>59.0</ele><time>2026-05-04T06:15:49Z</time></trkpt><trkpt lat="43.96529736272898" lon="12.590353931808016"><ele>59.5</ele><time>2026-05-04T06:15:50Z</time></trkpt><trkpt lat="43.96520535537603" lon="12.590289766184808"><ele>60.0</ele><time>2026-05-04T06:15:51Z</time></trkpt><trkpt lat="43.96511783343874" lon="12.590206166163892"><ele>60.5</ele><time>2026-05-04T06:15:52Z</time></trkpt><trkpt lat="43.9650290995425" lon="12.590095282601757"><ele>61.0</ele><time>2026-05-04T06:15:53Z</time></trkpt><trkpt lat="43.96493959149786" lon="12.589968554575842"><ele>63.25</ele><time>2026-05-04T06:15:54Z</time></trkpt><trkpt lat="43.96484447520151" lon="12.58983986826358"><ele>65.5</ele><time>2026-05-04T06:15:55Z</time></trkpt><trkpt lat="43.964751333879406" lon="12.58972214329481"><ele>67.75</ele><time>2026-05-04T06:15:56Z</time></trkpt><trkpt lat="43.96466199371962" lon="12.589614313459078"><ele>70.0</ele><time>2026-05-04T06:15:57Z</time></trkpt><trkpt lat="43.96457390264033" lon="12.589510615763167"><ele>70.0</ele><time>2026-05-04T06:15:58Z</time></trkpt><trkpt lat="43.96449000429987" lon="12.589409242702782"><ele>70.0</ele><time>2026-05-04T06:15:59Z</time></trkpt><trkpt lat="43.96440316964702" lon="12.589299388999436"><ele>70.0</ele><time>2026-05-04T06:16:00Z</time></trkpt><trkpt lat="43.964317127009515" lon="12.589182570209386"><ele>70.0</ele><time>2026-05-04T06:16:01Z</time></trkpt><trkpt lat="43.9642347378304" lon="12.589084270781344"><ele>72.25</ele><time>2026-05-04T06:16:02Z</time></trkpt><trkpt lat="43.96416667144415" lon="12.588975972604118"><ele>74.5</ele><time>2026-05-04T06:16:03Z</time></trkpt><trkpt lat="43.96409027333407" lon="12.588839624359855"><ele>76.75</ele><time>2026-05-04T06:16:04Z</time></trkpt><trkpt lat="43.96400277027806" lon="12.588692649487559"><ele>79.0</ele><time>2026-05-04T06:16:05Z</time></trkpt><trkpt lat="43.96392146164144" lon="12.588537232546484"><ele>79.0</ele><time>2026-05-04T06:16:06Z</time></trkpt><trkpt lat="43.9638429466048" lon="12.588409006034187"><ele>79.0</ele><time>2026-05-04T06:16:07Z</time></trkpt><trkpt lat="43.96376553004007" lon="12.588304724675993"><ele>79.0</ele><time>2026-05-04T06:16:08Z</time></trkpt><trkpt lat="43.96366630729289" lon="12.588218979342477"><ele>79.0</ele><time>2026-05-04T06:16:09Z</time></trkpt><trkpt lat="43.96354581551813" lon="12.58814004379225"><ele>79.0</ele><time>2026-05-04T06:16:10Z</time></trkpt><trkpt lat="43.96341530337787" lon="12.58806739105823"><ele>79.0</ele><time>2026-05-04T06:16:11Z</time></trkpt><trkpt lat="43.963291675720384" lon="12.587985043432948"><ele>79.0</ele><time>2026-05-04T06:16:12Z</time></trkpt><trkpt lat="43.96317971379341" lon="12.58791656257113"><ele>79.0</ele><time>2026-05-04T06:16:13Z</time></trkpt><trkpt lat="43.96307443480306" lon="12.58785269210738"><ele>80.4</ele><time>2026-05-04T06:16:14Z</time></trkpt><trkpt lat="43.96297677476909" lon="12.587789337953627"><ele>81.80000000000001</ele><time>2026-05-04T06:16:15Z</time></trkpt><trkpt lat="43.962885490234605" lon="12.587731371102699"><ele>83.19999999999999</ele><time>2026-05-04T06:16:16Z</time></trkpt><trkpt lat="43.962793354888085" lon="12.587675944920536"><ele>84.6</ele><time>2026-05-04T06:16:17Z</time></trkpt><trkpt lat="43.96269941844584" lon="12.587613791219038"><ele>86.0</ele><time>2026-05-04T06:16:18Z</time></trkpt><trkpt lat="43.962618344586396" lon="12.587549197863442"><ele>87.8</ele><time>2026-05-04T06:16:19Z</time></trkpt><trkpt lat="43.962510842994405" lon="12.587511120343885"><ele>89.6</ele><time>2026-05-04T06:16:20Z</time></trkpt><trkpt lat="43.96241045315607" lon="12.587485582346513"><ele>91.4</ele><time>2026-05-04T06:16:21Z</time></trkpt><trkpt lat="43.96232297935183" lon="12.587441668068944"><ele>93.2</ele><time>2026-05-04T06:16:22Z</time></trkpt><trkpt lat="43.962233584159755" lon="12.587394698483273"><ele>95.0</ele><time>2026-05-04T06:16:23Z</time></trkpt><trkpt lat="43.96214386233898" lon="12.587346540810257"><ele>95.0</ele><time>2026-05-04T06:16:24Z</time></trkpt><trkpt lat="43.96205529472486" lon="12.587305519479601"><ele>95.0</ele><time>2026-05-04T06:16:25Z</time></trkpt><trkpt lat="43.96196571710487" lon="12.58729227046417"><ele>95.0</ele><time>2026-05-04T06:16:26Z</time></trkpt><trkpt lat="43.961860824622086" lon="12.587299579328969"><ele>95.0</ele><time>2026-05-04T06:16:27Z</time></trkpt><trkpt lat="43.96175377893073" lon="12.587330135285608"><ele>95.0</ele><time>2026-05-04T06:16:28Z</time></trkpt><trkpt lat="43.96164922035391" lon="12.58736905686377"><ele>96.6</ele><time>2026-05-04T06:16:29Z</time></trkpt><trkpt lat="43.96154816892085" lon="12.587424658659982"><ele>98.2</ele><time>2026-05-04T06:16:30Z</time></trkpt><trkpt lat="43.96145121661431" lon="12.587494443815075"><ele>99.80000000000001</ele><time>2026-05-04T06:16:31Z</time></trkpt><trkpt lat="43.96135348489952" lon="12.58757958291501"><ele>101.4</ele><time>2026-05-04T06:16:32Z</time></trkpt><trkpt lat="43.96126255579113" lon="12.587670406717958"><ele>103.0</ele><time>2026-05-04T06:16:33Z</time></trkpt><trkpt lat="43.96118597305425" lon="12.58776014496897"><ele>102.99999999999999</ele><time>2026-05-04T06:16:34Z</time></trkpt><trkpt lat="43.96112359042526" lon="12.587839673732745"><ele>103.0</ele><time>2026-05-04T06:16:35Z</time></trkpt><trkpt lat="43.96107133543616" lon="12.587908317182993"><ele>103.0</ele><time>2026-05-04T06:16:36Z</time></trkpt><trkpt lat="43.9610125675493" lon="12.587954527276926"><ele>103.0</ele><time>2026-05-04T06:16:37Z</time></trkpt><trkpt lat="43.96095213968598" lon="12.587986979928543"><ele>103.0</ele><time>2026-05-04T06:16:38Z</time></trkpt><trkpt lat="43.96088196705485" lon="12.587967277674116"><ele>102.99999999999999</ele><time>2026-05-04T06:16:39Z</time></trkpt><trkpt lat="43.960808824952835" lon="12.587899514218623"><ele>103.0</ele><time>2026-05-04T06:16:40Z</time></trkpt><trkpt lat="43.960732302408886" lon="12.587807977374643"><ele>103.2</ele><time>2026-05-04T06:16:41Z</time></trkpt><trkpt lat="43.96065087839245" lon="12.587727444900258"><ele>103.4</ele><time>2026-05-04T06:16:42Z</time></trkpt><trkpt lat="43.960558081596425" lon="12.587667844986363"><ele>103.60000000000001</ele><time>2026-05-04T06:16:43Z</time></trkpt><trkpt lat="43.960466689461434" lon="12.587618191388533"><ele>103.80000000000001</ele><time>2026-05-04T06:16:44Z</time></trkpt><trkpt lat="43.960368266715314" lon="12.587577211888371"><ele>104.0</ele><time>2026-05-04T06:16:45Z</time></trkpt><trkpt lat="43.96026823670631" lon="12.587536546477702"><ele>104.0</ele><time>2026-05-04T06:16:46Z</time></trkpt><trkpt lat="43.96016995330636" lon="12.587513720857958"><ele>104.0</ele><time>2026-05-04T06:16:47Z</time></trkpt><trkpt lat="43.9600662015235" lon="12.587509210081512"><ele>104.0</ele><time>2026-05-04T06:16:48Z</time></trkpt><trkpt lat="43.95995548233383" lon="12.587516770115403"><ele>104.0</ele><time>2026-05-04T06:16:49Z</time></trkpt><trkpt lat="43.959838344850176" lon="12.587535476684415"><ele>104.0</ele><time>2026-05-04T06:16:50Z</time></trkpt><trkpt lat="43.959730604895825" lon="12.587570143307625"><ele>104.4</ele><time>2026-05-04T06:16:51Z</time></trkpt><trkpt lat="43.95962300959144" lon="12.587609128100286"><ele>104.80000000000001</ele><time>2026-05-04T06:16:52Z</time></trkpt><trkpt lat="43.9595208801886" lon="12.587654578244258"><ele>105.19999999999999</ele><time>2026-05-04T06:16:53Z</time></trkpt><trkpt lat="43.95942825600992" lon="12.587700287815894"><ele>105.6</ele><time>2026-05-04T06:16:54Z</time></trkpt><trkpt lat="43.959340890434504" lon="12.58774437143858"><ele>106.0</ele><time>2026-05-04T06:16:55Z</time></trkpt><trkpt lat="43.959267926990485" lon="12.58779135818754"><ele>106.0</ele><time>2026-05-04T06:16:56Z</time></trkpt><trkpt lat="43.95920926027855" lon="12.5878313417799"><ele>106.0</ele><time>2026-05-04T06:16:57Z</time></trkpt><trkpt lat="43.95909691704939" lon="12.58783429510947"><ele>106.0</ele><time>2026-05-04T06:16:59Z</time></trkpt><trkpt lat="43.95902870387518" lon="12.587757590947483"><ele>106.0</ele><time>2026-05-04T06:17:00Z</time></trkpt><trkpt lat="43.95896218814379" lon="12.587661495315777"><ele>106.0</ele><time>2026-05-04T06:17:01Z</time></trkpt><trkpt lat="43.95889613066277" lon="12.587568297138622"><ele>106.0</ele><time>2026-05-04T06:17:02Z</time></trkpt><trkpt lat="43.958826613636816" lon="12.58747934787341"><ele>106.0</ele><time>2026-05-04T06:17:03Z</time></trkpt><trkpt lat="43.95874815318128" lon="12.587387060301477"><ele>106.0</ele><time>2026-05-04T06:17:04Z</time></trkpt><trkpt lat="43.95866607645916" lon="12.587290223013877"><ele>106.0</ele><time>2026-05-04T06:17:05Z</time></trkpt><trkpt lat="43.95858518145695" lon="12.587188403917281"><ele>106.0</ele><time>2026-05-04T06:17:06Z</time></trkpt><trkpt lat="43.958497078971696" lon="12.587083874421182"><ele>104.5</ele><time>2026-05-04T06:17:07Z</time></trkpt><trkpt lat="43.95840525855591" lon="12.586982445696801"><ele>103.0</ele><time>2026-05-04T06:17:08Z</time></trkpt><trkpt lat="43.95829988614641" lon="12.586885036769168"><ele>101.5</ele><time>2026-05-04T06:17:09Z</time></trkpt><trkpt lat="43.95818533460374" lon="12.58679635429065"><ele>100.0</ele><time>2026-05-04T06:17:10Z</time></trkpt><trkpt lat="43.958063602482554" lon="12.586715056980855"><ele>99.5</ele><time>2026-05-04T06:17:11Z</time></trkpt><trkpt lat="43.957934681102685" lon="12.586643749361581"><ele>99.0</ele><time>2026-05-04T06:17:12Z</time></trkpt><trkpt lat="43.95780431717274" lon="12.586579845235937"><ele>98.5</ele><time>2026-05-04T06:17:13Z</time></trkpt><trkpt lat="43.95767640332651" lon="12.586520269487393"><ele>98.0</ele><time>2026-05-04T06:17:14Z</time></trkpt><trkpt lat="43.95755004848798" lon="12.586458844842333"><ele>96.0</ele><time>2026-05-04T06:17:15Z</time></trkpt><trkpt lat="43.9574205657524" lon="12.58639432312673"><ele>94.0</ele><time>2026-05-04T06:17:16Z</time></trkpt><trkpt lat="43.95729416346578" lon="12.586331016857564"><ele>92.0</ele><time>2026-05-04T06:17:17Z</time></trkpt><trkpt lat="43.95717201676469" lon="12.586264921312573"><ele>90.0</ele><time>2026-05-04T06:17:18Z</time></trkpt><trkpt lat="43.95705078772465" lon="12.586198865605445"><ele>89.0</ele><time>2026-05-04T06:17:19Z</time></trkpt><trkpt lat="43.95693234451449" lon="12.586134095115103"><ele>88.0</ele><time>2026-05-04T06:17:20Z</time></trkpt><trkpt lat="43.95681624867501" lon="12.58606884226962"><ele>87.0</ele><time>2026-05-04T06:17:21Z</time></trkpt><trkpt lat="43.95670874815242" lon="12.586005140008051"><ele>86.0</ele><time>2026-05-04T06:17:22Z</time></trkpt><trkpt lat="43.95661183711971" lon="12.585947493362962"><ele>85.19999999999999</ele><time>2026-05-04T06:17:23Z</time></trkpt><trkpt lat="43.95652054068421" lon="12.58589736442664"><ele>84.39999999999999</ele><time>2026-05-04T06:17:24Z</time></trkpt><trkpt lat="43.956431904125076" lon="12.585877580710362"><ele>83.6</ele><time>2026-05-04T06:17:25Z</time></trkpt><trkpt lat="43.956339713881576" lon="12.585899978148266"><ele>82.8</ele><time>2026-05-04T06:17:26Z</time></trkpt><trkpt lat="43.956238286306906" lon="12.58596047081736"><ele>82.0</ele><time>2026-05-04T06:17:27Z</time></trkpt><trkpt lat="43.956146539748616" lon="12.586046989813278"><ele>82.0</ele><time>2026-05-04T06:17:28Z</time></trkpt><trkpt lat="43.95607441853739" lon="12.586155246193972"><ele>82.0</ele><time>2026-05-04T06:17:29Z</time></trkpt><trkpt lat="43.95600805361668" lon="12.586258773881326"><ele>82.0</ele><time>2026-05-04T06:17:30Z</time></trkpt><trkpt lat="43.95594600273711" lon="12.586345225531115"><ele>82.0</ele><time>2026-05-04T06:17:31Z</time></trkpt><trkpt lat="43.95588386434261" lon="12.586398114836673"><ele>82.0</ele><time>2026-05-04T06:17:32Z</time></trkpt><trkpt lat="43.95581922518424" lon="12.586417052641307"><ele>82.0</ele><time>2026-05-04T06:17:33Z</time></trkpt><trkpt lat="43.955747827604014" lon="12.58638506549078"><ele>81.0</ele><time>2026-05-04T06:17:34Z</time></trkpt><trkpt lat="43.95566617610381" lon="12.586290429013577"><ele>80.0</ele><time>2026-05-04T06:17:35Z</time></trkpt><trkpt lat="43.95558651132769" lon="12.5862037408271"><ele>79.0</ele><time>2026-05-04T06:17:36Z</time></trkpt><trkpt lat="43.95549500366783" lon="12.586118074133546"><ele>78.0</ele><time>2026-05-04T06:17:37Z</time></trkpt><trkpt lat="43.95540704232036" lon="12.586026182391493"><ele>77.0</ele><time>2026-05-04T06:17:38Z</time></trkpt><trkpt lat="43.95531858890833" lon="12.58593548120664"><ele>77.0</ele><time>2026-05-04T06:17:39Z</time></trkpt><trkpt lat="43.9552178250129" lon="12.585847387740158"><ele>77.0</ele><time>2026-05-04T06:17:40Z</time></trkpt><trkpt lat="43.95511329970751" lon="12.585772837266887"><ele>77.0</ele><time>2026-05-04T06:17:41Z</time></trkpt><trkpt lat="43.95500472860494" lon="12.585698525916698"><ele>77.0</ele><time>2026-05-04T06:17:42Z</time></trkpt><trkpt lat="43.95489208548042" lon="12.585616161589133"><ele>74.5</ele><time>2026-05-04T06:17:43Z</time></trkpt><trkpt lat="43.954779045618274" lon="12.5855320924896"><ele>72.0</ele><time>2026-05-04T06:17:44Z</time></trkpt><trkpt lat="43.954668387593195" lon="12.585436522603606"><ele>69.5</ele><time>2026-05-04T06:17:45Z</time></trkpt><trkpt lat="43.95455646290357" lon="12.585347364690467"><ele>67.0</ele><time>2026-05-04T06:17:46Z</time></trkpt><trkpt lat="43.95445648429211" lon="12.58524509846316"><ele>65.4</ele><time>2026-05-04T06:17:47Z</time></trkpt><trkpt lat="43.954345251168846" lon="12.585160600754593"><ele>63.800000000000004</ele><time>2026-05-04T06:17:48Z</time></trkpt><trkpt lat="43.95424497874477" lon="12.585090022058527"><ele>62.2</ele><time>2026-05-04T06:17:49Z</time></trkpt><trkpt lat="43.95415231607987" lon="12.585019342135366"><ele>60.6</ele><time>2026-05-04T06:17:50Z</time></trkpt><trkpt lat="43.95406818484372" lon="12.584945006524077"><ele>59.0</ele><time>2026-05-04T06:17:51Z</time></trkpt><trkpt lat="43.95400187258941" lon="12.584865651046849"><ele>58.400000000000006</ele><time>2026-05-04T06:17:52Z</time></trkpt><trkpt lat="43.95395167722638" lon="12.584776462201436"><ele>57.800000000000004</ele><time>2026-05-04T06:17:53Z</time></trkpt><trkpt lat="43.953929783472724" lon="12.584670018474243"><ele>57.199999999999996</ele><time>2026-05-04T06:17:54Z</time></trkpt><trkpt lat="43.953931175294485" lon="12.58454341674796"><ele>56.599999999999994</ele><time>2026-05-04T06:17:55Z</time></trkpt><trkpt lat="43.95396235313646" lon="12.584413824193472"><ele>56.0</ele><time>2026-05-04T06:17:56Z</time></trkpt><trkpt lat="43.954005160867354" lon="12.584285049157474"><ele>55.75</ele><time>2026-05-04T06:17:57Z</time></trkpt><trkpt lat="43.954067308965854" lon="12.5841590955306"><ele>55.5</ele><time>2026-05-04T06:17:58Z</time></trkpt><trkpt lat="43.954136108518234" lon="12.584033068713854"><ele>55.25</ele><time>2026-05-04T06:17:59Z</time></trkpt><trkpt lat="43.95420714435868" lon="12.583897214073"><ele>55.0</ele><time>2026-05-04T06:18:00Z</time></trkpt><trkpt lat="43.95428265139484" lon="12.583760232021003"><ele>54.6</ele><time>2026-05-04T06:18:01Z</time></trkpt><trkpt lat="43.95435052620772" lon="12.583641260193668"><ele>54.2</ele><time>2026-05-04T06:18:02Z</time></trkpt><trkpt lat="43.95440679623367" lon="12.583527961660558"><ele>53.8</ele><time>2026-05-04T06:18:03Z</time></trkpt><trkpt lat="43.95444774647519" lon="12.583413880582716"><ele>53.4</ele><time>2026-05-04T06:18:04Z</time></trkpt><trkpt lat="43.95446161126852" lon="12.583299789928104"><ele>53.0</ele><time>2026-05-04T06:18:05Z</time></trkpt><trkpt lat="43.954453131046755" lon="12.583172859691148"><ele>53.0</ele><time>2026-05-04T06:18:06Z</time></trkpt><trkpt lat="43.954422084542735" lon="12.58302797000073"><ele>53.0</ele><time>2026-05-04T06:18:07Z</time></trkpt><trkpt lat="43.95436872555309" lon="12.582867763193487"><ele>53.0</ele><time>2026-05-04T06:18:08Z</time></trkpt><trkpt lat="43.95431846602265" lon="12.582706718164614"><ele>53.0</ele><time>2026-05-04T06:18:09Z</time></trkpt><trkpt lat="43.95427590680736" lon="12.582571379344452"><ele>52.8</ele><time>2026-05-04T06:18:10Z</time></trkpt><trkpt lat="43.954236463511556" lon="12.582466098920243"><ele>52.599999999999994</ele><time>2026-05-04T06:18:11Z</time></trkpt><trkpt lat="43.95413825047774" lon="12.582376262949932"><ele>52.400000000000006</ele><time>2026-05-04T06:18:13Z</time></trkpt><trkpt lat="43.95406464434679" lon="12.582375290243279"><ele>52.2</ele><time>2026-05-04T06:18:14Z</time></trkpt><trkpt lat="43.95398121649372" lon="12.58239847790815"><ele>52.0</ele><time>2026-05-04T06:18:15Z</time></trkpt><trkpt lat="43.95388313987283" lon="12.58244779381627"><ele>52.8</ele><time>2026-05-04T06:18:16Z</time></trkpt><trkpt lat="43.95378177503274" lon="12.582485274373868"><ele>53.6</ele><time>2026-05-04T06:18:17Z</time></trkpt><trkpt lat="43.95367832473346" lon="12.582513276182231"><ele>54.39999999999999</ele><time>2026-05-04T06:18:18Z</time></trkpt><trkpt lat="43.95358009393134" lon="12.582551202244609"><ele>55.199999999999996</ele><time>2026-05-04T06:18:19Z</time></trkpt><trkpt lat="43.953490932999166" lon="12.582601709537222"><ele>56.0</ele><time>2026-05-04T06:18:20Z</time></trkpt><trkpt lat="43.95340066709234" lon="12.582672482457676"><ele>56.8</ele><time>2026-05-04T06:18:21Z</time></trkpt><trkpt lat="43.95331342567475" lon="12.5827588208886"><ele>57.599999999999994</ele><time>2026-05-04T06:18:22Z</time></trkpt><trkpt lat="43.953221725726294" lon="12.582844814531368"><ele>58.4</ele><time>2026-05-04T06:18:23Z</time></trkpt><trkpt lat="43.95313422856972" lon="12.582924802173975"><ele>59.2</ele><time>2026-05-04T06:18:24Z</time></trkpt><trkpt lat="43.95304902288476" lon="12.583023948169535"><ele>60.0</ele><time>2026-05-04T06:18:25Z</time></trkpt><trkpt lat="43.95297045132641" lon="12.583127001618337"><ele>60.2</ele><time>2026-05-04T06:18:26Z</time></trkpt><trkpt lat="43.95290172220611" lon="12.583241085677741"><ele>60.4</ele><time>2026-05-04T06:18:27Z</time></trkpt><trkpt lat="43.95283759014652" lon="12.583354193335595"><ele>60.599999999999994</ele><time>2026-05-04T06:18:28Z</time></trkpt><trkpt lat="43.95277422555428" lon="12.583465056642074"><ele>60.8</ele><time>2026-05-04T06:18:29Z</time></trkpt><trkpt lat="43.952715547964935" lon="12.583576954801243"><ele>61.0</ele><time>2026-05-04T06:18:30Z</time></trkpt><trkpt lat="43.952662758517874" lon="12.583692293138567"><ele>61.0</ele><time>2026-05-04T06:18:31Z</time></trkpt><trkpt lat="43.952612014491216" lon="12.583809926964307"><ele>60.99999999999999</ele><time>2026-05-04T06:18:32Z</time></trkpt><trkpt lat="43.95257140927302" lon="12.58393733621278"><ele>60.99999999999999</ele><time>2026-05-04T06:18:33Z</time></trkpt><trkpt lat="43.9525206590215" lon="12.584065088705676"><ele>61.0</ele><time>2026-05-04T06:18:34Z</time></trkpt><trkpt lat="43.95247492085253" lon="12.58419963801604"><ele>61.0</ele><time>2026-05-04T06:18:35Z</time></trkpt><trkpt lat="43.9524380783654" lon="12.584341528829137"><ele>65.25</ele><time>2026-05-04T06:18:36Z</time></trkpt><trkpt lat="43.952403211349036" lon="12.584491977790965"><ele>69.5</ele><time>2026-05-04T06:18:37Z</time></trkpt><trkpt lat="43.95236629570186" lon="12.584641007512564"><ele>73.75</ele><time>2026-05-04T06:18:38Z</time></trkpt><trkpt lat="43.952332314324494" lon="12.58478921254868"><ele>78.0</ele><time>2026-05-04T06:18:39Z</time></trkpt><trkpt lat="43.952297395933144" lon="12.584942082820216"><ele>78.25</ele><time>2026-05-04T06:18:40Z</time></trkpt><trkpt lat="43.95226537750203" lon="12.58509177134468"><ele>78.5</ele><time>2026-05-04T06:18:41Z</time></trkpt><trkpt lat="43.952234096281096" lon="12.585249276276784"><ele>78.75</ele><time>2026-05-04T06:18:42Z</time></trkpt><trkpt lat="43.952210491468506" lon="12.58540975190177"><ele>79.0</ele><time>2026-05-04T06:18:43Z</time></trkpt><trkpt lat="43.952192450871955" lon="12.585569966999527"><ele>80.0</ele><time>2026-05-04T06:18:44Z</time></trkpt><trkpt lat="43.95218726027565" lon="12.585735356624445"><ele>81.0</ele><time>2026-05-04T06:18:45Z</time></trkpt><trkpt lat="43.95219068792284" lon="12.58589240306109"><ele>82.0</ele><time>2026-05-04T06:18:46Z</time></trkpt><trkpt lat="43.95219071456714" lon="12.586056005051725"><ele>83.0</ele><time>2026-05-04T06:18:47Z</time></trkpt><trkpt lat="43.952192029279864" lon="12.586219378096368"><ele>84.2</ele><time>2026-05-04T06:18:48Z</time></trkpt><trkpt lat="43.952202325558034" lon="12.58638419321931"><ele>85.4</ele><time>2026-05-04T06:18:49Z</time></trkpt><trkpt lat="43.952218979763266" lon="12.586545460703148"><ele>86.60000000000001</ele><time>2026-05-04T06:18:50Z</time></trkpt><trkpt lat="43.952239798451195" lon="12.586694526273625"><ele>87.80000000000001</ele><time>2026-05-04T06:18:51Z</time></trkpt><trkpt lat="43.95225533633828" lon="12.5868284949609"><ele>89.0</ele><time>2026-05-04T06:18:52Z</time></trkpt><trkpt lat="43.95226537893235" lon="12.586951561495086"><ele>89.5</ele><time>2026-05-04T06:18:53Z</time></trkpt><trkpt lat="43.95227285261061" lon="12.587093017084403"><ele>90.0</ele><time>2026-05-04T06:18:54Z</time></trkpt><trkpt lat="43.95228676284712" lon="12.587225824474238"><ele>90.5</ele><time>2026-05-04T06:18:55Z</time></trkpt><trkpt lat="43.95229736952549" lon="12.587360379348445"><ele>91.0</ele><time>2026-05-04T06:18:56Z</time></trkpt><trkpt lat="43.952304319431576" lon="12.58746197931178"><ele>91.5</ele><time>2026-05-04T06:18:57Z</time></trkpt><trkpt lat="43.95228984373017" lon="12.587551587966615"><ele>92.0</ele><time>2026-05-04T06:18:59Z</time></trkpt><trkpt lat="43.952211830499365" lon="12.587539171353628"><ele>92.0</ele><time>2026-05-04T06:19:01Z</time></trkpt><trkpt lat="43.95215010976247" lon="12.58748915487648"><ele>92.0</ele><time>2026-05-04T06:19:02Z</time></trkpt><trkpt lat="43.952077841663964" lon="12.587442636877437"><ele>92.0</ele><time>2026-05-04T06:19:03Z</time></trkpt><trkpt lat="43.95198622547364" lon="12.587427821128216"><ele>92.0</ele><time>2026-05-04T06:19:04Z</time></trkpt><trkpt lat="43.95188967829426" lon="12.587434150571225"><ele>92.0</ele><time>2026-05-04T06:19:05Z</time></trkpt><trkpt lat="43.95179169289744" lon="12.58744228899583"><ele>92.0</ele><time>2026-05-04T06:19:06Z</time></trkpt><trkpt lat="43.95169560869815" lon="12.587461554368597"><ele>93.0</ele><time>2026-05-04T06:19:07Z</time></trkpt><trkpt lat="43.951607571146184" lon="12.587479519479375"><ele>94.0</ele><time>2026-05-04T06:19:08Z</time></trkpt><trkpt lat="43.95151456329587" lon="12.587521284322294"><ele>95.0</ele><time>2026-05-04T06:19:09Z</time></trkpt><trkpt lat="43.95142829212151" lon="12.587595370123037"><ele>96.0</ele><time>2026-05-04T06:19:10Z</time></trkpt><trkpt lat="43.95134461354727" lon="12.587679035385344"><ele>97.0</ele><time>2026-05-04T06:19:11Z</time></trkpt><trkpt lat="43.951250980788345" lon="12.587772864877156"><ele>97.8</ele><time>2026-05-04T06:19:12Z</time></trkpt><trkpt lat="43.95115460511332" lon="12.587853850285091"><ele>98.6</ele><time>2026-05-04T06:19:13Z</time></trkpt><trkpt lat="43.951055633153025" lon="12.58792871508324"><ele>99.39999999999999</ele><time>2026-05-04T06:19:14Z</time></trkpt><trkpt lat="43.95095610920048" lon="12.587995930256012"><ele>100.19999999999999</ele><time>2026-05-04T06:19:15Z</time></trkpt><trkpt lat="43.95085826466543" lon="12.588056237411372"><ele>101.0</ele><time>2026-05-04T06:19:16Z</time></trkpt><trkpt lat="43.95074359505946" lon="12.588100810718357"><ele>99.19999999999999</ele><time>2026-05-04T06:19:17Z</time></trkpt><trkpt lat="43.95063991776322" lon="12.588141358405963"><ele>97.39999999999999</ele><time>2026-05-04T06:19:18Z</time></trkpt><trkpt lat="43.9505287992073" lon="12.588195505253223"><ele>95.6</ele><time>2026-05-04T06:19:19Z</time></trkpt><trkpt lat="43.95042995628974" lon="12.588227367877131"><ele>93.8</ele><time>2026-05-04T06:19:20Z</time></trkpt><trkpt lat="43.950332988314415" lon="12.588269986760126"><ele>92.0</ele><time>2026-05-04T06:19:21Z</time></trkpt><trkpt lat="43.95023449713424" lon="12.588303854903977"><ele>92.0</ele><time>2026-05-04T06:19:22Z</time></trkpt><trkpt lat="43.950137791471846" lon="12.588338234339938"><ele>92.0</ele><time>2026-05-04T06:19:23Z</time></trkpt><trkpt lat="43.95004979847167" lon="12.588338822745797"><ele>92.0</ele><time>2026-05-04T06:19:24Z</time></trkpt><trkpt lat="43.949956701324695" lon="12.588293214492476"><ele>92.0</ele><time>2026-05-04T06:19:25Z</time></trkpt><trkpt lat="43.94985339611362" lon="12.588215433427607"><ele>92.0</ele><time>2026-05-04T06:19:26Z</time></trkpt><trkpt lat="43.94974503504688" lon="12.588127648932042"><ele>89.5</ele><time>2026-05-04T06:19:27Z</time></trkpt><trkpt lat="43.94962960844514" lon="12.58805251441869"><ele>87.0</ele><time>2026-05-04T06:19:28Z</time></trkpt><trkpt lat="43.94951681464721" lon="12.587992537606855"><ele>84.5</ele><time>2026-05-04T06:19:29Z</time></trkpt><trkpt lat="43.94939510337179" lon="12.587927753472785"><ele>82.0</ele><time>2026-05-04T06:19:30Z</time></trkpt><trkpt lat="43.949279291767205" lon="12.587858794843855"><ele>79.25</ele><time>2026-05-04T06:19:31Z</time></trkpt><trkpt lat="43.94917701040586" lon="12.587785286922138"><ele>76.5</ele><time>2026-05-04T06:19:32Z</time></trkpt><trkpt lat="43.94907562462542" lon="12.587711414459479"><ele>73.75</ele><time>2026-05-04T06:19:33Z</time></trkpt><trkpt lat="43.9489735927668" lon="12.587638168756682"><ele>71.0</ele><time>2026-05-04T06:19:34Z</time></trkpt><trkpt lat="43.94886624070395" lon="12.587560276764808"><ele>71.0</ele><time>2026-05-04T06:19:35Z</time></trkpt><trkpt lat="43.94875382148425" lon="12.587466222723439"><ele>71.0</ele><time>2026-05-04T06:19:36Z</time></trkpt><trkpt lat="43.948646875921" lon="12.587366041504577"><ele>71.0</ele><time>2026-05-04T06:19:37Z</time></trkpt><trkpt lat="43.94853807782602" lon="12.587262066132"><ele>71.0</ele><time>2026-05-04T06:19:38Z</time></trkpt><trkpt lat="43.94842738398654" lon="12.587153668878988"><ele>69.0</ele><time>2026-05-04T06:19:39Z</time></trkpt><trkpt lat="43.94831982522903" lon="12.58705058381451"><ele>67.0</ele><time>2026-05-04T06:19:40Z</time></trkpt><trkpt lat="43.948221564411064" lon="12.586954566764815"><ele>65.0</ele><time>2026-05-04T06:19:41Z</time></trkpt><trkpt lat="43.948131978027895" lon="12.586855106996325"><ele>63.0</ele><time>2026-05-04T06:19:42Z</time></trkpt><trkpt lat="43.948061063668895" lon="12.586748450036152"><ele>62.2</ele><time>2026-05-04T06:19:43Z</time></trkpt><trkpt lat="43.9480118317921" lon="12.586625680968375"><ele>61.4</ele><time>2026-05-04T06:19:44Z</time></trkpt><trkpt lat="43.94798538448379" lon="12.586485137541166"><ele>60.60000000000001</ele><time>2026-05-04T06:19:45Z</time></trkpt><trkpt lat="43.947975763768135" lon="12.586331251980114"><ele>59.800000000000004</ele><time>2026-05-04T06:19:46Z</time></trkpt><trkpt lat="43.94796403698991" lon="12.586162492029805"><ele>59.0</ele><time>2026-05-04T06:19:47Z</time></trkpt><trkpt lat="43.94792493181328" lon="12.585988157122136"><ele>57.66666666666667</ele><time>2026-05-04T06:19:48Z</time></trkpt><trkpt lat="43.9478588110985" lon="12.585815530663957"><ele>56.33333333333333</ele><time>2026-05-04T06:19:49Z</time></trkpt><trkpt lat="43.94776043080152" lon="12.585630664345926"><ele>55.0</ele><time>2026-05-04T06:19:50Z</time></trkpt><trkpt lat="43.94764822345613" lon="12.585440808021664"><ele>54.5</ele><time>2026-05-04T06:19:51Z</time></trkpt><trkpt lat="43.947549462527554" lon="12.585267882885018"><ele>54.0</ele><time>2026-05-04T06:19:52Z</time></trkpt><trkpt lat="43.94745704869614" lon="12.585119200169327"><ele>53.5</ele><time>2026-05-04T06:19:53Z</time></trkpt><trkpt lat="43.94736970543324" lon="12.584975216380972"><ele>53.0</ele><time>2026-05-04T06:19:54Z</time></trkpt><trkpt lat="43.94729134904916" lon="12.584848811730964"><ele>53.0</ele><time>2026-05-04T06:19:55Z</time></trkpt><trkpt lat="43.947214602134416" lon="12.584721749385707"><ele>53.0</ele><time>2026-05-04T06:19:56Z</time></trkpt><trkpt lat="43.947137384773356" lon="12.58458823673309"><ele>53.0</ele><time>2026-05-04T06:19:57Z</time></trkpt><trkpt lat="43.947074844771215" lon="12.584466085575908"><ele>53.0</ele><time>2026-05-04T06:19:58Z</time></trkpt><trkpt lat="43.94702926424732" lon="12.584339214105517"><ele>53.4</ele><time>2026-05-04T06:19:59Z</time></trkpt><trkpt lat="43.94700157394079" lon="12.584216581102334"><ele>53.8</ele><time>2026-05-04T06:20:00Z</time></trkpt><trkpt lat="43.94700147148726" lon="12.584092542809259"><ele>54.2</ele><time>2026-05-04T06:20:01Z</time></trkpt><trkpt lat="43.947016161011945" lon="12.583973604902164"><ele>54.6</ele><time>2026-05-04T06:20:02Z</time></trkpt><trkpt lat="43.94705725643947" lon="12.583840115518274"><ele>55.0</ele><time>2026-05-04T06:20:03Z</time></trkpt><trkpt lat="43.94711930109514" lon="12.583710517250024"><ele>55.25</ele><time>2026-05-04T06:20:04Z</time></trkpt><trkpt lat="43.94719492394075" lon="12.583573414634024"><ele>55.5</ele><time>2026-05-04T06:20:05Z</time></trkpt><trkpt lat="43.94727599195159" lon="12.583427006148824"><ele>55.75</ele><time>2026-05-04T06:20:06Z</time></trkpt><trkpt lat="43.94736662473605" lon="12.58327946544466"><ele>56.0</ele><time>2026-05-04T06:20:07Z</time></trkpt><trkpt lat="43.94746057680012" lon="12.58310838027841"><ele>54.333333333333336</ele><time>2026-05-04T06:20:08Z</time></trkpt><trkpt lat="43.94756128461687" lon="12.58292793888001"><ele>52.66666666666667</ele><time>2026-05-04T06:20:09Z</time></trkpt><trkpt lat="43.94765819307042" lon="12.582747858226766"><ele>51.0</ele><time>2026-05-04T06:20:10Z</time></trkpt><trkpt lat="43.947753151085095" lon="12.582581088800447"><ele>51.0</ele><time>2026-05-04T06:20:11Z</time></trkpt><trkpt lat="43.94784421906346" lon="12.582422208435606"><ele>51.0</ele><time>2026-05-04T06:20:12Z</time></trkpt><trkpt lat="43.94792799798399" lon="12.582276532406228"><ele>51.0</ele><time>2026-05-04T06:20:13Z</time></trkpt><trkpt lat="43.94800162933241" lon="12.582123997899428"><ele>51.0</ele><time>2026-05-04T06:20:14Z</time></trkpt><trkpt lat="43.94807215742603" lon="12.581973706291528"><ele>52.199999999999996</ele><time>2026-05-04T06:20:15Z</time></trkpt><trkpt lat="43.948137936551106" lon="12.581832631619815"><ele>53.4</ele><time>2026-05-04T06:20:16Z</time></trkpt><trkpt lat="43.948186935764575" lon="12.58170807238308"><ele>54.6</ele><time>2026-05-04T06:20:17Z</time></trkpt><trkpt lat="43.94822155295252" lon="12.581594946867197"><ele>55.8</ele><time>2026-05-04T06:20:18Z</time></trkpt><trkpt lat="43.94822886674762" lon="12.581476380029551"><ele>57.0</ele><time>2026-05-04T06:20:19Z</time></trkpt><trkpt lat="43.9482021731091" lon="12.581343538841478"><ele>57.0</ele><time>2026-05-04T06:20:20Z</time></trkpt><trkpt lat="43.948149639950046" lon="12.581202735929168"><ele>57.0</ele><time>2026-05-04T06:20:21Z</time></trkpt><trkpt lat="43.948063514170734" lon="12.581075100475504"><ele>57.0</ele><time>2026-05-04T06:20:22Z</time></trkpt><trkpt lat="43.94797372050526" lon="12.58094826033927"><ele>57.0</ele><time>2026-05-04T06:20:23Z</time></trkpt><trkpt lat="43.947887778619574" lon="12.580827150964563"><ele>58.75</ele><time>2026-05-04T06:20:24Z</time></trkpt><trkpt lat="43.9478026649492" lon="12.580698265369278"><ele>60.5</ele><time>2026-05-04T06:20:25Z</time></trkpt><trkpt lat="43.94771932096296" lon="12.580567924251183"><ele>62.25</ele><time>2026-05-04T06:20:26Z</time></trkpt><trkpt lat="43.94763222422092" lon="12.580442549052139"><ele>64.0</ele><time>2026-05-04T06:20:27Z</time></trkpt><trkpt lat="43.947542765719525" lon="12.580342978631034"><ele>65.2</ele><time>2026-05-04T06:20:28Z</time></trkpt><trkpt lat="43.947451763067875" lon="12.580279133360603"><ele>66.4</ele><time>2026-05-04T06:20:29Z</time></trkpt><trkpt lat="43.94736344079317" lon="12.580239071044673"><ele>67.6</ele><time>2026-05-04T06:20:30Z</time></trkpt><trkpt lat="43.94728000329517" lon="12.580232396423169"><ele>68.8</ele><time>2026-05-04T06:20:31Z</time></trkpt><trkpt lat="43.94719025544324" lon="12.580251198786902"><ele>70.0</ele><time>2026-05-04T06:20:32Z</time></trkpt><trkpt lat="43.947101469782744" lon="12.580306390146575"><ele>70.25</ele><time>2026-05-04T06:20:33Z</time></trkpt><trkpt lat="43.94700252359576" lon="12.58035472137236"><ele>70.5</ele><time>2026-05-04T06:20:34Z</time></trkpt><trkpt lat="43.94689185747723" lon="12.580383424255963"><ele>70.75</ele><time>2026-05-04T06:20:35Z</time></trkpt><trkpt lat="43.94677270865941" lon="12.580414495654733"><ele>71.0</ele><time>2026-05-04T06:20:36Z</time></trkpt><trkpt lat="43.94664261233512" lon="12.580439224193993"><ele>73.0</ele><time>2026-05-04T06:20:37Z</time></trkpt><trkpt lat="43.94650416140366" lon="12.580462717775072"><ele>75.0</ele><time>2026-05-04T06:20:38Z</time></trkpt><trkpt lat="43.94637229968762" lon="12.580487749239527"><ele>77.0</ele><time>2026-05-04T06:20:39Z</time></trkpt><trkpt lat="43.94624825343356" lon="12.580508403691628"><ele>79.0</ele><time>2026-05-04T06:20:40Z</time></trkpt><trkpt lat="43.94613133427482" lon="12.580528289686212"><ele>79.0</ele><time>2026-05-04T06:20:41Z</time></trkpt><trkpt lat="43.94601646937592" lon="12.580549891731794"><ele>79.0</ele><time>2026-05-04T06:20:42Z</time></trkpt><trkpt lat="43.945906989674285" lon="12.580575418678597"><ele>79.0</ele><time>2026-05-04T06:20:43Z</time></trkpt><trkpt lat="43.94579829306848" lon="12.580593325478405"><ele>79.0</ele><time>2026-05-04T06:20:44Z</time></trkpt><trkpt lat="43.94568559198868" lon="12.5805975061552"><ele>79.0</ele><time>2026-05-04T06:20:45Z</time></trkpt><trkpt lat="43.945567706283924" lon="12.58059560647293"><ele>80.75</ele><time>2026-05-04T06:20:46Z</time></trkpt><trkpt lat="43.94544949200007" lon="12.58057995891743"><ele>82.5</ele><time>2026-05-04T06:20:47Z</time></trkpt><trkpt lat="43.945331902722224" lon="12.580544371474886"><ele>84.25</ele><time>2026-05-04T06:20:48Z</time></trkpt><trkpt lat="43.945212493946485" lon="12.580493933789505"><ele>86.0</ele><time>2026-05-04T06:20:49Z</time></trkpt><trkpt lat="43.945090238611876" lon="12.580446738672022"><ele>88.25</ele><time>2026-05-04T06:20:50Z</time></trkpt><trkpt lat="43.9449613115769" lon="12.5804157954072"><ele>90.5</ele><time>2026-05-04T06:20:51Z</time></trkpt><trkpt lat="43.944834418014786" lon="12.580390947188624"><ele>92.75</ele><time>2026-05-04T06:20:52Z</time></trkpt><trkpt lat="43.94471497117843" lon="12.58037765361049"><ele>95.0</ele><time>2026-05-04T06:20:53Z</time></trkpt><trkpt lat="43.94460173593644" lon="12.580369415951015"><ele>94.5</ele><time>2026-05-04T06:20:54Z</time></trkpt><trkpt lat="43.94449246507453" lon="12.580342290604841"><ele>94.0</ele><time>2026-05-04T06:20:55Z</time></trkpt><trkpt lat="43.94437674426569" lon="12.580284976437776"><ele>93.5</ele><time>2026-05-04T06:20:56Z</time></trkpt><trkpt lat="43.94426133524013" lon="12.5802234301112"><ele>93.0</ele><time>2026-05-04T06:20:57Z</time></trkpt><trkpt lat="43.94414061792483" lon="12.580165476038967"><ele>96.5</ele><time>2026-05-04T06:20:58Z</time></trkpt><trkpt lat="43.9440173812512" lon="12.580111617459334"><ele>100.0</ele><time>2026-05-04T06:20:59Z</time></trkpt><trkpt lat="43.9438912358193" lon="12.580060355894995"><ele>103.5</ele><time>2026-05-04T06:21:00Z</time></trkpt><trkpt lat="43.94376656596517" lon="12.580009970295226"><ele>107.0</ele><time>2026-05-04T06:21:01Z</time></trkpt><trkpt lat="43.943638433113016" lon="12.579961753656548"><ele>107.0</ele><time>2026-05-04T06:21:02Z</time></trkpt><trkpt lat="43.94351430131053" lon="12.579913638405054"><ele>107.0</ele><time>2026-05-04T06:21:03Z</time></trkpt><trkpt lat="43.943393494117906" lon="12.579864180170214"><ele>107.0</ele><time>2026-05-04T06:21:04Z</time></trkpt><trkpt lat="43.94327119391226" lon="12.579814474189433"><ele>107.0</ele><time>2026-05-04T06:21:05Z</time></trkpt><trkpt lat="43.94315651346408" lon="12.579766496938568"><ele>108.8</ele><time>2026-05-04T06:21:06Z</time></trkpt><trkpt lat="43.9430462192806" lon="12.579725974795455"><ele>110.6</ele><time>2026-05-04T06:21:07Z</time></trkpt><trkpt lat="43.94293441804268" lon="12.579691859305578"><ele>112.39999999999999</ele><time>2026-05-04T06:21:08Z</time></trkpt><trkpt lat="43.94282581801287" lon="12.579678413816753"><ele>114.19999999999999</ele><time>2026-05-04T06:21:09Z</time></trkpt><trkpt lat="43.942727240380364" lon="12.579679629172961"><ele>116.0</ele><time>2026-05-04T06:21:10Z</time></trkpt><trkpt lat="43.942638417979595" lon="12.579695768154117"><ele>116.99999999999999</ele><time>2026-05-04T06:21:11Z</time></trkpt><trkpt lat="43.942543931158255" lon="12.579717425673724"><ele>118.0</ele><time>2026-05-04T06:21:12Z</time></trkpt><trkpt lat="43.94245153193101" lon="12.579744044337327"><ele>119.0</ele><time>2026-05-04T06:21:13Z</time></trkpt><trkpt lat="43.942371473157266" lon="12.579763876825997"><ele>120.0</ele><time>2026-05-04T06:21:14Z</time></trkpt><trkpt lat="43.942295443757764" lon="12.579781852538051"><ele>120.99999999999999</ele><time>2026-05-04T06:21:15Z</time></trkpt><trkpt lat="43.94222791200258" lon="12.579798620657451"><ele>122.0</ele><time>2026-05-04T06:21:16Z</time></trkpt><trkpt lat="43.942146603763106" lon="12.579809586836918"><ele>122.0</ele><time>2026-05-04T06:21:18Z</time></trkpt><trkpt lat="43.94209528061022" lon="12.57968918167911"><ele>122.0</ele><time>2026-05-04T06:22:42Z</time></trkpt><trkpt lat="43.94200647773453" lon="12.579619664247213"><ele>122.0</ele><time>2026-05-04T06:22:44Z</time></trkpt><trkpt lat="43.94186360785465" lon="12.579876775395098"><ele>122.0</ele><time>2026-05-04T06:22:45Z</time></trkpt><trkpt lat="43.94177550987292" lon="12.579908714553095"><ele>122.6</ele><time>2026-05-04T06:22:46Z</time></trkpt><trkpt lat="43.94167830577137" lon="12.57994217974158"><ele>123.19999999999999</ele><time>2026-05-04T06:22:47Z</time></trkpt><trkpt lat="43.9415780679909" lon="12.579978540801713"><ele>123.8</ele><time>2026-05-04T06:22:48Z</time></trkpt><trkpt lat="43.941473126557135" lon="12.580011884750354"><ele>124.4</ele><time>2026-05-04T06:22:49Z</time></trkpt><trkpt lat="43.941349714310526" lon="12.580049549764853"><ele>125.0</ele><time>2026-05-04T06:22:50Z</time></trkpt><trkpt lat="43.941227716548326" lon="12.58009309014362"><ele>125.0</ele><time>2026-05-04T06:22:51Z</time></trkpt><trkpt lat="43.94109777791126" lon="12.580135210484332"><ele>125.0</ele><time>2026-05-04T06:22:52Z</time></trkpt><trkpt lat="43.940964159040384" lon="12.580175892993873"><ele>125.0</ele><time>2026-05-04T06:22:53Z</time></trkpt><trkpt lat="43.940828618341925" lon="12.580219513547862"><ele>125.0</ele><time>2026-05-04T06:22:54Z</time></trkpt><trkpt lat="43.940701345714224" lon="12.580250688132345"><ele>124.75</ele><time>2026-05-04T06:22:55Z</time></trkpt><trkpt lat="43.94056636878836" lon="12.580289154989432"><ele>124.5</ele><time>2026-05-04T06:22:56Z</time></trkpt><trkpt lat="43.94043901095066" lon="12.580318790171717"><ele>124.25</ele><time>2026-05-04T06:22:57Z</time></trkpt><trkpt lat="43.94031007542616" lon="12.58034582463019"><ele>124.0</ele><time>2026-05-04T06:22:58Z</time></trkpt><trkpt lat="43.94017311088794" lon="12.580369110134862"><ele>122.75</ele><time>2026-05-04T06:22:59Z</time></trkpt><trkpt lat="43.940044431685436" lon="12.58040354610703"><ele>121.5</ele><time>2026-05-04T06:23:00Z</time></trkpt><trkpt lat="43.939923323524695" lon="12.580449309564916"><ele>120.25</ele><time>2026-05-04T06:23:01Z</time></trkpt><trkpt lat="43.93980433997465" lon="12.580508245374077"><ele>119.0</ele><time>2026-05-04T06:23:02Z</time></trkpt><trkpt lat="43.93968201472777" lon="12.580573177812935"><ele>119.0</ele><time>2026-05-04T06:23:03Z</time></trkpt><trkpt lat="43.9395592514072" lon="12.580639549566941"><ele>119.0</ele><time>2026-05-04T06:23:04Z</time></trkpt><trkpt lat="43.93943269849811" lon="12.580701594984214"><ele>119.0</ele><time>2026-05-04T06:23:05Z</time></trkpt><trkpt lat="43.93930947633254" lon="12.580751989140486"><ele>119.0</ele><time>2026-05-04T06:23:06Z</time></trkpt><trkpt lat="43.93918990088202" lon="12.580783982919298"><ele>119.4</ele><time>2026-05-04T06:23:07Z</time></trkpt><trkpt lat="43.939079321799326" lon="12.580821911177951"><ele>119.80000000000001</ele><time>2026-05-04T06:23:08Z</time></trkpt><trkpt lat="43.9389755003722" lon="12.580833381108881"><ele>120.19999999999999</ele><time>2026-05-04T06:23:09Z</time></trkpt><trkpt lat="43.93887311739152" lon="12.580823984751493"><ele>120.6</ele><time>2026-05-04T06:23:10Z</time></trkpt><trkpt lat="43.93876977518248" lon="12.580789386917745"><ele>121.0</ele><time>2026-05-04T06:23:11Z</time></trkpt><trkpt lat="43.938656587779874" lon="12.580714634844815"><ele>121.0</ele><time>2026-05-04T06:23:12Z</time></trkpt><trkpt lat="43.9385356057729" lon="12.580650630375935"><ele>121.0</ele><time>2026-05-04T06:23:13Z</time></trkpt><trkpt lat="43.938419534965" lon="12.580592724970227"><ele>121.0</ele><time>2026-05-04T06:23:14Z</time></trkpt><trkpt lat="43.93831015149529" lon="12.580551766545065"><ele>121.0</ele><time>2026-05-04T06:23:15Z</time></trkpt><trkpt lat="43.93819686735811" lon="12.580516389296847"><ele>122.25</ele><time>2026-05-04T06:23:16Z</time></trkpt><trkpt lat="43.93806898628128" lon="12.580497318181232"><ele>123.5</ele><time>2026-05-04T06:23:17Z</time></trkpt><trkpt lat="43.9379309990513" lon="12.580471249684955"><ele>124.75</ele><time>2026-05-04T06:23:18Z</time></trkpt><trkpt lat="43.9377976023329" lon="12.580438349736502"><ele>126.0</ele><time>2026-05-04T06:23:19Z</time></trkpt><trkpt lat="43.937669710778785" lon="12.580405288893155"><ele>126.25</ele><time>2026-05-04T06:23:20Z</time></trkpt><trkpt lat="43.937547728406" lon="12.580376628581933"><ele>126.5</ele><time>2026-05-04T06:23:21Z</time></trkpt><trkpt lat="43.937423983937094" lon="12.580353427455261"><ele>126.75</ele><time>2026-05-04T06:23:22Z</time></trkpt><trkpt lat="43.93729604258086" lon="12.580340888884995"><ele>127.0</ele><time>2026-05-04T06:23:23Z</time></trkpt><trkpt lat="43.93716394913351" lon="12.580344638932802"><ele>127.0</ele><time>2026-05-04T06:23:24Z</time></trkpt><trkpt lat="43.93702191566385" lon="12.58036488452896"><ele>127.0</ele><time>2026-05-04T06:23:25Z</time></trkpt><trkpt lat="43.93687447973694" lon="12.580397908000515"><ele>127.0</ele><time>2026-05-04T06:23:26Z</time></trkpt><trkpt lat="43.93673073782014" lon="12.580430661136083"><ele>127.0</ele><time>2026-05-04T06:23:27Z</time></trkpt><trkpt lat="43.936592179199806" lon="12.580461960843888"><ele>128.25</ele><time>2026-05-04T06:23:28Z</time></trkpt><trkpt lat="43.93646229833115" lon="12.580496453238725"><ele>129.5</ele><time>2026-05-04T06:23:29Z</time></trkpt><trkpt lat="43.93632336749853" lon="12.580524919842743"><ele>130.75</ele><time>2026-05-04T06:23:30Z</time></trkpt><trkpt lat="43.9361858623312" lon="12.580554881023724"><ele>132.0</ele><time>2026-05-04T06:23:31Z</time></trkpt><trkpt lat="43.93604866300251" lon="12.580579075141912"><ele>132.0</ele><time>2026-05-04T06:23:32Z</time></trkpt><trkpt lat="43.93591416550598" lon="12.580600636536078"><ele>132.0</ele><time>2026-05-04T06:23:33Z</time></trkpt><trkpt lat="43.93577875683883" lon="12.580618968299165"><ele>132.0</ele><time>2026-05-04T06:23:34Z</time></trkpt><trkpt lat="43.93564241861257" lon="12.58064056526916"><ele>132.0</ele><time>2026-05-04T06:23:35Z</time></trkpt><trkpt lat="43.93550005506641" lon="12.580667637207593"><ele>133.0</ele><time>2026-05-04T06:23:36Z</time></trkpt><trkpt lat="43.935356609579266" lon="12.580698947756018"><ele>134.0</ele><time>2026-05-04T06:23:37Z</time></trkpt><trkpt lat="43.93521598043006" lon="12.580734274619305"><ele>135.0</ele><time>2026-05-04T06:23:38Z</time></trkpt><trkpt lat="43.93507507457075" lon="12.580777385539609"><ele>136.0</ele><time>2026-05-04T06:23:39Z</time></trkpt><trkpt lat="43.93493283835917" lon="12.580817923471919"><ele>136.25</ele><time>2026-05-04T06:23:40Z</time></trkpt><trkpt lat="43.93480262851682" lon="12.580845540077735"><ele>136.5</ele><time>2026-05-04T06:23:41Z</time></trkpt><trkpt lat="43.93467599206663" lon="12.580853881444584"><ele>136.75</ele><time>2026-05-04T06:23:42Z</time></trkpt><trkpt lat="43.93455070018062" lon="12.580827861299062"><ele>137.0</ele><time>2026-05-04T06:23:43Z</time></trkpt><trkpt lat="43.9344183810344" lon="12.580793401088373"><ele>137.0</ele><time>2026-05-04T06:23:44Z</time></trkpt><trkpt lat="43.934278116541726" lon="12.580773176251466"><ele>137.0</ele><time>2026-05-04T06:23:45Z</time></trkpt><trkpt lat="43.934140905968164" lon="12.58075841382352"><ele>137.0</ele><time>2026-05-04T06:23:46Z</time></trkpt><trkpt lat="43.9339832397225" lon="12.5807397802001"><ele>137.0</ele><time>2026-05-04T06:23:47Z</time></trkpt><trkpt lat="43.93382072507183" lon="12.580723076171964"><ele>139.33333333333331</ele><time>2026-05-04T06:23:48Z</time></trkpt><trkpt lat="43.933662031928414" lon="12.580716219619433"><ele>141.66666666666666</ele><time>2026-05-04T06:23:49Z</time></trkpt><trkpt lat="43.93350949123598" lon="12.580703662488315"><ele>144.0</ele><time>2026-05-04T06:23:50Z</time></trkpt><trkpt lat="43.93335476114659" lon="12.580695352850888"><ele>145.33333333333334</ele><time>2026-05-04T06:23:51Z</time></trkpt><trkpt lat="43.93320193513166" lon="12.58068886300436"><ele>146.66666666666669</ele><time>2026-05-04T06:23:52Z</time></trkpt><trkpt lat="43.933050515597145" lon="12.580685025744566"><ele>148.0</ele><time>2026-05-04T06:23:53Z</time></trkpt><trkpt lat="43.93289526933833" lon="12.580679377501408"><ele>148.0</ele><time>2026-05-04T06:23:54Z</time></trkpt><trkpt lat="43.932740549802936" lon="12.58067731424991"><ele>148.0</ele><time>2026-05-04T06:23:55Z</time></trkpt><trkpt lat="43.93258244331618" lon="12.58067789451652"><ele>148.0</ele><time>2026-05-04T06:23:56Z</time></trkpt><trkpt lat="43.932440468953025" lon="12.580684894570057"><ele>148.5</ele><time>2026-05-04T06:23:57Z</time></trkpt><trkpt lat="43.93229649267719" lon="12.58070715700094"><ele>149.0</ele><time>2026-05-04T06:23:58Z</time></trkpt><trkpt lat="43.93214926080367" lon="12.58073949480508"><ele>149.5</ele><time>2026-05-04T06:23:59Z</time></trkpt><trkpt lat="43.93199551470309" lon="12.58077040436151"><ele>150.0</ele><time>2026-05-04T06:24:00Z</time></trkpt><trkpt lat="43.93185080450693" lon="12.58079336281992"><ele>151.2</ele><time>2026-05-04T06:24:01Z</time></trkpt><trkpt lat="43.93171949317428" lon="12.580812269931846"><ele>152.4</ele><time>2026-05-04T06:24:02Z</time></trkpt><trkpt lat="43.9316011903545" lon="12.58082061247862"><ele>153.6</ele><time>2026-05-04T06:24:03Z</time></trkpt><trkpt lat="43.93149601992136" lon="12.580834716325429"><ele>154.8</ele><time>2026-05-04T06:24:04Z</time></trkpt><trkpt lat="43.93141089162627" lon="12.580844614268264"><ele>156.0</ele><time>2026-05-04T06:24:05Z</time></trkpt><trkpt lat="43.93132128114887" lon="12.580873270662336"><ele>156.0</ele><time>2026-05-04T06:24:07Z</time></trkpt><trkpt lat="43.931283920460906" lon="12.580758020816088"><ele>156.0</ele><time>2026-05-04T06:24:09Z</time></trkpt><trkpt lat="43.93128703547935" lon="12.580650421793475"><ele>156.0</ele><time>2026-05-04T06:24:10Z</time></trkpt><trkpt lat="43.931300737133355" lon="12.580548389422896"><ele>156.0</ele><time>2026-05-04T06:24:11Z</time></trkpt><trkpt lat="43.931290243659674" lon="12.580446216265107"><ele>156.0</ele><time>2026-05-04T06:24:12Z</time></trkpt><trkpt lat="43.93126573379343" lon="12.580364971754332"><ele>156.0</ele><time>2026-05-04T06:24:13Z</time></trkpt><trkpt lat="43.931223373508494" lon="12.580289374563483"><ele>155.0</ele><time>2026-05-04T06:24:14Z</time></trkpt><trkpt lat="43.9311819345044" lon="12.580208973336877"><ele>154.0</ele><time>2026-05-04T06:24:15Z</time></trkpt><trkpt lat="43.93113949265703" lon="12.58013196822047"><ele>153.0</ele><time>2026-05-04T06:24:16Z</time></trkpt><trkpt lat="43.93109156127136" lon="12.580061920446267"><ele>152.0</ele><time>2026-05-04T06:24:17Z</time></trkpt><trkpt lat="43.931008133823106" lon="12.579906287433914"><ele>151.0</ele><time>2026-05-04T06:24:19Z</time></trkpt><trkpt lat="43.930976313641025" lon="12.579828755532807"><ele>150.0</ele><time>2026-05-04T06:24:20Z</time></trkpt><trkpt lat="43.93091658951638" lon="12.579727655519065"><ele>150.5</ele><time>2026-05-04T06:24:21Z</time></trkpt><trkpt lat="43.930863506881536" lon="12.579641436775484"><ele>151.0</ele><time>2026-05-04T06:24:22Z</time></trkpt><trkpt lat="43.93080904603431" lon="12.579557701161132"><ele>151.5</ele><time>2026-05-04T06:24:23Z</time></trkpt><trkpt lat="43.93075496621059" lon="12.579484679791557"><ele>152.0</ele><time>2026-05-04T06:24:24Z</time></trkpt><trkpt lat="43.930702490156" lon="12.579408113122385"><ele>152.5</ele><time>2026-05-04T06:24:25Z</time></trkpt><trkpt lat="43.93065346932623" lon="12.579333559512088"><ele>153.0</ele><time>2026-05-04T06:24:26Z</time></trkpt><trkpt lat="43.93059869236351" lon="12.579242648062483"><ele>153.0</ele><time>2026-05-04T06:24:27Z</time></trkpt><trkpt lat="43.93055296333666" lon="12.57914591796606"><ele>153.0</ele><time>2026-05-04T06:24:28Z</time></trkpt><trkpt lat="43.930513942696024" lon="12.579038086109525"><ele>153.0</ele><time>2026-05-04T06:24:29Z</time></trkpt><trkpt lat="43.9304820946731" lon="12.578936778999596"><ele>153.0</ele><time>2026-05-04T06:24:30Z</time></trkpt><trkpt lat="43.93044760140763" lon="12.578830798769665"><ele>153.0</ele><time>2026-05-04T06:24:31Z</time></trkpt><trkpt lat="43.930415431881976" lon="12.578730488878328"><ele>153.0</ele><time>2026-05-04T06:24:32Z</time></trkpt><trkpt lat="43.93038019667092" lon="12.578639616745805"><ele>152.5</ele><time>2026-05-04T06:24:33Z</time></trkpt><trkpt lat="43.93034712262903" lon="12.578493859176236"><ele>152.0</ele><time>2026-05-04T06:24:35Z</time></trkpt><trkpt lat="43.930407810640105" lon="12.578384482606994"><ele>151.5</ele><time>2026-05-04T06:24:37Z</time></trkpt><trkpt lat="43.93047763648459" lon="12.578353943515623"><ele>151.0</ele><time>2026-05-04T06:24:38Z</time></trkpt><trkpt lat="43.93055515526939" lon="12.578333907538612"><ele>150.5</ele><time>2026-05-04T06:24:39Z</time></trkpt><trkpt lat="43.93063552646907" lon="12.578304915510353"><ele>150.0</ele><time>2026-05-04T06:24:40Z</time></trkpt><trkpt lat="43.93071277759601" lon="12.578246139271359"><ele>150.0</ele><time>2026-05-04T06:24:41Z</time></trkpt><trkpt lat="43.93078867579122" lon="12.578191159138171"><ele>150.0</ele><time>2026-05-04T06:24:42Z</time></trkpt><trkpt lat="43.930866180559484" lon="12.578146108330182"><ele>150.0</ele><time>2026-05-04T06:24:43Z</time></trkpt><trkpt lat="43.93093853412985" lon="12.578109426608842"><ele>150.0</ele><time>2026-05-04T06:24:44Z</time></trkpt><trkpt lat="43.93100478711422" lon="12.57805932860203"><ele>150.0</ele><time>2026-05-04T06:24:45Z</time></trkpt><trkpt lat="43.93106263973194" lon="12.57801890174513"><ele>150.0</ele><time>2026-05-04T06:24:46Z</time></trkpt><trkpt lat="43.93113231700327" lon="12.577934077095843"><ele>148.8</ele><time>2026-05-04T06:24:48Z</time></trkpt><trkpt lat="43.93111857036256" lon="12.577781683385421"><ele>147.6</ele><time>2026-05-04T06:24:50Z</time></trkpt><trkpt lat="43.93106161873049" lon="12.577654687871869"><ele>146.4</ele><time>2026-05-04T06:24:52Z</time></trkpt><trkpt lat="43.931017980998504" lon="12.577584004471326"><ele>145.2</ele><time>2026-05-04T06:24:53Z</time></trkpt><trkpt lat="43.930972713087414" lon="12.577517690572652"><ele>144.0</ele><time>2026-05-04T06:24:54Z</time></trkpt><trkpt lat="43.93084476147357" lon="12.577424357204015"><ele>144.0</ele><time>2026-05-04T06:24:56Z</time></trkpt><trkpt lat="43.93077467448389" lon="12.57737118605442"><ele>144.0</ele><time>2026-05-04T06:24:57Z</time></trkpt><trkpt lat="43.9307009573023" lon="12.577298508264224"><ele>144.0</ele><time>2026-05-04T06:24:58Z</time></trkpt><trkpt lat="43.93063850582319" lon="12.577237416650053"><ele>144.0</ele><time>2026-05-04T06:24:59Z</time></trkpt><trkpt lat="43.93056448478576" lon="12.577166421562703"><ele>144.0</ele><time>2026-05-04T06:25:00Z</time></trkpt><trkpt lat="43.93048612311956" lon="12.577088284174343"><ele>144.0</ele><time>2026-05-04T06:25:01Z</time></trkpt><trkpt lat="43.930405642537245" lon="12.577005940260598"><ele>144.33333333333334</ele><time>2026-05-04T06:25:02Z</time></trkpt><trkpt lat="43.930340420164036" lon="12.57694184905899"><ele>144.66666666666666</ele><time>2026-05-04T06:25:03Z</time></trkpt><trkpt lat="43.93024463546017" lon="12.5768276050309"><ele>145.0</ele><time>2026-05-04T06:25:05Z</time></trkpt><trkpt lat="43.930191252102595" lon="12.576769744544444"><ele>145.33333333333331</ele><time>2026-05-04T06:25:06Z</time></trkpt><trkpt lat="43.93014285628955" lon="12.57670800239414"><ele>145.66666666666666</ele><time>2026-05-04T06:25:07Z</time></trkpt><trkpt lat="43.93009683536922" lon="12.576633816306689"><ele>146.0</ele><time>2026-05-04T06:25:08Z</time></trkpt><trkpt lat="43.930050444349696" lon="12.576546229814461"><ele>148.16666666666666</ele><time>2026-05-04T06:25:09Z</time></trkpt><trkpt lat="43.93003103061512" lon="12.576449137519392"><ele>150.33333333333331</ele><time>2026-05-04T06:25:10Z</time></trkpt><trkpt lat="43.929985682193234" lon="12.576382923236595"><ele>152.5</ele><time>2026-05-04T06:25:11Z</time></trkpt><trkpt lat="43.92994515228191" lon="12.576301582108323"><ele>154.66666666666666</ele><time>2026-05-04T06:25:12Z</time></trkpt><trkpt lat="43.9299059106719" lon="12.576151034823651"><ele>156.83333333333334</ele><time>2026-05-04T06:25:14Z</time></trkpt><trkpt lat="43.92987996683651" lon="12.576069072631174"><ele>159.0</ele><time>2026-05-04T06:25:15Z</time></trkpt><trkpt lat="43.92981267817452" lon="12.575942658929923"><ele>159.0</ele><time>2026-05-04T06:25:17Z</time></trkpt><trkpt lat="43.92976829499949" lon="12.575877553206706"><ele>159.0</ele><time>2026-05-04T06:25:18Z</time></trkpt><trkpt lat="43.92971406633483" lon="12.575808755352366"><ele>159.0</ele><time>2026-05-04T06:25:19Z</time></trkpt><trkpt lat="43.92965735712751" lon="12.575752590227474"><ele>159.0</ele><time>2026-05-04T06:25:20Z</time></trkpt><trkpt lat="43.929597807872156" lon="12.575700038645174"><ele>159.0</ele><time>2026-05-04T06:25:21Z</time></trkpt><trkpt lat="43.92954895602298" lon="12.575642953772846"><ele>159.0</ele><time>2026-05-04T06:25:22Z</time></trkpt><trkpt lat="43.92946977565361" lon="12.575530733336699"><ele>159.0</ele><time>2026-05-04T06:25:24Z</time></trkpt><trkpt lat="43.929424968187455" lon="12.575457391365017"><ele>159.0</ele><time>2026-05-04T06:25:25Z</time></trkpt><trkpt lat="43.92938531870179" lon="12.575377568815766"><ele>159.0</ele><time>2026-05-04T06:25:26Z</time></trkpt><trkpt lat="43.929346305492324" lon="12.575296499330058"><ele>159.0</ele><time>2026-05-04T06:25:27Z</time></trkpt><trkpt lat="43.92930073649503" lon="12.57520731794756"><ele>159.0</ele><time>2026-05-04T06:25:28Z</time></trkpt><trkpt lat="43.92924428088481" lon="12.575111650032555"><ele>159.0</ele><time>2026-05-04T06:25:29Z</time></trkpt><trkpt lat="43.92917840257975" lon="12.575005401868793"><ele>161.25</ele><time>2026-05-04T06:25:30Z</time></trkpt><trkpt lat="43.92910538856767" lon="12.574905893351756"><ele>163.5</ele><time>2026-05-04T06:25:31Z</time></trkpt><trkpt lat="43.92902399378457" lon="12.574798532958669"><ele>165.75</ele><time>2026-05-04T06:25:32Z</time></trkpt><trkpt lat="43.92895101601475" lon="12.574676757274782"><ele>168.0</ele><time>2026-05-04T06:25:33Z</time></trkpt><trkpt lat="43.92880395897975" lon="12.574398412439704"><ele>168.0</ele><time>2026-05-04T06:25:35Z</time></trkpt><trkpt lat="43.9287056528572" lon="12.57427349026151"><ele>168.0</ele><time>2026-05-04T06:25:36Z</time></trkpt><trkpt lat="43.928614788797674" lon="12.574133451283394"><ele>168.0</ele><time>2026-05-04T06:25:37Z</time></trkpt><trkpt lat="43.928519274391256" lon="12.573989629799636"><ele>168.0</ele><time>2026-05-04T06:25:38Z</time></trkpt><trkpt lat="43.928421839860185" lon="12.573832808681656"><ele>171.25</ele><time>2026-05-04T06:25:39Z</time></trkpt><trkpt lat="43.92832426048089" lon="12.573681967717521"><ele>174.5</ele><time>2026-05-04T06:25:40Z</time></trkpt><trkpt lat="43.928220401906316" lon="12.573522544386694"><ele>177.75</ele><time>2026-05-04T06:25:41Z</time></trkpt><trkpt lat="43.928128514566524" lon="12.573383434391417"><ele>181.0</ele><time>2026-05-04T06:25:42Z</time></trkpt><trkpt lat="43.92805569855638" lon="12.573237256141738"><ele>181.0</ele><time>2026-05-04T06:25:43Z</time></trkpt><trkpt lat="43.92796064696774" lon="12.573124230583748"><ele>181.0</ele><time>2026-05-04T06:25:44Z</time></trkpt><trkpt lat="43.92786501233484" lon="12.572994544220172"><ele>181.0</ele><time>2026-05-04T06:25:45Z</time></trkpt><trkpt lat="43.92776930430648" lon="12.572857865262426"><ele>181.0</ele><time>2026-05-04T06:25:46Z</time></trkpt><trkpt lat="43.92766522995446" lon="12.572725522597826"><ele>181.25</ele><time>2026-05-04T06:25:47Z</time></trkpt><trkpt lat="43.92757316970376" lon="12.572605197577667"><ele>181.5</ele><time>2026-05-04T06:25:48Z</time></trkpt><trkpt lat="43.92750576567572" lon="12.572474352172215"><ele>181.75</ele><time>2026-05-04T06:25:49Z</time></trkpt><trkpt lat="43.92742774110625" lon="12.572364806111128"><ele>182.0</ele><time>2026-05-04T06:25:50Z</time></trkpt><trkpt lat="43.927358613123126" lon="12.572216697599895"><ele>185.5</ele><time>2026-05-04T06:25:51Z</time></trkpt><trkpt lat="43.9272799058423" lon="12.57206404020384"><ele>189.0</ele><time>2026-05-04T06:25:52Z</time></trkpt><trkpt lat="43.92720260342738" lon="12.571914306187201"><ele>192.5</ele><time>2026-05-04T06:25:53Z</time></trkpt><trkpt lat="43.92712805962711" lon="12.571777566409125"><ele>196.0</ele><time>2026-05-04T06:25:54Z</time></trkpt><trkpt lat="43.92706098130173" lon="12.571658542319515"><ele>196.4</ele><time>2026-05-04T06:25:55Z</time></trkpt><trkpt lat="43.92698418667734" lon="12.571562531789521"><ele>196.8</ele><time>2026-05-04T06:25:56Z</time></trkpt><trkpt lat="43.92689407647381" lon="12.571505457302809"><ele>197.20000000000002</ele><time>2026-05-04T06:25:57Z</time></trkpt><trkpt lat="43.92678367343482" lon="12.571471604769037"><ele>197.60000000000002</ele><time>2026-05-04T06:25:58Z</time></trkpt><trkpt lat="43.92667008146139" lon="12.571463356547666"><ele>198.0</ele><time>2026-05-04T06:25:59Z</time></trkpt><trkpt lat="43.92655887483679" lon="12.571462573845354"><ele>200.60000000000002</ele><time>2026-05-04T06:26:00Z</time></trkpt><trkpt lat="43.926467515675796" lon="12.57147774079199"><ele>203.20000000000002</ele><time>2026-05-04T06:26:01Z</time></trkpt><trkpt lat="43.926398245453065" lon="12.571506119783942"><ele>205.8</ele><time>2026-05-04T06:26:02Z</time></trkpt><trkpt lat="43.926326308551104" lon="12.571512837990104"><ele>208.4</ele><time>2026-05-04T06:26:04Z</time></trkpt><trkpt lat="43.92630707215843" lon="12.571316453890024"><ele>211.0</ele><time>2026-05-04T06:26:06Z</time></trkpt><trkpt lat="43.92631356538118" lon="12.571204663342606"><ele>211.4</ele><time>2026-05-04T06:26:07Z</time></trkpt><trkpt lat="43.92632344317951" lon="12.57106811919603"><ele>211.8</ele><time>2026-05-04T06:26:08Z</time></trkpt><trkpt lat="43.92633397095375" lon="12.570920928975514"><ele>212.20000000000002</ele><time>2026-05-04T06:26:09Z</time></trkpt><trkpt lat="43.926337552737344" lon="12.570771265811267"><ele>212.60000000000002</ele><time>2026-05-04T06:26:10Z</time></trkpt><trkpt lat="43.926351257106504" lon="12.570626952770699"><ele>213.0</ele><time>2026-05-04T06:26:11Z</time></trkpt><trkpt lat="43.926371016040136" lon="12.570486416727583"><ele>213.0</ele><time>2026-05-04T06:26:12Z</time></trkpt><trkpt lat="43.92639037810674" lon="12.570358962189717"><ele>213.0</ele><time>2026-05-04T06:26:13Z</time></trkpt><trkpt lat="43.926409412083814" lon="12.570245371583594"><ele>213.0</ele><time>2026-05-04T06:26:14Z</time></trkpt><trkpt lat="43.92644332825953" lon="12.570158079160795"><ele>213.0</ele><time>2026-05-04T06:26:15Z</time></trkpt><trkpt lat="43.92647150956397" lon="12.570010821196831"><ele>213.0</ele><time>2026-05-04T06:26:17Z</time></trkpt><trkpt lat="43.9264982203289" lon="12.569871247391976"><ele>214.25</ele><time>2026-05-04T06:26:19Z</time></trkpt><trkpt lat="43.92633854648033" lon="12.569772497459764"><ele>215.5</ele><time>2026-05-04T06:26:20Z</time></trkpt><trkpt lat="43.92626722243722" lon="12.569732957342936"><ele>216.75</ele><time>2026-05-04T06:26:21Z</time></trkpt><trkpt lat="43.92615475352422" lon="12.569743717197463"><ele>218.0</ele><time>2026-05-04T06:26:22Z</time></trkpt><trkpt lat="43.926058059240354" lon="12.569743418849086"><ele>218.0</ele><time>2026-05-04T06:26:23Z</time></trkpt><trkpt lat="43.92595958097785" lon="12.569737313426595"><ele>218.0</ele><time>2026-05-04T06:26:24Z</time></trkpt><trkpt lat="43.92586317113811" lon="12.569719744315373"><ele>218.0</ele><time>2026-05-04T06:26:25Z</time></trkpt><trkpt lat="43.92576340700642" lon="12.569703600708989"><ele>218.0</ele><time>2026-05-04T06:26:26Z</time></trkpt><trkpt lat="43.92566219708012" lon="12.569679002081429"><ele>218.0</ele><time>2026-05-04T06:26:27Z</time></trkpt><trkpt lat="43.92555896009062" lon="12.56964793347707"><ele>217.2</ele><time>2026-05-04T06:26:28Z</time></trkpt><trkpt lat="43.925456808620815" lon="12.569618597174621"><ele>216.4</ele><time>2026-05-04T06:26:29Z</time></trkpt><trkpt lat="43.925356220846325" lon="12.56958252113768"><ele>215.59999999999997</ele><time>2026-05-04T06:26:30Z</time></trkpt><trkpt lat="43.92525955565536" lon="12.569541902023959"><ele>214.79999999999998</ele><time>2026-05-04T06:26:31Z</time></trkpt><trkpt lat="43.925167195000334" lon="12.569489199066059"><ele>214.0</ele><time>2026-05-04T06:26:32Z</time></trkpt><trkpt lat="43.925075289974785" lon="12.569420617518908"><ele>211.79999999999998</ele><time>2026-05-04T06:26:33Z</time></trkpt><trkpt lat="43.92497603431358" lon="12.569347315978503"><ele>209.59999999999997</ele><time>2026-05-04T06:26:34Z</time></trkpt><trkpt lat="43.92487982105097" lon="12.569266373062812"><ele>207.4</ele><time>2026-05-04T06:26:35Z</time></trkpt><trkpt lat="43.924787854221485" lon="12.569183111242667"><ele>205.2</ele><time>2026-05-04T06:26:36Z</time></trkpt><trkpt lat="43.92469428996993" lon="12.569111104276837"><ele>203.0</ele><time>2026-05-04T06:26:37Z</time></trkpt><trkpt lat="43.92459337457211" lon="12.569043211280402"><ele>203.0</ele><time>2026-05-04T06:26:38Z</time></trkpt><trkpt lat="43.92448609949766" lon="12.56898815823687"><ele>203.0</ele><time>2026-05-04T06:26:39Z</time></trkpt><trkpt lat="43.92437892703756" lon="12.568949288781281"><ele>203.0</ele><time>2026-05-04T06:26:40Z</time></trkpt><trkpt lat="43.924269796733746" lon="12.568922889362582"><ele>203.0</ele><time>2026-05-04T06:26:41Z</time></trkpt><trkpt lat="43.92416712938161" lon="12.568897376515995"><ele>203.0</ele><time>2026-05-04T06:26:42Z</time></trkpt><trkpt lat="43.92406749359004" lon="12.56885983674481"><ele>201.2</ele><time>2026-05-04T06:26:43Z</time></trkpt><trkpt lat="43.92397473391524" lon="12.568800256219308"><ele>199.4</ele><time>2026-05-04T06:26:44Z</time></trkpt><trkpt lat="43.923885760666465" lon="12.568713155414505"><ele>197.6</ele><time>2026-05-04T06:26:45Z</time></trkpt><trkpt lat="43.9238110820836" lon="12.56860231589991"><ele>195.79999999999998</ele><time>2026-05-04T06:26:46Z</time></trkpt><trkpt lat="43.92374446945632" lon="12.568475271083598"><ele>194.0</ele><time>2026-05-04T06:26:47Z</time></trkpt><trkpt lat="43.9236798748287" lon="12.568345235132119"><ele>193.79999999999998</ele><time>2026-05-04T06:26:48Z</time></trkpt><trkpt lat="43.92362302294229" lon="12.568242578056593"><ele>193.6</ele><time>2026-05-04T06:26:49Z</time></trkpt><trkpt lat="43.92356034322164" lon="12.568167245357122"><ele>193.4</ele><time>2026-05-04T06:26:50Z</time></trkpt><trkpt lat="43.923484113526996" lon="12.56810058204782"><ele>193.2</ele><time>2026-05-04T06:26:51Z</time></trkpt><trkpt lat="43.92338476106071" lon="12.568057670676987"><ele>193.0</ele><time>2026-05-04T06:26:52Z</time></trkpt><trkpt lat="43.92325607812756" lon="12.568046590606473"><ele>190.5</ele><time>2026-05-04T06:26:53Z</time></trkpt><trkpt lat="43.92312612061643" lon="12.56804837040874"><ele>188.0</ele><time>2026-05-04T06:26:54Z</time></trkpt><trkpt lat="43.92300202664856" lon="12.568047435028502"><ele>185.5</ele><time>2026-05-04T06:26:55Z</time></trkpt><trkpt lat="43.92287803405224" lon="12.568040116273561"><ele>183.0</ele><time>2026-05-04T06:26:56Z</time></trkpt><trkpt lat="43.92275564538007" lon="12.568031375079318"><ele>183.0</ele><time>2026-05-04T06:26:57Z</time></trkpt><trkpt lat="43.9226396217163" lon="12.568028797180704"><ele>183.0</ele><time>2026-05-04T06:26:58Z</time></trkpt><trkpt lat="43.922530993766344" lon="12.568020487333131"><ele>183.0</ele><time>2026-05-04T06:26:59Z</time></trkpt><trkpt lat="43.92242784845531" lon="12.568006685404963"><ele>183.0</ele><time>2026-05-04T06:27:00Z</time></trkpt><trkpt lat="43.92233791705121" lon="12.567966629879814"><ele>183.0</ele><time>2026-05-04T06:27:01Z</time></trkpt><trkpt lat="43.92225975362844" lon="12.567902981415905"><ele>182.8</ele><time>2026-05-04T06:27:02Z</time></trkpt><trkpt lat="43.92218378631554" lon="12.567803113209996"><ele>182.60000000000002</ele><time>2026-05-04T06:27:03Z</time></trkpt><trkpt lat="43.92211228711531" lon="12.567685767234432"><ele>182.39999999999998</ele><time>2026-05-04T06:27:04Z</time></trkpt><trkpt lat="43.92204147438498" lon="12.567559443834549"><ele>182.2</ele><time>2026-05-04T06:27:05Z</time></trkpt><trkpt lat="43.92196167850592" lon="12.567439610938015"><ele>182.0</ele><time>2026-05-04T06:27:06Z</time></trkpt><trkpt lat="43.921872966523175" lon="12.567332971493824"><ele>182.0</ele><time>2026-05-04T06:27:07Z</time></trkpt><trkpt lat="43.92178668788113" lon="12.567247755571215"><ele>182.0</ele><time>2026-05-04T06:27:08Z</time></trkpt><trkpt lat="43.9217213636782" lon="12.567191188209133"><ele>182.0</ele><time>2026-05-04T06:27:09Z</time></trkpt><trkpt lat="43.92166259155409" lon="12.567149629476503"><ele>182.0</ele><time>2026-05-04T06:27:10Z</time></trkpt><trkpt lat="43.921583695797885" lon="12.567136798088288"><ele>182.0</ele><time>2026-05-04T06:27:12Z</time></trkpt><trkpt lat="43.92149226453386" lon="12.567226584167113"><ele>182.0</ele><time>2026-05-04T06:27:14Z</time></trkpt><trkpt lat="43.921440371637594" lon="12.56728545929621"><ele>181.16666666666666</ele><time>2026-05-04T06:27:15Z</time></trkpt><trkpt lat="43.92136954921669" lon="12.567336056815785"><ele>180.33333333333331</ele><time>2026-05-04T06:27:16Z</time></trkpt><trkpt lat="43.92128703875052" lon="12.567369688957045"><ele>179.5</ele><time>2026-05-04T06:27:17Z</time></trkpt><trkpt lat="43.92119825645305" lon="12.567413443169691"><ele>178.66666666666666</ele><time>2026-05-04T06:27:18Z</time></trkpt><trkpt lat="43.92111070645165" lon="12.567467179457966"><ele>177.83333333333334</ele><time>2026-05-04T06:27:19Z</time></trkpt><trkpt lat="43.92102368464405" lon="12.567512470141478"><ele>177.0</ele><time>2026-05-04T06:27:20Z</time></trkpt><trkpt lat="43.92093158439665" lon="12.567549858755639"><ele>175.0</ele><time>2026-05-04T06:27:21Z</time></trkpt><trkpt lat="43.920823727565335" lon="12.56759884852511"><ele>173.0</ele><time>2026-05-04T06:27:22Z</time></trkpt><trkpt lat="43.92072064721537" lon="12.567647525874484"><ele>171.0</ele><time>2026-05-04T06:27:23Z</time></trkpt><trkpt lat="43.92062852904922" lon="12.567697592075598"><ele>169.0</ele><time>2026-05-04T06:27:24Z</time></trkpt><trkpt lat="43.92053717853147" lon="12.567753077964538"><ele>167.0</ele><time>2026-05-04T06:27:25Z</time></trkpt><trkpt lat="43.92044156263414" lon="12.567802787203457"><ele>167.0</ele><time>2026-05-04T06:27:26Z</time></trkpt><trkpt lat="43.92034041557788" lon="12.56784956360586"><ele>167.0</ele><time>2026-05-04T06:27:27Z</time></trkpt><trkpt lat="43.92025803691652" lon="12.56790730451549"><ele>167.0</ele><time>2026-05-04T06:27:28Z</time></trkpt><trkpt lat="43.9201760631628" lon="12.567980511064809"><ele>167.0</ele><time>2026-05-04T06:27:29Z</time></trkpt><trkpt lat="43.920103110961016" lon="12.568046092068062"><ele>167.0</ele><time>2026-05-04T06:27:30Z</time></trkpt><trkpt lat="43.92002393458886" lon="12.56811293796175"><ele>165.33333333333331</ele><time>2026-05-04T06:27:31Z</time></trkpt><trkpt lat="43.919955572174636" lon="12.568176124548907"><ele>163.66666666666666</ele><time>2026-05-04T06:27:32Z</time></trkpt><trkpt lat="43.91989136855325" lon="12.568244199295588"><ele>162.0</ele><time>2026-05-04T06:27:33Z</time></trkpt><trkpt lat="43.91982325624899" lon="12.568314055620126"><ele>160.33333333333334</ele><time>2026-05-04T06:27:34Z</time></trkpt><trkpt lat="43.91973963657527" lon="12.568370861949735"><ele>158.66666666666669</ele><time>2026-05-04T06:27:35Z</time></trkpt><trkpt lat="43.919636860036775" lon="12.568418292499475"><ele>157.0</ele><time>2026-05-04T06:27:36Z</time></trkpt><trkpt lat="43.919540266134426" lon="12.568451693594248"><ele>157.0</ele><time>2026-05-04T06:27:37Z</time></trkpt><trkpt lat="43.91943838524925" lon="12.568486462571832"><ele>157.0</ele><time>2026-05-04T06:27:38Z</time></trkpt><trkpt lat="43.91932848771064" lon="12.568522410058302"><ele>157.0</ele><time>2026-05-04T06:27:39Z</time></trkpt><trkpt lat="43.91921563402916" lon="12.568559760642394"><ele>157.0</ele><time>2026-05-04T06:27:40Z</time></trkpt><trkpt lat="43.91910837015912" lon="12.568596337166555"><ele>157.0</ele><time>2026-05-04T06:27:41Z</time></trkpt><trkpt lat="43.91900101472906" lon="12.568632038259034"><ele>155.0</ele><time>2026-05-04T06:27:42Z</time></trkpt><trkpt lat="43.91889524789742" lon="12.568673210079146"><ele>153.0</ele><time>2026-05-04T06:27:43Z</time></trkpt><trkpt lat="43.91878139843002" lon="12.568711032430015"><ele>151.0</ele><time>2026-05-04T06:27:44Z</time></trkpt><trkpt lat="43.91867009684973" lon="12.568740601381725"><ele>149.0</ele><time>2026-05-04T06:27:45Z</time></trkpt><trkpt lat="43.91855856700975" lon="12.568769813663499"><ele>149.0</ele><time>2026-05-04T06:27:46Z</time></trkpt><trkpt lat="43.918438018430194" lon="12.568778608340203"><ele>149.0</ele><time>2026-05-04T06:27:47Z</time></trkpt><trkpt lat="43.91833644466569" lon="12.568769019092718"><ele>149.0</ele><time>2026-05-04T06:27:48Z</time></trkpt><trkpt lat="43.91823098078609" lon="12.568758335952937"><ele>149.0</ele><time>2026-05-04T06:27:49Z</time></trkpt><trkpt lat="43.9181329695549" lon="12.568764621412349"><ele>149.0</ele><time>2026-05-04T06:27:50Z</time></trkpt><trkpt lat="43.9180314797297" lon="12.56879483468213"><ele>148.0</ele><time>2026-05-04T06:27:51Z</time></trkpt><trkpt lat="43.917936319920074" lon="12.568809580968363"><ele>147.0</ele><time>2026-05-04T06:27:52Z</time></trkpt><trkpt lat="43.917857194400725" lon="12.568815770313522"><ele>146.0</ele><time>2026-05-04T06:27:53Z</time></trkpt><trkpt lat="43.91779143273289" lon="12.568818204831832"><ele>145.0</ele><time>2026-05-04T06:27:54Z</time></trkpt><trkpt lat="43.917724371142306" lon="12.568788814615617"><ele>144.0</ele><time>2026-05-04T06:28:11Z</time></trkpt><trkpt lat="43.917686336137166" lon="12.568714428360668"><ele>143.0</ele><time>2026-05-04T06:28:13Z</time></trkpt><trkpt lat="43.917564547914544" lon="12.568672882597086"><ele>142.66666666666666</ele><time>2026-05-04T06:28:15Z</time></trkpt><trkpt lat="43.91748795019629" lon="12.56865888385338"><ele>142.33333333333331</ele><time>2026-05-04T06:28:16Z</time></trkpt><trkpt lat="43.917407038407745" lon="12.568662706314257"><ele>142.0</ele><time>2026-05-04T06:28:17Z</time></trkpt><trkpt lat="43.91733134269629" lon="12.568687381882139"><ele>141.66666666666666</ele><time>2026-05-04T06:28:18Z</time></trkpt><trkpt lat="43.917248437978195" lon="12.568740140854999"><ele>141.33333333333334</ele><time>2026-05-04T06:28:19Z</time></trkpt><trkpt lat="43.91717176643304" lon="12.568811364119414"><ele>141.0</ele><time>2026-05-04T06:28:20Z</time></trkpt><trkpt lat="43.917095231704295" lon="12.568902042302492"><ele>140.6</ele><time>2026-05-04T06:28:21Z</time></trkpt><trkpt lat="43.91701867583256" lon="12.568970842094352"><ele>140.2</ele><time>2026-05-04T06:28:22Z</time></trkpt><trkpt lat="43.9169541092967" lon="12.569026790717055"><ele>139.8</ele><time>2026-05-04T06:28:23Z</time></trkpt><trkpt lat="43.91688503476806" lon="12.56906963944926"><ele>139.4</ele><time>2026-05-04T06:28:24Z</time></trkpt><trkpt lat="43.91676454384929" lon="12.569074683879933"><ele>139.0</ele><time>2026-05-04T06:28:26Z</time></trkpt><trkpt lat="43.91666899964745" lon="12.568954249371368"><ele>139.0</ele><time>2026-05-04T06:28:28Z</time></trkpt><trkpt lat="43.91662914271635" lon="12.56885222340624"><ele>139.0</ele><time>2026-05-04T06:28:29Z</time></trkpt><trkpt lat="43.916587758919185" lon="12.568753757624274"><ele>139.0</ele><time>2026-05-04T06:28:30Z</time></trkpt><trkpt lat="43.91654720807672" lon="12.568668214094247"><ele>139.0</ele><time>2026-05-04T06:28:31Z</time></trkpt><trkpt lat="43.91650703762053" lon="12.568595765903165"><ele>139.0</ele><time>2026-05-04T06:28:32Z</time></trkpt><trkpt lat="43.916411243727865" lon="12.568502192551476"><ele>139.0</ele><time>2026-05-04T06:28:34Z</time></trkpt><trkpt lat="43.91628031171881" lon="12.56850160447371"><ele>139.0</ele><time>2026-05-04T06:28:36Z</time></trkpt><trkpt lat="43.91621105224356" lon="12.568510663725354"><ele>139.0</ele><time>2026-05-04T06:28:37Z</time></trkpt><trkpt lat="43.91614244906854" lon="12.568504812484269"><ele>139.0</ele><time>2026-05-04T06:28:39Z</time></trkpt><trkpt lat="43.9160860963296" lon="12.568426234764576"><ele>139.0</ele><time>2026-05-04T06:28:51Z</time></trkpt><trkpt lat="43.916069369835064" lon="12.56829631702358"><ele>139.0</ele><time>2026-05-04T06:28:53Z</time></trkpt><trkpt lat="43.91605745298384" lon="12.568180970598839"><ele>139.0</ele><time>2026-05-04T06:28:55Z</time></trkpt><trkpt lat="43.916046976139775" lon="12.568051032061195"><ele>139.0</ele><time>2026-05-04T06:28:57Z</time></trkpt><trkpt lat="43.9160290592716" lon="12.567913861880779"><ele>139.0</ele><time>2026-05-04T06:28:59Z</time></trkpt><trkpt lat="43.916001029406736" lon="12.56778807848533"><ele>139.0</ele><time>2026-05-04T06:29:01Z</time></trkpt><trkpt lat="43.91596658043978" lon="12.56766032963933"><ele>139.0</ele><time>2026-05-04T06:29:03Z</time></trkpt><trkpt lat="43.9159663325332" lon="12.56751315784234"><ele>139.0</ele><time>2026-05-04T06:29:05Z</time></trkpt><trkpt lat="43.915972908355805" lon="12.567362850784354"><ele>139.16666666666669</ele><time>2026-05-04T06:29:07Z</time></trkpt><trkpt lat="43.91599418176936" lon="12.567216994431073"><ele>139.33333333333334</ele><time>2026-05-04T06:29:09Z</time></trkpt><trkpt lat="43.91596731113489" lon="12.567067673448943"><ele>139.5</ele><time>2026-05-04T06:29:11Z</time></trkpt><trkpt lat="43.91594174087237" lon="12.566958957022624"><ele>139.66666666666666</ele><time>2026-05-04T06:29:12Z</time></trkpt><trkpt lat="43.915920155432055" lon="12.566872139669975"><ele>139.83333333333331</ele><time>2026-05-04T06:29:13Z</time></trkpt><trkpt lat="43.915894602712505" lon="12.56679039085308"><ele>140.0</ele><time>2026-05-04T06:29:14Z</time></trkpt><trkpt lat="43.91584533548081" lon="12.566686809337297"><ele>140.33333333333331</ele><time>2026-05-04T06:29:16Z</time></trkpt><trkpt lat="43.91577328862919" lon="12.566678173779756"><ele>140.66666666666666</ele><time>2026-05-04T06:29:18Z</time></trkpt><trkpt lat="43.91567993818949" lon="12.566686831433595"><ele>141.0</ele><time>2026-05-04T06:29:21Z</time></trkpt><trkpt lat="43.91559099240752" lon="12.566668931424648"><ele>141.33333333333334</ele><time>2026-05-04T06:29:24Z</time></trkpt><trkpt lat="43.91552791959901" lon="12.566639720716129"><ele>141.66666666666669</ele><time>2026-05-04T06:29:26Z</time></trkpt><trkpt lat="43.91546353677777" lon="12.566615886745753"><ele>142.0</ele><time>2026-05-04T06:29:28Z</time></trkpt><trkpt lat="43.91539404186029" lon="12.566588019358328"><ele>142.0</ele><time>2026-05-04T06:29:30Z</time></trkpt><trkpt lat="43.91530370510699" lon="12.566571845647823"><ele>142.0</ele><time>2026-05-04T06:29:33Z</time></trkpt><trkpt lat="43.915229193775644" lon="12.566538803886484"><ele>142.0</ele><time>2026-05-04T06:29:35Z</time></trkpt><trkpt lat="43.91513381663497" lon="12.566499322225232"><ele>142.0</ele><time>2026-05-04T06:29:37Z</time></trkpt><trkpt lat="43.915027239080665" lon="12.566424180843004"><ele>142.0</ele><time>2026-05-04T06:29:39Z</time></trkpt><trkpt lat="43.91496031610421" lon="12.566345632249735"><ele>142.0</ele><time>2026-05-04T06:29:41Z</time></trkpt><trkpt lat="43.91492120710244" lon="12.566272309622045"><ele>142.0</ele><time>2026-05-04T06:29:44Z</time></trkpt><trkpt lat="43.914903169356535" lon="12.566153804097757"><ele>142.0</ele><time>2026-05-04T06:29:50Z</time></trkpt><trkpt lat="43.91489148400853" lon="12.56601321490017"><ele>142.0</ele><time>2026-05-04T06:29:52Z</time></trkpt><trkpt lat="43.91487568105848" lon="12.565867187116943"><ele>142.0</ele><time>2026-05-04T06:29:54Z</time></trkpt><trkpt lat="43.91485829428824" lon="12.5657742625175"><ele>142.0</ele><time>2026-05-04T06:29:56Z</time></trkpt><trkpt lat="43.91483070339602" lon="12.565664788914612"><ele>142.0</ele><time>2026-05-04T06:30:05Z</time></trkpt><trkpt lat="43.91480254319482" lon="12.565547344006434"><ele>142.0</ele><time>2026-05-04T06:30:07Z</time></trkpt><trkpt lat="43.914759047090065" lon="12.56543609151293"><ele>142.0</ele><time>2026-05-04T06:30:09Z</time></trkpt><trkpt lat="43.91471412893569" lon="12.565350215958334"><ele>142.0</ele><time>2026-05-04T06:30:11Z</time></trkpt><trkpt lat="43.914674265121626" lon="12.565258493514364"><ele>142.0</ele><time>2026-05-04T06:30:26Z</time></trkpt><trkpt lat="43.91463317602297" lon="12.56518652122568"><ele>142.0</ele><time>2026-05-04T06:30:30Z</time></trkpt><trkpt lat="43.914554694887535" lon="12.565172912784558"><ele>142.4</ele><time>2026-05-04T06:30:32Z</time></trkpt><trkpt lat="43.9144345238465" lon="12.565166204076453"><ele>142.79999999999998</ele><time>2026-05-04T06:30:34Z</time></trkpt><trkpt lat="43.91434794359811" lon="12.565157912154447"><ele>143.2</ele><time>2026-05-04T06:30:36Z</time></trkpt><trkpt lat="43.914246061589374" lon="12.565178328375433"><ele>143.6</ele><time>2026-05-04T06:30:38Z</time></trkpt><trkpt lat="43.91413893592745" lon="12.565190012255062"><ele>144.0</ele><time>2026-05-04T06:30:40Z</time></trkpt><trkpt lat="43.914053027346306" lon="12.565203084585747"><ele>144.0</ele><time>2026-05-04T06:30:42Z</time></trkpt><trkpt lat="43.91396118692682" lon="12.56518012557248"><ele>144.0</ele><time>2026-05-04T06:30:44Z</time></trkpt><trkpt lat="43.91386351377257" lon="12.565087928680734"><ele>144.0</ele><time>2026-05-04T06:30:46Z</time></trkpt><trkpt lat="43.91379615348011" lon="12.56500133862331"><ele>144.0</ele><time>2026-05-04T06:30:48Z</time></trkpt><trkpt lat="43.91376248237111" lon="12.564925045269561"><ele>144.0</ele><time>2026-05-04T06:30:50Z</time></trkpt><trkpt lat="43.91370762821064" lon="12.564874448116456"><ele>144.0</ele><time>2026-05-04T06:30:53Z</time></trkpt><trkpt lat="43.91361216736166" lon="12.56482412491083"><ele>144.0</ele><time>2026-05-04T06:30:55Z</time></trkpt><trkpt lat="43.913657235828545" lon="12.564914986003235"><ele>144.0</ele><time>2026-05-04T06:31:21Z</time></trkpt><trkpt lat="43.91372582373617" lon="12.564867762014792"><ele>144.0</ele><time>2026-05-04T06:31:26Z</time></trkpt><trkpt lat="43.913782699893275" lon="12.564905792412127"><ele>144.0</ele><time>2026-05-04T06:31:28Z</time></trkpt><trkpt lat="43.913829593790624" lon="12.56503099979092"><ele>144.0</ele><time>2026-05-04T06:31:31Z</time></trkpt><trkpt lat="43.91389768123335" lon="12.565098338783256"><ele>144.0</ele><time>2026-05-04T06:31:33Z</time></trkpt><trkpt lat="43.9139847953499" lon="12.565169279831292"><ele>144.0</ele><time>2026-05-04T06:31:35Z</time></trkpt><trkpt lat="43.91404457361829" lon="12.56522197279748"><ele>144.0</ele><time>2026-05-04T06:31:37Z</time></trkpt><trkpt lat="43.9140240642838" lon="12.56532101759329"><ele>144.0</ele><time>2026-05-04T06:31:39Z</time></trkpt><trkpt lat="43.91401766594479" lon="12.565429116757162"><ele>144.0</ele><time>2026-05-04T06:31:41Z</time></trkpt><trkpt lat="43.91403372299594" lon="12.56553165549275"><ele>144.0</ele><time>2026-05-04T06:31:43Z</time></trkpt><trkpt lat="43.91400948439169" lon="12.565624394300192"><ele>144.0</ele><time>2026-05-04T06:31:45Z</time></trkpt><trkpt lat="43.91390386841023" lon="12.565617510299651"><ele>144.2</ele><time>2026-05-04T06:31:48Z</time></trkpt><trkpt lat="43.913784174083226" lon="12.565524930028184"><ele>144.4</ele><time>2026-05-04T06:31:50Z</time></trkpt><trkpt lat="43.9136951322008" lon="12.565509549031663"><ele>144.6</ele><time>2026-05-04T06:31:51Z</time></trkpt><trkpt lat="43.91360558986054" lon="12.565493539637766"><ele>144.8</ele><time>2026-05-04T06:31:52Z</time></trkpt><trkpt lat="43.91354646879712" lon="12.56543063622235"><ele>145.0</ele><time>2026-05-04T06:31:53Z</time></trkpt><trkpt lat="43.91346920527939" lon="12.565386224388037"><ele>145.2</ele><time>2026-05-04T06:31:54Z</time></trkpt><trkpt lat="43.913401135938216" lon="12.565330513185899"><ele>145.4</ele><time>2026-05-04T06:31:55Z</time></trkpt><trkpt lat="43.91333691435151" lon="12.565242706316633"><ele>145.6</ele><time>2026-05-04T06:31:56Z</time></trkpt><trkpt lat="43.91325124937933" lon="12.565144061233893"><ele>145.8</ele><time>2026-05-04T06:31:57Z</time></trkpt><trkpt lat="43.91315260613845" lon="12.565057228891845"><ele>146.0</ele><time>2026-05-04T06:31:58Z</time></trkpt><trkpt lat="43.91303009690445" lon="12.565003133038802"><ele>146.0</ele><time>2026-05-04T06:31:59Z</time></trkpt><trkpt lat="43.91288478477578" lon="12.56491594496522"><ele>146.0</ele><time>2026-05-04T06:32:00Z</time></trkpt><trkpt lat="43.91273180062945" lon="12.56483294014215"><ele>146.0</ele><time>2026-05-04T06:32:01Z</time></trkpt><trkpt lat="43.91260351846885" lon="12.564768896095526"><ele>146.2</ele><time>2026-05-04T06:32:02Z</time></trkpt><trkpt lat="43.912520731418795" lon="12.564631467994603"><ele>146.39999999999998</ele><time>2026-05-04T06:32:03Z</time></trkpt><trkpt lat="43.91242378761951" lon="12.564553847900125"><ele>146.6</ele><time>2026-05-04T06:32:04Z</time></trkpt><trkpt lat="43.91234707494057" lon="12.5644797448889"><ele>146.79999999999998</ele><time>2026-05-04T06:32:05Z</time></trkpt><trkpt lat="43.912269788561645" lon="12.56440992751336"><ele>147.0</ele><time>2026-05-04T06:32:06Z</time></trkpt><trkpt lat="43.9121772103098" lon="12.564294414937162"><ele>147.0</ele><time>2026-05-04T06:32:07Z</time></trkpt><trkpt lat="43.912068420049685" lon="12.564162325391901"><ele>147.0</ele><time>2026-05-04T06:32:08Z</time></trkpt><trkpt lat="43.911989058821895" lon="12.564028179776955"><ele>147.0</ele><time>2026-05-04T06:32:09Z</time></trkpt><trkpt lat="43.91192375797935" lon="12.563910677275116"><ele>147.0</ele><time>2026-05-04T06:32:10Z</time></trkpt><trkpt lat="43.911865285052784" lon="12.563810259371671"><ele>147.0</ele><time>2026-05-04T06:32:11Z</time></trkpt><trkpt lat="43.911795681817516" lon="12.563697302264764"><ele>147.0</ele><time>2026-05-04T06:32:12Z</time></trkpt><trkpt lat="43.911736798934335" lon="12.563568053966462"><ele>147.0</ele><time>2026-05-04T06:32:13Z</time></trkpt><trkpt lat="43.911658885488485" lon="12.563442970778988"><ele>147.0</ele><time>2026-05-04T06:32:14Z</time></trkpt><trkpt lat="43.91161457119096" lon="12.563301183112179"><ele>147.0</ele><time>2026-05-04T06:32:15Z</time></trkpt><trkpt lat="43.91155671416431" lon="12.563169111567577"><ele>147.25</ele><time>2026-05-04T06:32:16Z</time></trkpt><trkpt lat="43.91149334455431" lon="12.563038075197698"><ele>147.5</ele><time>2026-05-04T06:32:17Z</time></trkpt><trkpt lat="43.91141557818925" lon="12.56292042229264"><ele>147.75</ele><time>2026-05-04T06:32:18Z</time></trkpt><trkpt lat="43.91133483787373" lon="12.562798216085087"><ele>148.0</ele><time>2026-05-04T06:32:19Z</time></trkpt><trkpt lat="43.911253433543116" lon="12.56267530986591"><ele>148.0</ele><time>2026-05-04T06:32:20Z</time></trkpt><trkpt lat="43.9111601809792" lon="12.56254426576007"><ele>148.0</ele><time>2026-05-04T06:32:21Z</time></trkpt><trkpt lat="43.91106855074003" lon="12.56241443715962"><ele>148.0</ele><time>2026-05-04T06:32:22Z</time></trkpt><trkpt lat="43.91098907883477" lon="12.56227969054667"><ele>148.0</ele><time>2026-05-04T06:32:23Z</time></trkpt><trkpt lat="43.91088876084324" lon="12.562151971359775"><ele>148.0</ele><time>2026-05-04T06:32:24Z</time></trkpt><trkpt lat="43.91078902604428" lon="12.56203795915294"><ele>148.0</ele><time>2026-05-04T06:32:25Z</time></trkpt><trkpt lat="43.9106957065194" lon="12.561929180650163"><ele>148.0</ele><time>2026-05-04T06:32:26Z</time></trkpt><trkpt lat="43.91060599457844" lon="12.561809007607014"><ele>148.0</ele><time>2026-05-04T06:32:27Z</time></trkpt><trkpt lat="43.91051382260391" lon="12.561696577135391"><ele>148.0</ele><time>2026-05-04T06:32:28Z</time></trkpt><trkpt lat="43.91042966425535" lon="12.56155791568487"><ele>148.0</ele><time>2026-05-04T06:32:29Z</time></trkpt><trkpt lat="43.91033846959877" lon="12.561442411163515"><ele>148.0</ele><time>2026-05-04T06:32:30Z</time></trkpt><trkpt lat="43.91024954636022" lon="12.561329774225673"><ele>148.0</ele><time>2026-05-04T06:32:31Z</time></trkpt><trkpt lat="43.91015909254017" lon="12.561214967455909"><ele>149.0</ele><time>2026-05-04T06:32:32Z</time></trkpt><trkpt lat="43.91006980814776" lon="12.561101644957573"><ele>150.0</ele><time>2026-05-04T06:32:33Z</time></trkpt><trkpt lat="43.909963323725705" lon="12.560980139583723"><ele>151.0</ele><time>2026-05-04T06:32:34Z</time></trkpt><trkpt lat="43.909858388674756" lon="12.560846596657825"><ele>152.0</ele><time>2026-05-04T06:32:35Z</time></trkpt><trkpt lat="43.909763462414354" lon="12.560718371646232"><ele>152.0</ele><time>2026-05-04T06:32:36Z</time></trkpt><trkpt lat="43.90966726558278" lon="12.560607453178449"><ele>152.0</ele><time>2026-05-04T06:32:37Z</time></trkpt><trkpt lat="43.90957963122964" lon="12.560464760820418"><ele>152.0</ele><time>2026-05-04T06:32:38Z</time></trkpt><trkpt lat="43.90946823764929" lon="12.560331810269954"><ele>152.0</ele><time>2026-05-04T06:32:39Z</time></trkpt><trkpt lat="43.90936018032226" lon="12.560204977244368"><ele>152.25</ele><time>2026-05-04T06:32:40Z</time></trkpt><trkpt lat="43.90926531084588" lon="12.560071056721364"><ele>152.5</ele><time>2026-05-04T06:32:41Z</time></trkpt><trkpt lat="43.90917934280387" lon="12.559946087384205"><ele>152.75</ele><time>2026-05-04T06:32:42Z</time></trkpt><trkpt lat="43.90910054639839" lon="12.55981240951028"><ele>153.0</ele><time>2026-05-04T06:32:43Z</time></trkpt><trkpt lat="43.90901990588913" lon="12.559681651334982"><ele>153.25</ele><time>2026-05-04T06:32:44Z</time></trkpt><trkpt lat="43.90895714600404" lon="12.55953503253919"><ele>153.5</ele><time>2026-05-04T06:32:45Z</time></trkpt><trkpt lat="43.908900990776395" lon="12.559385138606679"><ele>153.75</ele><time>2026-05-04T06:32:46Z</time></trkpt><trkpt lat="43.908855906741216" lon="12.559224295853388"><ele>154.0</ele><time>2026-05-04T06:32:47Z</time></trkpt><trkpt lat="43.908811857936236" lon="12.559042120923268"><ele>154.0</ele><time>2026-05-04T06:32:48Z</time></trkpt><trkpt lat="43.90876091564229" lon="12.558847778832483"><ele>154.0</ele><time>2026-05-04T06:32:49Z</time></trkpt><trkpt lat="43.908714902854854" lon="12.558643452979569"><ele>154.0</ele><time>2026-05-04T06:32:50Z</time></trkpt><trkpt lat="43.90867473584625" lon="12.558460904202358"><ele>154.0</ele><time>2026-05-04T06:32:51Z</time></trkpt><trkpt lat="43.90863757128201" lon="12.558287216958378"><ele>154.0</ele><time>2026-05-04T06:32:52Z</time></trkpt><trkpt lat="43.908608655394296" lon="12.558095094746738"><ele>154.0</ele><time>2026-05-04T06:32:53Z</time></trkpt><trkpt lat="43.908574345967914" lon="12.557927417133818"><ele>154.0</ele><time>2026-05-04T06:32:54Z</time></trkpt><trkpt lat="43.90853339319689" lon="12.55772727207646"><ele>154.0</ele><time>2026-05-04T06:32:55Z</time></trkpt><trkpt lat="43.90849636277219" lon="12.557546296205794"><ele>154.0</ele><time>2026-05-04T06:32:56Z</time></trkpt><trkpt lat="43.90846126846472" lon="12.557374782567905"><ele>154.0</ele><time>2026-05-04T06:32:57Z</time></trkpt><trkpt lat="43.90842859104915" lon="12.557187769223834"><ele>154.0</ele><time>2026-05-04T06:32:58Z</time></trkpt><trkpt lat="43.908386884683345" lon="12.55702718239727"><ele>154.0</ele><time>2026-05-04T06:32:59Z</time></trkpt><trkpt lat="43.90834541280535" lon="12.55686788097312"><ele>154.0</ele><time>2026-05-04T06:33:00Z</time></trkpt><trkpt lat="43.908307651743854" lon="12.556702472759278"><ele>154.0</ele><time>2026-05-04T06:33:01Z</time></trkpt><trkpt lat="43.908278524661995" lon="12.556529412946933"><ele>154.0</ele><time>2026-05-04T06:33:02Z</time></trkpt><trkpt lat="43.90823178612592" lon="12.55636024919156"><ele>154.0</ele><time>2026-05-04T06:33:03Z</time></trkpt><trkpt lat="43.9082118351328" lon="12.5562006382803"><ele>154.25</ele><time>2026-05-04T06:33:04Z</time></trkpt><trkpt lat="43.90816206758551" lon="12.556025785177903"><ele>154.5</ele><time>2026-05-04T06:33:05Z</time></trkpt><trkpt lat="43.9081210312883" lon="12.55585942206465"><ele>154.75</ele><time>2026-05-04T06:33:06Z</time></trkpt><trkpt lat="43.90807814971458" lon="12.555694295342192"><ele>155.0</ele><time>2026-05-04T06:33:07Z</time></trkpt><trkpt lat="43.908043753513475" lon="12.555545386275625"><ele>155.0</ele><time>2026-05-04T06:33:08Z</time></trkpt><trkpt lat="43.90801121214252" lon="12.555375904538144"><ele>155.0</ele><time>2026-05-04T06:33:09Z</time></trkpt><trkpt lat="43.90796589224037" lon="12.55520769682722"><ele>155.0</ele><time>2026-05-04T06:33:10Z</time></trkpt><trkpt lat="43.90792363458416" lon="12.555037310413779"><ele>155.0</ele><time>2026-05-04T06:33:11Z</time></trkpt><trkpt lat="43.9078849752025" lon="12.55486205256148"><ele>155.25</ele><time>2026-05-04T06:33:12Z</time></trkpt><trkpt lat="43.90783557187513" lon="12.55469041257134"><ele>155.5</ele><time>2026-05-04T06:33:13Z</time></trkpt><trkpt lat="43.90779825057052" lon="12.554517362280528"><ele>155.75</ele><time>2026-05-04T06:33:14Z</time></trkpt><trkpt lat="43.907748522574806" lon="12.554338692146722"><ele>156.0</ele><time>2026-05-04T06:33:15Z</time></trkpt><trkpt lat="43.90771695419176" lon="12.55416405930052"><ele>156.25</ele><time>2026-05-04T06:33:16Z</time></trkpt><trkpt lat="43.90768289788555" lon="12.553988146418039"><ele>156.5</ele><time>2026-05-04T06:33:17Z</time></trkpt><trkpt lat="43.90764273712665" lon="12.553803734240862"><ele>156.75</ele><time>2026-05-04T06:33:18Z</time></trkpt><trkpt lat="43.907602752700086" lon="12.55362601808663"><ele>157.0</ele><time>2026-05-04T06:33:19Z</time></trkpt><trkpt lat="43.90756492627778" lon="12.553454147936367"><ele>157.75</ele><time>2026-05-04T06:33:20Z</time></trkpt><trkpt lat="43.907524096695205" lon="12.553285030753276"><ele>158.5</ele><time>2026-05-04T06:33:21Z</time></trkpt><trkpt lat="43.90747658468687" lon="12.553099278947842"><ele>159.25</ele><time>2026-05-04T06:33:22Z</time></trkpt><trkpt lat="43.907431190385" lon="12.552907505216451"><ele>160.0</ele><time>2026-05-04T06:33:23Z</time></trkpt><trkpt lat="43.90739379297224" lon="12.55274283942526"><ele>160.0</ele><time>2026-05-04T06:33:24Z</time></trkpt><trkpt lat="43.90736669450985" lon="12.552608582863114"><ele>160.0</ele><time>2026-05-04T06:33:25Z</time></trkpt><trkpt lat="43.90735270928013" lon="12.55250534526928"><ele>160.0</ele><time>2026-05-04T06:33:26Z</time></trkpt><trkpt lat="43.907327036601195" lon="12.552372072745149"><ele>160.0</ele><time>2026-05-04T06:33:28Z</time></trkpt><trkpt lat="43.907274938248655" lon="12.552300943761242"><ele>160.0</ele><time>2026-05-04T06:33:30Z</time></trkpt><trkpt lat="43.90715557864782" lon="12.552238031901007"><ele>160.0</ele><time>2026-05-04T06:33:32Z</time></trkpt><trkpt lat="43.907075686881065" lon="12.552212778299372"><ele>160.0</ele><time>2026-05-04T06:33:33Z</time></trkpt><trkpt lat="43.906980681430014" lon="12.552183077720965"><ele>160.0</ele><time>2026-05-04T06:33:34Z</time></trkpt><trkpt lat="43.906872320330265" lon="12.552157765078944"><ele>160.0</ele><time>2026-05-04T06:33:35Z</time></trkpt><trkpt lat="43.9067512044923" lon="12.552139057468533"><ele>160.0</ele><time>2026-05-04T06:33:36Z</time></trkpt><trkpt lat="43.90662031055733" lon="12.552130036615724"><ele>160.5</ele><time>2026-05-04T06:33:37Z</time></trkpt><trkpt lat="43.90649126050092" lon="12.552138846889344"><ele>161.0</ele><time>2026-05-04T06:33:38Z</time></trkpt><trkpt lat="43.9063642642841" lon="12.552162518155251"><ele>161.5</ele><time>2026-05-04T06:33:39Z</time></trkpt><trkpt lat="43.90623750843416" lon="12.552196674337322"><ele>162.0</ele><time>2026-05-04T06:33:40Z</time></trkpt><trkpt lat="43.90610486392645" lon="12.552238472309398"><ele>162.0</ele><time>2026-05-04T06:33:41Z</time></trkpt><trkpt lat="43.905977484820056" lon="12.552276276817615"><ele>162.0</ele><time>2026-05-04T06:33:42Z</time></trkpt><trkpt lat="43.90585609442076" lon="12.552310636010468"><ele>162.0</ele><time>2026-05-04T06:33:43Z</time></trkpt><trkpt lat="43.90573621173985" lon="12.552327344250456"><ele>162.0</ele><time>2026-05-04T06:33:44Z</time></trkpt><trkpt lat="43.90559981227339" lon="12.552318819370646"><ele>163.25</ele><time>2026-05-04T06:33:45Z</time></trkpt><trkpt lat="43.905461127706054" lon="12.55228859470112"><ele>164.5</ele><time>2026-05-04T06:33:46Z</time></trkpt><trkpt lat="43.90533738081038" lon="12.552248058967209"><ele>165.75</ele><time>2026-05-04T06:33:47Z</time></trkpt><trkpt lat="43.90521162352602" lon="12.55219943660897"><ele>167.0</ele><time>2026-05-04T06:33:48Z</time></trkpt><trkpt lat="43.905084304118105" lon="12.55215843824717"><ele>168.0</ele><time>2026-05-04T06:33:49Z</time></trkpt><trkpt lat="43.90497411997304" lon="12.552135754496256"><ele>169.0</ele><time>2026-05-04T06:33:50Z</time></trkpt><trkpt lat="43.904864805983685" lon="12.55213414496692"><ele>170.0</ele><time>2026-05-04T06:33:51Z</time></trkpt><trkpt lat="43.90476339573278" lon="12.552147574321735"><ele>171.0</ele><time>2026-05-04T06:33:52Z</time></trkpt><trkpt lat="43.90468752454104" lon="12.552164072306377"><ele>172.0</ele><time>2026-05-04T06:33:53Z</time></trkpt><trkpt lat="43.90456450449249" lon="12.552212390260777"><ele>172.0</ele><time>2026-05-04T06:33:55Z</time></trkpt><trkpt lat="43.90449090633438" lon="12.552261614705998"><ele>172.0</ele><time>2026-05-04T06:33:56Z</time></trkpt><trkpt lat="43.90441025961744" lon="12.552314025888752"><ele>172.0</ele><time>2026-05-04T06:33:57Z</time></trkpt><trkpt lat="43.90433850748315" lon="12.55235245230067"><ele>172.0</ele><time>2026-05-04T06:33:58Z</time></trkpt><trkpt lat="43.90427373544059" lon="12.552366683482797"><ele>172.0</ele><time>2026-05-04T06:33:59Z</time></trkpt><trkpt lat="43.90422033643798" lon="12.552317254496517"><ele>172.0</ele><time>2026-05-04T06:34:00Z</time></trkpt><trkpt lat="43.90417884803895" lon="12.552231043723388"><ele>173.8</ele><time>2026-05-04T06:34:01Z</time></trkpt><trkpt lat="43.90415729178779" lon="12.552130133632934"><ele>175.6</ele><time>2026-05-04T06:34:02Z</time></trkpt><trkpt lat="43.90413568568825" lon="12.55201207338628"><ele>177.4</ele><time>2026-05-04T06:34:03Z</time></trkpt><trkpt lat="43.90413482138951" lon="12.551881066327786"><ele>179.20000000000002</ele><time>2026-05-04T06:34:04Z</time></trkpt><trkpt lat="43.9041541452014" lon="12.551743769382394"><ele>181.0</ele><time>2026-05-04T06:34:05Z</time></trkpt><trkpt lat="43.90420126394477" lon="12.551610331109188"><ele>181.20000000000002</ele><time>2026-05-04T06:34:06Z</time></trkpt><trkpt lat="43.904266387275875" lon="12.551485192615331"><ele>181.4</ele><time>2026-05-04T06:34:07Z</time></trkpt><trkpt lat="43.90434140347304" lon="12.551357931916868"><ele>181.6</ele><time>2026-05-04T06:34:08Z</time></trkpt><trkpt lat="43.90441555116428" lon="12.551241988939456"><ele>181.8</ele><time>2026-05-04T06:34:09Z</time></trkpt><trkpt lat="43.9044689122458" lon="12.551158565176449"><ele>182.0</ele><time>2026-05-04T06:34:10Z</time></trkpt><trkpt lat="43.90450663526024" lon="12.551071943057671"><ele>182.0</ele><time>2026-05-04T06:34:11Z</time></trkpt><trkpt lat="43.904508584203505" lon="12.550965522394995"><ele>182.0</ele><time>2026-05-04T06:34:12Z</time></trkpt><trkpt lat="43.904488185220494" lon="12.550858233146883"><ele>182.0</ele><time>2026-05-04T06:34:13Z</time></trkpt><trkpt lat="43.90445493200355" lon="12.550770807817273"><ele>182.0</ele><time>2026-05-04T06:34:14Z</time></trkpt><trkpt lat="43.90439412173128" lon="12.550691771398013"><ele>182.0</ele><time>2026-05-04T06:34:16Z</time></trkpt><trkpt lat="43.90430182456177" lon="12.550649050661988"><ele>182.0</ele><time>2026-05-04T06:34:18Z</time></trkpt><trkpt lat="43.904241346510396" lon="12.550610588874626"><ele>183.5</ele><time>2026-05-04T06:34:19Z</time></trkpt><trkpt lat="43.904169383901" lon="12.550599816689642"><ele>185.0</ele><time>2026-05-04T06:34:20Z</time></trkpt><trkpt lat="43.904093236236605" lon="12.55058637519541"><ele>186.5</ele><time>2026-05-04T06:34:21Z</time></trkpt><trkpt lat="43.90400991492979" lon="12.550568268563001"><ele>188.0</ele><time>2026-05-04T06:34:22Z</time></trkpt><trkpt lat="43.90392678961979" lon="12.550553653725698"><ele>189.5</ele><time>2026-05-04T06:34:23Z</time></trkpt><trkpt lat="43.90382710117117" lon="12.550533977161024"><ele>191.0</ele><time>2026-05-04T06:34:24Z</time></trkpt><trkpt lat="43.90371319571999" lon="12.550520284213766"><ele>191.0</ele><time>2026-05-04T06:34:25Z</time></trkpt><trkpt lat="43.90360800244884" lon="12.550510374137001"><ele>191.0</ele><time>2026-05-04T06:34:26Z</time></trkpt><trkpt lat="43.90351013989008" lon="12.550508265557045"><ele>191.0</ele><time>2026-05-04T06:34:27Z</time></trkpt><trkpt lat="43.903407508040694" lon="12.550507753336426"><ele>191.0</ele><time>2026-05-04T06:34:28Z</time></trkpt><trkpt lat="43.903314901352125" lon="12.550516231632066"><ele>191.0</ele><time>2026-05-04T06:34:29Z</time></trkpt><trkpt lat="43.90322636518411" lon="12.55052584503192"><ele>193.8</ele><time>2026-05-04T06:34:30Z</time></trkpt><trkpt lat="43.90312989438891" lon="12.550533354744768"><ele>196.60000000000002</ele><time>2026-05-04T06:34:31Z</time></trkpt><trkpt lat="43.90304684127739" lon="12.550539383052959"><ele>199.4</ele><time>2026-05-04T06:34:32Z</time></trkpt><trkpt lat="43.90296280228059" lon="12.550543023697836"><ele>202.2</ele><time>2026-05-04T06:34:33Z</time></trkpt><trkpt lat="43.90287313716528" lon="12.550550557356365"><ele>205.0</ele><time>2026-05-04T06:34:34Z</time></trkpt><trkpt lat="43.90277498593468" lon="12.550560368367023"><ele>204.99999999999997</ele><time>2026-05-04T06:34:35Z</time></trkpt><trkpt lat="43.902700332258064" lon="12.550568311014157"><ele>205.0</ele><time>2026-05-04T06:34:36Z</time></trkpt><trkpt lat="43.90262046430946" lon="12.550580890834345"><ele>205.0</ele><time>2026-05-04T06:34:37Z</time></trkpt><trkpt lat="43.902549707852074" lon="12.550583315884266"><ele>205.0</ele><time>2026-05-04T06:34:38Z</time></trkpt><trkpt lat="43.90244072175011" lon="12.550595190527783"><ele>204.99999999999997</ele><time>2026-05-04T06:34:40Z</time></trkpt><trkpt lat="43.902363160175014" lon="12.55060707857161"><ele>205.0</ele><time>2026-05-04T06:34:42Z</time></trkpt><trkpt lat="43.902297697455104" lon="12.550615930936933"><ele>208.4</ele><time>2026-05-04T06:34:44Z</time></trkpt><trkpt lat="43.90221638395755" lon="12.550620608815958"><ele>211.8</ele><time>2026-05-04T06:34:47Z</time></trkpt><trkpt lat="43.90216629261639" lon="12.550524264495916"><ele>215.2</ele><time>2026-05-04T06:34:50Z</time></trkpt><trkpt lat="43.90206541476125" lon="12.550436645318072"><ele>218.6</ele><time>2026-05-04T06:34:53Z</time></trkpt><trkpt lat="43.90196969426377" lon="12.550385904934137"><ele>222.0</ele><time>2026-05-04T06:34:55Z</time></trkpt><trkpt lat="43.90188661363676" lon="12.550321022962727"><ele>222.0</ele><time>2026-05-04T06:34:57Z</time></trkpt><trkpt lat="43.901808729200155" lon="12.550237368863282"><ele>222.0</ele><time>2026-05-04T06:34:59Z</time></trkpt><trkpt lat="43.90171182568698" lon="12.550136070373545"><ele>222.0</ele><time>2026-05-04T06:35:01Z</time></trkpt><trkpt lat="43.90165525251434" lon="12.550086356071377"><ele>222.0</ele><time>2026-05-04T06:35:02Z</time></trkpt><trkpt lat="43.901592682159006" lon="12.55003107626332"><ele>222.0</ele><time>2026-05-04T06:35:03Z</time></trkpt><trkpt lat="43.90152370286976" lon="12.549971315175428"><ele>222.0</ele><time>2026-05-04T06:35:04Z</time></trkpt><trkpt lat="43.90145911963255" lon="12.549913500219114"><ele>224.85714285714283</ele><time>2026-05-04T06:35:05Z</time></trkpt><trkpt lat="43.901403380825116" lon="12.549861219502965"><ele>227.71428571428572</ele><time>2026-05-04T06:35:06Z</time></trkpt><trkpt lat="43.90133537947526" lon="12.549808752405434"><ele>230.57142857142856</ele><time>2026-05-04T06:35:07Z</time></trkpt><trkpt lat="43.90126805974847" lon="12.549759516298984"><ele>233.42857142857142</ele><time>2026-05-04T06:35:08Z</time></trkpt><trkpt lat="43.90120331566292" lon="12.549717245471996"><ele>236.28571428571428</ele><time>2026-05-04T06:35:09Z</time></trkpt><trkpt lat="43.90114223218003" lon="12.549680917938778"><ele>239.14285714285714</ele><time>2026-05-04T06:35:10Z</time></trkpt><trkpt lat="43.901075564001076" lon="12.549643727331944"><ele>242.0</ele><time>2026-05-04T06:35:11Z</time></trkpt><trkpt lat="43.901013424432456" lon="12.549608803755648"><ele>242.0</ele><time>2026-05-04T06:35:12Z</time></trkpt><trkpt lat="43.90094650869871" lon="12.549567602239533"><ele>242.0</ele><time>2026-05-04T06:35:13Z</time></trkpt><trkpt lat="43.9008777846758" lon="12.549528252317447"><ele>242.0</ele><time>2026-05-04T06:35:14Z</time></trkpt><trkpt lat="43.90076775321553" lon="12.549498732981602"><ele>242.0</ele><time>2026-05-04T06:35:16Z</time></trkpt><trkpt lat="43.90062835406699" lon="12.549521768283944"><ele>242.0</ele><time>2026-05-04T06:35:18Z</time></trkpt><trkpt lat="43.90053330191198" lon="12.549522542180442"><ele>244.50000000000003</ele><time>2026-05-04T06:35:19Z</time></trkpt><trkpt lat="43.90045561761413" lon="12.549510276960223"><ele>247.0</ele><time>2026-05-04T06:35:20Z</time></trkpt><trkpt lat="43.90038303646652" lon="12.54950674675295"><ele>249.5</ele><time>2026-05-04T06:35:21Z</time></trkpt><trkpt lat="43.90030636710875" lon="12.549504809836186"><ele>252.0</ele><time>2026-05-04T06:35:22Z</time></trkpt><trkpt lat="43.90023318737747" lon="12.549498166680682"><ele>254.50000000000003</ele><time>2026-05-04T06:35:23Z</time></trkpt><trkpt lat="43.900165782974256" lon="12.549500408115042"><ele>257.0</ele><time>2026-05-04T06:35:24Z</time></trkpt><trkpt lat="43.90008315615221" lon="12.549510850661616"><ele>257.5</ele><time>2026-05-04T06:35:25Z</time></trkpt><trkpt lat="43.90000691593557" lon="12.549510831342818"><ele>258.0</ele><time>2026-05-04T06:35:26Z</time></trkpt><trkpt lat="43.899923621058136" lon="12.549499832843106"><ele>258.5</ele><time>2026-05-04T06:35:27Z</time></trkpt><trkpt lat="43.899840999650664" lon="12.549481768573667"><ele>259.0</ele><time>2026-05-04T06:35:28Z</time></trkpt><trkpt lat="43.899761878426155" lon="12.549460326124747"><ele>259.5</ele><time>2026-05-04T06:35:29Z</time></trkpt><trkpt lat="43.89968351921388" lon="12.549441788213425"><ele>260.0</ele><time>2026-05-04T06:35:30Z</time></trkpt><trkpt lat="43.89961010597148" lon="12.549405722852221"><ele>260.0</ele><time>2026-05-04T06:35:31Z</time></trkpt><trkpt lat="43.899538597794226" lon="12.54936886863157"><ele>260.0</ele><time>2026-05-04T06:35:32Z</time></trkpt><trkpt lat="43.89941935174214" lon="12.549298644651754"><ele>260.0</ele><time>2026-05-04T06:35:34Z</time></trkpt><trkpt lat="43.89934270200528" lon="12.54926619704318"><ele>260.0</ele><time>2026-05-04T06:35:35Z</time></trkpt><trkpt lat="43.89926832041843" lon="12.549239523794085"><ele>260.0</ele><time>2026-05-04T06:35:36Z</time></trkpt><trkpt lat="43.89918297199639" lon="12.549216884906214"><ele>261.33333333333337</ele><time>2026-05-04T06:35:37Z</time></trkpt><trkpt lat="43.899096273372315" lon="12.549190416324729"><ele>262.6666666666667</ele><time>2026-05-04T06:35:38Z</time></trkpt><trkpt lat="43.89903124221408" lon="12.549169830471367"><ele>264.0</ele><time>2026-05-04T06:35:39Z</time></trkpt><trkpt lat="43.89895648535886" lon="12.549140176858922"><ele>265.3333333333333</ele><time>2026-05-04T06:35:40Z</time></trkpt><trkpt lat="43.898881032878286" lon="12.549105744045852"><ele>266.66666666666663</ele><time>2026-05-04T06:35:41Z</time></trkpt><trkpt lat="43.898805873789144" lon="12.549072466960071"><ele>268.0</ele><time>2026-05-04T06:35:42Z</time></trkpt><trkpt lat="43.89873783587995" lon="12.549033708661852"><ele>268.0</ele><time>2026-05-04T06:35:43Z</time></trkpt><trkpt lat="43.89866659450034" lon="12.549004237815804"><ele>268.0</ele><time>2026-05-04T06:35:44Z</time></trkpt><trkpt lat="43.898587398827274" lon="12.548975752686696"><ele>268.0</ele><time>2026-05-04T06:35:45Z</time></trkpt><trkpt lat="43.89850753566598" lon="12.548948845016152"><ele>268.0</ele><time>2026-05-04T06:35:46Z</time></trkpt><trkpt lat="43.89842536051892" lon="12.548919055390469"><ele>268.0</ele><time>2026-05-04T06:35:47Z</time></trkpt><trkpt lat="43.898338534881" lon="12.548892776250591"><ele>268.0</ele><time>2026-05-04T06:35:48Z</time></trkpt><trkpt lat="43.89825257087854" lon="12.548866422181161"><ele>269.66666666666663</ele><time>2026-05-04T06:35:49Z</time></trkpt><trkpt lat="43.89817734745198" lon="12.548851097471902"><ele>271.3333333333333</ele><time>2026-05-04T06:35:50Z</time></trkpt><trkpt lat="43.89810075211566" lon="12.548843019257822"><ele>273.0</ele><time>2026-05-04T06:35:51Z</time></trkpt><trkpt lat="43.89802719884743" lon="12.548832788505724"><ele>274.6666666666667</ele><time>2026-05-04T06:35:52Z</time></trkpt><trkpt lat="43.89794955792424" lon="12.548812116326145"><ele>276.33333333333337</ele><time>2026-05-04T06:35:53Z</time></trkpt><trkpt lat="43.8978675252672" lon="12.548777470908023"><ele>278.0</ele><time>2026-05-04T06:35:54Z</time></trkpt><trkpt lat="43.89778700141019" lon="12.54872234927034"><ele>279.5</ele><time>2026-05-04T06:35:55Z</time></trkpt><trkpt lat="43.8977211657307" lon="12.548654766964685"><ele>281.0</ele><time>2026-05-04T06:35:56Z</time></trkpt><trkpt lat="43.89765729746822" lon="12.548576718447494"><ele>282.5</ele><time>2026-05-04T06:35:57Z</time></trkpt><trkpt lat="43.89759341672707" lon="12.54850304726823"><ele>284.0</ele><time>2026-05-04T06:35:58Z</time></trkpt><trkpt lat="43.89752412573988" lon="12.54841815889027"><ele>285.5</ele><time>2026-05-04T06:35:59Z</time></trkpt><trkpt lat="43.89745231774441" lon="12.548331085957692"><ele>287.0</ele><time>2026-05-04T06:36:00Z</time></trkpt><trkpt lat="43.89737992334598" lon="12.548253219881996"><ele>287.0</ele><time>2026-05-04T06:36:01Z</time></trkpt><trkpt lat="43.89730240048337" lon="12.54817452836601"><ele>287.0</ele><time>2026-05-04T06:36:02Z</time></trkpt><trkpt lat="43.89723783348053" lon="12.54810271656979"><ele>287.0</ele><time>2026-05-04T06:36:03Z</time></trkpt><trkpt lat="43.89716572311874" lon="12.548023308154601"><ele>287.0</ele><time>2026-05-04T06:36:04Z</time></trkpt><trkpt lat="43.89710389618009" lon="12.547947151225197"><ele>287.0</ele><time>2026-05-04T06:36:05Z</time></trkpt><trkpt lat="43.89703776087455" lon="12.5478667202416"><ele>287.0</ele><time>2026-05-04T06:36:06Z</time></trkpt><trkpt lat="43.896932856037" lon="12.547723415367518"><ele>287.2</ele><time>2026-05-04T06:36:08Z</time></trkpt><trkpt lat="43.896865718035585" lon="12.547638919379729"><ele>287.4</ele><time>2026-05-04T06:36:09Z</time></trkpt><trkpt lat="43.89680938964265" lon="12.547569889663102"><ele>287.6</ele><time>2026-05-04T06:36:10Z</time></trkpt><trkpt lat="43.89675108254464" lon="12.547513204806211"><ele>287.8</ele><time>2026-05-04T06:36:11Z</time></trkpt><trkpt lat="43.89663887540231" lon="12.54740352175827"><ele>288.0</ele><time>2026-05-04T06:36:13Z</time></trkpt><trkpt lat="43.896578216792555" lon="12.547337988006424"><ele>291.8</ele><time>2026-05-04T06:36:14Z</time></trkpt><trkpt lat="43.896525032214456" lon="12.547277434522378"><ele>295.6</ele><time>2026-05-04T06:36:15Z</time></trkpt><trkpt lat="43.89646092336843" lon="12.547215216087322"><ele>299.4</ele><time>2026-05-04T06:36:16Z</time></trkpt><trkpt lat="43.896398773026874" lon="12.547155345171383"><ele>303.2</ele><time>2026-05-04T06:36:17Z</time></trkpt><trkpt lat="43.89627753480373" lon="12.547037566501281"><ele>307.0</ele><time>2026-05-04T06:36:19Z</time></trkpt><trkpt lat="43.89617526618474" lon="12.546956693989944"><ele>307.0</ele><time>2026-05-04T06:36:21Z</time></trkpt><trkpt lat="43.89611281163438" lon="12.546909723493169"><ele>307.0</ele><time>2026-05-04T06:36:22Z</time></trkpt><trkpt lat="43.89604778283818" lon="12.546864152112837"><ele>307.0</ele><time>2026-05-04T06:36:23Z</time></trkpt><trkpt lat="43.895986901890524" lon="12.546827645323281"><ele>307.0</ele><time>2026-05-04T06:36:24Z</time></trkpt><trkpt lat="43.89592571605036" lon="12.546792747368958"><ele>307.0</ele><time>2026-05-04T06:36:25Z</time></trkpt><trkpt lat="43.89581362245642" lon="12.546736266957337"><ele>307.0</ele><time>2026-05-04T06:36:27Z</time></trkpt><trkpt lat="43.89569827122004" lon="12.546722361722031"><ele>307.66666666666663</ele><time>2026-05-04T06:36:29Z</time></trkpt><trkpt lat="43.8956322761234" lon="12.546718786586464"><ele>308.3333333333333</ele><time>2026-05-04T06:36:30Z</time></trkpt><trkpt lat="43.89551979802825" lon="12.546722762770278"><ele>309.0</ele><time>2026-05-04T06:36:32Z</time></trkpt><trkpt lat="43.89544344242413" lon="12.546711939653154"><ele>309.6666666666667</ele><time>2026-05-04T06:36:33Z</time></trkpt><trkpt lat="43.895372496402466" lon="12.546712698450662"><ele>310.33333333333337</ele><time>2026-05-04T06:36:34Z</time></trkpt><trkpt lat="43.8953076793694" lon="12.546722696149356"><ele>311.0</ele><time>2026-05-04T06:36:35Z</time></trkpt><trkpt lat="43.89520712605786" lon="12.546654398492572"><ele>311.0</ele><time>2026-05-04T06:36:37Z</time></trkpt><trkpt lat="43.89513205207241" lon="12.546522023704208"><ele>311.0</ele><time>2026-05-04T06:36:39Z</time></trkpt><trkpt lat="43.89509607767133" lon="12.546430241808078"><ele>311.0</ele><time>2026-05-04T06:36:41Z</time></trkpt><trkpt lat="43.895048398592664" lon="12.54637035243998"><ele>311.0</ele><time>2026-05-04T06:36:43Z</time></trkpt><trkpt lat="43.8949872141943" lon="12.546310247286915"><ele>311.0</ele><time>2026-05-04T06:36:45Z</time></trkpt><trkpt lat="43.894906051428066" lon="12.54623003070271"><ele>311.0</ele><time>2026-05-04T06:36:47Z</time></trkpt><trkpt lat="43.894825240096" lon="12.546177223209419"><ele>311.6</ele><time>2026-05-04T06:36:49Z</time></trkpt><trkpt lat="43.894713933821045" lon="12.54616817793154"><ele>312.20000000000005</ele><time>2026-05-04T06:36:51Z</time></trkpt><trkpt lat="43.89463937399713" lon="12.54616611638498"><ele>312.79999999999995</ele><time>2026-05-04T06:36:52Z</time></trkpt><trkpt lat="43.89457645158261" lon="12.546172830091143"><ele>313.4</ele><time>2026-05-04T06:36:53Z</time></trkpt><trkpt lat="43.89450169080519" lon="12.546193886115653"><ele>314.0</ele><time>2026-05-04T06:36:54Z</time></trkpt><trkpt lat="43.89437964261604" lon="12.546253862792637"><ele>316.6666666666667</ele><time>2026-05-04T06:36:56Z</time></trkpt><trkpt lat="43.89425332901978" lon="12.5463058495499"><ele>319.33333333333337</ele><time>2026-05-04T06:36:58Z</time></trkpt><trkpt lat="43.89417994015338" lon="12.546321088641903"><ele>322.0</ele><time>2026-05-04T06:36:59Z</time></trkpt><trkpt lat="43.89411546869749" lon="12.546346472912244"><ele>324.6666666666667</ele><time>2026-05-04T06:37:00Z</time></trkpt><trkpt lat="43.89403012093886" lon="12.546397695817575"><ele>327.3333333333333</ele><time>2026-05-04T06:37:02Z</time></trkpt><trkpt lat="43.89396508561721" lon="12.546375565037222"><ele>330.0</ele><time>2026-05-04T06:37:16Z</time></trkpt><trkpt lat="43.8938778339151" lon="12.546313603713266"><ele>330.00000000000006</ele><time>2026-05-04T06:37:18Z</time></trkpt><trkpt lat="43.89381943052144" lon="12.546274750612348"><ele>330.0</ele><time>2026-05-04T06:37:19Z</time></trkpt><trkpt lat="43.89375962989381" lon="12.546231819200834"><ele>330.0</ele><time>2026-05-04T06:37:20Z</time></trkpt><trkpt lat="43.893691078766636" lon="12.546212961313241"><ele>330.0</ele><time>2026-05-04T06:37:21Z</time></trkpt><trkpt lat="43.89362233482479" lon="12.546199977326337"><ele>330.0</ele><time>2026-05-04T06:37:22Z</time></trkpt><trkpt lat="43.8935432193589" lon="12.546183623334452"><ele>330.00000000000006</ele><time>2026-05-04T06:37:23Z</time></trkpt><trkpt lat="43.89346293054272" lon="12.546173006955131"><ele>330.0</ele><time>2026-05-04T06:37:24Z</time></trkpt><trkpt lat="43.89337418435741" lon="12.546166368598247"><ele>329.2</ele><time>2026-05-04T06:37:25Z</time></trkpt><trkpt lat="43.89327854796208" lon="12.546158329118324"><ele>328.4</ele><time>2026-05-04T06:37:26Z</time></trkpt><trkpt lat="43.893175161754705" lon="12.546147102886755"><ele>327.6</ele><time>2026-05-04T06:37:27Z</time></trkpt><trkpt lat="43.89306754732847" lon="12.54613517833518"><ele>326.8</ele><time>2026-05-04T06:37:28Z</time></trkpt><trkpt lat="43.892962677431406" lon="12.546125182862076"><ele>326.0</ele><time>2026-05-04T06:37:29Z</time></trkpt><trkpt lat="43.892864563639" lon="12.546120081457724"><ele>326.0</ele><time>2026-05-04T06:37:30Z</time></trkpt><trkpt lat="43.89276191943963" lon="12.546098598097645"><ele>326.0</ele><time>2026-05-04T06:37:31Z</time></trkpt><trkpt lat="43.89265872583926" lon="12.546062031661451"><ele>326.0</ele><time>2026-05-04T06:37:32Z</time></trkpt><trkpt lat="43.892560504138345" lon="12.546009640771027"><ele>326.0</ele><time>2026-05-04T06:37:33Z</time></trkpt><trkpt lat="43.892460403057456" lon="12.545958610047107"><ele>326.0</ele><time>2026-05-04T06:37:34Z</time></trkpt><trkpt lat="43.89237372586645" lon="12.545912262678527"><ele>326.20000000000005</ele><time>2026-05-04T06:37:35Z</time></trkpt><trkpt lat="43.892294703508085" lon="12.545863563108078"><ele>326.40000000000003</ele><time>2026-05-04T06:37:36Z</time></trkpt><trkpt lat="43.892207921762754" lon="12.545798298649089"><ele>326.6</ele><time>2026-05-04T06:37:38Z</time></trkpt><trkpt lat="43.89210598038204" lon="12.545732875769149"><ele>326.8</ele><time>2026-05-04T06:39:22Z</time></trkpt><trkpt lat="43.89200082882809" lon="12.5456827392483"><ele>327.0</ele><time>2026-05-04T06:39:24Z</time></trkpt><trkpt lat="43.891884046743556" lon="12.545599719696396"><ele>327.0</ele><time>2026-05-04T06:39:26Z</time></trkpt><trkpt lat="43.891823861894146" lon="12.545543379557408"><ele>327.0</ele><time>2026-05-04T06:39:27Z</time></trkpt><trkpt lat="43.89176069282462" lon="12.545470425787943"><ele>327.0</ele><time>2026-05-04T06:39:28Z</time></trkpt><trkpt lat="43.89170114108545" lon="12.545390914586731"><ele>327.0</ele><time>2026-05-04T06:39:29Z</time></trkpt><trkpt lat="43.89164629026097" lon="12.545313976884879"><ele>327.0</ele><time>2026-05-04T06:39:30Z</time></trkpt><trkpt lat="43.8915993054035" lon="12.54522804858519"><ele>327.0</ele><time>2026-05-04T06:39:31Z</time></trkpt><trkpt lat="43.891551099918246" lon="12.545124970258403"><ele>326.3333333333333</ele><time>2026-05-04T06:39:32Z</time></trkpt><trkpt lat="43.8915066348651" lon="12.545026513202734"><ele>325.6666666666667</ele><time>2026-05-04T06:39:33Z</time></trkpt><trkpt lat="43.89147670692139" lon="12.544934189553032"><ele>325.0</ele><time>2026-05-04T06:39:34Z</time></trkpt><trkpt lat="43.891444638568245" lon="12.544834186302534"><ele>324.33333333333337</ele><time>2026-05-04T06:39:35Z</time></trkpt><trkpt lat="43.89141672404807" lon="12.544740186130431"><ele>323.6666666666667</ele><time>2026-05-04T06:39:36Z</time></trkpt><trkpt lat="43.89138084922885" lon="12.544632703623101"><ele>323.0</ele><time>2026-05-04T06:39:37Z</time></trkpt><trkpt lat="43.89135288892793" lon="12.54453935743205"><ele>321.5</ele><time>2026-05-04T06:39:38Z</time></trkpt><trkpt lat="43.89132514728404" lon="12.544448324198921"><ele>320.0</ele><time>2026-05-04T06:39:39Z</time></trkpt><trkpt lat="43.891282548789334" lon="12.544354284052996"><ele>318.5</ele><time>2026-05-04T06:39:40Z</time></trkpt><trkpt lat="43.89123223396492" lon="12.544275808261238"><ele>317.0</ele><time>2026-05-04T06:39:41Z</time></trkpt><trkpt lat="43.89117505651803" lon="12.544200025825463"><ele>315.5</ele><time>2026-05-04T06:39:42Z</time></trkpt><trkpt lat="43.8911068445637" lon="12.544129510468517"><ele>314.0</ele><time>2026-05-04T06:39:43Z</time></trkpt><trkpt lat="43.891045257979115" lon="12.54408135692265"><ele>314.0</ele><time>2026-05-04T06:39:44Z</time></trkpt><trkpt lat="43.89096839886492" lon="12.544015831037798"><ele>314.0</ele><time>2026-05-04T06:39:45Z</time></trkpt><trkpt lat="43.89089596857573" lon="12.54395281802602"><ele>314.0</ele><time>2026-05-04T06:39:46Z</time></trkpt><trkpt lat="43.89081941815307" lon="12.543879583057185"><ele>314.0</ele><time>2026-05-04T06:39:47Z</time></trkpt><trkpt lat="43.89075325524951" lon="12.543813848860282"><ele>314.0</ele><time>2026-05-04T06:39:48Z</time></trkpt><trkpt lat="43.89068126667024" lon="12.543738667753662"><ele>314.0</ele><time>2026-05-04T06:39:49Z</time></trkpt><trkpt lat="43.89061289339078" lon="12.543668282371174"><ele>312.0</ele><time>2026-05-04T06:39:50Z</time></trkpt><trkpt lat="43.890531651796834" lon="12.5436064751583"><ele>310.0</ele><time>2026-05-04T06:39:51Z</time></trkpt><trkpt lat="43.890463646756345" lon="12.543565029060987"><ele>308.0</ele><time>2026-05-04T06:39:52Z</time></trkpt><trkpt lat="43.890386304867405" lon="12.54354214568924"><ele>306.0</ele><time>2026-05-04T06:39:53Z</time></trkpt><trkpt lat="43.890309768068555" lon="12.54353180492761"><ele>304.0</ele><time>2026-05-04T06:39:54Z</time></trkpt><trkpt lat="43.89021597158789" lon="12.543524223686871"><ele>302.0</ele><time>2026-05-04T06:39:55Z</time></trkpt><trkpt lat="43.89011570217007" lon="12.543521499051609"><ele>302.0</ele><time>2026-05-04T06:39:56Z</time></trkpt><trkpt lat="43.8900476292644" lon="12.543524447666252"><ele>302.0</ele><time>2026-05-04T06:39:57Z</time></trkpt><trkpt lat="43.88996272438387" lon="12.543522724536084"><ele>302.0</ele><time>2026-05-04T06:39:58Z</time></trkpt><trkpt lat="43.889864739426386" lon="12.543518143524675"><ele>302.0</ele><time>2026-05-04T06:39:59Z</time></trkpt><trkpt lat="43.88977927351977" lon="12.543518760005812"><ele>302.0</ele><time>2026-05-04T06:40:00Z</time></trkpt><trkpt lat="43.88968502973879" lon="12.543513814223205"><ele>302.0</ele><time>2026-05-04T06:40:01Z</time></trkpt><trkpt lat="43.8895933074144" lon="12.543503957186998"><ele>302.0</ele><time>2026-05-04T06:40:02Z</time></trkpt><trkpt lat="43.889509282085776" lon="12.543481063626274"><ele>302.0</ele><time>2026-05-04T06:40:03Z</time></trkpt><trkpt lat="43.88943163773991" lon="12.543460658461353"><ele>302.0</ele><time>2026-05-04T06:40:04Z</time></trkpt><trkpt lat="43.88935177401368" lon="12.543440923978162"><ele>302.0</ele><time>2026-05-04T06:40:06Z</time></trkpt><trkpt lat="43.88925664173585" lon="12.543413791889698"><ele>302.0</ele><time>2026-05-04T06:40:10Z</time></trkpt><trkpt lat="43.889161435196144" lon="12.543371387122749"><ele>302.0</ele><time>2026-05-04T06:40:12Z</time></trkpt><trkpt lat="43.88905833558832" lon="12.543294993991807"><ele>301.0</ele><time>2026-05-04T06:40:14Z</time></trkpt><trkpt lat="43.88899710306146" lon="12.543137946368498"><ele>300.0</ele><time>2026-05-04T06:40:16Z</time></trkpt><trkpt lat="43.88898646768452" lon="12.543039551477094"><ele>299.0</ele><time>2026-05-04T06:40:17Z</time></trkpt><trkpt lat="43.88890363443479" lon="12.54290918167888"><ele>298.0</ele><time>2026-05-04T06:40:19Z</time></trkpt><trkpt lat="43.88882676289132" lon="12.542854423286363"><ele>297.0</ele><time>2026-05-04T06:40:20Z</time></trkpt><trkpt lat="43.888738377850025" lon="12.542801657820458"><ele>296.0</ele><time>2026-05-04T06:40:21Z</time></trkpt><trkpt lat="43.88864409916637" lon="12.542743545251145"><ele>295.0</ele><time>2026-05-04T06:40:22Z</time></trkpt><trkpt lat="43.88855148061848" lon="12.542685839508758"><ele>294.0</ele><time>2026-05-04T06:40:23Z</time></trkpt><trkpt lat="43.888447568953794" lon="12.542644185342354"><ele>293.0</ele><time>2026-05-04T06:40:24Z</time></trkpt><trkpt lat="43.888344066965665" lon="12.542617754931593"><ele>292.0</ele><time>2026-05-04T06:40:25Z</time></trkpt><trkpt lat="43.88823626768957" lon="12.542579928189374"><ele>294.4</ele><time>2026-05-04T06:40:26Z</time></trkpt><trkpt lat="43.88813422723681" lon="12.542528494299086"><ele>296.79999999999995</ele><time>2026-05-04T06:40:27Z</time></trkpt><trkpt lat="43.888051455237736" lon="12.54250172171963"><ele>299.2</ele><time>2026-05-04T06:40:28Z</time></trkpt><trkpt lat="43.887968378499004" lon="12.542487302504165"><ele>301.59999999999997</ele><time>2026-05-04T06:40:29Z</time></trkpt><trkpt lat="43.887861483913646" lon="12.54248611509361"><ele>304.0</ele><time>2026-05-04T06:40:31Z</time></trkpt><trkpt lat="43.88774504751901" lon="12.542448510784055"><ele>304.0</ele><time>2026-05-04T06:40:33Z</time></trkpt><trkpt lat="43.88762895087806" lon="12.542418069563961"><ele>304.0</ele><time>2026-05-04T06:40:35Z</time></trkpt><trkpt lat="43.88756602335521" lon="12.542395884891075"><ele>304.0</ele><time>2026-05-04T06:40:36Z</time></trkpt><trkpt lat="43.887446830500465" lon="12.542351980704279"><ele>304.0</ele><time>2026-05-04T06:40:38Z</time></trkpt><trkpt lat="43.887387466515214" lon="12.542305728543932"><ele>304.0</ele><time>2026-05-04T06:40:39Z</time></trkpt><trkpt lat="43.887335602846036" lon="12.542233298863046"><ele>304.0</ele><time>2026-05-04T06:40:40Z</time></trkpt><trkpt lat="43.8872925056756" lon="12.542146175080301"><ele>303.57142857142856</ele><time>2026-05-04T06:40:41Z</time></trkpt><trkpt lat="43.8872499700014" lon="12.54205615216713"><ele>303.14285714285717</ele><time>2026-05-04T06:40:42Z</time></trkpt><trkpt lat="43.887194709250615" lon="12.541979684600571"><ele>302.7142857142857</ele><time>2026-05-04T06:40:43Z</time></trkpt><trkpt lat="43.88713002320921" lon="12.541917726914159"><ele>302.2857142857143</ele><time>2026-05-04T06:40:44Z</time></trkpt><trkpt lat="43.8870691220476" lon="12.54186204148199"><ele>301.8571428571429</ele><time>2026-05-04T06:40:45Z</time></trkpt><trkpt lat="43.88701118992731" lon="12.541806672127176"><ele>301.42857142857144</ele><time>2026-05-04T06:40:46Z</time></trkpt><trkpt lat="43.886951349419796" lon="12.541755779240331"><ele>301.0</ele><time>2026-05-04T06:40:47Z</time></trkpt><trkpt lat="43.88689488693935" lon="12.541698682614404"><ele>301.0</ele><time>2026-05-04T06:40:48Z</time></trkpt><trkpt lat="43.8868469814883" lon="12.541631282459706"><ele>301.0</ele><time>2026-05-04T06:40:49Z</time></trkpt><trkpt lat="43.886807577086245" lon="12.541538836635096"><ele>301.0</ele><time>2026-05-04T06:40:50Z</time></trkpt><trkpt lat="43.88676942267922" lon="12.541447254821689"><ele>301.0</ele><time>2026-05-04T06:40:51Z</time></trkpt><trkpt lat="43.886726010260794" lon="12.541330096667329"><ele>301.0</ele><time>2026-05-04T06:40:52Z</time></trkpt><trkpt lat="43.88668909136161" lon="12.541217658766096"><ele>301.0</ele><time>2026-05-04T06:40:53Z</time></trkpt><trkpt lat="43.88664339304295" lon="12.54109584226861"><ele>298.0</ele><time>2026-05-04T06:40:54Z</time></trkpt><trkpt lat="43.88658800174441" lon="12.541005968165166"><ele>295.0</ele><time>2026-05-04T06:40:55Z</time></trkpt><trkpt lat="43.88652514341464" lon="12.54091547201271"><ele>292.0</ele><time>2026-05-04T06:40:56Z</time></trkpt><trkpt lat="43.886452174542605" lon="12.540818349827951"><ele>289.0</ele><time>2026-05-04T06:40:57Z</time></trkpt><trkpt lat="43.88638945476954" lon="12.540736801428622"><ele>286.0</ele><time>2026-05-04T06:40:58Z</time></trkpt><trkpt lat="43.88632536841161" lon="12.540652469849935"><ele>286.0</ele><time>2026-05-04T06:40:59Z</time></trkpt><trkpt lat="43.886263271530055" lon="12.540565665875224"><ele>286.0</ele><time>2026-05-04T06:41:00Z</time></trkpt><trkpt lat="43.88620697815205" lon="12.54046215533747"><ele>286.0</ele><time>2026-05-04T06:41:01Z</time></trkpt><trkpt lat="43.88614245303128" lon="12.540334379770975"><ele>286.0</ele><time>2026-05-04T06:41:02Z</time></trkpt><trkpt lat="43.88607127392438" lon="12.540189856571205"><ele>286.0</ele><time>2026-05-04T06:41:03Z</time></trkpt><trkpt lat="43.88600898003671" lon="12.540071802052728"><ele>285.2</ele><time>2026-05-04T06:41:04Z</time></trkpt><trkpt lat="43.885951329148966" lon="12.53998220767587"><ele>284.40000000000003</ele><time>2026-05-04T06:41:05Z</time></trkpt><trkpt lat="43.88587184640725" lon="12.539896461183627"><ele>283.6</ele><time>2026-05-04T06:41:06Z</time></trkpt><trkpt lat="43.885776270672935" lon="12.539821533028933"><ele>282.8</ele><time>2026-05-04T06:41:07Z</time></trkpt><trkpt lat="43.88567298699939" lon="12.539752522587346"><ele>282.0</ele><time>2026-05-04T06:41:08Z</time></trkpt><trkpt lat="43.8855682509748" lon="12.539691686844716"><ele>282.0</ele><time>2026-05-04T06:41:09Z</time></trkpt><trkpt lat="43.88546208415874" lon="12.539639095485109"><ele>282.0</ele><time>2026-05-04T06:41:10Z</time></trkpt><trkpt lat="43.885357261635754" lon="12.539590082371593"><ele>282.0</ele><time>2026-05-04T06:41:11Z</time></trkpt><trkpt lat="43.88525333172567" lon="12.539543625307678"><ele>282.0</ele><time>2026-05-04T06:41:12Z</time></trkpt><trkpt lat="43.885151023944864" lon="12.53949211607711"><ele>282.0</ele><time>2026-05-04T06:41:13Z</time></trkpt><trkpt lat="43.88504249693288" lon="12.539436324910351"><ele>281.6</ele><time>2026-05-04T06:41:14Z</time></trkpt><trkpt lat="43.884925945628325" lon="12.539382104510144"><ele>281.2</ele><time>2026-05-04T06:41:15Z</time></trkpt><trkpt lat="43.8848176684144" lon="12.53932086705604"><ele>280.8</ele><time>2026-05-04T06:41:16Z</time></trkpt><trkpt lat="43.88473367075817" lon="12.539266752237463"><ele>280.4</ele><time>2026-05-04T06:41:17Z</time></trkpt><trkpt lat="43.884657097017396" lon="12.539225755117092"><ele>280.0</ele><time>2026-05-04T06:41:18Z</time></trkpt><trkpt lat="43.88454891607349" lon="12.539175438059921"><ele>280.0</ele><time>2026-05-04T06:41:20Z</time></trkpt><trkpt lat="43.884521383804994" lon="12.539057279610034"><ele>280.0</ele><time>2026-05-04T06:41:22Z</time></trkpt><trkpt lat="43.884535780187896" lon="12.538956984905509"><ele>280.0</ele><time>2026-05-04T06:41:23Z</time></trkpt><trkpt lat="43.8845540314572" lon="12.538861715281376"><ele>280.0</ele><time>2026-05-04T06:41:24Z</time></trkpt><trkpt lat="43.88457675279928" lon="12.53876574129204"><ele>280.0</ele><time>2026-05-04T06:41:25Z</time></trkpt><trkpt lat="43.88458871391364" lon="12.538666718012148"><ele>280.0</ele><time>2026-05-04T06:41:26Z</time></trkpt><trkpt lat="43.88459042597699" lon="12.53857784025979"><ele>280.0</ele><time>2026-05-04T06:41:27Z</time></trkpt><trkpt lat="43.8845782611311" lon="12.538444933018718"><ele>278.16666666666663</ele><time>2026-05-04T06:41:29Z</time></trkpt><trkpt lat="43.884583116877266" lon="12.53834707791205"><ele>276.3333333333333</ele><time>2026-05-04T06:41:30Z</time></trkpt><trkpt lat="43.884601273754186" lon="12.53824002955627"><ele>274.5</ele><time>2026-05-04T06:41:31Z</time></trkpt><trkpt lat="43.88462283228708" lon="12.538123507216376"><ele>272.6666666666667</ele><time>2026-05-04T06:41:32Z</time></trkpt><trkpt lat="43.88462794687904" lon="12.538010809644868"><ele>270.83333333333337</ele><time>2026-05-04T06:41:33Z</time></trkpt><trkpt lat="43.88462611288609" lon="12.537895954334855"><ele>269.0</ele><time>2026-05-04T06:41:34Z</time></trkpt><trkpt lat="43.88460545793238" lon="12.537779381019229"><ele>268.0</ele><time>2026-05-04T06:41:35Z</time></trkpt><trkpt lat="43.88456600421521" lon="12.53766552411747"><ele>267.0</ele><time>2026-05-04T06:41:36Z</time></trkpt><trkpt lat="43.88450773060381" lon="12.537554139922147"><ele>266.0</ele><time>2026-05-04T06:41:37Z</time></trkpt><trkpt lat="43.884435972428314" lon="12.537449378084512"><ele>265.0</ele><time>2026-05-04T06:41:38Z</time></trkpt><trkpt lat="43.88435321700723" lon="12.537339731922538"><ele>264.0</ele><time>2026-05-04T06:41:39Z</time></trkpt><trkpt lat="43.88426853739911" lon="12.537225625176239"><ele>264.75</ele><time>2026-05-04T06:41:40Z</time></trkpt><trkpt lat="43.88418432007977" lon="12.537105845655692"><ele>265.5</ele><time>2026-05-04T06:41:41Z</time></trkpt><trkpt lat="43.8840992591189" lon="12.536986243678847"><ele>266.25</ele><time>2026-05-04T06:41:42Z</time></trkpt><trkpt lat="43.88401673550582" lon="12.536864523925653"><ele>267.0</ele><time>2026-05-04T06:41:43Z</time></trkpt><trkpt lat="43.88394076083533" lon="12.53675290541061"><ele>267.0</ele><time>2026-05-04T06:41:44Z</time></trkpt><trkpt lat="43.88387778062871" lon="12.536649385449362"><ele>267.0</ele><time>2026-05-04T06:41:45Z</time></trkpt><trkpt lat="43.88383423536603" lon="12.536550048104447"><ele>267.0</ele><time>2026-05-04T06:41:46Z</time></trkpt><trkpt lat="43.88381191628244" lon="12.53644646283877"><ele>267.0</ele><time>2026-05-04T06:41:47Z</time></trkpt><trkpt lat="43.88382446432824" lon="12.536335954086931"><ele>267.0</ele><time>2026-05-04T06:41:48Z</time></trkpt><trkpt lat="43.883853119030455" lon="12.536230856150222"><ele>267.0</ele><time>2026-05-04T06:41:49Z</time></trkpt><trkpt lat="43.88390077094444" lon="12.536136495658422"><ele>265.0</ele><time>2026-05-04T06:41:50Z</time></trkpt><trkpt lat="43.88395242483315" lon="12.536070660155055"><ele>263.0</ele><time>2026-05-04T06:41:51Z</time></trkpt><trkpt lat="43.88402167535534" lon="12.53603587011943"><ele>261.0</ele><time>2026-05-04T06:41:52Z</time></trkpt><trkpt lat="43.884094677567724" lon="12.536027558956501"><ele>259.0</ele><time>2026-05-04T06:41:53Z</time></trkpt><trkpt lat="43.88417887775668" lon="12.53604996699257"><ele>257.0</ele><time>2026-05-04T06:41:54Z</time></trkpt><trkpt lat="43.884264189357985" lon="12.536096191047484"><ele>255.0</ele><time>2026-05-04T06:41:55Z</time></trkpt><trkpt lat="43.884350026188" lon="12.5361518050263"><ele>252.2</ele><time>2026-05-04T06:41:56Z</time></trkpt><trkpt lat="43.88443989398986" lon="12.536194320688056"><ele>249.4</ele><time>2026-05-04T06:41:57Z</time></trkpt><trkpt lat="43.8845345511054" lon="12.536193415231963"><ele>246.60000000000002</ele><time>2026-05-04T06:41:58Z</time></trkpt><trkpt lat="43.884636882222395" lon="12.536150809022812"><ele>243.8</ele><time>2026-05-04T06:41:59Z</time></trkpt><trkpt lat="43.88474095697904" lon="12.53609887777555"><ele>241.0</ele><time>2026-05-04T06:42:00Z</time></trkpt><trkpt lat="43.88484750598968" lon="12.536059553985972"><ele>241.0</ele><time>2026-05-04T06:42:01Z</time></trkpt><trkpt lat="43.88495552127408" lon="12.536059065129002"><ele>241.00000000000003</ele><time>2026-05-04T06:42:02Z</time></trkpt><trkpt lat="43.885061937843055" lon="12.536081851033002"><ele>241.00000000000003</ele><time>2026-05-04T06:42:03Z</time></trkpt><trkpt lat="43.88516664232766" lon="12.536136949024586"><ele>241.0</ele><time>2026-05-04T06:42:04Z</time></trkpt><trkpt lat="43.885270046105916" lon="12.536200815045136"><ele>241.0</ele><time>2026-05-04T06:42:05Z</time></trkpt><trkpt lat="43.88537715335639" lon="12.536268398328573"><ele>239.66666666666666</ele><time>2026-05-04T06:42:06Z</time></trkpt><trkpt lat="43.88548202907864" lon="12.536327153012248"><ele>238.33333333333331</ele><time>2026-05-04T06:42:07Z</time></trkpt><trkpt lat="43.885573230132536" lon="12.536372868945241"><ele>237.0</ele><time>2026-05-04T06:42:08Z</time></trkpt><trkpt lat="43.88564905597062" lon="12.53639993205486"><ele>235.66666666666669</ele><time>2026-05-04T06:42:09Z</time></trkpt><trkpt lat="43.885714042000814" lon="12.536383834370893"><ele>234.33333333333334</ele><time>2026-05-04T06:42:10Z</time></trkpt><trkpt lat="43.88577121008434" lon="12.536325294682968"><ele>233.0</ele><time>2026-05-04T06:42:11Z</time></trkpt><trkpt lat="43.88580277187095" lon="12.53623142534739"><ele>231.2</ele><time>2026-05-04T06:42:12Z</time></trkpt><trkpt lat="43.885814379349306" lon="12.536122362916245"><ele>229.4</ele><time>2026-05-04T06:42:13Z</time></trkpt><trkpt lat="43.885795891413046" lon="12.535996187431248"><ele>227.59999999999997</ele><time>2026-05-04T06:42:14Z</time></trkpt><trkpt lat="43.88575662821572" lon="12.535863793257898"><ele>225.79999999999998</ele><time>2026-05-04T06:42:15Z</time></trkpt><trkpt lat="43.88570009274837" lon="12.535727029254325"><ele>224.0</ele><time>2026-05-04T06:42:16Z</time></trkpt><trkpt lat="43.88564072083998" lon="12.53558976922445"><ele>224.0</ele><time>2026-05-04T06:42:17Z</time></trkpt><trkpt lat="43.88557520296271" lon="12.535441895841345"><ele>224.0</ele><time>2026-05-04T06:42:18Z</time></trkpt><trkpt lat="43.88550574154068" lon="12.535288584933518"><ele>224.0</ele><time>2026-05-04T06:42:19Z</time></trkpt><trkpt lat="43.88543615873139" lon="12.535137872411674"><ele>224.0</ele><time>2026-05-04T06:42:20Z</time></trkpt><trkpt lat="43.885359167859065" lon="12.534991272663405"><ele>222.0</ele><time>2026-05-04T06:42:21Z</time></trkpt><trkpt lat="43.885276044104366" lon="12.534847654832362"><ele>220.0</ele><time>2026-05-04T06:42:22Z</time></trkpt><trkpt lat="43.885197210046556" lon="12.53471174975513"><ele>218.0</ele><time>2026-05-04T06:42:23Z</time></trkpt><trkpt lat="43.885122312464304" lon="12.534577578673288"><ele>216.0</ele><time>2026-05-04T06:42:24Z</time></trkpt><trkpt lat="43.88505532837817" lon="12.53444177396395"><ele>216.0</ele><time>2026-05-04T06:42:25Z</time></trkpt><trkpt lat="43.8849890541107" lon="12.534304976050294"><ele>216.00000000000003</ele><time>2026-05-04T06:42:26Z</time></trkpt><trkpt lat="43.88492481939131" lon="12.534185247063043"><ele>216.00000000000003</ele><time>2026-05-04T06:42:27Z</time></trkpt><trkpt lat="43.88486087908196" lon="12.534066961097052"><ele>216.0</ele><time>2026-05-04T06:42:28Z</time></trkpt><trkpt lat="43.884805052449565" lon="12.533947735677"><ele>216.0</ele><time>2026-05-04T06:42:29Z</time></trkpt><trkpt lat="43.88474543320788" lon="12.533831382516517"><ele>214.60000000000002</ele><time>2026-05-04T06:42:30Z</time></trkpt><trkpt lat="43.884683369832814" lon="12.533718168724915"><ele>213.20000000000002</ele><time>2026-05-04T06:42:31Z</time></trkpt><trkpt lat="43.8846221343706" lon="12.533609255132525"><ele>211.8</ele><time>2026-05-04T06:42:32Z</time></trkpt><trkpt lat="43.88454806252992" lon="12.533507813379437"><ele>210.39999999999998</ele><time>2026-05-04T06:42:33Z</time></trkpt><trkpt lat="43.88447278799673" lon="12.533415289404857"><ele>209.0</ele><time>2026-05-04T06:42:34Z</time></trkpt><trkpt lat="43.884398298930265" lon="12.533324973919651"><ele>209.00000000000003</ele><time>2026-05-04T06:42:35Z</time></trkpt><trkpt lat="43.88433735442093" lon="12.533243814407792"><ele>209.0</ele><time>2026-05-04T06:42:36Z</time></trkpt><trkpt lat="43.88428734877194" lon="12.533165998094102"><ele>209.0</ele><time>2026-05-04T06:42:37Z</time></trkpt><trkpt lat="43.88423480778745" lon="12.533067512881185"><ele>209.0</ele><time>2026-05-04T06:42:38Z</time></trkpt><trkpt lat="43.88418403191148" lon="12.532964264582075"><ele>209.00000000000003</ele><time>2026-05-04T06:42:39Z</time></trkpt><trkpt lat="43.88413109683755" lon="12.532863909555978"><ele>209.0</ele><time>2026-05-04T06:42:40Z</time></trkpt><trkpt lat="43.8840708197277" lon="12.532756946922097"><ele>209.6</ele><time>2026-05-04T06:42:41Z</time></trkpt><trkpt lat="43.884015977989606" lon="12.532640008081858"><ele>210.2</ele><time>2026-05-04T06:42:42Z</time></trkpt><trkpt lat="43.88397089633175" lon="12.532513258187514"><ele>210.79999999999998</ele><time>2026-05-04T06:42:43Z</time></trkpt><trkpt lat="43.88393201288041" lon="12.532381513065538"><ele>211.39999999999998</ele><time>2026-05-04T06:42:44Z</time></trkpt><trkpt lat="43.88388929748763" lon="12.532245431574543"><ele>212.0</ele><time>2026-05-04T06:42:45Z</time></trkpt><trkpt lat="43.88384726670083" lon="12.532108076806136"><ele>211.66666666666669</ele><time>2026-05-04T06:42:46Z</time></trkpt><trkpt lat="43.88380394094987" lon="12.531974320957145"><ele>211.33333333333334</ele><time>2026-05-04T06:42:47Z</time></trkpt><trkpt lat="43.88376616231717" lon="12.531860170463801"><ele>211.0</ele><time>2026-05-04T06:42:48Z</time></trkpt><trkpt lat="43.883726045004515" lon="12.531744609923466"><ele>210.66666666666669</ele><time>2026-05-04T06:42:49Z</time></trkpt><trkpt lat="43.88369738826936" lon="12.531651548648862"><ele>210.33333333333334</ele><time>2026-05-04T06:42:50Z</time></trkpt><trkpt lat="43.883678244760446" lon="12.53156560210166"><ele>210.0</ele><time>2026-05-04T06:42:51Z</time></trkpt><trkpt lat="43.88367101067959" lon="12.531393202107767"><ele>210.0</ele><time>2026-05-04T06:42:53Z</time></trkpt><trkpt lat="43.88367314076506" lon="12.531303869406052"><ele>210.0</ele><time>2026-05-04T06:42:54Z</time></trkpt><trkpt lat="43.8836628852031" lon="12.5312147963629"><ele>210.0</ele><time>2026-05-04T06:42:55Z</time></trkpt><trkpt lat="43.88362788650716" lon="12.531124807008577"><ele>210.0</ele><time>2026-05-04T06:42:56Z</time></trkpt><trkpt lat="43.883573644880904" lon="12.531045444143876"><ele>210.0</ele><time>2026-05-04T06:42:57Z</time></trkpt><trkpt lat="43.883516940221334" lon="12.53097398221436"><ele>210.0</ele><time>2026-05-04T06:42:58Z</time></trkpt><trkpt lat="43.88345631161602" lon="12.5309029878267"><ele>210.0</ele><time>2026-05-04T06:42:59Z</time></trkpt><trkpt lat="43.88339766585368" lon="12.530836782231775"><ele>210.2</ele><time>2026-05-04T06:43:00Z</time></trkpt><trkpt lat="43.88333999605805" lon="12.530761584183377"><ele>210.4</ele><time>2026-05-04T06:43:01Z</time></trkpt><trkpt lat="43.883286864711025" lon="12.53068630392904"><ele>210.60000000000002</ele><time>2026-05-04T06:43:02Z</time></trkpt><trkpt lat="43.88323105225431" lon="12.53052226652432"><ele>210.8</ele><time>2026-05-04T06:43:04Z</time></trkpt><trkpt lat="43.883259835102734" lon="12.53038824874808"><ele>211.0</ele><time>2026-05-04T06:43:06Z</time></trkpt><trkpt lat="43.88328065911858" lon="12.530303306145381"><ele>210.99999999999997</ele><time>2026-05-04T06:43:07Z</time></trkpt><trkpt lat="43.88334151424508" lon="12.530229503903483"><ele>211.0</ele><time>2026-05-04T06:43:08Z</time></trkpt><trkpt lat="43.88339033467957" lon="12.530140741204193"><ele>211.0</ele><time>2026-05-04T06:43:09Z</time></trkpt><trkpt lat="43.88341776129238" lon="12.530038047532765"><ele>211.0</ele><time>2026-05-04T06:43:10Z</time></trkpt><trkpt lat="43.88346075230579" lon="12.529947514092342"><ele>210.99999999999997</ele><time>2026-05-04T06:43:11Z</time></trkpt><trkpt lat="43.88350217142214" lon="12.529848892642164"><ele>211.0</ele><time>2026-05-04T06:43:12Z</time></trkpt><trkpt lat="43.883539387599455" lon="12.529750545520432"><ele>210.66666666666666</ele><time>2026-05-04T06:43:13Z</time></trkpt><trkpt lat="43.88359117362599" lon="12.52966060089286"><ele>210.33333333333331</ele><time>2026-05-04T06:43:14Z</time></trkpt><trkpt lat="43.88362558133542" lon="12.529553296874933"><ele>210.0</ele><time>2026-05-04T06:43:15Z</time></trkpt><trkpt lat="43.88360880052326" lon="12.529430191113176"><ele>209.66666666666669</ele><time>2026-05-04T06:43:16Z</time></trkpt><trkpt lat="43.88362336098319" lon="12.529336451728105"><ele>209.33333333333334</ele><time>2026-05-04T06:43:17Z</time></trkpt><trkpt lat="43.88362327442328" lon="12.529206471807832"><ele>209.0</ele><time>2026-05-04T06:43:19Z</time></trkpt><trkpt lat="43.88355560681376" lon="12.52907280197017"><ele>208.79999999999998</ele><time>2026-05-04T06:43:22Z</time></trkpt><trkpt lat="43.883494935023094" lon="12.529003657171282"><ele>208.6</ele><time>2026-05-04T06:43:52Z</time></trkpt><trkpt lat="43.88342283801542" lon="12.52891815554574"><ele>208.4</ele><time>2026-05-04T06:43:54Z</time></trkpt><trkpt lat="43.88335992244971" lon="12.528785975788542"><ele>208.2</ele><time>2026-05-04T06:43:56Z</time></trkpt><trkpt lat="43.88332014922608" lon="12.528624903564811"><ele>208.0</ele><time>2026-05-04T06:43:58Z</time></trkpt><trkpt lat="43.8832976854581" lon="12.528482484639996"><ele>208.8</ele><time>2026-05-04T06:44:00Z</time></trkpt><trkpt lat="43.88324500348925" lon="12.528359601707054"><ele>209.60000000000002</ele><time>2026-05-04T06:44:02Z</time></trkpt><trkpt lat="43.88317602073412" lon="12.52825944381496"><ele>210.39999999999998</ele><time>2026-05-04T06:44:04Z</time></trkpt><trkpt lat="43.88306076107919" lon="12.528184571181248"><ele>211.2</ele><time>2026-05-04T06:44:06Z</time></trkpt><trkpt lat="43.88299422499046" lon="12.528152988933982"><ele>212.0</ele><time>2026-05-04T06:44:07Z</time></trkpt><trkpt lat="43.88291922358677" lon="12.528136483503918"><ele>212.00000000000003</ele><time>2026-05-04T06:44:08Z</time></trkpt><trkpt lat="43.88284726838605" lon="12.528090551078376"><ele>212.0</ele><time>2026-05-04T06:44:09Z</time></trkpt><trkpt lat="43.88276180448548" lon="12.528054743675494"><ele>212.0</ele><time>2026-05-04T06:44:10Z</time></trkpt><trkpt lat="43.88268737460206" lon="12.528035195566481"><ele>212.0</ele><time>2026-05-04T06:44:11Z</time></trkpt><trkpt lat="43.882618164506944" lon="12.528022499302239"><ele>212.00000000000003</ele><time>2026-05-04T06:44:12Z</time></trkpt><trkpt lat="43.88254727415741" lon="12.527989115384246"><ele>212.0</ele><time>2026-05-04T06:44:13Z</time></trkpt><trkpt lat="43.88246219248732" lon="12.527978558131753"><ele>211.83333333333334</ele><time>2026-05-04T06:44:14Z</time></trkpt><trkpt lat="43.88239461569996" lon="12.527945202008997"><ele>211.66666666666669</ele><time>2026-05-04T06:44:15Z</time></trkpt><trkpt lat="43.88232052560642" lon="12.527916668089059"><ele>211.5</ele><time>2026-05-04T06:44:16Z</time></trkpt><trkpt lat="43.88225654987569" lon="12.527883710424117"><ele>211.33333333333331</ele><time>2026-05-04T06:44:17Z</time></trkpt><trkpt lat="43.88218648220472" lon="12.527838825132433"><ele>211.16666666666666</ele><time>2026-05-04T06:44:18Z</time></trkpt><trkpt lat="43.88205942060413" lon="12.52774810409704"><ele>211.0</ele><time>2026-05-04T06:44:20Z</time></trkpt><trkpt lat="43.88201286184963" lon="12.527678120213656"><ele>211.0</ele><time>2026-05-04T06:44:21Z</time></trkpt><trkpt lat="43.8819603588684" lon="12.527605004185848"><ele>211.0</ele><time>2026-05-04T06:44:22Z</time></trkpt><trkpt lat="43.8819025473178" lon="12.527558428981479"><ele>211.0</ele><time>2026-05-04T06:44:23Z</time></trkpt><trkpt lat="43.88186717677343" lon="12.527480862934226"><ele>211.0</ele><time>2026-05-04T06:44:24Z</time></trkpt><trkpt lat="43.88180822660877" lon="12.52740194784822"><ele>211.0</ele><time>2026-05-04T06:44:25Z</time></trkpt><trkpt lat="43.88176099375082" lon="12.527335049551649"><ele>211.0</ele><time>2026-05-04T06:44:26Z</time></trkpt><trkpt lat="43.88170833673039" lon="12.527254621511135"><ele>211.0</ele><time>2026-05-04T06:44:27Z</time></trkpt><trkpt lat="43.88166274875999" lon="12.527164553965273"><ele>211.49999999999997</ele><time>2026-05-04T06:44:28Z</time></trkpt><trkpt lat="43.88160972125444" lon="12.527082899898963"><ele>212.0</ele><time>2026-05-04T06:44:29Z</time></trkpt><trkpt lat="43.8815538458439" lon="12.526983001638792"><ele>212.5</ele><time>2026-05-04T06:44:30Z</time></trkpt><trkpt lat="43.881504495358044" lon="12.52687533692045"><ele>213.0</ele><time>2026-05-04T06:44:31Z</time></trkpt><trkpt lat="43.88147060799665" lon="12.526768195600656"><ele>213.49999999999997</ele><time>2026-05-04T06:44:32Z</time></trkpt><trkpt lat="43.88141977681709" lon="12.526655429562696"><ele>214.0</ele><time>2026-05-04T06:44:33Z</time></trkpt><trkpt lat="43.881374302327835" lon="12.526544749746144"><ele>213.99999999999997</ele><time>2026-05-04T06:44:34Z</time></trkpt><trkpt lat="43.881349500508705" lon="12.526459063524731"><ele>214.0</ele><time>2026-05-04T06:44:35Z</time></trkpt><trkpt lat="43.88131285633859" lon="12.526342435417483"><ele>214.0</ele><time>2026-05-04T06:44:36Z</time></trkpt><trkpt lat="43.88128136858188" lon="12.52624221871721"><ele>214.0</ele><time>2026-05-04T06:44:37Z</time></trkpt><trkpt lat="43.881248211918006" lon="12.526136690348176"><ele>213.99999999999997</ele><time>2026-05-04T06:44:38Z</time></trkpt><trkpt lat="43.881215902605895" lon="12.526024174569395"><ele>214.0</ele><time>2026-05-04T06:44:39Z</time></trkpt><trkpt lat="43.881170835347746" lon="12.525927639555308"><ele>213.99999999999997</ele><time>2026-05-04T06:44:40Z</time></trkpt><trkpt lat="43.881145549174555" lon="12.525811162044759"><ele>214.0</ele><time>2026-05-04T06:44:41Z</time></trkpt><trkpt lat="43.88111878032264" lon="12.525712097320339"><ele>214.0</ele><time>2026-05-04T06:44:42Z</time></trkpt><trkpt lat="43.8810913393199" lon="12.525591836206926"><ele>214.0</ele><time>2026-05-04T06:44:43Z</time></trkpt><trkpt lat="43.88108587747595" lon="12.525502097874856"><ele>213.99999999999997</ele><time>2026-05-04T06:44:44Z</time></trkpt><trkpt lat="43.88107642770065" lon="12.525396714032249"><ele>214.0</ele><time>2026-05-04T06:44:45Z</time></trkpt><trkpt lat="43.8810720447846" lon="12.52530858700927"><ele>213.83333333333331</ele><time>2026-05-04T06:44:46Z</time></trkpt><trkpt lat="43.881064737394055" lon="12.525181105305325"><ele>213.66666666666666</ele><time>2026-05-04T06:44:48Z</time></trkpt><trkpt lat="43.881049826133314" lon="12.525052925728215"><ele>213.5</ele><time>2026-05-04T06:44:51Z</time></trkpt><trkpt lat="43.88103705537035" lon="12.524910983421922"><ele>213.33333333333331</ele><time>2026-05-04T06:44:53Z</time></trkpt><trkpt lat="43.881019105560036" lon="12.524823512431654"><ele>213.16666666666666</ele><time>2026-05-04T06:44:54Z</time></trkpt><trkpt lat="43.88100830227667" lon="12.5247119404017"><ele>213.0</ele><time>2026-05-04T06:44:55Z</time></trkpt><trkpt lat="43.88100769892136" lon="12.524610140274167"><ele>213.33333333333334</ele><time>2026-05-04T06:44:56Z</time></trkpt><trkpt lat="43.880998172958634" lon="12.524498234852508"><ele>213.66666666666669</ele><time>2026-05-04T06:44:57Z</time></trkpt><trkpt lat="43.880972992997705" lon="12.524392125006054"><ele>214.0</ele><time>2026-05-04T06:44:58Z</time></trkpt><trkpt lat="43.880974509357834" lon="12.524300073619003"><ele>214.33333333333334</ele><time>2026-05-04T06:44:59Z</time></trkpt><trkpt lat="43.88096084270846" lon="12.5241892868678"><ele>214.66666666666669</ele><time>2026-05-04T06:45:00Z</time></trkpt><trkpt lat="43.880950916225295" lon="12.524053392036919"><ele>215.0</ele><time>2026-05-04T06:45:02Z</time></trkpt><trkpt lat="43.88094654188631" lon="12.523940731433557"><ele>215.0</ele><time>2026-05-04T06:45:04Z</time></trkpt><trkpt lat="43.8809884515121" lon="12.523827335928807"><ele>215.0</ele><time>2026-05-04T06:45:06Z</time></trkpt><trkpt lat="43.880993658924154" lon="12.523683109410369"><ele>215.0</ele><time>2026-05-04T06:45:08Z</time></trkpt><trkpt lat="43.88098473166801" lon="12.523544955708653"><ele>215.0</ele><time>2026-05-04T06:45:10Z</time></trkpt><trkpt lat="43.880964126884855" lon="12.523404433249134"><ele>215.0</ele><time>2026-05-04T06:45:12Z</time></trkpt><trkpt lat="43.88095159310242" lon="12.523249780485218"><ele>215.0</ele><time>2026-05-04T06:45:14Z</time></trkpt><trkpt lat="43.88095186362007" lon="12.523098494434938"><ele>215.0</ele><time>2026-05-04T06:45:16Z</time></trkpt><trkpt lat="43.88095504747633" lon="12.522981884361458"><ele>215.0</ele><time>2026-05-04T06:45:18Z</time></trkpt><trkpt lat="43.88096919539698" lon="12.52285680225896"><ele>215.0</ele><time>2026-05-04T06:45:20Z</time></trkpt><trkpt lat="43.8809243869058" lon="12.522733529233735"><ele>215.0</ele><time>2026-05-04T06:45:22Z</time></trkpt><trkpt lat="43.88086329434033" lon="12.522603742205204"><ele>215.8</ele><time>2026-05-04T06:45:24Z</time></trkpt><trkpt lat="43.88079255764691" lon="12.522475545050781"><ele>216.6</ele><time>2026-05-04T06:45:26Z</time></trkpt><trkpt lat="43.88073214698598" lon="12.522342528778644"><ele>217.39999999999998</ele><time>2026-05-04T06:45:28Z</time></trkpt><trkpt lat="43.88068056662022" lon="12.52216765708322"><ele>218.2</ele><time>2026-05-04T06:45:30Z</time></trkpt><trkpt lat="43.880654132167926" lon="12.522078211809262"><ele>219.0</ele><time>2026-05-04T06:45:31Z</time></trkpt><trkpt lat="43.88062471506584" lon="12.521985479401094"><ele>219.0</ele><time>2026-05-04T06:45:32Z</time></trkpt><trkpt lat="43.88059561819649" lon="12.521887689949024"><ele>219.0</ele><time>2026-05-04T06:45:33Z</time></trkpt><trkpt lat="43.88056656829608" lon="12.521772479066598"><ele>219.0</ele><time>2026-05-04T06:45:34Z</time></trkpt><trkpt lat="43.880536140701665" lon="12.521671649564478"><ele>219.0</ele><time>2026-05-04T06:45:35Z</time></trkpt><trkpt lat="43.880489416177255" lon="12.521566225662502"><ele>219.0</ele><time>2026-05-04T06:45:36Z</time></trkpt><trkpt lat="43.880452696267945" lon="12.521459251066823"><ele>219.0</ele><time>2026-05-04T06:45:37Z</time></trkpt><trkpt lat="43.88041975348312" lon="12.521344463773525"><ele>219.0</ele><time>2026-05-04T06:45:38Z</time></trkpt><trkpt lat="43.88037164082336" lon="12.521214035270788"><ele>218.99999999999997</ele><time>2026-05-04T06:45:39Z</time></trkpt><trkpt lat="43.88031978407197" lon="12.521063814769914"><ele>218.99999999999997</ele><time>2026-05-04T06:45:40Z</time></trkpt><trkpt lat="43.88028921699366" lon="12.520924262195948"><ele>219.0</ele><time>2026-05-04T06:45:41Z</time></trkpt><trkpt lat="43.88025545817404" lon="12.520771618659536"><ele>219.0</ele><time>2026-05-04T06:45:42Z</time></trkpt><trkpt lat="43.88021524272" lon="12.520616196640384"><ele>219.0</ele><time>2026-05-04T06:45:43Z</time></trkpt><trkpt lat="43.880176131053375" lon="12.520482012030714"><ele>218.99999999999997</ele><time>2026-05-04T06:45:44Z</time></trkpt><trkpt lat="43.88015316884179" lon="12.520367417922207"><ele>218.99999999999997</ele><time>2026-05-04T06:45:45Z</time></trkpt><trkpt lat="43.88015253291706" lon="12.52023249286388"><ele>219.0</ele><time>2026-05-04T06:45:46Z</time></trkpt><trkpt lat="43.880163466096356" lon="12.520056445254463"><ele>219.0</ele><time>2026-05-04T06:45:47Z</time></trkpt><trkpt lat="43.88016874465332" lon="12.519899031016712"><ele>219.39999999999998</ele><time>2026-05-04T06:45:48Z</time></trkpt><trkpt lat="43.88017008904824" lon="12.519763162495073"><ele>219.79999999999998</ele><time>2026-05-04T06:45:49Z</time></trkpt><trkpt lat="43.880165085690265" lon="12.519624993944623"><ele>220.20000000000002</ele><time>2026-05-04T06:45:50Z</time></trkpt><trkpt lat="43.880157434832455" lon="12.519485690907096"><ele>220.60000000000002</ele><time>2026-05-04T06:45:51Z</time></trkpt><trkpt lat="43.88014931860838" lon="12.519342978632327"><ele>221.0</ele><time>2026-05-04T06:45:52Z</time></trkpt><trkpt lat="43.88015653973926" lon="12.519176158509277"><ele>221.16666666666669</ele><time>2026-05-04T06:45:53Z</time></trkpt><trkpt lat="43.88016494875353" lon="12.519039328199792"><ele>221.33333333333334</ele><time>2026-05-04T06:45:54Z</time></trkpt><trkpt lat="43.880171287436234" lon="12.518917937409155"><ele>221.5</ele><time>2026-05-04T06:45:55Z</time></trkpt><trkpt lat="43.88017079402258" lon="12.51880715964225"><ele>221.66666666666669</ele><time>2026-05-04T06:45:56Z</time></trkpt><trkpt lat="43.88017602294839" lon="12.518700600217633"><ele>221.83333333333334</ele><time>2026-05-04T06:45:57Z</time></trkpt><trkpt lat="43.880181268669276" lon="12.518577764040133"><ele>222.0</ele><time>2026-05-04T06:45:58Z</time></trkpt><trkpt lat="43.88018354619045" lon="12.51847029293063"><ele>222.16666666666666</ele><time>2026-05-04T06:45:59Z</time></trkpt><trkpt lat="43.880184380494" lon="12.518340953211291"><ele>222.33333333333331</ele><time>2026-05-04T06:46:00Z</time></trkpt><trkpt lat="43.88018083812901" lon="12.518214639165805"><ele>222.5</ele><time>2026-05-04T06:46:01Z</time></trkpt><trkpt lat="43.880181928303024" lon="12.518092729575816"><ele>222.66666666666666</ele><time>2026-05-04T06:46:02Z</time></trkpt><trkpt lat="43.88018036353718" lon="12.517999648082009"><ele>222.83333333333331</ele><time>2026-05-04T06:46:03Z</time></trkpt><trkpt lat="43.88017000402562" lon="12.517883883631088"><ele>223.0</ele><time>2026-05-04T06:46:04Z</time></trkpt><trkpt lat="43.88015970481611" lon="12.517762779673458"><ele>223.33333333333331</ele><time>2026-05-04T06:46:05Z</time></trkpt><trkpt lat="43.88015931169482" lon="12.517646252715275"><ele>223.66666666666666</ele><time>2026-05-04T06:46:06Z</time></trkpt><trkpt lat="43.880152696370715" lon="12.51753458493601"><ele>224.0</ele><time>2026-05-04T06:46:07Z</time></trkpt><trkpt lat="43.88015060438532" lon="12.517423914388365"><ele>224.33333333333331</ele><time>2026-05-04T06:46:08Z</time></trkpt><trkpt lat="43.880151474370955" lon="12.517300278588475"><ele>224.66666666666666</ele><time>2026-05-04T06:46:09Z</time></trkpt><trkpt lat="43.88014892082517" lon="12.517179192129342"><ele>225.0</ele><time>2026-05-04T06:46:10Z</time></trkpt><trkpt lat="43.88013716902737" lon="12.517058600541244"><ele>225.16666666666666</ele><time>2026-05-04T06:46:11Z</time></trkpt><trkpt lat="43.88012740272792" lon="12.516939854098734"><ele>225.33333333333331</ele><time>2026-05-04T06:46:12Z</time></trkpt><trkpt lat="43.88010181600509" lon="12.516839026511317"><ele>225.5</ele><time>2026-05-04T06:46:13Z</time></trkpt><trkpt lat="43.88006583241787" lon="12.516742717690153"><ele>225.66666666666666</ele><time>2026-05-04T06:46:14Z</time></trkpt><trkpt lat="43.87999507304409" lon="12.516662110347248"><ele>225.83333333333331</ele><time>2026-05-04T06:46:15Z</time></trkpt><trkpt lat="43.879923871440866" lon="12.516598505552771"><ele>226.0</ele><time>2026-05-04T06:46:16Z</time></trkpt><trkpt lat="43.87984092518061" lon="12.516543754340155"><ele>226.20000000000002</ele><time>2026-05-04T06:46:17Z</time></trkpt><trkpt lat="43.87975376393467" lon="12.516497232337725"><ele>226.40000000000003</ele><time>2026-05-04T06:46:18Z</time></trkpt><trkpt lat="43.87966608571202" lon="12.516463650545907"><ele>226.6</ele><time>2026-05-04T06:46:19Z</time></trkpt><trkpt lat="43.879576408614724" lon="12.516444015310725"><ele>226.8</ele><time>2026-05-04T06:46:20Z</time></trkpt><trkpt lat="43.8794814418181" lon="12.516431151554821"><ele>227.0</ele><time>2026-05-04T06:46:21Z</time></trkpt><trkpt lat="43.87939169508505" lon="12.516423902120655"><ele>227.00000000000003</ele><time>2026-05-04T06:46:22Z</time></trkpt><trkpt lat="43.87930656420026" lon="12.516415226029707"><ele>227.0</ele><time>2026-05-04T06:46:23Z</time></trkpt><trkpt lat="43.87923800096778" lon="12.516392492569473"><ele>227.0</ele><time>2026-05-04T06:46:24Z</time></trkpt><trkpt lat="43.87917321915297" lon="12.516353629685502"><ele>227.0</ele><time>2026-05-04T06:46:25Z</time></trkpt><trkpt lat="43.87911319274245" lon="12.51628764217789"><ele>227.00000000000003</ele><time>2026-05-04T06:46:26Z</time></trkpt><trkpt lat="43.87905778813151" lon="12.516199362713996"><ele>227.0</ele><time>2026-05-04T06:46:27Z</time></trkpt><trkpt lat="43.8789988750586" lon="12.516108232550641"><ele>228.0</ele><time>2026-05-04T06:46:28Z</time></trkpt><trkpt lat="43.87893339494162" lon="12.516020574620956"><ele>229.0</ele><time>2026-05-04T06:46:29Z</time></trkpt><trkpt lat="43.87886749482184" lon="12.515930356129513"><ele>230.0</ele><time>2026-05-04T06:46:30Z</time></trkpt><trkpt lat="43.87880041992781" lon="12.515836916963112"><ele>231.0</ele><time>2026-05-04T06:46:31Z</time></trkpt><trkpt lat="43.878733041929856" lon="12.515733517778596"><ele>232.0</ele><time>2026-05-04T06:46:32Z</time></trkpt><trkpt lat="43.878665849110675" lon="12.51563201976828"><ele>232.0</ele><time>2026-05-04T06:46:33Z</time></trkpt><trkpt lat="43.878592300656585" lon="12.51554055566871"><ele>232.0</ele><time>2026-05-04T06:46:34Z</time></trkpt><trkpt lat="43.878513297026885" lon="12.515460103090454"><ele>232.0</ele><time>2026-05-04T06:46:35Z</time></trkpt><trkpt lat="43.87842507670162" lon="12.51537835600942"><ele>232.0</ele><time>2026-05-04T06:46:36Z</time></trkpt><trkpt lat="43.87831950278336" lon="12.515296958455803"><ele>232.0</ele><time>2026-05-04T06:46:37Z</time></trkpt><trkpt lat="43.87822465350519" lon="12.515220176628667"><ele>232.16666666666666</ele><time>2026-05-04T06:46:38Z</time></trkpt><trkpt lat="43.87814011307534" lon="12.515173291769477"><ele>232.33333333333331</ele><time>2026-05-04T06:46:39Z</time></trkpt><trkpt lat="43.87805334992874" lon="12.515130391560671"><ele>232.5</ele><time>2026-05-04T06:46:40Z</time></trkpt><trkpt lat="43.87797313286508" lon="12.515116104903855"><ele>232.66666666666669</ele><time>2026-05-04T06:46:41Z</time></trkpt><trkpt lat="43.8778829651166" lon="12.515081163527421"><ele>232.83333333333334</ele><time>2026-05-04T06:46:43Z</time></trkpt><trkpt lat="43.877878203505865" lon="12.514971014513876"><ele>233.0</ele><time>2026-05-04T06:46:45Z</time></trkpt><trkpt lat="43.877914188677146" lon="12.514881739006425"><ele>233.00000000000003</ele><time>2026-05-04T06:46:47Z</time></trkpt><trkpt lat="43.877925158372" lon="12.514774064051819"><ele>233.0</ele><time>2026-05-04T06:46:49Z</time></trkpt><trkpt lat="43.87788809914671" lon="12.514666550818031"><ele>233.0</ele><time>2026-05-04T06:46:51Z</time></trkpt><trkpt lat="43.877902196408265" lon="12.514551318740729"><ele>233.0</ele><time>2026-05-04T06:46:53Z</time></trkpt><trkpt lat="43.87792364891897" lon="12.514458719489456"><ele>233.00000000000003</ele><time>2026-05-04T06:46:56Z</time></trkpt><trkpt lat="43.87795981312701" lon="12.514349338794908"><ele>233.0</ele><time>2026-05-04T06:47:00Z</time></trkpt><trkpt lat="43.87798965391968" lon="12.514266271934318"><ele>232.83333333333334</ele><time>2026-05-04T06:47:02Z</time></trkpt><trkpt lat="43.878016194559734" lon="12.514184670065756"><ele>232.66666666666669</ele><time>2026-05-04T06:47:04Z</time></trkpt><trkpt lat="43.87804806349023" lon="12.514077374258116"><ele>232.5</ele><time>2026-05-04T06:47:07Z</time></trkpt><trkpt lat="43.87807650587994" lon="12.513984542788451"><ele>232.33333333333331</ele><time>2026-05-04T06:47:10Z</time></trkpt><trkpt lat="43.87810740415597" lon="12.513892414028437"><ele>232.16666666666666</ele><time>2026-05-04T06:47:12Z</time></trkpt><trkpt lat="43.87812805239309" lon="12.513790617369082"><ele>232.0</ele><time>2026-05-04T06:47:14Z</time></trkpt><trkpt lat="43.87817432942041" lon="12.513673500277486"><ele>231.99999999999997</ele><time>2026-05-04T06:47:17Z</time></trkpt><trkpt lat="43.87820655542822" lon="12.513548563462809"><ele>232.0</ele><time>2026-05-04T06:47:19Z</time></trkpt><trkpt lat="43.87823718610439" lon="12.513436709923521"><ele>232.0</ele><time>2026-05-04T06:47:21Z</time></trkpt><trkpt lat="43.8782690940008" lon="12.513330043679343"><ele>232.0</ele><time>2026-05-04T06:47:23Z</time></trkpt><trkpt lat="43.87830072740961" lon="12.513220158628847"><ele>231.99999999999997</ele><time>2026-05-04T06:47:25Z</time></trkpt><trkpt lat="43.878332353785694" lon="12.513122110547862"><ele>232.0</ele><time>2026-05-04T06:47:27Z</time></trkpt><trkpt lat="43.87837435720251" lon="12.513010310595861"><ele>232.16666666666666</ele><time>2026-05-04T06:47:29Z</time></trkpt><trkpt lat="43.87842049329614" lon="12.512903403955804"><ele>232.33333333333331</ele><time>2026-05-04T06:47:31Z</time></trkpt><trkpt lat="43.87846665200864" lon="12.51281604557226"><ele>232.5</ele><time>2026-05-04T06:47:33Z</time></trkpt><trkpt lat="43.87854270397894" lon="12.512684834686883"><ele>232.66666666666669</ele><time>2026-05-04T06:48:06Z</time></trkpt><trkpt lat="43.878578389610105" lon="12.512611169959658"><ele>232.83333333333334</ele><time>2026-05-04T06:48:08Z</time></trkpt><trkpt lat="43.878638862984694" lon="12.512520380389159"><ele>233.0</ele><time>2026-05-04T06:48:10Z</time></trkpt><trkpt lat="43.8787048298988" lon="12.512415510124653"><ele>233.00000000000003</ele><time>2026-05-04T06:48:12Z</time></trkpt><trkpt lat="43.87875962357489" lon="12.51229110686789"><ele>233.0</ele><time>2026-05-04T06:48:14Z</time></trkpt><trkpt lat="43.87876150080238" lon="12.512185630479804"><ele>233.0</ele><time>2026-05-04T06:48:17Z</time></trkpt><trkpt lat="43.878697499493725" lon="12.512192187184322"><ele>233.0</ele><time>2026-05-04T06:48:21Z</time></trkpt><trkpt lat="43.87863227465587" lon="12.51221443754344"><ele>233.00000000000003</ele><time>2026-05-04T06:48:49Z</time></trkpt><trkpt lat="43.87858889045162" lon="12.51228383064877"><ele>233.0</ele><time>2026-05-04T06:49:18Z</time></trkpt><trkpt lat="43.87851930780415" lon="12.512341856632215"><ele>233.0</ele><time>2026-05-04T06:49:21Z</time></trkpt><trkpt lat="43.87845227684763" lon="12.512408789264226"><ele>233.0</ele><time>2026-05-04T06:49:23Z</time></trkpt><trkpt lat="43.87837699552592" lon="12.512481360979526"><ele>233.0</ele><time>2026-05-04T06:49:25Z</time></trkpt><trkpt lat="43.878283269607294" lon="12.512553044919645"><ele>233.0</ele><time>2026-05-04T06:49:27Z</time></trkpt><trkpt lat="43.878223927841795" lon="12.512596849293713"><ele>233.0</ele><time>2026-05-04T06:49:28Z</time></trkpt><trkpt lat="43.87814237714745" lon="12.512682487662945"><ele>232.83333333333334</ele><time>2026-05-04T06:49:30Z</time></trkpt><trkpt lat="43.87809770410313" lon="12.512746736528374"><ele>232.66666666666669</ele><time>2026-05-04T06:49:31Z</time></trkpt><trkpt lat="43.87804204685073" lon="12.512806142680523"><ele>232.5</ele><time>2026-05-04T06:49:32Z</time></trkpt><trkpt lat="43.87796825116129" lon="12.512877387551695"><ele>232.33333333333331</ele><time>2026-05-04T06:49:34Z</time></trkpt><trkpt lat="43.87788604785376" lon="12.512966875998924"><ele>232.16666666666666</ele><time>2026-05-04T06:49:36Z</time></trkpt><trkpt lat="43.87779087134767" lon="12.513065321191876"><ele>232.0</ele><time>2026-05-04T06:49:38Z</time></trkpt><trkpt lat="43.877709243714236" lon="12.513152688382224"><ele>231.99999999999997</ele><time>2026-05-04T06:49:40Z</time></trkpt><trkpt lat="43.877615037591134" lon="12.513206819065969"><ele>232.0</ele><time>2026-05-04T06:49:42Z</time></trkpt><trkpt lat="43.877550071796655" lon="12.513232292699"><ele>232.0</ele><time>2026-05-04T06:49:43Z</time></trkpt><trkpt lat="43.87746590461098" lon="12.513272140707578"><ele>232.0</ele><time>2026-05-04T06:49:45Z</time></trkpt><trkpt lat="43.87740318884525" lon="12.513303740223188"><ele>231.99999999999997</ele><time>2026-05-04T06:49:47Z</time></trkpt><trkpt lat="43.87734410884285" lon="12.513339793319407"><ele>232.0</ele><time>2026-05-04T06:49:58Z</time></trkpt><trkpt lat="43.87724534060583" lon="12.513376983575903"><ele>234.83333333333331</ele><time>2026-05-04T06:50:01Z</time></trkpt><trkpt lat="43.87717584617649" lon="12.51339766236366"><ele>237.66666666666666</ele><time>2026-05-04T06:50:03Z</time></trkpt><trkpt lat="43.87711183008597" lon="12.513434206576845"><ele>240.5</ele><time>2026-05-04T06:50:09Z</time></trkpt><trkpt lat="43.87703551932258" lon="12.51348095633186"><ele>243.33333333333331</ele><time>2026-05-04T06:50:12Z</time></trkpt><trkpt lat="43.8769628677526" lon="12.513522199783937"><ele>246.16666666666666</ele><time>2026-05-04T06:50:14Z</time></trkpt><trkpt lat="43.87689094293342" lon="12.513579919021943"><ele>249.0</ele><time>2026-05-04T06:50:16Z</time></trkpt><trkpt lat="43.87682712736073" lon="12.513603414436874"><ele>251.16666666666666</ele><time>2026-05-04T06:50:17Z</time></trkpt><trkpt lat="43.87675277776881" lon="12.513618931813095"><ele>253.33333333333331</ele><time>2026-05-04T06:50:19Z</time></trkpt><trkpt lat="43.8766804590838" lon="12.513605765332768"><ele>255.5</ele><time>2026-05-04T06:50:21Z</time></trkpt><trkpt lat="43.8766192049651" lon="12.513583432036945"><ele>257.66666666666663</ele><time>2026-05-04T06:50:23Z</time></trkpt><trkpt lat="43.87654537301421" lon="12.513540051913484"><ele>259.8333333333333</ele><time>2026-05-04T06:50:25Z</time></trkpt><trkpt lat="43.87646064243087" lon="12.513479367836316"><ele>262.0</ele><time>2026-05-04T06:50:27Z</time></trkpt><trkpt lat="43.87641335086929" lon="12.513417508518128"><ele>262.0</ele><time>2026-05-04T06:50:29Z</time></trkpt><trkpt lat="43.876337745818525" lon="12.513281967056882"><ele>262.0</ele><time>2026-05-04T06:50:31Z</time></trkpt><trkpt lat="43.876267128341475" lon="12.513161440277289"><ele>262.0</ele><time>2026-05-04T06:50:33Z</time></trkpt><trkpt lat="43.87619695316216" lon="12.513029519536571"><ele>262.0</ele><time>2026-05-04T06:50:35Z</time></trkpt><trkpt lat="43.87614165748403" lon="12.512926148091626"><ele>262.0</ele><time>2026-05-04T06:50:37Z</time></trkpt><trkpt lat="43.87607522858178" lon="12.512822085890875"><ele>263.4</ele><time>2026-05-04T06:50:39Z</time></trkpt><trkpt lat="43.87602406051808" lon="12.512693643321226"><ele>264.79999999999995</ele><time>2026-05-04T06:50:41Z</time></trkpt><trkpt lat="43.875950778095564" lon="12.512576412121085"><ele>266.2</ele><time>2026-05-04T06:50:43Z</time></trkpt><trkpt lat="43.875890083175996" lon="12.512475154909795"><ele>267.59999999999997</ele><time>2026-05-04T06:50:45Z</time></trkpt><trkpt lat="43.875808588739844" lon="12.512357782906639"><ele>269.0</ele><time>2026-05-04T06:50:47Z</time></trkpt><trkpt lat="43.875740659511536" lon="12.512235821138267"><ele>269.8</ele><time>2026-05-04T06:50:49Z</time></trkpt><trkpt lat="43.87568391331968" lon="12.512119344220947"><ele>270.59999999999997</ele><time>2026-05-04T06:50:51Z</time></trkpt><trkpt lat="43.875606987299115" lon="12.512009172795885"><ele>271.4</ele><time>2026-05-04T06:50:53Z</time></trkpt><trkpt lat="43.875531235663004" lon="12.511881628956774"><ele>272.2</ele><time>2026-05-04T06:50:55Z</time></trkpt><trkpt lat="43.87548446471476" lon="12.511799961715976"><ele>273.0</ele><time>2026-05-04T06:50:56Z</time></trkpt><trkpt lat="43.87544387339491" lon="12.511730002668033"><ele>273.1666666666667</ele><time>2026-05-04T06:50:57Z</time></trkpt><trkpt lat="43.875372736734874" lon="12.511599772782496"><ele>273.3333333333333</ele><time>2026-05-04T06:50:59Z</time></trkpt><trkpt lat="43.87531056355935" lon="12.511525971679063"><ele>273.5</ele><time>2026-05-04T06:51:01Z</time></trkpt><trkpt lat="43.87527643358255" lon="12.511449801670617"><ele>273.66666666666663</ele><time>2026-05-04T06:51:03Z</time></trkpt><trkpt lat="43.875215583203364" lon="12.511354415141465"><ele>273.8333333333333</ele><time>2026-05-04T06:51:05Z</time></trkpt><trkpt lat="43.87516976673082" lon="12.511282757895843"><ele>274.0</ele><time>2026-05-04T06:51:06Z</time></trkpt><trkpt lat="43.87512521248891" lon="12.511213599748329"><ele>276.2</ele><time>2026-05-04T06:51:07Z</time></trkpt><trkpt lat="43.87504302299782" lon="12.51111589631084"><ele>278.4</ele><time>2026-05-04T06:51:09Z</time></trkpt><trkpt lat="43.87498339585999" lon="12.511070826778441"><ele>280.6</ele><time>2026-05-04T06:51:10Z</time></trkpt><trkpt lat="43.87488674907193" lon="12.511009845954671"><ele>282.8</ele><time>2026-05-04T06:51:12Z</time></trkpt><trkpt lat="43.87479261810467" lon="12.510944753807133"><ele>285.0</ele><time>2026-05-04T06:51:14Z</time></trkpt><trkpt lat="43.87474168552804" lon="12.511005348025995"><ele>285.0</ele><time>2026-05-04T06:51:19Z</time></trkpt><trkpt lat="43.87467719025934" lon="12.511031882925295"><ele>285.0</ele><time>2026-05-04T06:51:24Z</time></trkpt><trkpt lat="43.874575804146644" lon="12.51100760390181"><ele>285.0</ele><time>2026-05-04T06:51:27Z</time></trkpt><trkpt lat="43.87450509538955" lon="12.51096917930727"><ele>285.0</ele><time>2026-05-04T06:51:29Z</time></trkpt><trkpt lat="43.874398576868614" lon="12.51095163174337"><ele>285.0</ele><time>2026-05-04T06:51:31Z</time></trkpt><trkpt lat="43.87429385853681" lon="12.51096042908259"><ele>286.3333333333333</ele><time>2026-05-04T06:51:33Z</time></trkpt><trkpt lat="43.87418391270127" lon="12.510935695110156"><ele>287.6666666666667</ele><time>2026-05-04T06:51:35Z</time></trkpt><trkpt lat="43.87412838496925" lon="12.510892448936334"><ele>289.0</ele><time>2026-05-04T06:51:36Z</time></trkpt><trkpt lat="43.874071792150346" lon="12.510831866752984"><ele>290.33333333333337</ele><time>2026-05-04T06:51:37Z</time></trkpt><trkpt lat="43.87401665355389" lon="12.510765978152396"><ele>291.6666666666667</ele><time>2026-05-04T06:51:38Z</time></trkpt><trkpt lat="43.87397377004995" lon="12.510701642174856"><ele>293.0</ele><time>2026-05-04T06:51:39Z</time></trkpt><trkpt lat="43.873917646915416" lon="12.510620077718912"><ele>293.0</ele><time>2026-05-04T06:51:40Z</time></trkpt><trkpt lat="43.87386974880898" lon="12.510537643806687"><ele>293.0</ele><time>2026-05-04T06:51:41Z</time></trkpt><trkpt lat="43.87382886901553" lon="12.51045883946179"><ele>293.0</ele><time>2026-05-04T06:51:42Z</time></trkpt><trkpt lat="43.87378572116051" lon="12.510386844301317"><ele>293.0</ele><time>2026-05-04T06:51:43Z</time></trkpt><trkpt lat="43.87376549355073" lon="12.510246787051397"><ele>293.0</ele><time>2026-05-04T06:51:45Z</time></trkpt><trkpt lat="43.87378173045089" lon="12.510144316481172"><ele>293.0</ele><time>2026-05-04T06:51:46Z</time></trkpt><trkpt lat="43.87381321563301" lon="12.510041791177992"><ele>294.5</ele><time>2026-05-04T06:51:47Z</time></trkpt><trkpt lat="43.87383775532192" lon="12.509956041336832"><ele>296.0</ele><time>2026-05-04T06:51:48Z</time></trkpt><trkpt lat="43.87386040889972" lon="12.509794633380157"><ele>297.5</ele><time>2026-05-04T06:51:50Z</time></trkpt><trkpt lat="43.87385861538447" lon="12.509688624978372"><ele>299.0</ele><time>2026-05-04T06:51:51Z</time></trkpt><trkpt lat="43.87385342138097" lon="12.509569179384084"><ele>300.5</ele><time>2026-05-04T06:51:52Z</time></trkpt><trkpt lat="43.87385403167424" lon="12.509451734046879"><ele>302.0</ele><time>2026-05-04T06:51:53Z</time></trkpt><trkpt lat="43.87385105538344" lon="12.509335770326874"><ele>302.6666666666667</ele><time>2026-05-04T06:51:54Z</time></trkpt><trkpt lat="43.87384428780143" lon="12.509218079986228"><ele>303.33333333333337</ele><time>2026-05-04T06:51:55Z</time></trkpt><trkpt lat="43.87384334027022" lon="12.509109201448423"><ele>304.0</ele><time>2026-05-04T06:51:56Z</time></trkpt><trkpt lat="43.87384006795567" lon="12.509018181573326"><ele>304.6666666666667</ele><time>2026-05-04T06:51:57Z</time></trkpt><trkpt lat="43.87382131004352" lon="12.508846773308111"><ele>305.3333333333333</ele><time>2026-05-04T06:51:59Z</time></trkpt><trkpt lat="43.87377534782089" lon="12.508780056752595"><ele>306.0</ele><time>2026-05-04T06:52:00Z</time></trkpt><trkpt lat="43.87371130710193" lon="12.50872994119478"><ele>306.8</ele><time>2026-05-04T06:52:01Z</time></trkpt><trkpt lat="43.87362902225346" lon="12.508671019151215"><ele>307.6</ele><time>2026-05-04T06:52:02Z</time></trkpt><trkpt lat="43.87352943945703" lon="12.508592752263542"><ele>308.4</ele><time>2026-05-04T06:52:03Z</time></trkpt><trkpt lat="43.87344149786675" lon="12.508534843248425"><ele>309.2</ele><time>2026-05-04T06:52:04Z</time></trkpt><trkpt lat="43.87337207060194" lon="12.508485222537924"><ele>310.0</ele><time>2026-05-04T06:52:05Z</time></trkpt><trkpt lat="43.87330565090051" lon="12.5084500631465"><ele>312.8</ele><time>2026-05-04T06:52:06Z</time></trkpt><trkpt lat="43.873239502160295" lon="12.508430671957166"><ele>315.6</ele><time>2026-05-04T06:52:07Z</time></trkpt><trkpt lat="43.873171476908794" lon="12.508401555326852"><ele>318.4</ele><time>2026-05-04T06:52:08Z</time></trkpt><trkpt lat="43.87301020680279" lon="12.508400537587233"><ele>321.2</ele><time>2026-05-04T06:52:10Z</time></trkpt><trkpt lat="43.87291528123442" lon="12.5084197314993"><ele>324.0</ele><time>2026-05-04T06:52:11Z</time></trkpt><trkpt lat="43.872820951389365" lon="12.50844106927893"><ele>324.0</ele><time>2026-05-04T06:52:12Z</time></trkpt><trkpt lat="43.87272227852159" lon="12.508460563121618"><ele>324.0</ele><time>2026-05-04T06:52:13Z</time></trkpt><trkpt lat="43.87264442154116" lon="12.50847365786281"><ele>324.0</ele><time>2026-05-04T06:52:14Z</time></trkpt><trkpt lat="43.87258144844471" lon="12.508484850018096"><ele>324.0</ele><time>2026-05-04T06:52:15Z</time></trkpt><trkpt lat="43.87251063521669" lon="12.508497466812056"><ele>324.0</ele><time>2026-05-04T06:52:16Z</time></trkpt><trkpt lat="43.87243028850968" lon="12.508505551620969"><ele>324.0</ele><time>2026-05-04T06:52:17Z</time></trkpt><trkpt lat="43.872343434937335" lon="12.508504899255152"><ele>324.0</ele><time>2026-05-04T06:52:18Z</time></trkpt><trkpt lat="43.87227411541494" lon="12.508517978683432"><ele>324.0</ele><time>2026-05-04T06:52:19Z</time></trkpt><trkpt lat="43.87218471988209" lon="12.50857849279945"><ele>324.0</ele><time>2026-05-04T06:52:21Z</time></trkpt><trkpt lat="43.87213530758986" lon="12.508679665887756"><ele>324.0</ele><time>2026-05-04T06:52:23Z</time></trkpt><trkpt lat="43.87206895145335" lon="12.50865858181097"><ele>324.0</ele><time>2026-05-04T06:52:24Z</time></trkpt><trkpt lat="43.871996200182615" lon="12.508677238695315"><ele>324.0</ele><time>2026-05-04T06:52:25Z</time></trkpt><trkpt lat="43.87189773542374" lon="12.508748122835524"><ele>324.0</ele><time>2026-05-04T06:52:27Z</time></trkpt><trkpt lat="43.8718080574515" lon="12.50877943833385"><ele>324.0</ele><time>2026-05-04T06:52:28Z</time></trkpt><trkpt lat="43.87172355562547" lon="12.5088138079181"><ele>324.0</ele><time>2026-05-04T06:52:29Z</time></trkpt><trkpt lat="43.87163808755675" lon="12.508839486729974"><ele>324.0</ele><time>2026-05-04T06:52:30Z</time></trkpt><trkpt lat="43.87152716235398" lon="12.50880257194992"><ele>324.0</ele><time>2026-05-04T06:52:32Z</time></trkpt><trkpt lat="43.87142638604401" lon="12.508714793583694"><ele>326.8333333333333</ele><time>2026-05-04T06:52:34Z</time></trkpt><trkpt lat="43.871365485094955" lon="12.5086546491014"><ele>329.6666666666667</ele><time>2026-05-04T06:52:35Z</time></trkpt><trkpt lat="43.871305874742134" lon="12.50859649630792"><ele>332.5</ele><time>2026-05-04T06:52:36Z</time></trkpt><trkpt lat="43.87124875687834" lon="12.508539762856513"><ele>335.33333333333337</ele><time>2026-05-04T06:52:37Z</time></trkpt><trkpt lat="43.871186772008485" lon="12.508476839979448"><ele>338.1666666666667</ele><time>2026-05-04T06:52:38Z</time></trkpt><trkpt lat="43.871122817845624" lon="12.50842200596209"><ele>341.0</ele><time>2026-05-04T06:52:39Z</time></trkpt><trkpt lat="43.87104518827505" lon="12.508388328350689"><ele>341.0</ele><time>2026-05-04T06:52:40Z</time></trkpt><trkpt lat="43.87097024781044" lon="12.50835954905258"><ele>341.0</ele><time>2026-05-04T06:52:41Z</time></trkpt><trkpt lat="43.870891335733965" lon="12.508338937469782"><ele>341.0</ele><time>2026-05-04T06:52:42Z</time></trkpt><trkpt lat="43.870801659546856" lon="12.508316477645115"><ele>341.0</ele><time>2026-05-04T06:52:43Z</time></trkpt><trkpt lat="43.87073326360682" lon="12.508296419505866"><ele>341.0</ele><time>2026-05-04T06:52:44Z</time></trkpt><trkpt lat="43.87064117627005" lon="12.50827156716262"><ele>341.0</ele><time>2026-05-04T06:52:45Z</time></trkpt><trkpt lat="43.87055514849108" lon="12.5082017849732"><ele>342.6666666666667</ele><time>2026-05-04T06:52:46Z</time></trkpt><trkpt lat="43.870467248980496" lon="12.508160301023903"><ele>344.33333333333337</ele><time>2026-05-04T06:52:47Z</time></trkpt><trkpt lat="43.8703895209851" lon="12.508119994242536"><ele>346.0</ele><time>2026-05-04T06:52:48Z</time></trkpt><trkpt lat="43.87032677780856" lon="12.508066883757039"><ele>347.6666666666667</ele><time>2026-05-04T06:52:49Z</time></trkpt><trkpt lat="43.8702747268056" lon="12.508016463703767"><ele>349.3333333333333</ele><time>2026-05-04T06:52:50Z</time></trkpt><trkpt lat="43.87018011990488" lon="12.507933605781583"><ele>351.0</ele><time>2026-05-04T06:52:52Z</time></trkpt><trkpt lat="43.87008876687887" lon="12.50777952965216"><ele>353.8</ele><time>2026-05-04T06:52:54Z</time></trkpt><trkpt lat="43.87001950209576" lon="12.507715944758319"><ele>356.6</ele><time>2026-05-04T06:52:55Z</time></trkpt><trkpt lat="43.86994237703042" lon="12.507655520387175"><ele>359.4</ele><time>2026-05-04T06:52:56Z</time></trkpt><trkpt lat="43.86986268913815" lon="12.507601016550526"><ele>362.2</ele><time>2026-05-04T06:52:57Z</time></trkpt><trkpt lat="43.86977786005916" lon="12.507552163998977"><ele>365.0</ele><time>2026-05-04T06:52:58Z</time></trkpt><trkpt lat="43.86968702723519" lon="12.507486087820169"><ele>365.0</ele><time>2026-05-04T06:52:59Z</time></trkpt><trkpt lat="43.86959107329931" lon="12.507415707018437"><ele>365.0</ele><time>2026-05-04T06:53:00Z</time></trkpt><trkpt lat="43.86948853908036" lon="12.507342928418495"><ele>365.0</ele><time>2026-05-04T06:53:01Z</time></trkpt><trkpt lat="43.86937376257077" lon="12.507299295175445"><ele>365.0</ele><time>2026-05-04T06:53:02Z</time></trkpt><trkpt lat="43.86926822113159" lon="12.507236750577242"><ele>366.0</ele><time>2026-05-04T06:53:03Z</time></trkpt><trkpt lat="43.869158384464505" lon="12.507189856480707"><ele>367.0</ele><time>2026-05-04T06:53:04Z</time></trkpt><trkpt lat="43.86904106630992" lon="12.507145138451337"><ele>368.0</ele><time>2026-05-04T06:53:05Z</time></trkpt><trkpt lat="43.86892102860087" lon="12.507097978571391"><ele>369.0</ele><time>2026-05-04T06:53:06Z</time></trkpt><trkpt lat="43.868798839694804" lon="12.507061876015928"><ele>369.4</ele><time>2026-05-04T06:53:07Z</time></trkpt><trkpt lat="43.86868113654584" lon="12.507022324777228"><ele>369.79999999999995</ele><time>2026-05-04T06:53:08Z</time></trkpt><trkpt lat="43.86858299574625" lon="12.506981099748126"><ele>370.20000000000005</ele><time>2026-05-04T06:53:09Z</time></trkpt><trkpt lat="43.868505782899696" lon="12.506904180446506"><ele>370.6</ele><time>2026-05-04T06:53:10Z</time></trkpt><trkpt lat="43.86844310471362" lon="12.506812794732557"><ele>371.0</ele><time>2026-05-04T06:53:11Z</time></trkpt><trkpt lat="43.868381620012585" lon="12.50671749958535"><ele>373.33333333333337</ele><time>2026-05-04T06:53:12Z</time></trkpt><trkpt lat="43.86830746324008" lon="12.506625788360834"><ele>375.6666666666667</ele><time>2026-05-04T06:53:13Z</time></trkpt><trkpt lat="43.86823534687786" lon="12.506519852438812"><ele>378.0</ele><time>2026-05-04T06:53:14Z</time></trkpt><trkpt lat="43.868167633416746" lon="12.506429511474236"><ele>380.33333333333337</ele><time>2026-05-04T06:53:15Z</time></trkpt><trkpt lat="43.8681088871009" lon="12.50636637578724"><ele>382.6666666666667</ele><time>2026-05-04T06:53:16Z</time></trkpt><trkpt lat="43.868054875447974" lon="12.506300224702825"><ele>385.0</ele><time>2026-05-04T06:53:17Z</time></trkpt><trkpt lat="43.867983034945475" lon="12.506318145193843"><ele>385.00000000000006</ele><time>2026-05-04T06:53:18Z</time></trkpt><trkpt lat="43.867920697418924" lon="12.506351085668406"><ele>385.0</ele><time>2026-05-04T06:53:19Z</time></trkpt><trkpt lat="43.867858102060296" lon="12.50642181884359"><ele>385.0</ele><time>2026-05-04T06:53:20Z</time></trkpt><trkpt lat="43.86778782557382" lon="12.506472064741162"><ele>385.0</ele><time>2026-05-04T06:53:21Z</time></trkpt><trkpt lat="43.86771807779821" lon="12.5064491038569"><ele>385.00000000000006</ele><time>2026-05-04T06:53:22Z</time></trkpt><trkpt lat="43.86761193251877" lon="12.50637757799657"><ele>385.0</ele><time>2026-05-04T06:53:24Z</time></trkpt><trkpt lat="43.867598332283926" lon="12.506273321820776"><ele>387.8</ele><time>2026-05-04T06:53:25Z</time></trkpt><trkpt lat="43.86748263547172" lon="12.506241554422646"><ele>390.6</ele><time>2026-05-04T06:53:26Z</time></trkpt><trkpt lat="43.867384449050235" lon="12.506174974135606"><ele>393.4</ele><time>2026-05-04T06:53:27Z</time></trkpt><trkpt lat="43.86728573068321" lon="12.506121826672832"><ele>396.2</ele><time>2026-05-04T06:53:28Z</time></trkpt><trkpt lat="43.86719155602917" lon="12.506074435249905"><ele>399.0</ele><time>2026-05-04T06:53:29Z</time></trkpt><trkpt lat="43.867095310404004" lon="12.506033472078625"><ele>399.0</ele><time>2026-05-04T06:53:30Z</time></trkpt><trkpt lat="43.866997186223706" lon="12.506014620823619"><ele>399.0</ele><time>2026-05-04T06:53:31Z</time></trkpt><trkpt lat="43.86689894007803" lon="12.506033384086985"><ele>399.0</ele><time>2026-05-04T06:53:32Z</time></trkpt><trkpt lat="43.86680356341009" lon="12.506088753648287"><ele>399.0</ele><time>2026-05-04T06:53:33Z</time></trkpt><trkpt lat="43.86671090180034" lon="12.506180830821355"><ele>399.0</ele><time>2026-05-04T06:53:34Z</time></trkpt><trkpt lat="43.8666222951865" lon="12.50629343749462"><ele>399.8333333333333</ele><time>2026-05-04T06:53:35Z</time></trkpt><trkpt lat="43.86655322801246" lon="12.506409075088268"><ele>400.66666666666663</ele><time>2026-05-04T06:53:36Z</time></trkpt><trkpt lat="43.86649439418231" lon="12.506501839259473"><ele>401.5</ele><time>2026-05-04T06:53:37Z</time></trkpt><trkpt lat="43.86643869896264" lon="12.506584778916812"><ele>402.3333333333333</ele><time>2026-05-04T06:53:38Z</time></trkpt><trkpt lat="43.86638695621082" lon="12.506660087977288"><ele>403.16666666666663</ele><time>2026-05-04T06:53:39Z</time></trkpt><trkpt lat="43.86633223186817" lon="12.506743715444891"><ele>404.0</ele><time>2026-05-04T06:53:40Z</time></trkpt><trkpt lat="43.866278025646935" lon="12.506824041779447"><ele>403.99999999999994</ele><time>2026-05-04T06:53:41Z</time></trkpt><trkpt lat="43.86622273390342" lon="12.506901493215098"><ele>404.0</ele><time>2026-05-04T06:53:42Z</time></trkpt><trkpt lat="43.86616954011918" lon="12.506976285659908"><ele>404.0</ele><time>2026-05-04T06:53:43Z</time></trkpt><trkpt lat="43.86610723037092" lon="12.507058807149248"><ele>404.0</ele><time>2026-05-04T06:53:44Z</time></trkpt><trkpt lat="43.86604801878458" lon="12.507133175174317"><ele>403.99999999999994</ele><time>2026-05-04T06:53:45Z</time></trkpt><trkpt lat="43.86598080714898" lon="12.507194883867959"><ele>404.0</ele><time>2026-05-04T06:53:46Z</time></trkpt><trkpt lat="43.86589873713629" lon="12.507238912022537"><ele>403.8333333333333</ele><time>2026-05-04T06:53:47Z</time></trkpt><trkpt lat="43.865806678101634" lon="12.507276364994217"><ele>403.66666666666663</ele><time>2026-05-04T06:53:48Z</time></trkpt><trkpt lat="43.86571571323136" lon="12.507295357593906"><ele>403.5</ele><time>2026-05-04T06:53:49Z</time></trkpt><trkpt lat="43.86564048676628" lon="12.50727477694326"><ele>403.33333333333337</ele><time>2026-05-04T06:53:50Z</time></trkpt><trkpt lat="43.865571409351546" lon="12.507224510145624"><ele>403.1666666666667</ele><time>2026-05-04T06:53:51Z</time></trkpt><trkpt lat="43.86552060554874" lon="12.507139118363575"><ele>403.0</ele><time>2026-05-04T06:53:52Z</time></trkpt><trkpt lat="43.865494560551554" lon="12.507018020007576"><ele>405.59999999999997</ele><time>2026-05-04T06:53:53Z</time></trkpt><trkpt lat="43.86549886813529" lon="12.506894379885571"><ele>408.2</ele><time>2026-05-04T06:53:54Z</time></trkpt><trkpt lat="43.86554373151086" lon="12.50677059322991"><ele>410.8</ele><time>2026-05-04T06:53:55Z</time></trkpt><trkpt lat="43.86559109805164" lon="12.506655326587016"><ele>413.4</ele><time>2026-05-04T06:53:56Z</time></trkpt><trkpt lat="43.86563760907972" lon="12.50653666025242"><ele>416.0</ele><time>2026-05-04T06:53:57Z</time></trkpt><trkpt lat="43.865677710990695" lon="12.50641394488466"><ele>415.99999999999994</ele><time>2026-05-04T06:53:58Z</time></trkpt><trkpt lat="43.86571255613744" lon="12.50629020624543"><ele>416.0</ele><time>2026-05-04T06:53:59Z</time></trkpt><trkpt lat="43.86574113750101" lon="12.50617414917727"><ele>416.0</ele><time>2026-05-04T06:54:00Z</time></trkpt><trkpt lat="43.86575690110858" lon="12.506061702775568"><ele>416.0</ele><time>2026-05-04T06:54:01Z</time></trkpt><trkpt lat="43.86574994744557" lon="12.505950179263431"><ele>415.99999999999994</ele><time>2026-05-04T06:54:02Z</time></trkpt><trkpt lat="43.86571396878778" lon="12.505835146959898"><ele>416.0</ele><time>2026-05-04T06:54:03Z</time></trkpt><trkpt lat="43.8656532970405" lon="12.505738959406578"><ele>417.0</ele><time>2026-05-04T06:54:04Z</time></trkpt><trkpt lat="43.86556761443617" lon="12.505661494762226"><ele>418.0</ele><time>2026-05-04T06:54:05Z</time></trkpt><trkpt lat="43.865470308603506" lon="12.505614779742864"><ele>419.0</ele><time>2026-05-04T06:54:06Z</time></trkpt><trkpt lat="43.86535812349173" lon="12.505579971476463"><ele>420.0</ele><time>2026-05-04T06:54:07Z</time></trkpt><trkpt lat="43.86523960975369" lon="12.505553885483694"><ele>421.0</ele><time>2026-05-04T06:54:08Z</time></trkpt><trkpt lat="43.86512307846478" lon="12.505528629089325"><ele>422.5</ele><time>2026-05-04T06:54:09Z</time></trkpt><trkpt lat="43.86500443813472" lon="12.50550688943495"><ele>424.0</ele><time>2026-05-04T06:54:10Z</time></trkpt><trkpt lat="43.86489236953252" lon="12.505480505385636"><ele>425.5</ele><time>2026-05-04T06:54:11Z</time></trkpt><trkpt lat="43.864779897336575" lon="12.505454547538198"><ele>427.0</ele><time>2026-05-04T06:54:12Z</time></trkpt><trkpt lat="43.86467443945928" lon="12.50542961193511"><ele>426.25</ele><time>2026-05-04T06:54:13Z</time></trkpt><trkpt lat="43.864564082056724" lon="12.505403873235052"><ele>425.5</ele><time>2026-05-04T06:54:14Z</time></trkpt><trkpt lat="43.864451008529294" lon="12.50538069500159"><ele>424.75</ele><time>2026-05-04T06:54:15Z</time></trkpt><trkpt lat="43.864336178716115" lon="12.505353071655422"><ele>424.0</ele><time>2026-05-04T06:54:16Z</time></trkpt><trkpt lat="43.8642262445335" lon="12.50532179279942"><ele>425.75</ele><time>2026-05-04T06:54:17Z</time></trkpt><trkpt lat="43.864112107548515" lon="12.505289618480072"><ele>427.5</ele><time>2026-05-04T06:54:18Z</time></trkpt><trkpt lat="43.86399775875244" lon="12.505259697439818"><ele>429.25</ele><time>2026-05-04T06:54:19Z</time></trkpt><trkpt lat="43.86388372290241" lon="12.505229484309151"><ele>431.0</ele><time>2026-05-04T06:54:20Z</time></trkpt><trkpt lat="43.863768322640105" lon="12.505209193852222"><ele>430.99999999999994</ele><time>2026-05-04T06:54:21Z</time></trkpt><trkpt lat="43.863664511794966" lon="12.505193193985642"><ele>431.0</ele><time>2026-05-04T06:54:22Z</time></trkpt><trkpt lat="43.8635729174811" lon="12.505187754613905"><ele>431.0</ele><time>2026-05-04T06:54:23Z</time></trkpt><trkpt lat="43.86350059647123" lon="12.505205500704925"><ele>431.0</ele><time>2026-05-04T06:54:24Z</time></trkpt><trkpt lat="43.86342098424084" lon="12.505246453622473"><ele>430.99999999999994</ele><time>2026-05-04T06:54:25Z</time></trkpt><trkpt lat="43.863349400016" lon="12.505308667968764"><ele>431.0</ele><time>2026-05-04T06:54:26Z</time></trkpt><trkpt lat="43.863275589920136" lon="12.505382842684478"><ele>433.8</ele><time>2026-05-04T06:54:27Z</time></trkpt><trkpt lat="43.863199611130376" lon="12.50548019486498"><ele>436.6</ele><time>2026-05-04T06:54:28Z</time></trkpt><trkpt lat="43.86313259144876" lon="12.505588232172046"><ele>439.4</ele><time>2026-05-04T06:54:29Z</time></trkpt><trkpt lat="43.863072429686206" lon="12.505704218352138"><ele>442.2</ele><time>2026-05-04T06:54:30Z</time></trkpt><trkpt lat="43.86301833405665" lon="12.50582303460096"><ele>445.0</ele><time>2026-05-04T06:54:31Z</time></trkpt><trkpt lat="43.86296363763324" lon="12.505935443075794"><ele>445.00000000000006</ele><time>2026-05-04T06:54:32Z</time></trkpt><trkpt lat="43.86290497747996" lon="12.50602803959468"><ele>445.0</ele><time>2026-05-04T06:54:33Z</time></trkpt><trkpt lat="43.86284965107639" lon="12.506097702588661"><ele>445.0</ele><time>2026-05-04T06:54:34Z</time></trkpt><trkpt lat="43.86277302030881" lon="12.50613390186589"><ele>445.0</ele><time>2026-05-04T06:54:35Z</time></trkpt><trkpt lat="43.862686365871475" lon="12.506130015969697"><ele>445.00000000000006</ele><time>2026-05-04T06:54:36Z</time></trkpt><trkpt lat="43.8625982793953" lon="12.506083743706288"><ele>445.0</ele><time>2026-05-04T06:54:37Z</time></trkpt><trkpt lat="43.86251043291147" lon="12.506006816465401"><ele>447.0</ele><time>2026-05-04T06:54:38Z</time></trkpt><trkpt lat="43.86241841164306" lon="12.50592941528285"><ele>449.0</ele><time>2026-05-04T06:54:39Z</time></trkpt><trkpt lat="43.86232776565247" lon="12.50588204373538"><ele>451.0</ele><time>2026-05-04T06:54:40Z</time></trkpt><trkpt lat="43.862224669812065" lon="12.505854592451335"><ele>453.0</ele><time>2026-05-04T06:54:41Z</time></trkpt><trkpt lat="43.8621152677994" lon="12.505838184862304"><ele>455.0</ele><time>2026-05-04T06:54:42Z</time></trkpt><trkpt lat="43.86199842167694" lon="12.505832941151379"><ele>455.0</ele><time>2026-05-04T06:54:43Z</time></trkpt><trkpt lat="43.861873613802665" lon="12.505833553182354"><ele>455.0</ele><time>2026-05-04T06:54:44Z</time></trkpt><trkpt lat="43.86174696892871" lon="12.505843426444404"><ele>455.0</ele><time>2026-05-04T06:54:45Z</time></trkpt><trkpt lat="43.86161962826173" lon="12.50585742521626"><ele>455.0</ele><time>2026-05-04T06:54:46Z</time></trkpt><trkpt lat="43.86149282697568" lon="12.505865221463663"><ele>456.25</ele><time>2026-05-04T06:54:47Z</time></trkpt><trkpt lat="43.86137113055656" lon="12.505859533160463"><ele>457.5</ele><time>2026-05-04T06:54:48Z</time></trkpt><trkpt lat="43.86125764982968" lon="12.505850729414675"><ele>458.75</ele><time>2026-05-04T06:54:49Z</time></trkpt><trkpt lat="43.861134806377436" lon="12.505837139949298"><ele>460.0</ele><time>2026-05-04T06:54:50Z</time></trkpt><trkpt lat="43.86101425712726" lon="12.505821691747592"><ele>462.0</ele><time>2026-05-04T06:54:51Z</time></trkpt><trkpt lat="43.860890432011594" lon="12.5058057998434"><ele>464.0</ele><time>2026-05-04T06:54:52Z</time></trkpt><trkpt lat="43.86076649039331" lon="12.505780717235332"><ele>466.0</ele><time>2026-05-04T06:54:53Z</time></trkpt><trkpt lat="43.86064079056526" lon="12.505779452813474"><ele>468.0</ele><time>2026-05-04T06:54:54Z</time></trkpt><trkpt lat="43.86051654868498" lon="12.505791333547373"><ele>468.0</ele><time>2026-05-04T06:54:55Z</time></trkpt><trkpt lat="43.86039144034136" lon="12.505806238652434"><ele>468.0</ele><time>2026-05-04T06:54:56Z</time></trkpt><trkpt lat="43.8602691011167" lon="12.505833874549186"><ele>468.0</ele><time>2026-05-04T06:54:57Z</time></trkpt><trkpt lat="43.86015066809486" lon="12.505863767580031"><ele>468.0</ele><time>2026-05-04T06:54:58Z</time></trkpt><trkpt lat="43.86005329713211" lon="12.505897834680598"><ele>470.59999999999997</ele><time>2026-05-04T06:54:59Z</time></trkpt><trkpt lat="43.85997254486973" lon="12.505937760444105"><ele>473.19999999999993</ele><time>2026-05-04T06:55:00Z</time></trkpt><trkpt lat="43.8599046970333" lon="12.50597679715902"><ele>475.8</ele><time>2026-05-04T06:55:01Z</time></trkpt><trkpt lat="43.85984264453959" lon="12.50602135083896"><ele>478.4</ele><time>2026-05-04T06:55:02Z</time></trkpt><trkpt lat="43.859738294567045" lon="12.506048942812894"><ele>481.0</ele><time>2026-05-04T06:55:04Z</time></trkpt><trkpt lat="43.85966540697766" lon="12.505916571242292"><ele>481.00000000000006</ele><time>2026-05-04T06:55:06Z</time></trkpt><trkpt lat="43.859640147925695" lon="12.50581240112246"><ele>481.0</ele><time>2026-05-04T06:55:07Z</time></trkpt><trkpt lat="43.85961769071897" lon="12.50571429121474"><ele>481.0</ele><time>2026-05-04T06:55:08Z</time></trkpt><trkpt lat="43.859580630819146" lon="12.505618723903334"><ele>481.0</ele><time>2026-05-04T06:55:09Z</time></trkpt><trkpt lat="43.85953713765514" lon="12.505502798783928"><ele>481.00000000000006</ele><time>2026-05-04T06:55:10Z</time></trkpt><trkpt lat="43.859491625806704" lon="12.50538208332126"><ele>481.0</ele><time>2026-05-04T06:55:11Z</time></trkpt><trkpt lat="43.859450216248575" lon="12.505280874499489"><ele>482.4</ele><time>2026-05-04T06:55:12Z</time></trkpt><trkpt lat="43.859406547973116" lon="12.505151134455186"><ele>483.8</ele><time>2026-05-04T06:55:13Z</time></trkpt><trkpt lat="43.85936046918795" lon="12.505021208021258"><ele>485.19999999999993</ele><time>2026-05-04T06:55:14Z</time></trkpt><trkpt lat="43.85930949887911" lon="12.50487725324349"><ele>486.59999999999997</ele><time>2026-05-04T06:55:15Z</time></trkpt><trkpt lat="43.85925744404918" lon="12.504738523757414"><ele>488.0</ele><time>2026-05-04T06:55:16Z</time></trkpt><trkpt lat="43.85920819119431" lon="12.504590642726782"><ele>484.0</ele><time>2026-05-04T06:55:17Z</time></trkpt><trkpt lat="43.85915783012789" lon="12.504446074433387"><ele>480.0</ele><time>2026-05-04T06:55:18Z</time></trkpt><trkpt lat="43.85911576493433" lon="12.504275306863798"><ele>476.0</ele><time>2026-05-04T06:55:19Z</time></trkpt><trkpt lat="43.859093950266484" lon="12.504116486836628"><ele>472.0</ele><time>2026-05-04T06:55:20Z</time></trkpt><trkpt lat="43.8590790588876" lon="12.503971265206847"><ele>472.00000000000006</ele><time>2026-05-04T06:55:21Z</time></trkpt><trkpt lat="43.85906168800354" lon="12.503845898817154"><ele>472.0</ele><time>2026-05-04T06:55:22Z</time></trkpt><trkpt lat="43.859039835158136" lon="12.503727794581126"><ele>472.0</ele><time>2026-05-04T06:55:23Z</time></trkpt><trkpt lat="43.85902421021261" lon="12.503628290500043"><ele>472.0</ele><time>2026-05-04T06:55:24Z</time></trkpt><trkpt lat="43.859034810623186" lon="12.503513397385722"><ele>472.00000000000006</ele><time>2026-05-04T06:55:25Z</time></trkpt><trkpt lat="43.859075324383696" lon="12.503391624587406"><ele>472.0</ele><time>2026-05-04T06:55:26Z</time></trkpt><trkpt lat="43.859133352913226" lon="12.503268117489073"><ele>472.0</ele><time>2026-05-04T06:55:27Z</time></trkpt><trkpt lat="43.85919723273054" lon="12.503133791372205"><ele>472.00000000000006</ele><time>2026-05-04T06:55:28Z</time></trkpt><trkpt lat="43.859254898931816" lon="12.502996298190963"><ele>472.00000000000006</ele><time>2026-05-04T06:55:29Z</time></trkpt><trkpt lat="43.85929959784892" lon="12.50288045640571"><ele>472.0</ele><time>2026-05-04T06:55:30Z</time></trkpt><trkpt lat="43.859345754355694" lon="12.502777156484619"><ele>472.0</ele><time>2026-05-04T06:55:31Z</time></trkpt><trkpt lat="43.85938512526903" lon="12.502690979915513"><ele>469.1666666666667</ele><time>2026-05-04T06:55:32Z</time></trkpt><trkpt lat="43.85943374000582" lon="12.502596053175083"><ele>466.33333333333337</ele><time>2026-05-04T06:55:33Z</time></trkpt><trkpt lat="43.85948345366623" lon="12.502515850586178"><ele>463.5</ele><time>2026-05-04T06:55:34Z</time></trkpt><trkpt lat="43.85954229219381" lon="12.502440607635277"><ele>460.66666666666663</ele><time>2026-05-04T06:55:35Z</time></trkpt><trkpt lat="43.85961266712984" lon="12.50238224332862"><ele>457.8333333333333</ele><time>2026-05-04T06:55:36Z</time></trkpt><trkpt lat="43.859683400421524" lon="12.502335405379732"><ele>455.0</ele><time>2026-05-04T06:55:37Z</time></trkpt><trkpt lat="43.8597564975637" lon="12.50229814480717"><ele>455.0</ele><time>2026-05-04T06:55:38Z</time></trkpt><trkpt lat="43.85982195958664" lon="12.502266279975645"><ele>455.0</ele><time>2026-05-04T06:55:39Z</time></trkpt><trkpt lat="43.85989099861593" lon="12.502229014776482"><ele>455.0</ele><time>2026-05-04T06:55:40Z</time></trkpt><trkpt lat="43.859957501570456" lon="12.502178813230934"><ele>455.0</ele><time>2026-05-04T06:55:41Z</time></trkpt><trkpt lat="43.86001186779997" lon="12.502102976885336"><ele>455.0</ele><time>2026-05-04T06:55:42Z</time></trkpt><trkpt lat="43.8600512135096" lon="12.50202712755877"><ele>455.0</ele><time>2026-05-04T06:55:43Z</time></trkpt><trkpt lat="43.86007582258273" lon="12.501937971686418"><ele>455.0</ele><time>2026-05-04T06:55:44Z</time></trkpt><trkpt lat="43.86011198117556" lon="12.501856932464367"><ele>454.66666666666663</ele><time>2026-05-04T06:55:45Z</time></trkpt><trkpt lat="43.86010422311585" lon="12.50176184084389"><ele>454.3333333333333</ele><time>2026-05-04T06:55:46Z</time></trkpt><trkpt lat="43.86007725558192" lon="12.50166177374899"><ele>454.0</ele><time>2026-05-04T06:55:47Z</time></trkpt><trkpt lat="43.86003735365012" lon="12.501558277910497"><ele>453.66666666666663</ele><time>2026-05-04T06:55:48Z</time></trkpt><trkpt lat="43.85999362311035" lon="12.501443030774055"><ele>453.3333333333333</ele><time>2026-05-04T06:55:49Z</time></trkpt><trkpt lat="43.85996536183662" lon="12.501318770303692"><ele>453.0</ele><time>2026-05-04T06:55:50Z</time></trkpt><trkpt lat="43.859955836307975" lon="12.50118384426343"><ele>451.8333333333333</ele><time>2026-05-04T06:55:51Z</time></trkpt><trkpt lat="43.85996453648906" lon="12.501052952066873"><ele>450.66666666666663</ele><time>2026-05-04T06:55:52Z</time></trkpt><trkpt lat="43.85998738292052" lon="12.500933903926825"><ele>449.5</ele><time>2026-05-04T06:55:53Z</time></trkpt><trkpt lat="43.86001055595555" lon="12.500821352527897"><ele>448.3333333333333</ele><time>2026-05-04T06:55:54Z</time></trkpt><trkpt lat="43.860039231486375" lon="12.500712332403431"><ele>447.16666666666663</ele><time>2026-05-04T06:55:55Z</time></trkpt><trkpt lat="43.86006809769321" lon="12.500609966737484"><ele>446.0</ele><time>2026-05-04T06:55:56Z</time></trkpt><trkpt lat="43.860082433129115" lon="12.500511471154326"><ele>445.3333333333333</ele><time>2026-05-04T06:55:57Z</time></trkpt><trkpt lat="43.860080293309736" lon="12.50041030604697"><ele>444.66666666666663</ele><time>2026-05-04T06:55:58Z</time></trkpt><trkpt lat="43.86006277366627" lon="12.500324659493636"><ele>444.0</ele><time>2026-05-04T06:55:59Z</time></trkpt><trkpt lat="43.86001928715676" lon="12.500253333692461"><ele>443.33333333333337</ele><time>2026-05-04T06:56:00Z</time></trkpt><trkpt lat="43.85995404974083" lon="12.500192725714271"><ele>442.6666666666667</ele><time>2026-05-04T06:56:01Z</time></trkpt><trkpt lat="43.85987896470376" lon="12.500152081888245"><ele>442.0</ele><time>2026-05-04T06:56:02Z</time></trkpt><trkpt lat="43.85979571774565" lon="12.500120023367925"><ele>442.0</ele><time>2026-05-04T06:56:03Z</time></trkpt><trkpt lat="43.85970570178626" lon="12.500096860359912"><ele>442.00000000000006</ele><time>2026-05-04T06:56:04Z</time></trkpt><trkpt lat="43.859613733816374" lon="12.500078724161762"><ele>442.00000000000006</ele><time>2026-05-04T06:56:05Z</time></trkpt><trkpt lat="43.85951115626976" lon="12.500064644056605"><ele>442.0</ele><time>2026-05-04T06:56:06Z</time></trkpt><trkpt lat="43.85940863325799" lon="12.500043090153587"><ele>442.0</ele><time>2026-05-04T06:56:07Z</time></trkpt><trkpt lat="43.859305011047866" lon="12.50002092327718"><ele>441.6</ele><time>2026-05-04T06:56:08Z</time></trkpt><trkpt lat="43.85920215556344" lon="12.499998444654018"><ele>441.20000000000005</ele><time>2026-05-04T06:56:09Z</time></trkpt><trkpt lat="43.85910025995767" lon="12.499965725386511"><ele>440.8</ele><time>2026-05-04T06:56:10Z</time></trkpt><trkpt lat="43.85900217743958" lon="12.499895207934612"><ele>440.4</ele><time>2026-05-04T06:56:11Z</time></trkpt><trkpt lat="43.858922339689656" lon="12.499804650767071"><ele>440.0</ele><time>2026-05-04T06:56:12Z</time></trkpt><trkpt lat="43.858843741736244" lon="12.499710276214115"><ele>439.99999999999994</ele><time>2026-05-04T06:56:13Z</time></trkpt><trkpt lat="43.858769937065574" lon="12.499616132928189"><ele>440.0</ele><time>2026-05-04T06:56:14Z</time></trkpt><trkpt lat="43.858713189160746" lon="12.499514265015854"><ele>440.0</ele><time>2026-05-04T06:56:15Z</time></trkpt><trkpt lat="43.85868321116968" lon="12.499398320302909"><ele>440.0</ele><time>2026-05-04T06:56:16Z</time></trkpt><trkpt lat="43.858654845946376" lon="12.499288833010338"><ele>439.99999999999994</ele><time>2026-05-04T06:56:17Z</time></trkpt><trkpt lat="43.8586225351662" lon="12.499185085593709"><ele>440.0</ele><time>2026-05-04T06:56:18Z</time></trkpt><trkpt lat="43.858596883322" lon="12.499089282195694"><ele>437.4</ele><time>2026-05-04T06:56:19Z</time></trkpt><trkpt lat="43.85857034101306" lon="12.498985918377619"><ele>434.8</ele><time>2026-05-04T06:56:20Z</time></trkpt><trkpt lat="43.85854508282765" lon="12.498866273841598"><ele>432.20000000000005</ele><time>2026-05-04T06:56:21Z</time></trkpt><trkpt lat="43.858540593386735" lon="12.498725615541854"><ele>429.6</ele><time>2026-05-04T06:56:22Z</time></trkpt><trkpt lat="43.85856046318794" lon="12.4985966739526"><ele>427.0</ele><time>2026-05-04T06:56:23Z</time></trkpt><trkpt lat="43.85859933164524" lon="12.498479735592545"><ele>427.00000000000006</ele><time>2026-05-04T06:56:24Z</time></trkpt><trkpt lat="43.85862657133238" lon="12.49837260056009"><ele>427.0</ele><time>2026-05-04T06:56:25Z</time></trkpt><trkpt lat="43.85863926967752" lon="12.49826873366267"><ele>427.0</ele><time>2026-05-04T06:56:26Z</time></trkpt><trkpt lat="43.85859753207801" lon="12.49812335989692"><ele>427.0</ele><time>2026-05-04T06:56:28Z</time></trkpt><trkpt lat="43.85853739792579" lon="12.498085805740544"><ele>427.00000000000006</ele><time>2026-05-04T06:56:29Z</time></trkpt><trkpt lat="43.85845077185129" lon="12.498062293727598"><ele>427.0</ele><time>2026-05-04T06:56:30Z</time></trkpt><trkpt lat="43.858350623677524" lon="12.498033400867362"><ele>427.0</ele><time>2026-05-04T06:56:31Z</time></trkpt><trkpt lat="43.85824145931968" lon="12.49800985887013"><ele>427.00000000000006</ele><time>2026-05-04T06:56:32Z</time></trkpt><trkpt lat="43.858138106975325" lon="12.497968318363714"><ele>427.00000000000006</ele><time>2026-05-04T06:56:33Z</time></trkpt><trkpt lat="43.858040168256416" lon="12.497925246597614"><ele>427.0</ele><time>2026-05-04T06:56:34Z</time></trkpt><trkpt lat="43.857950128462164" lon="12.497864341589255"><ele>427.0</ele><time>2026-05-04T06:56:35Z</time></trkpt><trkpt lat="43.857866338135906" lon="12.497784321998367"><ele>426.8</ele><time>2026-05-04T06:56:36Z</time></trkpt><trkpt lat="43.857793337305715" lon="12.497691546918016"><ele>426.6</ele><time>2026-05-04T06:56:37Z</time></trkpt><trkpt lat="43.857721311959814" lon="12.497591168745538"><ele>426.40000000000003</ele><time>2026-05-04T06:56:38Z</time></trkpt><trkpt lat="43.85764146447635" lon="12.49749313253562"><ele>426.20000000000005</ele><time>2026-05-04T06:56:39Z</time></trkpt><trkpt lat="43.8575551695372" lon="12.497404098622582"><ele>426.0</ele><time>2026-05-04T06:56:40Z</time></trkpt><trkpt lat="43.85747696352948" lon="12.497305541879829"><ele>426.0</ele><time>2026-05-04T06:56:41Z</time></trkpt><trkpt lat="43.857422466800415" lon="12.49720518415542"><ele>426.0</ele><time>2026-05-04T06:56:42Z</time></trkpt><trkpt lat="43.85738547908027" lon="12.49708784305814"><ele>426.0</ele><time>2026-05-04T06:56:43Z</time></trkpt><trkpt lat="43.85737004508893" lon="12.496942654986274"><ele>426.0</ele><time>2026-05-04T06:56:44Z</time></trkpt><trkpt lat="43.85735508340087" lon="12.49678259942433"><ele>426.0</ele><time>2026-05-04T06:56:45Z</time></trkpt><trkpt lat="43.85733016645332" lon="12.496626101625937"><ele>425.0</ele><time>2026-05-04T06:56:46Z</time></trkpt><trkpt lat="43.85730097733895" lon="12.496476797639717"><ele>424.0</ele><time>2026-05-04T06:56:47Z</time></trkpt><trkpt lat="43.857262877978066" lon="12.496348499651267"><ele>423.0</ele><time>2026-05-04T06:56:48Z</time></trkpt><trkpt lat="43.85722963148467" lon="12.496256806877515"><ele>422.0</ele><time>2026-05-04T06:56:49Z</time></trkpt><trkpt lat="43.85714227347865" lon="12.496145515136117"><ele>421.0</ele><time>2026-05-04T06:56:51Z</time></trkpt><trkpt lat="43.85708612390866" lon="12.496086974979947"><ele>420.1666666666667</ele><time>2026-05-04T06:56:52Z</time></trkpt><trkpt lat="43.85702435056689" lon="12.49601149951381"><ele>419.33333333333337</ele><time>2026-05-04T06:56:53Z</time></trkpt><trkpt lat="43.856976223706816" lon="12.495927856844007"><ele>418.5</ele><time>2026-05-04T06:56:54Z</time></trkpt><trkpt lat="43.8569178785653" lon="12.495851484254471"><ele>417.66666666666663</ele><time>2026-05-04T06:56:55Z</time></trkpt><trkpt lat="43.85684919903401" lon="12.495779134364176"><ele>416.8333333333333</ele><time>2026-05-04T06:56:56Z</time></trkpt><trkpt lat="43.85676849217237" lon="12.495705050119028"><ele>416.0</ele><time>2026-05-04T06:56:57Z</time></trkpt><trkpt lat="43.856677869667" lon="12.495628545703255"><ele>416.0</ele><time>2026-05-04T06:56:58Z</time></trkpt><trkpt lat="43.85657856633237" lon="12.495549356694315"><ele>416.0</ele><time>2026-05-04T06:56:59Z</time></trkpt><trkpt lat="43.85647742605759" lon="12.495462469538099"><ele>416.0</ele><time>2026-05-04T06:57:00Z</time></trkpt><trkpt lat="43.85637940758313" lon="12.495381079672221"><ele>416.0</ele><time>2026-05-04T06:57:01Z</time></trkpt><trkpt lat="43.85628806767789" lon="12.4953018836961"><ele>416.0</ele><time>2026-05-04T06:57:02Z</time></trkpt><trkpt lat="43.85620256975315" lon="12.495230385667863"><ele>416.0</ele><time>2026-05-04T06:57:03Z</time></trkpt><trkpt lat="43.85611544118105" lon="12.495169629174907"><ele>416.0</ele><time>2026-05-04T06:57:04Z</time></trkpt><trkpt lat="43.85602621039037" lon="12.495133575562845"><ele>416.0</ele><time>2026-05-04T06:57:05Z</time></trkpt><trkpt lat="43.85592236666854" lon="12.495118463786921"><ele>416.0</ele><time>2026-05-04T06:57:06Z</time></trkpt><trkpt lat="43.855803551287494" lon="12.495105703605768"><ele>418.5</ele><time>2026-05-04T06:57:07Z</time></trkpt><trkpt lat="43.85568053485862" lon="12.495095902271146"><ele>421.0</ele><time>2026-05-04T06:57:08Z</time></trkpt><trkpt lat="43.85556137665505" lon="12.495085592281956"><ele>423.5</ele><time>2026-05-04T06:57:09Z</time></trkpt><trkpt lat="43.855443051174724" lon="12.495074955407581"><ele>426.0</ele><time>2026-05-04T06:57:10Z</time></trkpt><trkpt lat="43.855324842734696" lon="12.495058170105802"><ele>426.0</ele><time>2026-05-04T06:57:11Z</time></trkpt><trkpt lat="43.855203822805066" lon="12.495028268625237"><ele>426.0</ele><time>2026-05-04T06:57:12Z</time></trkpt><trkpt lat="43.855084896668934" lon="12.494982523052409"><ele>426.0</ele><time>2026-05-04T06:57:13Z</time></trkpt><trkpt lat="43.85496713304972" lon="12.494924017380606"><ele>426.0</ele><time>2026-05-04T06:57:14Z</time></trkpt><trkpt lat="43.85485831970529" lon="12.494867434796111"><ele>428.20000000000005</ele><time>2026-05-04T06:57:15Z</time></trkpt><trkpt lat="43.85475832240545" lon="12.494819357785031"><ele>430.40000000000003</ele><time>2026-05-04T06:57:16Z</time></trkpt><trkpt lat="43.854662480909994" lon="12.494781890390684"><ele>432.6</ele><time>2026-05-04T06:57:17Z</time></trkpt><trkpt lat="43.85458886611615" lon="12.494770255560143"><ele>434.8</ele><time>2026-05-04T06:57:18Z</time></trkpt><trkpt lat="43.85447726741779" lon="12.494832954533804"><ele>437.0</ele><time>2026-05-04T06:57:20Z</time></trkpt><trkpt lat="43.85443919524779" lon="12.49490249013472"><ele>436.99999999999994</ele><time>2026-05-04T06:57:21Z</time></trkpt><trkpt lat="43.85439459456057" lon="12.49505416387509"><ele>437.0</ele><time>2026-05-04T06:57:23Z</time></trkpt><trkpt lat="43.85435058112713" lon="12.495137363168864"><ele>437.0</ele><time>2026-05-04T06:57:24Z</time></trkpt><trkpt lat="43.854290743926526" lon="12.49519237963828"><ele>437.0</ele><time>2026-05-04T06:57:25Z</time></trkpt><trkpt lat="43.8542207961654" lon="12.49519836394613"><ele>436.99999999999994</ele><time>2026-05-04T06:57:26Z</time></trkpt><trkpt lat="43.85414395036233" lon="12.495176581881559"><ele>437.0</ele><time>2026-05-04T06:57:27Z</time></trkpt><trkpt lat="43.85405397256158" lon="12.495137020133258"><ele>439.99999999999994</ele><time>2026-05-04T06:57:28Z</time></trkpt><trkpt lat="43.85394678682933" lon="12.495105189021475"><ele>443.0</ele><time>2026-05-04T06:57:29Z</time></trkpt><trkpt lat="43.85384556152152" lon="12.495087895075237"><ele>446.0</ele><time>2026-05-04T06:57:30Z</time></trkpt><trkpt lat="43.85375850333847" lon="12.495073665524947"><ele>449.0</ele><time>2026-05-04T06:57:31Z</time></trkpt><trkpt lat="43.85368914152376" lon="12.495081595376973"><ele>451.99999999999994</ele><time>2026-05-04T06:57:32Z</time></trkpt><trkpt lat="43.85362212248951" lon="12.495105237960507"><ele>455.0</ele><time>2026-05-04T06:57:33Z</time></trkpt><trkpt lat="43.8535275901125" lon="12.495215304579341"><ele>455.0</ele><time>2026-05-04T06:57:35Z</time></trkpt><trkpt lat="43.85347222022285" lon="12.495374728819684"><ele>455.0</ele><time>2026-05-04T06:57:37Z</time></trkpt><trkpt lat="43.8533954692225" lon="12.49546368689276"><ele>455.0</ele><time>2026-05-04T06:57:39Z</time></trkpt><trkpt lat="43.85333237912427" lon="12.49546909358394"><ele>455.0</ele><time>2026-05-04T06:57:40Z</time></trkpt><trkpt lat="43.85325547556928" lon="12.495467208371933"><ele>455.0</ele><time>2026-05-04T06:57:41Z</time></trkpt><trkpt lat="43.85317367843019" lon="12.495470685119287"><ele>458.99999999999994</ele><time>2026-05-04T06:57:42Z</time></trkpt><trkpt lat="43.85309466996404" lon="12.495475866708423"><ele>463.0</ele><time>2026-05-04T06:57:43Z</time></trkpt><trkpt lat="43.853019498304654" lon="12.495478139749444"><ele>467.0</ele><time>2026-05-04T06:57:44Z</time></trkpt><trkpt lat="43.85293537234674" lon="12.495489049751711"><ele>471.0</ele><time>2026-05-04T06:57:45Z</time></trkpt><trkpt lat="43.852857653417374" lon="12.495510280819106"><ele>474.99999999999994</ele><time>2026-05-04T06:57:46Z</time></trkpt><trkpt lat="43.852785803602565" lon="12.495542478664698"><ele>479.0</ele><time>2026-05-04T06:57:47Z</time></trkpt><trkpt lat="43.85271726785469" lon="12.495594549161726"><ele>478.99999999999994</ele><time>2026-05-04T06:57:48Z</time></trkpt><trkpt lat="43.85265418293855" lon="12.495662702698088"><ele>479.0</ele><time>2026-05-04T06:57:49Z</time></trkpt><trkpt lat="43.85258820466015" lon="12.495734026800923"><ele>479.0</ele><time>2026-05-04T06:57:50Z</time></trkpt><trkpt lat="43.85252668660678" lon="12.495796756672833"><ele>479.0</ele><time>2026-05-04T06:57:51Z</time></trkpt><trkpt lat="43.85246087265822" lon="12.495857595887564"><ele>478.99999999999994</ele><time>2026-05-04T06:57:52Z</time></trkpt><trkpt lat="43.85237534966123" lon="12.49591795078303"><ele>479.0</ele><time>2026-05-04T06:57:53Z</time></trkpt><trkpt lat="43.85229534990957" lon="12.495956892789499"><ele>480.8333333333333</ele><time>2026-05-04T06:57:54Z</time></trkpt><trkpt lat="43.85221413409668" lon="12.495978692267938"><ele>482.66666666666663</ele><time>2026-05-04T06:57:55Z</time></trkpt><trkpt lat="43.85213252861673" lon="12.495999277144497"><ele>484.5</ele><time>2026-05-04T06:57:56Z</time></trkpt><trkpt lat="43.85204231882413" lon="12.496020670757495"><ele>486.33333333333337</ele><time>2026-05-04T06:57:57Z</time></trkpt><trkpt lat="43.851945936863984" lon="12.49603153082716"><ele>488.1666666666667</ele><time>2026-05-04T06:57:58Z</time></trkpt><trkpt lat="43.851855620687246" lon="12.496040187016364"><ele>490.0</ele><time>2026-05-04T06:57:59Z</time></trkpt><trkpt lat="43.851774468848504" lon="12.496050345887127"><ele>491.2</ele><time>2026-05-04T06:58:00Z</time></trkpt><trkpt lat="43.85169243187525" lon="12.496069881339409"><ele>492.4</ele><time>2026-05-04T06:58:01Z</time></trkpt><trkpt lat="43.85159834812325" lon="12.496116358043857"><ele>493.6</ele><time>2026-05-04T06:58:03Z</time></trkpt><trkpt lat="43.85153811850112" lon="12.496159399804482"><ele>494.8</ele><time>2026-05-04T07:01:44Z</time></trkpt><trkpt lat="43.85147246685779" lon="12.496089111788043"><ele>496.0</ele><time>2026-05-04T07:01:49Z</time></trkpt><trkpt lat="43.85143580019999" lon="12.49590867579171"><ele>496.00000000000006</ele><time>2026-05-04T07:01:51Z</time></trkpt><trkpt lat="43.8514522757883" lon="12.495802991176932"><ele>496.0</ele><time>2026-05-04T07:01:52Z</time></trkpt><trkpt lat="43.85141845974723" lon="12.49564865190389"><ele>496.0</ele><time>2026-05-04T07:01:54Z</time></trkpt><trkpt lat="43.85139800248251" lon="12.495562272699582"><ele>496.0</ele><time>2026-05-04T07:01:55Z</time></trkpt><trkpt lat="43.851362260650774" lon="12.495477261859303"><ele>496.00000000000006</ele><time>2026-05-04T07:01:56Z</time></trkpt><trkpt lat="43.85132873931925" lon="12.495390081454751"><ele>496.0</ele><time>2026-05-04T07:01:57Z</time></trkpt><trkpt lat="43.851307343732245" lon="12.495280611854717"><ele>494.50000000000006</ele><time>2026-05-04T07:01:58Z</time></trkpt><trkpt lat="43.85127264928032" lon="12.495181180717616"><ele>493.0</ele><time>2026-05-04T07:01:59Z</time></trkpt><trkpt lat="43.85123811795532" lon="12.49507538262274"><ele>491.5</ele><time>2026-05-04T07:02:00Z</time></trkpt><trkpt lat="43.851218334618906" lon="12.494969563506743"><ele>490.0</ele><time>2026-05-04T07:02:01Z</time></trkpt><trkpt lat="43.85120423235665" lon="12.494847216894238"><ele>488.50000000000006</ele><time>2026-05-04T07:02:02Z</time></trkpt><trkpt lat="43.85119974899659" lon="12.494724666955356"><ele>487.0</ele><time>2026-05-04T07:02:03Z</time></trkpt><trkpt lat="43.85119837394615" lon="12.49459376953821"><ele>485.6666666666667</ele><time>2026-05-04T07:02:04Z</time></trkpt><trkpt lat="43.85118113315867" lon="12.49446785031003"><ele>484.33333333333337</ele><time>2026-05-04T07:02:05Z</time></trkpt><trkpt lat="43.851167514672724" lon="12.494347054307113"><ele>483.0</ele><time>2026-05-04T07:02:06Z</time></trkpt><trkpt lat="43.85114274616353" lon="12.494237350658112"><ele>481.66666666666663</ele><time>2026-05-04T07:02:07Z</time></trkpt><trkpt lat="43.851123129622934" lon="12.494127296541699"><ele>480.3333333333333</ele><time>2026-05-04T07:02:08Z</time></trkpt><trkpt lat="43.85113165196681" lon="12.494024681984628"><ele>479.0</ele><time>2026-05-04T07:02:09Z</time></trkpt><trkpt lat="43.85112123465516" lon="12.493935199595299"><ele>479.0</ele><time>2026-05-04T07:02:10Z</time></trkpt><trkpt lat="43.851082679550764" lon="12.493822125628295"><ele>479.0</ele><time>2026-05-04T07:02:11Z</time></trkpt><trkpt lat="43.85104303843556" lon="12.493683631373255"><ele>479.0</ele><time>2026-05-04T07:02:12Z</time></trkpt><trkpt lat="43.85102724365346" lon="12.493545266991832"><ele>479.0</ele><time>2026-05-04T07:02:13Z</time></trkpt><trkpt lat="43.8510208815287" lon="12.493437860315781"><ele>479.0</ele><time>2026-05-04T07:02:14Z</time></trkpt><trkpt lat="43.85100630810358" lon="12.493323882644578"><ele>479.6</ele><time>2026-05-04T07:02:15Z</time></trkpt><trkpt lat="43.85096916077751" lon="12.493219900366487"><ele>480.2</ele><time>2026-05-04T07:02:16Z</time></trkpt><trkpt lat="43.85092065631508" lon="12.493096458006596"><ele>480.80000000000007</ele><time>2026-05-04T07:02:17Z</time></trkpt><trkpt lat="43.8508600987557" lon="12.492991782537635"><ele>481.40000000000003</ele><time>2026-05-04T07:02:18Z</time></trkpt><trkpt lat="43.850816301522876" lon="12.492882921814614"><ele>482.0</ele><time>2026-05-04T07:02:19Z</time></trkpt><trkpt lat="43.8507702716197" lon="12.492780732051637"><ele>482.0</ele><time>2026-05-04T07:02:20Z</time></trkpt><trkpt lat="43.85074169547751" lon="12.492700789507698"><ele>482.00000000000006</ele><time>2026-05-04T07:02:21Z</time></trkpt><trkpt lat="43.85068380633406" lon="12.492525816133472"><ele>482.00000000000006</ele><time>2026-05-04T07:02:23Z</time></trkpt><trkpt lat="43.850658174016765" lon="12.492412396722127"><ele>482.0</ele><time>2026-05-04T07:02:24Z</time></trkpt><trkpt lat="43.85063856918814" lon="12.492294936241278"><ele>482.0</ele><time>2026-05-04T07:02:25Z</time></trkpt><trkpt lat="43.85061084021573" lon="12.49217788100518"><ele>481.3333333333333</ele><time>2026-05-04T07:02:26Z</time></trkpt><trkpt lat="43.85054326789869" lon="12.492074830031859"><ele>480.66666666666663</ele><time>2026-05-04T07:02:27Z</time></trkpt><trkpt lat="43.850509759358694" lon="12.4919568972545"><ele>480.0</ele><time>2026-05-04T07:02:28Z</time></trkpt><trkpt lat="43.85048583361917" lon="12.491864093572847"><ele>479.33333333333337</ele><time>2026-05-04T07:02:29Z</time></trkpt><trkpt lat="43.8504863269096" lon="12.491738239875048"><ele>478.6666666666667</ele><time>2026-05-04T07:02:31Z</time></trkpt><trkpt lat="43.850479727591804" lon="12.49160881419024"><ele>478.0</ele><time>2026-05-04T07:02:33Z</time></trkpt><trkpt lat="43.850441670211055" lon="12.491449841508016"><ele>478.00000000000006</ele><time>2026-05-04T07:02:35Z</time></trkpt><trkpt lat="43.85043679641073" lon="12.491351694884727"><ele>478.0</ele><time>2026-05-04T07:02:36Z</time></trkpt><trkpt lat="43.850420048355446" lon="12.4912528329136"><ele>478.0</ele><time>2026-05-04T07:02:37Z</time></trkpt><trkpt lat="43.85040462689171" lon="12.491161801664742"><ele>478.0</ele><time>2026-05-04T07:02:38Z</time></trkpt><trkpt lat="43.85038849128659" lon="12.491062536260895"><ele>478.00000000000006</ele><time>2026-05-04T07:02:39Z</time></trkpt><trkpt lat="43.8503621322878" lon="12.490955384792224"><ele>478.0</ele><time>2026-05-04T07:02:40Z</time></trkpt><trkpt lat="43.85035175198643" lon="12.490834073430838"><ele>477.83333333333337</ele><time>2026-05-04T07:02:41Z</time></trkpt><trkpt lat="43.850340623031286" lon="12.490718280487732"><ele>477.6666666666667</ele><time>2026-05-04T07:02:42Z</time></trkpt><trkpt lat="43.850273160693334" lon="12.490633796384865"><ele>477.5</ele><time>2026-05-04T07:02:43Z</time></trkpt><trkpt lat="43.8502429655144" lon="12.490514597954368"><ele>477.33333333333337</ele><time>2026-05-04T07:02:44Z</time></trkpt><trkpt lat="43.85021101595093" lon="12.490412172934603"><ele>477.1666666666667</ele><time>2026-05-04T07:02:45Z</time></trkpt><trkpt lat="43.85018381133177" lon="12.490299370426595"><ele>477.0</ele><time>2026-05-04T07:02:46Z</time></trkpt><trkpt lat="43.8501448771125" lon="12.490129800150243"><ele>478.0</ele><time>2026-05-04T07:02:47Z</time></trkpt><trkpt lat="43.85009397611846" lon="12.489974278194785"><ele>479.00000000000006</ele><time>2026-05-04T07:02:48Z</time></trkpt><trkpt lat="43.85004512961732" lon="12.489837500687324"><ele>480.00000000000006</ele><time>2026-05-04T07:02:49Z</time></trkpt><trkpt lat="43.85001840881814" lon="12.489706121060808"><ele>481.0</ele><time>2026-05-04T07:02:50Z</time></trkpt><trkpt lat="43.849991689975475" lon="12.48960103769582"><ele>482.0</ele><time>2026-05-04T07:02:51Z</time></trkpt><trkpt lat="43.849954251164746" lon="12.489492934316974"><ele>482.6</ele><time>2026-05-04T07:02:52Z</time></trkpt><trkpt lat="43.84993819637036" lon="12.489396962792007"><ele>483.20000000000005</ele><time>2026-05-04T07:02:53Z</time></trkpt><trkpt lat="43.84990416056372" lon="12.489242229998771"><ele>483.8</ele><time>2026-05-04T07:02:55Z</time></trkpt><trkpt lat="43.84987057451041" lon="12.48916267873015"><ele>484.4</ele><time>2026-05-04T07:02:56Z</time></trkpt><trkpt lat="43.84979985301173" lon="12.489015204381452"><ele>485.0</ele><time>2026-05-04T07:02:58Z</time></trkpt><trkpt lat="43.84975756393994" lon="12.48889429262017"><ele>484.99999999999994</ele><time>2026-05-04T07:02:59Z</time></trkpt><trkpt lat="43.84972720984587" lon="12.488802950213907"><ele>485.0</ele><time>2026-05-04T07:03:00Z</time></trkpt><trkpt lat="43.84972507431752" lon="12.488704129239595"><ele>485.0</ele><time>2026-05-04T07:03:01Z</time></trkpt><trkpt lat="43.84969560334752" lon="12.488580214729351"><ele>485.0</ele><time>2026-05-04T07:03:02Z</time></trkpt><trkpt lat="43.849662499991325" lon="12.48847103331083"><ele>484.99999999999994</ele><time>2026-05-04T07:03:03Z</time></trkpt><trkpt lat="43.84960191775047" lon="12.488381952438086"><ele>485.0</ele><time>2026-05-04T07:03:04Z</time></trkpt><trkpt lat="43.8495762642043" lon="12.488281518921584"><ele>484.8333333333333</ele><time>2026-05-04T07:03:05Z</time></trkpt><trkpt lat="43.8495655571814" lon="12.488185750592356"><ele>484.66666666666663</ele><time>2026-05-04T07:03:06Z</time></trkpt><trkpt lat="43.849571909403494" lon="12.488081697311019"><ele>484.5</ele><time>2026-05-04T07:03:07Z</time></trkpt><trkpt lat="43.84958247358623" lon="12.487980854476575"><ele>484.33333333333337</ele><time>2026-05-04T07:03:08Z</time></trkpt><trkpt lat="43.849599505613966" lon="12.487881998978196"><ele>484.1666666666667</ele><time>2026-05-04T07:03:09Z</time></trkpt><trkpt lat="43.84963044818982" lon="12.48780539620034"><ele>484.0</ele><time>2026-05-04T07:03:10Z</time></trkpt><trkpt lat="43.84975637880294" lon="12.487691779070769"><ele>484.00000000000006</ele><time>2026-05-04T07:03:12Z</time></trkpt><trkpt lat="43.84983984525572" lon="12.487631872607558"><ele>484.0</ele><time>2026-05-04T07:03:13Z</time></trkpt><trkpt lat="43.84990128995016" lon="12.487585590600796"><ele>484.0</ele><time>2026-05-04T07:03:14Z</time></trkpt><trkpt lat="43.849968996644265" lon="12.487484830573768"><ele>484.0</ele><time>2026-05-04T07:03:16Z</time></trkpt><trkpt lat="43.85000213300484" lon="12.48737062783523"><ele>484.00000000000006</ele><time>2026-05-04T07:03:18Z</time></trkpt><trkpt lat="43.85001806297472" lon="12.48727813953831"><ele>484.0</ele><time>2026-05-04T07:03:19Z</time></trkpt><trkpt lat="43.850026502509216" lon="12.487170155575942"><ele>486.0</ele><time>2026-05-04T07:03:20Z</time></trkpt><trkpt lat="43.85001146518676" lon="12.486992285877026"><ele>488.0</ele><time>2026-05-04T07:03:22Z</time></trkpt><trkpt lat="43.849993789358585" lon="12.486881064165944"><ele>490.0</ele><time>2026-05-04T07:03:23Z</time></trkpt><trkpt lat="43.849977555223596" lon="12.486738689646668"><ele>492.0</ele><time>2026-05-04T07:03:24Z</time></trkpt><trkpt lat="43.849970710787666" lon="12.486600113477664"><ele>494.0</ele><time>2026-05-04T07:03:25Z</time></trkpt><trkpt lat="43.8499625513653" lon="12.486467500348665"><ele>494.0</ele><time>2026-05-04T07:03:26Z</time></trkpt><trkpt lat="43.84995413756783" lon="12.486371218537064"><ele>494.0</ele><time>2026-05-04T07:03:27Z</time></trkpt><trkpt lat="43.84996241850972" lon="12.486227972265358"><ele>494.0</ele><time>2026-05-04T07:03:29Z</time></trkpt><trkpt lat="43.84994395506133" lon="12.486084863222931"><ele>494.0</ele><time>2026-05-04T07:03:31Z</time></trkpt><trkpt lat="43.84992169420193" lon="12.485924558402195"><ele>494.0</ele><time>2026-05-04T07:03:33Z</time></trkpt><trkpt lat="43.8499035958634" lon="12.485814064908999"><ele>495.66666666666663</ele><time>2026-05-04T07:03:34Z</time></trkpt><trkpt lat="43.84988447091195" lon="12.48569730382759"><ele>497.3333333333333</ele><time>2026-05-04T07:03:35Z</time></trkpt><trkpt lat="43.849853635936995" lon="12.485611583630552"><ele>499.0</ele><time>2026-05-04T07:03:36Z</time></trkpt><trkpt lat="43.84982992137729" lon="12.485458378541434"><ele>500.66666666666663</ele><time>2026-05-04T07:03:38Z</time></trkpt><trkpt lat="43.84981586573362" lon="12.485313914196649"><ele>502.3333333333333</ele><time>2026-05-04T07:03:40Z</time></trkpt><trkpt lat="43.84981571216515" lon="12.485216080201688"><ele>504.0</ele><time>2026-05-04T07:03:41Z</time></trkpt><trkpt lat="43.84981185597772" lon="12.485106801164388"><ele>505.8333333333333</ele><time>2026-05-04T07:03:42Z</time></trkpt><trkpt lat="43.84980692508486" lon="12.48500271455497"><ele>507.66666666666663</ele><time>2026-05-04T07:03:43Z</time></trkpt><trkpt lat="43.84980175896066" lon="12.48490777008406"><ele>509.5</ele><time>2026-05-04T07:03:44Z</time></trkpt><trkpt lat="43.84983414620491" lon="12.484817204052435"><ele>511.3333333333333</ele><time>2026-05-04T07:03:45Z</time></trkpt><trkpt lat="43.849839799267116" lon="12.484707405585299"><ele>513.1666666666666</ele><time>2026-05-04T07:03:46Z</time></trkpt><trkpt lat="43.84984778354526" lon="12.484587670835891"><ele>515.0</ele><time>2026-05-04T07:03:47Z</time></trkpt><trkpt lat="43.84983150729859" lon="12.484468806813394"><ele>516.3333333333333</ele><time>2026-05-04T07:03:48Z</time></trkpt><trkpt lat="43.849836175207265" lon="12.484364857908199"><ele>517.6666666666666</ele><time>2026-05-04T07:03:49Z</time></trkpt><trkpt lat="43.84984193815761" lon="12.48427715807775"><ele>519.0</ele><time>2026-05-04T07:03:50Z</time></trkpt><trkpt lat="43.84984640568043" lon="12.484188021081643"><ele>520.3333333333334</ele><time>2026-05-04T07:03:51Z</time></trkpt><trkpt lat="43.84985762253679" lon="12.484087117926137"><ele>521.6666666666667</ele><time>2026-05-04T07:03:52Z</time></trkpt><trkpt lat="43.84988851534012" lon="12.483918514336077"><ele>523.0</ele><time>2026-05-04T07:03:54Z</time></trkpt><trkpt lat="43.84992825314674" lon="12.48384603509622"><ele>523.1666666666667</ele><time>2026-05-04T07:03:55Z</time></trkpt><trkpt lat="43.849948354824484" lon="12.483737401634661"><ele>523.3333333333334</ele><time>2026-05-04T07:03:56Z</time></trkpt><trkpt lat="43.850008390496086" lon="12.48365449817878"><ele>523.5</ele><time>2026-05-04T07:03:57Z</time></trkpt><trkpt lat="43.850064886635266" lon="12.48354286097598"><ele>523.6666666666666</ele><time>2026-05-04T07:03:58Z</time></trkpt><trkpt lat="43.85009576532262" lon="12.483437776509398"><ele>523.8333333333333</ele><time>2026-05-04T07:03:59Z</time></trkpt><trkpt lat="43.85014171112203" lon="12.483340381939088"><ele>524.0</ele><time>2026-05-04T07:04:00Z</time></trkpt><trkpt lat="43.8501696009023" lon="12.483236297013809"><ele>522.8333333333333</ele><time>2026-05-04T07:04:01Z</time></trkpt><trkpt lat="43.850182863133725" lon="12.48311856489057"><ele>521.6666666666666</ele><time>2026-05-04T07:04:02Z</time></trkpt><trkpt lat="43.850199945054996" lon="12.48300238161716"><ele>520.5</ele><time>2026-05-04T07:04:03Z</time></trkpt><trkpt lat="43.85024247914573" lon="12.48290066965421"><ele>519.3333333333334</ele><time>2026-05-04T07:04:04Z</time></trkpt><trkpt lat="43.85026093090671" lon="12.482799005096593"><ele>518.1666666666667</ele><time>2026-05-04T07:04:05Z</time></trkpt><trkpt lat="43.850322045470236" lon="12.482702589611236"><ele>517.0</ele><time>2026-05-04T07:04:06Z</time></trkpt><trkpt lat="43.85035586083769" lon="12.482583155888442"><ele>520.2</ele><time>2026-05-04T07:04:07Z</time></trkpt><trkpt lat="43.85040504663459" lon="12.482465167416105"><ele>523.4000000000001</ele><time>2026-05-04T07:04:08Z</time></trkpt><trkpt lat="43.85044895911593" lon="12.482347831427616"><ele>526.5999999999999</ele><time>2026-05-04T07:04:09Z</time></trkpt><trkpt lat="43.850495410472945" lon="12.482232238418877"><ele>529.8</ele><time>2026-05-04T07:04:10Z</time></trkpt><trkpt lat="43.850530345531105" lon="12.482140298738358"><ele>533.0</ele><time>2026-05-04T07:04:11Z</time></trkpt><trkpt lat="43.850566295597" lon="12.482022326417521"><ele>534.3333333333333</ele><time>2026-05-04T07:04:13Z</time></trkpt><trkpt lat="43.850529894374944" lon="12.48193380377971"><ele>535.6666666666666</ele><time>2026-05-04T07:04:16Z</time></trkpt><trkpt lat="43.85041533450633" lon="12.48186429867788"><ele>537.0</ele><time>2026-05-04T07:04:18Z</time></trkpt><trkpt lat="43.85035188433109" lon="12.48182645084938"><ele>538.3333333333334</ele><time>2026-05-04T07:04:19Z</time></trkpt><trkpt lat="43.85026432866718" lon="12.481721561069309"><ele>539.6666666666667</ele><time>2026-05-04T07:04:21Z</time></trkpt><trkpt lat="43.850216918657836" lon="12.481659141352253"><ele>541.0</ele><time>2026-05-04T07:04:22Z</time></trkpt><trkpt lat="43.85010989446574" lon="12.481579732699531"><ele>541.0</ele><time>2026-05-04T07:04:24Z</time></trkpt><trkpt lat="43.85002877026099" lon="12.481472764216086"><ele>541.0</ele><time>2026-05-04T07:04:26Z</time></trkpt><trkpt lat="43.84999768848756" lon="12.481317448114947"><ele>541.0</ele><time>2026-05-04T07:04:28Z</time></trkpt><trkpt lat="43.84998762921985" lon="12.481207284043958"><ele>541.0</ele><time>2026-05-04T07:04:29Z</time></trkpt><trkpt lat="43.84996582557477" lon="12.481105550974176"><ele>541.0</ele><time>2026-05-04T07:04:30Z</time></trkpt><trkpt lat="43.8499195588065" lon="12.481017845595657"><ele>543.5</ele><time>2026-05-04T07:04:31Z</time></trkpt><trkpt lat="43.849869850914914" lon="12.480924841668491"><ele>546.0</ele><time>2026-05-04T07:04:32Z</time></trkpt><trkpt lat="43.849792181204684" lon="12.480852084369733"><ele>548.5</ele><time>2026-05-04T07:04:33Z</time></trkpt><trkpt lat="43.849713704623454" lon="12.480791934211071"><ele>551.0</ele><time>2026-05-04T07:04:34Z</time></trkpt><trkpt lat="43.849648475089765" lon="12.480744039569691"><ele>553.5</ele><time>2026-05-04T07:04:35Z</time></trkpt><trkpt lat="43.84958597299436" lon="12.48071580754267"><ele>556.0</ele><time>2026-05-04T07:04:36Z</time></trkpt><trkpt lat="43.84952619117546" lon="12.4806883669035"><ele>556.0</ele><time>2026-05-04T07:04:37Z</time></trkpt><trkpt lat="43.8494578889407" lon="12.480581717716015"><ele>556.0</ele><time>2026-05-04T07:04:39Z</time></trkpt><trkpt lat="43.849409251380266" lon="12.480433251108666"><ele>556.0</ele><time>2026-05-04T07:04:41Z</time></trkpt><trkpt lat="43.84934571808682" lon="12.480339561357011"><ele>556.0</ele><time>2026-05-04T07:04:42Z</time></trkpt><trkpt lat="43.84927333871655" lon="12.480269097351583"><ele>556.0</ele><time>2026-05-04T07:04:43Z</time></trkpt><trkpt lat="43.849208038482004" lon="12.480202855270552"><ele>554.1666666666667</ele><time>2026-05-04T07:04:44Z</time></trkpt><trkpt lat="43.849145432309044" lon="12.480129558329887"><ele>552.3333333333334</ele><time>2026-05-04T07:04:45Z</time></trkpt><trkpt lat="43.84908666764862" lon="12.480052721916842"><ele>550.5</ele><time>2026-05-04T07:04:46Z</time></trkpt><trkpt lat="43.849023154326915" lon="12.479958551082548"><ele>548.6666666666666</ele><time>2026-05-04T07:04:47Z</time></trkpt><trkpt lat="43.84894569271891" lon="12.479874507083206"><ele>546.8333333333333</ele><time>2026-05-04T07:04:48Z</time></trkpt><trkpt lat="43.84887443625774" lon="12.47978817151566"><ele>545.0</ele><time>2026-05-04T07:04:49Z</time></trkpt><trkpt lat="43.848807924276386" lon="12.47970097202803"><ele>545.0</ele><time>2026-05-04T07:04:50Z</time></trkpt><trkpt lat="43.84874242311318" lon="12.479618752825608"><ele>545.0</ele><time>2026-05-04T07:04:51Z</time></trkpt><trkpt lat="43.84868767582663" lon="12.479541622340717"><ele>545.0</ele><time>2026-05-04T07:04:52Z</time></trkpt><trkpt lat="43.8486172960551" lon="12.479451249286988"><ele>545.0</ele><time>2026-05-04T07:04:53Z</time></trkpt><trkpt lat="43.84854566244011" lon="12.479370629340611"><ele>545.0</ele><time>2026-05-04T07:04:54Z</time></trkpt><trkpt lat="43.848472121760175" lon="12.479301462228467"><ele>545.0</ele><time>2026-05-04T07:04:55Z</time></trkpt><trkpt lat="43.84838213535927" lon="12.479230257967556"><ele>543.4</ele><time>2026-05-04T07:04:56Z</time></trkpt><trkpt lat="43.84828672893678" lon="12.479134060713815"><ele>541.8</ele><time>2026-05-04T07:04:57Z</time></trkpt><trkpt lat="43.84820388420709" lon="12.479021975091596"><ele>540.2</ele><time>2026-05-04T07:04:58Z</time></trkpt><trkpt lat="43.84814595468132" lon="12.47890640750607"><ele>538.6</ele><time>2026-05-04T07:04:59Z</time></trkpt><trkpt lat="43.848082099484536" lon="12.478813047140134"><ele>537.0</ele><time>2026-05-04T07:05:00Z</time></trkpt><trkpt lat="43.8480195020711" lon="12.478740288211613"><ele>535.6</ele><time>2026-05-04T07:05:01Z</time></trkpt><trkpt lat="43.84793660447056" lon="12.478666385708838"><ele>534.2</ele><time>2026-05-04T07:05:02Z</time></trkpt><trkpt lat="43.84785766538914" lon="12.478590133127383"><ele>532.8</ele><time>2026-05-04T07:05:03Z</time></trkpt><trkpt lat="43.84779355972239" lon="12.478517156441141"><ele>531.4</ele><time>2026-05-04T07:05:04Z</time></trkpt><trkpt lat="43.847733952930255" lon="12.478427875835012"><ele>530.0</ele><time>2026-05-04T07:05:05Z</time></trkpt><trkpt lat="43.847679932351085" lon="12.478334781996297"><ele>530.0</ele><time>2026-05-04T07:05:06Z</time></trkpt><trkpt lat="43.847630008242135" lon="12.478238317972696"><ele>530.0</ele><time>2026-05-04T07:05:07Z</time></trkpt><trkpt lat="43.84757978706351" lon="12.478156534036817"><ele>530.0</ele><time>2026-05-04T07:05:08Z</time></trkpt><trkpt lat="43.847535775535114" lon="12.478082674021286"><ele>530.0</ele><time>2026-05-04T07:05:09Z</time></trkpt><trkpt lat="43.84748277348681" lon="12.477918204738977"><ele>530.0</ele><time>2026-05-04T07:05:11Z</time></trkpt><trkpt lat="43.84746495354154" lon="12.477830469972142"><ele>530.0</ele><time>2026-05-04T07:05:12Z</time></trkpt><trkpt lat="43.847421501205076" lon="12.477685157087256"><ele>528.5</ele><time>2026-05-04T07:05:14Z</time></trkpt><trkpt lat="43.847334213726846" lon="12.47760153016009"><ele>527.0</ele><time>2026-05-04T07:05:16Z</time></trkpt><trkpt lat="43.84726463858022" lon="12.477582227865149"><ele>525.5</ele><time>2026-05-04T07:05:17Z</time></trkpt><trkpt lat="43.84718776549877" lon="12.477582093000143"><ele>524.0</ele><time>2026-05-04T07:05:18Z</time></trkpt><trkpt lat="43.84710470209018" lon="12.477592964732317"><ele>522.5</ele><time>2026-05-04T07:05:19Z</time></trkpt><trkpt lat="43.84701768816812" lon="12.477602732755583"><ele>521.0</ele><time>2026-05-04T07:05:20Z</time></trkpt><trkpt lat="43.84693137620605" lon="12.477598021354245"><ele>521.0</ele><time>2026-05-04T07:05:21Z</time></trkpt><trkpt lat="43.84683742155492" lon="12.4775848587882"><ele>521.0</ele><time>2026-05-04T07:05:22Z</time></trkpt><trkpt lat="43.84675123332373" lon="12.477574347387204"><ele>521.0</ele><time>2026-05-04T07:05:23Z</time></trkpt><trkpt lat="43.846656189773896" lon="12.477544622863133"><ele>521.0</ele><time>2026-05-04T07:05:24Z</time></trkpt><trkpt lat="43.84657591507501" lon="12.477503041502946"><ele>521.0</ele><time>2026-05-04T07:05:25Z</time></trkpt><trkpt lat="43.846498879166724" lon="12.477448710514443"><ele>520.3333333333333</ele><time>2026-05-04T07:05:26Z</time></trkpt><trkpt lat="43.84641661112919" lon="12.477375371631323"><ele>519.6666666666666</ele><time>2026-05-04T07:05:27Z</time></trkpt><trkpt lat="43.84635659051779" lon="12.47730975053426"><ele>519.0</ele><time>2026-05-04T07:05:28Z</time></trkpt><trkpt lat="43.84630007911463" lon="12.47723233711676"><ele>518.3333333333334</ele><time>2026-05-04T07:05:29Z</time></trkpt><trkpt lat="43.84627180323369" lon="12.4771507969838"><ele>517.6666666666667</ele><time>2026-05-04T07:05:30Z</time></trkpt><trkpt lat="43.846262569405305" lon="12.477055533500486"><ele>517.0</ele><time>2026-05-04T07:05:31Z</time></trkpt><trkpt lat="43.84625694970395" lon="12.476915979776857"><ele>515.4</ele><time>2026-05-04T07:05:32Z</time></trkpt><trkpt lat="43.8462517629941" lon="12.476792389380119"><ele>513.8000000000001</ele><time>2026-05-04T07:05:33Z</time></trkpt><trkpt lat="43.84625662617916" lon="12.476651516829996"><ele>512.2</ele><time>2026-05-04T07:05:34Z</time></trkpt><trkpt lat="43.84625057229714" lon="12.476525446220549"><ele>510.6</ele><time>2026-05-04T07:05:35Z</time></trkpt><trkpt lat="43.84622935237619" lon="12.476419083666809"><ele>509.0</ele><time>2026-05-04T07:05:36Z</time></trkpt><trkpt lat="43.84618724231614" lon="12.476298410049115"><ele>508.4</ele><time>2026-05-04T07:05:37Z</time></trkpt><trkpt lat="43.84614031651728" lon="12.476171800043293"><ele>507.79999999999995</ele><time>2026-05-04T07:05:38Z</time></trkpt><trkpt lat="43.84610677907421" lon="12.476064961133316"><ele>507.20000000000005</ele><time>2026-05-04T07:05:39Z</time></trkpt><trkpt lat="43.84606209579081" lon="12.475955913242606"><ele>506.6</ele><time>2026-05-04T07:05:40Z</time></trkpt><trkpt lat="43.84600928744613" lon="12.475855475026531"><ele>506.0</ele><time>2026-05-04T07:05:41Z</time></trkpt><trkpt lat="43.84594943611494" lon="12.475763732518963"><ele>505.99999999999994</ele><time>2026-05-04T07:05:42Z</time></trkpt><trkpt lat="43.84588075958318" lon="12.475681886839999"><ele>506.0</ele><time>2026-05-04T07:05:43Z</time></trkpt><trkpt lat="43.84581219435996" lon="12.475625411009405"><ele>506.0</ele><time>2026-05-04T07:05:44Z</time></trkpt><trkpt lat="43.84575723764921" lon="12.475580470272144"><ele>506.0</ele><time>2026-05-04T07:05:45Z</time></trkpt><trkpt lat="43.84567023478002" lon="12.475481869750315"><ele>505.99999999999994</ele><time>2026-05-04T07:05:47Z</time></trkpt><trkpt lat="43.84563862636912" lon="12.475371362792046"><ele>506.0</ele><time>2026-05-04T07:05:49Z</time></trkpt><trkpt lat="43.84564191492428" lon="12.475261700770364"><ele>504.8333333333333</ele><time>2026-05-04T07:05:52Z</time></trkpt><trkpt lat="43.845722632676825" lon="12.475182832029697"><ele>503.66666666666663</ele><time>2026-05-04T07:05:56Z</time></trkpt><trkpt lat="43.8457865490933" lon="12.475173495984915"><ele>502.5</ele><time>2026-05-04T07:05:57Z</time></trkpt><trkpt lat="43.84586243647656" lon="12.475159453877513"><ele>501.33333333333337</ele><time>2026-05-04T07:05:58Z</time></trkpt><trkpt lat="43.84593900505315" lon="12.475120765127734"><ele>500.1666666666667</ele><time>2026-05-04T07:05:59Z</time></trkpt><trkpt lat="43.846016973568844" lon="12.475098710976278"><ele>499.0</ele><time>2026-05-04T07:06:00Z</time></trkpt><trkpt lat="43.84610030284167" lon="12.475068180522676"><ele>497.4</ele><time>2026-05-04T07:06:01Z</time></trkpt><trkpt lat="43.846187550722775" lon="12.47503374308099"><ele>495.79999999999995</ele><time>2026-05-04T07:06:02Z</time></trkpt><trkpt lat="43.846271290078995" lon="12.47499894151817"><ele>494.20000000000005</ele><time>2026-05-04T07:06:03Z</time></trkpt><trkpt lat="43.846358862269156" lon="12.474955334590668"><ele>492.6</ele><time>2026-05-04T07:06:04Z</time></trkpt><trkpt lat="43.84644483341244" lon="12.474907152112372"><ele>491.0</ele><time>2026-05-04T07:06:05Z</time></trkpt><trkpt lat="43.84653290988761" lon="12.474837685558771"><ele>491.0</ele><time>2026-05-04T07:06:06Z</time></trkpt><trkpt lat="43.84660124559556" lon="12.474755169993069"><ele>491.0</ele><time>2026-05-04T07:06:07Z</time></trkpt><trkpt lat="43.84666297170913" lon="12.474663799210578"><ele>491.0</ele><time>2026-05-04T07:06:08Z</time></trkpt><trkpt lat="43.84670642902395" lon="12.47456368050314"><ele>491.0</ele><time>2026-05-04T07:06:09Z</time></trkpt><trkpt lat="43.846723600844406" lon="12.474442239694934"><ele>491.0</ele><time>2026-05-04T07:06:10Z</time></trkpt><trkpt lat="43.846725413037966" lon="12.474302297563627"><ele>491.5</ele><time>2026-05-04T07:06:11Z</time></trkpt><trkpt lat="43.84671413970686" lon="12.47413966921538"><ele>492.0</ele><time>2026-05-04T07:06:12Z</time></trkpt><trkpt lat="43.84669207284784" lon="12.473984914248069"><ele>492.5</ele><time>2026-05-04T07:06:13Z</time></trkpt><trkpt lat="43.84666054892154" lon="12.473829228627828"><ele>493.0</ele><time>2026-05-04T07:06:14Z</time></trkpt><trkpt lat="43.846610458220354" lon="12.473676486464088"><ele>490.75</ele><time>2026-05-04T07:06:15Z</time></trkpt><trkpt lat="43.84654581654309" lon="12.473530467199925"><ele>488.5</ele><time>2026-05-04T07:06:16Z</time></trkpt><trkpt lat="43.84646923393996" lon="12.473402840822946"><ele>486.25</ele><time>2026-05-04T07:06:17Z</time></trkpt><trkpt lat="43.84639572780978" lon="12.473275971503288"><ele>484.0</ele><time>2026-05-04T07:06:18Z</time></trkpt><trkpt lat="43.84633015125312" lon="12.473145645683843"><ele>484.0</ele><time>2026-05-04T07:06:19Z</time></trkpt><trkpt lat="43.84628430693254" lon="12.472991729495744"><ele>484.0</ele><time>2026-05-04T07:06:20Z</time></trkpt><trkpt lat="43.84625483400479" lon="12.472833722398056"><ele>484.0</ele><time>2026-05-04T07:06:21Z</time></trkpt><trkpt lat="43.84624942969207" lon="12.472673713412217"><ele>484.0</ele><time>2026-05-04T07:06:22Z</time></trkpt><trkpt lat="43.84624629794798" lon="12.472533011428586"><ele>481.4</ele><time>2026-05-04T07:06:23Z</time></trkpt><trkpt lat="43.84622447917909" lon="12.472403281027052"><ele>478.79999999999995</ele><time>2026-05-04T07:06:24Z</time></trkpt><trkpt lat="43.84619089034531" lon="12.472281307477095"><ele>476.20000000000005</ele><time>2026-05-04T07:06:25Z</time></trkpt><trkpt lat="43.84613397968092" lon="12.472176510345863"><ele>473.6</ele><time>2026-05-04T07:06:26Z</time></trkpt><trkpt lat="43.846046303847636" lon="12.472100521889457"><ele>471.0</ele><time>2026-05-04T07:06:27Z</time></trkpt><trkpt lat="43.84593902377282" lon="12.472061298840654"><ele>471.0</ele><time>2026-05-04T07:06:28Z</time></trkpt><trkpt lat="43.84580940093703" lon="12.472044723018776"><ele>471.0</ele><time>2026-05-04T07:06:29Z</time></trkpt><trkpt lat="43.845679389766154" lon="12.472018214854115"><ele>471.0</ele><time>2026-05-04T07:06:30Z</time></trkpt><trkpt lat="43.84555915500215" lon="12.47194591768604"><ele>471.0</ele><time>2026-05-04T07:06:31Z</time></trkpt><trkpt lat="43.845435985557884" lon="12.471831129077842"><ele>471.0</ele><time>2026-05-04T07:06:32Z</time></trkpt><trkpt lat="43.845311968640246" lon="12.47172392184499"><ele>471.0</ele><time>2026-05-04T07:06:33Z</time></trkpt><trkpt lat="43.845194436525574" lon="12.471618581163916"><ele>471.0</ele><time>2026-05-04T07:06:34Z</time></trkpt><trkpt lat="43.845092770556164" lon="12.471526099542215"><ele>471.0</ele><time>2026-05-04T07:06:35Z</time></trkpt><trkpt lat="43.845000083947056" lon="12.471417898099608"><ele>471.4</ele><time>2026-05-04T07:06:36Z</time></trkpt><trkpt lat="43.84492543204732" lon="12.471292328879338"><ele>471.8</ele><time>2026-05-04T07:06:37Z</time></trkpt><trkpt lat="43.844873616244215" lon="12.471140581234396"><ele>472.19999999999993</ele><time>2026-05-04T07:06:38Z</time></trkpt><trkpt lat="43.84484289848426" lon="12.470988905986244"><ele>472.59999999999997</ele><time>2026-05-04T07:06:39Z</time></trkpt><trkpt lat="43.84480105274548" lon="12.470888715581138"><ele>473.0</ele><time>2026-05-04T07:06:40Z</time></trkpt><trkpt lat="43.84475543736184" lon="12.470820365480199"><ele>470.2</ele><time>2026-05-04T07:06:41Z</time></trkpt><trkpt lat="43.84469060241642" lon="12.470790704202031"><ele>467.4</ele><time>2026-05-04T07:06:42Z</time></trkpt><trkpt lat="43.844606228284135" lon="12.470812537450922"><ele>464.59999999999997</ele><time>2026-05-04T07:06:43Z</time></trkpt><trkpt lat="43.84451283286231" lon="12.470885787872426"><ele>461.79999999999995</ele><time>2026-05-04T07:06:44Z</time></trkpt><trkpt lat="43.844411014736906" lon="12.47098945958713"><ele>459.0</ele><time>2026-05-04T07:06:45Z</time></trkpt><trkpt lat="43.844305311242664" lon="12.471085752666875"><ele>458.4</ele><time>2026-05-04T07:06:46Z</time></trkpt><trkpt lat="43.84419788759202" lon="12.471160480185759"><ele>457.79999999999995</ele><time>2026-05-04T07:06:47Z</time></trkpt><trkpt lat="43.844095259217454" lon="12.471206254144727"><ele>457.20000000000005</ele><time>2026-05-04T07:06:48Z</time></trkpt><trkpt lat="43.84400570536519" lon="12.471220154014013"><ele>456.6</ele><time>2026-05-04T07:06:49Z</time></trkpt><trkpt lat="43.84391507192674" lon="12.471189186173238"><ele>456.0</ele><time>2026-05-04T07:06:50Z</time></trkpt><trkpt lat="43.843818793230554" lon="12.471117515114676"><ele>456.0</ele><time>2026-05-04T07:06:51Z</time></trkpt><trkpt lat="43.84372047233337" lon="12.47101607770593"><ele>456.0</ele><time>2026-05-04T07:06:52Z</time></trkpt><trkpt lat="43.84362415751978" lon="12.470907066455833"><ele>456.0</ele><time>2026-05-04T07:06:53Z</time></trkpt><trkpt lat="43.843545279891174" lon="12.470774956488185"><ele>456.0</ele><time>2026-05-04T07:06:54Z</time></trkpt><trkpt lat="43.84349065765471" lon="12.470621959241987"><ele>452.8</ele><time>2026-05-04T07:06:55Z</time></trkpt><trkpt lat="43.84344410939156" lon="12.470434874445584"><ele>449.6</ele><time>2026-05-04T07:06:56Z</time></trkpt><trkpt lat="43.84340077264677" lon="12.47026699297094"><ele>446.4</ele><time>2026-05-04T07:06:57Z</time></trkpt><trkpt lat="43.84337340121162" lon="12.470142308495905"><ele>443.2</ele><time>2026-05-04T07:06:58Z</time></trkpt><trkpt lat="43.843351569118596" lon="12.470031466051152"><ele>440.0</ele><time>2026-05-04T07:06:59Z</time></trkpt><trkpt lat="43.843332453175435" lon="12.469927997806968"><ele>440.0</ele><time>2026-05-04T07:07:00Z</time></trkpt><trkpt lat="43.84329122546069" lon="12.469807330365246"><ele>440.0</ele><time>2026-05-04T07:07:02Z</time></trkpt><trkpt lat="43.843229528994186" lon="12.469782307543792"><ele>440.0</ele><time>2026-05-04T07:07:04Z</time></trkpt><trkpt lat="43.8431704923985" lon="12.469745189818703"><ele>440.0</ele><time>2026-05-04T07:07:05Z</time></trkpt><trkpt lat="43.84309247814021" lon="12.469645627619277"><ele>440.0</ele><time>2026-05-04T07:07:07Z</time></trkpt><trkpt lat="43.84299018988215" lon="12.469518273535952"><ele>439.66666666666663</ele><time>2026-05-04T07:07:09Z</time></trkpt><trkpt lat="43.842924570502355" lon="12.46943938760849"><ele>439.3333333333333</ele><time>2026-05-04T07:07:10Z</time></trkpt><trkpt lat="43.84286121791377" lon="12.469370201381384"><ele>439.0</ele><time>2026-05-04T07:07:11Z</time></trkpt><trkpt lat="43.842799376949706" lon="12.46930853722251"><ele>438.66666666666663</ele><time>2026-05-04T07:07:12Z</time></trkpt><trkpt lat="43.84274767586345" lon="12.469249998564102"><ele>438.3333333333333</ele><time>2026-05-04T07:07:13Z</time></trkpt><trkpt lat="43.84268696129082" lon="12.469184749054845"><ele>438.0</ele><time>2026-05-04T07:07:14Z</time></trkpt><trkpt lat="43.84263313282605" lon="12.469110343008662"><ele>437.8333333333333</ele><time>2026-05-04T07:07:15Z</time></trkpt><trkpt lat="43.8425864415011" lon="12.469036390814209"><ele>437.66666666666663</ele><time>2026-05-04T07:07:16Z</time></trkpt><trkpt lat="43.8425276121185" lon="12.468969846922587"><ele>437.5</ele><time>2026-05-04T07:07:17Z</time></trkpt><trkpt lat="43.84245504823739" lon="12.46893369368845"><ele>437.3333333333333</ele><time>2026-05-04T07:07:18Z</time></trkpt><trkpt lat="43.84236151757163" lon="12.468927513699494"><ele>437.16666666666663</ele><time>2026-05-04T07:07:19Z</time></trkpt><trkpt lat="43.84227240015306" lon="12.468931379254554"><ele>437.0</ele><time>2026-05-04T07:07:20Z</time></trkpt><trkpt lat="43.842201826582915" lon="12.468917004912418"><ele>437.0</ele><time>2026-05-04T07:07:21Z</time></trkpt><trkpt lat="43.84213286405546" lon="12.468872846810681"><ele>437.00000000000006</ele><time>2026-05-04T07:07:22Z</time></trkpt><trkpt lat="43.84206244687555" lon="12.468797396928933"><ele>437.00000000000006</ele><time>2026-05-04T07:07:23Z</time></trkpt><trkpt lat="43.84200123555174" lon="12.468706528977043"><ele>437.0</ele><time>2026-05-04T07:07:24Z</time></trkpt><trkpt lat="43.84192036827003" lon="12.468635276364298"><ele>437.0</ele><time>2026-05-04T07:07:25Z</time></trkpt><trkpt lat="43.84182844528742" lon="12.468574606510254"><ele>437.6</ele><time>2026-05-04T07:07:26Z</time></trkpt><trkpt lat="43.841724345648736" lon="12.468519093179866"><ele>438.20000000000005</ele><time>2026-05-04T07:07:27Z</time></trkpt><trkpt lat="43.84163739231762" lon="12.468469625125127"><ele>438.8</ele><time>2026-05-04T07:07:28Z</time></trkpt><trkpt lat="43.841561184932694" lon="12.468415439431611"><ele>439.4</ele><time>2026-05-04T07:07:29Z</time></trkpt><trkpt lat="43.84150956081336" lon="12.46833513499415"><ele>440.0</ele><time>2026-05-04T07:07:30Z</time></trkpt><trkpt lat="43.841446534049645" lon="12.468255999571277"><ele>439.99999999999994</ele><time>2026-05-04T07:07:31Z</time></trkpt><trkpt lat="43.84136667521959" lon="12.468173083853225"><ele>440.0</ele><time>2026-05-04T07:07:32Z</time></trkpt><trkpt lat="43.84130325677579" lon="12.468115093659517"><ele>440.0</ele><time>2026-05-04T07:07:33Z</time></trkpt><trkpt lat="43.84123129411557" lon="12.468065571819572"><ele>440.0</ele><time>2026-05-04T07:07:34Z</time></trkpt><trkpt lat="43.841162151507724" lon="12.468027758174618"><ele>439.99999999999994</ele><time>2026-05-04T07:07:35Z</time></trkpt><trkpt lat="43.84108987305231" lon="12.467985176443614"><ele>440.0</ele><time>2026-05-04T07:07:36Z</time></trkpt><trkpt lat="43.84101408549073" lon="12.467928599728644"><ele>439.66666666666663</ele><time>2026-05-04T07:07:37Z</time></trkpt><trkpt lat="43.84093550650058" lon="12.467863354716108"><ele>439.3333333333333</ele><time>2026-05-04T07:07:38Z</time></trkpt><trkpt lat="43.84085674641103" lon="12.467786275767809"><ele>439.0</ele><time>2026-05-04T07:07:39Z</time></trkpt><trkpt lat="43.84079791282521" lon="12.467701162852542"><ele>438.66666666666663</ele><time>2026-05-04T07:07:40Z</time></trkpt><trkpt lat="43.84073369277951" lon="12.467618783420205"><ele>438.3333333333333</ele><time>2026-05-04T07:07:41Z</time></trkpt><trkpt lat="43.84066739808793" lon="12.467545957685877"><ele>438.0</ele><time>2026-05-04T07:07:42Z</time></trkpt><trkpt lat="43.840602866525984" lon="12.467460650371654"><ele>438.0</ele><time>2026-05-04T07:07:43Z</time></trkpt><trkpt lat="43.84053572658908" lon="12.467382836458418"><ele>438.0</ele><time>2026-05-04T07:07:44Z</time></trkpt><trkpt lat="43.84048430985874" lon="12.467308678071467"><ele>438.0</ele><time>2026-05-04T07:07:45Z</time></trkpt><trkpt lat="43.840438566111274" lon="12.467219770779225"><ele>438.0</ele><time>2026-05-04T07:07:46Z</time></trkpt><trkpt lat="43.84040075437812" lon="12.467132373679213"><ele>438.0</ele><time>2026-05-04T07:07:47Z</time></trkpt><trkpt lat="43.84037206641819" lon="12.467025815935814"><ele>438.0</ele><time>2026-05-04T07:07:48Z</time></trkpt><trkpt lat="43.84034709086727" lon="12.46688135229875"><ele>437.2</ele><time>2026-05-04T07:07:49Z</time></trkpt><trkpt lat="43.8403123457188" lon="12.466769040407318"><ele>436.4</ele><time>2026-05-04T07:07:50Z</time></trkpt><trkpt lat="43.84026710623955" lon="12.466642305890465"><ele>435.59999999999997</ele><time>2026-05-04T07:07:51Z</time></trkpt><trkpt lat="43.84022066045662" lon="12.466510213504893"><ele>434.79999999999995</ele><time>2026-05-04T07:07:52Z</time></trkpt><trkpt lat="43.84018749955571" lon="12.466385279953618"><ele>434.0</ele><time>2026-05-04T07:07:53Z</time></trkpt><trkpt lat="43.84015048264253" lon="12.466262774269616"><ele>433.8333333333333</ele><time>2026-05-04T07:07:54Z</time></trkpt><trkpt lat="43.84011809885389" lon="12.466149397935757"><ele>433.66666666666663</ele><time>2026-05-04T07:07:55Z</time></trkpt><trkpt lat="43.84009137565118" lon="12.466041183565338"><ele>433.5</ele><time>2026-05-04T07:07:56Z</time></trkpt><trkpt lat="43.84006489955102" lon="12.465919341230112"><ele>433.33333333333337</ele><time>2026-05-04T07:07:57Z</time></trkpt><trkpt lat="43.8400608789582" lon="12.46580047997737"><ele>433.1666666666667</ele><time>2026-05-04T07:07:58Z</time></trkpt><trkpt lat="43.84005172141082" lon="12.465678261711195"><ele>433.0</ele><time>2026-05-04T07:07:59Z</time></trkpt><trkpt lat="43.84004001462202" lon="12.46553755587599"><ele>433.4</ele><time>2026-05-04T07:08:00Z</time></trkpt><trkpt lat="43.84000834342673" lon="12.465396689993035"><ele>433.79999999999995</ele><time>2026-05-04T07:08:01Z</time></trkpt><trkpt lat="43.839963680565155" lon="12.465269436567649"><ele>434.2</ele><time>2026-05-04T07:08:02Z</time></trkpt><trkpt lat="43.83991677462079" lon="12.465146958143222"><ele>434.6</ele><time>2026-05-04T07:08:03Z</time></trkpt><trkpt lat="43.83987527511444" lon="12.465028105942226"><ele>435.0</ele><time>2026-05-04T07:08:04Z</time></trkpt><trkpt lat="43.83983899627267" lon="12.464911167799485"><ele>435.0</ele><time>2026-05-04T07:08:05Z</time></trkpt><trkpt lat="43.83980198529055" lon="12.4647865883986"><ele>435.0</ele><time>2026-05-04T07:08:06Z</time></trkpt><trkpt lat="43.83977017663315" lon="12.464659411263264"><ele>435.0</ele><time>2026-05-04T07:08:07Z</time></trkpt><trkpt lat="43.83975719766272" lon="12.464538870989578"><ele>435.0</ele><time>2026-05-04T07:08:08Z</time></trkpt><trkpt lat="43.83974262251555" lon="12.464417504303432"><ele>435.0</ele><time>2026-05-04T07:08:09Z</time></trkpt><trkpt lat="43.83971987161547" lon="12.464279901154436"><ele>434.6</ele><time>2026-05-04T07:08:10Z</time></trkpt><trkpt lat="43.83966773795449" lon="12.464131075933208"><ele>434.2</ele><time>2026-05-04T07:08:11Z</time></trkpt><trkpt lat="43.83960923071856" lon="12.463985920687549"><ele>433.79999999999995</ele><time>2026-05-04T07:08:12Z</time></trkpt><trkpt lat="43.83956499480842" lon="12.463894796070045"><ele>433.4</ele><time>2026-05-04T07:08:13Z</time></trkpt><trkpt lat="43.83955130501439" lon="12.463743707256665"><ele>433.0</ele><time>2026-05-04T07:08:15Z</time></trkpt><trkpt lat="43.83956767809688" lon="12.463629769121694"><ele>433.00000000000006</ele><time>2026-05-04T07:08:16Z</time></trkpt><trkpt lat="43.83958197424079" lon="12.463503430392063"><ele>433.0</ele><time>2026-05-04T07:08:17Z</time></trkpt><trkpt lat="43.83959552507811" lon="12.463406068764272"><ele>433.0</ele><time>2026-05-04T07:08:18Z</time></trkpt><trkpt lat="43.839601627201766" lon="12.46331033901214"><ele>433.0</ele><time>2026-05-04T07:08:19Z</time></trkpt><trkpt lat="43.83959376608742" lon="12.4631958327718"><ele>433.00000000000006</ele><time>2026-05-04T07:08:20Z</time></trkpt><trkpt lat="43.83955696688918" lon="12.46305360668595"><ele>433.0</ele><time>2026-05-04T07:08:21Z</time></trkpt><trkpt lat="43.83950233874078" lon="12.4628802464248"><ele>433.0</ele><time>2026-05-04T07:08:22Z</time></trkpt><trkpt lat="43.83946812058618" lon="12.462730482454626"><ele>432.99999999999994</ele><time>2026-05-04T07:08:23Z</time></trkpt><trkpt lat="43.83944710524285" lon="12.462605945771472"><ele>432.99999999999994</ele><time>2026-05-04T07:08:24Z</time></trkpt><trkpt lat="43.839421478899034" lon="12.462510302720942"><ele>433.0</ele><time>2026-05-04T07:08:25Z</time></trkpt><trkpt lat="43.83934245592512" lon="12.462366261634896"><ele>433.0</ele><time>2026-05-04T07:08:27Z</time></trkpt><trkpt lat="43.83927065381088" lon="12.462276665734286"><ele>432.99999999999994</ele><time>2026-05-04T07:08:28Z</time></trkpt><trkpt lat="43.83921649838553" lon="12.46219372591646"><ele>433.0</ele><time>2026-05-04T07:08:29Z</time></trkpt><trkpt lat="43.83916772607772" lon="12.462125152737245"><ele>433.0</ele><time>2026-05-04T07:08:30Z</time></trkpt><trkpt lat="43.83912683242693" lon="12.462056970308991"><ele>433.0</ele><time>2026-05-04T07:08:31Z</time></trkpt><trkpt lat="43.83909231883669" lon="12.461982684699006"><ele>433.0</ele><time>2026-05-04T07:08:32Z</time></trkpt><trkpt lat="43.839040279283694" lon="12.461856880775303"><ele>432.99999999999994</ele><time>2026-05-04T07:08:34Z</time></trkpt><trkpt lat="43.83902567348906" lon="12.461771112671963"><ele>433.0</ele><time>2026-05-04T07:08:35Z</time></trkpt><trkpt lat="43.83901534674106" lon="12.4616708732714"><ele>431.99999999999994</ele><time>2026-05-04T07:08:36Z</time></trkpt><trkpt lat="43.839008668472815" lon="12.46158371336924"><ele>431.0</ele><time>2026-05-04T07:08:37Z</time></trkpt><trkpt lat="43.83899330875783" lon="12.461491710230096"><ele>430.0</ele><time>2026-05-04T07:08:38Z</time></trkpt><trkpt lat="43.838970820190056" lon="12.461386336924049"><ele>429.0</ele><time>2026-05-04T07:08:39Z</time></trkpt><trkpt lat="43.838926224581236" lon="12.46131660531281"><ele>428.0</ele><time>2026-05-04T07:08:40Z</time></trkpt><trkpt lat="43.83887835537176" lon="12.461242572021826"><ele>426.99999999999994</ele><time>2026-05-04T07:08:41Z</time></trkpt><trkpt lat="43.83884050993254" lon="12.461161699144489"><ele>426.0</ele><time>2026-05-04T07:08:42Z</time></trkpt><trkpt lat="43.83881928953107" lon="12.461055355547739"><ele>424.71428571428567</ele><time>2026-05-04T07:08:43Z</time></trkpt><trkpt lat="43.83880101183656" lon="12.460965661620074"><ele>423.42857142857144</ele><time>2026-05-04T07:08:44Z</time></trkpt><trkpt lat="43.83877753964908" lon="12.460879179413574"><ele>422.1428571428571</ele><time>2026-05-04T07:08:45Z</time></trkpt><trkpt lat="43.8387563163529" lon="12.460795390443836"><ele>420.85714285714283</ele><time>2026-05-04T07:08:46Z</time></trkpt><trkpt lat="43.83873533984242" lon="12.46070693257824"><ele>419.57142857142856</ele><time>2026-05-04T07:08:47Z</time></trkpt><trkpt lat="43.838719331190354" lon="12.460606658552896"><ele>418.2857142857143</ele><time>2026-05-04T07:08:48Z</time></trkpt><trkpt lat="43.8387109833162" lon="12.460493973190397"><ele>417.0</ele><time>2026-05-04T07:08:49Z</time></trkpt><trkpt lat="43.83870854138937" lon="12.46036067057651"><ele>415.6666666666667</ele><time>2026-05-04T07:08:50Z</time></trkpt><trkpt lat="43.83869727010653" lon="12.46023956521522"><ele>414.33333333333337</ele><time>2026-05-04T07:08:51Z</time></trkpt><trkpt lat="43.8386808815174" lon="12.460129526994338"><ele>413.0</ele><time>2026-05-04T07:08:52Z</time></trkpt><trkpt lat="43.83865214086517" lon="12.460041238753055"><ele>411.6666666666667</ele><time>2026-05-04T07:08:53Z</time></trkpt><trkpt lat="43.83861453005458" lon="12.45996139479184"><ele>410.33333333333337</ele><time>2026-05-04T07:08:54Z</time></trkpt><trkpt lat="43.838578348749174" lon="12.459796530235991"><ele>409.0</ele><time>2026-05-04T07:08:56Z</time></trkpt><trkpt lat="43.83857106117717" lon="12.459687181777277"><ele>408.83333333333337</ele><time>2026-05-04T07:08:58Z</time></trkpt><trkpt lat="43.83856973468258" lon="12.459598803052144"><ele>408.6666666666667</ele><time>2026-05-04T07:09:00Z</time></trkpt><trkpt lat="43.838555522654424" lon="12.459480022307886"><ele>408.5</ele><time>2026-05-04T07:09:08Z</time></trkpt><trkpt lat="43.83853987958564" lon="12.459395033881112"><ele>408.33333333333337</ele><time>2026-05-04T07:09:09Z</time></trkpt><trkpt lat="43.83850670209723" lon="12.459266984970306"><ele>408.1666666666667</ele><time>2026-05-04T07:09:11Z</time></trkpt><trkpt lat="43.83847268997911" lon="12.459123280575156"><ele>408.0</ele><time>2026-05-04T07:09:13Z</time></trkpt><trkpt lat="43.83840918616296" lon="12.459011948022669"><ele>408.0</ele><time>2026-05-04T07:09:15Z</time></trkpt><trkpt lat="43.838383024016466" lon="12.458890172648179"><ele>408.0</ele><time>2026-05-04T07:09:17Z</time></trkpt><trkpt lat="43.838374409101334" lon="12.458726195566278"><ele>408.0</ele><time>2026-05-04T07:09:19Z</time></trkpt><trkpt lat="43.83837405285893" lon="12.45856942108318"><ele>408.0</ele><time>2026-05-04T07:09:21Z</time></trkpt><trkpt lat="43.83836402101571" lon="12.458477070298912"><ele>408.0</ele><time>2026-05-04T07:09:22Z</time></trkpt><trkpt lat="43.83835827250366" lon="12.45832491800251"><ele>407.3333333333333</ele><time>2026-05-04T07:09:24Z</time></trkpt><trkpt lat="43.83836984028138" lon="12.45823041809072"><ele>406.66666666666663</ele><time>2026-05-04T07:09:25Z</time></trkpt><trkpt lat="43.83839468557499" lon="12.458148954036306"><ele>406.0</ele><time>2026-05-04T07:09:26Z</time></trkpt><trkpt lat="43.838431770684046" lon="12.457991088238144"><ele>405.3333333333333</ele><time>2026-05-04T07:09:28Z</time></trkpt><trkpt lat="43.8384496745306" lon="12.457901619697225"><ele>404.66666666666663</ele><time>2026-05-04T07:09:29Z</time></trkpt><trkpt lat="43.83848062678518" lon="12.457727241360088"><ele>404.0</ele><time>2026-05-04T07:09:31Z</time></trkpt><trkpt lat="43.8384945845125" lon="12.457638419909157"><ele>401.49999999999994</ele><time>2026-05-04T07:09:32Z</time></trkpt><trkpt lat="43.83851046125712" lon="12.457532103540277"><ele>399.0</ele><time>2026-05-04T07:09:33Z</time></trkpt><trkpt lat="43.83852029387392" lon="12.457423822316615"><ele>396.5</ele><time>2026-05-04T07:09:34Z</time></trkpt><trkpt lat="43.838532418249436" lon="12.45732707568896"><ele>394.0</ele><time>2026-05-04T07:09:35Z</time></trkpt><trkpt lat="43.838539116450086" lon="12.457215105883115"><ele>391.49999999999994</ele><time>2026-05-04T07:09:36Z</time></trkpt><trkpt lat="43.838533361151306" lon="12.457102581040756"><ele>389.0</ele><time>2026-05-04T07:09:37Z</time></trkpt><trkpt lat="43.83851395925688" lon="12.45698724814842"><ele>389.0</ele><time>2026-05-04T07:09:38Z</time></trkpt><trkpt lat="43.83849491867599" lon="12.456886199187657"><ele>389.0</ele><time>2026-05-04T07:09:39Z</time></trkpt><trkpt lat="43.83848299353702" lon="12.45679406872838"><ele>389.0</ele><time>2026-05-04T07:09:40Z</time></trkpt><trkpt lat="43.83847213032832" lon="12.456692879302413"><ele>389.0</ele><time>2026-05-04T07:09:41Z</time></trkpt><trkpt lat="43.83846155543314" lon="12.456596826326603"><ele>389.0</ele><time>2026-05-04T07:09:42Z</time></trkpt><trkpt lat="43.83844495173047" lon="12.456509577977892"><ele>389.0</ele><time>2026-05-04T07:09:43Z</time></trkpt><trkpt lat="43.83840556724301" lon="12.45641848060803"><ele>389.0</ele><time>2026-05-04T07:09:44Z</time></trkpt><trkpt lat="43.83835966058093" lon="12.456325913046236"><ele>388.16666666666663</ele><time>2026-05-04T07:09:45Z</time></trkpt><trkpt lat="43.83830921219671" lon="12.456220167571306"><ele>387.3333333333333</ele><time>2026-05-04T07:09:46Z</time></trkpt><trkpt lat="43.83825572587117" lon="12.45611902675366"><ele>386.5</ele><time>2026-05-04T07:09:47Z</time></trkpt><trkpt lat="43.83820115020777" lon="12.45602040310546"><ele>385.66666666666663</ele><time>2026-05-04T07:09:48Z</time></trkpt><trkpt lat="43.83816318677962" lon="12.455921355885291"><ele>384.8333333333333</ele><time>2026-05-04T07:09:49Z</time></trkpt><trkpt lat="43.83812281798168" lon="12.455828058819607"><ele>384.0</ele><time>2026-05-04T07:09:50Z</time></trkpt><trkpt lat="43.8380733750964" lon="12.455718490575968"><ele>384.0</ele><time>2026-05-04T07:09:51Z</time></trkpt><trkpt lat="43.83802418650913" lon="12.455613728669043"><ele>384.0</ele><time>2026-05-04T07:09:52Z</time></trkpt><trkpt lat="43.837971575659914" lon="12.455499224406424"><ele>384.0</ele><time>2026-05-04T07:09:53Z</time></trkpt><trkpt lat="43.83792822618846" lon="12.455383906465732"><ele>384.0</ele><time>2026-05-04T07:09:54Z</time></trkpt><trkpt lat="43.837891197904874" lon="12.455261055919463"><ele>384.0</ele><time>2026-05-04T07:09:55Z</time></trkpt><trkpt lat="43.83786051589139" lon="12.455126998929039"><ele>383.2</ele><time>2026-05-04T07:09:56Z</time></trkpt><trkpt lat="43.83782733168644" lon="12.454967420597297"><ele>382.4</ele><time>2026-05-04T07:09:57Z</time></trkpt><trkpt lat="43.83778998606404" lon="12.454800375574136"><ele>381.6</ele><time>2026-05-04T07:09:58Z</time></trkpt><trkpt lat="43.837736183370744" lon="12.454666389329294"><ele>380.8</ele><time>2026-05-04T07:09:59Z</time></trkpt><trkpt lat="43.83769362819575" lon="12.454556210341737"><ele>380.0</ele><time>2026-05-04T07:10:00Z</time></trkpt><trkpt lat="43.8376489625041" lon="12.454406663155565"><ele>383.0</ele><time>2026-05-04T07:10:02Z</time></trkpt><trkpt lat="43.83759884799668" lon="12.454295319791175"><ele>386.0</ele><time>2026-05-04T07:10:04Z</time></trkpt><trkpt lat="43.837544013756336" lon="12.454150729250218"><ele>389.0</ele><time>2026-05-04T07:10:06Z</time></trkpt><trkpt lat="43.83748332737485" lon="12.453991879097819"><ele>392.0</ele><time>2026-05-04T07:10:08Z</time></trkpt><trkpt lat="43.83744482459345" lon="12.45390604963591"><ele>395.0</ele><time>2026-05-04T07:10:09Z</time></trkpt><trkpt lat="43.837394034076965" lon="12.453826760774161"><ele>395.16666666666663</ele><time>2026-05-04T07:10:10Z</time></trkpt><trkpt lat="43.8373366558498" lon="12.4537587745414"><ele>395.3333333333333</ele><time>2026-05-04T07:10:11Z</time></trkpt><trkpt lat="43.83729350915217" lon="12.453688454843046"><ele>395.5</ele><time>2026-05-04T07:10:12Z</time></trkpt><trkpt lat="43.83724142942024" lon="12.453529192152654"><ele>395.66666666666663</ele><time>2026-05-04T07:10:14Z</time></trkpt><trkpt lat="43.83721551810035" lon="12.453431164583582"><ele>395.8333333333333</ele><time>2026-05-04T07:10:15Z</time></trkpt><trkpt lat="43.83718340782219" lon="12.45334853123044"><ele>396.0</ele><time>2026-05-04T07:10:16Z</time></trkpt><trkpt lat="43.83714848055597" lon="12.45324388681181"><ele>396.0</ele><time>2026-05-04T07:10:17Z</time></trkpt><trkpt lat="43.83710898443915" lon="12.453128392162418"><ele>396.0</ele><time>2026-05-04T07:10:18Z</time></trkpt><trkpt lat="43.83706982368976" lon="12.453021061868776"><ele>396.0</ele><time>2026-05-04T07:10:19Z</time></trkpt><trkpt lat="43.837043686650375" lon="12.45292930729366"><ele>396.0</ele><time>2026-05-04T07:10:20Z</time></trkpt><trkpt lat="43.83698749309902" lon="12.45279826647761"><ele>396.0</ele><time>2026-05-04T07:10:22Z</time></trkpt><trkpt lat="43.83696479171626" lon="12.452674017361446"><ele>396.8333333333333</ele><time>2026-05-04T07:10:24Z</time></trkpt><trkpt lat="43.83696881122866" lon="12.452577849974144"><ele>397.66666666666663</ele><time>2026-05-04T07:10:25Z</time></trkpt><trkpt lat="43.83699863506561" lon="12.452471106679777"><ele>398.5</ele><time>2026-05-04T07:10:26Z</time></trkpt><trkpt lat="43.837033316212846" lon="12.452344657949117"><ele>399.3333333333333</ele><time>2026-05-04T07:10:27Z</time></trkpt><trkpt lat="43.83706636451684" lon="12.452221077365554"><ele>400.16666666666663</ele><time>2026-05-04T07:10:28Z</time></trkpt><trkpt lat="43.837092354800006" lon="12.452092000187324"><ele>401.0</ele><time>2026-05-04T07:10:29Z</time></trkpt><trkpt lat="43.837111436103186" lon="12.4519628666764"><ele>402.0</ele><time>2026-05-04T07:10:30Z</time></trkpt><trkpt lat="43.837124181656215" lon="12.451848811129889"><ele>403.0</ele><time>2026-05-04T07:10:31Z</time></trkpt><trkpt lat="43.83714079999568" lon="12.451724481238072"><ele>404.0</ele><time>2026-05-04T07:10:32Z</time></trkpt><trkpt lat="43.83715352023017" lon="12.451634562093288"><ele>405.0</ele><time>2026-05-04T07:10:33Z</time></trkpt><trkpt lat="43.83717483173632" lon="12.451457357441097"><ele>406.0</ele><time>2026-05-04T07:10:35Z</time></trkpt><trkpt lat="43.83717055835001" lon="12.451320481154905"><ele>407.50000000000006</ele><time>2026-05-04T07:10:37Z</time></trkpt><trkpt lat="43.83709925309708" lon="12.451272410513988"><ele>409.0</ele><time>2026-05-04T07:10:39Z</time></trkpt><trkpt lat="43.837021218847006" lon="12.451262810435782"><ele>410.5</ele><time>2026-05-04T07:10:40Z</time></trkpt><trkpt lat="43.83693936414429" lon="12.451236971996002"><ele>412.0</ele><time>2026-05-04T07:10:41Z</time></trkpt><trkpt lat="43.83687457185432" lon="12.451176746301751"><ele>413.50000000000006</ele><time>2026-05-04T07:10:42Z</time></trkpt><trkpt lat="43.836819154112725" lon="12.451105306586031"><ele>415.0</ele><time>2026-05-04T07:10:43Z</time></trkpt><trkpt lat="43.83677479426463" lon="12.451032040402032"><ele>415.00000000000006</ele><time>2026-05-04T07:10:44Z</time></trkpt><trkpt lat="43.83672083392877" lon="12.45094569150766"><ele>415.0</ele><time>2026-05-04T07:10:45Z</time></trkpt><trkpt lat="43.83664172533589" lon="12.450777269581891"><ele>415.0</ele><time>2026-05-04T07:10:47Z</time></trkpt><trkpt lat="43.83661402021735" lon="12.450690236823903"><ele>415.0</ele><time>2026-05-04T07:10:48Z</time></trkpt><trkpt lat="43.836589444595496" lon="12.450596018476622"><ele>415.00000000000006</ele><time>2026-05-04T07:10:49Z</time></trkpt><trkpt lat="43.836570539105054" lon="12.450489474311622"><ele>415.0</ele><time>2026-05-04T07:10:50Z</time></trkpt><trkpt lat="43.836551879199114" lon="12.450380501091072"><ele>417.1666666666667</ele><time>2026-05-04T07:10:51Z</time></trkpt><trkpt lat="43.836542945683824" lon="12.450271629645195"><ele>419.33333333333337</ele><time>2026-05-04T07:10:52Z</time></trkpt><trkpt lat="43.83653774900876" lon="12.45015367700352"><ele>421.5</ele><time>2026-05-04T07:10:53Z</time></trkpt><trkpt lat="43.836528521364684" lon="12.45002377470917"><ele>423.66666666666663</ele><time>2026-05-04T07:10:54Z</time></trkpt><trkpt lat="43.83651630924341" lon="12.44990798828913"><ele>425.8333333333333</ele><time>2026-05-04T07:10:55Z</time></trkpt><trkpt lat="43.83650853487414" lon="12.449801122888083"><ele>428.0</ele><time>2026-05-04T07:10:56Z</time></trkpt><trkpt lat="43.83649815937089" lon="12.449683816898368"><ele>429.66666666666663</ele><time>2026-05-04T07:10:57Z</time></trkpt><trkpt lat="43.83648502845536" lon="12.449550474114362"><ele>431.3333333333333</ele><time>2026-05-04T07:10:58Z</time></trkpt><trkpt lat="43.83647109455686" lon="12.449434218649733"><ele>433.0</ele><time>2026-05-04T07:10:59Z</time></trkpt><trkpt lat="43.83645049601926" lon="12.449326288448315"><ele>434.66666666666663</ele><time>2026-05-04T07:11:00Z</time></trkpt><trkpt lat="43.83642565309291" lon="12.449232361793891"><ele>436.3333333333333</ele><time>2026-05-04T07:11:01Z</time></trkpt><trkpt lat="43.8363863899409" lon="12.44913172413394"><ele>438.0</ele><time>2026-05-04T07:11:02Z</time></trkpt><trkpt lat="43.83635547375544" lon="12.449023073125792"><ele>438.0</ele><time>2026-05-04T07:11:03Z</time></trkpt><trkpt lat="43.83633647940136" lon="12.448921122075625"><ele>438.0</ele><time>2026-05-04T07:11:04Z</time></trkpt><trkpt lat="43.83632938130071" lon="12.448833554720897"><ele>438.0</ele><time>2026-05-04T07:11:05Z</time></trkpt><trkpt lat="43.83632233815415" lon="12.448735166617478"><ele>438.0</ele><time>2026-05-04T07:11:06Z</time></trkpt><trkpt lat="43.836304661913985" lon="12.448620156889227"><ele>438.0</ele><time>2026-05-04T07:11:07Z</time></trkpt><trkpt lat="43.836293352353984" lon="12.44852073601084"><ele>438.0</ele><time>2026-05-04T07:11:08Z</time></trkpt><trkpt lat="43.836279428208115" lon="12.448394598149235"><ele>438.59999999999997</ele><time>2026-05-04T07:11:09Z</time></trkpt><trkpt lat="43.836266188829924" lon="12.44828011649004"><ele>439.19999999999993</ele><time>2026-05-04T07:11:10Z</time></trkpt><trkpt lat="43.83625380009174" lon="12.44817435187773"><ele>439.8</ele><time>2026-05-04T07:11:11Z</time></trkpt><trkpt lat="43.836262585645045" lon="12.447978158378998"><ele>440.4</ele><time>2026-05-04T07:11:13Z</time></trkpt><trkpt lat="43.836265846387896" lon="12.4478579024446"><ele>441.0</ele><time>2026-05-04T07:11:14Z</time></trkpt><trkpt lat="43.83627573995446" lon="12.447741512654327"><ele>441.4</ele><time>2026-05-04T07:11:15Z</time></trkpt><trkpt lat="43.8362844224202" lon="12.447633703092691"><ele>441.8</ele><time>2026-05-04T07:11:16Z</time></trkpt><trkpt lat="43.83627985127399" lon="12.447483949344798"><ele>442.19999999999993</ele><time>2026-05-04T07:11:18Z</time></trkpt><trkpt lat="43.83624345099466" lon="12.447321223359705"><ele>442.59999999999997</ele><time>2026-05-04T07:11:20Z</time></trkpt><trkpt lat="43.836207661371134" lon="12.447218888947821"><ele>443.0</ele><time>2026-05-04T07:11:21Z</time></trkpt><trkpt lat="43.836181414785386" lon="12.447131959657312"><ele>442.99999999999994</ele><time>2026-05-04T07:11:22Z</time></trkpt><trkpt lat="43.836152216289626" lon="12.447049937135613"><ele>443.0</ele><time>2026-05-04T07:11:23Z</time></trkpt><trkpt lat="43.836117129987564" lon="12.446956468110253"><ele>443.0</ele><time>2026-05-04T07:11:24Z</time></trkpt><trkpt lat="43.83607855410225" lon="12.44685719969472"><ele>443.0</ele><time>2026-05-04T07:11:25Z</time></trkpt><trkpt lat="43.83603914587768" lon="12.446756570628695"><ele>442.99999999999994</ele><time>2026-05-04T07:11:26Z</time></trkpt><trkpt lat="43.836000912854225" lon="12.4466656358613"><ele>443.0</ele><time>2026-05-04T07:11:27Z</time></trkpt><trkpt lat="43.835965438900345" lon="12.446571935016902"><ele>442.3333333333333</ele><time>2026-05-04T07:11:28Z</time></trkpt><trkpt lat="43.835921605634475" lon="12.446472681566227"><ele>441.66666666666663</ele><time>2026-05-04T07:11:29Z</time></trkpt><trkpt lat="43.8358813433724" lon="12.446378169997734"><ele>441.0</ele><time>2026-05-04T07:11:30Z</time></trkpt><trkpt lat="43.83586303756664" lon="12.446290676988516"><ele>440.33333333333337</ele><time>2026-05-04T07:11:31Z</time></trkpt><trkpt lat="43.83586757917648" lon="12.4461887481688"><ele>439.6666666666667</ele><time>2026-05-04T07:11:32Z</time></trkpt><trkpt lat="43.83589630127593" lon="12.446094023868111"><ele>439.0</ele><time>2026-05-04T07:11:33Z</time></trkpt><trkpt lat="43.83593780078837" lon="12.44598491336609"><ele>438.83333333333337</ele><time>2026-05-04T07:11:34Z</time></trkpt><trkpt lat="43.83597804582104" lon="12.445832015989394"><ele>438.6666666666667</ele><time>2026-05-04T07:11:36Z</time></trkpt><trkpt lat="43.835972772573534" lon="12.445720753106178"><ele>438.5</ele><time>2026-05-04T07:11:37Z</time></trkpt><trkpt lat="43.83596794967654" lon="12.445603192827642"><ele>438.33333333333337</ele><time>2026-05-04T07:11:38Z</time></trkpt><trkpt lat="43.835950462299635" lon="12.445490916372004"><ele>438.1666666666667</ele><time>2026-05-04T07:11:39Z</time></trkpt><trkpt lat="43.83593414332787" lon="12.44538032062069"><ele>438.0</ele><time>2026-05-04T07:11:40Z</time></trkpt><trkpt lat="43.835905319220295" lon="12.445284814837057"><ele>440.0</ele><time>2026-05-04T07:11:41Z</time></trkpt><trkpt lat="43.83585831321953" lon="12.445193320275905"><ele>442.0</ele><time>2026-05-04T07:11:42Z</time></trkpt><trkpt lat="43.835792903074825" lon="12.4451067307252"><ele>444.0</ele><time>2026-05-04T07:11:43Z</time></trkpt><trkpt lat="43.835722768648765" lon="12.445040964782653"><ele>446.0</ele><time>2026-05-04T07:11:44Z</time></trkpt><trkpt lat="43.83566551560336" lon="12.444958811995123"><ele>448.0</ele><time>2026-05-04T07:11:45Z</time></trkpt><trkpt lat="43.835623860650735" lon="12.444875527922155"><ele>450.0</ele><time>2026-05-04T07:11:46Z</time></trkpt><trkpt lat="43.83558825609713" lon="12.44479381790527"><ele>450.0</ele><time>2026-05-04T07:11:47Z</time></trkpt><trkpt lat="43.83555585796233" lon="12.444708029639076"><ele>450.0</ele><time>2026-05-04T07:11:48Z</time></trkpt><trkpt lat="43.835512077037784" lon="12.444593850187307"><ele>450.0</ele><time>2026-05-04T07:11:49Z</time></trkpt><trkpt lat="43.83546622039279" lon="12.444480118000476"><ele>450.0</ele><time>2026-05-04T07:11:50Z</time></trkpt><trkpt lat="43.83543039079219" lon="12.444381856348494"><ele>450.0</ele><time>2026-05-04T07:11:51Z</time></trkpt><trkpt lat="43.83538872176556" lon="12.444267287903017"><ele>450.0</ele><time>2026-05-04T07:11:52Z</time></trkpt><trkpt lat="43.83536003322532" lon="12.444184912443538"><ele>451.6666666666667</ele><time>2026-05-04T07:11:53Z</time></trkpt><trkpt lat="43.83533604142748" lon="12.44410127055279"><ele>453.33333333333337</ele><time>2026-05-04T07:11:54Z</time></trkpt><trkpt lat="43.835317956859434" lon="12.444014983685285"><ele>455.0</ele><time>2026-05-04T07:11:55Z</time></trkpt><trkpt lat="43.835305923650004" lon="12.443921464729595"><ele>456.6666666666667</ele><time>2026-05-04T07:11:56Z</time></trkpt><trkpt lat="43.83529609978712" lon="12.443821310270616"><ele>458.33333333333337</ele><time>2026-05-04T07:11:57Z</time></trkpt><trkpt lat="43.83530223835612" lon="12.443650618078692"><ele>460.0</ele><time>2026-05-04T07:11:59Z</time></trkpt><trkpt lat="43.83532341636839" lon="12.44355755089638"><ele>461.33333333333337</ele><time>2026-05-04T07:12:00Z</time></trkpt><trkpt lat="43.83534405444788" lon="12.443472270276734"><ele>462.6666666666667</ele><time>2026-05-04T07:12:01Z</time></trkpt><trkpt lat="43.83535043083271" lon="12.44337285018812"><ele>464.0</ele><time>2026-05-04T07:12:02Z</time></trkpt><trkpt lat="43.835324107057595" lon="12.443254085113347"><ele>465.33333333333337</ele><time>2026-05-04T07:12:03Z</time></trkpt><trkpt lat="43.83528305299946" lon="12.443134361505136"><ele>466.6666666666667</ele><time>2026-05-04T07:12:04Z</time></trkpt><trkpt lat="43.83525569982746" lon="12.443025534849717"><ele>468.0</ele><time>2026-05-04T07:12:05Z</time></trkpt><trkpt lat="43.83523786101077" lon="12.442921094687305"><ele>469.1666666666667</ele><time>2026-05-04T07:12:06Z</time></trkpt><trkpt lat="43.835227619956825" lon="12.442825646070542"><ele>470.33333333333337</ele><time>2026-05-04T07:12:07Z</time></trkpt><trkpt lat="43.83522706902708" lon="12.442736660648158"><ele>471.5</ele><time>2026-05-04T07:12:08Z</time></trkpt><trkpt lat="43.83524396846692" lon="12.44263527875226"><ele>472.6666666666667</ele><time>2026-05-04T07:12:10Z</time></trkpt><trkpt lat="43.835271717943805" lon="12.442488565960602"><ele>473.83333333333337</ele><time>2026-05-04T07:12:12Z</time></trkpt><trkpt lat="43.83525591430517" lon="12.442316820953769"><ele>475.0</ele><time>2026-05-04T07:12:14Z</time></trkpt><trkpt lat="43.83521362855387" lon="12.442193641405167"><ele>475.6</ele><time>2026-05-04T07:12:15Z</time></trkpt><trkpt lat="43.835155479371096" lon="12.442099272203352"><ele>476.2</ele><time>2026-05-04T07:12:16Z</time></trkpt><trkpt lat="43.83509393488138" lon="12.442021894623759"><ele>476.79999999999995</ele><time>2026-05-04T07:12:17Z</time></trkpt><trkpt lat="43.83503550908655" lon="12.441897332745965"><ele>477.4</ele><time>2026-05-04T07:12:19Z</time></trkpt><trkpt lat="43.83501907874438" lon="12.441730458635927"><ele>478.0</ele><time>2026-05-04T07:12:21Z</time></trkpt><trkpt lat="43.83498794226906" lon="12.441634306278518"><ele>480.00000000000006</ele><time>2026-05-04T07:12:22Z</time></trkpt><trkpt lat="43.834928648064675" lon="12.441544508125762"><ele>482.0</ele><time>2026-05-04T07:12:23Z</time></trkpt><trkpt lat="43.834860275652694" lon="12.441467742520556"><ele>484.0</ele><time>2026-05-04T07:12:24Z</time></trkpt><trkpt lat="43.8347969914067" lon="12.441411728618084"><ele>486.0</ele><time>2026-05-04T07:12:25Z</time></trkpt><trkpt lat="43.83471806761024" lon="12.441321058373937"><ele>488.00000000000006</ele><time>2026-05-04T07:12:26Z</time></trkpt><trkpt lat="43.83465860504352" lon="12.441218194366115"><ele>490.0</ele><time>2026-05-04T07:12:27Z</time></trkpt><trkpt lat="43.83464294393313" lon="12.44112659186767"><ele>490.0</ele><time>2026-05-04T07:12:28Z</time></trkpt><trkpt lat="43.83458621966739" lon="12.441025801124889"><ele>490.0</ele><time>2026-05-04T07:12:29Z</time></trkpt><trkpt lat="43.83451101932761" lon="12.440945939384678"><ele>490.0</ele><time>2026-05-04T07:12:30Z</time></trkpt><trkpt lat="43.83444049396831" lon="12.440861113390467"><ele>490.0</ele><time>2026-05-04T07:12:31Z</time></trkpt><trkpt lat="43.8343736697388" lon="12.440794490682022"><ele>490.0</ele><time>2026-05-04T07:12:32Z</time></trkpt><trkpt lat="43.834284657425705" lon="12.440725195073934"><ele>491.8</ele><time>2026-05-04T07:12:33Z</time></trkpt><trkpt lat="43.8342055520423" lon="12.440646850052323"><ele>493.6</ele><time>2026-05-04T07:12:34Z</time></trkpt><trkpt lat="43.83412668730556" lon="12.440560689404492"><ele>495.4</ele><time>2026-05-04T07:12:35Z</time></trkpt><trkpt lat="43.834049341288335" lon="12.440471557487953"><ele>497.2</ele><time>2026-05-04T07:12:36Z</time></trkpt><trkpt lat="43.833981686349574" lon="12.440380057629254"><ele>499.0</ele><time>2026-05-04T07:12:37Z</time></trkpt><trkpt lat="43.83391838412817" lon="12.44029721489126"><ele>500.1666666666667</ele><time>2026-05-04T07:12:38Z</time></trkpt><trkpt lat="43.83387208271553" lon="12.440234170005121"><ele>501.33333333333337</ele><time>2026-05-04T07:12:39Z</time></trkpt><trkpt lat="43.83384238336388" lon="12.440144391169808"><ele>502.5</ele><time>2026-05-04T07:12:40Z</time></trkpt><trkpt lat="43.833826917335784" lon="12.440029929377332"><ele>503.66666666666663</ele><time>2026-05-04T07:12:41Z</time></trkpt><trkpt lat="43.83381537336846" lon="12.439893628890326"><ele>504.8333333333333</ele><time>2026-05-04T07:12:42Z</time></trkpt><trkpt lat="43.833777670437236" lon="12.439748695816519"><ele>506.0</ele><time>2026-05-04T07:12:43Z</time></trkpt><trkpt lat="43.83372659035583" lon="12.439618462399467"><ele>508.8</ele><time>2026-05-04T07:12:44Z</time></trkpt><trkpt lat="43.833663992105755" lon="12.4395117438336"><ele>511.6</ele><time>2026-05-04T07:12:45Z</time></trkpt><trkpt lat="43.83359433007648" lon="12.439418843300178"><ele>514.4</ele><time>2026-05-04T07:12:46Z</time></trkpt><trkpt lat="43.83356439202162" lon="12.439328790766607"><ele>517.2</ele><time>2026-05-04T07:12:47Z</time></trkpt><trkpt lat="43.83361329168054" lon="12.439181464523616"><ele>520.0</ele><time>2026-05-04T07:12:49Z</time></trkpt><trkpt lat="43.83369139142841" lon="12.439111127868342"><ele>520.0</ele><time>2026-05-04T07:12:50Z</time></trkpt><trkpt lat="43.83377610710004" lon="12.439024058522124"><ele>520.0</ele><time>2026-05-04T07:12:51Z</time></trkpt><trkpt lat="43.83383207192042" lon="12.438929283320258"><ele>520.0</ele><time>2026-05-04T07:12:52Z</time></trkpt><trkpt lat="43.83385411019768" lon="12.438844681309819"><ele>520.0</ele><time>2026-05-04T07:12:53Z</time></trkpt><trkpt lat="43.83385611284661" lon="12.438606337622431"><ele>520.0</ele><time>2026-05-04T07:12:55Z</time></trkpt><trkpt lat="43.83385846599576" lon="12.438488966948787"><ele>521.0</ele><time>2026-05-04T07:12:56Z</time></trkpt><trkpt lat="43.83384415216064" lon="12.438400282575735"><ele>522.0</ele><time>2026-05-04T07:12:57Z</time></trkpt><trkpt lat="43.83380903043109" lon="12.438315976502292"><ele>523.0</ele><time>2026-05-04T07:12:58Z</time></trkpt><trkpt lat="43.83374912997502" lon="12.438253890690893"><ele>524.0</ele><time>2026-05-04T07:12:59Z</time></trkpt><trkpt lat="43.83368691633272" lon="12.438187304713056"><ele>525.0</ele><time>2026-05-04T07:13:00Z</time></trkpt><trkpt lat="43.83361063275427" lon="12.438106827888905"><ele>526.0</ele><time>2026-05-04T07:13:01Z</time></trkpt><trkpt lat="43.83353060804195" lon="12.438030462534268"><ele>529.4</ele><time>2026-05-04T07:13:02Z</time></trkpt><trkpt lat="43.83344902206079" lon="12.43794464719035"><ele>532.8</ele><time>2026-05-04T07:13:03Z</time></trkpt><trkpt lat="43.833374353258954" lon="12.43784821200174"><ele>536.1999999999999</ele><time>2026-05-04T07:13:04Z</time></trkpt><trkpt lat="43.83331384532701" lon="12.437767589215644"><ele>539.6</ele><time>2026-05-04T07:13:05Z</time></trkpt><trkpt lat="43.833244780656685" lon="12.437716655660658"><ele>543.0</ele><time>2026-05-04T07:13:06Z</time></trkpt><trkpt lat="43.8331568955988" lon="12.437689485189622"><ele>543.0</ele><time>2026-05-04T07:13:07Z</time></trkpt><trkpt lat="43.83307130975629" lon="12.437672516297642"><ele>543.0</ele><time>2026-05-04T07:13:08Z</time></trkpt><trkpt lat="43.83300792216866" lon="12.437622860698436"><ele>543.0</ele><time>2026-05-04T07:13:09Z</time></trkpt><trkpt lat="43.832955718710735" lon="12.437557403005918"><ele>543.0</ele><time>2026-05-04T07:13:10Z</time></trkpt><trkpt lat="43.83290349744551" lon="12.437476105834655"><ele>543.0</ele><time>2026-05-04T07:13:11Z</time></trkpt><trkpt lat="43.8329261490273" lon="12.437391649049351"><ele>543.0</ele><time>2026-05-04T07:14:16Z</time></trkpt><trkpt lat="43.83287727679357" lon="12.437317946483104"><ele>543.0</ele><time>2026-05-04T07:14:24Z</time></trkpt><trkpt lat="43.832832117855595" lon="12.43722894010236"><ele>543.0</ele><time>2026-05-04T07:14:26Z</time></trkpt><trkpt lat="43.83278290594068" lon="12.437163796773785"><ele>543.0</ele><time>2026-05-04T07:14:28Z</time></trkpt><trkpt lat="43.83272817247932" lon="12.437109488740631"><ele>543.0</ele><time>2026-05-04T07:14:31Z</time></trkpt><trkpt lat="43.832643094030516" lon="12.437028770621462"><ele>543.0</ele><time>2026-05-04T07:14:34Z</time></trkpt><trkpt lat="43.832547642466615" lon="12.436948924604295"><ele>543.0</ele><time>2026-05-04T07:14:36Z</time></trkpt><trkpt lat="43.83245745281422" lon="12.436874076291275"><ele>545.3333333333334</ele><time>2026-05-04T07:14:38Z</time></trkpt><trkpt lat="43.83238619683171" lon="12.436720816848476"><ele>547.6666666666666</ele><time>2026-05-04T07:14:40Z</time></trkpt><trkpt lat="43.832354851678474" lon="12.43663574848759"><ele>550.0</ele><time>2026-05-04T07:14:41Z</time></trkpt><trkpt lat="43.83232212551182" lon="12.436553521709161"><ele>552.3333333333333</ele><time>2026-05-04T07:14:42Z</time></trkpt><trkpt lat="43.83229109645962" lon="12.43646083696569"><ele>554.6666666666666</ele><time>2026-05-04T07:14:43Z</time></trkpt><trkpt lat="43.8322565167601" lon="12.436367693107526"><ele>557.0</ele><time>2026-05-04T07:14:44Z</time></trkpt><trkpt lat="43.832222660237335" lon="12.436260487387266"><ele>557.5</ele><time>2026-05-04T07:14:45Z</time></trkpt><trkpt lat="43.83220003261696" lon="12.43615449474892"><ele>558.0</ele><time>2026-05-04T07:14:46Z</time></trkpt><trkpt lat="43.83218371821352" lon="12.4360366073498"><ele>558.5</ele><time>2026-05-04T07:14:47Z</time></trkpt><trkpt lat="43.832171251235714" lon="12.435943319907686"><ele>559.0</ele><time>2026-05-04T07:14:48Z</time></trkpt><trkpt lat="43.83215435574179" lon="12.43584729588313"><ele>559.5</ele><time>2026-05-04T07:14:49Z</time></trkpt><trkpt lat="43.83213197085299" lon="12.435740938216883"><ele>560.0</ele><time>2026-05-04T07:14:50Z</time></trkpt><trkpt lat="43.832112111916" lon="12.43564495775126"><ele>560.0</ele><time>2026-05-04T07:14:51Z</time></trkpt><trkpt lat="43.83209053308226" lon="12.435545682069804"><ele>560.0</ele><time>2026-05-04T07:14:52Z</time></trkpt><trkpt lat="43.83207006052052" lon="12.435452723483655"><ele>560.0</ele><time>2026-05-04T07:14:53Z</time></trkpt><trkpt lat="43.8320406488257" lon="12.435368329947707"><ele>560.0</ele><time>2026-05-04T07:14:54Z</time></trkpt><trkpt lat="43.83199208557671" lon="12.435296007327361"><ele>560.0</ele><time>2026-05-04T07:14:55Z</time></trkpt><trkpt lat="43.83191736673804" lon="12.435229021304018"><ele>560.0</ele><time>2026-05-04T07:14:56Z</time></trkpt><trkpt lat="43.83183951881485" lon="12.435167963612026"><ele>560.6</ele><time>2026-05-04T07:14:57Z</time></trkpt><trkpt lat="43.831765017734845" lon="12.435111543316083"><ele>561.2</ele><time>2026-05-04T07:14:58Z</time></trkpt><trkpt lat="43.831675951084094" lon="12.435057642705662"><ele>561.8</ele><time>2026-05-04T07:14:59Z</time></trkpt><trkpt lat="43.83158321551028" lon="12.43500918077727"><ele>562.4</ele><time>2026-05-04T07:15:00Z</time></trkpt><trkpt lat="43.831488854381185" lon="12.434966022291055"><ele>563.0</ele><time>2026-05-04T07:15:01Z</time></trkpt><trkpt lat="43.83139950217407" lon="12.434918983929293"><ele>563.0</ele><time>2026-05-04T07:15:02Z</time></trkpt><trkpt lat="43.8313156493008" lon="12.43486250936404"><ele>563.0</ele><time>2026-05-04T07:15:03Z</time></trkpt><trkpt lat="43.831231638699215" lon="12.434794465520563"><ele>563.0</ele><time>2026-05-04T07:15:04Z</time></trkpt><trkpt lat="43.83116533589131" lon="12.434723742011819"><ele>563.0</ele><time>2026-05-04T07:15:05Z</time></trkpt><trkpt lat="43.83109972057683" lon="12.434638359724529"><ele>563.0</ele><time>2026-05-04T07:15:06Z</time></trkpt><trkpt lat="43.83103136511189" lon="12.434553187158778"><ele>566.0</ele><time>2026-05-04T07:15:07Z</time></trkpt><trkpt lat="43.8309648187504" lon="12.43446315928599"><ele>569.0</ele><time>2026-05-04T07:15:08Z</time></trkpt><trkpt lat="43.83088527520787" lon="12.434364488454284"><ele>572.0</ele><time>2026-05-04T07:15:09Z</time></trkpt><trkpt lat="43.83080061863079" lon="12.434260621016564"><ele>575.0</ele><time>2026-05-04T07:15:10Z</time></trkpt><trkpt lat="43.830710482844935" lon="12.434156545645381"><ele>578.0</ele><time>2026-05-04T07:15:11Z</time></trkpt><trkpt lat="43.830618825160315" lon="12.434053810126587"><ele>578.0</ele><time>2026-05-04T07:15:12Z</time></trkpt><trkpt lat="43.830537077888145" lon="12.433953325164325"><ele>578.0</ele><time>2026-05-04T07:15:13Z</time></trkpt><trkpt lat="43.83046042007071" lon="12.433879357108038"><ele>578.0</ele><time>2026-05-04T07:15:15Z</time></trkpt><trkpt lat="43.83038234295244" lon="12.433990751831814"><ele>578.0</ele><time>2026-05-04T07:15:19Z</time></trkpt><trkpt lat="43.83034094795381" lon="12.43412624922882"><ele>578.0</ele><time>2026-05-04T07:15:21Z</time></trkpt><trkpt lat="43.830244804389935" lon="12.434197319181703"><ele>578.0</ele><time>2026-05-04T07:15:23Z</time></trkpt><trkpt lat="43.83015817974648" lon="12.434197161311948"><ele>578.0</ele><time>2026-05-04T07:15:25Z</time></trkpt><trkpt lat="43.83008050671656" lon="12.434183035797707"><ele>578.0</ele><time>2026-05-04T07:15:27Z</time></trkpt><trkpt lat="43.829995861830625" lon="12.434106388565382"><ele>578.0</ele><time>2026-05-04T07:15:29Z</time></trkpt><trkpt lat="43.82993899795665" lon="12.434003490817684"><ele>578.0</ele><time>2026-05-04T07:15:31Z</time></trkpt><trkpt lat="43.829882920361605" lon="12.433897794012562"><ele>579.4</ele><time>2026-05-04T07:15:33Z</time></trkpt><trkpt lat="43.829829274161334" lon="12.43381476520696"><ele>580.8</ele><time>2026-05-04T07:15:35Z</time></trkpt><trkpt lat="43.829848840811955" lon="12.433702723911518"><ele>582.2</ele><time>2026-05-04T07:15:38Z</time></trkpt><trkpt lat="43.829912614410155" lon="12.433663340949337"><ele>583.6</ele><time>2026-05-04T07:15:40Z</time></trkpt><trkpt lat="43.83002557073113" lon="12.433656622603944"><ele>585.0</ele><time>2026-05-04T07:15:42Z</time></trkpt><trkpt lat="43.830115942767996" lon="12.433559382080048"><ele>584.6</ele><time>2026-05-04T07:15:44Z</time></trkpt><trkpt lat="43.830169786109316" lon="12.433415929609126"><ele>584.2</ele><time>2026-05-04T07:15:46Z</time></trkpt><trkpt lat="43.830178732968164" lon="12.433303205556726"><ele>583.8</ele><time>2026-05-04T07:15:47Z</time></trkpt><trkpt lat="43.83017810528018" lon="12.4331720581278"><ele>583.4</ele><time>2026-05-04T07:15:48Z</time></trkpt><trkpt lat="43.8301602512502" lon="12.433039373424066"><ele>583.0</ele><time>2026-05-04T07:15:49Z</time></trkpt><trkpt lat="43.830145243694666" lon="12.432909086800331"><ele>585.1999999999999</ele><time>2026-05-04T07:15:50Z</time></trkpt><trkpt lat="43.83013038734495" lon="12.432764615375639"><ele>587.4</ele><time>2026-05-04T07:15:51Z</time></trkpt><trkpt lat="43.830110517481906" lon="12.432613331624848"><ele>589.5999999999999</ele><time>2026-05-04T07:15:52Z</time></trkpt><trkpt lat="43.8300951627939" lon="12.432460659316506"><ele>591.8</ele><time>2026-05-04T07:15:53Z</time></trkpt><trkpt lat="43.83008529091727" lon="12.432307705852402"><ele>594.0</ele><time>2026-05-04T07:15:54Z</time></trkpt><trkpt lat="43.83007909189271" lon="12.432154247033903"><ele>593.75</ele><time>2026-05-04T07:15:55Z</time></trkpt><trkpt lat="43.830082086985556" lon="12.432001401212508"><ele>593.5</ele><time>2026-05-04T07:15:56Z</time></trkpt><trkpt lat="43.83009634729209" lon="12.431844573389995"><ele>593.25</ele><time>2026-05-04T07:15:57Z</time></trkpt><trkpt lat="43.83011793843077" lon="12.431683284468344"><ele>593.0</ele><time>2026-05-04T07:15:58Z</time></trkpt><trkpt lat="43.830144582688824" lon="12.431516704207535"><ele>593.0</ele><time>2026-05-04T07:15:59Z</time></trkpt><trkpt lat="43.830178722396795" lon="12.431349819899538"><ele>593.0</ele><time>2026-05-04T07:16:00Z</time></trkpt><trkpt lat="43.8302075796867" lon="12.431173785123196"><ele>593.0</ele><time>2026-05-04T07:16:01Z</time></trkpt><trkpt lat="43.830237439503506" lon="12.43100620546644"><ele>593.0</ele><time>2026-05-04T07:16:02Z</time></trkpt><trkpt lat="43.830266510794125" lon="12.43084165324676"><ele>593.75</ele><time>2026-05-04T07:16:03Z</time></trkpt><trkpt lat="43.83029362972804" lon="12.430680923894297"><ele>594.5</ele><time>2026-05-04T07:16:04Z</time></trkpt><trkpt lat="43.830318186279996" lon="12.430527075183143"><ele>595.25</ele><time>2026-05-04T07:16:05Z</time></trkpt><trkpt lat="43.83033620883022" lon="12.430374376963233"><ele>596.0</ele><time>2026-05-04T07:16:06Z</time></trkpt><trkpt lat="43.83034095798097" lon="12.430209106226652"><ele>597.0</ele><time>2026-05-04T07:16:07Z</time></trkpt><trkpt lat="43.83032882878835" lon="12.43001875083946"><ele>598.0</ele><time>2026-05-04T07:16:08Z</time></trkpt><trkpt lat="43.83030268789821" lon="12.42982095370678"><ele>599.0</ele><time>2026-05-04T07:16:09Z</time></trkpt><trkpt lat="43.83027294186166" lon="12.429644670719618"><ele>600.0</ele><time>2026-05-04T07:16:10Z</time></trkpt><trkpt lat="43.8302486951516" lon="12.42949212481055"><ele>600.6</ele><time>2026-05-04T07:16:11Z</time></trkpt><trkpt lat="43.83022767645595" lon="12.42933612476061"><ele>601.2</ele><time>2026-05-04T07:16:12Z</time></trkpt><trkpt lat="43.83021131761033" lon="12.4291791024245"><ele>601.8</ele><time>2026-05-04T07:16:13Z</time></trkpt><trkpt lat="43.83021203411092" lon="12.429041332276434"><ele>602.4</ele><time>2026-05-04T07:16:14Z</time></trkpt><trkpt lat="43.83022019096752" lon="12.428924173473469"><ele>603.0</ele><time>2026-05-04T07:16:15Z</time></trkpt><trkpt lat="43.83022728139116" lon="12.428821492110378"><ele>604.8333333333334</ele><time>2026-05-04T07:16:16Z</time></trkpt><trkpt lat="43.83024270418782" lon="12.428715365550424"><ele>606.6666666666666</ele><time>2026-05-04T07:16:18Z</time></trkpt><trkpt lat="43.830176773581016" lon="12.428660391803918"><ele>608.5</ele><time>2026-05-04T07:16:21Z</time></trkpt><trkpt lat="43.830075861146156" lon="12.428650690501437"><ele>610.3333333333333</ele><time>2026-05-04T07:16:23Z</time></trkpt><trkpt lat="43.82997443376781" lon="12.428596445529935"><ele>612.1666666666666</ele><time>2026-05-04T07:16:25Z</time></trkpt><trkpt lat="43.82991877843448" lon="12.428539394693619"><ele>614.0</ele><time>2026-05-04T07:16:26Z</time></trkpt><trkpt lat="43.82986167551328" lon="12.428482048044723"><ele>615.3333333333333</ele><time>2026-05-04T07:16:27Z</time></trkpt><trkpt lat="43.82980030915747" lon="12.428423846041243"><ele>616.6666666666666</ele><time>2026-05-04T07:16:28Z</time></trkpt><trkpt lat="43.82972494507626" lon="12.428343190114129"><ele>618.0</ele><time>2026-05-04T07:16:29Z</time></trkpt><trkpt lat="43.829658341841125" lon="12.42825743662821"><ele>619.3333333333334</ele><time>2026-05-04T07:16:30Z</time></trkpt><trkpt lat="43.82960763240287" lon="12.428193920419146"><ele>620.6666666666667</ele><time>2026-05-04T07:16:31Z</time></trkpt><trkpt lat="43.82954661441715" lon="12.428129856544956"><ele>622.0</ele><time>2026-05-04T07:16:32Z</time></trkpt><trkpt lat="43.829498773762715" lon="12.428069937348821"><ele>622.0</ele><time>2026-05-04T07:16:33Z</time></trkpt><trkpt lat="43.829457063597204" lon="12.42800019881399"><ele>622.0</ele><time>2026-05-04T07:16:34Z</time></trkpt><trkpt lat="43.82941953155791" lon="12.427922829773161"><ele>622.0</ele><time>2026-05-04T07:16:35Z</time></trkpt><trkpt lat="43.829390872337385" lon="12.427843257371114"><ele>622.0</ele><time>2026-05-04T07:16:36Z</time></trkpt><trkpt lat="43.82935566649176" lon="12.427768558961299"><ele>622.0</ele><time>2026-05-04T07:16:37Z</time></trkpt><trkpt lat="43.82931469787257" lon="12.427688903724166"><ele>622.0</ele><time>2026-05-04T07:16:38Z</time></trkpt><trkpt lat="43.82928300357059" lon="12.427608108362529"><ele>622.0</ele><time>2026-05-04T07:16:39Z</time></trkpt><trkpt lat="43.82923097691959" lon="12.427425044572905"><ele>623.0</ele><time>2026-05-04T07:16:41Z</time></trkpt><trkpt lat="43.82920924543502" lon="12.42731067629314"><ele>624.0</ele><time>2026-05-04T07:16:42Z</time></trkpt><trkpt lat="43.82916840440987" lon="12.42715153183401"><ele>625.0</ele><time>2026-05-04T07:16:44Z</time></trkpt><trkpt lat="43.829149252231815" lon="12.427061459244404"><ele>626.0</ele><time>2026-05-04T07:16:45Z</time></trkpt><trkpt lat="43.82912982690928" lon="12.426958762809804"><ele>627.0</ele><time>2026-05-04T07:16:46Z</time></trkpt><trkpt lat="43.8291049419252" lon="12.426866098007594"><ele>628.0</ele><time>2026-05-04T07:16:47Z</time></trkpt><trkpt lat="43.829069628467" lon="12.426744003922646"><ele>630.8</ele><time>2026-05-04T07:16:48Z</time></trkpt><trkpt lat="43.82903485636067" lon="12.4266009902466"><ele>633.5999999999999</ele><time>2026-05-04T07:16:49Z</time></trkpt><trkpt lat="43.82899585168635" lon="12.426481558035382"><ele>636.4000000000001</ele><time>2026-05-04T07:16:50Z</time></trkpt><trkpt lat="43.82895184957677" lon="12.426351108423143"><ele>639.2</ele><time>2026-05-04T07:16:51Z</time></trkpt><trkpt lat="43.828906050589126" lon="12.42623292271617"><ele>642.0</ele><time>2026-05-04T07:16:52Z</time></trkpt><trkpt lat="43.82884849817576" lon="12.426120023859852"><ele>646.2</ele><time>2026-05-04T07:16:53Z</time></trkpt><trkpt lat="43.8287884050434" lon="12.426011282196015"><ele>650.4000000000001</ele><time>2026-05-04T07:16:54Z</time></trkpt><trkpt lat="43.82873124044031" lon="12.42589943185476"><ele>654.5999999999999</ele><time>2026-05-04T07:16:55Z</time></trkpt><trkpt lat="43.82867070997078" lon="12.42578005647294"><ele>658.8</ele><time>2026-05-04T07:16:56Z</time></trkpt><trkpt lat="43.82860837307225" lon="12.425680286237963"><ele>663.0</ele><time>2026-05-04T07:16:57Z</time></trkpt><trkpt lat="43.82853781080701" lon="12.425607646158454"><ele>663.0</ele><time>2026-05-04T07:16:58Z</time></trkpt><trkpt lat="43.828453272422564" lon="12.425519104984295"><ele>663.0</ele><time>2026-05-04T07:16:59Z</time></trkpt><trkpt lat="43.82838535077235" lon="12.425447856002966"><ele>663.0</ele><time>2026-05-04T07:17:00Z</time></trkpt><trkpt lat="43.82823488921615" lon="12.425390593960941"><ele>663.0</ele><time>2026-05-04T07:17:02Z</time></trkpt><trkpt lat="43.82812872048562" lon="12.42536747152252"><ele>663.0</ele><time>2026-05-04T07:17:03Z</time></trkpt><trkpt lat="43.82803713946235" lon="12.425356334888175"><ele>663.0</ele><time>2026-05-04T07:17:04Z</time></trkpt><trkpt lat="43.8279382790194" lon="12.425348116290605"><ele>663.0</ele><time>2026-05-04T07:17:05Z</time></trkpt><trkpt lat="43.82784524520053" lon="12.425364735192348"><ele>663.0</ele><time>2026-05-04T07:17:06Z</time></trkpt><trkpt lat="43.82775170722567" lon="12.425410076574275"><ele>663.0</ele><time>2026-05-04T07:17:07Z</time></trkpt><trkpt lat="43.82768203663545" lon="12.425449829475903"><ele>661.8</ele><time>2026-05-04T07:17:08Z</time></trkpt><trkpt lat="43.82756842815077" lon="12.425449045863463"><ele>660.5999999999999</ele><time>2026-05-04T07:17:10Z</time></trkpt><trkpt lat="43.82749874191728" lon="12.425407340643382"><ele>659.4000000000001</ele><time>2026-05-04T07:17:11Z</time></trkpt><trkpt lat="43.827405195519404" lon="12.425339244823691"><ele>658.2</ele><time>2026-05-04T07:17:12Z</time></trkpt><trkpt lat="43.827318653100996" lon="12.425263461877943"><ele>657.0</ele><time>2026-05-04T07:17:13Z</time></trkpt><trkpt lat="43.82722347114417" lon="12.425200898151196"><ele>657.0</ele><time>2026-05-04T07:17:14Z</time></trkpt><trkpt lat="43.82713964418459" lon="12.42514369054082"><ele>657.0</ele><time>2026-05-04T07:17:15Z</time></trkpt><trkpt lat="43.82705388494736" lon="12.425068732260991"><ele>657.0</ele><time>2026-05-04T07:17:16Z</time></trkpt><trkpt lat="43.82696866932068" lon="12.424994676227575"><ele>657.0</ele><time>2026-05-04T07:17:17Z</time></trkpt><trkpt lat="43.826883305656274" lon="12.424915105060508"><ele>657.0</ele><time>2026-05-04T07:17:18Z</time></trkpt><trkpt lat="43.82674156379321" lon="12.424823109033879"><ele>654.8</ele><time>2026-05-04T07:17:20Z</time></trkpt><trkpt lat="43.82667525966168" lon="12.424801583845179"><ele>652.6</ele><time>2026-05-04T07:17:21Z</time></trkpt><trkpt lat="43.826541903143195" lon="12.42476503930438"><ele>650.4</ele><time>2026-05-04T07:17:23Z</time></trkpt><trkpt lat="43.826462558654285" lon="12.42474600458354"><ele>648.1999999999999</ele><time>2026-05-04T07:17:24Z</time></trkpt><trkpt lat="43.8263673184647" lon="12.424720780369702"><ele>646.0</ele><time>2026-05-04T07:17:25Z</time></trkpt><trkpt lat="43.82627759012461" lon="12.424710675053166"><ele>646.0</ele><time>2026-05-04T07:17:26Z</time></trkpt><trkpt lat="43.82618728407119" lon="12.424727136783511"><ele>646.0</ele><time>2026-05-04T07:17:27Z</time></trkpt><trkpt lat="43.82611444764711" lon="12.424749291933777"><ele>646.0</ele><time>2026-05-04T07:17:28Z</time></trkpt><trkpt lat="43.82604378276924" lon="12.424756164460769"><ele>646.0</ele><time>2026-05-04T07:17:29Z</time></trkpt><trkpt lat="43.82597601156367" lon="12.424735291970665"><ele>646.0</ele><time>2026-05-04T07:17:30Z</time></trkpt><trkpt lat="43.8258973499183" lon="12.424686145370469"><ele>646.0</ele><time>2026-05-04T07:17:31Z</time></trkpt><trkpt lat="43.82584967443678" lon="12.42462839180469"><ele>647.6666666666667</ele><time>2026-05-04T07:17:32Z</time></trkpt><trkpt lat="43.82580741759583" lon="12.424550202844857"><ele>649.3333333333334</ele><time>2026-05-04T07:17:33Z</time></trkpt><trkpt lat="43.82576753168785" lon="12.424462845274778"><ele>651.0</ele><time>2026-05-04T07:17:34Z</time></trkpt><trkpt lat="43.825739343272645" lon="12.424362094770313"><ele>652.6666666666666</ele><time>2026-05-04T07:17:35Z</time></trkpt><trkpt lat="43.825705799162805" lon="12.424251699787202"><ele>654.3333333333333</ele><time>2026-05-04T07:17:36Z</time></trkpt><trkpt lat="43.82566789323944" lon="12.424151225135699"><ele>656.0</ele><time>2026-05-04T07:17:37Z</time></trkpt><trkpt lat="43.82564475006764" lon="12.424053974319945"><ele>656.0</ele><time>2026-05-04T07:17:38Z</time></trkpt><trkpt lat="43.825637103353" lon="12.423942399967524"><ele>656.0</ele><time>2026-05-04T07:17:39Z</time></trkpt><trkpt lat="43.82561442894316" lon="12.423837424705702"><ele>656.0</ele><time>2026-05-04T07:17:40Z</time></trkpt><trkpt lat="43.825592522752764" lon="12.423736151032472"><ele>656.0</ele><time>2026-05-04T07:17:41Z</time></trkpt><trkpt lat="43.82555183515458" lon="12.423628941165486"><ele>656.0</ele><time>2026-05-04T07:17:42Z</time></trkpt><trkpt lat="43.825501074223425" lon="12.42352880728789"><ele>656.0</ele><time>2026-05-04T07:17:43Z</time></trkpt><trkpt lat="43.825443205729925" lon="12.42344667231609"><ele>655.6666666666666</ele><time>2026-05-04T07:17:44Z</time></trkpt><trkpt lat="43.825388574826746" lon="12.42339445590584"><ele>655.3333333333333</ele><time>2026-05-04T07:17:45Z</time></trkpt><trkpt lat="43.825302095559564" lon="12.423331562865481"><ele>655.0</ele><time>2026-05-04T07:17:47Z</time></trkpt><trkpt lat="43.82523826306478" lon="12.423247480489872"><ele>654.6666666666666</ele><time>2026-05-04T07:17:49Z</time></trkpt><trkpt lat="43.825158286495245" lon="12.42313283488358"><ele>654.3333333333334</ele><time>2026-05-04T07:17:51Z</time></trkpt><trkpt lat="43.82511087999705" lon="12.423062837688244"><ele>654.0</ele><time>2026-05-04T07:17:52Z</time></trkpt><trkpt lat="43.82506409139963" lon="12.423004406449065"><ele>656.4000000000001</ele><time>2026-05-04T07:17:53Z</time></trkpt><trkpt lat="43.82501324648128" lon="12.422950173801096"><ele>658.8</ele><time>2026-05-04T07:17:54Z</time></trkpt><trkpt lat="43.824913582645884" lon="12.422860627574943"><ele>661.2</ele><time>2026-05-04T07:17:56Z</time></trkpt><trkpt lat="43.82480383369985" lon="12.422794049574605"><ele>663.5999999999999</ele><time>2026-05-04T07:17:58Z</time></trkpt><trkpt lat="43.82468069253587" lon="12.422746753308681"><ele>666.0</ele><time>2026-05-04T07:18:00Z</time></trkpt><trkpt lat="43.8246151141693" lon="12.422732729893466"><ele>666.0</ele><time>2026-05-04T07:18:01Z</time></trkpt><trkpt lat="43.824542713839016" lon="12.422719432215564"><ele>666.0</ele><time>2026-05-04T07:18:02Z</time></trkpt><trkpt lat="43.824475124565474" lon="12.422708482107257"><ele>666.0</ele><time>2026-05-04T07:18:03Z</time></trkpt><trkpt lat="43.82440564538438" lon="12.42269100848956"><ele>666.0</ele><time>2026-05-04T07:18:04Z</time></trkpt><trkpt lat="43.824326752754885" lon="12.422671526592312"><ele>666.0</ele><time>2026-05-04T07:18:05Z</time></trkpt><trkpt lat="43.82425305403156" lon="12.422653275787127"><ele>666.0</ele><time>2026-05-04T07:18:06Z</time></trkpt><trkpt lat="43.82416883077604" lon="12.422629404180604"><ele>664.8333333333334</ele><time>2026-05-04T07:18:07Z</time></trkpt><trkpt lat="43.82409140963861" lon="12.422614312141274"><ele>663.6666666666666</ele><time>2026-05-04T07:18:08Z</time></trkpt><trkpt lat="43.8240083848187" lon="12.422596407349701"><ele>662.5</ele><time>2026-05-04T07:18:09Z</time></trkpt><trkpt lat="43.82393140010778" lon="12.422580110874963"><ele>661.3333333333333</ele><time>2026-05-04T07:18:10Z</time></trkpt><trkpt lat="43.82386338184171" lon="12.422569468072124"><ele>660.1666666666666</ele><time>2026-05-04T07:18:11Z</time></trkpt><trkpt lat="43.82374489992119" lon="12.422538201281531"><ele>659.0</ele><time>2026-05-04T07:18:13Z</time></trkpt><trkpt lat="43.823647697224544" lon="12.422467848348054"><ele>659.0</ele><time>2026-05-04T07:18:15Z</time></trkpt><trkpt lat="43.82360815991427" lon="12.42239765887803"><ele>659.0</ele><time>2026-05-04T07:18:16Z</time></trkpt><trkpt lat="43.823587651051646" lon="12.422223757187652"><ele>659.0</ele><time>2026-05-04T07:18:18Z</time></trkpt><trkpt lat="43.82359983101931" lon="12.422112848265613"><ele>659.0</ele><time>2026-05-04T07:18:19Z</time></trkpt><trkpt lat="43.82361099753126" lon="12.422001947972053"><ele>659.0</ele><time>2026-05-04T07:18:20Z</time></trkpt><trkpt lat="43.82360471878389" lon="12.421886916855215"><ele>659.0</ele><time>2026-05-04T07:18:21Z</time></trkpt><trkpt lat="43.82359940072833" lon="12.421777482555784"><ele>660.8333333333333</ele><time>2026-05-04T07:18:22Z</time></trkpt><trkpt lat="43.82360784197909" lon="12.421665074153053"><ele>662.6666666666666</ele><time>2026-05-04T07:18:23Z</time></trkpt><trkpt lat="43.82363578826865" lon="12.421549991744413"><ele>664.5</ele><time>2026-05-04T07:18:24Z</time></trkpt><trkpt lat="43.82367989461041" lon="12.421449833434679"><ele>666.3333333333334</ele><time>2026-05-04T07:18:25Z</time></trkpt><trkpt lat="43.8237256880136" lon="12.421356837911247"><ele>668.1666666666667</ele><time>2026-05-04T07:18:26Z</time></trkpt><trkpt lat="43.82376440545821" lon="12.421286240908541"><ele>670.0</ele><time>2026-05-04T07:18:27Z</time></trkpt><trkpt lat="43.82383363800803" lon="12.421156302200794"><ele>671.8</ele><time>2026-05-04T07:18:29Z</time></trkpt><trkpt lat="43.823902182473354" lon="12.421049935470112"><ele>673.6</ele><time>2026-05-04T07:18:30Z</time></trkpt><trkpt lat="43.82397173011518" lon="12.420941406290503"><ele>675.4000000000001</ele><time>2026-05-04T07:18:31Z</time></trkpt><trkpt lat="43.82403469015135" lon="12.420806448066427"><ele>677.2</ele><time>2026-05-04T07:18:32Z</time></trkpt><trkpt lat="43.824094150853625" lon="12.420666311815307"><ele>679.0</ele><time>2026-05-04T07:18:33Z</time></trkpt><trkpt lat="43.824140035611805" lon="12.420515334943074"><ele>678.2</ele><time>2026-05-04T07:18:34Z</time></trkpt><trkpt lat="43.82417865399373" lon="12.420376534463117"><ele>677.4000000000001</ele><time>2026-05-04T07:18:35Z</time></trkpt><trkpt lat="43.82421005689534" lon="12.420237132914043"><ele>676.6</ele><time>2026-05-04T07:18:36Z</time></trkpt><trkpt lat="43.82424149058482" lon="12.420104592357287"><ele>675.8</ele><time>2026-05-04T07:18:37Z</time></trkpt><trkpt lat="43.82427652093958" lon="12.41996259967801"><ele>675.0</ele><time>2026-05-04T07:18:38Z</time></trkpt><trkpt lat="43.82431273718384" lon="12.4198176010367"><ele>679.5</ele><time>2026-05-04T07:18:39Z</time></trkpt><trkpt lat="43.824359013269195" lon="12.419660328269881"><ele>684.0</ele><time>2026-05-04T07:18:40Z</time></trkpt><trkpt lat="43.8244021216598" lon="12.419509647764682"><ele>688.5</ele><time>2026-05-04T07:18:41Z</time></trkpt><trkpt lat="43.824456606567814" lon="12.419364832725453"><ele>693.0</ele><time>2026-05-04T07:18:42Z</time></trkpt><trkpt lat="43.824501502729376" lon="12.419223186358932"><ele>693.0</ele><time>2026-05-04T07:18:43Z</time></trkpt><trkpt lat="43.824541227347545" lon="12.419090024735715"><ele>693.0</ele><time>2026-05-04T07:18:44Z</time></trkpt><trkpt lat="43.824568580568695" lon="12.418963720568012"><ele>693.0</ele><time>2026-05-04T07:18:45Z</time></trkpt><trkpt lat="43.824588067693476" lon="12.418847225592518"><ele>693.0</ele><time>2026-05-04T07:18:46Z</time></trkpt><trkpt lat="43.82460546746363" lon="12.418731656555144"><ele>693.0</ele><time>2026-05-04T07:18:47Z</time></trkpt><trkpt lat="43.824611142028424" lon="12.418629351051244"><ele>693.0</ele><time>2026-05-04T07:18:48Z</time></trkpt><trkpt lat="43.82460181283041" lon="12.418515427072121"><ele>692.4</ele><time>2026-05-04T07:18:49Z</time></trkpt><trkpt lat="43.824570398220445" lon="12.41838123366842"><ele>691.8</ele><time>2026-05-04T07:18:50Z</time></trkpt><trkpt lat="43.82454055660483" lon="12.418256850741196"><ele>691.2</ele><time>2026-05-04T07:18:51Z</time></trkpt><trkpt lat="43.82449039018975" lon="12.418124864683767"><ele>690.6</ele><time>2026-05-04T07:18:52Z</time></trkpt><trkpt lat="43.824451445223325" lon="12.418011776019704"><ele>690.0</ele><time>2026-05-04T07:18:53Z</time></trkpt><trkpt lat="43.82443022745934" lon="12.417919861176038"><ele>690.0</ele><time>2026-05-04T07:18:54Z</time></trkpt><trkpt lat="43.82442272575141" lon="12.417815918660324"><ele>690.0</ele><time>2026-05-04T07:18:55Z</time></trkpt><trkpt lat="43.82443369059555" lon="12.417696785872087"><ele>690.0</ele><time>2026-05-04T07:18:56Z</time></trkpt><trkpt lat="43.824445458212416" lon="12.417545777394226"><ele>690.0</ele><time>2026-05-04T07:18:57Z</time></trkpt><trkpt lat="43.824452955563096" lon="12.41738100149187"><ele>690.0</ele><time>2026-05-04T07:18:58Z</time></trkpt><trkpt lat="43.82445068747997" lon="12.417193759434063"><ele>690.5</ele><time>2026-05-04T07:18:59Z</time></trkpt><trkpt lat="43.82445261520002" lon="12.41702366283848"><ele>691.0</ele><time>2026-05-04T07:19:00Z</time></trkpt><trkpt lat="43.82445612954734" lon="12.416838043880505"><ele>691.5</ele><time>2026-05-04T07:19:01Z</time></trkpt><trkpt lat="43.82446386087123" lon="12.416654695575794"><ele>692.0</ele><time>2026-05-04T07:19:02Z</time></trkpt><trkpt lat="43.82446844914325" lon="12.416469918218594"><ele>693.0</ele><time>2026-05-04T07:19:03Z</time></trkpt><trkpt lat="43.82446967694445" lon="12.416288163647422"><ele>694.0</ele><time>2026-05-04T07:19:04Z</time></trkpt><trkpt lat="43.824470193393736" lon="12.416107421898456"><ele>695.0</ele><time>2026-05-04T07:19:05Z</time></trkpt><trkpt lat="43.82447065888088" lon="12.41594440548817"><ele>696.0</ele><time>2026-05-04T07:19:06Z</time></trkpt><trkpt lat="43.82447678356654" lon="12.415795875973833"><ele>696.0</ele><time>2026-05-04T07:19:07Z</time></trkpt><trkpt lat="43.824477273585195" lon="12.415661463627123"><ele>696.0</ele><time>2026-05-04T07:19:08Z</time></trkpt><trkpt lat="43.824472328106765" lon="12.415542404128061"><ele>696.0</ele><time>2026-05-04T07:19:09Z</time></trkpt><trkpt lat="43.824459233671405" lon="12.415440558937837"><ele>696.0</ele><time>2026-05-04T07:19:10Z</time></trkpt><trkpt lat="43.824418013994205" lon="12.41535955396171"><ele>696.0</ele><time>2026-05-04T07:19:11Z</time></trkpt><trkpt lat="43.824372219061665" lon="12.415289218578854"><ele>696.0</ele><time>2026-05-04T07:19:12Z</time></trkpt><trkpt lat="43.824312415123636" lon="12.415239031801478"><ele>694.0</ele><time>2026-05-04T07:19:13Z</time></trkpt><trkpt lat="43.824242803005376" lon="12.415207087637636"><ele>692.0</ele><time>2026-05-04T07:19:14Z</time></trkpt><trkpt lat="43.824177050638504" lon="12.415186290096461"><ele>690.0</ele><time>2026-05-04T07:19:15Z</time></trkpt><trkpt lat="43.82408682973609" lon="12.415224811169397"><ele>688.0</ele><time>2026-05-04T07:19:16Z</time></trkpt><trkpt lat="43.82400430505484" lon="12.415251087467494"><ele>686.0</ele><time>2026-05-04T07:19:17Z</time></trkpt><trkpt lat="43.82391008548555" lon="12.415246352187618"><ele>684.0</ele><time>2026-05-04T07:19:18Z</time></trkpt><trkpt lat="43.82382912149595" lon="12.415212813159153"><ele>684.0</ele><time>2026-05-04T07:19:19Z</time></trkpt><trkpt lat="43.82374965017611" lon="12.415172921662842"><ele>684.0</ele><time>2026-05-04T07:19:20Z</time></trkpt><trkpt lat="43.82366233373331" lon="12.415122716130494"><ele>684.0</ele><time>2026-05-04T07:19:21Z</time></trkpt><trkpt lat="43.82359187060463" lon="12.415075306062237"><ele>684.0</ele><time>2026-05-04T07:19:22Z</time></trkpt><trkpt lat="43.823521773528725" lon="12.415040933917497"><ele>684.0</ele><time>2026-05-04T07:19:23Z</time></trkpt><trkpt lat="43.82345493267482" lon="12.415008858172133"><ele>684.0</ele><time>2026-05-04T07:19:24Z</time></trkpt><trkpt lat="43.82339448951904" lon="12.41497373073319"><ele>681.5</ele><time>2026-05-04T07:19:25Z</time></trkpt><trkpt lat="43.82333903684512" lon="12.414929076234625"><ele>679.0</ele><time>2026-05-04T07:19:26Z</time></trkpt><trkpt lat="43.823255310870614" lon="12.414837985226416"><ele>676.5</ele><time>2026-05-04T07:19:28Z</time></trkpt><trkpt lat="43.82322884054778" lon="12.414753367360266"><ele>674.0</ele><time>2026-05-04T07:19:30Z</time></trkpt><trkpt lat="43.82327188024963" lon="12.414638275724961"><ele>671.5</ele><time>2026-05-04T07:19:32Z</time></trkpt><trkpt lat="43.82331049042055" lon="12.414551077806545"><ele>669.0</ele><time>2026-05-04T07:19:33Z</time></trkpt><trkpt lat="43.8233463588225" lon="12.414469143604022"><ele>667.8000000000001</ele><time>2026-05-04T07:19:34Z</time></trkpt><trkpt lat="43.823403332273244" lon="12.414307089909984"><ele>666.6</ele><time>2026-05-04T07:19:36Z</time></trkpt><trkpt lat="43.823435837433664" lon="12.414221087393697"><ele>665.4</ele><time>2026-05-04T07:19:37Z</time></trkpt><trkpt lat="43.82348022195161" lon="12.414106023092412"><ele>664.2</ele><time>2026-05-04T07:19:38Z</time></trkpt><trkpt lat="43.82352743956771" lon="12.413975787009365"><ele>663.0</ele><time>2026-05-04T07:19:39Z</time></trkpt><trkpt lat="43.823583249803534" lon="12.413831842892723"><ele>666.75</ele><time>2026-05-04T07:19:40Z</time></trkpt><trkpt lat="43.82364522866948" lon="12.413680736948645"><ele>670.5</ele><time>2026-05-04T07:19:41Z</time></trkpt><trkpt lat="43.823703183357985" lon="12.413530260005748"><ele>674.25</ele><time>2026-05-04T07:19:42Z</time></trkpt><trkpt lat="43.82375558462265" lon="12.413392481727328"><ele>678.0</ele><time>2026-05-04T07:19:43Z</time></trkpt><trkpt lat="43.82379962054647" lon="12.413266554603759"><ele>678.0</ele><time>2026-05-04T07:19:44Z</time></trkpt><trkpt lat="43.82385075253361" lon="12.413141396478878"><ele>678.0</ele><time>2026-05-04T07:19:45Z</time></trkpt><trkpt lat="43.82389960828718" lon="12.413016451936176"><ele>678.0</ele><time>2026-05-04T07:19:46Z</time></trkpt><trkpt lat="43.82394596211676" lon="12.41288843280542"><ele>678.0</ele><time>2026-05-04T07:19:47Z</time></trkpt><trkpt lat="43.82399181507554" lon="12.412748830068772"><ele>678.0</ele><time>2026-05-04T07:19:48Z</time></trkpt><trkpt lat="43.82404081699234" lon="12.412631456825705"><ele>676.8</ele><time>2026-05-04T07:19:49Z</time></trkpt><trkpt lat="43.82408250152509" lon="12.41250891825819"><ele>675.5999999999999</ele><time>2026-05-04T07:19:50Z</time></trkpt><trkpt lat="43.82412561592586" lon="12.412382098078082"><ele>674.4000000000001</ele><time>2026-05-04T07:19:51Z</time></trkpt><trkpt lat="43.82417351784445" lon="12.412259719857733"><ele>673.2</ele><time>2026-05-04T07:19:52Z</time></trkpt><trkpt lat="43.824226173337934" lon="12.412125960511272"><ele>672.0</ele><time>2026-05-04T07:19:53Z</time></trkpt><trkpt lat="43.82427515783149" lon="12.412005282479909"><ele>670.6</ele><time>2026-05-04T07:19:54Z</time></trkpt><trkpt lat="43.82433527716156" lon="12.411870956597124"><ele>669.2</ele><time>2026-05-04T07:19:55Z</time></trkpt><trkpt lat="43.8243782308004" lon="12.411760075115527"><ele>667.8</ele><time>2026-05-04T07:19:56Z</time></trkpt><trkpt lat="43.82440316025487" lon="12.411672729314448"><ele>666.4</ele><time>2026-05-04T07:19:57Z</time></trkpt><trkpt lat="43.824394204824046" lon="12.411462525416443"><ele>665.0</ele><time>2026-05-04T07:19:59Z</time></trkpt><trkpt lat="43.82436659509332" lon="12.411320987922899"><ele>664.75</ele><time>2026-05-04T07:20:00Z</time></trkpt><trkpt lat="43.82431287093393" lon="12.411175893449814"><ele>664.5</ele><time>2026-05-04T07:20:01Z</time></trkpt><trkpt lat="43.82426666683177" lon="12.411029626264874"><ele>664.25</ele><time>2026-05-04T07:20:02Z</time></trkpt><trkpt lat="43.82422132857879" lon="12.410885691449144"><ele>664.0</ele><time>2026-05-04T07:20:03Z</time></trkpt><trkpt lat="43.82418490852491" lon="12.41072619526517"><ele>664.0</ele><time>2026-05-04T07:20:04Z</time></trkpt><trkpt lat="43.824145106833754" lon="12.410549723876729"><ele>664.0</ele><time>2026-05-04T07:20:05Z</time></trkpt><trkpt lat="43.82410261066327" lon="12.410378747291121"><ele>664.0</ele><time>2026-05-04T07:20:06Z</time></trkpt><trkpt lat="43.82405924981624" lon="12.410210617954332"><ele>664.0</ele><time>2026-05-04T07:20:07Z</time></trkpt><trkpt lat="43.82401259061851" lon="12.410051970758923"><ele>664.0</ele><time>2026-05-04T07:20:08Z</time></trkpt><trkpt lat="43.82396637650373" lon="12.409893010810542"><ele>664.0</ele><time>2026-05-04T07:20:09Z</time></trkpt><trkpt lat="43.82392101562139" lon="12.409726889975746"><ele>664.0</ele><time>2026-05-04T07:20:10Z</time></trkpt><trkpt lat="43.82388196208471" lon="12.409568133977508"><ele>664.0</ele><time>2026-05-04T07:20:11Z</time></trkpt><trkpt lat="43.823840366572746" lon="12.409415421820219"><ele>663.8000000000001</ele><time>2026-05-04T07:20:12Z</time></trkpt><trkpt lat="43.82379907111264" lon="12.409267684134324"><ele>663.6</ele><time>2026-05-04T07:20:13Z</time></trkpt><trkpt lat="43.823762507395585" lon="12.409121167942669"><ele>663.4</ele><time>2026-05-04T07:20:14Z</time></trkpt><trkpt lat="43.82373201262349" lon="12.408976275433904"><ele>663.2</ele><time>2026-05-04T07:20:15Z</time></trkpt><trkpt lat="43.82371628073768" lon="12.40883544906475"><ele>663.0</ele><time>2026-05-04T07:20:16Z</time></trkpt><trkpt lat="43.82371048239162" lon="12.408703085396619"><ele>663.0</ele><time>2026-05-04T07:20:17Z</time></trkpt><trkpt lat="43.82372011046115" lon="12.408616553653985"><ele>663.0</ele><time>2026-05-04T07:20:18Z</time></trkpt><trkpt lat="43.823735200071646" lon="12.408518410149737"><ele>663.0</ele><time>2026-05-04T07:20:20Z</time></trkpt><trkpt lat="43.82377003536545" lon="12.40839237486103"><ele>663.0</ele><time>2026-05-04T07:20:38Z</time></trkpt><trkpt lat="43.823821698299646" lon="12.408270821535742"><ele>663.0</ele><time>2026-05-04T07:20:40Z</time></trkpt><trkpt lat="43.82390792523458" lon="12.408159024680058"><ele>663.0</ele><time>2026-05-04T07:20:42Z</time></trkpt><trkpt lat="43.824006634966786" lon="12.408080852946629"><ele>663.0</ele><time>2026-05-04T07:20:44Z</time></trkpt><trkpt lat="43.82405889096696" lon="12.407998935483652"><ele>663.0</ele><time>2026-05-04T07:20:46Z</time></trkpt><trkpt lat="43.82410466230134" lon="12.40786887038372"><ele>663.0</ele><time>2026-05-04T07:20:48Z</time></trkpt><trkpt lat="43.82412955851313" lon="12.407729090442142"><ele>663.0</ele><time>2026-05-04T07:20:50Z</time></trkpt><trkpt lat="43.82415033454644" lon="12.407573335166889"><ele>662.8333333333334</ele><time>2026-05-04T07:20:52Z</time></trkpt><trkpt lat="43.82416929924016" lon="12.407482358025481"><ele>662.6666666666666</ele><time>2026-05-04T07:20:54Z</time></trkpt><trkpt lat="43.82423420480157" lon="12.40745836481611"><ele>662.5</ele><time>2026-05-04T07:20:56Z</time></trkpt><trkpt lat="43.82434082960403" lon="12.407543435465344"><ele>662.3333333333333</ele><time>2026-05-04T07:20:58Z</time></trkpt><trkpt lat="43.8243916671261" lon="12.407620558441563"><ele>662.1666666666666</ele><time>2026-05-04T07:20:59Z</time></trkpt><trkpt lat="43.8244485214722" lon="12.407700769325263"><ele>662.0</ele><time>2026-05-04T07:21:00Z</time></trkpt><trkpt lat="43.82450794874395" lon="12.407761805262398"><ele>658.0</ele><time>2026-05-04T07:21:01Z</time></trkpt><trkpt lat="43.82457106383778" lon="12.407795423024778"><ele>654.0</ele><time>2026-05-04T07:21:02Z</time></trkpt><trkpt lat="43.82468483422034" lon="12.407799601536773"><ele>650.0</ele><time>2026-05-04T07:21:04Z</time></trkpt><trkpt lat="43.824784508787246" lon="12.40771973607909"><ele>646.0</ele><time>2026-05-04T07:21:06Z</time></trkpt><trkpt lat="43.82479238719819" lon="12.407532926558046"><ele>642.0</ele><time>2026-05-04T07:21:08Z</time></trkpt><trkpt lat="43.824772408356154" lon="12.407417314239543"><ele>642.0</ele><time>2026-05-04T07:21:09Z</time></trkpt><trkpt lat="43.82473565452422" lon="12.407289371376576"><ele>642.0</ele><time>2026-05-04T07:21:10Z</time></trkpt><trkpt lat="43.824693793112964" lon="12.407178308059388"><ele>642.0</ele><time>2026-05-04T07:21:11Z</time></trkpt><trkpt lat="43.82462805213425" lon="12.40706709515437"><ele>642.0</ele><time>2026-05-04T07:21:12Z</time></trkpt><trkpt lat="43.824544991242874" lon="12.406979258127324"><ele>642.0</ele><time>2026-05-04T07:21:13Z</time></trkpt><trkpt lat="43.82446358636234" lon="12.406893565666067"><ele>643.0</ele><time>2026-05-04T07:21:14Z</time></trkpt><trkpt lat="43.82438411221264" lon="12.406793439851066"><ele>644.0</ele><time>2026-05-04T07:21:15Z</time></trkpt><trkpt lat="43.82430847579155" lon="12.406694180950996"><ele>645.0</ele><time>2026-05-04T07:21:16Z</time></trkpt><trkpt lat="43.824235125556186" lon="12.406597108579922"><ele>646.0</ele><time>2026-05-04T07:21:17Z</time></trkpt><trkpt lat="43.82416895361182" lon="12.406507993092966"><ele>647.0</ele><time>2026-05-04T07:21:18Z</time></trkpt><trkpt lat="43.82410761663528" lon="12.406421003374506"><ele>647.0</ele><time>2026-05-04T07:21:19Z</time></trkpt><trkpt lat="43.8240496430518" lon="12.406337497598004"><ele>647.0</ele><time>2026-05-04T07:21:20Z</time></trkpt><trkpt lat="43.82399740505586" lon="12.406256250728427"><ele>647.0</ele><time>2026-05-04T07:21:21Z</time></trkpt><trkpt lat="43.82395523739478" lon="12.406182202851051"><ele>647.0</ele><time>2026-05-04T07:21:22Z</time></trkpt><trkpt lat="43.823894932794246" lon="12.406062214054433"><ele>647.0</ele><time>2026-05-04T07:21:24Z</time></trkpt><trkpt lat="43.82385894616023" lon="12.405984452398757"><ele>647.0</ele><time>2026-05-04T07:21:27Z</time></trkpt><trkpt lat="43.823795067928486" lon="12.405850185386306"><ele>644.1666666666666</ele><time>2026-05-04T07:21:34Z</time></trkpt><trkpt lat="43.82372887332849" lon="12.405771154604109"><ele>641.3333333333333</ele><time>2026-05-04T07:21:35Z</time></trkpt><trkpt lat="43.82367092205911" lon="12.405678849619155"><ele>638.5</ele><time>2026-05-04T07:21:36Z</time></trkpt><trkpt lat="43.823632293062744" lon="12.40557823819708"><ele>635.6666666666666</ele><time>2026-05-04T07:21:37Z</time></trkpt><trkpt lat="43.8235999101721" lon="12.405455738953696"><ele>632.8333333333334</ele><time>2026-05-04T07:21:38Z</time></trkpt><trkpt lat="43.82357933552653" lon="12.40532704289522"><ele>630.0</ele><time>2026-05-04T07:21:39Z</time></trkpt><trkpt lat="43.823540902709006" lon="12.40521258883159"><ele>630.0</ele><time>2026-05-04T07:21:40Z</time></trkpt><trkpt lat="43.8235231838893" lon="12.405098201091292"><ele>630.0</ele><time>2026-05-04T07:21:41Z</time></trkpt><trkpt lat="43.82350677708611" lon="12.40498776792231"><ele>630.0</ele><time>2026-05-04T07:21:42Z</time></trkpt><trkpt lat="43.823495772963966" lon="12.404877053248116"><ele>630.0</ele><time>2026-05-04T07:21:43Z</time></trkpt><trkpt lat="43.8234736840656" lon="12.404757118800648"><ele>630.0</ele><time>2026-05-04T07:21:44Z</time></trkpt><trkpt lat="43.82345138732943" lon="12.40462543918143"><ele>630.0</ele><time>2026-05-04T07:21:45Z</time></trkpt><trkpt lat="43.82342265839467" lon="12.404493278045138"><ele>630.0</ele><time>2026-05-04T07:21:46Z</time></trkpt><trkpt lat="43.82338955128974" lon="12.404374636496211"><ele>630.0</ele><time>2026-05-04T07:21:47Z</time></trkpt><trkpt lat="43.823341469880944" lon="12.404257182872469"><ele>630.0</ele><time>2026-05-04T07:21:48Z</time></trkpt><trkpt lat="43.82327155530634" lon="12.404137684339437"><ele>630.0</ele><time>2026-05-04T07:21:49Z</time></trkpt><trkpt lat="43.823183591858296" lon="12.404023781955829"><ele>630.0</ele><time>2026-05-04T07:21:50Z</time></trkpt><trkpt lat="43.823092897893645" lon="12.40391400686038"><ele>628.5</ele><time>2026-05-04T07:21:51Z</time></trkpt><trkpt lat="43.823006927788384" lon="12.403804774032364"><ele>627.0</ele><time>2026-05-04T07:21:52Z</time></trkpt><trkpt lat="43.82292829781648" lon="12.403682988690692"><ele>625.5</ele><time>2026-05-04T07:21:53Z</time></trkpt><trkpt lat="43.82288338091685" lon="12.403541590109107"><ele>624.0</ele><time>2026-05-04T07:21:54Z</time></trkpt><trkpt lat="43.82282102769864" lon="12.403411670168671"><ele>624.0</ele><time>2026-05-04T07:21:55Z</time></trkpt><trkpt lat="43.82276677758152" lon="12.403267915472847"><ele>624.0</ele><time>2026-05-04T07:21:56Z</time></trkpt><trkpt lat="43.822709305496765" lon="12.403118649865972"><ele>624.0</ele><time>2026-05-04T07:21:57Z</time></trkpt><trkpt lat="43.82265234391909" lon="12.40297177582936"><ele>624.0</ele><time>2026-05-04T07:21:58Z</time></trkpt><trkpt lat="43.82259876191467" lon="12.402815457513784"><ele>626.0</ele><time>2026-05-04T07:21:59Z</time></trkpt><trkpt lat="43.82255674613246" lon="12.402651108596611"><ele>628.0</ele><time>2026-05-04T07:22:00Z</time></trkpt><trkpt lat="43.8225081334286" lon="12.402485849674333"><ele>630.0</ele><time>2026-05-04T07:22:01Z</time></trkpt><trkpt lat="43.82246089066096" lon="12.402316116992008"><ele>632.0</ele><time>2026-05-04T07:22:02Z</time></trkpt><trkpt lat="43.822412172413735" lon="12.402146501453815"><ele>632.0</ele><time>2026-05-04T07:22:03Z</time></trkpt><trkpt lat="43.822367794944704" lon="12.40197630670354"><ele>632.0</ele><time>2026-05-04T07:22:04Z</time></trkpt><trkpt lat="43.82232041131549" lon="12.401802548184657"><ele>632.0</ele><time>2026-05-04T07:22:05Z</time></trkpt><trkpt lat="43.822274734942035" lon="12.401623591826015"><ele>632.0</ele><time>2026-05-04T07:22:06Z</time></trkpt><trkpt lat="43.822229271051164" lon="12.401458320122158"><ele>630.75</ele><time>2026-05-04T07:22:07Z</time></trkpt><trkpt lat="43.82218271878962" lon="12.40128615032384"><ele>629.5</ele><time>2026-05-04T07:22:08Z</time></trkpt><trkpt lat="43.82214204604608" lon="12.401117417640878"><ele>628.25</ele><time>2026-05-04T07:22:09Z</time></trkpt><trkpt lat="43.82209788853509" lon="12.400948196600925"><ele>627.0</ele><time>2026-05-04T07:22:10Z</time></trkpt><trkpt lat="43.82205617458269" lon="12.400776968669504"><ele>627.0</ele><time>2026-05-04T07:22:11Z</time></trkpt><trkpt lat="43.82203021027952" lon="12.400607100336197"><ele>627.0</ele><time>2026-05-04T07:22:12Z</time></trkpt><trkpt lat="43.82201132962257" lon="12.400432476946518"><ele>627.0</ele><time>2026-05-04T07:22:13Z</time></trkpt><trkpt lat="43.82199114954103" lon="12.400250339797834"><ele>627.0</ele><time>2026-05-04T07:22:14Z</time></trkpt><trkpt lat="43.821976463312666" lon="12.400072395838743"><ele>626.75</ele><time>2026-05-04T07:22:15Z</time></trkpt><trkpt lat="43.82196387984069" lon="12.39987400263071"><ele>626.5</ele><time>2026-05-04T07:22:16Z</time></trkpt><trkpt lat="43.82196104874876" lon="12.39966238530226"><ele>626.25</ele><time>2026-05-04T07:22:17Z</time></trkpt><trkpt lat="43.821959629127306" lon="12.399461668660365"><ele>626.0</ele><time>2026-05-04T07:22:18Z</time></trkpt><trkpt lat="43.8219585623587" lon="12.399277255984128"><ele>627.0</ele><time>2026-05-04T07:22:19Z</time></trkpt><trkpt lat="43.82196220480815" lon="12.399109539837951"><ele>628.0</ele><time>2026-05-04T07:22:20Z</time></trkpt><trkpt lat="43.82197021719879" lon="12.398937273117156"><ele>629.0</ele><time>2026-05-04T07:22:21Z</time></trkpt><trkpt lat="43.82199165373998" lon="12.39875490327212"><ele>630.0</ele><time>2026-05-04T07:22:22Z</time></trkpt><trkpt lat="43.82202374433107" lon="12.398565562778467"><ele>631.5</ele><time>2026-05-04T07:22:23Z</time></trkpt><trkpt lat="43.822072717312054" lon="12.39837178513938"><ele>633.0</ele><time>2026-05-04T07:22:24Z</time></trkpt><trkpt lat="43.82213277312717" lon="12.398189284065015"><ele>634.5</ele><time>2026-05-04T07:22:25Z</time></trkpt><trkpt lat="43.822194248935425" lon="12.398005747276889"><ele>636.0</ele><time>2026-05-04T07:22:26Z</time></trkpt><trkpt lat="43.82226251047966" lon="12.397814920209012"><ele>636.0</ele><time>2026-05-04T07:22:27Z</time></trkpt><trkpt lat="43.822330992821215" lon="12.397621490302852"><ele>636.0</ele><time>2026-05-04T07:22:28Z</time></trkpt><trkpt lat="43.822396274084014" lon="12.397434319139583"><ele>636.0</ele><time>2026-05-04T07:22:29Z</time></trkpt><trkpt lat="43.82245384987105" lon="12.397268680415282"><ele>636.0</ele><time>2026-05-04T07:22:30Z</time></trkpt><trkpt lat="43.82250135153123" lon="12.397113429014347"><ele>637.2</ele><time>2026-05-04T07:22:31Z</time></trkpt><trkpt lat="43.822542421538124" lon="12.396954801558545"><ele>638.4000000000001</ele><time>2026-05-04T07:22:32Z</time></trkpt><trkpt lat="43.82258145026932" lon="12.396803702415438"><ele>639.6</ele><time>2026-05-04T07:22:33Z</time></trkpt><trkpt lat="43.8226069588371" lon="12.396666863307125"><ele>640.8000000000001</ele><time>2026-05-04T07:22:34Z</time></trkpt><trkpt lat="43.822614045313394" lon="12.3965276614464"><ele>642.0</ele><time>2026-05-04T07:22:35Z</time></trkpt><trkpt lat="43.82259233430454" lon="12.396377745687785"><ele>643.5</ele><time>2026-05-04T07:22:36Z</time></trkpt><trkpt lat="43.82254085900074" lon="12.396226195487461"><ele>645.0</ele><time>2026-05-04T07:22:37Z</time></trkpt><trkpt lat="43.822457534382096" lon="12.396096369118142"><ele>646.5</ele><time>2026-05-04T07:22:38Z</time></trkpt><trkpt lat="43.82236043161673" lon="12.395979507457866"><ele>648.0</ele><time>2026-05-04T07:22:39Z</time></trkpt><trkpt lat="43.8222538088567" lon="12.39587548280228"><ele>648.0</ele><time>2026-05-04T07:22:40Z</time></trkpt><trkpt lat="43.82215146794003" lon="12.395770893892632"><ele>648.0</ele><time>2026-05-04T07:22:41Z</time></trkpt><trkpt lat="43.82205687918121" lon="12.395661652304238"><ele>648.0</ele><time>2026-05-04T07:22:42Z</time></trkpt><trkpt lat="43.8219649299076" lon="12.395549899698219"><ele>648.0</ele><time>2026-05-04T07:22:43Z</time></trkpt><trkpt lat="43.82186964122206" lon="12.395430446298555"><ele>650.25</ele><time>2026-05-04T07:22:44Z</time></trkpt><trkpt lat="43.82177542309654" lon="12.395304054231234"><ele>652.5</ele><time>2026-05-04T07:22:45Z</time></trkpt><trkpt lat="43.82169616973574" lon="12.395174732880594"><ele>654.75</ele><time>2026-05-04T07:22:46Z</time></trkpt><trkpt lat="43.82162214829002" lon="12.395043023323552"><ele>657.0</ele><time>2026-05-04T07:22:47Z</time></trkpt><trkpt lat="43.8215594923887" lon="12.39491550256427"><ele>657.0</ele><time>2026-05-04T07:22:48Z</time></trkpt><trkpt lat="43.82150258942012" lon="12.394796479033891"><ele>657.0</ele><time>2026-05-04T07:22:49Z</time></trkpt><trkpt lat="43.82145297110496" lon="12.39468563497784"><ele>657.0</ele><time>2026-05-04T07:22:50Z</time></trkpt><trkpt lat="43.82140321910084" lon="12.394564866575184"><ele>657.0</ele><time>2026-05-04T07:22:51Z</time></trkpt><trkpt lat="43.82135840464091" lon="12.394429413533018"><ele>657.0</ele><time>2026-05-04T07:22:52Z</time></trkpt><trkpt lat="43.821322416005785" lon="12.394294786754834"><ele>657.0</ele><time>2026-05-04T07:22:53Z</time></trkpt><trkpt lat="43.82130858517203" lon="12.39415219250625"><ele>657.0</ele><time>2026-05-04T07:22:54Z</time></trkpt><trkpt lat="43.82131938545236" lon="12.394005966166686"><ele>657.0</ele><time>2026-05-04T07:22:55Z</time></trkpt><trkpt lat="43.82132469176455" lon="12.393853294660747"><ele>657.0</ele><time>2026-05-04T07:22:56Z</time></trkpt><trkpt lat="43.821307683813004" lon="12.393710813849232"><ele>657.0</ele><time>2026-05-04T07:22:57Z</time></trkpt><trkpt lat="43.82126874356741" lon="12.39358741778257"><ele>657.0</ele><time>2026-05-04T07:22:58Z</time></trkpt><trkpt lat="43.82122689306297" lon="12.393474456616259"><ele>657.0</ele><time>2026-05-04T07:22:59Z</time></trkpt><trkpt lat="43.8211837281589" lon="12.39338284423044"><ele>657.0</ele><time>2026-05-04T07:23:00Z</time></trkpt><trkpt lat="43.82114994810492" lon="12.39330424548509"><ele>657.0</ele><time>2026-05-04T07:23:01Z</time></trkpt><trkpt lat="43.82110834782804" lon="12.393180487684019"><ele>657.0</ele><time>2026-05-04T07:23:03Z</time></trkpt><trkpt lat="43.821054401399" lon="12.393105461360376"><ele>657.0</ele><time>2026-05-04T07:39:40Z</time></trkpt><trkpt lat="43.82100041162189" lon="12.39303816867622"><ele>656.4000000000001</ele><time>2026-05-04T07:39:42Z</time></trkpt><trkpt lat="43.820925452075286" lon="12.392942989678119"><ele>655.8000000000001</ele><time>2026-05-04T07:39:44Z</time></trkpt><trkpt lat="43.82085555837352" lon="12.3928312612357"><ele>655.2</ele><time>2026-05-04T07:39:46Z</time></trkpt><trkpt lat="43.82080983419004" lon="12.392763219915173"><ele>654.6</ele><time>2026-05-04T07:39:47Z</time></trkpt><trkpt lat="43.82074287410592" lon="12.392672668861328"><ele>654.0</ele><time>2026-05-04T07:39:48Z</time></trkpt><trkpt lat="43.82067783941801" lon="12.392579752340646"><ele>654.0</ele><time>2026-05-04T07:39:49Z</time></trkpt><trkpt lat="43.820610157255764" lon="12.392486493772985"><ele>654.0</ele><time>2026-05-04T07:39:50Z</time></trkpt><trkpt lat="43.82053734003239" lon="12.392388863123061"><ele>654.0</ele><time>2026-05-04T07:39:51Z</time></trkpt><trkpt lat="43.82046034179789" lon="12.392280863946763"><ele>654.0</ele><time>2026-05-04T07:39:52Z</time></trkpt><trkpt lat="43.820392148887414" lon="12.39217298406895"><ele>654.0</ele><time>2026-05-04T07:39:53Z</time></trkpt><trkpt lat="43.82032075460529" lon="12.392060803338081"><ele>653.8000000000001</ele><time>2026-05-04T07:39:54Z</time></trkpt><trkpt lat="43.82024966700366" lon="12.391938093340324"><ele>653.6</ele><time>2026-05-04T07:39:55Z</time></trkpt><trkpt lat="43.820187557738066" lon="12.391815735771704"><ele>653.4</ele><time>2026-05-04T07:39:56Z</time></trkpt><trkpt lat="43.820136410716074" lon="12.391704503919383"><ele>653.2</ele><time>2026-05-04T07:39:57Z</time></trkpt><trkpt lat="43.82009424591992" lon="12.39160429600168"><ele>653.0</ele><time>2026-05-04T07:39:58Z</time></trkpt><trkpt lat="43.820059156709206" lon="12.391517299796702"><ele>653.6666666666666</ele><time>2026-05-04T07:39:59Z</time></trkpt><trkpt lat="43.82003132327542" lon="12.391431481970155"><ele>654.3333333333333</ele><time>2026-05-04T07:40:00Z</time></trkpt><trkpt lat="43.8200017699904" lon="12.391341504986926"><ele>655.0</ele><time>2026-05-04T07:40:01Z</time></trkpt><trkpt lat="43.819983392652105" lon="12.391254344427297"><ele>655.6666666666666</ele><time>2026-05-04T07:40:02Z</time></trkpt><trkpt lat="43.81999235959586" lon="12.39107870559161"><ele>656.3333333333334</ele><time>2026-05-04T07:40:04Z</time></trkpt><trkpt lat="43.820023267231576" lon="12.390991160998961"><ele>657.0</ele><time>2026-05-04T07:40:05Z</time></trkpt><trkpt lat="43.820077217567345" lon="12.390915681541369"><ele>656.2</ele><time>2026-05-04T07:40:06Z</time></trkpt><trkpt lat="43.820124219623565" lon="12.390818294079628"><ele>655.4000000000001</ele><time>2026-05-04T07:40:07Z</time></trkpt><trkpt lat="43.820166550041115" lon="12.390704391537213"><ele>654.5999999999999</ele><time>2026-05-04T07:40:08Z</time></trkpt><trkpt lat="43.820245005734016" lon="12.39061361368175"><ele>653.8</ele><time>2026-05-04T07:40:09Z</time></trkpt><trkpt lat="43.820307791074875" lon="12.39049309760625"><ele>653.0</ele><time>2026-05-04T07:40:10Z</time></trkpt><trkpt lat="43.82037777721322" lon="12.39039036419356"><ele>654.3333333333333</ele><time>2026-05-04T07:40:11Z</time></trkpt><trkpt lat="43.82042884489296" lon="12.390270041330746"><ele>655.6666666666666</ele><time>2026-05-04T07:40:12Z</time></trkpt><trkpt lat="43.820478323150624" lon="12.390160781239002"><ele>657.0</ele><time>2026-05-04T07:40:13Z</time></trkpt><trkpt lat="43.820516748821106" lon="12.390056311401326"><ele>658.3333333333334</ele><time>2026-05-04T07:40:14Z</time></trkpt><trkpt lat="43.82054942536423" lon="12.389947422102598"><ele>659.6666666666667</ele><time>2026-05-04T07:40:15Z</time></trkpt><trkpt lat="43.820573735406725" lon="12.389847957217535"><ele>661.0</ele><time>2026-05-04T07:40:16Z</time></trkpt><trkpt lat="43.82058251119621" lon="12.389755324208718"><ele>661.4</ele><time>2026-05-04T07:40:17Z</time></trkpt><trkpt lat="43.82058630896337" lon="12.389638721792496"><ele>661.8</ele><time>2026-05-04T07:40:18Z</time></trkpt><trkpt lat="43.82059248412719" lon="12.389487517239003"><ele>662.1999999999999</ele><time>2026-05-04T07:40:19Z</time></trkpt><trkpt lat="43.82059352954646" lon="12.38933030243199"><ele>662.5999999999999</ele><time>2026-05-04T07:40:20Z</time></trkpt><trkpt lat="43.8206004307658" lon="12.389186240253897"><ele>663.0</ele><time>2026-05-04T07:40:21Z</time></trkpt><trkpt lat="43.820610028336745" lon="12.38904548108034"><ele>663.0</ele><time>2026-05-04T07:40:22Z</time></trkpt><trkpt lat="43.82062146362333" lon="12.388907511608538"><ele>663.0</ele><time>2026-05-04T07:40:23Z</time></trkpt><trkpt lat="43.820651860300416" lon="12.38875601609612"><ele>663.0</ele><time>2026-05-04T07:40:24Z</time></trkpt><trkpt lat="43.82066962903655" lon="12.388607026568039"><ele>663.0</ele><time>2026-05-04T07:40:25Z</time></trkpt><trkpt lat="43.82067332777634" lon="12.388449698840358"><ele>663.0</ele><time>2026-05-04T07:40:26Z</time></trkpt><trkpt lat="43.82069740924858" lon="12.388315788395202"><ele>663.5</ele><time>2026-05-04T07:40:27Z</time></trkpt><trkpt lat="43.8207124085427" lon="12.38820728848612"><ele>664.0</ele><time>2026-05-04T07:40:28Z</time></trkpt><trkpt lat="43.820741445053194" lon="12.388096133673534"><ele>664.5</ele><time>2026-05-04T07:40:29Z</time></trkpt><trkpt lat="43.820788386772314" lon="12.387997969194746"><ele>665.0</ele><time>2026-05-04T07:40:30Z</time></trkpt><trkpt lat="43.82084894831233" lon="12.387894593716512"><ele>665.5</ele><time>2026-05-04T07:40:31Z</time></trkpt><trkpt lat="43.82091266910798" lon="12.387793820943768"><ele>666.0</ele><time>2026-05-04T07:40:32Z</time></trkpt><trkpt lat="43.82099187309857" lon="12.387689492582354"><ele>665.4</ele><time>2026-05-04T07:40:33Z</time></trkpt><trkpt lat="43.82102551876267" lon="12.387603248469189"><ele>664.8</ele><time>2026-05-04T07:40:34Z</time></trkpt><trkpt lat="43.821044330316134" lon="12.387518304019618"><ele>664.1999999999999</ele><time>2026-05-04T07:40:35Z</time></trkpt><trkpt lat="43.821025154181044" lon="12.387323774180976"><ele>663.5999999999999</ele><time>2026-05-04T07:40:37Z</time></trkpt><trkpt lat="43.820966368322814" lon="12.387210861203533"><ele>663.0</ele><time>2026-05-04T07:40:38Z</time></trkpt><trkpt lat="43.82090435206226" lon="12.387074245654663"><ele>663.0</ele><time>2026-05-04T07:40:39Z</time></trkpt><trkpt lat="43.82085997271566" lon="12.386933759943187"><ele>663.0</ele><time>2026-05-04T07:40:40Z</time></trkpt><trkpt lat="43.82084851659953" lon="12.386783963018843"><ele>663.0</ele><time>2026-05-04T07:40:41Z</time></trkpt><trkpt lat="43.820831698652846" lon="12.386631282815765"><ele>663.0</ele><time>2026-05-04T07:40:42Z</time></trkpt><trkpt lat="43.82081986498931" lon="12.386476157028614"><ele>663.0</ele><time>2026-05-04T07:40:43Z</time></trkpt><trkpt lat="43.820801517414274" lon="12.386315440774192"><ele>661.25</ele><time>2026-05-04T07:40:44Z</time></trkpt><trkpt lat="43.82079936357134" lon="12.386146124167816"><ele>659.5</ele><time>2026-05-04T07:40:45Z</time></trkpt><trkpt lat="43.82080265279313" lon="12.385978123502968"><ele>657.75</ele><time>2026-05-04T07:40:46Z</time></trkpt><trkpt lat="43.82081281468017" lon="12.385811835801771"><ele>656.0</ele><time>2026-05-04T07:40:47Z</time></trkpt><trkpt lat="43.82083045875296" lon="12.385649749979498"><ele>655.1999999999999</ele><time>2026-05-04T07:40:48Z</time></trkpt><trkpt lat="43.82086451319202" lon="12.385502572290042"><ele>654.4</ele><time>2026-05-04T07:40:49Z</time></trkpt><trkpt lat="43.820909051252904" lon="12.385372111658029"><ele>653.6</ele><time>2026-05-04T07:40:50Z</time></trkpt><trkpt lat="43.82094153137951" lon="12.385246996547773"><ele>652.8</ele><time>2026-05-04T07:40:51Z</time></trkpt><trkpt lat="43.82096980219977" lon="12.385117970270022"><ele>652.0</ele><time>2026-05-04T07:40:52Z</time></trkpt><trkpt lat="43.82101427652313" lon="12.385007765623234"><ele>652.0</ele><time>2026-05-04T07:40:53Z</time></trkpt><trkpt lat="43.8209925366719" lon="12.38482894343782"><ele>652.0</ele><time>2026-05-04T07:40:55Z</time></trkpt><trkpt lat="43.82094772924722" lon="12.384703530843987"><ele>652.0</ele><time>2026-05-04T07:40:56Z</time></trkpt><trkpt lat="43.820887163940085" lon="12.384574916916085"><ele>652.0</ele><time>2026-05-04T07:40:57Z</time></trkpt><trkpt lat="43.820820541646384" lon="12.384444315013095"><ele>649.6</ele><time>2026-05-04T07:40:58Z</time></trkpt><trkpt lat="43.820763368753916" lon="12.384318756723829"><ele>647.2</ele><time>2026-05-04T07:40:59Z</time></trkpt><trkpt lat="43.82072366650504" lon="12.384185128042589"><ele>644.8</ele><time>2026-05-04T07:41:00Z</time></trkpt><trkpt lat="43.82070687550491" lon="12.3840546728193"><ele>642.4</ele><time>2026-05-04T07:41:01Z</time></trkpt><trkpt lat="43.820721717016035" lon="12.383926761721352"><ele>640.0</ele><time>2026-05-04T07:41:02Z</time></trkpt><trkpt lat="43.820757209244064" lon="12.383795748285115"><ele>638.25</ele><time>2026-05-04T07:41:03Z</time></trkpt><trkpt lat="43.820788149904374" lon="12.383651240849707"><ele>636.5</ele><time>2026-05-04T07:41:04Z</time></trkpt><trkpt lat="43.8208462943663" lon="12.383497235834366"><ele>634.75</ele><time>2026-05-04T07:41:05Z</time></trkpt><trkpt lat="43.82089419044811" lon="12.383344653537101"><ele>633.0</ele><time>2026-05-04T07:41:06Z</time></trkpt><trkpt lat="43.82094470197806" lon="12.383219920081052"><ele>630.1999999999999</ele><time>2026-05-04T07:41:07Z</time></trkpt><trkpt lat="43.82100481580823" lon="12.383121678745981"><ele>627.4</ele><time>2026-05-04T07:41:08Z</time></trkpt><trkpt lat="43.82108144274862" lon="12.383035639007742"><ele>624.5999999999999</ele><time>2026-05-04T07:41:09Z</time></trkpt><trkpt lat="43.82116125444391" lon="12.382933137230745"><ele>621.8</ele><time>2026-05-04T07:41:10Z</time></trkpt><trkpt lat="43.821238247397105" lon="12.382808352726572"><ele>619.0</ele><time>2026-05-04T07:41:11Z</time></trkpt><trkpt lat="43.82129721993436" lon="12.382647293694905"><ele>618.75</ele><time>2026-05-04T07:41:12Z</time></trkpt><trkpt lat="43.82134814787479" lon="12.382481583404623"><ele>618.5</ele><time>2026-05-04T07:41:13Z</time></trkpt><trkpt lat="43.82139691672987" lon="12.382316104222346"><ele>618.25</ele><time>2026-05-04T07:41:14Z</time></trkpt><trkpt lat="43.821441060896014" lon="12.382157230453778"><ele>618.0</ele><time>2026-05-04T07:41:15Z</time></trkpt><trkpt lat="43.82148630323635" lon="12.381994404428546"><ele>617.5</ele><time>2026-05-04T07:41:16Z</time></trkpt><trkpt lat="43.821534460963704" lon="12.381821098445997"><ele>617.0</ele><time>2026-05-04T07:41:17Z</time></trkpt><trkpt lat="43.821582381275476" lon="12.38164868992266"><ele>616.5</ele><time>2026-05-04T07:41:18Z</time></trkpt><trkpt lat="43.82162222753896" lon="12.381465323138524"><ele>616.0</ele><time>2026-05-04T07:41:19Z</time></trkpt><trkpt lat="43.82167260992709" lon="12.381303227606653"><ele>617.25</ele><time>2026-05-04T07:41:20Z</time></trkpt><trkpt lat="43.82172330393465" lon="12.381146534438844"><ele>618.5</ele><time>2026-05-04T07:41:21Z</time></trkpt><trkpt lat="43.82177794195612" lon="12.380998215380721"><ele>619.75</ele><time>2026-05-04T07:41:22Z</time></trkpt><trkpt lat="43.821836328554575" lon="12.380842875100653"><ele>621.0</ele><time>2026-05-04T07:41:23Z</time></trkpt><trkpt lat="43.82190395556124" lon="12.380710024982909"><ele>621.0</ele><time>2026-05-04T07:41:24Z</time></trkpt><trkpt lat="43.82197288547267" lon="12.380603154296082"><ele>621.0</ele><time>2026-05-04T07:41:25Z</time></trkpt><trkpt lat="43.8220289643077" lon="12.380512407548903"><ele>621.0</ele><time>2026-05-04T07:41:26Z</time></trkpt><trkpt lat="43.82207186779126" lon="12.380429135970987"><ele>621.0</ele><time>2026-05-04T07:41:27Z</time></trkpt><trkpt lat="43.8221390887205" lon="12.380347320710328"><ele>621.0</ele><time>2026-05-04T07:41:29Z</time></trkpt><trkpt lat="43.822098806371194" lon="12.380279947407235"><ele>621.0</ele><time>2026-05-04T07:41:35Z</time></trkpt><trkpt lat="43.82202691571314" lon="12.380267128310999"><ele>622.8333333333334</ele><time>2026-05-04T07:41:36Z</time></trkpt><trkpt lat="43.82196461665156" lon="12.38028279616829"><ele>624.6666666666666</ele><time>2026-05-04T07:41:37Z</time></trkpt><trkpt lat="43.82186210444642" lon="12.380231937251123"><ele>626.5</ele><time>2026-05-04T07:41:39Z</time></trkpt><trkpt lat="43.82179585852179" lon="12.380188137864009"><ele>628.3333333333333</ele><time>2026-05-04T07:41:40Z</time></trkpt><trkpt lat="43.82172205344475" lon="12.38011938646386"><ele>630.1666666666666</ele><time>2026-05-04T07:41:42Z</time></trkpt><trkpt lat="43.82171729365663" lon="12.37999189557261"><ele>632.0</ele><time>2026-05-04T07:41:44Z</time></trkpt><trkpt lat="43.82171570197689" lon="12.379813296681569"><ele>632.3333333333333</ele><time>2026-05-04T07:41:46Z</time></trkpt><trkpt lat="43.8216972813288" lon="12.379721786349075"><ele>632.6666666666666</ele><time>2026-05-04T07:41:47Z</time></trkpt><trkpt lat="43.821670671089265" lon="12.379632928174601"><ele>633.0</ele><time>2026-05-04T07:41:48Z</time></trkpt><trkpt lat="43.82163206417925" lon="12.379557896577122"><ele>633.3333333333334</ele><time>2026-05-04T07:41:49Z</time></trkpt><trkpt lat="43.82159788187178" lon="12.379381759426872"><ele>633.6666666666667</ele><time>2026-05-04T07:41:51Z</time></trkpt><trkpt lat="43.82158791503248" lon="12.37926643606855"><ele>634.0</ele><time>2026-05-04T07:41:52Z</time></trkpt><trkpt lat="43.82158690015683" lon="12.379153963692438"><ele>636.0</ele><time>2026-05-04T07:41:53Z</time></trkpt><trkpt lat="43.82158037493425" lon="12.37904719615331"><ele>638.0</ele><time>2026-05-04T07:41:54Z</time></trkpt><trkpt lat="43.82157716135163" lon="12.378946220326958"><ele>640.0</ele><time>2026-05-04T07:41:55Z</time></trkpt><trkpt lat="43.821556752317356" lon="12.378823004134828"><ele>642.0</ele><time>2026-05-04T07:41:56Z</time></trkpt><trkpt lat="43.821535414507466" lon="12.378721921538919"><ele>644.0</ele><time>2026-05-04T07:41:57Z</time></trkpt><trkpt lat="43.821508276959634" lon="12.378586728743016"><ele>646.0</ele><time>2026-05-04T07:41:59Z</time></trkpt><trkpt lat="43.821547304141546" lon="12.378445477435298"><ele>647.0</ele><time>2026-05-04T07:42:01Z</time></trkpt><trkpt lat="43.82158151280121" lon="12.378369648608427"><ele>648.0</ele><time>2026-05-04T07:42:02Z</time></trkpt><trkpt lat="43.82157436407352" lon="12.378215491794919"><ele>649.0</ele><time>2026-05-04T07:42:04Z</time></trkpt><trkpt lat="43.82152825135412" lon="12.378113074410216"><ele>650.0</ele><time>2026-05-04T07:42:05Z</time></trkpt><trkpt lat="43.8214988466003" lon="12.378029099736418"><ele>651.0</ele><time>2026-05-04T07:42:06Z</time></trkpt><trkpt lat="43.82148563637589" lon="12.377868481316948"><ele>652.0</ele><time>2026-05-04T07:42:08Z</time></trkpt><trkpt lat="43.82153178094527" lon="12.37773210526603"><ele>652.5</ele><time>2026-05-04T07:42:10Z</time></trkpt><trkpt lat="43.82157387772598" lon="12.377664736196223"><ele>653.0</ele><time>2026-05-04T07:42:11Z</time></trkpt><trkpt lat="43.82162986114567" lon="12.377607210368856"><ele>653.5</ele><time>2026-05-04T07:42:12Z</time></trkpt><trkpt lat="43.82169672631902" lon="12.377538593514407"><ele>654.0</ele><time>2026-05-04T07:42:13Z</time></trkpt><trkpt lat="43.821775628904874" lon="12.3774759673255"><ele>654.5</ele><time>2026-05-04T07:42:14Z</time></trkpt><trkpt lat="43.821862630666615" lon="12.37739982281245"><ele>655.0</ele><time>2026-05-04T07:42:15Z</time></trkpt><trkpt lat="43.82193911784302" lon="12.377337668283579"><ele>656.6666666666667</ele><time>2026-05-04T07:42:16Z</time></trkpt><trkpt lat="43.821991242023294" lon="12.377270830096558"><ele>658.3333333333334</ele><time>2026-05-04T07:42:17Z</time></trkpt><trkpt lat="43.821993873781516" lon="12.377108506986215"><ele>660.0</ele><time>2026-05-04T07:42:19Z</time></trkpt><trkpt lat="43.82196927487543" lon="12.37700635666318"><ele>661.6666666666666</ele><time>2026-05-04T07:42:20Z</time></trkpt><trkpt lat="43.821937606572874" lon="12.376905495887996"><ele>663.3333333333333</ele><time>2026-05-04T07:42:21Z</time></trkpt><trkpt lat="43.82188090132766" lon="12.376797454797495"><ele>665.0</ele><time>2026-05-04T07:42:22Z</time></trkpt><trkpt lat="43.821849007273315" lon="12.376716117275931"><ele>666.0</ele><time>2026-05-04T07:42:23Z</time></trkpt><trkpt lat="43.821828660630985" lon="12.376572390571459"><ele>667.0</ele><time>2026-05-04T07:42:25Z</time></trkpt><trkpt lat="43.821909555816546" lon="12.376402860151199"><ele>668.0</ele><time>2026-05-04T07:42:27Z</time></trkpt><trkpt lat="43.82196922773117" lon="12.376332029217307"><ele>669.0</ele><time>2026-05-04T07:42:28Z</time></trkpt><trkpt lat="43.82203982515331" lon="12.37626764289329"><ele>670.0</ele><time>2026-05-04T07:42:29Z</time></trkpt><trkpt lat="43.82209849989173" lon="12.376209332087877"><ele>670.5</ele><time>2026-05-04T07:42:30Z</time></trkpt><trkpt lat="43.82213631543535" lon="12.376118606827582"><ele>671.0</ele><time>2026-05-04T07:42:31Z</time></trkpt><trkpt lat="43.82217445226324" lon="12.375995212449972"><ele>671.5</ele><time>2026-05-04T07:42:32Z</time></trkpt><trkpt lat="43.82220758415498" lon="12.375881675671994"><ele>672.0</ele><time>2026-05-04T07:42:33Z</time></trkpt><trkpt lat="43.82221989564397" lon="12.375774123407789"><ele>672.5</ele><time>2026-05-04T07:42:34Z</time></trkpt><trkpt lat="43.82224847986143" lon="12.375684536226931"><ele>673.0</ele><time>2026-05-04T07:42:35Z</time></trkpt><trkpt lat="43.82230641632569" lon="12.375518690028757"><ele>673.0</ele><time>2026-05-04T07:42:37Z</time></trkpt><trkpt lat="43.822327534412786" lon="12.375391679923684"><ele>673.0</ele><time>2026-05-04T07:42:38Z</time></trkpt><trkpt lat="43.822370815684536" lon="12.375274349077918"><ele>673.0</ele><time>2026-05-04T07:42:40Z</time></trkpt><trkpt lat="43.82245481646963" lon="12.375256477902948"><ele>673.0</ele><time>2026-05-04T07:42:42Z</time></trkpt><trkpt lat="43.82257042609195" lon="12.375267537669338"><ele>673.0</ele><time>2026-05-04T07:42:44Z</time></trkpt><trkpt lat="43.822635992574796" lon="12.375278430174562"><ele>675.3333333333334</ele><time>2026-05-04T07:42:45Z</time></trkpt><trkpt lat="43.82270413842675" lon="12.375274895801017"><ele>677.6666666666667</ele><time>2026-05-04T07:42:46Z</time></trkpt><trkpt lat="43.82280251099806" lon="12.375270627967623"><ele>680.0</ele><time>2026-05-04T07:42:47Z</time></trkpt><trkpt lat="43.82288217927191" lon="12.375265677305727"><ele>682.3333333333334</ele><time>2026-05-04T07:42:48Z</time></trkpt><trkpt lat="43.8229644614801" lon="12.375258244025966"><ele>684.6666666666666</ele><time>2026-05-04T07:42:49Z</time></trkpt><trkpt lat="43.82302416811672" lon="12.375227716556335"><ele>687.0</ele><time>2026-05-04T07:42:50Z</time></trkpt><trkpt lat="43.82311626069778" lon="12.375184411955866"><ele>687.0</ele><time>2026-05-04T07:42:51Z</time></trkpt><trkpt lat="43.82318282426211" lon="12.375155603944593"><ele>687.0</ele><time>2026-05-04T07:42:52Z</time></trkpt><trkpt lat="43.82326955276298" lon="12.375146548778812"><ele>687.0</ele><time>2026-05-04T07:42:53Z</time></trkpt><trkpt lat="43.82336051952374" lon="12.375166610065678"><ele>687.0</ele><time>2026-05-04T07:42:55Z</time></trkpt><trkpt lat="43.82342912131836" lon="12.37516787778074"><ele>687.0</ele><time>2026-05-04T07:42:56Z</time></trkpt><trkpt lat="43.82350735262488" lon="12.375144902949591"><ele>687.0</ele><time>2026-05-04T07:42:57Z</time></trkpt><trkpt lat="43.82357458560652" lon="12.375107561179478"><ele>686.3333333333334</ele><time>2026-05-04T07:42:58Z</time></trkpt><trkpt lat="43.82367169802732" lon="12.375038872058449"><ele>685.6666666666666</ele><time>2026-05-04T07:43:00Z</time></trkpt><trkpt lat="43.82373024606408" lon="12.374987417139847"><ele>685.0</ele><time>2026-05-04T07:43:01Z</time></trkpt><trkpt lat="43.82378971620573" lon="12.374894930996053"><ele>684.3333333333333</ele><time>2026-05-04T07:43:02Z</time></trkpt><trkpt lat="43.823832360996434" lon="12.374830080147769"><ele>683.6666666666666</ele><time>2026-05-04T07:43:03Z</time></trkpt><trkpt lat="43.82388012613978" lon="12.374761835754521"><ele>683.0</ele><time>2026-05-04T07:43:04Z</time></trkpt><trkpt lat="43.82396616262958" lon="12.374619980804015"><ele>685.2</ele><time>2026-05-04T07:43:06Z</time></trkpt><trkpt lat="43.824007671525564" lon="12.374524607145354"><ele>687.4</ele><time>2026-05-04T07:43:07Z</time></trkpt><trkpt lat="43.82404313734593" lon="12.374340398142333"><ele>689.6</ele><time>2026-05-04T07:43:09Z</time></trkpt><trkpt lat="43.82406358981414" lon="12.374230941129646"><ele>691.8000000000001</ele><time>2026-05-04T07:43:10Z</time></trkpt><trkpt lat="43.824086133373044" lon="12.374103506410181"><ele>694.0</ele><time>2026-05-04T07:43:11Z</time></trkpt><trkpt lat="43.82410830219978" lon="12.3739813469116"><ele>694.0</ele><time>2026-05-04T07:43:12Z</time></trkpt><trkpt lat="43.824130634746425" lon="12.373891565767753"><ele>694.0</ele><time>2026-05-04T07:43:13Z</time></trkpt><trkpt lat="43.82416345120735" lon="12.373810436797624"><ele>694.0</ele><time>2026-05-04T07:43:15Z</time></trkpt><trkpt lat="43.82414921603009" lon="12.37392032331013"><ele>694.0</ele><time>2026-05-04T07:43:44Z</time></trkpt><trkpt lat="43.824104452348045" lon="12.374136709814112"><ele>694.0</ele><time>2026-05-04T07:43:46Z</time></trkpt><trkpt lat="43.82406692685726" lon="12.374303492673054"><ele>694.0</ele><time>2026-05-04T07:43:47Z</time></trkpt><trkpt lat="43.824047692657004" lon="12.374403327573722"><ele>694.0</ele><time>2026-05-04T07:43:48Z</time></trkpt><trkpt lat="43.824017684140856" lon="12.374484999144752"><ele>694.0</ele><time>2026-05-04T07:43:49Z</time></trkpt><trkpt lat="43.823982585741966" lon="12.374566458020054"><ele>694.0</ele><time>2026-05-04T07:43:50Z</time></trkpt><trkpt lat="43.823953607718245" lon="12.374653145865908"><ele>694.0</ele><time>2026-05-04T07:43:51Z</time></trkpt><trkpt lat="43.82387298102203" lon="12.374799212610261"><ele>694.0</ele><time>2026-05-04T07:43:53Z</time></trkpt><trkpt lat="43.8238264214312" lon="12.374870995763565"><ele>692.8333333333334</ele><time>2026-05-04T07:43:54Z</time></trkpt><trkpt lat="43.82377639058863" lon="12.374928516289481"><ele>691.6666666666667</ele><time>2026-05-04T07:43:55Z</time></trkpt><trkpt lat="43.82371998527165" lon="12.374985658313351"><ele>690.5</ele><time>2026-05-04T07:43:57Z</time></trkpt><trkpt lat="43.823655511617254" lon="12.375057715030074"><ele>689.3333333333334</ele><time>2026-05-04T07:44:05Z</time></trkpt><trkpt lat="43.823555411326645" lon="12.375106031945275"><ele>688.1666666666666</ele><time>2026-05-04T07:44:07Z</time></trkpt><trkpt lat="43.82344319521774" lon="12.375127483025212"><ele>687.0</ele><time>2026-05-04T07:44:09Z</time></trkpt><trkpt lat="43.82337974759359" lon="12.375154775378872"><ele>687.0</ele><time>2026-05-04T07:44:10Z</time></trkpt><trkpt lat="43.82326644156675" lon="12.375132235939494"><ele>687.0</ele><time>2026-05-04T07:44:12Z</time></trkpt><trkpt lat="43.82318494983299" lon="12.375158341336817"><ele>687.0</ele><time>2026-05-04T07:44:14Z</time></trkpt><trkpt lat="43.82311112531792" lon="12.375178735098414"><ele>687.0</ele><time>2026-05-04T07:44:16Z</time></trkpt><trkpt lat="43.82302298388199" lon="12.375226788914588"><ele>687.0</ele><time>2026-05-04T07:44:19Z</time></trkpt><trkpt lat="43.822958623791216" lon="12.375235014083454"><ele>687.0</ele><time>2026-05-04T07:44:21Z</time></trkpt><trkpt lat="43.822825176910435" lon="12.375262897236443"><ele>687.0</ele><time>2026-05-04T07:44:23Z</time></trkpt><trkpt lat="43.82274306267944" lon="12.375266317788688"><ele>687.0</ele><time>2026-05-04T07:44:24Z</time></trkpt><trkpt lat="43.82267489155011" lon="12.375272541716075"><ele>687.0</ele><time>2026-05-04T07:44:25Z</time></trkpt><trkpt lat="43.8226028858342" lon="12.375285460427483"><ele>687.0</ele><time>2026-05-04T07:44:26Z</time></trkpt><trkpt lat="43.82248426796694" lon="12.375265319205914"><ele>687.0</ele><time>2026-05-04T07:44:28Z</time></trkpt><trkpt lat="43.82240622161307" lon="12.375270195699887"><ele>687.0</ele><time>2026-05-04T07:44:30Z</time></trkpt><trkpt lat="43.82233809636366" lon="12.375252568678949"><ele>684.2</ele><time>2026-05-04T07:45:08Z</time></trkpt><trkpt lat="43.82229165605511" lon="12.375159510549093"><ele>681.4000000000001</ele><time>2026-05-04T07:45:11Z</time></trkpt><trkpt lat="43.822284959439564" lon="12.375048714744963"><ele>678.5999999999999</ele><time>2026-05-04T07:45:13Z</time></trkpt><trkpt lat="43.822265270794304" lon="12.374920548143152"><ele>675.8</ele><time>2026-05-04T07:45:16Z</time></trkpt><trkpt lat="43.822266942846056" lon="12.374792818090283"><ele>673.0</ele><time>2026-05-04T07:45:19Z</time></trkpt><trkpt lat="43.822290049656004" lon="12.374656380273056"><ele>672.5</ele><time>2026-05-04T07:45:22Z</time></trkpt><trkpt lat="43.822330471551" lon="12.37452761469201"><ele>672.0</ele><time>2026-05-04T07:45:24Z</time></trkpt><trkpt lat="43.82236194811348" lon="12.37438072246442"><ele>671.5</ele><time>2026-05-04T07:45:26Z</time></trkpt><trkpt lat="43.82237364438516" lon="12.374291741793627"><ele>671.0</ele><time>2026-05-04T07:45:27Z</time></trkpt><trkpt lat="43.822408549797274" lon="12.374189308309605"><ele>670.5</ele><time>2026-05-04T07:45:29Z</time></trkpt><trkpt lat="43.82244181602371" lon="12.374089236123032"><ele>670.0</ele><time>2026-05-04T07:45:31Z</time></trkpt><trkpt lat="43.822475495000596" lon="12.373986973265804"><ele>670.0</ele><time>2026-05-04T07:45:34Z</time></trkpt><trkpt lat="43.82249761879713" lon="12.373890850897977"><ele>670.0</ele><time>2026-05-04T07:45:37Z</time></trkpt><trkpt lat="43.82252210211895" lon="12.373774463367125"><ele>670.0</ele><time>2026-05-04T07:45:39Z</time></trkpt><trkpt lat="43.82254142586539" lon="12.373678049968268"><ele>670.0</ele><time>2026-05-04T07:45:41Z</time></trkpt><trkpt lat="43.822548712635374" lon="12.37352941895716"><ele>670.0</ele><time>2026-05-04T07:45:43Z</time></trkpt><trkpt lat="43.82258436478915" lon="12.373438363236477"><ele>670.0</ele><time>2026-05-04T07:45:45Z</time></trkpt><trkpt lat="43.82263433151202" lon="12.373367026236618"><ele>670.5714285714286</ele><time>2026-05-04T07:45:47Z</time></trkpt><trkpt lat="43.822685865876295" lon="12.373286883740715"><ele>671.1428571428571</ele><time>2026-05-04T07:45:49Z</time></trkpt><trkpt lat="43.82270442568761" lon="12.37317901373768"><ele>671.7142857142858</ele><time>2026-05-04T07:45:52Z</time></trkpt><trkpt lat="43.82270190856242" lon="12.373081861020518"><ele>672.2857142857142</ele><time>2026-05-04T07:45:54Z</time></trkpt><trkpt lat="43.82268827861133" lon="12.37297662099305"><ele>672.8571428571429</ele><time>2026-05-04T07:45:57Z</time></trkpt><trkpt lat="43.822645068107654" lon="12.372910411132674"><ele>673.4285714285714</ele><time>2026-05-04T07:46:03Z</time></trkpt><trkpt lat="43.82257682108862" lon="12.372950680404653"><ele>674.0</ele><time>2026-05-04T07:46:14Z</time></trkpt><trkpt lat="43.82251406631193" lon="12.373038239557903"><ele>674.0000000000001</ele><time>2026-05-04T07:46:19Z</time></trkpt><trkpt lat="43.82244710176617" lon="12.373028179688713"><ele>674.0</ele><time>2026-05-04T07:46:22Z</time></trkpt><trkpt lat="43.82241065935196" lon="12.372950609095481"><ele>674.0</ele><time>2026-05-04T07:46:24Z</time></trkpt><trkpt lat="43.822379538993474" lon="12.372840386334651"><ele>674.0</ele><time>2026-05-04T07:46:29Z</time></trkpt><trkpt lat="43.82238689082092" lon="12.372747974012652"><ele>674.0</ele><time>2026-05-04T07:46:31Z</time></trkpt><trkpt lat="43.82232960742633" lon="12.372671106203256"><ele>674.0000000000001</ele><time>2026-05-04T07:46:33Z</time></trkpt><trkpt lat="43.82228433593747" lon="12.372586144260667"><ele>674.0</ele><time>2026-05-04T07:46:36Z</time></trkpt><trkpt lat="43.8223225803201" lon="12.372495462520797"><ele>675.5</ele><time>2026-05-04T07:46:38Z</time></trkpt><trkpt lat="43.82234386601256" lon="12.372389000348026"><ele>677.0</ele><time>2026-05-04T07:46:41Z</time></trkpt><trkpt lat="43.822353124558134" lon="12.372282640024604"><ele>678.5</ele><time>2026-05-04T07:46:44Z</time></trkpt><trkpt lat="43.82238820514039" lon="12.372193844112118"><ele>680.0</ele><time>2026-05-04T07:46:46Z</time></trkpt><trkpt lat="43.822418892035344" lon="12.372090615944762"><ele>681.5</ele><time>2026-05-04T07:46:48Z</time></trkpt><trkpt lat="43.822440819963816" lon="12.371986368154994"><ele>683.0</ele><time>2026-05-04T07:46:51Z</time></trkpt><trkpt lat="43.82246856202615" lon="12.371904553926782"><ele>684.3333333333333</ele><time>2026-05-04T07:46:53Z</time></trkpt><trkpt lat="43.82243347761815" lon="12.371779911349602"><ele>685.6666666666666</ele><time>2026-05-04T07:46:56Z</time></trkpt><trkpt lat="43.82237852828193" lon="12.371722981275699"><ele>687.0</ele><time>2026-05-04T07:47:11Z</time></trkpt><trkpt lat="43.82231485664895" lon="12.371652826182833"><ele>688.3333333333334</ele><time>2026-05-04T07:47:14Z</time></trkpt><trkpt lat="43.822267790411864" lon="12.371588765242056"><ele>689.6666666666667</ele><time>2026-05-04T07:47:16Z</time></trkpt><trkpt lat="43.82220182972708" lon="12.37152986889127"><ele>691.0</ele><time>2026-05-04T07:47:18Z</time></trkpt><trkpt lat="43.82215377079227" lon="12.371440080373498"><ele>692.3333333333334</ele><time>2026-05-04T07:47:21Z</time></trkpt><trkpt lat="43.82216260452245" lon="12.371333864769737"><ele>693.6666666666667</ele><time>2026-05-04T07:47:23Z</time></trkpt><trkpt lat="43.822164346822" lon="12.371205747538387"><ele>695.0</ele><time>2026-05-04T07:47:25Z</time></trkpt><trkpt lat="43.822182038697434" lon="12.37108166694037"><ele>696.3333333333334</ele><time>2026-05-04T07:47:27Z</time></trkpt><trkpt lat="43.82221218159382" lon="12.370953205820753"><ele>697.6666666666666</ele><time>2026-05-04T07:47:29Z</time></trkpt><trkpt lat="43.822243486857886" lon="12.37083492306967"><ele>699.0</ele><time>2026-05-04T07:47:31Z</time></trkpt><trkpt lat="43.82227320069524" lon="12.370722227831932"><ele>699.0</ele><time>2026-05-04T07:47:33Z</time></trkpt><trkpt lat="43.822318360024134" lon="12.370611232835898"><ele>699.0</ele><time>2026-05-04T07:47:35Z</time></trkpt><trkpt lat="43.82239522412451" lon="12.37049116719653"><ele>699.0</ele><time>2026-05-04T07:47:37Z</time></trkpt><trkpt lat="43.82246662214966" lon="12.370381881462677"><ele>699.0</ele><time>2026-05-04T07:47:39Z</time></trkpt><trkpt lat="43.82250675070778" lon="12.37025881811935"><ele>699.0</ele><time>2026-05-04T07:47:41Z</time></trkpt><trkpt lat="43.82251209162617" lon="12.370106556763648"><ele>698.4000000000001</ele><time>2026-05-04T07:47:43Z</time></trkpt><trkpt lat="43.82252562892194" lon="12.369943315835396"><ele>697.8</ele><time>2026-05-04T07:47:45Z</time></trkpt><trkpt lat="43.822570133544595" lon="12.369805708384234"><ele>697.2</ele><time>2026-05-04T07:47:47Z</time></trkpt><trkpt lat="43.822622056990156" lon="12.369677910544622"><ele>696.5999999999999</ele><time>2026-05-04T07:47:49Z</time></trkpt><trkpt lat="43.82267556551937" lon="12.369553235183805"><ele>696.0</ele><time>2026-05-04T07:47:51Z</time></trkpt><trkpt lat="43.82274797508288" lon="12.3694205526904"><ele>697.1999999999999</ele><time>2026-05-04T07:47:53Z</time></trkpt><trkpt lat="43.82280577736369" lon="12.369268698709247"><ele>698.4</ele><time>2026-05-04T07:47:55Z</time></trkpt><trkpt lat="43.82282582206666" lon="12.369096794677933"><ele>699.6</ele><time>2026-05-04T07:47:57Z</time></trkpt><trkpt lat="43.82282350011031" lon="12.369003171296585"><ele>700.8</ele><time>2026-05-04T07:47:58Z</time></trkpt><trkpt lat="43.822823648740616" lon="12.368904294355746"><ele>702.0</ele><time>2026-05-04T07:47:59Z</time></trkpt><trkpt lat="43.8228387022856" lon="12.368815919396537"><ele>702.6</ele><time>2026-05-04T07:48:00Z</time></trkpt><trkpt lat="43.82285794873904" lon="12.36871743095291"><ele>703.2</ele><time>2026-05-04T07:48:01Z</time></trkpt><trkpt lat="43.822877064321126" lon="12.368633362011662"><ele>703.8</ele><time>2026-05-04T07:48:02Z</time></trkpt><trkpt lat="43.822920706369565" lon="12.368460317105685"><ele>704.4</ele><time>2026-05-04T07:48:04Z</time></trkpt><trkpt lat="43.82293677546358" lon="12.368375014337266"><ele>705.0</ele><time>2026-05-04T07:48:05Z</time></trkpt><trkpt lat="43.82294752569839" lon="12.36820250829064"><ele>705.0</ele><time>2026-05-04T07:48:07Z</time></trkpt><trkpt lat="43.822948244310204" lon="12.368106325126206"><ele>705.0</ele><time>2026-05-04T07:48:08Z</time></trkpt><trkpt lat="43.822940974922666" lon="12.368000424606608"><ele>705.0</ele><time>2026-05-04T07:48:09Z</time></trkpt><trkpt lat="43.822932396297766" lon="12.367892301950889"><ele>705.0</ele><time>2026-05-04T07:48:10Z</time></trkpt><trkpt lat="43.82292908485453" lon="12.36777580398236"><ele>705.0</ele><time>2026-05-04T07:48:11Z</time></trkpt><trkpt lat="43.822929863976896" lon="12.367665694177752"><ele>705.0</ele><time>2026-05-04T07:48:12Z</time></trkpt><trkpt lat="43.82293697629769" lon="12.367549991754126"><ele>704.8571428571428</ele><time>2026-05-04T07:48:13Z</time></trkpt><trkpt lat="43.82294720922412" lon="12.367454506519318"><ele>704.7142857142857</ele><time>2026-05-04T07:48:14Z</time></trkpt><trkpt lat="43.82295745694743" lon="12.367354415700479"><ele>704.5714285714286</ele><time>2026-05-04T07:48:15Z</time></trkpt><trkpt lat="43.82297165267893" lon="12.367253948757787"><ele>704.4285714285713</ele><time>2026-05-04T07:48:16Z</time></trkpt><trkpt lat="43.82299288698933" lon="12.367154848007834"><ele>704.2857142857142</ele><time>2026-05-04T07:48:17Z</time></trkpt><trkpt lat="43.823011522669155" lon="12.367070296017827"><ele>704.1428571428571</ele><time>2026-05-04T07:48:18Z</time></trkpt><trkpt lat="43.823033634191" lon="12.366977687195206"><ele>704.0</ele><time>2026-05-04T07:48:19Z</time></trkpt><trkpt lat="43.82304269855204" lon="12.366890176053534"><ele>704.5714285714286</ele><time>2026-05-04T07:48:20Z</time></trkpt><trkpt lat="43.823035907805576" lon="12.366784631910225"><ele>705.1428571428571</ele><time>2026-05-04T07:48:21Z</time></trkpt><trkpt lat="43.82302037824296" lon="12.366685895741094"><ele>705.7142857142858</ele><time>2026-05-04T07:48:22Z</time></trkpt><trkpt lat="43.82300672239158" lon="12.366585266057331"><ele>706.2857142857142</ele><time>2026-05-04T07:48:23Z</time></trkpt><trkpt lat="43.82300077920606" lon="12.3664867577601"><ele>706.8571428571428</ele><time>2026-05-04T07:48:24Z</time></trkpt><trkpt lat="43.823011904925245" lon="12.366383894122151"><ele>707.4285714285714</ele><time>2026-05-04T07:48:25Z</time></trkpt><trkpt lat="43.82303496612272" lon="12.366290558971968"><ele>708.0</ele><time>2026-05-04T07:48:26Z</time></trkpt><trkpt lat="43.823070531336874" lon="12.366212379817984"><ele>708.8571428571429</ele><time>2026-05-04T07:48:27Z</time></trkpt><trkpt lat="43.82311196333358" lon="12.366136088683406"><ele>709.7142857142857</ele><time>2026-05-04T07:48:28Z</time></trkpt><trkpt lat="43.82315496462027" lon="12.366068882459352"><ele>710.5714285714286</ele><time>2026-05-04T07:48:29Z</time></trkpt><trkpt lat="43.82319613273557" lon="12.365989022786769"><ele>711.4285714285714</ele><time>2026-05-04T07:48:30Z</time></trkpt><trkpt lat="43.82324593338412" lon="12.3659197582463"><ele>712.2857142857142</ele><time>2026-05-04T07:48:31Z</time></trkpt><trkpt lat="43.8232955800805" lon="12.365861795346397"><ele>713.1428571428571</ele><time>2026-05-04T07:48:32Z</time></trkpt><trkpt lat="43.823344700148866" lon="12.365788045809168"><ele>714.0</ele><time>2026-05-04T07:48:33Z</time></trkpt><trkpt lat="43.82339557824571" lon="12.365712814246832"><ele>714.0</ele><time>2026-05-04T07:48:34Z</time></trkpt><trkpt lat="43.823436187053865" lon="12.365628246573463"><ele>714.0</ele><time>2026-05-04T07:48:35Z</time></trkpt><trkpt lat="43.82347547009462" lon="12.365535465751156"><ele>714.0</ele><time>2026-05-04T07:48:36Z</time></trkpt><trkpt lat="43.8235001915576" lon="12.365433852759656"><ele>714.0</ele><time>2026-05-04T07:48:37Z</time></trkpt><trkpt lat="43.82352384983577" lon="12.365335495672644"><ele>714.0</ele><time>2026-05-04T07:48:38Z</time></trkpt><trkpt lat="43.823555439054495" lon="12.365243772423433"><ele>714.0</ele><time>2026-05-04T07:48:39Z</time></trkpt><trkpt lat="43.823587971953835" lon="12.36516234698371"><ele>714.0</ele><time>2026-05-04T07:48:40Z</time></trkpt><trkpt lat="43.82363899496398" lon="12.365061760891198"><ele>716.6</ele><time>2026-05-04T07:48:42Z</time></trkpt><trkpt lat="43.82369374315563" lon="12.36494284657907"><ele>719.2</ele><time>2026-05-04T07:48:44Z</time></trkpt><trkpt lat="43.82373041290331" lon="12.364782413665333"><ele>721.8000000000001</ele><time>2026-05-04T07:48:46Z</time></trkpt><trkpt lat="43.82375533503232" lon="12.364592018062993"><ele>724.4000000000001</ele><time>2026-05-04T07:48:48Z</time></trkpt><trkpt lat="43.82377212355902" lon="12.364482273969397"><ele>727.0</ele><time>2026-05-04T07:48:49Z</time></trkpt><trkpt lat="43.823831184064446" lon="12.364326375424152"><ele>728.5</ele><time>2026-05-04T07:48:51Z</time></trkpt><trkpt lat="43.82386836648226" lon="12.36423461929038"><ele>730.0</ele><time>2026-05-04T07:48:52Z</time></trkpt><trkpt lat="43.82388765507066" lon="12.364146882185945"><ele>731.5</ele><time>2026-05-04T07:48:53Z</time></trkpt><trkpt lat="43.823887338051605" lon="12.364056289093536"><ele>733.0</ele><time>2026-05-04T07:48:54Z</time></trkpt><trkpt lat="43.8238934713553" lon="12.363964752885554"><ele>734.5</ele><time>2026-05-04T07:48:55Z</time></trkpt><trkpt lat="43.823938040234154" lon="12.363783785358434"><ele>736.0</ele><time>2026-05-04T07:48:57Z</time></trkpt><trkpt lat="43.8239735375361" lon="12.363685797519071"><ele>737.5999999999999</ele><time>2026-05-04T07:48:58Z</time></trkpt><trkpt lat="43.824012972304544" lon="12.363565173547107"><ele>739.2</ele><time>2026-05-04T07:48:59Z</time></trkpt><trkpt lat="43.82403671716637" lon="12.363455153376933"><ele>740.8</ele><time>2026-05-04T07:49:00Z</time></trkpt><trkpt lat="43.82405932109205" lon="12.363329807927512"><ele>742.4000000000001</ele><time>2026-05-04T07:49:01Z</time></trkpt><trkpt lat="43.82407368027591" lon="12.363224716161946"><ele>744.0</ele><time>2026-05-04T07:49:02Z</time></trkpt><trkpt lat="43.82410712430845" lon="12.363061895935184"><ele>744.8571428571429</ele><time>2026-05-04T07:49:04Z</time></trkpt><trkpt lat="43.82417110914428" lon="12.363020478750213"><ele>745.7142857142858</ele><time>2026-05-04T07:49:05Z</time></trkpt><trkpt lat="43.82418397405914" lon="12.362901072128139"><ele>746.5714285714287</ele><time>2026-05-04T07:49:14Z</time></trkpt><trkpt lat="43.82419112085919" lon="12.362784098609275"><ele>747.4285714285714</ele><time>2026-05-04T07:49:17Z</time></trkpt><trkpt lat="43.824235694066985" lon="12.362721220180724"><ele>748.2857142857142</ele><time>2026-05-04T07:49:24Z</time></trkpt><trkpt lat="43.824269432904394" lon="12.362643084177039"><ele>749.1428571428572</ele><time>2026-05-04T07:49:26Z</time></trkpt><trkpt lat="43.824297271590595" lon="12.36255553685498"><ele>750.0</ele><time>2026-05-04T07:49:29Z</time></trkpt><trkpt lat="43.824322711803944" lon="12.362458530163925"><ele>750.0</ele><time>2026-05-04T07:49:47Z</time></trkpt><trkpt lat="43.82438503932011" lon="12.362541852869441"><ele>750.0</ele><time>2026-05-04T07:49:52Z</time></trkpt><trkpt lat="43.82420958146589" lon="12.36267721836373"><ele>750.0</ele><time>2026-05-04T07:49:53Z</time></trkpt><trkpt lat="43.82415434360232" lon="12.362797856755162"><ele>750.0</ele><time>2026-05-04T07:49:55Z</time></trkpt><trkpt lat="43.82412803830289" lon="12.362882069940198"><ele>750.0</ele><time>2026-05-04T07:49:57Z</time></trkpt><trkpt lat="43.824139983970504" lon="12.362977482089637"><ele>750.0</ele><time>2026-05-04T07:50:00Z</time></trkpt><trkpt lat="43.82417172783336" lon="12.36307579588461"><ele>750.0</ele><time>2026-05-04T07:50:04Z</time></trkpt><trkpt lat="43.82423590187994" lon="12.363133094484958"><ele>750.0</ele><time>2026-05-04T07:50:06Z</time></trkpt><trkpt lat="43.82432168101651" lon="12.363160685056256"><ele>750.0</ele><time>2026-05-04T07:50:08Z</time></trkpt><trkpt lat="43.82438756097561" lon="12.363157316899544"><ele>750.0</ele><time>2026-05-04T07:50:11Z</time></trkpt><trkpt lat="43.824404317459944" lon="12.363070747541222"><ele>750.0</ele><time>2026-05-04T07:50:16Z</time></trkpt><trkpt lat="43.8243946861608" lon="12.362976109928152"><ele>755.6666666666666</ele><time>2026-05-04T07:50:18Z</time></trkpt><trkpt lat="43.824410964133826" lon="12.362863548924981"><ele>761.3333333333333</ele><time>2026-05-04T07:50:20Z</time></trkpt><trkpt lat="43.82448295327152" lon="12.362799547642533"><ele>767.0</ele><time>2026-05-04T07:50:22Z</time></trkpt><trkpt lat="43.82455713709201" lon="12.362718728275256"><ele>772.6666666666666</ele><time>2026-05-04T07:50:24Z</time></trkpt><trkpt lat="43.82459365637451" lon="12.362646822748355"><ele>778.3333333333333</ele><time>2026-05-04T07:50:25Z</time></trkpt><trkpt lat="43.824654372019424" lon="12.362507565282948"><ele>784.0</ele><time>2026-05-04T07:50:27Z</time></trkpt><trkpt lat="43.824726519528305" lon="12.362443015033223"><ele>783.9999999999999</ele><time>2026-05-04T07:50:29Z</time></trkpt><trkpt lat="43.82469318778206" lon="12.362322416756871"><ele>784.0</ele><time>2026-05-04T07:50:31Z</time></trkpt><trkpt lat="43.824664444011944" lon="12.362233858872784"><ele>784.0</ele><time>2026-05-04T07:50:32Z</time></trkpt><trkpt lat="43.824641987950834" lon="12.362121327571465"><ele>784.0</ele><time>2026-05-04T07:50:33Z</time></trkpt><trkpt lat="43.82463012319629" lon="12.361980694894552"><ele>783.9999999999999</ele><time>2026-05-04T07:50:35Z</time></trkpt><trkpt lat="43.82465373193439" lon="12.361852555165482"><ele>784.0</ele><time>2026-05-04T07:50:37Z</time></trkpt><trkpt lat="43.82471376321249" lon="12.36169929921727"><ele>785.8333333333333</ele><time>2026-05-04T07:50:39Z</time></trkpt><trkpt lat="43.824728523716246" lon="12.361610857294155"><ele>787.6666666666666</ele><time>2026-05-04T07:50:40Z</time></trkpt><trkpt lat="43.82474741216541" lon="12.361527224653054"><ele>789.5</ele><time>2026-05-04T07:50:41Z</time></trkpt><trkpt lat="43.82478551986331" lon="12.36140582995621"><ele>791.3333333333333</ele><time>2026-05-04T07:50:43Z</time></trkpt><trkpt lat="43.82487560075155" lon="12.361317451150226"><ele>793.1666666666666</ele><time>2026-05-04T07:50:45Z</time></trkpt><trkpt lat="43.82494852420558" lon="12.361262388099133"><ele>795.0</ele><time>2026-05-04T07:50:46Z</time></trkpt><trkpt lat="43.82500429806871" lon="12.361189451261955"><ele>795.0</ele><time>2026-05-04T07:50:47Z</time></trkpt><trkpt lat="43.8250548512418" lon="12.361116026213972"><ele>795.0</ele><time>2026-05-04T07:50:48Z</time></trkpt><trkpt lat="43.8250996587426" lon="12.361046287291536"><ele>795.0</ele><time>2026-05-04T07:50:49Z</time></trkpt><trkpt lat="43.825141078453356" lon="12.360926105429481"><ele>795.0</ele><time>2026-05-04T07:50:51Z</time></trkpt><trkpt lat="43.82519066714969" lon="12.3608229509881"><ele>795.0</ele><time>2026-05-04T07:50:53Z</time></trkpt><trkpt lat="43.82524532628548" lon="12.360753962716345"><ele>795.0</ele><time>2026-05-04T07:50:55Z</time></trkpt><trkpt lat="43.82526619288859" lon="12.360666015535578"><ele>800.6666666666666</ele><time>2026-05-04T07:51:07Z</time></trkpt><trkpt lat="43.825265946958766" lon="12.360571540090149"><ele>806.3333333333333</ele><time>2026-05-04T07:51:10Z</time></trkpt><trkpt lat="43.82532278204661" lon="12.360490143298017"><ele>812.0</ele><time>2026-05-04T07:51:19Z</time></trkpt><trkpt lat="43.8253013367494" lon="12.360371687655903"><ele>817.6666666666666</ele><time>2026-05-04T07:51:21Z</time></trkpt><trkpt lat="43.825227592306156" lon="12.360408851239148"><ele>823.3333333333333</ele><time>2026-05-04T07:51:24Z</time></trkpt><trkpt lat="43.825260035627814" lon="12.360559137683259"><ele>829.0</ele><time>2026-05-04T07:51:26Z</time></trkpt><trkpt lat="43.82526669237414" lon="12.360682970933574"><ele>828.9999999999999</ele><time>2026-05-04T07:51:28Z</time></trkpt><trkpt lat="43.82528529383289" lon="12.360773529106138"><ele>829.0</ele><time>2026-05-04T07:51:31Z</time></trkpt><trkpt lat="43.82536363767127" lon="12.360806775280489"><ele>829.0</ele><time>2026-05-04T07:51:34Z</time></trkpt><trkpt lat="43.8254314628631" lon="12.360822155555015"><ele>829.0</ele><time>2026-05-04T07:51:36Z</time></trkpt><trkpt lat="43.82552179890348" lon="12.360828162644179"><ele>828.9999999999999</ele><time>2026-05-04T07:51:38Z</time></trkpt><trkpt lat="43.82562971719043" lon="12.360854295443524"><ele>829.0</ele><time>2026-05-04T07:51:40Z</time></trkpt><trkpt lat="43.825709775921105" lon="12.360953148763056"><ele>828.9999999999999</ele><time>2026-05-04T07:51:42Z</time></trkpt><trkpt lat="43.82562950618047" lon="12.360901510735305"><ele>829.0</ele><time>2026-05-04T07:52:10Z</time></trkpt><trkpt lat="43.82556864952497" lon="12.360834970263895"><ele>829.0</ele><time>2026-05-04T07:52:12Z</time></trkpt><trkpt lat="43.82545564429237" lon="12.360820490192399"><ele>829.0</ele><time>2026-05-04T07:52:14Z</time></trkpt><trkpt lat="43.825374826311524" lon="12.360826244647766"><ele>828.9999999999999</ele><time>2026-05-04T07:52:16Z</time></trkpt><trkpt lat="43.82530990356279" lon="12.360784931100019"><ele>829.0</ele><time>2026-05-04T07:52:18Z</time></trkpt><trkpt lat="43.82526062441982" lon="12.36072523237584"><ele>828.9999999999999</ele><time>2026-05-04T07:52:22Z</time></trkpt><trkpt lat="43.8253144814353" lon="12.360657779276533"><ele>829.0</ele><time>2026-05-04T07:52:26Z</time></trkpt><trkpt lat="43.82538711249187" lon="12.360582308130821"><ele>829.0</ele><time>2026-05-04T07:52:28Z</time></trkpt><trkpt lat="43.825453106771874" lon="12.360464298796531"><ele>829.0</ele><time>2026-05-04T07:52:30Z</time></trkpt><trkpt lat="43.825507881303636" lon="12.360375105534864"><ele>828.9999999999999</ele><time>2026-05-04T07:52:32Z</time></trkpt><trkpt lat="43.82553384201327" lon="12.360275425838715"><ele>829.0</ele><time>2026-05-04T07:52:34Z</time></trkpt><trkpt lat="43.82558262530801" lon="12.360184880134062"><ele>829.1666666666666</ele><time>2026-05-04T07:52:36Z</time></trkpt><trkpt lat="43.82562565507022" lon="12.360070266054723"><ele>829.3333333333333</ele><time>2026-05-04T07:52:38Z</time></trkpt><trkpt lat="43.8256508283925" lon="12.359961985971484"><ele>829.5</ele><time>2026-05-04T07:52:40Z</time></trkpt><trkpt lat="43.82565766943977" lon="12.359840222933734"><ele>829.6666666666667</ele><time>2026-05-04T07:52:42Z</time></trkpt><trkpt lat="43.825654888079626" lon="12.359735687746408"><ele>829.8333333333334</ele><time>2026-05-04T07:52:56Z</time></trkpt><trkpt lat="43.825675718975326" lon="12.359587692161615"><ele>830.0</ele><time>2026-05-04T07:52:58Z</time></trkpt><trkpt lat="43.82563690663526" lon="12.359462682924303"><ele>832.0</ele><time>2026-05-04T07:53:00Z</time></trkpt><trkpt lat="43.825616346009255" lon="12.359332063176453"><ele>834.0</ele><time>2026-05-04T07:53:02Z</time></trkpt><trkpt lat="43.825614250087696" lon="12.359201862245728"><ele>836.0</ele><time>2026-05-04T07:53:04Z</time></trkpt><trkpt lat="43.82560638707091" lon="12.359078270178657"><ele>838.0</ele><time>2026-05-04T07:53:06Z</time></trkpt><trkpt lat="43.825627562985034" lon="12.358960355040384"><ele>840.0</ele><time>2026-05-04T07:53:08Z</time></trkpt><trkpt lat="43.825664150893864" lon="12.358823754543083"><ele>842.1666666666666</ele><time>2026-05-04T07:53:10Z</time></trkpt><trkpt lat="43.825714423256365" lon="12.358738618337679"><ele>844.3333333333333</ele><time>2026-05-04T07:53:12Z</time></trkpt><trkpt lat="43.825791857061944" lon="12.358673121530714"><ele>846.5</ele><time>2026-05-04T07:53:15Z</time></trkpt><trkpt lat="43.82585027640506" lon="12.358626276831524"><ele>848.6666666666666</ele><time>2026-05-04T07:53:18Z</time></trkpt><trkpt lat="43.82583562809325" lon="12.35847488777556"><ele>850.8333333333333</ele><time>2026-05-04T07:53:20Z</time></trkpt><trkpt lat="43.82581307178495" lon="12.35838712890169"><ele>853.0</ele><time>2026-05-04T07:53:21Z</time></trkpt><trkpt lat="43.825784523836276" lon="12.358287638376872"><ele>853.0</ele><time>2026-05-04T07:53:22Z</time></trkpt><trkpt lat="43.8257361647012" lon="12.358194737051674"><ele>853.0</ele><time>2026-05-04T07:53:23Z</time></trkpt><trkpt lat="43.825677997570246" lon="12.358097861583335"><ele>853.0</ele><time>2026-05-04T07:53:24Z</time></trkpt><trkpt lat="43.82562165440486" lon="12.357985187614872"><ele>853.0</ele><time>2026-05-04T07:53:25Z</time></trkpt><trkpt lat="43.8255691390123" lon="12.357862709087112"><ele>853.0</ele><time>2026-05-04T07:53:26Z</time></trkpt><trkpt lat="43.8255190501192" lon="12.357737728683807"><ele>855.2</ele><time>2026-05-04T07:53:27Z</time></trkpt><trkpt lat="43.82547053330957" lon="12.35760306489166"><ele>857.4</ele><time>2026-05-04T07:53:28Z</time></trkpt><trkpt lat="43.825427751503646" lon="12.357476105704103"><ele>859.6000000000001</ele><time>2026-05-04T07:53:29Z</time></trkpt><trkpt lat="43.82538617678706" lon="12.35734441178202"><ele>861.8000000000001</ele><time>2026-05-04T07:53:30Z</time></trkpt><trkpt lat="43.82534849842822" lon="12.357203601485258"><ele>864.0</ele><time>2026-05-04T07:53:31Z</time></trkpt><trkpt lat="43.8253174821077" lon="12.35706249689885"><ele>862.4000000000001</ele><time>2026-05-04T07:53:32Z</time></trkpt><trkpt lat="43.825277244969776" lon="12.3569314087362"><ele>860.8000000000001</ele><time>2026-05-04T07:53:33Z</time></trkpt><trkpt lat="43.825245413930844" lon="12.356799108837256"><ele>859.1999999999999</ele><time>2026-05-04T07:53:34Z</time></trkpt><trkpt lat="43.82521250997906" lon="12.356661770282347"><ele>857.5999999999999</ele><time>2026-05-04T07:53:35Z</time></trkpt><trkpt lat="43.82517003848613" lon="12.356530064856766"><ele>856.0</ele><time>2026-05-04T07:53:36Z</time></trkpt><trkpt lat="43.825143302646374" lon="12.356385615871398"><ele>859.0</ele><time>2026-05-04T07:53:37Z</time></trkpt><trkpt lat="43.825115406931666" lon="12.356246873812006"><ele>861.9999999999999</ele><time>2026-05-04T07:53:38Z</time></trkpt><trkpt lat="43.82508901321163" lon="12.356107812580122"><ele>864.9999999999999</ele><time>2026-05-04T07:53:39Z</time></trkpt><trkpt lat="43.82505064921656" lon="12.355955030305513"><ele>868.0</ele><time>2026-05-04T07:53:40Z</time></trkpt><trkpt lat="43.82501159803359" lon="12.355800985603528"><ele>871.0</ele><time>2026-05-04T07:53:41Z</time></trkpt><trkpt lat="43.8249710353834" lon="12.35565444316004"><ele>872.8</ele><time>2026-05-04T07:53:42Z</time></trkpt><trkpt lat="43.8249367269409" lon="12.355514676150134"><ele>874.5999999999999</ele><time>2026-05-04T07:53:43Z</time></trkpt><trkpt lat="43.82491557355479" lon="12.355372921826076"><ele>876.4</ele><time>2026-05-04T07:53:44Z</time></trkpt><trkpt lat="43.82490751743005" lon="12.355225807417654"><ele>878.2</ele><time>2026-05-04T07:53:45Z</time></trkpt><trkpt lat="43.82490155860715" lon="12.355078988244948"><ele>880.0</ele><time>2026-05-04T07:53:46Z</time></trkpt><trkpt lat="43.824888326481336" lon="12.35493054928669"><ele>879.9999999999999</ele><time>2026-05-04T07:53:47Z</time></trkpt><trkpt lat="43.824886881292464" lon="12.354781486462839"><ele>880.0</ele><time>2026-05-04T07:53:48Z</time></trkpt><trkpt lat="43.82489254315441" lon="12.354646554002645"><ele>880.0</ele><time>2026-05-04T07:53:49Z</time></trkpt><trkpt lat="43.82489994630335" lon="12.354530894190301"><ele>880.0</ele><time>2026-05-04T07:53:50Z</time></trkpt><trkpt lat="43.82491736542655" lon="12.354429186175318"><ele>879.9999999999999</ele><time>2026-05-04T07:53:51Z</time></trkpt><trkpt lat="43.82493239609958" lon="12.35432406731506"><ele>880.0</ele><time>2026-05-04T07:53:52Z</time></trkpt><trkpt lat="43.82495131077809" lon="12.354165766393756"><ele>880.8333333333333</ele><time>2026-05-04T07:53:54Z</time></trkpt><trkpt lat="43.82501712284384" lon="12.354105809463919"><ele>881.6666666666666</ele><time>2026-05-04T07:53:56Z</time></trkpt><trkpt lat="43.8251270693467" lon="12.35420065817534"><ele>882.5</ele><time>2026-05-04T07:53:58Z</time></trkpt><trkpt lat="43.82518806674234" lon="12.354280329874802"><ele>883.3333333333333</ele><time>2026-05-04T07:53:59Z</time></trkpt><trkpt lat="43.8252423926601" lon="12.354330525053092"><ele>884.1666666666666</ele><time>2026-05-04T07:54:00Z</time></trkpt><trkpt lat="43.825296782279324" lon="12.354414932050904"><ele>885.0</ele><time>2026-05-04T07:54:02Z</time></trkpt><trkpt lat="43.8253356663169" lon="12.354500486813848"><ele>887.6</ele><time>2026-05-04T07:54:03Z</time></trkpt><trkpt lat="43.82538518258016" lon="12.354571895603215"><ele>890.2</ele><time>2026-05-04T07:54:04Z</time></trkpt><trkpt lat="43.82544678387537" lon="12.354607659256606"><ele>892.8</ele><time>2026-05-04T07:54:05Z</time></trkpt><trkpt lat="43.825581333657304" lon="12.354567741249296"><ele>895.4</ele><time>2026-05-04T07:54:07Z</time></trkpt><trkpt lat="43.82565644775802" lon="12.354521890311757"><ele>898.0</ele><time>2026-05-04T07:54:08Z</time></trkpt><trkpt lat="43.82574774030252" lon="12.354478376386439"><ele>897.9999999999999</ele><time>2026-05-04T07:54:09Z</time></trkpt><trkpt lat="43.825824286344776" lon="12.354446309372133"><ele>898.0</ele><time>2026-05-04T07:54:10Z</time></trkpt><trkpt lat="43.825890225890355" lon="12.354416012844933"><ele>898.0</ele><time>2026-05-04T07:54:11Z</time></trkpt><trkpt lat="43.82596215067138" lon="12.354386073556787"><ele>898.0</ele><time>2026-05-04T07:54:13Z</time></trkpt><trkpt lat="43.826058026403594" lon="12.354324115867334"><ele>897.9999999999999</ele><time>2026-05-04T07:54:15Z</time></trkpt><trkpt lat="43.82614123737645" lon="12.354331474651486"><ele>898.0</ele><time>2026-05-04T07:54:17Z</time></trkpt><trkpt lat="43.82624668123397" lon="12.354448120353043"><ele>899.5999999999999</ele><time>2026-05-04T07:54:19Z</time></trkpt><trkpt lat="43.82631400883331" lon="12.354519671763176"><ele>901.1999999999999</ele><time>2026-05-04T07:54:20Z</time></trkpt><trkpt lat="43.826369698330176" lon="12.35458750065423"><ele>902.8</ele><time>2026-05-04T07:54:21Z</time></trkpt><trkpt lat="43.82645456644331" lon="12.354675523962852"><ele>904.4</ele><time>2026-05-04T07:54:23Z</time></trkpt><trkpt lat="43.82649807522651" lon="12.354818358575486"><ele>906.0</ele><time>2026-05-04T07:54:25Z</time></trkpt><trkpt lat="43.826509427519085" lon="12.354934416384925"><ele>906.0</ele><time>2026-05-04T07:54:26Z</time></trkpt><trkpt lat="43.82652558531295" lon="12.355026358763654"><ele>905.9999999999999</ele><time>2026-05-04T07:54:27Z</time></trkpt><trkpt lat="43.82655205372474" lon="12.355195441123422"><ele>905.9999999999999</ele><time>2026-05-04T07:54:29Z</time></trkpt><trkpt lat="43.82659042263532" lon="12.35534098405019"><ele>906.0</ele><time>2026-05-04T07:54:31Z</time></trkpt><trkpt lat="43.826634970759805" lon="12.355506346487592"><ele>906.0</ele><time>2026-05-04T07:54:33Z</time></trkpt><trkpt lat="43.8266544950556" lon="12.355605568301984"><ele>904.6666666666666</ele><time>2026-05-04T07:54:34Z</time></trkpt><trkpt lat="43.826688362819226" lon="12.355698145941764"><ele>903.3333333333333</ele><time>2026-05-04T07:54:35Z</time></trkpt><trkpt lat="43.826788223606805" lon="12.355783935360323"><ele>902.0</ele><time>2026-05-04T07:54:37Z</time></trkpt><trkpt lat="43.82685489474227" lon="12.355799215009387"><ele>900.6666666666666</ele><time>2026-05-04T07:54:38Z</time></trkpt><trkpt lat="43.826934813218166" lon="12.355816392390754"><ele>899.3333333333333</ele><time>2026-05-04T07:54:40Z</time></trkpt><trkpt lat="43.82693352466111" lon="12.355714168687946"><ele>898.0</ele><time>2026-05-04T07:55:08Z</time></trkpt><trkpt lat="43.8268504276745" lon="12.355751816684029"><ele>898.0</ele><time>2026-05-04T07:55:10Z</time></trkpt><trkpt lat="43.82676552427836" lon="12.355793391009925"><ele>898.0</ele><time>2026-05-04T07:55:12Z</time></trkpt><trkpt lat="43.82669719885685" lon="12.355717283109765"><ele>898.0</ele><time>2026-05-04T07:55:14Z</time></trkpt><trkpt lat="43.82665656948892" lon="12.355633449903053"><ele>898.0</ele><time>2026-05-04T07:55:16Z</time></trkpt><trkpt lat="43.82662003036224" lon="12.355501631645714"><ele>898.0</ele><time>2026-05-04T07:55:18Z</time></trkpt><trkpt lat="43.826590865224084" lon="12.355360844453738"><ele>899.5999999999999</ele><time>2026-05-04T07:55:20Z</time></trkpt><trkpt lat="43.82655673708375" lon="12.35522531425024"><ele>901.1999999999999</ele><time>2026-05-04T07:55:22Z</time></trkpt><trkpt lat="43.82653986117169" lon="12.355085433012352"><ele>902.8</ele><time>2026-05-04T07:55:24Z</time></trkpt><trkpt lat="43.826529778462785" lon="12.354980680086387"><ele>904.4</ele><time>2026-05-04T07:55:26Z</time></trkpt><trkpt lat="43.82650226730781" lon="12.354834969202193"><ele>906.0</ele><time>2026-05-04T07:55:28Z</time></trkpt><trkpt lat="43.826472219903124" lon="12.354732974286765"><ele>907.8</ele><time>2026-05-04T07:55:30Z</time></trkpt><trkpt lat="43.82641671570496" lon="12.354646165153959"><ele>909.5999999999999</ele><time>2026-05-04T07:55:32Z</time></trkpt><trkpt lat="43.8263166691412" lon="12.354567199433026"><ele>911.4</ele><time>2026-05-04T07:55:34Z</time></trkpt><trkpt lat="43.82624158692082" lon="12.354463621627355"><ele>913.2</ele><time>2026-05-04T07:55:36Z</time></trkpt><trkpt lat="43.8261820745525" lon="12.354424087201552"><ele>915.0</ele><time>2026-05-04T07:55:37Z</time></trkpt><trkpt lat="43.826088663528445" lon="12.35434413262281"><ele>915.0</ele><time>2026-05-04T07:55:39Z</time></trkpt><trkpt lat="43.82598376650146" lon="12.354377849627904"><ele>915.0</ele><time>2026-05-04T07:55:41Z</time></trkpt><trkpt lat="43.82591964582612" lon="12.354433024105285"><ele>915.0</ele><time>2026-05-04T07:55:43Z</time></trkpt><trkpt lat="43.82586853300733" lon="12.354369304736268"><ele>915.0</ele><time>2026-05-04T07:55:47Z</time></trkpt><trkpt lat="43.825927012498866" lon="12.354296475054653"><ele>915.0</ele><time>2026-05-04T07:55:50Z</time></trkpt><trkpt lat="43.82600343804101" lon="12.354219587713732"><ele>915.0</ele><time>2026-05-04T07:55:58Z</time></trkpt><trkpt lat="43.82610273275874" lon="12.35412332479409"><ele>915.0</ele><time>2026-05-04T07:56:00Z</time></trkpt><trkpt lat="43.82619371843194" lon="12.35409159257026"><ele>915.0</ele><time>2026-05-04T07:56:02Z</time></trkpt><trkpt lat="43.82628624600905" lon="12.354107960512595"><ele>915.0</ele><time>2026-05-04T07:56:04Z</time></trkpt><trkpt lat="43.82638460818195" lon="12.354106652917723"><ele>915.0</ele><time>2026-05-04T07:56:06Z</time></trkpt><trkpt lat="43.82639377211843" lon="12.354006837122736"><ele>915.0</ele><time>2026-05-04T07:56:10Z</time></trkpt><trkpt lat="43.82635514751163" lon="12.354096504621614"><ele>915.0</ele><time>2026-05-04T07:56:17Z</time></trkpt><trkpt lat="43.82624854830961" lon="12.354125014514127"><ele>915.0</ele><time>2026-05-04T07:56:19Z</time></trkpt><trkpt lat="43.82614581901206" lon="12.354117911405904"><ele>915.0</ele><time>2026-05-04T07:56:21Z</time></trkpt><trkpt lat="43.82604962088471" lon="12.354178446925285"><ele>915.0</ele><time>2026-05-04T07:56:23Z</time></trkpt><trkpt lat="43.82596599232313" lon="12.354254835624921"><ele>915.0</ele><time>2026-05-04T07:56:25Z</time></trkpt><trkpt lat="43.82589812080401" lon="12.354230900720838"><ele>915.0</ele><time>2026-05-04T07:56:27Z</time></trkpt><trkpt lat="43.82583222987386" lon="12.354149921910661"><ele>913.4</ele><time>2026-05-04T07:56:30Z</time></trkpt><trkpt lat="43.82580173914746" lon="12.354044736692105"><ele>911.8</ele><time>2026-05-04T07:56:32Z</time></trkpt><trkpt lat="43.82575174738396" lon="12.35394106124721"><ele>910.2</ele><time>2026-05-04T07:56:34Z</time></trkpt><trkpt lat="43.82572033295986" lon="12.353807480833904"><ele>908.6</ele><time>2026-05-04T07:56:36Z</time></trkpt><trkpt lat="43.8257425308425" lon="12.353687497632487"><ele>907.0</ele><time>2026-05-04T07:56:38Z</time></trkpt><trkpt lat="43.82574199060638" lon="12.353508039565618"><ele>906.9999999999999</ele><time>2026-05-04T07:56:40Z</time></trkpt><trkpt lat="43.82574209964454" lon="12.353335867372607"><ele>907.0</ele><time>2026-05-04T07:56:42Z</time></trkpt><trkpt lat="43.825743662691465" lon="12.353231525044128"><ele>907.0</ele><time>2026-05-04T07:56:44Z</time></trkpt><trkpt lat="43.825836276921244" lon="12.353171731373232"><ele>907.0</ele><time>2026-05-04T07:56:46Z</time></trkpt><trkpt lat="43.825908115491984" lon="12.353151113933167"><ele>906.9999999999999</ele><time>2026-05-04T07:56:47Z</time></trkpt><trkpt lat="43.82597332090211" lon="12.35313461715132"><ele>907.0</ele><time>2026-05-04T07:56:48Z</time></trkpt><trkpt lat="43.82605166875676" lon="12.35310809012796"><ele>910.4000000000001</ele><time>2026-05-04T07:56:50Z</time></trkpt><trkpt lat="43.82607962680879" lon="12.352991572750142"><ele>913.8000000000001</ele><time>2026-05-04T07:56:52Z</time></trkpt><trkpt lat="43.82612879837053" lon="12.352873730973666"><ele>917.2</ele><time>2026-05-04T07:56:54Z</time></trkpt><trkpt lat="43.82620291313336" lon="12.35280260118285"><ele>920.6</ele><time>2026-05-04T07:56:56Z</time></trkpt><trkpt lat="43.826303967271905" lon="12.352797265094088"><ele>924.0</ele><time>2026-05-04T07:56:58Z</time></trkpt><trkpt lat="43.82635190681742" lon="12.352886514256017"><ele>924.0</ele><time>2026-05-04T07:57:01Z</time></trkpt><trkpt lat="43.82636853545596" lon="12.352971483177416"><ele>924.0</ele><time>2026-05-04T07:57:04Z</time></trkpt><trkpt lat="43.82643064105314" lon="12.353001169727904"><ele>924.0</ele><time>2026-05-04T07:57:06Z</time></trkpt><trkpt lat="43.8265042091847" lon="12.352974240146374"><ele>924.0</ele><time>2026-05-04T07:57:08Z</time></trkpt><trkpt lat="43.82661150264002" lon="12.35297305355009"><ele>924.0</ele><time>2026-05-04T07:57:10Z</time></trkpt><trkpt lat="43.82667936337437" lon="12.352965132856461"><ele>924.0</ele><time>2026-05-04T07:57:11Z</time></trkpt><trkpt lat="43.82675102635622" lon="12.352962197404322"><ele>927.3333333333334</ele><time>2026-05-04T07:57:12Z</time></trkpt><trkpt lat="43.82681813469172" lon="12.352969908968586"><ele>930.6666666666667</ele><time>2026-05-04T07:57:13Z</time></trkpt><trkpt lat="43.82691789649137" lon="12.352962029356176"><ele>934.0</ele><time>2026-05-04T07:57:15Z</time></trkpt><trkpt lat="43.826983547258855" lon="12.352932950667697"><ele>937.3333333333334</ele><time>2026-05-04T07:57:16Z</time></trkpt><trkpt lat="43.82703646139832" lon="12.352860774796122"><ele>940.6666666666667</ele><time>2026-05-04T07:57:17Z</time></trkpt><trkpt lat="43.82712391306739" lon="12.352768431144698"><ele>944.0</ele><time>2026-05-04T07:57:19Z</time></trkpt><trkpt lat="43.82720473177065" lon="12.352674750361352"><ele>944.0</ele><time>2026-05-04T07:57:21Z</time></trkpt><trkpt lat="43.82725290276808" lon="12.352520934719145"><ele>944.0000000000001</ele><time>2026-05-04T07:57:23Z</time></trkpt><trkpt lat="43.827267925168584" lon="12.352431476162277"><ele>944.0000000000001</ele><time>2026-05-04T07:57:24Z</time></trkpt><trkpt lat="43.827292656661776" lon="12.35234344220799"><ele>944.0</ele><time>2026-05-04T07:57:25Z</time></trkpt><trkpt lat="43.82734342217905" lon="12.35218770426815"><ele>944.0</ele><time>2026-05-04T07:57:27Z</time></trkpt><trkpt lat="43.82740014836608" lon="12.352040892610576"><ele>945.0</ele><time>2026-05-04T07:57:29Z</time></trkpt><trkpt lat="43.82743966391609" lon="12.351966577511691"><ele>945.0</ele><time>2026-05-04T07:57:30Z</time></trkpt><trkpt lat="43.82750707545341" lon="12.351859062725397"><ele>945.0</ele><time>2026-05-04T07:57:32Z</time></trkpt><trkpt lat="43.82754775795327" lon="12.351787266011227"><ele>945.0</ele><time>2026-05-04T07:57:34Z</time></trkpt></trkseg><trkseg><trkpt lat="43.827621378899" lon="12.351664894634107"><ele>947.6</ele><time>2026-05-04T08:08:51Z</time></trkpt><trkpt lat="43.82768531982578" lon="12.351563204138282"><ele>950.2</ele><time>2026-05-04T08:08:53Z</time></trkpt><trkpt lat="43.82775424167253" lon="12.351453749593395"><ele>952.8</ele><time>2026-05-04T08:08:55Z</time></trkpt><trkpt lat="43.82782162706832" lon="12.351356810072467"><ele>955.4</ele><time>2026-05-04T08:08:57Z</time></trkpt><trkpt lat="43.82786687590239" lon="12.351250703603977"><ele>958.0</ele><time>2026-05-04T08:08:59Z</time></trkpt><trkpt lat="43.82789655523492" lon="12.351134434331284"><ele>958.0</ele><time>2026-05-04T08:09:01Z</time></trkpt><trkpt lat="43.8279349849183" lon="12.351009487757263"><ele>958.0</ele><time>2026-05-04T08:09:03Z</time></trkpt><trkpt lat="43.82801684603712" lon="12.350882266897951"><ele>958.0</ele><time>2026-05-04T08:09:05Z</time></trkpt><trkpt lat="43.82807199300771" lon="12.350808044799981"><ele>958.0</ele><time>2026-05-04T08:09:06Z</time></trkpt><trkpt lat="43.8281312266601" lon="12.350722469642925"><ele>958.0</ele><time>2026-05-04T08:09:07Z</time></trkpt><trkpt lat="43.82819472695811" lon="12.350639943270393"><ele>958.0</ele><time>2026-05-04T08:09:08Z</time></trkpt><trkpt lat="43.82824977209124" lon="12.350569297541044"><ele>958.0</ele><time>2026-05-04T08:09:09Z</time></trkpt><trkpt lat="43.82830161378374" lon="12.350497528680679"><ele>958.0</ele><time>2026-05-04T08:09:10Z</time></trkpt><trkpt lat="43.82834754097434" lon="12.350417820855153"><ele>958.0</ele><time>2026-05-04T08:09:11Z</time></trkpt><trkpt lat="43.82838464294395" lon="12.35033181828047"><ele>958.0</ele><time>2026-05-04T08:09:12Z</time></trkpt><trkpt lat="43.828413986425005" lon="12.350240381395132"><ele>958.0</ele><time>2026-05-04T08:09:13Z</time></trkpt><trkpt lat="43.82842372878988" lon="12.350136363889689"><ele>958.0</ele><time>2026-05-04T08:09:14Z</time></trkpt><trkpt lat="43.82841823216171" lon="12.350032514733392"><ele>958.3333333333333</ele><time>2026-05-04T08:09:15Z</time></trkpt><trkpt lat="43.82839693975387" lon="12.34991733127237"><ele>958.6666666666666</ele><time>2026-05-04T08:09:16Z</time></trkpt><trkpt lat="43.828369797753744" lon="12.349793153497695"><ele>959.0</ele><time>2026-05-04T08:09:17Z</time></trkpt><trkpt lat="43.82834676229291" lon="12.349687484910248"><ele>959.3333333333333</ele><time>2026-05-04T08:09:18Z</time></trkpt><trkpt lat="43.82832250061032" lon="12.34959393600419"><ele>959.6666666666666</ele><time>2026-05-04T08:09:19Z</time></trkpt><trkpt lat="43.82831002454422" lon="12.349463248144703"><ele>960.0</ele><time>2026-05-04T08:09:21Z</time></trkpt><trkpt lat="43.82837578066287" lon="12.349402529389652"><ele>960.2</ele><time>2026-05-04T08:09:24Z</time></trkpt><trkpt lat="43.82846929361068" lon="12.349420292442705"><ele>960.4</ele><time>2026-05-04T08:09:26Z</time></trkpt><trkpt lat="43.828589536153316" lon="12.34947219199257"><ele>960.5999999999999</ele><time>2026-05-04T08:09:28Z</time></trkpt><trkpt lat="43.82864955315638" lon="12.349499006386877"><ele>960.8</ele><time>2026-05-04T08:09:29Z</time></trkpt><trkpt lat="43.82877439152125" lon="12.349520934755095"><ele>961.0</ele><time>2026-05-04T08:09:31Z</time></trkpt><trkpt lat="43.82884043334925" lon="12.3494603360444"><ele>962.8333333333333</ele><time>2026-05-04T08:09:32Z</time></trkpt><trkpt lat="43.82890676963758" lon="12.34937439499712"><ele>964.6666666666666</ele><time>2026-05-04T08:09:33Z</time></trkpt><trkpt lat="43.828967280792355" lon="12.349319875501948"><ele>966.5</ele><time>2026-05-04T08:09:34Z</time></trkpt><trkpt lat="43.82907324687754" lon="12.349297038920948"><ele>968.3333333333333</ele><time>2026-05-04T08:09:36Z</time></trkpt><trkpt lat="43.829135177765835" lon="12.349326887531328"><ele>970.1666666666666</ele><time>2026-05-04T08:09:37Z</time></trkpt><trkpt lat="43.82919377569956" lon="12.349385961777006"><ele>972.0</ele><time>2026-05-04T08:09:38Z</time></trkpt><trkpt lat="43.829247723419705" lon="12.349436625438733"><ele>972.0</ele><time>2026-05-04T08:09:39Z</time></trkpt><trkpt lat="43.82930992743984" lon="12.349392492252054"><ele>972.0</ele><time>2026-05-04T08:09:49Z</time></trkpt><trkpt lat="43.82924136248683" lon="12.349330401047709"><ele>972.0</ele><time>2026-05-04T08:10:14Z</time></trkpt><trkpt lat="43.829207092334116" lon="12.349202822793735"><ele>972.0</ele><time>2026-05-04T08:10:17Z</time></trkpt><trkpt lat="43.82920022905569" lon="12.349092798665463"><ele>972.0</ele><time>2026-05-04T08:10:19Z</time></trkpt><trkpt lat="43.82919048059183" lon="12.349000357394301"><ele>972.0</ele><time>2026-05-04T08:10:21Z</time></trkpt><trkpt lat="43.82917164454137" lon="12.348879893885917"><ele>972.8</ele><time>2026-05-04T08:10:23Z</time></trkpt><trkpt lat="43.829114049551535" lon="12.348765933525003"><ele>973.6</ele><time>2026-05-04T08:10:25Z</time></trkpt><trkpt lat="43.8290182072301" lon="12.34868898414061"><ele>974.3999999999999</ele><time>2026-05-04T08:10:27Z</time></trkpt><trkpt lat="43.82894628120406" lon="12.348624406330883"><ele>975.1999999999999</ele><time>2026-05-04T08:10:29Z</time></trkpt><trkpt lat="43.82887881777813" lon="12.348562500951745"><ele>976.0</ele><time>2026-05-04T08:10:31Z</time></trkpt><trkpt lat="43.82881253463293" lon="12.348469850918109"><ele>976.0</ele><time>2026-05-04T08:10:33Z</time></trkpt><trkpt lat="43.82875355756408" lon="12.34838264374525"><ele>975.9999999999999</ele><time>2026-05-04T08:10:35Z</time></trkpt><trkpt lat="43.82867141051518" lon="12.348311621858466"><ele>975.9999999999999</ele><time>2026-05-04T08:10:38Z</time></trkpt><trkpt lat="43.82858110699236" lon="12.348201581295632"><ele>976.0</ele><time>2026-05-04T08:10:40Z</time></trkpt><trkpt lat="43.82851494487795" lon="12.3480876226111"><ele>976.0</ele><time>2026-05-04T08:10:42Z</time></trkpt><trkpt lat="43.828470732620374" lon="12.348018960543126"><ele>975.0</ele><time>2026-05-04T08:10:44Z</time></trkpt><trkpt lat="43.82845352789683" lon="12.347894172157098"><ele>973.9999999999999</ele><time>2026-05-04T08:10:46Z</time></trkpt><trkpt lat="43.82838994381465" lon="12.347768675066565"><ele>972.9999999999999</ele><time>2026-05-04T08:10:48Z</time></trkpt><trkpt lat="43.82835126547824" lon="12.347652860624708"><ele>972.0</ele><time>2026-05-04T08:10:50Z</time></trkpt><trkpt lat="43.82830138073511" lon="12.34753218352197"><ele>971.0</ele><time>2026-05-04T08:10:52Z</time></trkpt><trkpt lat="43.82826447224256" lon="12.347452928587725"><ele>971.0</ele><time>2026-05-04T08:10:53Z</time></trkpt><trkpt lat="43.82821815769648" lon="12.347385948791768"><ele>970.9999999999999</ele><time>2026-05-04T08:10:54Z</time></trkpt><trkpt lat="43.82813879735903" lon="12.347278624845211"><ele>970.9999999999999</ele><time>2026-05-04T08:10:56Z</time></trkpt><trkpt lat="43.8280494976533" lon="12.347171051823931"><ele>971.0</ele><time>2026-05-04T08:10:58Z</time></trkpt><trkpt lat="43.82797165048749" lon="12.347074676357568"><ele>971.0</ele><time>2026-05-04T08:11:00Z</time></trkpt><trkpt lat="43.827961857713596" lon="12.346941714331276"><ele>972.5999999999999</ele><time>2026-05-04T08:11:02Z</time></trkpt><trkpt lat="43.82795251318852" lon="12.346807150473976"><ele>974.1999999999999</ele><time>2026-05-04T08:11:04Z</time></trkpt><trkpt lat="43.82792846003311" lon="12.346670517780737"><ele>975.8000000000001</ele><time>2026-05-04T08:11:06Z</time></trkpt><trkpt lat="43.827914995310046" lon="12.346516032793387"><ele>977.4000000000001</ele><time>2026-05-04T08:11:08Z</time></trkpt><trkpt lat="43.82792589221531" lon="12.346427690909229"><ele>979.0</ele><time>2026-05-04T08:11:09Z</time></trkpt><trkpt lat="43.827939087783236" lon="12.346300199427539"><ele>979.4999999999999</ele><time>2026-05-04T08:11:11Z</time></trkpt><trkpt lat="43.827878121690674" lon="12.346202965982148"><ele>980.0</ele><time>2026-05-04T08:11:13Z</time></trkpt><trkpt lat="43.82782913933006" lon="12.346147544845383"><ele>980.5</ele><time>2026-05-04T08:11:14Z</time></trkpt><trkpt lat="43.82776879771602" lon="12.346011468891765"><ele>981.0</ele><time>2026-05-04T08:11:16Z</time></trkpt><trkpt lat="43.82776274288733" lon="12.345878237261083"><ele>981.4999999999999</ele><time>2026-05-04T08:11:18Z</time></trkpt><trkpt lat="43.82775648850506" lon="12.34578062885899"><ele>982.0</ele><time>2026-05-04T08:11:19Z</time></trkpt><trkpt lat="43.82773098601622" lon="12.345607862591656"><ele>983.1666666666666</ele><time>2026-05-04T08:11:21Z</time></trkpt><trkpt lat="43.82769275755167" lon="12.345522709941987"><ele>984.3333333333333</ele><time>2026-05-04T08:11:22Z</time></trkpt><trkpt lat="43.827650716266014" lon="12.345455401834784"><ele>985.5</ele><time>2026-05-04T08:11:23Z</time></trkpt><trkpt lat="43.8275994406984" lon="12.345378693149991"><ele>986.6666666666667</ele><time>2026-05-04T08:11:24Z</time></trkpt><trkpt lat="43.82755196373889" lon="12.345298524362246"><ele>987.8333333333334</ele><time>2026-05-04T08:11:25Z</time></trkpt><trkpt lat="43.827493482724265" lon="12.34522562898979"><ele>989.0</ele><time>2026-05-04T08:11:26Z</time></trkpt><trkpt lat="43.827372270605544" lon="12.34517705249692"><ele>989.0</ele><time>2026-05-04T08:11:28Z</time></trkpt><trkpt lat="43.82726831095198" lon="12.345077034967774"><ele>989.0000000000001</ele><time>2026-05-04T08:11:30Z</time></trkpt><trkpt lat="43.827200251425886" lon="12.34498218754383"><ele>989.0000000000001</ele><time>2026-05-04T08:11:31Z</time></trkpt><trkpt lat="43.82714314844315" lon="12.344860036632479"><ele>989.0</ele><time>2026-05-04T08:11:33Z</time></trkpt><trkpt lat="43.82710535879696" lon="12.344765442279463"><ele>989.0</ele><time>2026-05-04T08:11:34Z</time></trkpt><trkpt lat="43.82707162992941" lon="12.344607234621161"><ele>991.1666666666667</ele><time>2026-05-04T08:11:36Z</time></trkpt><trkpt lat="43.82705796726867" lon="12.344521670420761"><ele>993.3333333333334</ele><time>2026-05-04T08:11:37Z</time></trkpt><trkpt lat="43.82705241177023" lon="12.344419490732774"><ele>995.5</ele><time>2026-05-04T08:11:38Z</time></trkpt><trkpt lat="43.8270619378907" lon="12.344322562229031"><ele>997.6666666666667</ele><time>2026-05-04T08:11:39Z</time></trkpt><trkpt lat="43.82710699346924" lon="12.34421617429902"><ele>999.8333333333334</ele><time>2026-05-04T08:11:40Z</time></trkpt><trkpt lat="43.8271449467689" lon="12.344104925539943"><ele>1002.0</ele><time>2026-05-04T08:11:41Z</time></trkpt><trkpt lat="43.827168158858576" lon="12.344010637179153"><ele>1003.2</ele><time>2026-05-04T08:11:42Z</time></trkpt><trkpt lat="43.82709114591279" lon="12.343826194405603"><ele>1004.4000000000001</ele><time>2026-05-04T08:11:44Z</time></trkpt><trkpt lat="43.827028146939156" lon="12.343712412576547"><ele>1005.5999999999999</ele><time>2026-05-04T08:11:45Z</time></trkpt><trkpt lat="43.82698912141029" lon="12.343628007747434"><ele>1006.8</ele><time>2026-05-04T08:11:46Z</time></trkpt><trkpt lat="43.82693887437427" lon="12.343548869475569"><ele>1008.0</ele><time>2026-05-04T08:11:47Z</time></trkpt><trkpt lat="43.826891245102566" lon="12.343461769540781"><ele>1008.0</ele><time>2026-05-04T08:11:48Z</time></trkpt><trkpt lat="43.82685135040167" lon="12.34337609449169"><ele>1008.0</ele><time>2026-05-04T08:11:49Z</time></trkpt><trkpt lat="43.826803360884966" lon="12.343294824470561"><ele>1008.0</ele><time>2026-05-04T08:11:50Z</time></trkpt><trkpt lat="43.82674701536463" lon="12.343159658899875"><ele>1008.0</ele><time>2026-05-04T08:11:52Z</time></trkpt><trkpt lat="43.826723206701004" lon="12.343007824639944"><ele>1008.0</ele><time>2026-05-04T08:11:54Z</time></trkpt><trkpt lat="43.82671993186435" lon="12.342919565917912"><ele>1008.0</ele><time>2026-05-04T08:11:55Z</time></trkpt><trkpt lat="43.82671503690317" lon="12.34280844041967"><ele>1007.5999999999999</ele><time>2026-05-04T08:11:56Z</time></trkpt><trkpt lat="43.826717581546475" lon="12.342717301153794"><ele>1007.1999999999999</ele><time>2026-05-04T08:11:57Z</time></trkpt><trkpt lat="43.826718497099066" lon="12.342613594715846"><ele>1006.8</ele><time>2026-05-04T08:11:58Z</time></trkpt><trkpt lat="43.82671640027617" lon="12.34248160566337"><ele>1006.4</ele><time>2026-05-04T08:12:35Z</time></trkpt><trkpt lat="43.82671780097713" lon="12.3423717615363"><ele>1006.0</ele><time>2026-05-04T08:12:37Z</time></trkpt><trkpt lat="43.82672574265803" lon="12.342170874244458"><ele>1007.4999999999999</ele><time>2026-05-04T08:12:39Z</time></trkpt><trkpt lat="43.82671718656928" lon="12.34205748982189"><ele>1009.0</ele><time>2026-05-04T08:12:40Z</time></trkpt><trkpt lat="43.82670552774954" lon="12.341935880182827"><ele>1010.5</ele><time>2026-05-04T08:12:41Z</time></trkpt><trkpt lat="43.82667504783064" lon="12.341849460887982"><ele>1012.0</ele><time>2026-05-04T08:12:43Z</time></trkpt><trkpt lat="43.826711421785845" lon="12.341764371312308"><ele>1013.4999999999999</ele><time>2026-05-04T08:12:50Z</time></trkpt><trkpt lat="43.82668752986067" lon="12.341634343120404"><ele>1015.0</ele><time>2026-05-04T08:12:53Z</time></trkpt><trkpt lat="43.82667821312373" lon="12.34154136328029"><ele>1015.0</ele><time>2026-05-04T08:12:55Z</time></trkpt><trkpt lat="43.8266650053642" lon="12.341453168666781"><ele>1015.0</ele><time>2026-05-04T08:12:57Z</time></trkpt><trkpt lat="43.826621537480825" lon="12.341333396078758"><ele>1015.0</ele><time>2026-05-04T08:12:59Z</time></trkpt><trkpt lat="43.82656214491798" lon="12.341205439123677"><ele>1015.0</ele><time>2026-05-04T08:13:01Z</time></trkpt><trkpt lat="43.82652171503942" lon="12.341091981110752"><ele>1015.0</ele><time>2026-05-04T08:13:03Z</time></trkpt><trkpt lat="43.826440977864095" lon="12.340972489068287"><ele>1016.4</ele><time>2026-05-04T08:13:05Z</time></trkpt><trkpt lat="43.826370659221794" lon="12.340868487152372"><ele>1017.8</ele><time>2026-05-04T08:13:07Z</time></trkpt><trkpt lat="43.826318875802905" lon="12.340796115815587"><ele>1019.2</ele><time>2026-05-04T08:13:09Z</time></trkpt><trkpt lat="43.82628764825048" lon="12.34070786368461"><ele>1020.6</ele><time>2026-05-04T08:13:12Z</time></trkpt><trkpt lat="43.82624669122783" lon="12.34055480248366"><ele>1022.0</ele><time>2026-05-04T08:13:15Z</time></trkpt><trkpt lat="43.82624229222262" lon="12.340416223194763"><ele>1023.8</ele><time>2026-05-04T08:13:17Z</time></trkpt><trkpt lat="43.826228424722245" lon="12.340291868557276"><ele>1025.6</ele><time>2026-05-04T08:13:19Z</time></trkpt><trkpt lat="43.82620620677177" lon="12.34017192976883"><ele>1027.3999999999999</ele><time>2026-05-04T08:13:21Z</time></trkpt><trkpt lat="43.82619556748355" lon="12.340075746264633"><ele>1029.2</ele><time>2026-05-04T08:13:23Z</time></trkpt><trkpt lat="43.8261813051014" lon="12.339933706237126"><ele>1031.0</ele><time>2026-05-04T08:13:25Z</time></trkpt><trkpt lat="43.826145010733825" lon="12.339810494713838"><ele>1032.1666666666667</ele><time>2026-05-04T08:13:27Z</time></trkpt><trkpt lat="43.82609989103553" lon="12.339687181512272"><ele>1033.3333333333335</ele><time>2026-05-04T08:13:30Z</time></trkpt><trkpt lat="43.82611774508808" lon="12.339541685528195"><ele>1034.5</ele><time>2026-05-04T08:13:32Z</time></trkpt><trkpt lat="43.826126263885875" lon="12.339428932495112"><ele>1035.6666666666667</ele><time>2026-05-04T08:13:34Z</time></trkpt><trkpt lat="43.82613339597508" lon="12.339335714742429"><ele>1036.8333333333333</ele><time>2026-05-04T08:13:36Z</time></trkpt><trkpt lat="43.826123979547816" lon="12.339222025765324"><ele>1038.0</ele><time>2026-05-04T08:13:56Z</time></trkpt><trkpt lat="43.82613131689151" lon="12.339134365063167"><ele>1038.0</ele><time>2026-05-04T08:13:57Z</time></trkpt><trkpt lat="43.82612853562262" lon="12.339023567134628"><ele>1038.0</ele><time>2026-05-04T08:13:58Z</time></trkpt><trkpt lat="43.82611289504145" lon="12.338922072500381"><ele>1038.0</ele><time>2026-05-04T08:13:59Z</time></trkpt><trkpt lat="43.82608592153827" lon="12.338827485346586"><ele>1038.0</ele><time>2026-05-04T08:14:00Z</time></trkpt><trkpt lat="43.82603707391807" lon="12.338739744293505"><ele>1038.0</ele><time>2026-05-04T08:14:01Z</time></trkpt><trkpt lat="43.82595209642237" lon="12.338639382910847"><ele>1038.0</ele><time>2026-05-04T08:14:02Z</time></trkpt><trkpt lat="43.825875170585995" lon="12.33853097540436"><ele>1039.5</ele><time>2026-05-04T08:14:03Z</time></trkpt><trkpt lat="43.825817265730876" lon="12.338447299871383"><ele>1041.0</ele><time>2026-05-04T08:14:04Z</time></trkpt><trkpt lat="43.82577301535227" lon="12.338371483985147"><ele>1042.5</ele><time>2026-05-04T08:14:05Z</time></trkpt><trkpt lat="43.8257219365594" lon="12.338285761908166"><ele>1044.0</ele><time>2026-05-04T08:14:06Z</time></trkpt><trkpt lat="43.825671908118096" lon="12.338197207303109"><ele>1045.5</ele><time>2026-05-04T08:14:07Z</time></trkpt><trkpt lat="43.825641063255084" lon="12.338114187612918"><ele>1047.0</ele><time>2026-05-04T08:14:08Z</time></trkpt><trkpt lat="43.82562120946382" lon="12.338010259106206"><ele>1047.6666666666667</ele><time>2026-05-04T08:14:09Z</time></trkpt><trkpt lat="43.825596381590636" lon="12.337912410619058"><ele>1048.3333333333333</ele><time>2026-05-04T08:14:10Z</time></trkpt><trkpt lat="43.825558090660444" lon="12.337789076640345"><ele>1049.0</ele><time>2026-05-04T08:14:11Z</time></trkpt><trkpt lat="43.82553613125358" lon="12.337674417243054"><ele>1049.6666666666665</ele><time>2026-05-04T08:14:12Z</time></trkpt><trkpt lat="43.82551524305763" lon="12.337549317874005"><ele>1050.3333333333333</ele><time>2026-05-04T08:14:13Z</time></trkpt><trkpt lat="43.82549312476467" lon="12.337441015038266"><ele>1051.0</ele><time>2026-05-04T08:14:14Z</time></trkpt><trkpt lat="43.82546933242815" lon="12.337326995388814"><ele>1051.0</ele><time>2026-05-04T08:14:15Z</time></trkpt><trkpt lat="43.825450535834044" lon="12.33723553741846"><ele>1051.0</ele><time>2026-05-04T08:14:16Z</time></trkpt><trkpt lat="43.82544063103302" lon="12.33712880600709"><ele>1051.0</ele><time>2026-05-04T08:14:17Z</time></trkpt><trkpt lat="43.82542930478439" lon="12.337024247120386"><ele>1051.0</ele><time>2026-05-04T08:14:18Z</time></trkpt><trkpt lat="43.825397470862214" lon="12.336907420880085"><ele>1051.0</ele><time>2026-05-04T08:14:19Z</time></trkpt><trkpt lat="43.82536449543547" lon="12.336798215313618"><ele>1051.0</ele><time>2026-05-04T08:14:20Z</time></trkpt><trkpt lat="43.825339971922354" lon="12.336693896228113"><ele>1050.6666666666665</ele><time>2026-05-04T08:14:21Z</time></trkpt><trkpt lat="43.8253016442985" lon="12.336586218736493"><ele>1050.3333333333333</ele><time>2026-05-04T08:14:22Z</time></trkpt><trkpt lat="43.8252657648536" lon="12.33650552767144"><ele>1050.0</ele><time>2026-05-04T08:14:23Z</time></trkpt><trkpt lat="43.82522576824131" lon="12.336379763357906"><ele>1049.6666666666667</ele><time>2026-05-04T08:14:25Z</time></trkpt><trkpt lat="43.82514443714002" lon="12.336306666877"><ele>1049.3333333333335</ele><time>2026-05-04T08:14:28Z</time></trkpt><trkpt lat="43.82508987456373" lon="12.33620717477827"><ele>1049.0</ele><time>2026-05-04T08:14:30Z</time></trkpt><trkpt lat="43.82504780958793" lon="12.336087624476013"><ele>1046.4</ele><time>2026-05-04T08:14:32Z</time></trkpt><trkpt lat="43.825025734574915" lon="12.336004060960326"><ele>1043.8000000000002</ele><time>2026-05-04T08:14:33Z</time></trkpt><trkpt lat="43.825010357016524" lon="12.335918633790925"><ele>1041.1999999999998</ele><time>2026-05-04T08:14:34Z</time></trkpt><trkpt lat="43.824939528401096" lon="12.335814743053902"><ele>1038.6</ele><time>2026-05-04T08:14:36Z</time></trkpt><trkpt lat="43.82483004699049" lon="12.335786811564331"><ele>1036.0</ele><time>2026-05-04T08:14:38Z</time></trkpt><trkpt lat="43.82471363541853" lon="12.33583810273903"><ele>1036.0</ele><time>2026-05-04T08:14:40Z</time></trkpt><trkpt lat="43.82463870485635" lon="12.335815740659793"><ele>1036.0</ele><time>2026-05-04T08:14:42Z</time></trkpt><trkpt lat="43.82458636160872" lon="12.335687242797983"><ele>1036.0</ele><time>2026-05-04T08:14:45Z</time></trkpt><trkpt lat="43.82456186599882" lon="12.335594172349596"><ele>1036.0</ele><time>2026-05-04T08:14:47Z</time></trkpt><trkpt lat="43.82453036153583" lon="12.33551839119197"><ele>1036.0</ele><time>2026-05-04T08:14:48Z</time></trkpt><trkpt lat="43.82443891778243" lon="12.33535752429206"><ele>1035.2</ele><time>2026-05-04T08:14:50Z</time></trkpt><trkpt lat="43.82440136139198" lon="12.335253850239006"><ele>1034.3999999999999</ele><time>2026-05-04T08:14:51Z</time></trkpt><trkpt lat="43.82436922176953" lon="12.335159751837786"><ele>1033.6</ele><time>2026-05-04T08:14:52Z</time></trkpt><trkpt lat="43.824307923089385" lon="12.335009829160239"><ele>1032.8</ele><time>2026-05-04T08:14:54Z</time></trkpt><trkpt lat="43.824193653075056" lon="12.334914949021224"><ele>1032.0</ele><time>2026-05-04T08:14:56Z</time></trkpt><trkpt lat="43.82413374118453" lon="12.33483625547565"><ele>1032.0</ele><time>2026-05-04T08:14:58Z</time></trkpt><trkpt lat="43.824122008761314" lon="12.334743512675768"><ele>1032.0</ele><time>2026-05-04T08:15:01Z</time></trkpt><trkpt lat="43.824169332987324" lon="12.334683456778162"><ele>1032.0</ele><time>2026-05-04T08:15:03Z</time></trkpt><trkpt lat="43.82424845127725" lon="12.334664450768377"><ele>1032.0</ele><time>2026-05-04T08:15:05Z</time></trkpt><trkpt lat="43.824307288485755" lon="12.334612930086182"><ele>1032.0</ele><time>2026-05-04T08:15:07Z</time></trkpt><trkpt lat="43.82439120845742" lon="12.334535410919"><ele>1032.0</ele><time>2026-05-04T08:15:09Z</time></trkpt><trkpt lat="43.82447178424104" lon="12.33450929703591"><ele>1031.2</ele><time>2026-05-04T08:15:10Z</time></trkpt><trkpt lat="43.824576623567616" lon="12.334468702317112"><ele>1030.4</ele><time>2026-05-04T08:15:12Z</time></trkpt><trkpt lat="43.824696752557706" lon="12.33443742624126"><ele>1029.6</ele><time>2026-05-04T08:15:14Z</time></trkpt><trkpt lat="43.82480146160023" lon="12.33433240521704"><ele>1028.8</ele><time>2026-05-04T08:15:16Z</time></trkpt><trkpt lat="43.82484286238088" lon="12.334234628087717"><ele>1028.0</ele><time>2026-05-04T08:15:17Z</time></trkpt><trkpt lat="43.8248726799408" lon="12.334137394173965"><ele>1028.0</ele><time>2026-05-04T08:15:18Z</time></trkpt><trkpt lat="43.824892256018536" lon="12.334034666960518"><ele>1028.0</ele><time>2026-05-04T08:15:19Z</time></trkpt><trkpt lat="43.824890341282625" lon="12.333922795884957"><ele>1028.0</ele><time>2026-05-04T08:15:20Z</time></trkpt><trkpt lat="43.82489260437928" lon="12.333820949200966"><ele>1028.0</ele><time>2026-05-04T08:15:21Z</time></trkpt><trkpt lat="43.82491821547605" lon="12.333678539261491"><ele>1028.0</ele><time>2026-05-04T08:15:23Z</time></trkpt><trkpt lat="43.82496959658239" lon="12.33353337992192"><ele>1029.2857142857142</ele><time>2026-05-04T08:15:25Z</time></trkpt><trkpt lat="43.82502345443923" lon="12.333462242909103"><ele>1030.5714285714287</ele><time>2026-05-04T08:15:26Z</time></trkpt><trkpt lat="43.825065967280466" lon="12.333393765366456"><ele>1031.857142857143</ele><time>2026-05-04T08:15:27Z</time></trkpt><trkpt lat="43.825106038888585" lon="12.333301099665425"><ele>1033.142857142857</ele><time>2026-05-04T08:15:28Z</time></trkpt><trkpt lat="43.82512830593954" lon="12.333204491684942"><ele>1034.4285714285713</ele><time>2026-05-04T08:15:29Z</time></trkpt><trkpt lat="43.825138781400156" lon="12.333108481365707"><ele>1035.7142857142858</ele><time>2026-05-04T08:15:30Z</time></trkpt><trkpt lat="43.82516686922869" lon="12.333029541191582"><ele>1037.0</ele><time>2026-05-04T08:15:31Z</time></trkpt><trkpt lat="43.825210326275645" lon="12.332959612321387"><ele>1037.0</ele><time>2026-05-04T08:15:32Z</time></trkpt><trkpt lat="43.82530967760795" lon="12.332878241208137"><ele>1037.0</ele><time>2026-05-04T08:15:34Z</time></trkpt><trkpt lat="43.82539267503113" lon="12.332801529262928"><ele>1037.0</ele><time>2026-05-04T08:15:36Z</time></trkpt><trkpt lat="43.825404596601985" lon="12.332653416297541"><ele>1037.0</ele><time>2026-05-04T08:15:38Z</time></trkpt><trkpt lat="43.82543177964746" lon="12.332534118632006"><ele>1037.0</ele><time>2026-05-04T08:15:40Z</time></trkpt><trkpt lat="43.825494061198825" lon="12.332410249922239"><ele>1037.0</ele><time>2026-05-04T08:15:42Z</time></trkpt><trkpt lat="43.82552955071856" lon="12.332332838858566"><ele>1037.0</ele><time>2026-05-04T08:15:43Z</time></trkpt><trkpt lat="43.82558358109771" lon="12.332217026578395"><ele>1037.0</ele><time>2026-05-04T08:15:45Z</time></trkpt><trkpt lat="43.82561207300114" lon="12.332107047734421"><ele>1037.0</ele><time>2026-05-04T08:15:47Z</time></trkpt><trkpt lat="43.82561821608522" lon="12.331974066406094"><ele>1037.0</ele><time>2026-05-04T08:15:49Z</time></trkpt><trkpt lat="43.82562765050156" lon="12.331828694221539"><ele>1038.6666666666667</ele><time>2026-05-04T08:15:51Z</time></trkpt><trkpt lat="43.82564954363407" lon="12.331746846275694"><ele>1040.3333333333335</ele><time>2026-05-04T08:15:52Z</time></trkpt><trkpt lat="43.825672029875484" lon="12.331648624141938"><ele>1042.0</ele><time>2026-05-04T08:15:54Z</time></trkpt><trkpt lat="43.82570985830432" lon="12.331533006691556"><ele>1043.6666666666667</ele><time>2026-05-04T08:15:56Z</time></trkpt><trkpt lat="43.825741329868414" lon="12.331414348399377"><ele>1045.3333333333333</ele><time>2026-05-04T08:15:59Z</time></trkpt><trkpt lat="43.82575451976439" lon="12.331290128753272"><ele>1047.0</ele><time>2026-05-04T08:16:01Z</time></trkpt><trkpt lat="43.82574548652432" lon="12.331190871260931"><ele>1049.0</ele><time>2026-05-04T08:16:03Z</time></trkpt><trkpt lat="43.82577238807842" lon="12.33108124858294"><ele>1051.0</ele><time>2026-05-04T08:16:05Z</time></trkpt><trkpt lat="43.82579898550703" lon="12.330944874234786"><ele>1053.0</ele><time>2026-05-04T08:16:07Z</time></trkpt><trkpt lat="43.82583679144749" lon="12.33081482013219"><ele>1055.0</ele><time>2026-05-04T08:16:09Z</time></trkpt><trkpt lat="43.82586034696901" lon="12.330692855283313"><ele>1057.0</ele><time>2026-05-04T08:16:11Z</time></trkpt><trkpt lat="43.82585645664925" lon="12.33058240112806"><ele>1060.0</ele><time>2026-05-04T08:16:13Z</time></trkpt><trkpt lat="43.825826112102725" lon="12.330497154050196"><ele>1063.0</ele><time>2026-05-04T08:16:14Z</time></trkpt><trkpt lat="43.82577911480571" lon="12.330378934559278"><ele>1066.0</ele><time>2026-05-04T08:16:16Z</time></trkpt><trkpt lat="43.8257569055017" lon="12.330231134270766"><ele>1069.0</ele><time>2026-05-04T08:16:18Z</time></trkpt><trkpt lat="43.82573367039859" lon="12.330069536894015"><ele>1072.0</ele><time>2026-05-04T08:16:20Z</time></trkpt><trkpt lat="43.825709317257065" lon="12.329903974286623"><ele>1072.0</ele><time>2026-05-04T08:16:22Z</time></trkpt><trkpt lat="43.82569140547308" lon="12.329781961273584"><ele>1072.0</ele><time>2026-05-04T08:16:24Z</time></trkpt><trkpt lat="43.82566634381843" lon="12.329612870793895"><ele>1072.0</ele><time>2026-05-04T08:16:26Z</time></trkpt><trkpt lat="43.82565481775264" lon="12.329516591681575"><ele>1072.0</ele><time>2026-05-04T08:16:27Z</time></trkpt><trkpt lat="43.82565166037122" lon="12.32942690231407"><ele>1072.0</ele><time>2026-05-04T08:16:28Z</time></trkpt><trkpt lat="43.8256480719275" lon="12.32931914446511"><ele>1072.0</ele><time>2026-05-04T08:16:29Z</time></trkpt><trkpt lat="43.82564547018139" lon="12.329206312128798"><ele>1074.5</ele><time>2026-05-04T08:16:30Z</time></trkpt><trkpt lat="43.82566897645317" lon="12.329104189420327"><ele>1077.0</ele><time>2026-05-04T08:16:31Z</time></trkpt><trkpt lat="43.82572235893362" lon="12.328999976829074"><ele>1079.5</ele><time>2026-05-04T08:16:33Z</time></trkpt><trkpt lat="43.82576496854507" lon="12.328931045638331"><ele>1082.0</ele><time>2026-05-04T08:16:34Z</time></trkpt><trkpt lat="43.82584696961371" lon="12.328873702398123"><ele>1084.5</ele><time>2026-05-04T08:16:36Z</time></trkpt><trkpt lat="43.8259014404066" lon="12.328792033623522"><ele>1087.0</ele><time>2026-05-04T08:16:38Z</time></trkpt><trkpt lat="43.82595116603119" lon="12.328667331476513"><ele>1086.6</ele><time>2026-05-04T08:16:41Z</time></trkpt><trkpt lat="43.82598683786113" lon="12.328574163013627"><ele>1086.2</ele><time>2026-05-04T08:16:43Z</time></trkpt><trkpt lat="43.826046900439515" lon="12.328531030577622"><ele>1085.8</ele><time>2026-05-04T08:16:53Z</time></trkpt><trkpt lat="43.826107898233346" lon="12.328479182351419"><ele>1085.4</ele><time>2026-05-04T08:16:55Z</time></trkpt><trkpt lat="43.82619045795396" lon="12.32837133258112"><ele>1085.0</ele><time>2026-05-04T08:16:57Z</time></trkpt><trkpt lat="43.82627378424892" lon="12.328239042011262"><ele>1085.0</ele><time>2026-05-04T08:16:59Z</time></trkpt><trkpt lat="43.826354090072854" lon="12.328160593742249"><ele>1085.0</ele><time>2026-05-04T08:17:01Z</time></trkpt><trkpt lat="43.826430239730946" lon="12.328140735362505"><ele>1085.0</ele><time>2026-05-04T08:17:07Z</time></trkpt><trkpt lat="43.8264924146457" lon="12.328052624908075"><ele>1085.0</ele><time>2026-05-04T08:17:09Z</time></trkpt><trkpt lat="43.826506202995596" lon="12.327943165020464"><ele>1085.0</ele><time>2026-05-04T08:17:11Z</time></trkpt><trkpt lat="43.82644969563751" lon="12.327844899329445"><ele>1085.0</ele><time>2026-05-04T08:17:13Z</time></trkpt><trkpt lat="43.826410526163336" lon="12.32776130617856"><ele>1088.4</ele><time>2026-05-04T08:17:15Z</time></trkpt><trkpt lat="43.82642590272668" lon="12.327637185581906"><ele>1091.8</ele><time>2026-05-04T08:17:17Z</time></trkpt><trkpt lat="43.82652343559344" lon="12.32759630656655"><ele>1095.2</ele><time>2026-05-04T08:17:19Z</time></trkpt><trkpt lat="43.82657351915494" lon="12.327509577890666"><ele>1098.6</ele><time>2026-05-04T08:17:21Z</time></trkpt><trkpt lat="43.826570468389754" lon="12.327348905958951"><ele>1102.0</ele><time>2026-05-04T08:17:23Z</time></trkpt><trkpt lat="43.82649444149967" lon="12.327279442328985"><ele>1104.8</ele><time>2026-05-04T08:17:25Z</time></trkpt><trkpt lat="43.82643085786066" lon="12.327219039334427"><ele>1107.6</ele><time>2026-05-04T08:17:26Z</time></trkpt><trkpt lat="43.82643761964657" lon="12.327112738772176"><ele>1110.3999999999999</ele><time>2026-05-04T08:17:28Z</time></trkpt><trkpt lat="43.82649670832616" lon="12.327005717028134"><ele>1113.2</ele><time>2026-05-04T08:17:30Z</time></trkpt><trkpt lat="43.82658793274381" lon="12.326895984188337"><ele>1116.0</ele><time>2026-05-04T08:17:32Z</time></trkpt><trkpt lat="43.82662855352383" lon="12.326794853078951"><ele>1116.0</ele><time>2026-05-04T08:17:34Z</time></trkpt><trkpt lat="43.8267035844159" lon="12.326671800263227"><ele>1116.0</ele><time>2026-05-04T08:17:36Z</time></trkpt><trkpt lat="43.82684781002063" lon="12.326479227679554"><ele>1116.0</ele><time>2026-05-04T08:17:39Z</time></trkpt><trkpt lat="43.8269219079411" lon="12.326376210075985"><ele>1116.0</ele><time>2026-05-04T08:17:41Z</time></trkpt><trkpt lat="43.826923333764356" lon="12.326286531622356"><ele>1117.5</ele><time>2026-05-04T08:17:44Z</time></trkpt><trkpt lat="43.826851413832316" lon="12.326279726660529"><ele>1119.0</ele><time>2026-05-04T08:17:52Z</time></trkpt><trkpt lat="43.826800982379424" lon="12.326219144355155"><ele>1120.5</ele><time>2026-05-04T08:17:54Z</time></trkpt><trkpt lat="43.82684124889807" lon="12.326074035774433"><ele>1122.0</ele><time>2026-05-04T08:17:56Z</time></trkpt><trkpt lat="43.82680856515189" lon="12.325964361460683"><ele>1123.5</ele><time>2026-05-04T08:17:58Z</time></trkpt><trkpt lat="43.82669791520317" lon="12.32599421215888"><ele>1125.0</ele><time>2026-05-04T08:18:00Z</time></trkpt><trkpt lat="43.82663942497072" lon="12.326049948244485"><ele>1125.0</ele><time>2026-05-04T08:18:01Z</time></trkpt><trkpt lat="43.82658069362489" lon="12.326100122682943"><ele>1125.0</ele><time>2026-05-04T08:18:02Z</time></trkpt><trkpt lat="43.82649219551991" lon="12.32615030687657"><ele>1125.0</ele><time>2026-05-04T08:18:04Z</time></trkpt><trkpt lat="43.826399061744816" lon="12.326128955805462"><ele>1125.0</ele><time>2026-05-04T08:18:06Z</time></trkpt><trkpt lat="43.82633119636266" lon="12.32602396870519"><ele>1125.0</ele><time>2026-05-04T08:18:08Z</time></trkpt><trkpt lat="43.826338354302436" lon="12.325877502826216"><ele>1125.0</ele><time>2026-05-04T08:18:10Z</time></trkpt><trkpt lat="43.82633381897419" lon="12.32578863280193"><ele>1125.0</ele><time>2026-05-04T08:18:11Z</time></trkpt><trkpt lat="43.82630848513263" lon="12.325707156708665"><ele>1125.0</ele><time>2026-05-04T08:18:12Z</time></trkpt><trkpt lat="43.8262545810326" lon="12.325618429428587"><ele>1125.0</ele><time>2026-05-04T08:18:13Z</time></trkpt><trkpt lat="43.82620961251186" lon="12.325554561337237"><ele>1125.0</ele><time>2026-05-04T08:18:14Z</time></trkpt><trkpt lat="43.82616341230941" lon="12.325469619493617"><ele>1125.0</ele><time>2026-05-04T08:18:15Z</time></trkpt><trkpt lat="43.82611496139476" lon="12.325388559937869"><ele>1125.0</ele><time>2026-05-04T08:18:16Z</time></trkpt><trkpt lat="43.82607091249197" lon="12.32532294811675"><ele>1126.5</ele><time>2026-05-04T08:18:17Z</time></trkpt><trkpt lat="43.8260299254507" lon="12.32523384189608"><ele>1128.0</ele><time>2026-05-04T08:18:18Z</time></trkpt><trkpt lat="43.82599606891911" lon="12.325117373491905"><ele>1129.5</ele><time>2026-05-04T08:18:19Z</time></trkpt><trkpt lat="43.82591862841298" lon="12.324964999117457"><ele>1131.0</ele><time>2026-05-04T08:18:21Z</time></trkpt><trkpt lat="43.825870718623406" lon="12.32490649220507"><ele>1132.5</ele><time>2026-05-04T08:18:22Z</time></trkpt><trkpt lat="43.82582707511798" lon="12.324836559528203"><ele>1134.0</ele><time>2026-05-04T08:18:23Z</time></trkpt><trkpt lat="43.82577045318246" lon="12.324725017387143"><ele>1134.0</ele><time>2026-05-04T08:18:24Z</time></trkpt><trkpt lat="43.8257353817915" lon="12.324636878430463"><ele>1134.0</ele><time>2026-05-04T08:18:25Z</time></trkpt><trkpt lat="43.82570724726247" lon="12.324555865568646"><ele>1134.0</ele><time>2026-05-04T08:18:26Z</time></trkpt><trkpt lat="43.8256719326202" lon="12.324469307615523"><ele>1134.0</ele><time>2026-05-04T08:18:27Z</time></trkpt><trkpt lat="43.825642292846524" lon="12.324375296668391"><ele>1134.0</ele><time>2026-05-04T08:18:28Z</time></trkpt><trkpt lat="43.82559620738161" lon="12.324264681358123"><ele>1134.0</ele><time>2026-05-04T08:18:30Z</time></trkpt><trkpt lat="43.825536617929586" lon="12.324201643770076"><ele>1134.0</ele><time>2026-05-04T08:18:48Z</time></trkpt><trkpt lat="43.82550055488655" lon="12.324094671647153"><ele>1134.0</ele><time>2026-05-04T08:18:50Z</time></trkpt><trkpt lat="43.8254679997748" lon="12.323992760548226"><ele>1134.0</ele><time>2026-05-04T08:18:52Z</time></trkpt><trkpt lat="43.82543337913948" lon="12.323898300340344"><ele>1134.0</ele><time>2026-05-04T08:18:54Z</time></trkpt><trkpt lat="43.82539892339881" lon="12.323815326452229"><ele>1134.0</ele><time>2026-05-04T08:18:56Z</time></trkpt><trkpt lat="43.82534479976673" lon="12.323750070752327"><ele>1134.0</ele><time>2026-05-04T08:20:38Z</time></trkpt><trkpt lat="43.82542559479266" lon="12.323857716560362"><ele>1134.0</ele><time>2026-05-04T08:24:39Z</time></trkpt><trkpt lat="43.825470066178916" lon="12.323973034273855"><ele>1134.0</ele><time>2026-05-04T08:24:42Z</time></trkpt><trkpt lat="43.825470068114136" lon="12.32406722596632"><ele>1134.0</ele><time>2026-05-04T08:24:45Z</time></trkpt><trkpt lat="43.825411253657634" lon="12.324131850043903"><ele>1134.0</ele><time>2026-05-04T08:24:48Z</time></trkpt><trkpt lat="43.825354899056045" lon="12.324089005998157"><ele>1134.0</ele><time>2026-05-04T08:25:17Z</time></trkpt><trkpt lat="43.82544177435257" lon="12.324129298937178"><ele>1134.0</ele><time>2026-05-04T08:25:33Z</time></trkpt><trkpt lat="43.82549670753024" lon="12.32417203218132"><ele>1134.0</ele><time>2026-05-04T08:25:35Z</time></trkpt><trkpt lat="43.825559536206505" lon="12.32423530385112"><ele>1134.0</ele><time>2026-05-04T08:25:37Z</time></trkpt><trkpt lat="43.82560647729415" lon="12.324303563569785"><ele>1134.0</ele><time>2026-05-04T08:25:39Z</time></trkpt><trkpt lat="43.82564858661392" lon="12.324372860910513"><ele>1134.0</ele><time>2026-05-04T08:25:41Z</time></trkpt><trkpt lat="43.82568092668875" lon="12.324458053020722"><ele>1134.0</ele><time>2026-05-04T08:25:43Z</time></trkpt><trkpt lat="43.82571755575677" lon="12.324551854863227"><ele>1134.0</ele><time>2026-05-04T08:25:45Z</time></trkpt><trkpt lat="43.82575599614455" lon="12.324652236453927"><ele>1134.0</ele><time>2026-05-04T08:25:47Z</time></trkpt><trkpt lat="43.82580656985991" lon="12.324773613429784"><ele>1135.6000000000001</ele><time>2026-05-04T08:25:49Z</time></trkpt><trkpt lat="43.825862801936296" lon="12.324887343653332"><ele>1137.2</ele><time>2026-05-04T08:25:51Z</time></trkpt><trkpt lat="43.825940955194376" lon="12.324990512943451"><ele>1138.8000000000002</ele><time>2026-05-04T08:25:53Z</time></trkpt><trkpt lat="43.826000416218875" lon="12.325115309562365"><ele>1140.4</ele><time>2026-05-04T08:25:55Z</time></trkpt><trkpt lat="43.82603412938342" lon="12.325189160654945"><ele>1142.0</ele><time>2026-05-04T08:25:56Z</time></trkpt><trkpt lat="43.82608906222782" lon="12.325339456253262"><ele>1138.6</ele><time>2026-05-04T08:25:58Z</time></trkpt><trkpt lat="43.82616056503933" lon="12.32547482500231"><ele>1135.2</ele><time>2026-05-04T08:26:00Z</time></trkpt><trkpt lat="43.826240349147405" lon="12.325590567621376"><ele>1131.8</ele><time>2026-05-04T08:26:02Z</time></trkpt><trkpt lat="43.82627952397681" lon="12.325662632164036"><ele>1128.4</ele><time>2026-05-04T08:26:03Z</time></trkpt><trkpt lat="43.826338359492155" lon="12.325786418533662"><ele>1125.0</ele><time>2026-05-04T08:26:05Z</time></trkpt><trkpt lat="43.82634323980027" lon="12.325875632962703"><ele>1125.0</ele><time>2026-05-04T08:26:06Z</time></trkpt><trkpt lat="43.826363325490256" lon="12.326021571822988"><ele>1125.0</ele><time>2026-05-04T08:26:08Z</time></trkpt><trkpt lat="43.82643072669692" lon="12.32610676414945"><ele>1125.0</ele><time>2026-05-04T08:26:10Z</time></trkpt><trkpt lat="43.82652700549012" lon="12.326087333946196"><ele>1125.0</ele><time>2026-05-04T08:26:12Z</time></trkpt><trkpt lat="43.826619111659895" lon="12.326027914439312"><ele>1125.0</ele><time>2026-05-04T08:26:14Z</time></trkpt><trkpt lat="43.82672028668804" lon="12.325960689524846"><ele>1125.0</ele><time>2026-05-04T08:26:16Z</time></trkpt><trkpt lat="43.82678418842283" lon="12.325935167308296"><ele>1125.0</ele><time>2026-05-04T08:26:18Z</time></trkpt><trkpt lat="43.8268306592376" lon="12.326045955618513"><ele>1125.0</ele><time>2026-05-04T08:26:20Z</time></trkpt><trkpt lat="43.82683363000538" lon="12.326172563025704"><ele>1125.0</ele><time>2026-05-04T08:26:22Z</time></trkpt><trkpt lat="43.82684332592311" lon="12.326288583765177"><ele>1125.0</ele><time>2026-05-04T08:26:24Z</time></trkpt><trkpt lat="43.8269443814131" lon="12.32626370076776"><ele>1125.0</ele><time>2026-05-04T08:26:27Z</time></trkpt><trkpt lat="43.82699944914243" lon="12.3262154062146"><ele>1120.2</ele><time>2026-05-04T08:26:28Z</time></trkpt><trkpt lat="43.82707580778439" lon="12.326140887841385"><ele>1115.4</ele><time>2026-05-04T08:26:30Z</time></trkpt><trkpt lat="43.827158070651606" lon="12.326036814098668"><ele>1110.6</ele><time>2026-05-04T08:26:32Z</time></trkpt><trkpt lat="43.82723165684277" lon="12.325947024283133"><ele>1105.8</ele><time>2026-05-04T08:26:34Z</time></trkpt><trkpt lat="43.82728731114793" lon="12.325866123035464"><ele>1101.0</ele><time>2026-05-04T08:26:36Z</time></trkpt><trkpt lat="43.827304288217896" lon="12.32576167438762"><ele>1101.0</ele><time>2026-05-04T08:26:38Z</time></trkpt><trkpt lat="43.827288011632" lon="12.325618021805573"><ele>1101.0</ele><time>2026-05-04T08:26:40Z</time></trkpt><trkpt lat="43.827228558366485" lon="12.325470435426414"><ele>1101.0</ele><time>2026-05-04T08:26:42Z</time></trkpt><trkpt lat="43.82716520868602" lon="12.325321859731309"><ele>1101.0</ele><time>2026-05-04T08:26:44Z</time></trkpt><trkpt lat="43.82706122086746" lon="12.325219764168121"><ele>1100.6</ele><time>2026-05-04T08:26:46Z</time></trkpt><trkpt lat="43.82694212489472" lon="12.325101313736178"><ele>1100.1999999999998</ele><time>2026-05-04T08:26:48Z</time></trkpt><trkpt lat="43.8268715541865" lon="12.325059012989641"><ele>1099.8000000000002</ele><time>2026-05-04T08:26:49Z</time></trkpt><trkpt lat="43.826794022053775" lon="12.3250057768972"><ele>1099.4</ele><time>2026-05-04T08:26:50Z</time></trkpt><trkpt lat="43.82672029524321" lon="12.324950482982828"><ele>1099.0</ele><time>2026-05-04T08:26:51Z</time></trkpt><trkpt lat="43.82665166263628" lon="12.324903647068156"><ele>1101.1666666666665</ele><time>2026-05-04T08:26:52Z</time></trkpt><trkpt lat="43.826587269665964" lon="12.324846960368804"><ele>1103.3333333333333</ele><time>2026-05-04T08:26:53Z</time></trkpt><trkpt lat="43.826479567689475" lon="12.324730367220857"><ele>1105.5</ele><time>2026-05-04T08:26:55Z</time></trkpt><trkpt lat="43.826428689377984" lon="12.324661749397613"><ele>1107.6666666666667</ele><time>2026-05-04T08:26:56Z</time></trkpt><trkpt lat="43.82637285072803" lon="12.324592630791377"><ele>1109.8333333333335</ele><time>2026-05-04T08:26:57Z</time></trkpt><trkpt lat="43.826313067208076" lon="12.324510237022002"><ele>1112.0</ele><time>2026-05-04T08:26:58Z</time></trkpt><trkpt lat="43.82626398749815" lon="12.324433043148632"><ele>1112.0</ele><time>2026-05-04T08:26:59Z</time></trkpt><trkpt lat="43.826222655703816" lon="12.324347975622175"><ele>1112.0</ele><time>2026-05-04T08:27:00Z</time></trkpt><trkpt lat="43.826179651653526" lon="12.324239290227192"><ele>1112.0</ele><time>2026-05-04T08:27:01Z</time></trkpt><trkpt lat="43.82614372499138" lon="12.324128122307926"><ele>1112.0</ele><time>2026-05-04T08:27:02Z</time></trkpt><trkpt lat="43.82609744942377" lon="12.323992506754252"><ele>1112.0</ele><time>2026-05-04T08:27:03Z</time></trkpt><trkpt lat="43.82605199159576" lon="12.323877503868992"><ele>1112.0</ele><time>2026-05-04T08:27:04Z</time></trkpt><trkpt lat="43.826003174152746" lon="12.323808246278457"><ele>1112.0</ele><time>2026-05-04T08:27:05Z</time></trkpt><trkpt lat="43.82595298264738" lon="12.323680626868288"><ele>1112.0</ele><time>2026-05-04T08:27:07Z</time></trkpt><trkpt lat="43.825893555294066" lon="12.323533736890575"><ele>1112.0</ele><time>2026-05-04T08:27:09Z</time></trkpt><trkpt lat="43.82586997306971" lon="12.323449883396329"><ele>1112.0</ele><time>2026-05-04T08:27:10Z</time></trkpt><trkpt lat="43.825827408185205" lon="12.323359767507958"><ele>1112.0</ele><time>2026-05-04T08:27:11Z</time></trkpt><trkpt lat="43.82578647522158" lon="12.323265956209829"><ele>1111.5</ele><time>2026-05-04T08:27:12Z</time></trkpt><trkpt lat="43.82574580646482" lon="12.323176597377872"><ele>1111.0</ele><time>2026-05-04T08:27:13Z</time></trkpt><trkpt lat="43.82571183617341" lon="12.323090014869978"><ele>1110.5</ele><time>2026-05-04T08:27:14Z</time></trkpt><trkpt lat="43.82567832279581" lon="12.32300088792347"><ele>1110.0</ele><time>2026-05-04T08:27:15Z</time></trkpt><trkpt lat="43.8256407984231" lon="12.322908584012154"><ele>1109.5</ele><time>2026-05-04T08:27:16Z</time></trkpt><trkpt lat="43.825612447043675" lon="12.322813227839273"><ele>1109.0</ele><time>2026-05-04T08:27:17Z</time></trkpt><trkpt lat="43.82556336309154" lon="12.322704574938657"><ele>1108.9999999999998</ele><time>2026-05-04T08:27:18Z</time></trkpt><trkpt lat="43.825518282673954" lon="12.322628322214385"><ele>1109.0</ele><time>2026-05-04T08:27:19Z</time></trkpt><trkpt lat="43.82547045174909" lon="12.322543625264046"><ele>1109.0</ele><time>2026-05-04T08:27:20Z</time></trkpt><trkpt lat="43.825426995908806" lon="12.322462943029066"><ele>1109.0</ele><time>2026-05-04T08:27:21Z</time></trkpt><trkpt lat="43.82539849631084" lon="12.322372375848806"><ele>1109.0</ele><time>2026-05-04T08:27:22Z</time></trkpt><trkpt lat="43.82538448589245" lon="12.322277169166378"><ele>1108.9999999999998</ele><time>2026-05-04T08:27:23Z</time></trkpt><trkpt lat="43.8253812577834" lon="12.322174900303658"><ele>1109.0</ele><time>2026-05-04T08:27:24Z</time></trkpt><trkpt lat="43.825380185600565" lon="12.322080425631293"><ele>1108.8571428571427</ele><time>2026-05-04T08:27:25Z</time></trkpt><trkpt lat="43.8253827144916" lon="12.32198348607055"><ele>1108.7142857142858</ele><time>2026-05-04T08:27:26Z</time></trkpt><trkpt lat="43.82536896947522" lon="12.321874263950349"><ele>1108.5714285714284</ele><time>2026-05-04T08:27:27Z</time></trkpt><trkpt lat="43.8253566871872" lon="12.321774043242485"><ele>1108.4285714285713</ele><time>2026-05-04T08:27:28Z</time></trkpt><trkpt lat="43.825337621729325" lon="12.321674860384745"><ele>1108.2857142857142</ele><time>2026-05-04T08:27:29Z</time></trkpt><trkpt lat="43.82532567323305" lon="12.321577845479112"><ele>1108.142857142857</ele><time>2026-05-04T08:27:30Z</time></trkpt><trkpt lat="43.825313411613735" lon="12.321489564012"><ele>1108.0</ele><time>2026-05-04T08:27:31Z</time></trkpt><trkpt lat="43.82529980369886" lon="12.321400772300771"><ele>1107.4285714285713</ele><time>2026-05-04T08:27:32Z</time></trkpt><trkpt lat="43.82526919178512" lon="12.321306000461929"><ele>1106.8571428571427</ele><time>2026-05-04T08:27:33Z</time></trkpt><trkpt lat="43.82524318266009" lon="12.32121428212228"><ele>1106.2857142857142</ele><time>2026-05-04T08:27:34Z</time></trkpt><trkpt lat="43.825213761877286" lon="12.321134124167877"><ele>1105.7142857142858</ele><time>2026-05-04T08:27:35Z</time></trkpt><trkpt lat="43.825183208794634" lon="12.321054001446138"><ele>1105.1428571428573</ele><time>2026-05-04T08:27:36Z</time></trkpt><trkpt lat="43.82516085908748" lon="12.320963066585804"><ele>1104.5714285714287</ele><time>2026-05-04T08:27:37Z</time></trkpt><trkpt lat="43.825138914243254" lon="12.320881002509719"><ele>1104.0</ele><time>2026-05-04T08:27:38Z</time></trkpt><trkpt lat="43.82511165446145" lon="12.320786957603005"><ele>1104.0</ele><time>2026-05-04T08:27:39Z</time></trkpt><trkpt lat="43.825073577896745" lon="12.320697483839878"><ele>1104.0</ele><time>2026-05-04T08:27:40Z</time></trkpt><trkpt lat="43.82500687923945" lon="12.32053818164578"><ele>1104.0</ele><time>2026-05-04T08:27:42Z</time></trkpt><trkpt lat="43.82498025546683" lon="12.320376605873351"><ele>1104.0</ele><time>2026-05-04T08:27:44Z</time></trkpt><trkpt lat="43.8249922452137" lon="12.320288932726648"><ele>1104.0</ele><time>2026-05-04T08:27:45Z</time></trkpt><trkpt lat="43.825013472836716" lon="12.32019663243234"><ele>1103.0</ele><time>2026-05-04T08:27:46Z</time></trkpt><trkpt lat="43.825027122416266" lon="12.320101001656655"><ele>1102.0</ele><time>2026-05-04T08:27:47Z</time></trkpt><trkpt lat="43.82502865621772" lon="12.320012381893818"><ele>1101.0</ele><time>2026-05-04T08:27:48Z</time></trkpt><trkpt lat="43.82504550787539" lon="12.319853389734291"><ele>1100.0</ele><time>2026-05-04T08:27:50Z</time></trkpt><trkpt lat="43.8250751270151" lon="12.319708183045183"><ele>1099.0</ele><time>2026-05-04T08:27:52Z</time></trkpt><trkpt lat="43.82508132327002" lon="12.319619628812116"><ele>1098.0</ele><time>2026-05-04T08:27:53Z</time></trkpt><trkpt lat="43.82510420025422" lon="12.319452238977181"><ele>1096.6</ele><time>2026-05-04T08:27:55Z</time></trkpt><trkpt lat="43.825121934462295" lon="12.319294161903503"><ele>1095.1999999999998</ele><time>2026-05-04T08:27:57Z</time></trkpt><trkpt lat="43.82508484704535" lon="12.31912158955042"><ele>1093.8</ele><time>2026-05-04T08:27:59Z</time></trkpt><trkpt lat="43.82509442601993" lon="12.318992114247495"><ele>1092.3999999999999</ele><time>2026-05-04T08:28:01Z</time></trkpt><trkpt lat="43.825191964335765" lon="12.318987030821816"><ele>1091.0</ele><time>2026-05-04T08:28:03Z</time></trkpt><trkpt lat="43.82531853957043" lon="12.319043205651672"><ele>1088.3333333333335</ele><time>2026-05-04T08:28:05Z</time></trkpt><trkpt lat="43.825405361384874" lon="12.318996840983052"><ele>1085.6666666666667</ele><time>2026-05-04T08:28:07Z</time></trkpt><trkpt lat="43.82542348126189" lon="12.318912022907764"><ele>1083.0</ele><time>2026-05-04T08:28:08Z</time></trkpt><trkpt lat="43.82536646649259" lon="12.318756460406785"><ele>1080.3333333333333</ele><time>2026-05-04T08:28:10Z</time></trkpt><trkpt lat="43.82531197138428" lon="12.318701535537041"><ele>1077.6666666666665</ele><time>2026-05-04T08:28:11Z</time></trkpt><trkpt lat="43.82524576647132" lon="12.318647782160102"><ele>1075.0</ele><time>2026-05-04T08:28:12Z</time></trkpt><trkpt lat="43.825175716530865" lon="12.318591883967304"><ele>1073.8333333333333</ele><time>2026-05-04T08:28:13Z</time></trkpt><trkpt lat="43.82509816957292" lon="12.318514346181027"><ele>1072.6666666666665</ele><time>2026-05-04T08:28:14Z</time></trkpt><trkpt lat="43.82502686521561" lon="12.318428938958641"><ele>1071.5</ele><time>2026-05-04T08:28:15Z</time></trkpt><trkpt lat="43.82495693640145" lon="12.318369268665995"><ele>1070.3333333333333</ele><time>2026-05-04T08:28:16Z</time></trkpt><trkpt lat="43.82489944984094" lon="12.318305720343265"><ele>1069.1666666666667</ele><time>2026-05-04T08:28:17Z</time></trkpt><trkpt lat="43.82484721063987" lon="12.3182542674645"><ele>1068.0</ele><time>2026-05-04T08:28:18Z</time></trkpt><trkpt lat="43.8247704907437" lon="12.318226410288107"><ele>1068.0</ele><time>2026-05-04T08:28:19Z</time></trkpt><trkpt lat="43.82469422202824" lon="12.318170894918476"><ele>1068.0</ele><time>2026-05-04T08:28:20Z</time></trkpt><trkpt lat="43.824573941506834" lon="12.318098169602564"><ele>1068.0</ele><time>2026-05-04T08:28:22Z</time></trkpt><trkpt lat="43.824506640254135" lon="12.318049203737623"><ele>1068.0</ele><time>2026-05-04T08:28:23Z</time></trkpt><trkpt lat="43.824453860031646" lon="12.317991011711852"><ele>1068.0</ele><time>2026-05-04T08:28:24Z</time></trkpt><trkpt lat="43.82436649265296" lon="12.317936673850399"><ele>1065.6</ele><time>2026-05-04T08:28:25Z</time></trkpt><trkpt lat="43.82429337458408" lon="12.317841701852657"><ele>1063.1999999999998</ele><time>2026-05-04T08:28:26Z</time></trkpt><trkpt lat="43.82421565993545" lon="12.31776424486778"><ele>1060.8</ele><time>2026-05-04T08:28:27Z</time></trkpt><trkpt lat="43.8241645898874" lon="12.317688561571495"><ele>1058.3999999999999</ele><time>2026-05-04T08:28:28Z</time></trkpt><trkpt lat="43.82410986356548" lon="12.317599267354522"><ele>1056.0</ele><time>2026-05-04T08:28:29Z</time></trkpt><trkpt lat="43.82404767665638" lon="12.317492741422694"><ele>1056.0</ele><time>2026-05-04T08:28:30Z</time></trkpt><trkpt lat="43.82398304952439" lon="12.317402948709473"><ele>1056.0</ele><time>2026-05-04T08:28:31Z</time></trkpt><trkpt lat="43.82392286371206" lon="12.317306737727185"><ele>1056.0</ele><time>2026-05-04T08:28:32Z</time></trkpt><trkpt lat="43.823876960343796" lon="12.317214323860664"><ele>1056.0</ele><time>2026-05-04T08:28:33Z</time></trkpt><trkpt lat="43.823847699009285" lon="12.31710867728326"><ele>1056.0</ele><time>2026-05-04T08:28:34Z</time></trkpt><trkpt lat="43.82384232347756" lon="12.31698397623186"><ele>1056.0</ele><time>2026-05-04T08:28:35Z</time></trkpt><trkpt lat="43.823842770327424" lon="12.316848471623402"><ele>1053.2</ele><time>2026-05-04T08:28:36Z</time></trkpt><trkpt lat="43.82383624296818" lon="12.316713401973589"><ele>1050.3999999999999</ele><time>2026-05-04T08:28:37Z</time></trkpt><trkpt lat="43.82384546542491" lon="12.316579454978223"><ele>1047.6</ele><time>2026-05-04T08:28:38Z</time></trkpt><trkpt lat="43.82385813142676" lon="12.31645083463635"><ele>1044.8</ele><time>2026-05-04T08:28:39Z</time></trkpt><trkpt lat="43.82386804705453" lon="12.31632235456855"><ele>1042.0</ele><time>2026-05-04T08:28:40Z</time></trkpt><trkpt lat="43.82387342489135" lon="12.316209844269236"><ele>1040.0</ele><time>2026-05-04T08:28:41Z</time></trkpt><trkpt lat="43.823865830184666" lon="12.316098989735858"><ele>1038.0</ele><time>2026-05-04T08:28:42Z</time></trkpt><trkpt lat="43.823866775385916" lon="12.315971395786812"><ele>1036.0</ele><time>2026-05-04T08:28:43Z</time></trkpt><trkpt lat="43.82386212173694" lon="12.31586317092852"><ele>1034.0</ele><time>2026-05-04T08:28:44Z</time></trkpt><trkpt lat="43.82386436719221" lon="12.31575818175348"><ele>1032.0</ele><time>2026-05-04T08:28:45Z</time></trkpt><trkpt lat="43.82383834472569" lon="12.315637168869323"><ele>1030.0</ele><time>2026-05-04T08:28:47Z</time></trkpt><trkpt lat="43.823767985294154" lon="12.31561774339834"><ele>1030.0</ele><time>2026-05-04T08:28:48Z</time></trkpt><trkpt lat="43.82367835754729" lon="12.315612149223712"><ele>1030.0</ele><time>2026-05-04T08:28:49Z</time></trkpt><trkpt lat="43.82357114602309" lon="12.315605515676895"><ele>1030.0</ele><time>2026-05-04T08:28:50Z</time></trkpt><trkpt lat="43.82348055355778" lon="12.31560453070984"><ele>1030.0</ele><time>2026-05-04T08:28:51Z</time></trkpt><trkpt lat="43.82340403356397" lon="12.31554415988385"><ele>1030.0</ele><time>2026-05-04T08:28:52Z</time></trkpt><trkpt lat="43.82332768044077" lon="12.315442367251082"><ele>1030.2</ele><time>2026-05-04T08:28:53Z</time></trkpt><trkpt lat="43.8232472822978" lon="12.315337616324125"><ele>1030.4</ele><time>2026-05-04T08:28:54Z</time></trkpt><trkpt lat="43.82318735351341" lon="12.31524949224148"><ele>1030.6</ele><time>2026-05-04T08:28:55Z</time></trkpt><trkpt lat="43.82310313503182" lon="12.315176913474595"><ele>1030.8</ele><time>2026-05-04T08:28:56Z</time></trkpt><trkpt lat="43.82302227884516" lon="12.315132210053013"><ele>1031.0</ele><time>2026-05-04T08:28:57Z</time></trkpt><trkpt lat="43.82291394089049" lon="12.315099093591666"><ele>1031.0</ele><time>2026-05-04T08:28:58Z</time></trkpt><trkpt lat="43.82280617737309" lon="12.315088479790644"><ele>1031.0</ele><time>2026-05-04T08:28:59Z</time></trkpt><trkpt lat="43.82271328185752" lon="12.315063847414983"><ele>1031.0</ele><time>2026-05-04T08:29:00Z</time></trkpt><trkpt lat="43.822625211540405" lon="12.315045819109221"><ele>1031.0</ele><time>2026-05-04T08:29:01Z</time></trkpt><trkpt lat="43.82254304123083" lon="12.31504167076696"><ele>1031.0</ele><time>2026-05-04T08:29:02Z</time></trkpt><trkpt lat="43.822449521965595" lon="12.315034681339672"><ele>1032.3333333333335</ele><time>2026-05-04T08:29:03Z</time></trkpt><trkpt lat="43.82236174817002" lon="12.315013029636996"><ele>1033.6666666666667</ele><time>2026-05-04T08:29:04Z</time></trkpt><trkpt lat="43.82227044067154" lon="12.31499492505485"><ele>1035.0</ele><time>2026-05-04T08:29:05Z</time></trkpt><trkpt lat="43.822192204899764" lon="12.314993896953057"><ele>1036.3333333333333</ele><time>2026-05-04T08:29:06Z</time></trkpt><trkpt lat="43.8221125348554" lon="12.315011509044668"><ele>1037.6666666666665</ele><time>2026-05-04T08:29:07Z</time></trkpt><trkpt lat="43.82202467785922" lon="12.315052357475754"><ele>1039.0</ele><time>2026-05-04T08:29:08Z</time></trkpt><trkpt lat="43.821921458781645" lon="12.315108397796307"><ele>1039.0</ele><time>2026-05-04T08:29:09Z</time></trkpt><trkpt lat="43.82184209053922" lon="12.315131978717728"><ele>1039.0</ele><time>2026-05-04T08:29:10Z</time></trkpt><trkpt lat="43.821758080030285" lon="12.315157298172556"><ele>1039.0</ele><time>2026-05-04T08:29:11Z</time></trkpt><trkpt lat="43.82167561182418" lon="12.31516270887587"><ele>1039.0</ele><time>2026-05-04T08:29:12Z</time></trkpt><trkpt lat="43.821599232096226" lon="12.315150964106172"><ele>1039.0</ele><time>2026-05-04T08:29:13Z</time></trkpt><trkpt lat="43.82150944883179" lon="12.315102904952841"><ele>1039.0</ele><time>2026-05-04T08:29:14Z</time></trkpt><trkpt lat="43.821434149492795" lon="12.315031104168291"><ele>1038.4</ele><time>2026-05-04T08:29:15Z</time></trkpt><trkpt lat="43.82136260468784" lon="12.314986710865744"><ele>1037.8000000000002</ele><time>2026-05-04T08:29:16Z</time></trkpt><trkpt lat="43.82127463741751" lon="12.314957480727998"><ele>1037.1999999999998</ele><time>2026-05-04T08:29:17Z</time></trkpt><trkpt lat="43.82119237869114" lon="12.314910550128168"><ele>1036.6</ele><time>2026-05-04T08:29:18Z</time></trkpt><trkpt lat="43.82111197399096" lon="12.314883512412212"><ele>1036.0</ele><time>2026-05-04T08:29:19Z</time></trkpt><trkpt lat="43.821011331662426" lon="12.314817099393297"><ele>1035.0</ele><time>2026-05-04T08:29:20Z</time></trkpt><trkpt lat="43.82090650823721" lon="12.31473027792149"><ele>1034.0</ele><time>2026-05-04T08:29:21Z</time></trkpt><trkpt lat="43.820817998192965" lon="12.314649291509218"><ele>1033.0</ele><time>2026-05-04T08:29:22Z</time></trkpt><trkpt lat="43.82073088782143" lon="12.314585657701896"><ele>1032.0</ele><time>2026-05-04T08:29:23Z</time></trkpt><trkpt lat="43.82065529148916" lon="12.314516064507767"><ele>1031.0</ele><time>2026-05-04T08:29:24Z</time></trkpt><trkpt lat="43.820576614326384" lon="12.314430427845787"><ele>1031.0</ele><time>2026-05-04T08:29:25Z</time></trkpt><trkpt lat="43.82051275104523" lon="12.314351624627925"><ele>1031.0</ele><time>2026-05-04T08:29:26Z</time></trkpt><trkpt lat="43.82045632109703" lon="12.31426126227171"><ele>1031.0</ele><time>2026-05-04T08:29:27Z</time></trkpt><trkpt lat="43.82031664796779" lon="12.314071824846584"><ele>1031.0</ele><time>2026-05-04T08:29:29Z</time></trkpt><trkpt lat="43.82024339745641" lon="12.314000545909487"><ele>1031.0</ele><time>2026-05-04T08:29:30Z</time></trkpt><trkpt lat="43.82016026327388" lon="12.313944178549217"><ele>1031.0</ele><time>2026-05-04T08:29:31Z</time></trkpt><trkpt lat="43.82008430868967" lon="12.313894855059"><ele>1031.0</ele><time>2026-05-04T08:29:32Z</time></trkpt><trkpt lat="43.81994505744161" lon="12.313882246682608"><ele>1031.0</ele><time>2026-05-04T08:29:34Z</time></trkpt><trkpt lat="43.81984320211928" lon="12.313913963215619"><ele>1031.0</ele><time>2026-05-04T08:29:35Z</time></trkpt><trkpt lat="43.81975381440216" lon="12.313908205681956"><ele>1026.3999999999999</ele><time>2026-05-04T08:29:36Z</time></trkpt><trkpt lat="43.8196779422753" lon="12.313830338221436"><ele>1021.8</ele><time>2026-05-04T08:29:37Z</time></trkpt><trkpt lat="43.81959982603892" lon="12.313722921828964"><ele>1017.1999999999999</ele><time>2026-05-04T08:29:38Z</time></trkpt><trkpt lat="43.81951905038749" lon="12.313627173535963"><ele>1012.5999999999999</ele><time>2026-05-04T08:29:39Z</time></trkpt><trkpt lat="43.819432283010485" lon="12.313567532422798"><ele>1008.0</ele><time>2026-05-04T08:29:40Z</time></trkpt><trkpt lat="43.819350216803095" lon="12.313508679717605"><ele>1006.8333333333334</ele><time>2026-05-04T08:29:41Z</time></trkpt><trkpt lat="43.81929642325801" lon="12.313435420743092"><ele>1005.6666666666667</ele><time>2026-05-04T08:29:42Z</time></trkpt><trkpt lat="43.819242057257135" lon="12.313332808425898"><ele>1004.5</ele><time>2026-05-04T08:29:43Z</time></trkpt><trkpt lat="43.81921245346688" lon="12.31320841464896"><ele>1003.3333333333334</ele><time>2026-05-04T08:29:44Z</time></trkpt><trkpt lat="43.81918725216784" lon="12.313128067999536"><ele>1002.1666666666667</ele><time>2026-05-04T08:29:45Z</time></trkpt><trkpt lat="43.81913091392406" lon="12.31306311761457"><ele>1001.0</ele><time>2026-05-04T08:29:47Z</time></trkpt><trkpt lat="43.819073286974024" lon="12.313022690331511"><ele>998.2857142857142</ele><time>2026-05-04T08:29:48Z</time></trkpt><trkpt lat="43.81901507593064" lon="12.312972375013635"><ele>995.5714285714286</ele><time>2026-05-04T08:29:49Z</time></trkpt><trkpt lat="43.81894662246874" lon="12.31293346813662"><ele>992.8571428571429</ele><time>2026-05-04T08:29:50Z</time></trkpt><trkpt lat="43.818896345163765" lon="12.31288006929941"><ele>990.1428571428571</ele><time>2026-05-04T08:29:51Z</time></trkpt><trkpt lat="43.81884576517925" lon="12.31280309351993"><ele>987.4285714285713</ele><time>2026-05-04T08:29:52Z</time></trkpt><trkpt lat="43.81880582571556" lon="12.31270984136712"><ele>984.7142857142857</ele><time>2026-05-04T08:29:53Z</time></trkpt><trkpt lat="43.81880334631743" lon="12.312620128513183"><ele>982.0</ele><time>2026-05-04T08:29:54Z</time></trkpt><trkpt lat="43.81880156055161" lon="12.312522460797833"><ele>981.9999999999999</ele><time>2026-05-04T08:29:55Z</time></trkpt><trkpt lat="43.818846420183306" lon="12.312428714768378"><ele>982.0</ele><time>2026-05-04T08:29:56Z</time></trkpt><trkpt lat="43.81888740679343" lon="12.312292859782987"><ele>982.0</ele><time>2026-05-04T08:29:57Z</time></trkpt><trkpt lat="43.81893699685375" lon="12.31219371949808"><ele>982.0</ele><time>2026-05-04T08:29:58Z</time></trkpt><trkpt lat="43.81898415586272" lon="12.312087113304685"><ele>981.9999999999999</ele><time>2026-05-04T08:29:59Z</time></trkpt><trkpt lat="43.81901269189758" lon="12.311977587041195"><ele>982.0</ele><time>2026-05-04T08:30:00Z</time></trkpt><trkpt lat="43.81899652832236" lon="12.311848325608981"><ele>978.8</ele><time>2026-05-04T08:30:01Z</time></trkpt><trkpt lat="43.818970035850555" lon="12.311713337424125"><ele>975.6</ele><time>2026-05-04T08:30:02Z</time></trkpt><trkpt lat="43.81890396931313" lon="12.311597360506969"><ele>972.3999999999999</ele><time>2026-05-04T08:30:03Z</time></trkpt><trkpt lat="43.81884683628101" lon="12.311481370806344"><ele>969.1999999999999</ele><time>2026-05-04T08:30:04Z</time></trkpt><trkpt lat="43.81879323429715" lon="12.311352756993248"><ele>966.0</ele><time>2026-05-04T08:30:05Z</time></trkpt><trkpt lat="43.81876253464265" lon="12.31122818574776"><ele>964.1428571428571</ele><time>2026-05-04T08:30:06Z</time></trkpt><trkpt lat="43.81872070457405" lon="12.311120237210268"><ele>962.2857142857142</ele><time>2026-05-04T08:30:07Z</time></trkpt><trkpt lat="43.81867994861935" lon="12.311038624795213"><ele>960.4285714285714</ele><time>2026-05-04T08:30:08Z</time></trkpt><trkpt lat="43.818645337354404" lon="12.310947409001756"><ele>958.5714285714286</ele><time>2026-05-04T08:30:09Z</time></trkpt><trkpt lat="43.818615365663675" lon="12.310848099311931"><ele>956.7142857142857</ele><time>2026-05-04T08:30:10Z</time></trkpt><trkpt lat="43.81861575739271" lon="12.310749183309325"><ele>954.8571428571429</ele><time>2026-05-04T08:30:11Z</time></trkpt><trkpt lat="43.81862984484001" lon="12.310662626207165"><ele>953.0</ele><time>2026-05-04T08:30:12Z</time></trkpt><trkpt lat="43.818673514242775" lon="12.310584448308902"><ele>953.0000000000001</ele><time>2026-05-04T08:30:13Z</time></trkpt><trkpt lat="43.81875316411079" lon="12.310575799760898"><ele>953.0</ele><time>2026-05-04T08:30:15Z</time></trkpt><trkpt lat="43.818845354424745" lon="12.310644589239516"><ele>953.0</ele><time>2026-05-04T08:30:18Z</time></trkpt><trkpt lat="43.81890377028414" lon="12.310710186662241"><ele>953.0</ele><time>2026-05-04T08:30:19Z</time></trkpt><trkpt lat="43.81897121158113" lon="12.310763447493452"><ele>953.0000000000001</ele><time>2026-05-04T08:30:20Z</time></trkpt><trkpt lat="43.819035513221166" lon="12.310812441909473"><ele>953.0</ele><time>2026-05-04T08:30:21Z</time></trkpt><trkpt lat="43.819094239712" lon="12.31087432988434"><ele>953.0000000000001</ele><time>2026-05-04T08:30:22Z</time></trkpt><trkpt lat="43.819140850695916" lon="12.310959710033488"><ele>953.0</ele><time>2026-05-04T08:30:23Z</time></trkpt><trkpt lat="43.819196783252714" lon="12.311078089606129"><ele>953.0</ele><time>2026-05-04T08:30:24Z</time></trkpt><trkpt lat="43.819248618596134" lon="12.311202813853914"><ele>953.0</ele><time>2026-05-04T08:30:25Z</time></trkpt><trkpt lat="43.81929106337012" lon="12.311277480035157"><ele>953.0000000000001</ele><time>2026-05-04T08:30:26Z</time></trkpt><trkpt lat="43.81935706481879" lon="12.311345802228162"><ele>953.0</ele><time>2026-05-04T08:30:27Z</time></trkpt><trkpt lat="43.819419250631846" lon="12.311373230822628"><ele>951.5999999999999</ele><time>2026-05-04T08:30:28Z</time></trkpt><trkpt lat="43.81948564774095" lon="12.31135025370962"><ele>950.1999999999999</ele><time>2026-05-04T08:30:29Z</time></trkpt><trkpt lat="43.81955244906945" lon="12.311280374718695"><ele>948.8</ele><time>2026-05-04T08:30:30Z</time></trkpt><trkpt lat="43.81961791814572" lon="12.311160218473166"><ele>947.4</ele><time>2026-05-04T08:30:31Z</time></trkpt><trkpt lat="43.819691260857766" lon="12.311028300989712"><ele>946.0</ele><time>2026-05-04T08:30:32Z</time></trkpt><trkpt lat="43.81977932882424" lon="12.31091162238535"><ele>946.0</ele><time>2026-05-04T08:30:33Z</time></trkpt><trkpt lat="43.81984705842991" lon="12.310795240213988"><ele>945.9999999999999</ele><time>2026-05-04T08:30:34Z</time></trkpt><trkpt lat="43.81989419532314" lon="12.310694213386506"><ele>945.9999999999999</ele><time>2026-05-04T08:30:35Z</time></trkpt><trkpt lat="43.819937532685884" lon="12.310596612308602"><ele>946.0</ele><time>2026-05-04T08:30:36Z</time></trkpt><trkpt lat="43.819992098827754" lon="12.310523675740765"><ele>946.0</ele><time>2026-05-04T08:30:37Z</time></trkpt><trkpt lat="43.82007817019426" lon="12.310403052222211"><ele>941.6666666666666</ele><time>2026-05-04T08:30:39Z</time></trkpt><trkpt lat="43.82014134528721" lon="12.310359833575975"><ele>937.3333333333333</ele><time>2026-05-04T08:30:40Z</time></trkpt><trkpt lat="43.820209939391646" lon="12.310351384890051"><ele>933.0</ele><time>2026-05-04T08:30:41Z</time></trkpt><trkpt lat="43.82027397709942" lon="12.310348654916734"><ele>928.6666666666667</ele><time>2026-05-04T08:30:42Z</time></trkpt><trkpt lat="43.82038039736196" lon="12.310273846773892"><ele>924.3333333333334</ele><time>2026-05-04T08:30:44Z</time></trkpt><trkpt lat="43.82045327243373" lon="12.310150284395338"><ele>920.0</ele><time>2026-05-04T08:30:46Z</time></trkpt><trkpt lat="43.82048836926866" lon="12.310062796238503"><ele>920.0000000000001</ele><time>2026-05-04T08:30:47Z</time></trkpt><trkpt lat="43.820513323797776" lon="12.309979771968688"><ele>920.0</ele><time>2026-05-04T08:30:48Z</time></trkpt><trkpt lat="43.820568646253335" lon="12.309899469746705"><ele>920.0</ele><time>2026-05-04T08:30:50Z</time></trkpt><trkpt lat="43.82067490631687" lon="12.309837324386411"><ele>920.0</ele><time>2026-05-04T08:30:59Z</time></trkpt><trkpt lat="43.82074347517046" lon="12.309815933624654"><ele>920.0000000000001</ele><time>2026-05-04T08:31:00Z</time></trkpt><trkpt lat="43.82080789857859" lon="12.309799137402967"><ele>920.0</ele><time>2026-05-04T08:31:01Z</time></trkpt><trkpt lat="43.82087857936916" lon="12.30977697766422"><ele>920.0000000000001</ele><time>2026-05-04T08:31:02Z</time></trkpt><trkpt lat="43.82095251503296" lon="12.309765912445"><ele>920.0</ele><time>2026-05-04T08:31:03Z</time></trkpt><trkpt lat="43.82101834580832" lon="12.30974971267376"><ele>920.0</ele><time>2026-05-04T08:31:04Z</time></trkpt><trkpt lat="43.82111395346865" lon="12.309687582495686"><ele>920.0</ele><time>2026-05-04T08:31:06Z</time></trkpt><trkpt lat="43.821159134835085" lon="12.309624550160093"><ele>920.0000000000001</ele><time>2026-05-04T08:31:15Z</time></trkpt><trkpt lat="43.821199898892125" lon="12.309531781875267"><ele>920.0</ele><time>2026-05-04T08:31:19Z</time></trkpt><trkpt lat="43.82127160448821" lon="12.309542609356686"><ele>915.5000000000001</ele><time>2026-05-04T08:31:30Z</time></trkpt><trkpt lat="43.82136472228301" lon="12.309527425566975"><ele>911.0</ele><time>2026-05-04T08:31:32Z</time></trkpt><trkpt lat="43.82144181589691" lon="12.30949957557716"><ele>906.5</ele><time>2026-05-04T08:31:34Z</time></trkpt><trkpt lat="43.821506715616" lon="12.309455901401977"><ele>902.0</ele><time>2026-05-04T08:31:40Z</time></trkpt><trkpt lat="43.82141436556797" lon="12.309351720267856"><ele>897.5000000000001</ele><time>2026-05-04T08:31:44Z</time></trkpt><trkpt lat="43.82134998360146" lon="12.309331173168577"><ele>893.0</ele><time>2026-05-04T08:31:45Z</time></trkpt><trkpt lat="43.82125911519405" lon="12.309264327784637"><ele>893.0000000000001</ele><time>2026-05-04T08:31:47Z</time></trkpt><trkpt lat="43.821215179437516" lon="12.309185116475991"><ele>893.0</ele><time>2026-05-04T08:31:48Z</time></trkpt><trkpt lat="43.82113769003509" lon="12.30907588050718"><ele>893.0</ele><time>2026-05-04T08:31:50Z</time></trkpt><trkpt lat="43.82104881780697" lon="12.309044784438104"><ele>893.0</ele><time>2026-05-04T08:31:52Z</time></trkpt><trkpt lat="43.8209710432286" lon="12.309028164747609"><ele>893.0000000000001</ele><time>2026-05-04T08:31:54Z</time></trkpt><trkpt lat="43.82091568883805" lon="12.308973862421174"><ele>893.0</ele><time>2026-05-04T08:31:57Z</time></trkpt><trkpt lat="43.82095422111" lon="12.308898272745463"><ele>889.6666666666667</ele><time>2026-05-04T08:32:07Z</time></trkpt><trkpt lat="43.82098643032905" lon="12.308816582535385"><ele>886.3333333333334</ele><time>2026-05-04T08:32:09Z</time></trkpt><trkpt lat="43.8209911619907" lon="12.308688750405388"><ele>883.0</ele><time>2026-05-04T08:32:12Z</time></trkpt><trkpt lat="43.820989405609375" lon="12.308599549027754"><ele>879.6666666666667</ele><time>2026-05-04T08:32:15Z</time></trkpt><trkpt lat="43.820998771514134" lon="12.308500185872346"><ele>876.3333333333334</ele><time>2026-05-04T08:32:17Z</time></trkpt><trkpt lat="43.82102401957799" lon="12.308387050881944"><ele>873.0</ele><time>2026-05-04T08:32:19Z</time></trkpt><trkpt lat="43.821040710326315" lon="12.308272506983567"><ele>873.0</ele><time>2026-05-04T08:32:22Z</time></trkpt><trkpt lat="43.82107834266179" lon="12.308169004403581"><ele>873.0</ele><time>2026-05-04T08:32:25Z</time></trkpt><trkpt lat="43.82111218364068" lon="12.308071197828772"><ele>873.0</ele><time>2026-05-04T08:32:27Z</time></trkpt><trkpt lat="43.82114765774558" lon="12.307986448230443"><ele>873.0</ele><time>2026-05-04T08:32:29Z</time></trkpt><trkpt lat="43.82120609212148" lon="12.307921285673208"><ele>873.0</ele><time>2026-05-04T08:32:31Z</time></trkpt><trkpt lat="43.82124401272916" lon="12.307834794364632"><ele>873.0</ele><time>2026-05-04T08:32:33Z</time></trkpt><trkpt lat="43.821328478340384" lon="12.30776503705777"><ele>869.2</ele><time>2026-05-04T08:32:36Z</time></trkpt><trkpt lat="43.821387885640554" lon="12.307728736770652"><ele>865.4</ele><time>2026-05-04T08:32:38Z</time></trkpt><trkpt lat="43.82147233010144" lon="12.307692584897547"><ele>861.6000000000001</ele><time>2026-05-04T08:32:40Z</time></trkpt><trkpt lat="43.8215661018632" lon="12.307638332388912"><ele>857.8000000000001</ele><time>2026-05-04T08:32:42Z</time></trkpt><trkpt lat="43.82166409455395" lon="12.307588174950219"><ele>854.0</ele><time>2026-05-04T08:32:45Z</time></trkpt><trkpt lat="43.821749141699584" lon="12.307543727217551"><ele>852.4000000000001</ele><time>2026-05-04T08:32:47Z</time></trkpt><trkpt lat="43.8218324154522" lon="12.307488022199353"><ele>850.8000000000001</ele><time>2026-05-04T08:32:49Z</time></trkpt><trkpt lat="43.82191718055629" lon="12.307465432016455"><ele>849.2</ele><time>2026-05-04T08:32:51Z</time></trkpt><trkpt lat="43.82200966845625" lon="12.30743206100993"><ele>847.5999999999999</ele><time>2026-05-04T08:32:53Z</time></trkpt><trkpt lat="43.82208182258291" lon="12.307359456114952"><ele>846.0</ele><time>2026-05-04T08:32:55Z</time></trkpt><trkpt lat="43.822175029054115" lon="12.307307779988673"><ele>846.0</ele><time>2026-05-04T08:32:57Z</time></trkpt><trkpt lat="43.82224701692664" lon="12.30725287824509"><ele>846.0</ele><time>2026-05-04T08:32:59Z</time></trkpt><trkpt lat="43.822322609263544" lon="12.307237088269996"><ele>846.0</ele><time>2026-05-04T08:33:02Z</time></trkpt><trkpt lat="43.822386590560555" lon="12.307246470740886"><ele>846.0</ele><time>2026-05-04T08:33:04Z</time></trkpt><trkpt lat="43.822470502375296" lon="12.307184566554724"><ele>846.0</ele><time>2026-05-04T08:33:06Z</time></trkpt><trkpt lat="43.822572256043436" lon="12.307093665438812"><ele>846.0</ele><time>2026-05-04T08:33:08Z</time></trkpt><trkpt lat="43.82267531430833" lon="12.307010010110472"><ele>842.0</ele><time>2026-05-04T08:33:10Z</time></trkpt><trkpt lat="43.822763757066504" lon="12.306905299472593"><ele>838.0</ele><time>2026-05-04T08:33:12Z</time></trkpt><trkpt lat="43.82280829857615" lon="12.306834640514683"><ele>834.0</ele><time>2026-05-04T08:33:13Z</time></trkpt><trkpt lat="43.822874254525836" lon="12.306697174148933"><ele>830.0</ele><time>2026-05-04T08:33:15Z</time></trkpt><trkpt lat="43.822929889719155" lon="12.306648168592018"><ele>826.0</ele><time>2026-05-04T08:33:16Z</time></trkpt><trkpt lat="43.823040388987174" lon="12.306538713718433"><ele>825.9999999999999</ele><time>2026-05-04T08:33:18Z</time></trkpt><trkpt lat="43.82310077358228" lon="12.3064748316802"><ele>826.0</ele><time>2026-05-04T08:33:19Z</time></trkpt><trkpt lat="43.823136004276385" lon="12.306383479245667"><ele>826.0</ele><time>2026-05-04T08:33:20Z</time></trkpt><trkpt lat="43.82318705462055" lon="12.306312440464431"><ele>826.0</ele><time>2026-05-04T08:33:21Z</time></trkpt><trkpt lat="43.823263139339375" lon="12.30619666775"><ele>825.9999999999999</ele><time>2026-05-04T08:33:23Z</time></trkpt><trkpt lat="43.8233215343484" lon="12.306138766989699"><ele>826.0</ele><time>2026-05-04T08:33:24Z</time></trkpt><trkpt lat="43.82341813330854" lon="12.306043589358392"><ele>822.9999999999999</ele><time>2026-05-04T08:33:26Z</time></trkpt><trkpt lat="43.82347822764301" lon="12.306008643509736"><ele>820.0</ele><time>2026-05-04T08:33:27Z</time></trkpt><trkpt lat="43.82354319683715" lon="12.305985300933807"><ele>817.0</ele><time>2026-05-04T08:33:28Z</time></trkpt><trkpt lat="43.82360870969906" lon="12.305952867221142"><ele>814.0</ele><time>2026-05-04T08:33:29Z</time></trkpt><trkpt lat="43.82370531577536" lon="12.305902448992166"><ele>810.9999999999999</ele><time>2026-05-04T08:33:31Z</time></trkpt><trkpt lat="43.82379012964612" lon="12.305823408500082"><ele>808.0</ele><time>2026-05-04T08:33:33Z</time></trkpt><trkpt lat="43.82384119326879" lon="12.305739019296238"><ele>807.3333333333333</ele><time>2026-05-04T08:33:35Z</time></trkpt><trkpt lat="43.82383201435444" lon="12.305625695531514"><ele>806.6666666666666</ele><time>2026-05-04T08:33:37Z</time></trkpt><trkpt lat="43.8237641743854" lon="12.30549547458348"><ele>806.0</ele><time>2026-05-04T08:33:39Z</time></trkpt><trkpt lat="43.82371414768259" lon="12.30542880931063"><ele>805.3333333333333</ele><time>2026-05-04T08:33:40Z</time></trkpt><trkpt lat="43.82364722250762" lon="12.305354385492569"><ele>804.6666666666666</ele><time>2026-05-04T08:33:41Z</time></trkpt><trkpt lat="43.82358154825534" lon="12.305271821806674"><ele>804.0</ele><time>2026-05-04T08:33:42Z</time></trkpt><trkpt lat="43.82351800760622" lon="12.30518573562508"><ele>802.8333333333334</ele><time>2026-05-04T08:33:43Z</time></trkpt><trkpt lat="43.82345599974531" lon="12.305097476178915"><ele>801.6666666666667</ele><time>2026-05-04T08:33:44Z</time></trkpt><trkpt lat="43.8234161495291" lon="12.304986912880597"><ele>800.5</ele><time>2026-05-04T08:33:45Z</time></trkpt><trkpt lat="43.823361393141084" lon="12.30488976398625"><ele>799.3333333333334</ele><time>2026-05-04T08:33:46Z</time></trkpt><trkpt lat="43.82334683271643" lon="12.304768215749412"><ele>798.1666666666667</ele><time>2026-05-04T08:33:47Z</time></trkpt><trkpt lat="43.82333978644494" lon="12.304646476882155"><ele>797.0</ele><time>2026-05-04T08:33:48Z</time></trkpt><trkpt lat="43.823318192347664" lon="12.304524404390627"><ele>794.6</ele><time>2026-05-04T08:33:49Z</time></trkpt><trkpt lat="43.8233168104461" lon="12.304393684515858"><ele>792.2</ele><time>2026-05-04T08:33:50Z</time></trkpt><trkpt lat="43.82331131656876" lon="12.304272829806369"><ele>789.8</ele><time>2026-05-04T08:33:51Z</time></trkpt><trkpt lat="43.823332451342885" lon="12.304158303426998"><ele>787.4</ele><time>2026-05-04T08:33:52Z</time></trkpt><trkpt lat="43.823335564064585" lon="12.304037735271722"><ele>785.0</ele><time>2026-05-04T08:33:53Z</time></trkpt><trkpt lat="43.823370536453844" lon="12.30389807226111"><ele>783.2</ele><time>2026-05-04T08:33:54Z</time></trkpt><trkpt lat="43.82339918368537" lon="12.303761646015635"><ele>781.4</ele><time>2026-05-04T08:33:55Z</time></trkpt><trkpt lat="43.82342081526512" lon="12.303631365223676"><ele>779.5999999999999</ele><time>2026-05-04T08:33:56Z</time></trkpt><trkpt lat="43.8234273920577" lon="12.303503636016593"><ele>777.8</ele><time>2026-05-04T08:33:57Z</time></trkpt><trkpt lat="43.82341248745943" lon="12.303380145022146"><ele>776.0</ele><time>2026-05-04T08:33:58Z</time></trkpt><trkpt lat="43.82338093520759" lon="12.30325467450825"><ele>776.0</ele><time>2026-05-04T08:33:59Z</time></trkpt><trkpt lat="43.82334336959606" lon="12.303145526005796"><ele>776.0</ele><time>2026-05-04T08:34:00Z</time></trkpt><trkpt lat="43.82331516937941" lon="12.303021675370118"><ele>776.0</ele><time>2026-05-04T08:34:01Z</time></trkpt><trkpt lat="43.82329388084183" lon="12.302894230996905"><ele>776.0</ele><time>2026-05-04T08:34:02Z</time></trkpt><trkpt lat="43.82328321734695" lon="12.302761042603331"><ele>776.0</ele><time>2026-05-04T08:34:03Z</time></trkpt><trkpt lat="43.82328258795403" lon="12.302624358376459"><ele>775.0000000000001</ele><time>2026-05-04T08:34:04Z</time></trkpt><trkpt lat="43.82327589137079" lon="12.302487637003438"><ele>774.0</ele><time>2026-05-04T08:34:05Z</time></trkpt><trkpt lat="43.82327605334304" lon="12.302365025760738"><ele>773.0</ele><time>2026-05-04T08:34:06Z</time></trkpt><trkpt lat="43.82327736873599" lon="12.302257302082337"><ele>772.0</ele><time>2026-05-04T08:34:07Z</time></trkpt><trkpt lat="43.82326733640445" lon="12.302113921251522"><ele>771.0000000000001</ele><time>2026-05-04T08:34:09Z</time></trkpt><trkpt lat="43.82327639277769" lon="12.302006123287766"><ele>770.0</ele><time>2026-05-04T08:34:13Z</time></trkpt><trkpt lat="43.82314905477564" lon="12.301994814530888"><ele>768.8333333333334</ele><time>2026-05-04T08:34:14Z</time></trkpt><trkpt lat="43.82308065531993" lon="12.30199084525916"><ele>767.6666666666667</ele><time>2026-05-04T08:34:15Z</time></trkpt><trkpt lat="43.822954506777045" lon="12.301992101058355"><ele>766.5</ele><time>2026-05-04T08:34:17Z</time></trkpt><trkpt lat="43.822889984370356" lon="12.302020045772196"><ele>765.3333333333334</ele><time>2026-05-04T08:34:18Z</time></trkpt><trkpt lat="43.82281855526716" lon="12.302048215203147"><ele>764.1666666666667</ele><time>2026-05-04T08:34:19Z</time></trkpt><trkpt lat="43.82274742494923" lon="12.302040521178325"><ele>763.0</ele><time>2026-05-04T08:34:20Z</time></trkpt><trkpt lat="43.8226816877667" lon="12.302066723660504"><ele>762.75</ele><time>2026-05-04T08:34:21Z</time></trkpt><trkpt lat="43.822568883692874" lon="12.302107300250892"><ele>762.5</ele><time>2026-05-04T08:34:23Z</time></trkpt><trkpt lat="43.822440790608276" lon="12.302153376442837"><ele>762.25</ele><time>2026-05-04T08:34:25Z</time></trkpt><trkpt lat="43.82233720083625" lon="12.30204984653058"><ele>762.0</ele><time>2026-05-04T08:34:26Z</time></trkpt><trkpt lat="43.8222528638422" lon="12.302081013217135"><ele>762.0</ele><time>2026-05-04T08:34:27Z</time></trkpt><trkpt lat="43.822167487422966" lon="12.302118116789941"><ele>762.0</ele><time>2026-05-04T08:34:28Z</time></trkpt><trkpt lat="43.822069026234885" lon="12.302161647604008"><ele>762.0</ele><time>2026-05-04T08:34:29Z</time></trkpt><trkpt lat="43.82200069063865" lon="12.302201770905242"><ele>762.0</ele><time>2026-05-04T08:34:30Z</time></trkpt><trkpt lat="43.821919135549216" lon="12.302245524725645"><ele>762.0</ele><time>2026-05-04T08:34:31Z</time></trkpt><trkpt lat="43.821849285419695" lon="12.302270825696212"><ele>762.0</ele><time>2026-05-04T08:34:32Z</time></trkpt><trkpt lat="43.82176400270228" lon="12.30232222291037"><ele>763.0</ele><time>2026-05-04T08:34:33Z</time></trkpt><trkpt lat="43.82167583912616" lon="12.302372444344892"><ele>764.0</ele><time>2026-05-04T08:34:34Z</time></trkpt><trkpt lat="43.821588545501065" lon="12.302420832289318"><ele>765.0</ele><time>2026-05-04T08:34:35Z</time></trkpt><trkpt lat="43.821503152153035" lon="12.302465436217622"><ele>766.0</ele><time>2026-05-04T08:34:36Z</time></trkpt><trkpt lat="43.82142044158493" lon="12.302492925355052"><ele>767.0</ele><time>2026-05-04T08:34:37Z</time></trkpt><trkpt lat="43.82135537638229" lon="12.302497126382665"><ele>768.0</ele><time>2026-05-04T08:34:38Z</time></trkpt><trkpt lat="43.821271608274124" lon="12.302478808130994"><ele>768.0</ele><time>2026-05-04T08:34:39Z</time></trkpt><trkpt lat="43.82117767331635" lon="12.302444595915148"><ele>768.0</ele><time>2026-05-04T08:34:40Z</time></trkpt><trkpt lat="43.8210984688178" lon="12.302386887356265"><ele>768.0</ele><time>2026-05-04T08:34:41Z</time></trkpt><trkpt lat="43.82102818984897" lon="12.302321361260473"><ele>768.0</ele><time>2026-05-04T08:34:42Z</time></trkpt><trkpt lat="43.820956699771024" lon="12.302247545527573"><ele>768.0</ele><time>2026-05-04T08:34:43Z</time></trkpt><trkpt lat="43.82085971869867" lon="12.302187964523947"><ele>767.6666666666666</ele><time>2026-05-04T08:34:45Z</time></trkpt><trkpt lat="43.820772229013045" lon="12.302200795727508"><ele>767.3333333333334</ele><time>2026-05-04T08:34:47Z</time></trkpt><trkpt lat="43.82070607861507" lon="12.302211523465875"><ele>767.0</ele><time>2026-05-04T08:34:49Z</time></trkpt><trkpt lat="43.8206232670709" lon="12.302247616586452"><ele>766.6666666666667</ele><time>2026-05-04T08:34:51Z</time></trkpt><trkpt lat="43.82056564488285" lon="12.302317389709758"><ele>766.3333333333334</ele><time>2026-05-04T08:34:52Z</time></trkpt><trkpt lat="43.820491326457244" lon="12.302419750867745"><ele>766.0</ele><time>2026-05-04T08:34:53Z</time></trkpt><trkpt lat="43.82042962890073" lon="12.302509208069923"><ele>766.0</ele><time>2026-05-04T08:34:54Z</time></trkpt><trkpt lat="43.820363691604236" lon="12.302593289576023"><ele>766.0</ele><time>2026-05-04T08:34:55Z</time></trkpt><trkpt lat="43.82030522141207" lon="12.302664292065021"><ele>766.0</ele><time>2026-05-04T08:34:56Z</time></trkpt><trkpt lat="43.82025427947851" lon="12.302722676906345"><ele>766.0</ele><time>2026-05-04T08:34:57Z</time></trkpt><trkpt lat="43.820194014056405" lon="12.302850033905024"><ele>766.0</ele><time>2026-05-04T08:34:59Z</time></trkpt><trkpt lat="43.82014397215278" lon="12.302982380667354"><ele>764.6666666666667</ele><time>2026-05-04T08:35:01Z</time></trkpt><trkpt lat="43.82006270063826" lon="12.303044642174076"><ele>763.3333333333334</ele><time>2026-05-04T08:35:03Z</time></trkpt><trkpt lat="43.81998103013871" lon="12.303061911340652"><ele>762.0</ele><time>2026-05-04T08:35:05Z</time></trkpt><trkpt lat="43.82004174002869" lon="12.303019015580736"><ele>760.6666666666666</ele><time>2026-05-04T08:35:29Z</time></trkpt><trkpt lat="43.82006041328494" lon="12.302921865614175"><ele>759.3333333333333</ele><time>2026-05-04T08:35:34Z</time></trkpt><trkpt lat="43.82005917985852" lon="12.302801556466523"><ele>758.0</ele><time>2026-05-04T08:35:37Z</time></trkpt><trkpt lat="43.82007086991338" lon="12.30268851975647"><ele>758.0</ele><time>2026-05-04T08:35:39Z</time></trkpt><trkpt lat="43.82007053596602" lon="12.302559690755604"><ele>758.0</ele><time>2026-05-04T08:35:41Z</time></trkpt><trkpt lat="43.82004595066538" lon="12.302469697427375"><ele>758.0</ele><time>2026-05-04T08:35:43Z</time></trkpt><trkpt lat="43.81999699003596" lon="12.302372821105802"><ele>758.0</ele><time>2026-05-04T08:35:45Z</time></trkpt><trkpt lat="43.8199287429729" lon="12.302304907049804"><ele>758.0</ele><time>2026-05-04T08:35:47Z</time></trkpt><trkpt lat="43.819866826667216" lon="12.302210970916812"><ele>758.0</ele><time>2026-05-04T08:35:49Z</time></trkpt><trkpt lat="43.81982370550388" lon="12.302144515357847"><ele>756.2</ele><time>2026-05-04T08:35:50Z</time></trkpt><trkpt lat="43.81974887126732" lon="12.302041977859941"><ele>754.4</ele><time>2026-05-04T08:35:52Z</time></trkpt><trkpt lat="43.81968304052304" lon="12.301969562882608"><ele>752.6</ele><time>2026-05-04T08:35:54Z</time></trkpt><trkpt lat="43.81961606558133" lon="12.301862727675616"><ele>750.8000000000001</ele><time>2026-05-04T08:35:56Z</time></trkpt><trkpt lat="43.81959968840748" lon="12.301706042402603"><ele>749.0</ele><time>2026-05-04T08:35:58Z</time></trkpt><trkpt lat="43.81948442660911" lon="12.301634141156692"><ele>749.0</ele><time>2026-05-04T08:36:00Z</time></trkpt><trkpt lat="43.81942528662819" lon="12.301581858335739"><ele>749.0</ele><time>2026-05-04T08:36:01Z</time></trkpt><trkpt lat="43.81934713773639" lon="12.30146511996964"><ele>749.0</ele><time>2026-05-04T08:36:03Z</time></trkpt><trkpt lat="43.81928622258247" lon="12.301328971652303"><ele>749.0</ele><time>2026-05-04T08:36:05Z</time></trkpt><trkpt lat="43.81926552170541" lon="12.30124245823853"><ele>749.0</ele><time>2026-05-04T08:36:06Z</time></trkpt><trkpt lat="43.81925234647488" lon="12.30114789433571"><ele>749.0</ele><time>2026-05-04T08:36:07Z</time></trkpt><trkpt lat="43.81923425989179" lon="12.301054098576603"><ele>746.3333333333333</ele><time>2026-05-04T08:36:08Z</time></trkpt><trkpt lat="43.819208657669805" lon="12.300953610886081"><ele>743.6666666666666</ele><time>2026-05-04T08:36:09Z</time></trkpt><trkpt lat="43.819183480925226" lon="12.300862860381724"><ele>741.0</ele><time>2026-05-04T08:36:10Z</time></trkpt><trkpt lat="43.81916392735332" lon="12.300777074540672"><ele>738.3333333333334</ele><time>2026-05-04T08:36:11Z</time></trkpt><trkpt lat="43.81912841831425" lon="12.300634206701542"><ele>735.6666666666667</ele><time>2026-05-04T08:36:13Z</time></trkpt><trkpt lat="43.819065565390915" lon="12.300545720068492"><ele>733.0</ele><time>2026-05-04T08:36:15Z</time></trkpt><trkpt lat="43.81899566207434" lon="12.30049048863488"><ele>733.0</ele><time>2026-05-04T08:36:17Z</time></trkpt><trkpt lat="43.81893211778507" lon="12.300457812290638"><ele>733.0</ele><time>2026-05-04T08:36:19Z</time></trkpt><trkpt lat="43.81886632442724" lon="12.300481124065662"><ele>733.0</ele><time>2026-05-04T08:36:22Z</time></trkpt><trkpt lat="43.81880272915188" lon="12.300535561572602"><ele>733.0</ele><time>2026-05-04T08:36:24Z</time></trkpt><trkpt lat="43.818729781063816" lon="12.300618334937418"><ele>733.0</ele><time>2026-05-04T08:36:26Z</time></trkpt><trkpt lat="43.81868093958064" lon="12.300680077523523"><ele>733.0</ele><time>2026-05-04T08:36:27Z</time></trkpt><trkpt lat="43.818608026191995" lon="12.30078194386847"><ele>733.0</ele><time>2026-05-04T08:36:29Z</time></trkpt><trkpt lat="43.818521721021305" lon="12.300808045866525"><ele>733.0</ele><time>2026-05-04T08:36:32Z</time></trkpt><trkpt lat="43.818437534120875" lon="12.300818660803118"><ele>733.0</ele><time>2026-05-04T08:36:34Z</time></trkpt><trkpt lat="43.81833651312585" lon="12.300820473405672"><ele>733.0</ele><time>2026-05-04T08:36:36Z</time></trkpt><trkpt lat="43.818221193663895" lon="12.300829564111321"><ele>733.0</ele><time>2026-05-04T08:36:38Z</time></trkpt><trkpt lat="43.81809604343451" lon="12.300847696723848"><ele>732.6666666666667</ele><time>2026-05-04T08:36:40Z</time></trkpt><trkpt lat="43.81803029492566" lon="12.300853156216053"><ele>732.3333333333334</ele><time>2026-05-04T08:36:41Z</time></trkpt><trkpt lat="43.817958403887104" lon="12.300855983731644"><ele>732.0</ele><time>2026-05-04T08:36:42Z</time></trkpt><trkpt lat="43.81788754760991" lon="12.30085000558753"><ele>731.6666666666666</ele><time>2026-05-04T08:36:43Z</time></trkpt><trkpt lat="43.81777073392648" lon="12.300832585455739"><ele>731.3333333333333</ele><time>2026-05-04T08:36:45Z</time></trkpt><trkpt lat="43.81771005361525" lon="12.300782805788595"><ele>731.0</ele><time>2026-05-04T08:36:46Z</time></trkpt><trkpt lat="43.81764484898308" lon="12.300726220770645"><ele>731.0</ele><time>2026-05-04T08:36:47Z</time></trkpt><trkpt lat="43.81758831345856" lon="12.300675441715384"><ele>731.0</ele><time>2026-05-04T08:36:48Z</time></trkpt><trkpt lat="43.817477084290005" lon="12.300616231356685"><ele>731.0</ele><time>2026-05-04T08:36:50Z</time></trkpt><trkpt lat="43.81741203100337" lon="12.300599711072017"><ele>731.0</ele><time>2026-05-04T08:36:51Z</time></trkpt><trkpt lat="43.8173445990203" lon="12.300589599850452"><ele>731.0</ele><time>2026-05-04T08:36:52Z</time></trkpt><trkpt lat="43.817265940703955" lon="12.300576457587404"><ele>731.0</ele><time>2026-05-04T08:36:53Z</time></trkpt><trkpt lat="43.81720177578217" lon="12.300570102536998"><ele>729.1666666666666</ele><time>2026-05-04T08:36:54Z</time></trkpt><trkpt lat="43.81713741701225" lon="12.300559772701515"><ele>727.3333333333333</ele><time>2026-05-04T08:36:55Z</time></trkpt><trkpt lat="43.81706327069454" lon="12.300515418229356"><ele>725.5</ele><time>2026-05-04T08:36:56Z</time></trkpt><trkpt lat="43.81699145795445" lon="12.30043915983361"><ele>723.6666666666666</ele><time>2026-05-04T08:36:57Z</time></trkpt><trkpt lat="43.816909224373106" lon="12.30036041419166"><ele>721.8333333333334</ele><time>2026-05-04T08:36:58Z</time></trkpt><trkpt lat="43.8168237005339" lon="12.300295292432116"><ele>720.0</ele><time>2026-05-04T08:36:59Z</time></trkpt><trkpt lat="43.816740387520724" lon="12.30024173842876"><ele>720.0</ele><time>2026-05-04T08:37:00Z</time></trkpt><trkpt lat="43.81666680302976" lon="12.300215102117713"><ele>720.0</ele><time>2026-05-04T08:37:01Z</time></trkpt><trkpt lat="43.81659670070748" lon="12.3001925470945"><ele>720.0</ele><time>2026-05-04T08:37:02Z</time></trkpt><trkpt lat="43.816520469721134" lon="12.300192241007911"><ele>720.0</ele><time>2026-05-04T08:37:03Z</time></trkpt><trkpt lat="43.81643602516226" lon="12.300232647997245"><ele>720.0</ele><time>2026-05-04T08:37:04Z</time></trkpt><trkpt lat="43.816359855970965" lon="12.300286746685472"><ele>720.0</ele><time>2026-05-04T08:37:05Z</time></trkpt><trkpt lat="43.816279616096445" lon="12.30031154217687"><ele>720.0</ele><time>2026-05-04T08:37:06Z</time></trkpt><trkpt lat="43.81621512875126" lon="12.30029883973674"><ele>720.0</ele><time>2026-05-04T08:37:07Z</time></trkpt><trkpt lat="43.8161512028435" lon="12.300273640247024"><ele>720.0</ele><time>2026-05-04T08:37:08Z</time></trkpt><trkpt lat="43.81606507074734" lon="12.30030601270456"><ele>720.0</ele><time>2026-05-04T08:37:10Z</time></trkpt><trkpt lat="43.815989670681866" lon="12.300276061292864"><ele>720.0</ele><time>2026-05-04T08:37:12Z</time></trkpt><trkpt lat="43.81593997032" lon="12.300191477855245"><ele>720.0</ele><time>2026-05-04T08:37:14Z</time></trkpt><trkpt lat="43.81591415118456" lon="12.300021008962208"><ele>720.3333333333334</ele><time>2026-05-04T08:37:16Z</time></trkpt><trkpt lat="43.81589932243596" lon="12.299899931320445"><ele>720.6666666666666</ele><time>2026-05-04T08:37:17Z</time></trkpt><trkpt lat="43.81586786554122" lon="12.299814771995834"><ele>721.0</ele><time>2026-05-04T08:37:18Z</time></trkpt><trkpt lat="43.815812884790155" lon="12.299706290152688"><ele>721.3333333333333</ele><time>2026-05-04T08:37:19Z</time></trkpt><trkpt lat="43.81575959722339" lon="12.299594228816757"><ele>721.6666666666666</ele><time>2026-05-04T08:37:20Z</time></trkpt><trkpt lat="43.815720762390946" lon="12.299497080528084"><ele>722.0</ele><time>2026-05-04T08:37:21Z</time></trkpt><trkpt lat="43.815678435411115" lon="12.29942251604461"><ele>722.0</ele><time>2026-05-04T08:37:22Z</time></trkpt><trkpt lat="43.81562331402852" lon="12.299365153801007"><ele>722.0</ele><time>2026-05-04T08:37:23Z</time></trkpt><trkpt lat="43.81552444458671" lon="12.299331256707665"><ele>722.0</ele><time>2026-05-04T08:37:24Z</time></trkpt><trkpt lat="43.815401043262206" lon="12.299292824424647"><ele>722.0</ele><time>2026-05-04T08:37:25Z</time></trkpt><trkpt lat="43.815296124951395" lon="12.299258951068152"><ele>722.0</ele><time>2026-05-04T08:37:26Z</time></trkpt><trkpt lat="43.81521351918955" lon="12.299210623431035"><ele>725.1666666666666</ele><time>2026-05-04T08:37:27Z</time></trkpt><trkpt lat="43.815136108845714" lon="12.29917636222292"><ele>728.3333333333333</ele><time>2026-05-04T08:37:28Z</time></trkpt><trkpt lat="43.815064724907" lon="12.29914475215982"><ele>731.5</ele><time>2026-05-04T08:37:29Z</time></trkpt><trkpt lat="43.814985602773646" lon="12.299122820954155"><ele>734.6666666666666</ele><time>2026-05-04T08:37:30Z</time></trkpt><trkpt lat="43.814909362808955" lon="12.299096148338203"><ele>737.8333333333334</ele><time>2026-05-04T08:37:31Z</time></trkpt><trkpt lat="43.81482698614229" lon="12.29905437432531"><ele>741.0</ele><time>2026-05-04T08:37:32Z</time></trkpt><trkpt lat="43.81473822775077" lon="12.299000578418719"><ele>741.0</ele><time>2026-05-04T08:37:33Z</time></trkpt><trkpt lat="43.81465192608632" lon="12.298925430722296"><ele>741.0</ele><time>2026-05-04T08:37:34Z</time></trkpt><trkpt lat="43.81456938300063" lon="12.298831825210106"><ele>741.0</ele><time>2026-05-04T08:37:35Z</time></trkpt><trkpt lat="43.81449311877653" lon="12.29873159077447"><ele>741.0</ele><time>2026-05-04T08:37:36Z</time></trkpt><trkpt lat="43.81442600743492" lon="12.298625458644185"><ele>741.0</ele><time>2026-05-04T08:37:37Z</time></trkpt><trkpt lat="43.814383839021836" lon="12.298538631681918"><ele>741.3333333333334</ele><time>2026-05-04T08:37:38Z</time></trkpt><trkpt lat="43.814340411300925" lon="12.298443047839978"><ele>741.6666666666666</ele><time>2026-05-04T08:37:39Z</time></trkpt><trkpt lat="43.81429686377392" lon="12.2983693095257"><ele>742.0</ele><time>2026-05-04T08:37:40Z</time></trkpt><trkpt lat="43.814241934889694" lon="12.29824824824093"><ele>742.3333333333333</ele><time>2026-05-04T08:37:42Z</time></trkpt><trkpt lat="43.81419591203472" lon="12.298186136632651"><ele>742.6666666666666</ele><time>2026-05-04T08:37:46Z</time></trkpt><trkpt lat="43.81412628290009" lon="12.298205141242349"><ele>743.0</ele><time>2026-05-04T08:37:48Z</time></trkpt><trkpt lat="43.814036745724934" lon="12.298274835895004"><ele>743.0</ele><time>2026-05-04T08:37:50Z</time></trkpt><trkpt lat="43.813966531768614" lon="12.2983497305457"><ele>743.0</ele><time>2026-05-04T08:37:52Z</time></trkpt><trkpt lat="43.81387912793512" lon="12.298381651409803"><ele>743.0</ele><time>2026-05-04T08:37:54Z</time></trkpt><trkpt lat="43.81381595848374" lon="12.298381460972116"><ele>743.0</ele><time>2026-05-04T08:37:55Z</time></trkpt><trkpt lat="43.81370952506241" lon="12.298376975961437"><ele>743.0</ele><time>2026-05-04T08:37:57Z</time></trkpt><trkpt lat="43.81358824425656" lon="12.29843520105308"><ele>745.1666666666666</ele><time>2026-05-04T08:37:59Z</time></trkpt><trkpt lat="43.81348372372633" lon="12.298509058946296"><ele>747.3333333333333</ele><time>2026-05-04T08:38:01Z</time></trkpt><trkpt lat="43.81343217167675" lon="12.298571267035234"><ele>749.5</ele><time>2026-05-04T08:38:02Z</time></trkpt><trkpt lat="43.813381217714074" lon="12.298646497138678"><ele>751.6666666666666</ele><time>2026-05-04T08:38:03Z</time></trkpt><trkpt lat="43.81333303496116" lon="12.298712815880876"><ele>753.8333333333334</ele><time>2026-05-04T08:38:04Z</time></trkpt><trkpt lat="43.81328011868721" lon="12.298765450369705"><ele>756.0</ele><time>2026-05-04T08:38:05Z</time></trkpt><trkpt lat="43.81321744052849" lon="12.298802225593995"><ele>756.0</ele><time>2026-05-04T08:38:06Z</time></trkpt><trkpt lat="43.81313371103541" lon="12.298863526709411"><ele>756.0</ele><time>2026-05-04T08:38:07Z</time></trkpt><trkpt lat="43.813050298707836" lon="12.298913314340501"><ele>756.0</ele><time>2026-05-04T08:38:08Z</time></trkpt><trkpt lat="43.81294973677656" lon="12.298985396427167"><ele>756.0</ele><time>2026-05-04T08:38:10Z</time></trkpt><trkpt lat="43.81288975245089" lon="12.299046938054426"><ele>756.0</ele><time>2026-05-04T08:38:12Z</time></trkpt><trkpt lat="43.812847181581084" lon="12.299117820379728"><ele>756.0</ele><time>2026-05-04T08:38:13Z</time></trkpt><trkpt lat="43.81276909556662" lon="12.299180551101024"><ele>758.0</ele><time>2026-05-04T08:38:15Z</time></trkpt><trkpt lat="43.81265872094505" lon="12.299271070455267"><ele>760.0</ele><time>2026-05-04T08:38:17Z</time></trkpt><trkpt lat="43.81259877374311" lon="12.299354598056347"><ele>762.0</ele><time>2026-05-04T08:38:18Z</time></trkpt><trkpt lat="43.812523910265554" lon="12.299432184173714"><ele>764.0</ele><time>2026-05-04T08:38:20Z</time></trkpt><trkpt lat="43.812459484697584" lon="12.299499100502933"><ele>766.0</ele><time>2026-05-04T08:38:22Z</time></trkpt><trkpt lat="43.81237617935935" lon="12.29954823264643"><ele>769.0</ele><time>2026-05-04T08:38:24Z</time></trkpt><trkpt lat="43.81231717846597" lon="12.299638374018148"><ele>772.0</ele><time>2026-05-04T08:38:26Z</time></trkpt><trkpt lat="43.812346308269646" lon="12.299534578803694"><ele>775.0</ele><time>2026-05-04T08:40:05Z</time></trkpt><trkpt lat="43.81240677233961" lon="12.299485352996621"><ele>778.0</ele><time>2026-05-04T08:40:09Z</time></trkpt><trkpt lat="43.81251107961662" lon="12.299421390230567"><ele>781.0</ele><time>2026-05-04T08:40:22Z</time></trkpt><trkpt lat="43.81258580436702" lon="12.299323725869282"><ele>778.4999999999999</ele><time>2026-05-04T08:40:24Z</time></trkpt><trkpt lat="43.81266433137581" lon="12.299244601595884"><ele>776.0</ele><time>2026-05-04T08:40:25Z</time></trkpt><trkpt lat="43.81273560652286" lon="12.29917807924445"><ele>773.5</ele><time>2026-05-04T08:40:27Z</time></trkpt><trkpt lat="43.812816701155015" lon="12.299135332932687"><ele>771.0</ele><time>2026-05-04T08:40:29Z</time></trkpt><trkpt lat="43.81286571748808" lon="12.299077391485755"><ele>768.5</ele><time>2026-05-04T08:40:31Z</time></trkpt><trkpt lat="43.81292166709293" lon="12.29902038974642"><ele>766.0</ele><time>2026-05-04T08:40:33Z</time></trkpt><trkpt lat="43.81300400499746" lon="12.298949405567118"><ele>764.0</ele><time>2026-05-04T08:40:35Z</time></trkpt><trkpt lat="43.8130946729503" lon="12.298891613638304"><ele>762.0</ele><time>2026-05-04T08:40:37Z</time></trkpt><trkpt lat="43.81318903520022" lon="12.298826823001546"><ele>760.0</ele><time>2026-05-04T08:40:39Z</time></trkpt><trkpt lat="43.81329957463375" lon="12.298741838594378"><ele>758.0</ele><time>2026-05-04T08:40:41Z</time></trkpt><trkpt lat="43.813383600708875" lon="12.298654452339692"><ele>756.0</ele><time>2026-05-04T08:40:43Z</time></trkpt><trkpt lat="43.813458311220224" lon="12.298551983803588"><ele>753.4</ele><time>2026-05-04T08:40:45Z</time></trkpt><trkpt lat="43.813536780370846" lon="12.298461377702314"><ele>750.8</ele><time>2026-05-04T08:40:47Z</time></trkpt><trkpt lat="43.81362356965424" lon="12.298413122799063"><ele>748.1999999999999</ele><time>2026-05-04T08:40:49Z</time></trkpt><trkpt lat="43.81372977919628" lon="12.298371530234622"><ele>745.5999999999999</ele><time>2026-05-04T08:40:51Z</time></trkpt><trkpt lat="43.81382783516929" lon="12.298366399885664"><ele>743.0</ele><time>2026-05-04T08:40:53Z</time></trkpt><trkpt lat="43.81392448117371" lon="12.298363156153409"><ele>743.0</ele><time>2026-05-04T08:40:55Z</time></trkpt><trkpt lat="43.81401213217963" lon="12.298307407416294"><ele>743.0</ele><time>2026-05-04T08:40:57Z</time></trkpt><trkpt lat="43.814078781152965" lon="12.29824721579883"><ele>743.0</ele><time>2026-05-04T08:40:59Z</time></trkpt><trkpt lat="43.814143798188745" lon="12.298204833326938"><ele>743.0</ele><time>2026-05-04T08:41:01Z</time></trkpt><trkpt lat="43.814211720817305" lon="12.298189207159993"><ele>743.0</ele><time>2026-05-04T08:41:05Z</time></trkpt><trkpt lat="43.81421153470295" lon="12.298061568453873"><ele>743.0</ele><time>2026-05-04T08:41:10Z</time></trkpt><trkpt lat="43.81413348332767" lon="12.297957274990097"><ele>741.8333333333333</ele><time>2026-05-04T08:41:12Z</time></trkpt><trkpt lat="43.81404786281074" lon="12.297876219630245"><ele>740.6666666666666</ele><time>2026-05-04T08:41:14Z</time></trkpt><trkpt lat="43.81394375657191" lon="12.297787876263234"><ele>739.5</ele><time>2026-05-04T08:41:16Z</time></trkpt><trkpt lat="43.81387732672851" lon="12.297740353830157"><ele>738.3333333333334</ele><time>2026-05-04T08:41:17Z</time></trkpt><trkpt lat="43.813817265468906" lon="12.297692754677461"><ele>737.1666666666667</ele><time>2026-05-04T08:41:18Z</time></trkpt><trkpt lat="43.81375098342629" lon="12.297631964243765"><ele>736.0</ele><time>2026-05-04T08:41:19Z</time></trkpt><trkpt lat="43.81367602770889" lon="12.297571104060614"><ele>736.0</ele><time>2026-05-04T08:41:20Z</time></trkpt><trkpt lat="43.81358405584712" lon="12.297474351820066"><ele>736.0</ele><time>2026-05-04T08:41:22Z</time></trkpt><trkpt lat="43.81351323403708" lon="12.297420747259302"><ele>736.0</ele><time>2026-05-04T08:41:24Z</time></trkpt><trkpt lat="43.81345556660724" lon="12.297379144847836"><ele>736.0</ele><time>2026-05-04T08:41:26Z</time></trkpt><trkpt lat="43.81346309277738" lon="12.29725755158298"><ele>736.0</ele><time>2026-05-04T08:41:29Z</time></trkpt><trkpt lat="43.81348839619514" lon="12.297170959668005"><ele>736.0</ele><time>2026-05-04T08:41:31Z</time></trkpt><trkpt lat="43.81345776637184" lon="12.297076068350757"><ele>736.6666666666667</ele><time>2026-05-04T08:41:33Z</time></trkpt><trkpt lat="43.8134507021842" lon="12.296964241660032"><ele>737.3333333333334</ele><time>2026-05-04T08:41:35Z</time></trkpt><trkpt lat="43.81342767486076" lon="12.296848827558726"><ele>738.0</ele><time>2026-05-04T08:41:37Z</time></trkpt><trkpt lat="43.81337155249845" lon="12.296749917708638"><ele>738.6666666666666</ele><time>2026-05-04T08:41:39Z</time></trkpt><trkpt lat="43.81330655903875" lon="12.296675577785921"><ele>739.3333333333333</ele><time>2026-05-04T08:41:41Z</time></trkpt><trkpt lat="43.813229942762995" lon="12.296609990511836"><ele>740.0</ele><time>2026-05-04T08:41:43Z</time></trkpt><trkpt lat="43.81314551608277" lon="12.29652367023015"><ele>738.2</ele><time>2026-05-04T08:41:45Z</time></trkpt><trkpt lat="43.813069877361144" lon="12.296416614146102"><ele>736.4</ele><time>2026-05-04T08:41:47Z</time></trkpt><trkpt lat="43.813046562069104" lon="12.29626708261312"><ele>734.5999999999999</ele><time>2026-05-04T08:41:49Z</time></trkpt><trkpt lat="43.813067536541" lon="12.296144101670599"><ele>732.8</ele><time>2026-05-04T08:41:51Z</time></trkpt><trkpt lat="43.8129758585973" lon="12.296073957965083"><ele>731.0</ele><time>2026-05-04T08:41:53Z</time></trkpt><trkpt lat="43.81290399412669" lon="12.296045293328412"><ele>731.0</ele><time>2026-05-04T08:41:54Z</time></trkpt><trkpt lat="43.81285022896977" lon="12.295971106618081"><ele>731.0</ele><time>2026-05-04T08:41:55Z</time></trkpt><trkpt lat="43.8128047242739" lon="12.295872501798906"><ele>731.0</ele><time>2026-05-04T08:41:56Z</time></trkpt><trkpt lat="43.81276915592337" lon="12.29577808461875"><ele>731.0</ele><time>2026-05-04T08:41:57Z</time></trkpt><trkpt lat="43.812739861232394" lon="12.295690068786023"><ele>731.0</ele><time>2026-05-04T08:41:58Z</time></trkpt><trkpt lat="43.81268114433217" lon="12.295495672633592"><ele>730.8571428571429</ele><time>2026-05-04T08:42:00Z</time></trkpt><trkpt lat="43.812652067147496" lon="12.295411972337913"><ele>730.7142857142857</ele><time>2026-05-04T08:42:01Z</time></trkpt><trkpt lat="43.81260176359485" lon="12.295316158912541"><ele>730.5714285714287</ele><time>2026-05-04T08:42:02Z</time></trkpt><trkpt lat="43.81256998166522" lon="12.295231944732757"><ele>730.4285714285714</ele><time>2026-05-04T08:42:03Z</time></trkpt><trkpt lat="43.81253281007359" lon="12.295160740123242"><ele>730.2857142857143</ele><time>2026-05-04T08:42:04Z</time></trkpt><trkpt lat="43.81247631904321" lon="12.295101873961945"><ele>730.1428571428572</ele><time>2026-05-04T08:42:05Z</time></trkpt><trkpt lat="43.81242263403852" lon="12.295027173349833"><ele>730.0</ele><time>2026-05-04T08:42:06Z</time></trkpt><trkpt lat="43.812372803122365" lon="12.29496705362166"><ele>730.0</ele><time>2026-05-04T08:42:07Z</time></trkpt><trkpt lat="43.81232347997521" lon="12.294903530027419"><ele>730.0</ele><time>2026-05-04T08:42:08Z</time></trkpt><trkpt lat="43.81227466996113" lon="12.294811985089346"><ele>730.0</ele><time>2026-05-04T08:42:09Z</time></trkpt><trkpt lat="43.81223318207536" lon="12.29471379296882"><ele>730.0</ele><time>2026-05-04T08:42:10Z</time></trkpt><trkpt lat="43.81219352332378" lon="12.294634927439501"><ele>730.0</ele><time>2026-05-04T08:42:11Z</time></trkpt><trkpt lat="43.81214126112414" lon="12.294550005047967"><ele>730.0</ele><time>2026-05-04T08:42:12Z</time></trkpt><trkpt lat="43.81209465551636" lon="12.294461230165231"><ele>731.2</ele><time>2026-05-04T08:42:13Z</time></trkpt><trkpt lat="43.81203751462834" lon="12.29428274384804"><ele>732.4</ele><time>2026-05-04T08:42:15Z</time></trkpt><trkpt lat="43.81200902910141" lon="12.294177972566835"><ele>733.5999999999999</ele><time>2026-05-04T08:42:16Z</time></trkpt><trkpt lat="43.81195437498939" lon="12.294074227969606"><ele>734.8</ele><time>2026-05-04T08:42:18Z</time></trkpt><trkpt lat="43.811876256679035" lon="12.294089262247919"><ele>736.0</ele><time>2026-05-04T08:42:20Z</time></trkpt><trkpt lat="43.811796787955586" lon="12.29415011975669"><ele>736.0</ele><time>2026-05-04T08:42:22Z</time></trkpt><trkpt lat="43.81168736648513" lon="12.294181084777415"><ele>736.0</ele><time>2026-05-04T08:42:24Z</time></trkpt><trkpt lat="43.8115613512669" lon="12.294204165643063"><ele>736.0</ele><time>2026-05-04T08:42:26Z</time></trkpt><trkpt lat="43.81146087153312" lon="12.294207357356392"><ele>736.0</ele><time>2026-05-04T08:42:28Z</time></trkpt><trkpt lat="43.811427568422516" lon="12.294098436678285"><ele>736.0</ele><time>2026-05-04T08:42:30Z</time></trkpt><trkpt lat="43.81138356026906" lon="12.293992626742812"><ele>734.5</ele><time>2026-05-04T08:42:32Z</time></trkpt><trkpt lat="43.81135181401733" lon="12.29390161391229"><ele>733.0</ele><time>2026-05-04T08:42:34Z</time></trkpt><trkpt lat="43.81133078209932" lon="12.293796532775483"><ele>731.5</ele><time>2026-05-04T08:42:36Z</time></trkpt><trkpt lat="43.81131169941987" lon="12.293691771703019"><ele>730.0</ele><time>2026-05-04T08:42:38Z</time></trkpt><trkpt lat="43.81126591271456" lon="12.293591632712683"><ele>728.5</ele><time>2026-05-04T08:42:40Z</time></trkpt><trkpt lat="43.811187942182244" lon="12.293523284017477"><ele>727.0</ele><time>2026-05-04T08:42:42Z</time></trkpt><trkpt lat="43.81107794060071" lon="12.293427602713658"><ele>727.0</ele><time>2026-05-04T08:42:44Z</time></trkpt><trkpt lat="43.81101512581747" lon="12.293360990530461"><ele>727.0</ele><time>2026-05-04T08:42:45Z</time></trkpt><trkpt lat="43.810950700597616" lon="12.293318415000293"><ele>727.0</ele><time>2026-05-04T08:42:46Z</time></trkpt><trkpt lat="43.81088761640834" lon="12.293217768169336"><ele>727.0</ele><time>2026-05-04T08:42:48Z</time></trkpt><trkpt lat="43.8109220479197" lon="12.29309833622479"><ele>727.0</ele><time>2026-05-04T08:42:50Z</time></trkpt><trkpt lat="43.81098701387159" lon="12.292969794885579"><ele>728.0</ele><time>2026-05-04T08:42:52Z</time></trkpt><trkpt lat="43.810988125198044" lon="12.292864901722616"><ele>729.0</ele><time>2026-05-04T08:42:53Z</time></trkpt><trkpt lat="43.810975794681" lon="12.29276142743928"><ele>730.0</ele><time>2026-05-04T08:42:54Z</time></trkpt><trkpt lat="43.81094292988891" lon="12.292657673106245"><ele>731.0</ele><time>2026-05-04T08:42:55Z</time></trkpt><trkpt lat="43.81090049638079" lon="12.292559436091283"><ele>732.0</ele><time>2026-05-04T08:42:56Z</time></trkpt><trkpt lat="43.81084664978923" lon="12.292481471726894"><ele>733.0</ele><time>2026-05-04T08:42:57Z</time></trkpt><trkpt lat="43.81078267910509" lon="12.292396037991002"><ele>733.0</ele><time>2026-05-04T08:42:58Z</time></trkpt><trkpt lat="43.81073450331848" lon="12.292334263485195"><ele>733.0</ele><time>2026-05-04T08:42:59Z</time></trkpt><trkpt lat="43.81069857459955" lon="12.292251742438276"><ele>733.0</ele><time>2026-05-04T08:43:00Z</time></trkpt><trkpt lat="43.8106957265242" lon="12.292082606441388"><ele>733.0</ele><time>2026-05-04T08:43:02Z</time></trkpt><trkpt lat="43.81070825868056" lon="12.291993877678188"><ele>733.0</ele><time>2026-05-04T08:43:03Z</time></trkpt><trkpt lat="43.81069379846108" lon="12.291892350635225"><ele>733.0</ele><time>2026-05-04T08:43:04Z</time></trkpt><trkpt lat="43.81065960981195" lon="12.29173249751701"><ele>732.1666666666667</ele><time>2026-05-04T08:43:06Z</time></trkpt><trkpt lat="43.81061612174754" lon="12.291631109512947"><ele>731.3333333333334</ele><time>2026-05-04T08:43:07Z</time></trkpt><trkpt lat="43.81055708462409" lon="12.291547104483485"><ele>730.5</ele><time>2026-05-04T08:43:08Z</time></trkpt><trkpt lat="43.810487485776775" lon="12.291447026950511"><ele>729.6666666666666</ele><time>2026-05-04T08:43:09Z</time></trkpt><trkpt lat="43.8104212290736" lon="12.291353743187079"><ele>728.8333333333333</ele><time>2026-05-04T08:43:10Z</time></trkpt><trkpt lat="43.81037121149796" lon="12.291274742689556"><ele>728.0</ele><time>2026-05-04T08:43:11Z</time></trkpt><trkpt lat="43.810292969204795" lon="12.291226543414037"><ele>728.4</ele><time>2026-05-04T08:43:12Z</time></trkpt><trkpt lat="43.810215199680165" lon="12.291181042800014"><ele>728.8</ele><time>2026-05-04T08:43:13Z</time></trkpt><trkpt lat="43.810141897592935" lon="12.291142550224318"><ele>729.2</ele><time>2026-05-04T08:43:14Z</time></trkpt><trkpt lat="43.810023055635845" lon="12.291105446510086"><ele>729.6</ele><time>2026-05-04T08:43:16Z</time></trkpt><trkpt lat="43.80992978388697" lon="12.29114368566423"><ele>730.0</ele><time>2026-05-04T08:43:17Z</time></trkpt><trkpt lat="43.80981284919185" lon="12.291165091736199"><ele>730.0</ele><time>2026-05-04T08:43:18Z</time></trkpt><trkpt lat="43.80972229101318" lon="12.291174545678842"><ele>730.0</ele><time>2026-05-04T08:43:19Z</time></trkpt><trkpt lat="43.80965297019891" lon="12.291161537687495"><ele>730.0</ele><time>2026-05-04T08:43:20Z</time></trkpt><trkpt lat="43.809590852396454" lon="12.291138252998906"><ele>730.0</ele><time>2026-05-04T08:43:21Z</time></trkpt><trkpt lat="43.80951580493937" lon="12.290965533611445"><ele>730.0</ele><time>2026-05-04T08:43:23Z</time></trkpt><trkpt lat="43.809500304527255" lon="12.29084932914825"><ele>730.0</ele><time>2026-05-04T08:43:24Z</time></trkpt><trkpt lat="43.80948869133479" lon="12.290741396101058"><ele>730.0</ele><time>2026-05-04T08:43:25Z</time></trkpt><trkpt lat="43.809490403188654" lon="12.29062039310349"><ele>730.0</ele><time>2026-05-04T08:43:26Z</time></trkpt><trkpt lat="43.80948869531372" lon="12.290516917460621"><ele>730.0</ele><time>2026-05-04T08:43:27Z</time></trkpt><trkpt lat="43.80946860910691" lon="12.290403246824578"><ele>730.0</ele><time>2026-05-04T08:43:28Z</time></trkpt><trkpt lat="43.809411788215414" lon="12.290289885829907"><ele>730.0</ele><time>2026-05-04T08:43:29Z</time></trkpt><trkpt lat="43.80935568406029" lon="12.290164697435936"><ele>730.8</ele><time>2026-05-04T08:43:30Z</time></trkpt><trkpt lat="43.80929385032226" lon="12.290047970946645"><ele>731.6</ele><time>2026-05-04T08:43:31Z</time></trkpt><trkpt lat="43.80923940935649" lon="12.289930977052167"><ele>732.4000000000001</ele><time>2026-05-04T08:43:32Z</time></trkpt><trkpt lat="43.80919665761724" lon="12.289779684148387"><ele>733.2</ele><time>2026-05-04T08:43:33Z</time></trkpt><trkpt lat="43.80914380666117" lon="12.289634704520696"><ele>734.0</ele><time>2026-05-04T08:43:34Z</time></trkpt><trkpt lat="43.80909547972" lon="12.289513444948211"><ele>734.0</ele><time>2026-05-04T08:43:35Z</time></trkpt><trkpt lat="43.80904601916113" lon="12.28942286102803"><ele>734.0</ele><time>2026-05-04T08:43:36Z</time></trkpt><trkpt lat="43.809011598535825" lon="12.289322485538468"><ele>734.0</ele><time>2026-05-04T08:43:37Z</time></trkpt><trkpt lat="43.808973221691225" lon="12.289191171631476"><ele>734.0</ele><time>2026-05-04T08:43:38Z</time></trkpt><trkpt lat="43.808958523489466" lon="12.289073842175371"><ele>734.0</ele><time>2026-05-04T08:43:39Z</time></trkpt><trkpt lat="43.80895038865762" lon="12.288967100809103"><ele>734.0</ele><time>2026-05-04T08:43:40Z</time></trkpt><trkpt lat="43.80893580909076" lon="12.288849843595774"><ele>734.6666666666666</ele><time>2026-05-04T08:43:41Z</time></trkpt><trkpt lat="43.808921290741424" lon="12.288750662385691"><ele>735.3333333333333</ele><time>2026-05-04T08:43:42Z</time></trkpt><trkpt lat="43.808915588279724" lon="12.288662967941807"><ele>736.0</ele><time>2026-05-04T08:43:43Z</time></trkpt><trkpt lat="43.80890116117979" lon="12.288554101641225"><ele>736.6666666666666</ele><time>2026-05-04T08:43:45Z</time></trkpt><trkpt lat="43.80890208761911" lon="12.288456022683922"><ele>737.3333333333334</ele><time>2026-05-04T08:43:47Z</time></trkpt><trkpt lat="43.808839973037365" lon="12.288408210075529"><ele>738.0</ele><time>2026-05-04T08:43:52Z</time></trkpt><trkpt lat="43.808754934727304" lon="12.288505326284291"><ele>738.0</ele><time>2026-05-04T08:43:54Z</time></trkpt><trkpt lat="43.80871313290952" lon="12.28860691377254"><ele>738.0</ele><time>2026-05-04T08:43:55Z</time></trkpt><trkpt lat="43.80868371830093" lon="12.288695118094369"><ele>738.0</ele><time>2026-05-04T08:43:56Z</time></trkpt><trkpt lat="43.80865686412252" lon="12.288789757590573"><ele>738.0</ele><time>2026-05-04T08:43:57Z</time></trkpt><trkpt lat="43.80864632789523" lon="12.28888262613264"><ele>738.0</ele><time>2026-05-04T08:43:58Z</time></trkpt><trkpt lat="43.80859161906335" lon="12.289035716130307"><ele>738.0</ele><time>2026-05-04T08:44:00Z</time></trkpt><trkpt lat="43.808552008105075" lon="12.289133755034033"><ele>738.0</ele><time>2026-05-04T08:44:02Z</time></trkpt><trkpt lat="43.80859316840478" lon="12.289009440783994"><ele>738.0</ele><time>2026-05-04T08:44:14Z</time></trkpt><trkpt lat="43.8086458717024" lon="12.288827465006474"><ele>738.0</ele><time>2026-05-04T08:44:16Z</time></trkpt><trkpt lat="43.808684209726245" lon="12.288695954533818"><ele>738.0</ele><time>2026-05-04T08:44:17Z</time></trkpt><trkpt lat="43.80872646307544" lon="12.288551013507332"><ele>738.0</ele><time>2026-05-04T08:44:18Z</time></trkpt><trkpt lat="43.808753700626355" lon="12.288457580934173"><ele>738.0</ele><time>2026-05-04T08:44:19Z</time></trkpt><trkpt lat="43.80880966501845" lon="12.288376970293301"><ele>738.0</ele><time>2026-05-04T08:44:21Z</time></trkpt><trkpt lat="43.808888619932965" lon="12.288319591806676"><ele>738.0</ele><time>2026-05-04T08:44:24Z</time></trkpt><trkpt lat="43.80877173971803" lon="12.288076445109661"><ele>737.5999999999999</ele><time>2026-05-04T08:44:32Z</time></trkpt><trkpt lat="43.808668422554696" lon="12.287997234505644"><ele>737.1999999999999</ele><time>2026-05-04T08:44:34Z</time></trkpt><trkpt lat="43.80857563300939" lon="12.287947628747428"><ele>736.8</ele><time>2026-05-04T08:44:36Z</time></trkpt><trkpt lat="43.80844608236972" lon="12.287907189964686"><ele>736.4</ele><time>2026-05-04T08:44:38Z</time></trkpt><trkpt lat="43.8083738581876" lon="12.287890903732077"><ele>736.0</ele><time>2026-05-04T08:44:39Z</time></trkpt><trkpt lat="43.80830357978733" lon="12.287886647208467"><ele>734.0</ele><time>2026-05-04T08:44:40Z</time></trkpt><trkpt lat="43.80822614973691" lon="12.28788291278097"><ele>732.0</ele><time>2026-05-04T08:44:41Z</time></trkpt><trkpt lat="43.808150885446224" lon="12.28788363712113"><ele>730.0</ele><time>2026-05-04T08:44:42Z</time></trkpt><trkpt lat="43.8080784611229" lon="12.287881714372629"><ele>728.0</ele><time>2026-05-04T08:44:43Z</time></trkpt><trkpt lat="43.80802004466408" lon="12.287843483327345"><ele>726.0</ele><time>2026-05-04T08:44:44Z</time></trkpt><trkpt lat="43.80795136360701" lon="12.287801449582053"><ele>724.0</ele><time>2026-05-04T08:44:45Z</time></trkpt><trkpt lat="43.807837936828015" lon="12.28773921378691"><ele>724.0</ele><time>2026-05-04T08:44:47Z</time></trkpt><trkpt lat="43.80772342290325" lon="12.287725230352"><ele>724.0</ele><time>2026-05-04T08:44:49Z</time></trkpt><trkpt lat="43.80757995029107" lon="12.287749709587692"><ele>724.0</ele><time>2026-05-04T08:44:51Z</time></trkpt><trkpt lat="43.80749170364681" lon="12.287767956141519"><ele>724.0</ele><time>2026-05-04T08:44:52Z</time></trkpt><trkpt lat="43.807412488315904" lon="12.287780972394257"><ele>724.0</ele><time>2026-05-04T08:44:53Z</time></trkpt><trkpt lat="43.807340264630604" lon="12.287802595741868"><ele>723.6666666666667</ele><time>2026-05-04T08:44:54Z</time></trkpt><trkpt lat="43.8072653393388" lon="12.287830246233531"><ele>723.3333333333334</ele><time>2026-05-04T08:44:55Z</time></trkpt><trkpt lat="43.80719618902587" lon="12.287837894409718"><ele>723.0</ele><time>2026-05-04T08:44:56Z</time></trkpt><trkpt lat="43.80713348936897" lon="12.287821645217507"><ele>722.6666666666666</ele><time>2026-05-04T08:44:57Z</time></trkpt><trkpt lat="43.80706787071849" lon="12.287789225227002"><ele>722.3333333333333</ele><time>2026-05-04T08:44:58Z</time></trkpt><trkpt lat="43.806980869987726" lon="12.287745308779622"><ele>722.0</ele><time>2026-05-04T08:44:59Z</time></trkpt><trkpt lat="43.806905609654606" lon="12.287717807475682"><ele>722.1666666666666</ele><time>2026-05-04T08:45:00Z</time></trkpt><trkpt lat="43.806821283556104" lon="12.287703424823826"><ele>722.3333333333333</ele><time>2026-05-04T08:45:01Z</time></trkpt><trkpt lat="43.80673831503811" lon="12.28770402407686"><ele>722.5</ele><time>2026-05-04T08:45:02Z</time></trkpt><trkpt lat="43.806636694123945" lon="12.28771264724138"><ele>722.6666666666666</ele><time>2026-05-04T08:45:03Z</time></trkpt><trkpt lat="43.806544222190816" lon="12.287731356038266"><ele>722.8333333333334</ele><time>2026-05-04T08:45:04Z</time></trkpt><trkpt lat="43.80646128574631" lon="12.28772349064861"><ele>723.0</ele><time>2026-05-04T08:45:05Z</time></trkpt><trkpt lat="43.80639042449853" lon="12.287732200595975"><ele>723.0</ele><time>2026-05-04T08:45:06Z</time></trkpt><trkpt lat="43.80631978988702" lon="12.287753407272621"><ele>723.0</ele><time>2026-05-04T08:45:07Z</time></trkpt><trkpt lat="43.8062047257534" lon="12.287775194603215"><ele>723.0</ele><time>2026-05-04T08:45:09Z</time></trkpt><trkpt lat="43.80609827931999" lon="12.287705102824333"><ele>723.0</ele><time>2026-05-04T08:45:11Z</time></trkpt><trkpt lat="43.80603550114628" lon="12.287674603302964"><ele>723.0</ele><time>2026-05-04T08:45:12Z</time></trkpt><trkpt lat="43.805946181154184" lon="12.287668732983061"><ele>722.5</ele><time>2026-05-04T08:45:13Z</time></trkpt><trkpt lat="43.80585772460912" lon="12.287676922737495"><ele>722.0</ele><time>2026-05-04T08:45:14Z</time></trkpt><trkpt lat="43.805778207409645" lon="12.287667215230082"><ele>721.5</ele><time>2026-05-04T08:45:15Z</time></trkpt><trkpt lat="43.80569300376126" lon="12.287625881670895"><ele>721.0</ele><time>2026-05-04T08:45:16Z</time></trkpt><trkpt lat="43.80562037030448" lon="12.287582272942252"><ele>720.5</ele><time>2026-05-04T08:45:17Z</time></trkpt><trkpt lat="43.80554098748085" lon="12.287528868767183"><ele>720.0</ele><time>2026-05-04T08:45:18Z</time></trkpt><trkpt lat="43.805460648365916" lon="12.287466046041883"><ele>720.0</ele><time>2026-05-04T08:45:19Z</time></trkpt><trkpt lat="43.8053778844877" lon="12.287441603484252"><ele>720.0</ele><time>2026-05-04T08:45:20Z</time></trkpt><trkpt lat="43.80530757578862" lon="12.287440802602063"><ele>720.0</ele><time>2026-05-04T08:45:21Z</time></trkpt><trkpt lat="43.80521644859708" lon="12.287446207732177"><ele>720.0</ele><time>2026-05-04T08:45:23Z</time></trkpt><trkpt lat="43.80523699679509" lon="12.287325153302161"><ele>720.0</ele><time>2026-05-04T08:45:26Z</time></trkpt><trkpt lat="43.80530080226002" lon="12.287225519924982"><ele>720.0</ele><time>2026-05-04T08:45:28Z</time></trkpt><trkpt lat="43.80536672139037" lon="12.28710897722157"><ele>716.75</ele><time>2026-05-04T08:45:30Z</time></trkpt><trkpt lat="43.805388694664686" lon="12.286976405002282"><ele>713.5</ele><time>2026-05-04T08:45:32Z</time></trkpt><trkpt lat="43.805419887084035" lon="12.286826766114396"><ele>710.25</ele><time>2026-05-04T08:45:34Z</time></trkpt><trkpt lat="43.80548994754787" lon="12.286700762810046"><ele>707.0</ele><time>2026-05-04T08:45:36Z</time></trkpt><trkpt lat="43.80559285888094" lon="12.286590760555132"><ele>707.0</ele><time>2026-05-04T08:45:38Z</time></trkpt><trkpt lat="43.805653762185464" lon="12.286438692177505"><ele>707.0</ele><time>2026-05-04T08:45:40Z</time></trkpt><trkpt lat="43.8056698785064" lon="12.28633702026165"><ele>707.0</ele><time>2026-05-04T08:45:41Z</time></trkpt><trkpt lat="43.80567802997308" lon="12.286219055027464"><ele>707.0</ele><time>2026-05-04T08:45:42Z</time></trkpt><trkpt lat="43.80568600652151" lon="12.286122975906398"><ele>707.0</ele><time>2026-05-04T08:45:43Z</time></trkpt><trkpt lat="43.8056973542817" lon="12.286005257157457"><ele>707.0</ele><time>2026-05-04T08:45:44Z</time></trkpt><trkpt lat="43.80570707624085" lon="12.285892129193215"><ele>705.1666666666666</ele><time>2026-05-04T08:45:45Z</time></trkpt><trkpt lat="43.805731156200885" lon="12.285794969360866"><ele>703.3333333333333</ele><time>2026-05-04T08:45:46Z</time></trkpt><trkpt lat="43.80575593603639" lon="12.285707859158672"><ele>701.5</ele><time>2026-05-04T08:45:47Z</time></trkpt><trkpt lat="43.80579747289933" lon="12.285630031582643"><ele>699.6666666666666</ele><time>2026-05-04T08:45:48Z</time></trkpt><trkpt lat="43.805836532860496" lon="12.285552356993982"><ele>697.8333333333334</ele><time>2026-05-04T08:45:49Z</time></trkpt><trkpt lat="43.80593505995771" lon="12.285460864226991"><ele>696.0</ele><time>2026-05-04T08:45:51Z</time></trkpt><trkpt lat="43.80600624084459" lon="12.285433964701694"><ele>692.4</ele><time>2026-05-04T08:45:52Z</time></trkpt><trkpt lat="43.806111458188276" lon="12.285431861253356"><ele>688.8</ele><time>2026-05-04T08:45:54Z</time></trkpt><trkpt lat="43.806192211063355" lon="12.285390615268858"><ele>685.1999999999999</ele><time>2026-05-04T08:45:57Z</time></trkpt><trkpt lat="43.80617982581061" lon="12.285289723485041"><ele>681.5999999999999</ele><time>2026-05-04T08:45:59Z</time></trkpt><trkpt lat="43.80612938677649" lon="12.285130781128311"><ele>678.0</ele><time>2026-05-04T08:46:01Z</time></trkpt><trkpt lat="43.80615191268249" lon="12.285029104606059"><ele>678.0</ele><time>2026-05-04T08:46:02Z</time></trkpt><trkpt lat="43.80618045651939" lon="12.284929972523472"><ele>678.0</ele><time>2026-05-04T08:46:03Z</time></trkpt><trkpt lat="43.806200840421454" lon="12.284801766109723"><ele>678.0</ele><time>2026-05-04T08:46:04Z</time></trkpt><trkpt lat="43.806220308299615" lon="12.284687891277253"><ele>678.0</ele><time>2026-05-04T08:46:05Z</time></trkpt><trkpt lat="43.806235724848044" lon="12.284585483113213"><ele>678.0</ele><time>2026-05-04T08:46:06Z</time></trkpt><trkpt lat="43.80622972352393" lon="12.284467972003643"><ele>678.0</ele><time>2026-05-04T08:46:07Z</time></trkpt><trkpt lat="43.80621271714583" lon="12.284338565137366"><ele>675.8</ele><time>2026-05-04T08:46:08Z</time></trkpt><trkpt lat="43.80618697749281" lon="12.284217172863848"><ele>673.5999999999999</ele><time>2026-05-04T08:46:09Z</time></trkpt><trkpt lat="43.8061581731233" lon="12.284090302435363"><ele>671.4000000000001</ele><time>2026-05-04T08:46:10Z</time></trkpt><trkpt lat="43.80614525973243" lon="12.283966437624779"><ele>669.2</ele><time>2026-05-04T08:46:11Z</time></trkpt><trkpt lat="43.80613199066426" lon="12.28383379931783"><ele>667.0</ele><time>2026-05-04T08:46:12Z</time></trkpt><trkpt lat="43.80612232142453" lon="12.283697690605786"><ele>665.6666666666667</ele><time>2026-05-04T08:46:13Z</time></trkpt><trkpt lat="43.806103631507476" lon="12.283575583026728"><ele>664.3333333333334</ele><time>2026-05-04T08:46:14Z</time></trkpt><trkpt lat="43.806079170746415" lon="12.283469344439782"><ele>663.0</ele><time>2026-05-04T08:46:15Z</time></trkpt><trkpt lat="43.80604419831056" lon="12.283380570534266"><ele>661.6666666666666</ele><time>2026-05-04T08:46:16Z</time></trkpt><trkpt lat="43.80603718657253" lon="12.283276391010643"><ele>660.3333333333333</ele><time>2026-05-04T08:46:17Z</time></trkpt><trkpt lat="43.8060228647635" lon="12.283127115845021"><ele>659.0</ele><time>2026-05-04T08:46:19Z</time></trkpt><trkpt lat="43.8060131193139" lon="12.28300391942514"><ele>657.2</ele><time>2026-05-04T08:46:21Z</time></trkpt><trkpt lat="43.80602104867845" lon="12.282833953780003"><ele>655.4000000000001</ele><time>2026-05-04T08:46:23Z</time></trkpt><trkpt lat="43.806018132225766" lon="12.282698059416447"><ele>653.6</ele><time>2026-05-04T08:46:25Z</time></trkpt><trkpt lat="43.805997753362355" lon="12.2825444041186"><ele>651.8</ele><time>2026-05-04T08:46:27Z</time></trkpt><trkpt lat="43.80597231078259" lon="12.282388006011765"><ele>650.0</ele><time>2026-05-04T08:46:29Z</time></trkpt><trkpt lat="43.80594898915141" lon="12.282228213440957"><ele>648.2</ele><time>2026-05-04T08:46:31Z</time></trkpt><trkpt lat="43.8059146044779" lon="12.282048304620186"><ele>646.4</ele><time>2026-05-04T08:46:33Z</time></trkpt><trkpt lat="43.8058992281737" lon="12.28195139427605"><ele>644.5999999999999</ele><time>2026-05-04T08:46:34Z</time></trkpt><trkpt lat="43.805896749886216" lon="12.281827503713592"><ele>642.8</ele><time>2026-05-04T08:46:36Z</time></trkpt><trkpt lat="43.805902302822126" lon="12.281706626231134"><ele>641.0</ele><time>2026-05-04T08:46:44Z</time></trkpt><trkpt lat="43.80592524151691" lon="12.281617206664373"><ele>641.0</ele><time>2026-05-04T08:46:46Z</time></trkpt><trkpt lat="43.80596674716072" lon="12.281528422706662"><ele>641.0</ele><time>2026-05-04T08:46:48Z</time></trkpt><trkpt lat="43.8060649231734" lon="12.28138694643032"><ele>641.0</ele><time>2026-05-04T08:46:50Z</time></trkpt><trkpt lat="43.806123578846304" lon="12.281296322913953"><ele>641.0</ele><time>2026-05-04T08:46:51Z</time></trkpt><trkpt lat="43.80618594523529" lon="12.281208058450634"><ele>641.0</ele><time>2026-05-04T08:46:52Z</time></trkpt><trkpt lat="43.806267636605995" lon="12.281131173428532"><ele>638.4</ele><time>2026-05-04T08:46:53Z</time></trkpt><trkpt lat="43.80634812079242" lon="12.281074828701623"><ele>635.8</ele><time>2026-05-04T08:46:54Z</time></trkpt><trkpt lat="43.80641253640048" lon="12.281034532306803"><ele>633.1999999999999</ele><time>2026-05-04T08:46:55Z</time></trkpt><trkpt lat="43.80648207763397" lon="12.280988024108181"><ele>630.5999999999999</ele><time>2026-05-04T08:46:57Z</time></trkpt><trkpt lat="43.80638695704972" lon="12.280836965573513"><ele>628.0</ele><time>2026-05-04T08:47:01Z</time></trkpt><trkpt lat="43.80630653325189" lon="12.280813094625659"><ele>627.9999999999999</ele><time>2026-05-04T08:47:02Z</time></trkpt><trkpt lat="43.806236670081866" lon="12.280807413269065"><ele>628.0</ele><time>2026-05-04T08:47:03Z</time></trkpt><trkpt lat="43.80617142970492" lon="12.280795598430341"><ele>628.0</ele><time>2026-05-04T08:47:04Z</time></trkpt><trkpt lat="43.80610808670805" lon="12.28077726799882"><ele>628.0</ele><time>2026-05-04T08:47:05Z</time></trkpt><trkpt lat="43.8060445149592" lon="12.280756692008309"><ele>628.0</ele><time>2026-05-04T08:47:06Z</time></trkpt><trkpt lat="43.80597941415281" lon="12.280733708058625"><ele>627.9999999999999</ele><time>2026-05-04T08:47:07Z</time></trkpt><trkpt lat="43.80591164627544" lon="12.280731065580062"><ele>628.0</ele><time>2026-05-04T08:47:08Z</time></trkpt><trkpt lat="43.80583537252228" lon="12.280694813374003"><ele>628.0</ele><time>2026-05-04T08:47:09Z</time></trkpt><trkpt lat="43.80576480091973" lon="12.280664828431663"><ele>628.0</ele><time>2026-05-04T08:47:10Z</time></trkpt><trkpt lat="43.80568990977914" lon="12.280626600078223"><ele>628.0</ele><time>2026-05-04T08:47:11Z</time></trkpt><trkpt lat="43.80560886502736" lon="12.280591318734094"><ele>628.0</ele><time>2026-05-04T08:47:12Z</time></trkpt><trkpt lat="43.80553287377727" lon="12.28055207012736"><ele>628.0</ele><time>2026-05-04T08:47:13Z</time></trkpt><trkpt lat="43.80544890078819" lon="12.280525015448054"><ele>628.0</ele><time>2026-05-04T08:47:14Z</time></trkpt><trkpt lat="43.805363151342455" lon="12.280460087773985"><ele>625.6</ele><time>2026-05-04T08:47:15Z</time></trkpt><trkpt lat="43.80526819505742" lon="12.28043998966766"><ele>623.1999999999999</ele><time>2026-05-04T08:47:16Z</time></trkpt><trkpt lat="43.805176632849005" lon="12.280408353990076"><ele>620.8</ele><time>2026-05-04T08:47:17Z</time></trkpt><trkpt lat="43.805096912928086" lon="12.280386681845052"><ele>618.4</ele><time>2026-05-04T08:47:18Z</time></trkpt><trkpt lat="43.805014475164946" lon="12.280361171819884"><ele>616.0</ele><time>2026-05-04T08:47:19Z</time></trkpt><trkpt lat="43.804918184347045" lon="12.280372752583602"><ele>615.2</ele><time>2026-05-04T08:47:20Z</time></trkpt><trkpt lat="43.804823709970464" lon="12.28041728666858"><ele>614.4000000000001</ele><time>2026-05-04T08:47:21Z</time></trkpt><trkpt lat="43.804728600220514" lon="12.280482165567589"><ele>613.6</ele><time>2026-05-04T08:47:22Z</time></trkpt><trkpt lat="43.80463117497615" lon="12.280538617049952"><ele>612.8000000000001</ele><time>2026-05-04T08:47:23Z</time></trkpt><trkpt lat="43.80452880689943" lon="12.280571853765508"><ele>612.0</ele><time>2026-05-04T08:47:24Z</time></trkpt><trkpt lat="43.80443547518958" lon="12.280643857999614"><ele>613.5</ele><time>2026-05-04T08:47:25Z</time></trkpt><trkpt lat="43.804350145759166" lon="12.28066544812724"><ele>615.0</ele><time>2026-05-04T08:47:26Z</time></trkpt><trkpt lat="43.80427063274314" lon="12.280705586535817"><ele>616.5</ele><time>2026-05-04T08:47:27Z</time></trkpt><trkpt lat="43.80419639661982" lon="12.280732134692826"><ele>618.0</ele><time>2026-05-04T08:47:28Z</time></trkpt><trkpt lat="43.804129158901894" lon="12.280723115977247"><ele>619.5</ele><time>2026-05-04T08:47:29Z</time></trkpt><trkpt lat="43.80406045910918" lon="12.28069067951856"><ele>621.0</ele><time>2026-05-04T08:47:30Z</time></trkpt><trkpt lat="43.80397681272717" lon="12.280684430063797"><ele>621.0</ele><time>2026-05-04T08:47:31Z</time></trkpt><trkpt lat="43.803872893910096" lon="12.280841449098746"><ele>621.0</ele><time>2026-05-04T08:47:32Z</time></trkpt><trkpt lat="43.80378965103979" lon="12.28085400542537"><ele>621.0</ele><time>2026-05-04T08:47:33Z</time></trkpt><trkpt lat="43.80371116196886" lon="12.280870480100361"><ele>621.0</ele><time>2026-05-04T08:47:34Z</time></trkpt><trkpt lat="43.803633274065376" lon="12.280893752821841"><ele>621.0</ele><time>2026-05-04T08:47:35Z</time></trkpt><trkpt lat="43.80353341852457" lon="12.280354980673218"><ele>618.0</ele><time>2026-05-04T08:47:36Z</time></trkpt><trkpt lat="43.80349300418305" lon="12.280994602300982"><ele>618.0</ele><time>2026-05-04T08:47:37Z</time></trkpt><trkpt lat="43.80339847499797" lon="12.281064028123039"><ele>618.0</ele><time>2026-05-04T08:47:38Z</time></trkpt><trkpt lat="43.803326067822205" lon="12.281117482873197"><ele>618.0</ele><time>2026-05-04T08:47:39Z</time></trkpt><trkpt lat="43.80325432664311" lon="12.281197347540127"><ele>618.0</ele><time>2026-05-04T08:47:40Z</time></trkpt><trkpt lat="43.80317641280896" lon="12.28128874766694"><ele>618.0</ele><time>2026-05-04T08:47:41Z</time></trkpt><trkpt lat="43.80312586868148" lon="12.281348338011954"><ele>618.0</ele><time>2026-05-04T08:47:42Z</time></trkpt><trkpt lat="43.80307394183073" lon="12.281421112314044"><ele>618.6666666666666</ele><time>2026-05-04T08:47:43Z</time></trkpt><trkpt lat="43.80301351142683" lon="12.281472894789498"><ele>619.3333333333334</ele><time>2026-05-04T08:47:44Z</time></trkpt><trkpt lat="43.8029429884612" lon="12.28148987016122"><ele>620.0</ele><time>2026-05-04T08:47:45Z</time></trkpt><trkpt lat="43.802867217951096" lon="12.281485846244342"><ele>620.6666666666667</ele><time>2026-05-04T08:47:46Z</time></trkpt><trkpt lat="43.802787008094036" lon="12.281517591188514"><ele>621.3333333333334</ele><time>2026-05-04T08:47:47Z</time></trkpt><trkpt lat="43.80270268339485" lon="12.28158679411919"><ele>622.0</ele><time>2026-05-04T08:47:48Z</time></trkpt><trkpt lat="43.80262152170752" lon="12.281649347476455"><ele>622.0</ele><time>2026-05-04T08:47:49Z</time></trkpt><trkpt lat="43.80254560896658" lon="12.28170051714699"><ele>622.0</ele><time>2026-05-04T08:47:50Z</time></trkpt><trkpt lat="43.80246966002026" lon="12.281749779680286"><ele>622.0</ele><time>2026-05-04T08:47:51Z</time></trkpt><trkpt lat="43.80242497650539" lon="12.281825152441701"><ele>622.0</ele><time>2026-05-04T08:47:53Z</time></trkpt><trkpt lat="43.80243631789338" lon="12.281974764206051"><ele>622.0</ele><time>2026-05-04T08:47:55Z</time></trkpt><trkpt lat="43.80244867672615" lon="12.282122756733125"><ele>622.0</ele><time>2026-05-04T08:47:57Z</time></trkpt><trkpt lat="43.802395195937116" lon="12.282225449274069"><ele>622.0</ele><time>2026-05-04T08:47:59Z</time></trkpt><trkpt lat="43.802331794080594" lon="12.282226991585517"><ele>622.0</ele><time>2026-05-04T08:48:00Z</time></trkpt><trkpt lat="43.802256705968816" lon="12.28222677799924"><ele>622.0</ele><time>2026-05-04T08:48:01Z</time></trkpt><trkpt lat="43.80215729413718" lon="12.28224844299492"><ele>622.0</ele><time>2026-05-04T08:48:02Z</time></trkpt><trkpt lat="43.80206281904046" lon="12.28227262837061"><ele>622.0</ele><time>2026-05-04T08:48:03Z</time></trkpt><trkpt lat="43.80198461318102" lon="12.282297240569434"><ele>623.5</ele><time>2026-05-04T08:48:04Z</time></trkpt><trkpt lat="43.801889067971274" lon="12.282297680576688"><ele>625.0</ele><time>2026-05-04T08:48:05Z</time></trkpt><trkpt lat="43.80179244559166" lon="12.282295632603084"><ele>626.5</ele><time>2026-05-04T08:48:06Z</time></trkpt><trkpt lat="43.801704761870745" lon="12.28229307348025"><ele>628.0</ele><time>2026-05-04T08:48:07Z</time></trkpt><trkpt lat="43.80163806449757" lon="12.28228691849938"><ele>629.5</ele><time>2026-05-04T08:48:08Z</time></trkpt><trkpt lat="43.801564425843324" lon="12.282286604900722"><ele>631.0</ele><time>2026-05-04T08:48:09Z</time></trkpt><trkpt lat="43.801487339261996" lon="12.28228882893246"><ele>632.1666666666667</ele><time>2026-05-04T08:48:10Z</time></trkpt><trkpt lat="43.801414562270416" lon="12.28230679570287"><ele>633.3333333333334</ele><time>2026-05-04T08:48:11Z</time></trkpt><trkpt lat="43.80133771458389" lon="12.282330664432855"><ele>634.5</ele><time>2026-05-04T08:48:12Z</time></trkpt><trkpt lat="43.801225881454876" lon="12.282359090244944"><ele>635.6666666666666</ele><time>2026-05-04T08:48:14Z</time></trkpt><trkpt lat="43.80115127970963" lon="12.282380826149152"><ele>636.8333333333333</ele><time>2026-05-04T08:48:16Z</time></trkpt><trkpt lat="43.801085983816854" lon="12.282378462091772"><ele>638.0</ele><time>2026-05-04T08:48:18Z</time></trkpt><trkpt lat="43.80099104439898" lon="12.282318323497549"><ele>638.1428571428572</ele><time>2026-05-04T08:48:20Z</time></trkpt><trkpt lat="43.800932992363826" lon="12.282276142923026"><ele>638.2857142857142</ele><time>2026-05-04T08:48:21Z</time></trkpt><trkpt lat="43.80087069306999" lon="12.282235113696094"><ele>638.4285714285714</ele><time>2026-05-04T08:48:22Z</time></trkpt><trkpt lat="43.800803156324385" lon="12.282206748116991"><ele>638.5714285714287</ele><time>2026-05-04T08:48:23Z</time></trkpt><trkpt lat="43.800735988273004" lon="12.282167218347457"><ele>638.7142857142858</ele><time>2026-05-04T08:48:24Z</time></trkpt><trkpt lat="43.80067460425556" lon="12.282112969779448"><ele>638.8571428571429</ele><time>2026-05-04T08:48:25Z</time></trkpt><trkpt lat="43.80062584426802" lon="12.282046485603614"><ele>639.0</ele><time>2026-05-04T08:48:26Z</time></trkpt><trkpt lat="43.80057513984406" lon="12.28199338428692"><ele>636.4</ele><time>2026-05-04T08:48:27Z</time></trkpt><trkpt lat="43.80052623549335" lon="12.281930082548064"><ele>633.8</ele><time>2026-05-04T08:48:28Z</time></trkpt><trkpt lat="43.80047856708734" lon="12.281850895307494"><ele>631.2</ele><time>2026-05-04T08:48:29Z</time></trkpt><trkpt lat="43.80041202993135" lon="12.281740127122497"><ele>628.6</ele><time>2026-05-04T08:48:31Z</time></trkpt><trkpt lat="43.80031962247476" lon="12.281747921277923"><ele>626.0</ele><time>2026-05-04T08:48:33Z</time></trkpt><trkpt lat="43.80020790136755" lon="12.281813928434815"><ele>626.2</ele><time>2026-05-04T08:48:35Z</time></trkpt><trkpt lat="43.80011281222724" lon="12.281859011453324"><ele>626.4000000000001</ele><time>2026-05-04T08:48:37Z</time></trkpt><trkpt lat="43.80001323185781" lon="12.281884870453421"><ele>626.6</ele><time>2026-05-04T08:48:39Z</time></trkpt><trkpt lat="43.79990901260623" lon="12.281837656976814"><ele>626.8000000000001</ele><time>2026-05-04T08:48:41Z</time></trkpt><trkpt lat="43.79982930462446" lon="12.281754193964902"><ele>627.0</ele><time>2026-05-04T08:48:43Z</time></trkpt><trkpt lat="43.799760567111036" lon="12.281733572249667"><ele>627.0</ele><time>2026-05-04T08:48:44Z</time></trkpt><trkpt lat="43.79968662814409" lon="12.281703891197076"><ele>627.0</ele><time>2026-05-04T08:48:45Z</time></trkpt><trkpt lat="43.799624430764894" lon="12.28166885777717"><ele>627.0</ele><time>2026-05-04T08:48:46Z</time></trkpt><trkpt lat="43.799558333260634" lon="12.281616260776897"><ele>627.0</ele><time>2026-05-04T08:48:47Z</time></trkpt><trkpt lat="43.799494114427034" lon="12.281569887582771"><ele>627.0</ele><time>2026-05-04T08:48:48Z</time></trkpt><trkpt lat="43.799381772454225" lon="12.28153656859634"><ele>627.0</ele><time>2026-05-04T08:48:50Z</time></trkpt><trkpt lat="43.79930921703706" lon="12.281521295286575"><ele>627.0</ele><time>2026-05-04T08:48:51Z</time></trkpt><trkpt lat="43.79923939723982" lon="12.281500222576748"><ele>627.0</ele><time>2026-05-04T08:48:52Z</time></trkpt><trkpt lat="43.79917232610217" lon="12.281495050195996"><ele>627.0</ele><time>2026-05-04T08:48:53Z</time></trkpt><trkpt lat="43.79910456025972" lon="12.281471521430529"><ele>627.0</ele><time>2026-05-04T08:48:54Z</time></trkpt><trkpt lat="43.79903422542354" lon="12.281429850203713"><ele>627.0</ele><time>2026-05-04T08:48:55Z</time></trkpt><trkpt lat="43.79892120170041" lon="12.281420700424865"><ele>627.0</ele><time>2026-05-04T08:48:57Z</time></trkpt><trkpt lat="43.7988617649599" lon="12.28138442731812"><ele>624.1666666666666</ele><time>2026-05-04T08:48:58Z</time></trkpt><trkpt lat="43.79879774190119" lon="12.28136824823958"><ele>621.3333333333334</ele><time>2026-05-04T08:48:59Z</time></trkpt><trkpt lat="43.798705307813" lon="12.281385704109837"><ele>618.5</ele><time>2026-05-04T08:49:00Z</time></trkpt><trkpt lat="43.79863448958752" lon="12.281390291183795"><ele>615.6666666666667</ele><time>2026-05-04T08:49:02Z</time></trkpt><trkpt lat="43.79859382649728" lon="12.281322062092118"><ele>612.8333333333334</ele><time>2026-05-04T08:49:04Z</time></trkpt><trkpt lat="43.79856822528163" lon="12.28121985153535"><ele>610.0</ele><time>2026-05-04T08:49:07Z</time></trkpt><trkpt lat="43.798587306568955" lon="12.281107352274605"><ele>610.0</ele><time>2026-05-04T08:49:10Z</time></trkpt><trkpt lat="43.798640225258225" lon="12.28101667189213"><ele>610.0</ele><time>2026-05-04T08:49:12Z</time></trkpt><trkpt lat="43.79868607373756" lon="12.280909711492273"><ele>610.0</ele><time>2026-05-04T08:49:14Z</time></trkpt><trkpt lat="43.79866229582883" lon="12.280770459163554"><ele>610.0</ele><time>2026-05-04T08:49:16Z</time></trkpt><trkpt lat="43.79867067539366" lon="12.280646811477702"><ele>610.0</ele><time>2026-05-04T08:49:18Z</time></trkpt><trkpt lat="43.79875469601396" lon="12.28053986609593"><ele>607.4</ele><time>2026-05-04T08:49:20Z</time></trkpt><trkpt lat="43.79879500848063" lon="12.280467918730842"><ele>604.8</ele><time>2026-05-04T08:49:21Z</time></trkpt><trkpt lat="43.79888841237053" lon="12.28035967551803"><ele>602.2</ele><time>2026-05-04T08:49:23Z</time></trkpt><trkpt lat="43.79895535863645" lon="12.28027335613617"><ele>599.6</ele><time>2026-05-04T08:49:25Z</time></trkpt><trkpt lat="43.79902013026463" lon="12.280174753388513"><ele>597.0</ele><time>2026-05-04T08:49:27Z</time></trkpt><trkpt lat="43.799032967801345" lon="12.280029631474761"><ele>597.0</ele><time>2026-05-04T08:49:29Z</time></trkpt><trkpt lat="43.79899933399506" lon="12.27989894885186"><ele>597.0</ele><time>2026-05-04T08:49:31Z</time></trkpt><trkpt lat="43.79897694574939" lon="12.279802117412395"><ele>597.0</ele><time>2026-05-04T08:49:32Z</time></trkpt><trkpt lat="43.798970728328804" lon="12.279690344023514"><ele>597.0</ele><time>2026-05-04T08:49:33Z</time></trkpt><trkpt lat="43.79899759863615" lon="12.279516051490276"><ele>597.0</ele><time>2026-05-04T08:49:35Z</time></trkpt><trkpt lat="43.79897281032688" lon="12.279383922317384"><ele>595.0</ele><time>2026-05-04T08:49:37Z</time></trkpt><trkpt lat="43.79893334136636" lon="12.279305707988799"><ele>593.0</ele><time>2026-05-04T08:49:39Z</time></trkpt><trkpt lat="43.79884351801436" lon="12.279287184207377"><ele>591.0</ele><time>2026-05-04T08:49:41Z</time></trkpt><trkpt lat="43.79874671673221" lon="12.27928873770918"><ele>589.0</ele><time>2026-05-04T08:49:44Z</time></trkpt><trkpt lat="43.79866697156737" lon="12.279303922775584"><ele>587.0</ele><time>2026-05-04T08:49:46Z</time></trkpt><trkpt lat="43.79862335834282" lon="12.279368331744806"><ele>585.0</ele><time>2026-05-04T08:49:50Z</time></trkpt><trkpt lat="43.798576941183846" lon="12.279500708432142"><ele>585.0</ele><time>2026-05-04T08:50:07Z</time></trkpt><trkpt lat="43.79857296064818" lon="12.27959535481725"><ele>585.0</ele><time>2026-05-04T08:50:09Z</time></trkpt><trkpt lat="43.798517660871774" lon="12.27968344920326"><ele>585.0</ele><time>2026-05-04T08:50:12Z</time></trkpt><trkpt lat="43.79844960692459" lon="12.279693785215716"><ele>585.0</ele><time>2026-05-04T08:52:51Z</time></trkpt><trkpt lat="43.79838938909587" lon="12.279723156172215"><ele>585.0</ele><time>2026-05-04T08:53:05Z</time></trkpt><trkpt lat="43.79832847138996" lon="12.27974684390912"><ele>585.0</ele><time>2026-05-04T08:53:09Z</time></trkpt><trkpt lat="43.7982843255894" lon="12.279826816546674"><ele>585.0</ele><time>2026-05-04T08:53:23Z</time></trkpt><trkpt lat="43.79820772974879" lon="12.27985996585575"><ele>586.5</ele><time>2026-05-04T08:53:26Z</time></trkpt><trkpt lat="43.79814068662698" lon="12.279899558516865"><ele>588.0</ele><time>2026-05-04T08:53:28Z</time></trkpt><trkpt lat="43.79805932288202" lon="12.279875997026888"><ele>589.5</ele><time>2026-05-04T08:53:30Z</time></trkpt><trkpt lat="43.79799399832182" lon="12.279797380868816"><ele>591.0</ele><time>2026-05-04T08:53:33Z</time></trkpt><trkpt lat="43.79795403473932" lon="12.279710991933301"><ele>592.5</ele><time>2026-05-04T08:53:35Z</time></trkpt><trkpt lat="43.79785455497284" lon="12.279672086890685"><ele>594.0</ele><time>2026-05-04T08:53:38Z</time></trkpt><trkpt lat="43.79776947985333" lon="12.279673658916673"><ele>594.0</ele><time>2026-05-04T08:53:40Z</time></trkpt><trkpt lat="43.79767989021904" lon="12.279684803166957"><ele>594.0</ele><time>2026-05-04T08:53:42Z</time></trkpt><trkpt lat="43.7975989835646" lon="12.27966374270351"><ele>594.0</ele><time>2026-05-04T08:53:44Z</time></trkpt><trkpt lat="43.797508273031276" lon="12.279618071754257"><ele>594.0</ele><time>2026-05-04T08:53:46Z</time></trkpt><trkpt lat="43.79741733896593" lon="12.279593933401788"><ele>594.0</ele><time>2026-05-04T08:53:48Z</time></trkpt><trkpt lat="43.79737179055937" lon="12.279523901487451"><ele>594.0</ele><time>2026-05-04T08:53:50Z</time></trkpt><trkpt lat="43.79731991817169" lon="12.279454104030522"><ele>598.4</ele><time>2026-05-04T08:53:52Z</time></trkpt><trkpt lat="43.79724592156825" lon="12.27936756297667"><ele>602.8</ele><time>2026-05-04T08:53:54Z</time></trkpt><trkpt lat="43.79722904506982" lon="12.279282120100117"><ele>607.2</ele><time>2026-05-04T08:53:55Z</time></trkpt><trkpt lat="43.797175867309015" lon="12.27909086303618"><ele>611.6</ele><time>2026-05-04T08:53:57Z</time></trkpt><trkpt lat="43.79715696310188" lon="12.278959346510515"><ele>616.0</ele><time>2026-05-04T08:53:59Z</time></trkpt><trkpt lat="43.797129770233774" lon="12.278862390013568"><ele>617.3333333333334</ele><time>2026-05-04T08:54:02Z</time></trkpt><trkpt lat="43.79709918929368" lon="12.278764054995179"><ele>618.6666666666667</ele><time>2026-05-04T08:55:21Z</time></trkpt><trkpt lat="43.7971222030139" lon="12.278663599764924"><ele>620.0</ele><time>2026-05-04T08:55:23Z</time></trkpt><trkpt lat="43.7971494418922" lon="12.278583096140913"><ele>621.3333333333334</ele><time>2026-05-04T08:55:24Z</time></trkpt><trkpt lat="43.79717769107412" lon="12.278441798043763"><ele>622.6666666666666</ele><time>2026-05-04T08:55:26Z</time></trkpt><trkpt lat="43.79725658478386" lon="12.278334029899373"><ele>624.0</ele><time>2026-05-04T08:55:28Z</time></trkpt><trkpt lat="43.79730076219733" lon="12.278228886545314"><ele>624.8</ele><time>2026-05-04T08:55:30Z</time></trkpt><trkpt lat="43.79731725290293" lon="12.278076288148949"><ele>625.5999999999999</ele><time>2026-05-04T08:55:32Z</time></trkpt><trkpt lat="43.7972783956084" lon="12.277936095161108"><ele>626.4</ele><time>2026-05-04T08:55:34Z</time></trkpt><trkpt lat="43.79724105546581" lon="12.277785500376309"><ele>627.1999999999999</ele><time>2026-05-04T08:55:36Z</time></trkpt><trkpt lat="43.79720573936687" lon="12.277682497381287"><ele>628.0</ele><time>2026-05-04T08:55:38Z</time></trkpt><trkpt lat="43.797155498635455" lon="12.277626812237374"><ele>628.0</ele><time>2026-05-04T08:55:39Z</time></trkpt><trkpt lat="43.7970868873687" lon="12.277563796192808"><ele>628.0</ele><time>2026-05-04T08:55:40Z</time></trkpt><trkpt lat="43.79702782399811" lon="12.27748579347593"><ele>628.0</ele><time>2026-05-04T08:55:41Z</time></trkpt><trkpt lat="43.79697294861197" lon="12.277436072544523"><ele>628.0</ele><time>2026-05-04T08:55:42Z</time></trkpt><trkpt lat="43.796855926988464" lon="12.277376325966895"><ele>628.0</ele><time>2026-05-04T08:55:44Z</time></trkpt><trkpt lat="43.79676083346037" lon="12.277341157385381"><ele>631.8</ele><time>2026-05-04T08:55:46Z</time></trkpt><trkpt lat="43.79670779675794" lon="12.277471547872956"><ele>635.5999999999999</ele><time>2026-05-04T08:55:48Z</time></trkpt><trkpt lat="43.79666393744648" lon="12.277534434615056"><ele>639.4000000000001</ele><time>2026-05-04T08:55:50Z</time></trkpt><trkpt lat="43.7966096708559" lon="12.277466424169667"><ele>643.2</ele><time>2026-05-04T08:55:52Z</time></trkpt><trkpt lat="43.79656619502823" lon="12.277312669505301"><ele>647.0</ele><time>2026-05-04T08:55:54Z</time></trkpt><trkpt lat="43.796515349368555" lon="12.27717421687297"><ele>647.6</ele><time>2026-05-04T08:55:56Z</time></trkpt><trkpt lat="43.79643683169483" lon="12.277076933552692"><ele>648.2</ele><time>2026-05-04T08:56:00Z</time></trkpt><trkpt lat="43.796366858123974" lon="12.276977884492776"><ele>648.8</ele><time>2026-05-04T08:56:02Z</time></trkpt><trkpt lat="43.79632298489078" lon="12.276859001097305"><ele>649.4</ele><time>2026-05-04T08:56:04Z</time></trkpt><trkpt lat="43.79624597622731" lon="12.276763432775118"><ele>650.0</ele><time>2026-05-04T08:56:06Z</time></trkpt><trkpt lat="43.79619920057996" lon="12.27666083891037"><ele>650.0</ele><time>2026-05-04T08:56:08Z</time></trkpt><trkpt lat="43.796172340057865" lon="12.276527727190519"><ele>650.0</ele><time>2026-05-04T08:56:10Z</time></trkpt><trkpt lat="43.79617125439927" lon="12.276419820668746"><ele>650.0</ele><time>2026-05-04T08:56:12Z</time></trkpt><trkpt lat="43.796158975967714" lon="12.276311231885984"><ele>650.0</ele><time>2026-05-04T08:56:14Z</time></trkpt><trkpt lat="43.79614380753727" lon="12.276129449306692"><ele>650.0</ele><time>2026-05-04T08:56:16Z</time></trkpt><trkpt lat="43.79613079070789" lon="12.276036156181162"><ele>650.1666666666666</ele><time>2026-05-04T08:56:17Z</time></trkpt><trkpt lat="43.79611036846938" lon="12.275927171744614"><ele>650.3333333333333</ele><time>2026-05-04T08:56:18Z</time></trkpt><trkpt lat="43.79610724454837" lon="12.275817479003168"><ele>650.5</ele><time>2026-05-04T08:56:19Z</time></trkpt><trkpt lat="43.79611170140407" lon="12.275715419628805"><ele>650.6666666666666</ele><time>2026-05-04T08:56:20Z</time></trkpt><trkpt lat="43.796121168031625" lon="12.275601680507007"><ele>650.8333333333334</ele><time>2026-05-04T08:56:21Z</time></trkpt><trkpt lat="43.79610677878009" lon="12.275504410109246"><ele>651.0</ele><time>2026-05-04T08:56:22Z</time></trkpt><trkpt lat="43.796117624414414" lon="12.275379186471934"><ele>652.5999999999999</ele><time>2026-05-04T08:56:24Z</time></trkpt><trkpt lat="43.79613059519259" lon="12.275242534917938"><ele>654.2</ele><time>2026-05-04T08:56:26Z</time></trkpt><trkpt lat="43.79621500275648" lon="12.275193186185675"><ele>655.8</ele><time>2026-05-04T08:56:28Z</time></trkpt><trkpt lat="43.796258023155865" lon="12.275074662299259"><ele>657.4000000000001</ele><time>2026-05-04T08:56:30Z</time></trkpt><trkpt lat="43.79620493523321" lon="12.274923698061475"><ele>659.0</ele><time>2026-05-04T08:56:32Z</time></trkpt><trkpt lat="43.796152583687" lon="12.274856594063152"><ele>660.5</ele><time>2026-05-04T08:56:33Z</time></trkpt><trkpt lat="43.79611300507633" lon="12.27476714418369"><ele>662.0</ele><time>2026-05-04T08:56:34Z</time></trkpt><trkpt lat="43.79608145067527" lon="12.274647653224697"><ele>663.5</ele><time>2026-05-04T08:56:35Z</time></trkpt><trkpt lat="43.79608025906816" lon="12.274538900113422"><ele>665.0</ele><time>2026-05-04T08:56:36Z</time></trkpt><trkpt lat="43.79607331316938" lon="12.274431507090785"><ele>666.5</ele><time>2026-05-04T08:56:37Z</time></trkpt><trkpt lat="43.79606838012948" lon="12.274303161864154"><ele>668.0</ele><time>2026-05-04T08:56:38Z</time></trkpt><trkpt lat="43.79606568499636" lon="12.274094373235725"><ele>668.0</ele><time>2026-05-04T08:56:40Z</time></trkpt><trkpt lat="43.796086554432684" lon="12.274007585962586"><ele>668.0</ele><time>2026-05-04T08:56:41Z</time></trkpt><trkpt lat="43.79604306300388" lon="12.273914311608328"><ele>668.0</ele><time>2026-05-04T08:56:45Z</time></trkpt><trkpt lat="43.79598770034636" lon="12.273825929293823"><ele>668.0</ele><time>2026-05-04T08:56:48Z</time></trkpt><trkpt lat="43.795952021691896" lon="12.273667758199796"><ele>668.0</ele><time>2026-05-04T08:56:50Z</time></trkpt><trkpt lat="43.795942396539076" lon="12.273574800842626"><ele>668.0</ele><time>2026-05-04T08:56:51Z</time></trkpt><trkpt lat="43.79591613994088" lon="12.273411141279373"><ele>668.4</ele><time>2026-05-04T08:56:53Z</time></trkpt><trkpt lat="43.79586146751767" lon="12.27326676069814"><ele>668.8</ele><time>2026-05-04T08:56:55Z</time></trkpt><trkpt lat="43.79579605151387" lon="12.2732011842035"><ele>669.2</ele><time>2026-05-04T08:56:56Z</time></trkpt><trkpt lat="43.79572960766751" lon="12.273134043158624"><ele>669.6</ele><time>2026-05-04T08:56:57Z</time></trkpt><trkpt lat="43.79566155152652" lon="12.273047183212165"><ele>670.0</ele><time>2026-05-04T08:56:58Z</time></trkpt><trkpt lat="43.79561196760569" lon="12.272958879514048"><ele>667.6666666666667</ele><time>2026-05-04T08:56:59Z</time></trkpt><trkpt lat="43.79556101481161" lon="12.272847459787595"><ele>665.3333333333334</ele><time>2026-05-04T08:57:00Z</time></trkpt><trkpt lat="43.795497351357454" lon="12.272743967938535"><ele>663.0</ele><time>2026-05-04T08:57:01Z</time></trkpt><trkpt lat="43.79544262910198" lon="12.272684170513614"><ele>660.6666666666666</ele><time>2026-05-04T08:57:02Z</time></trkpt><trkpt lat="43.7953719858664" lon="12.272641461668142"><ele>658.3333333333333</ele><time>2026-05-04T08:57:03Z</time></trkpt><trkpt lat="43.795293232738516" lon="12.272546469638835"><ele>656.0</ele><time>2026-05-04T08:57:05Z</time></trkpt><trkpt lat="43.79529337594191" lon="12.272430605346974"><ele>656.0</ele><time>2026-05-04T08:57:07Z</time></trkpt><trkpt lat="43.795374548292635" lon="12.27229233190027"><ele>656.0</ele><time>2026-05-04T08:57:09Z</time></trkpt><trkpt lat="43.79542620742234" lon="12.272206233122484"><ele>656.0</ele><time>2026-05-04T08:57:10Z</time></trkpt><trkpt lat="43.79549507124741" lon="12.2721341254128"><ele>656.0</ele><time>2026-05-04T08:57:11Z</time></trkpt><trkpt lat="43.79552605278389" lon="12.272029987803803"><ele>656.0</ele><time>2026-05-04T08:57:12Z</time></trkpt><trkpt lat="43.79555627699832" lon="12.27193152356236"><ele>655.0</ele><time>2026-05-04T08:57:13Z</time></trkpt><trkpt lat="43.7955973309382" lon="12.27183295614183"><ele>654.0</ele><time>2026-05-04T08:57:14Z</time></trkpt><trkpt lat="43.79563477312925" lon="12.271711919020222"><ele>653.0</ele><time>2026-05-04T08:57:15Z</time></trkpt><trkpt lat="43.795662492928756" lon="12.271598351329613"><ele>652.0</ele><time>2026-05-04T08:57:16Z</time></trkpt><trkpt lat="43.7956841259368" lon="12.27146910386194"><ele>651.0</ele><time>2026-05-04T08:57:17Z</time></trkpt><trkpt lat="43.79570740475405" lon="12.271366006572984"><ele>650.0</ele><time>2026-05-04T08:57:18Z</time></trkpt><trkpt lat="43.79572682232988" lon="12.271246825077124"><ele>649.6666666666666</ele><time>2026-05-04T08:57:19Z</time></trkpt><trkpt lat="43.79572836798258" lon="12.271142363640918"><ele>649.3333333333333</ele><time>2026-05-04T08:57:20Z</time></trkpt><trkpt lat="43.79574146915826" lon="12.271043337024992"><ele>649.0</ele><time>2026-05-04T08:57:21Z</time></trkpt><trkpt lat="43.795750689315334" lon="12.27091910676071"><ele>648.6666666666666</ele><time>2026-05-04T08:57:22Z</time></trkpt><trkpt lat="43.795768570709754" lon="12.270817721065065"><ele>648.3333333333334</ele><time>2026-05-04T08:57:23Z</time></trkpt><trkpt lat="43.79578912767569" lon="12.270733975503965"><ele>648.0</ele><time>2026-05-04T08:57:24Z</time></trkpt><trkpt lat="43.79582006387931" lon="12.270622796862819"><ele>648.6666666666666</ele><time>2026-05-04T08:57:25Z</time></trkpt><trkpt lat="43.79585238790052" lon="12.270526875013188"><ele>649.3333333333334</ele><time>2026-05-04T08:57:26Z</time></trkpt><trkpt lat="43.79589379011234" lon="12.270440286567679"><ele>650.0</ele><time>2026-05-04T08:57:27Z</time></trkpt><trkpt lat="43.79595702024075" lon="12.270343688940569"><ele>650.6666666666667</ele><time>2026-05-04T08:57:28Z</time></trkpt><trkpt lat="43.79603369353426" lon="12.270260000366953"><ele>651.3333333333334</ele><time>2026-05-04T08:57:29Z</time></trkpt><trkpt lat="43.79611905192047" lon="12.270205183433339"><ele>652.0</ele><time>2026-05-04T08:57:30Z</time></trkpt><trkpt lat="43.79619391259557" lon="12.270119244968093"><ele>650.6666666666667</ele><time>2026-05-04T08:57:31Z</time></trkpt><trkpt lat="43.796253753609946" lon="12.270055400184857"><ele>649.3333333333334</ele><time>2026-05-04T08:57:32Z</time></trkpt><trkpt lat="43.796307972369924" lon="12.26997602475127"><ele>648.0</ele><time>2026-05-04T08:57:33Z</time></trkpt><trkpt lat="43.79635294324798" lon="12.269887564625408"><ele>646.6666666666666</ele><time>2026-05-04T08:57:34Z</time></trkpt><trkpt lat="43.79639507693861" lon="12.269759702345274"><ele>645.3333333333333</ele><time>2026-05-04T08:57:35Z</time></trkpt><trkpt lat="43.79643022415827" lon="12.269655797068397"><ele>644.0</ele><time>2026-05-04T08:57:36Z</time></trkpt><trkpt lat="43.79645920142351" lon="12.269550531379487"><ele>644.0</ele><time>2026-05-04T08:57:37Z</time></trkpt><trkpt lat="43.796490755393094" lon="12.269452816394429"><ele>644.0</ele><time>2026-05-04T08:57:38Z</time></trkpt><trkpt lat="43.7965293928635" lon="12.269352957895531"><ele>644.0</ele><time>2026-05-04T08:57:39Z</time></trkpt><trkpt lat="43.796574953866866" lon="12.269285182784499"><ele>644.0</ele><time>2026-05-04T08:57:40Z</time></trkpt><trkpt lat="43.796627061836354" lon="12.269216749745581"><ele>644.0</ele><time>2026-05-04T08:57:41Z</time></trkpt><trkpt lat="43.79675345265139" lon="12.269183790320657"><ele>644.0</ele><time>2026-05-04T08:57:43Z</time></trkpt><trkpt lat="43.79684168134627" lon="12.269185624371548"><ele>642.8333333333333</ele><time>2026-05-04T08:57:44Z</time></trkpt><trkpt lat="43.796914211486225" lon="12.269190516716803"><ele>641.6666666666666</ele><time>2026-05-04T08:57:45Z</time></trkpt><trkpt lat="43.79698376398289" lon="12.269167282071065"><ele>640.5</ele><time>2026-05-04T08:57:46Z</time></trkpt><trkpt lat="43.79709038446574" lon="12.269108018772751"><ele>639.3333333333334</ele><time>2026-05-04T08:57:48Z</time></trkpt><trkpt lat="43.79715629267074" lon="12.269064400752198"><ele>638.1666666666667</ele><time>2026-05-04T08:57:50Z</time></trkpt><trkpt lat="43.79708591199117" lon="12.269000257770339"><ele>637.0</ele><time>2026-05-04T08:58:09Z</time></trkpt><trkpt lat="43.79702461236843" lon="12.268959520224636"><ele>636.8000000000001</ele><time>2026-05-04T08:58:11Z</time></trkpt><trkpt lat="43.79695611663106" lon="12.268885731090535"><ele>636.6</ele><time>2026-05-04T08:58:13Z</time></trkpt><trkpt lat="43.79687020341535" lon="12.268812351773466"><ele>636.4000000000001</ele><time>2026-05-04T08:58:15Z</time></trkpt><trkpt lat="43.79679449561667" lon="12.26873642533072"><ele>636.2</ele><time>2026-05-04T08:58:17Z</time></trkpt><trkpt lat="43.79670820701589" lon="12.268670448160151"><ele>636.0</ele><time>2026-05-04T08:58:19Z</time></trkpt><trkpt lat="43.79664962526655" lon="12.268580780654183"><ele>639.5</ele><time>2026-05-04T08:58:21Z</time></trkpt><trkpt lat="43.7965956221842" lon="12.268511234468173"><ele>643.0</ele><time>2026-05-04T08:58:23Z</time></trkpt><trkpt lat="43.79657096620877" lon="12.268418323931694"><ele>646.5</ele><time>2026-05-04T08:58:25Z</time></trkpt><trkpt lat="43.796513111895" lon="12.268311165502878"><ele>650.0</ele><time>2026-05-04T08:58:27Z</time></trkpt><trkpt lat="43.796138511971414" lon="12.268316496038814"><ele>650.0</ele><time>2026-05-04T08:58:31Z</time></trkpt><trkpt lat="43.79607789865373" lon="12.26826898353933"><ele>650.0</ele><time>2026-05-04T08:58:32Z</time></trkpt><trkpt lat="43.79601129766224" lon="12.268223079834529"><ele>650.0</ele><time>2026-05-04T08:58:33Z</time></trkpt><trkpt lat="43.79593007274353" lon="12.26817166137273"><ele>650.0</ele><time>2026-05-04T08:58:34Z</time></trkpt><trkpt lat="43.79585304596497" lon="12.26812165961717"><ele>650.0</ele><time>2026-05-04T08:58:35Z</time></trkpt><trkpt lat="43.79579543805908" lon="12.268083691274134"><ele>650.0</ele><time>2026-05-04T08:58:36Z</time></trkpt><trkpt lat="43.79570295966559" lon="12.26797672434484"><ele>652.6666666666666</ele><time>2026-05-04T08:58:38Z</time></trkpt><trkpt lat="43.79566422742138" lon="12.267891685773588"><ele>655.3333333333333</ele><time>2026-05-04T08:58:39Z</time></trkpt><trkpt lat="43.79563297125654" lon="12.26776076935524"><ele>658.0</ele><time>2026-05-04T08:58:40Z</time></trkpt><trkpt lat="43.79558990292676" lon="12.267649962885184"><ele>660.6666666666666</ele><time>2026-05-04T08:58:41Z</time></trkpt><trkpt lat="43.79554939018299" lon="12.26753358351359"><ele>663.3333333333334</ele><time>2026-05-04T08:58:42Z</time></trkpt><trkpt lat="43.79550682552435" lon="12.267421159283538"><ele>666.0</ele><time>2026-05-04T08:58:43Z</time></trkpt><trkpt lat="43.79546322747024" lon="12.26733738166246"><ele>666.0</ele><time>2026-05-04T08:58:44Z</time></trkpt><trkpt lat="43.795406137814155" lon="12.26723436917155"><ele>666.0</ele><time>2026-05-04T08:58:45Z</time></trkpt><trkpt lat="43.795340698714206" lon="12.26719197575894"><ele>666.0</ele><time>2026-05-04T08:58:46Z</time></trkpt><trkpt lat="43.79525093665898" lon="12.26715203853348"><ele>666.0</ele><time>2026-05-04T08:58:47Z</time></trkpt><trkpt lat="43.795157548263646" lon="12.26709720215952"><ele>666.0</ele><time>2026-05-04T08:58:48Z</time></trkpt><trkpt lat="43.795068464176616" lon="12.267051668487202"><ele>669.0</ele><time>2026-05-04T08:58:49Z</time></trkpt><trkpt lat="43.79492489952167" lon="12.267015322726367"><ele>672.0</ele><time>2026-05-04T08:58:51Z</time></trkpt><trkpt lat="43.79484082005308" lon="12.266969894135801"><ele>675.0</ele><time>2026-05-04T08:58:52Z</time></trkpt><trkpt lat="43.79475427573467" lon="12.266955718908692"><ele>678.0</ele><time>2026-05-04T08:58:53Z</time></trkpt><trkpt lat="43.79466214465235" lon="12.266918872771507"><ele>681.0</ele><time>2026-05-04T08:58:54Z</time></trkpt><trkpt lat="43.79459331982635" lon="12.266917279461849"><ele>681.0</ele><time>2026-05-04T08:58:55Z</time></trkpt><trkpt lat="43.79451235522292" lon="12.26688543970013"><ele>681.0</ele><time>2026-05-04T08:58:56Z</time></trkpt><trkpt lat="43.79443294154006" lon="12.266847255272076"><ele>681.0</ele><time>2026-05-04T08:58:57Z</time></trkpt><trkpt lat="43.79435477740101" lon="12.266850968456195"><ele>681.0</ele><time>2026-05-04T08:58:58Z</time></trkpt><trkpt lat="43.79426520085492" lon="12.266828069686962"><ele>681.0</ele><time>2026-05-04T08:58:59Z</time></trkpt><trkpt lat="43.794182666475145" lon="12.26678805776092"><ele>681.0</ele><time>2026-05-04T08:59:00Z</time></trkpt><trkpt lat="43.79407961480182" lon="12.266741447743073"><ele>683.6666666666666</ele><time>2026-05-04T08:59:02Z</time></trkpt><trkpt lat="43.794011181509866" lon="12.266721575711905"><ele>686.3333333333334</ele><time>2026-05-04T08:59:03Z</time></trkpt><trkpt lat="43.79394119973032" lon="12.266691508829252"><ele>689.0</ele><time>2026-05-04T08:59:04Z</time></trkpt><trkpt lat="43.793847408589386" lon="12.266617366602144"><ele>691.6666666666667</ele><time>2026-05-04T08:59:06Z</time></trkpt><trkpt lat="43.79378889209957" lon="12.266560165167746"><ele>694.3333333333334</ele><time>2026-05-04T08:59:07Z</time></trkpt><trkpt lat="43.793727220699196" lon="12.266510535026102"><ele>697.0</ele><time>2026-05-04T08:59:08Z</time></trkpt><trkpt lat="43.79366273093907" lon="12.266491681618561"><ele>697.0</ele><time>2026-05-04T08:59:09Z</time></trkpt><trkpt lat="43.79359888113325" lon="12.266466343210544"><ele>697.0</ele><time>2026-05-04T08:59:10Z</time></trkpt><trkpt lat="43.79349479091525" lon="12.266430252778292"><ele>697.0</ele><time>2026-05-04T08:59:12Z</time></trkpt><trkpt lat="43.79338416489564" lon="12.266448037774062"><ele>697.0</ele><time>2026-05-04T08:59:14Z</time></trkpt><trkpt lat="43.79328996601973" lon="12.266474110310007"><ele>697.0</ele><time>2026-05-04T08:59:16Z</time></trkpt><trkpt lat="43.79320307315775" lon="12.266478040553983"><ele>699.8</ele><time>2026-05-04T08:59:18Z</time></trkpt><trkpt lat="43.79311014922351" lon="12.26647902641994"><ele>702.6</ele><time>2026-05-04T08:59:20Z</time></trkpt><trkpt lat="43.79303198855818" lon="12.266461384116308"><ele>705.4</ele><time>2026-05-04T08:59:22Z</time></trkpt><trkpt lat="43.7929377585377" lon="12.266440440344002"><ele>708.1999999999999</ele><time>2026-05-04T08:59:24Z</time></trkpt><trkpt lat="43.79284365054547" lon="12.266429662637798"><ele>711.0</ele><time>2026-05-04T08:59:26Z</time></trkpt><trkpt lat="43.79274642337521" lon="12.266424637870506"><ele>714.0</ele><time>2026-05-04T08:59:28Z</time></trkpt><trkpt lat="43.79264282621864" lon="12.266421509086891"><ele>717.0</ele><time>2026-05-04T08:59:30Z</time></trkpt><trkpt lat="43.79256672900219" lon="12.266350359783232"><ele>720.0</ele><time>2026-05-04T08:59:32Z</time></trkpt><trkpt lat="43.7925080819005" lon="12.266292358595337"><ele>723.0</ele><time>2026-05-04T08:59:33Z</time></trkpt><trkpt lat="43.792414668606796" lon="12.266182414275024"><ele>726.0</ele><time>2026-05-04T08:59:35Z</time></trkpt><trkpt lat="43.792379942228024" lon="12.266097655051874"><ele>726.0</ele><time>2026-05-04T08:59:37Z</time></trkpt><trkpt lat="43.792323806597395" lon="12.26598025005296"><ele>726.0</ele><time>2026-05-04T08:59:40Z</time></trkpt><trkpt lat="43.792263821680145" lon="12.265865854379234"><ele>726.0</ele><time>2026-05-04T08:59:42Z</time></trkpt><trkpt lat="43.79219949143172" lon="12.26579524698973"><ele>726.0</ele><time>2026-05-04T08:59:50Z</time></trkpt><trkpt lat="43.79215795225944" lon="12.265723203989339"><ele>726.0</ele><time>2026-05-04T08:59:51Z</time></trkpt><trkpt lat="43.792119248825514" lon="12.26564337682068"><ele>726.0</ele><time>2026-05-04T08:59:52Z</time></trkpt><trkpt lat="43.79208617058816" lon="12.265565888286677"><ele>725.4</ele><time>2026-05-04T08:59:53Z</time></trkpt><trkpt lat="43.79200797857211" lon="12.265459615398859"><ele>724.8</ele><time>2026-05-04T08:59:55Z</time></trkpt><trkpt lat="43.79195265653441" lon="12.265409827448318"><ele>724.1999999999999</ele><time>2026-05-04T08:59:56Z</time></trkpt><trkpt lat="43.79188315528362" lon="12.265337019215313"><ele>723.5999999999999</ele><time>2026-05-04T08:59:57Z</time></trkpt><trkpt lat="43.79181998574385" lon="12.265262930558007"><ele>723.0</ele><time>2026-05-04T08:59:58Z</time></trkpt><trkpt lat="43.79174363034991" lon="12.265148646490578"><ele>726.3333333333334</ele><time>2026-05-04T09:00:00Z</time></trkpt><trkpt lat="43.791668914326586" lon="12.265070919958037"><ele>729.6666666666666</ele><time>2026-05-04T09:00:01Z</time></trkpt><trkpt lat="43.79161224561993" lon="12.265009199715044"><ele>733.0</ele><time>2026-05-04T09:00:02Z</time></trkpt><trkpt lat="43.79150745499856" lon="12.264906310020967"><ele>736.3333333333333</ele><time>2026-05-04T09:00:04Z</time></trkpt><trkpt lat="43.79143836524774" lon="12.2648404935734"><ele>739.6666666666666</ele><time>2026-05-04T09:00:05Z</time></trkpt><trkpt lat="43.79138824484141" lon="12.264778624715854"><ele>743.0</ele><time>2026-05-04T09:00:06Z</time></trkpt><trkpt lat="43.791332475724445" lon="12.264702674320798"><ele>743.2</ele><time>2026-05-04T09:00:07Z</time></trkpt><trkpt lat="43.791246234538185" lon="12.264608527509527"><ele>743.4</ele><time>2026-05-04T09:00:09Z</time></trkpt><trkpt lat="43.79118137369961" lon="12.264519799310674"><ele>743.6</ele><time>2026-05-04T09:00:11Z</time></trkpt><trkpt lat="43.791112604647935" lon="12.264489040048389"><ele>743.8000000000001</ele><time>2026-05-04T09:00:12Z</time></trkpt><trkpt lat="43.79104379673733" lon="12.264465149466181"><ele>744.0</ele><time>2026-05-04T09:00:13Z</time></trkpt><trkpt lat="43.790935817767945" lon="12.264399758541797"><ele>746.6666666666666</ele><time>2026-05-04T09:00:15Z</time></trkpt><trkpt lat="43.790885866135454" lon="12.264345240548371"><ele>749.3333333333334</ele><time>2026-05-04T09:00:16Z</time></trkpt><trkpt lat="43.79082421442992" lon="12.264292464690978"><ele>752.0</ele><time>2026-05-04T09:00:17Z</time></trkpt><trkpt lat="43.79075808746727" lon="12.264224685893938"><ele>754.6666666666667</ele><time>2026-05-04T09:00:18Z</time></trkpt><trkpt lat="43.79069669890492" lon="12.264151242848731"><ele>757.3333333333334</ele><time>2026-05-04T09:00:19Z</time></trkpt><trkpt lat="43.790580567848174" lon="12.26406661647479"><ele>760.0</ele><time>2026-05-04T09:00:21Z</time></trkpt><trkpt lat="43.79052188676277" lon="12.26401762436742"><ele>760.0</ele><time>2026-05-04T09:00:22Z</time></trkpt><trkpt lat="43.790469610727705" lon="12.263959802431444"><ele>760.0</ele><time>2026-05-04T09:00:23Z</time></trkpt><trkpt lat="43.7904088977371" lon="12.263920565343819"><ele>760.0</ele><time>2026-05-04T09:00:24Z</time></trkpt><trkpt lat="43.79033002696814" lon="12.263822243008326"><ele>760.0</ele><time>2026-05-04T09:00:26Z</time></trkpt><trkpt lat="43.79031198069213" lon="12.263691822903318"><ele>760.0</ele><time>2026-05-04T09:00:28Z</time></trkpt><trkpt lat="43.790246579526375" lon="12.26356244409159"><ele>759.4</ele><time>2026-05-04T09:00:30Z</time></trkpt><trkpt lat="43.79020211393777" lon="12.263401211568542"><ele>758.8</ele><time>2026-05-04T09:00:32Z</time></trkpt><trkpt lat="43.79018185010928" lon="12.26322026179506"><ele>758.2</ele><time>2026-05-04T09:00:34Z</time></trkpt><trkpt lat="43.790112431538965" lon="12.263120593429106"><ele>757.6</ele><time>2026-05-04T09:00:36Z</time></trkpt><trkpt lat="43.790094187120424" lon="12.263015493417734"><ele>757.0</ele><time>2026-05-04T09:00:39Z</time></trkpt><trkpt lat="43.79008467146951" lon="12.262875540939168"><ele>761.4000000000001</ele><time>2026-05-04T09:00:41Z</time></trkpt><trkpt lat="43.790036976338826" lon="12.262771177516148"><ele>765.8000000000001</ele><time>2026-05-04T09:00:43Z</time></trkpt><trkpt lat="43.79001389633949" lon="12.262637017979063"><ele>770.2</ele><time>2026-05-04T09:00:45Z</time></trkpt><trkpt lat="43.790003378435564" lon="12.262525363121759"><ele>774.6</ele><time>2026-05-04T09:00:47Z</time></trkpt><trkpt lat="43.78998527020117" lon="12.26239553733791"><ele>779.0</ele><time>2026-05-04T09:00:49Z</time></trkpt><trkpt lat="43.78992589288726" lon="12.262221446065631"><ele>780.4000000000001</ele><time>2026-05-04T09:00:51Z</time></trkpt><trkpt lat="43.78988617957335" lon="12.262094636164603"><ele>781.8</ele><time>2026-05-04T09:00:53Z</time></trkpt><trkpt lat="43.789864595145445" lon="12.261968063613361"><ele>783.2</ele><time>2026-05-04T09:00:55Z</time></trkpt><trkpt lat="43.789822867415566" lon="12.261854726064037"><ele>784.5999999999999</ele><time>2026-05-04T09:00:57Z</time></trkpt><trkpt lat="43.78974293911986" lon="12.261820094149464"><ele>786.0</ele><time>2026-05-04T09:00:59Z</time></trkpt><trkpt lat="43.78965300280011" lon="12.261814620005403"><ele>786.0</ele><time>2026-05-04T09:01:01Z</time></trkpt><trkpt lat="43.789575666631336" lon="12.261791981424663"><ele>786.0</ele><time>2026-05-04T09:01:03Z</time></trkpt><trkpt lat="43.78950477992434" lon="12.261845729771272"><ele>786.0</ele><time>2026-05-04T09:01:32Z</time></trkpt><trkpt lat="43.78945442549018" lon="12.261765849477316"><ele>786.0</ele><time>2026-05-04T09:01:34Z</time></trkpt><trkpt lat="43.789419853557206" lon="12.261618129649335"><ele>786.0</ele><time>2026-05-04T09:01:36Z</time></trkpt><trkpt lat="43.78938979441717" lon="12.261529827883516"><ele>786.0</ele><time>2026-05-04T09:01:37Z</time></trkpt><trkpt lat="43.7892956179014" lon="12.261399597186188"><ele>787.1999999999999</ele><time>2026-05-04T09:01:39Z</time></trkpt><trkpt lat="43.789251733425736" lon="12.261323824176586"><ele>788.4</ele><time>2026-05-04T09:01:40Z</time></trkpt><trkpt lat="43.78920267744967" lon="12.261245067637907"><ele>789.6</ele><time>2026-05-04T09:01:41Z</time></trkpt><trkpt lat="43.789135873356976" lon="12.261089646742084"><ele>790.8</ele><time>2026-05-04T09:01:43Z</time></trkpt><trkpt lat="43.78906859034115" lon="12.260966963198634"><ele>792.0</ele><time>2026-05-04T09:01:45Z</time></trkpt><trkpt lat="43.78898490530607" lon="12.260857576309325"><ele>792.0</ele><time>2026-05-04T09:01:47Z</time></trkpt><trkpt lat="43.788905275894024" lon="12.260737392906995"><ele>792.0</ele><time>2026-05-04T09:01:49Z</time></trkpt><trkpt lat="43.78882705277626" lon="12.26070060725399"><ele>792.0</ele><time>2026-05-04T09:01:51Z</time></trkpt><trkpt lat="43.78875986335231" lon="12.260663358075309"><ele>792.0</ele><time>2026-05-04T09:01:52Z</time></trkpt><trkpt lat="43.788694698923294" lon="12.260636534043622"><ele>792.0</ele><time>2026-05-04T09:01:53Z</time></trkpt><trkpt lat="43.788627293332034" lon="12.260594964287852"><ele>792.0</ele><time>2026-05-04T09:01:54Z</time></trkpt><trkpt lat="43.78852811185482" lon="12.260522559683968"><ele>794.8</ele><time>2026-05-04T09:01:56Z</time></trkpt><trkpt lat="43.788465192117" lon="12.260487979108985"><ele>797.6</ele><time>2026-05-04T09:01:57Z</time></trkpt><trkpt lat="43.78839253315074" lon="12.260450076043885"><ele>800.4</ele><time>2026-05-04T09:01:58Z</time></trkpt><trkpt lat="43.78831712534363" lon="12.260418587411538"><ele>803.1999999999999</ele><time>2026-05-04T09:01:59Z</time></trkpt><trkpt lat="43.78818948821735" lon="12.260359032683855"><ele>806.0</ele><time>2026-05-04T09:02:01Z</time></trkpt><trkpt lat="43.788075775316365" lon="12.260268414981189"><ele>806.0</ele><time>2026-05-04T09:02:03Z</time></trkpt><trkpt lat="43.78802266352329" lon="12.26020658459027"><ele>806.0</ele><time>2026-05-04T09:02:04Z</time></trkpt><trkpt lat="43.78797009837978" lon="12.26013983135188"><ele>806.0</ele><time>2026-05-04T09:02:05Z</time></trkpt><trkpt lat="43.78790392893686" lon="12.260030969972167"><ele>806.0</ele><time>2026-05-04T09:02:07Z</time></trkpt><trkpt lat="43.78780102675738" lon="12.260011789953229"><ele>806.0</ele><time>2026-05-04T09:02:10Z</time></trkpt><trkpt lat="43.78768826553732" lon="12.259995415388493"><ele>808.5000000000001</ele><time>2026-05-04T09:02:12Z</time></trkpt><trkpt lat="43.78762319308443" lon="12.259970267621892"><ele>811.0</ele><time>2026-05-04T09:02:13Z</time></trkpt><trkpt lat="43.787565411072755" lon="12.2599262163911"><ele>813.5</ele><time>2026-05-04T09:02:14Z</time></trkpt><trkpt lat="43.787479239703366" lon="12.259904344160327"><ele>816.0</ele><time>2026-05-04T09:02:16Z</time></trkpt><trkpt lat="43.78736706539715" lon="12.259901954820814"><ele>818.5000000000001</ele><time>2026-05-04T09:02:18Z</time></trkpt><trkpt lat="43.78725549353867" lon="12.259888557125308"><ele>821.0</ele><time>2026-05-04T09:02:20Z</time></trkpt><trkpt lat="43.78719232880086" lon="12.259877336126127"><ele>821.0</ele><time>2026-05-04T09:02:21Z</time></trkpt><trkpt lat="43.78710369820872" lon="12.259798191470791"><ele>821.0</ele><time>2026-05-04T09:02:23Z</time></trkpt><trkpt lat="43.78700230908395" lon="12.259805642349246"><ele>821.0</ele><time>2026-05-04T09:02:25Z</time></trkpt><trkpt lat="43.78693683824699" lon="12.259813586123704"><ele>821.0</ele><time>2026-05-04T09:02:26Z</time></trkpt><trkpt lat="43.78683079229969" lon="12.259792913883448"><ele>821.0</ele><time>2026-05-04T09:02:28Z</time></trkpt><trkpt lat="43.78672694975103" lon="12.259794604708187"><ele>821.6666666666667</ele><time>2026-05-04T09:02:30Z</time></trkpt><trkpt lat="43.786615931258325" lon="12.259762676282858"><ele>822.3333333333334</ele><time>2026-05-04T09:02:32Z</time></trkpt><trkpt lat="43.786553183064576" lon="12.259750103013527"><ele>823.0</ele><time>2026-05-04T09:02:33Z</time></trkpt><trkpt lat="43.78648898971322" lon="12.259755480683543"><ele>823.6666666666667</ele><time>2026-05-04T09:02:34Z</time></trkpt><trkpt lat="43.786376302779104" lon="12.259783833891872"><ele>824.3333333333334</ele><time>2026-05-04T09:02:36Z</time></trkpt><trkpt lat="43.78629774427711" lon="12.259817896687503"><ele>825.0</ele><time>2026-05-04T09:02:37Z</time></trkpt><trkpt lat="43.78621903253803" lon="12.259828048597178"><ele>827.0</ele><time>2026-05-04T09:02:38Z</time></trkpt><trkpt lat="43.78615244645841" lon="12.259861663555165"><ele>829.0</ele><time>2026-05-04T09:02:39Z</time></trkpt><trkpt lat="43.78608869955502" lon="12.25986987160898"><ele>831.0</ele><time>2026-05-04T09:02:40Z</time></trkpt><trkpt lat="43.786026737074536" lon="12.259850203623479"><ele>833.0</ele><time>2026-05-04T09:02:41Z</time></trkpt><trkpt lat="43.78596420221751" lon="12.259829979806959"><ele>835.0</ele><time>2026-05-04T09:02:42Z</time></trkpt><trkpt lat="43.7859049132432" lon="12.259864132760812"><ele>837.0</ele><time>2026-05-04T09:02:43Z</time></trkpt><trkpt lat="43.78581092793157" lon="12.259905322248715"><ele>839.0</ele><time>2026-05-04T09:02:45Z</time></trkpt><trkpt lat="43.78573776133279" lon="12.259904335178412"><ele>841.2</ele><time>2026-05-04T09:02:47Z</time></trkpt><trkpt lat="43.7856201619466" lon="12.259950107450528"><ele>843.4000000000001</ele><time>2026-05-04T09:02:49Z</time></trkpt><trkpt lat="43.78555058301118" lon="12.259954298155854"><ele>845.6</ele><time>2026-05-04T09:02:50Z</time></trkpt><trkpt lat="43.785444500703264" lon="12.259925091728988"><ele>847.8</ele><time>2026-05-04T09:02:52Z</time></trkpt><trkpt lat="43.78533489677892" lon="12.259886862948937"><ele>850.0</ele><time>2026-05-04T09:02:54Z</time></trkpt><trkpt lat="43.78523582967716" lon="12.259922848258766"><ele>850.0</ele><time>2026-05-04T09:02:56Z</time></trkpt><trkpt lat="43.78518020769377" lon="12.259968324116864"><ele>850.0</ele><time>2026-05-04T09:02:57Z</time></trkpt><trkpt lat="43.785092240014194" lon="12.260059810235417"><ele>850.0</ele><time>2026-05-04T09:02:59Z</time></trkpt><trkpt lat="43.78500408628712" lon="12.260127586010807"><ele>850.0</ele><time>2026-05-04T09:03:01Z</time></trkpt><trkpt lat="43.78491700139529" lon="12.260188122489353"><ele>850.0</ele><time>2026-05-04T09:03:03Z</time></trkpt><trkpt lat="43.78483899384079" lon="12.260243563642598"><ele>852.2</ele><time>2026-05-04T09:03:05Z</time></trkpt><trkpt lat="43.78474234925701" lon="12.260269614350868"><ele>854.4</ele><time>2026-05-04T09:03:07Z</time></trkpt><trkpt lat="43.78463796406625" lon="12.26023175130388"><ele>856.5999999999999</ele><time>2026-05-04T09:03:09Z</time></trkpt><trkpt lat="43.78452053671373" lon="12.260214257161108"><ele>858.8</ele><time>2026-05-04T09:03:11Z</time></trkpt><trkpt lat="43.78441589744778" lon="12.260238269655092"><ele>861.0</ele><time>2026-05-04T09:03:13Z</time></trkpt><trkpt lat="43.78431148682016" lon="12.260181453151338"><ele>863.0</ele><time>2026-05-04T09:03:15Z</time></trkpt><trkpt lat="43.78421114078078" lon="12.26016313051498"><ele>865.0</ele><time>2026-05-04T09:03:17Z</time></trkpt><trkpt lat="43.78412889037518" lon="12.26010939563463"><ele>867.0</ele><time>2026-05-04T09:03:19Z</time></trkpt><trkpt lat="43.78403843548857" lon="12.260062417382036"><ele>869.0</ele><time>2026-05-04T09:03:21Z</time></trkpt><trkpt lat="43.78397241810354" lon="12.260020584794992"><ele>871.0</ele><time>2026-05-04T09:03:23Z</time></trkpt><trkpt lat="43.78390667033247" lon="12.259996478972711"><ele>873.0</ele><time>2026-05-04T09:03:25Z</time></trkpt><trkpt lat="43.783815372098005" lon="12.2599657056857"><ele>873.0</ele><time>2026-05-04T09:03:27Z</time></trkpt><trkpt lat="43.783731304999336" lon="12.259926939907595"><ele>873.0</ele><time>2026-05-04T09:03:29Z</time></trkpt><trkpt lat="43.78363224835732" lon="12.259898409306384"><ele>873.0</ele><time>2026-05-04T09:03:31Z</time></trkpt><trkpt lat="43.78356477870624" lon="12.259844449769622"><ele>873.0</ele><time>2026-05-04T09:03:33Z</time></trkpt><trkpt lat="43.7835176043652" lon="12.25975231253933"><ele>873.0</ele><time>2026-05-04T09:03:35Z</time></trkpt><trkpt lat="43.78344135789819" lon="12.259618215954251"><ele>875.8</ele><time>2026-05-04T09:03:37Z</time></trkpt><trkpt lat="43.78336319562702" lon="12.259511202590817"><ele>878.5999999999999</ele><time>2026-05-04T09:03:39Z</time></trkpt><trkpt lat="43.78328981233154" lon="12.25940368379006"><ele>881.4000000000001</ele><time>2026-05-04T09:03:41Z</time></trkpt><trkpt lat="43.78323266870295" lon="12.259290756857126"><ele>884.2</ele><time>2026-05-04T09:03:43Z</time></trkpt><trkpt lat="43.78317987046052" lon="12.259182080705076"><ele>887.0</ele><time>2026-05-04T09:03:45Z</time></trkpt><trkpt lat="43.783132522587685" lon="12.259069330716104"><ele>887.0000000000001</ele><time>2026-05-04T09:03:47Z</time></trkpt><trkpt lat="43.78306811042532" lon="12.258987670845064"><ele>887.0</ele><time>2026-05-04T09:03:49Z</time></trkpt><trkpt lat="43.78297959849432" lon="12.258965851915654"><ele>887.0</ele><time>2026-05-04T09:03:51Z</time></trkpt><trkpt lat="43.782909168014044" lon="12.25896522288032"><ele>887.0</ele><time>2026-05-04T09:03:53Z</time></trkpt><trkpt lat="43.78285344760043" lon="12.258864344789986"><ele>887.0000000000001</ele><time>2026-05-04T09:05:21Z</time></trkpt><trkpt lat="43.78283298739859" lon="12.258766581388604"><ele>887.0</ele><time>2026-05-04T09:05:23Z</time></trkpt><trkpt lat="43.78281786609298" lon="12.258662307593216"><ele>886.4000000000001</ele><time>2026-05-04T09:05:26Z</time></trkpt><trkpt lat="43.78281123091522" lon="12.258543362599575"><ele>885.8000000000001</ele><time>2026-05-04T09:05:38Z</time></trkpt><trkpt lat="43.782786526949806" lon="12.258424402933704"><ele>885.2</ele><time>2026-05-04T09:05:40Z</time></trkpt><trkpt lat="43.78276056235658" lon="12.25825351753906"><ele>884.6</ele><time>2026-05-04T09:05:42Z</time></trkpt><trkpt lat="43.782756136835346" lon="12.258150806937541"><ele>884.0</ele><time>2026-05-04T09:05:43Z</time></trkpt><trkpt lat="43.78275220449217" lon="12.258043714825526"><ele>883.3333333333334</ele><time>2026-05-04T09:05:44Z</time></trkpt><trkpt lat="43.782746266248786" lon="12.257934173718168"><ele>882.6666666666667</ele><time>2026-05-04T09:05:45Z</time></trkpt><trkpt lat="43.78274590292664" lon="12.257820353084977"><ele>882.0</ele><time>2026-05-04T09:05:46Z</time></trkpt><trkpt lat="43.782744579285804" lon="12.257700400266947"><ele>881.3333333333333</ele><time>2026-05-04T09:05:47Z</time></trkpt><trkpt lat="43.78274299135369" lon="12.257571248706547"><ele>880.6666666666666</ele><time>2026-05-04T09:05:48Z</time></trkpt><trkpt lat="43.78274292396346" lon="12.257445496840948"><ele>880.0</ele><time>2026-05-04T09:05:49Z</time></trkpt><trkpt lat="43.782746907700364" lon="12.257321131311008"><ele>878.8</ele><time>2026-05-04T09:05:50Z</time></trkpt><trkpt lat="43.78274933164169" lon="12.257195265091305"><ele>877.6</ele><time>2026-05-04T09:05:51Z</time></trkpt><trkpt lat="43.78275142849194" lon="12.257063520437324"><ele>876.4000000000001</ele><time>2026-05-04T09:05:52Z</time></trkpt><trkpt lat="43.78276656928572" lon="12.256930450968753"><ele>875.2</ele><time>2026-05-04T09:05:53Z</time></trkpt><trkpt lat="43.78277438704708" lon="12.25680086793693"><ele>874.0</ele><time>2026-05-04T09:05:54Z</time></trkpt><trkpt lat="43.78277527305191" lon="12.256661154161051"><ele>874.0</ele><time>2026-05-04T09:05:55Z</time></trkpt><trkpt lat="43.782786930044246" lon="12.25652484978228"><ele>874.0000000000001</ele><time>2026-05-04T09:05:56Z</time></trkpt><trkpt lat="43.78280627333316" lon="12.256385603461833"><ele>874.0000000000001</ele><time>2026-05-04T09:05:57Z</time></trkpt><trkpt lat="43.78283421229609" lon="12.256246905306028"><ele>874.0</ele><time>2026-05-04T09:05:58Z</time></trkpt><trkpt lat="43.78286066105322" lon="12.25611494974106"><ele>874.0</ele><time>2026-05-04T09:05:59Z</time></trkpt><trkpt lat="43.78288711668642" lon="12.255976557714328"><ele>872.8000000000001</ele><time>2026-05-04T09:06:00Z</time></trkpt><trkpt lat="43.78291105623713" lon="12.255843096119888"><ele>871.6000000000001</ele><time>2026-05-04T09:06:01Z</time></trkpt><trkpt lat="43.78293748143214" lon="12.255715412255395"><ele>870.4</ele><time>2026-05-04T09:06:02Z</time></trkpt><trkpt lat="43.78296224177289" lon="12.255593244349987"><ele>869.2</ele><time>2026-05-04T09:06:03Z</time></trkpt><trkpt lat="43.78298492109721" lon="12.255472775214507"><ele>868.0</ele><time>2026-05-04T09:06:04Z</time></trkpt><trkpt lat="43.78300667198589" lon="12.25536016384424"><ele>866.4999999999999</ele><time>2026-05-04T09:06:05Z</time></trkpt><trkpt lat="43.78303011363223" lon="12.255246485815073"><ele>865.0</ele><time>2026-05-04T09:06:06Z</time></trkpt><trkpt lat="43.783051646101654" lon="12.255132992911136"><ele>863.5</ele><time>2026-05-04T09:06:07Z</time></trkpt><trkpt lat="43.78307293318884" lon="12.255021736341913"><ele>862.0</ele><time>2026-05-04T09:06:08Z</time></trkpt><trkpt lat="43.783093918111774" lon="12.254902318647563"><ele>860.4999999999999</ele><time>2026-05-04T09:06:09Z</time></trkpt><trkpt lat="43.783117186530745" lon="12.25478623756025"><ele>859.0</ele><time>2026-05-04T09:06:10Z</time></trkpt><trkpt lat="43.783140240532056" lon="12.25466612248783"><ele>858.4000000000001</ele><time>2026-05-04T09:06:11Z</time></trkpt><trkpt lat="43.7831654672593" lon="12.25454063570165"><ele>857.8000000000001</ele><time>2026-05-04T09:06:12Z</time></trkpt><trkpt lat="43.78319045626677" lon="12.254418579826345"><ele>857.1999999999999</ele><time>2026-05-04T09:06:13Z</time></trkpt><trkpt lat="43.78321356399561" lon="12.254296594276111"><ele>856.5999999999999</ele><time>2026-05-04T09:06:14Z</time></trkpt><trkpt lat="43.78323840355373" lon="12.254175820362688"><ele>856.0</ele><time>2026-05-04T09:06:15Z</time></trkpt><trkpt lat="43.783260769767494" lon="12.25405012228605"><ele>855.8</ele><time>2026-05-04T09:06:16Z</time></trkpt><trkpt lat="43.78328309346986" lon="12.25393051191848"><ele>855.5999999999999</ele><time>2026-05-04T09:06:17Z</time></trkpt><trkpt lat="43.78331199156754" lon="12.253800022132967"><ele>855.4</ele><time>2026-05-04T09:06:18Z</time></trkpt><trkpt lat="43.783336804248165" lon="12.253670089461322"><ele>855.2</ele><time>2026-05-04T09:06:19Z</time></trkpt><trkpt lat="43.78335700988488" lon="12.253539528324756"><ele>855.0</ele><time>2026-05-04T09:06:20Z</time></trkpt><trkpt lat="43.783367269260815" lon="12.25341387895475"><ele>855.0</ele><time>2026-05-04T09:06:21Z</time></trkpt><trkpt lat="43.78336873257378" lon="12.253290224012938"><ele>855.0</ele><time>2026-05-04T09:06:22Z</time></trkpt><trkpt lat="43.78336760408926" lon="12.253172335460155"><ele>855.0</ele><time>2026-05-04T09:06:23Z</time></trkpt><trkpt lat="43.78336904362788" lon="12.253050252916694"><ele>855.0</ele><time>2026-05-04T09:06:24Z</time></trkpt><trkpt lat="43.78336864274262" lon="12.252931098979209"><ele>855.0</ele><time>2026-05-04T09:06:25Z</time></trkpt><trkpt lat="43.78336545607617" lon="12.252807311874665"><ele>855.0</ele><time>2026-05-04T09:06:26Z</time></trkpt><trkpt lat="43.783359420781785" lon="12.252697817377575"><ele>854.5</ele><time>2026-05-04T09:06:27Z</time></trkpt><trkpt lat="43.783357081507575" lon="12.252582446394742"><ele>854.0</ele><time>2026-05-04T09:06:28Z</time></trkpt><trkpt lat="43.78335159095209" lon="12.252471948823898"><ele>853.5</ele><time>2026-05-04T09:06:29Z</time></trkpt><trkpt lat="43.78334979662302" lon="12.252358581114242"><ele>853.0</ele><time>2026-05-04T09:06:30Z</time></trkpt><trkpt lat="43.78335054669179" lon="12.252232792132329"><ele>852.5</ele><time>2026-05-04T09:06:31Z</time></trkpt><trkpt lat="43.78334734198522" lon="12.25208460784346"><ele>852.0</ele><time>2026-05-04T09:06:32Z</time></trkpt><trkpt lat="43.783348217312465" lon="12.251914089998396"><ele>850.75</ele><time>2026-05-04T09:06:33Z</time></trkpt><trkpt lat="43.783344174806764" lon="12.251755934364724"><ele>849.5</ele><time>2026-05-04T09:06:34Z</time></trkpt><trkpt lat="43.78333875665318" lon="12.251595933239171"><ele>848.25</ele><time>2026-05-04T09:06:35Z</time></trkpt><trkpt lat="43.783327906304095" lon="12.251437380698597"><ele>847.0</ele><time>2026-05-04T09:06:36Z</time></trkpt><trkpt lat="43.78331335615142" lon="12.25128548982494"><ele>845.75</ele><time>2026-05-04T09:06:37Z</time></trkpt><trkpt lat="43.78329796570437" lon="12.251136922238043"><ele>844.5</ele><time>2026-05-04T09:06:38Z</time></trkpt><trkpt lat="43.783281317724594" lon="12.250993356937618"><ele>843.25</ele><time>2026-05-04T09:06:39Z</time></trkpt><trkpt lat="43.78325232800152" lon="12.250695529789954"><ele>842.0</ele><time>2026-05-04T09:06:41Z</time></trkpt><trkpt lat="43.78324117906028" lon="12.250550001146706"><ele>841.0</ele><time>2026-05-04T09:06:42Z</time></trkpt><trkpt lat="43.78323372104536" lon="12.250399962407045"><ele>840.0</ele><time>2026-05-04T09:06:43Z</time></trkpt><trkpt lat="43.78323712978635" lon="12.250249611773146"><ele>839.0</ele><time>2026-05-04T09:06:44Z</time></trkpt><trkpt lat="43.78324923822861" lon="12.250104884829573"><ele>838.0</ele><time>2026-05-04T09:06:45Z</time></trkpt><trkpt lat="43.783251666864295" lon="12.249961290981917"><ele>837.0</ele><time>2026-05-04T09:06:46Z</time></trkpt><trkpt lat="43.78325352776053" lon="12.24981842629581"><ele>836.2</ele><time>2026-05-04T09:06:47Z</time></trkpt><trkpt lat="43.78325743299076" lon="12.249682420527934"><ele>835.4000000000001</ele><time>2026-05-04T09:06:48Z</time></trkpt><trkpt lat="43.78326067685071" lon="12.24954245977745"><ele>834.5999999999999</ele><time>2026-05-04T09:06:49Z</time></trkpt><trkpt lat="43.783261091128594" lon="12.249407105903275"><ele>833.8</ele><time>2026-05-04T09:06:50Z</time></trkpt><trkpt lat="43.783262250916785" lon="12.249277423753853"><ele>833.0</ele><time>2026-05-04T09:06:51Z</time></trkpt><trkpt lat="43.78326587356169" lon="12.249142712592237"><ele>833.0000000000001</ele><time>2026-05-04T09:06:52Z</time></trkpt><trkpt lat="43.78326826883895" lon="12.249014099413042"><ele>833.0</ele><time>2026-05-04T09:06:53Z</time></trkpt><trkpt lat="43.78327134051835" lon="12.248888374386599"><ele>833.0</ele><time>2026-05-04T09:06:54Z</time></trkpt><trkpt lat="43.78327349015865" lon="12.248768034571242"><ele>833.0</ele><time>2026-05-04T09:06:55Z</time></trkpt><trkpt lat="43.783275004476046" lon="12.248663524857346"><ele>833.0000000000001</ele><time>2026-05-04T09:06:56Z</time></trkpt><trkpt lat="43.78327719183729" lon="12.248564557399035"><ele>833.0</ele><time>2026-05-04T09:06:57Z</time></trkpt><trkpt lat="43.78327391730056" lon="12.248477070091074"><ele>832.8</ele><time>2026-05-04T09:06:58Z</time></trkpt><trkpt lat="43.78327953886735" lon="12.24833252917984"><ele>832.5999999999999</ele><time>2026-05-04T09:07:00Z</time></trkpt><trkpt lat="43.78327316100324" lon="12.248245336159652"><ele>832.4000000000001</ele><time>2026-05-04T09:07:04Z</time></trkpt><trkpt lat="43.78310099628761" lon="12.248287572310296"><ele>832.2</ele><time>2026-05-04T09:07:06Z</time></trkpt><trkpt lat="43.78305737877622" lon="12.248355068685747"><ele>832.0</ele><time>2026-05-04T09:07:07Z</time></trkpt><trkpt lat="43.783011319618936" lon="12.24841821651305"><ele>831.9999999999999</ele><time>2026-05-04T09:07:08Z</time></trkpt><trkpt lat="43.78296856335016" lon="12.248483822294684"><ele>832.0</ele><time>2026-05-04T09:07:09Z</time></trkpt><trkpt lat="43.78292130437672" lon="12.248560852178679"><ele>832.0</ele><time>2026-05-04T09:07:10Z</time></trkpt><trkpt lat="43.78287262500832" lon="12.248643675287362"><ele>832.0</ele><time>2026-05-04T09:07:11Z</time></trkpt><trkpt lat="43.782827454069164" lon="12.248754610198032"><ele>831.9999999999999</ele><time>2026-05-04T09:07:12Z</time></trkpt><trkpt lat="43.782763318986966" lon="12.248865338639554"><ele>832.0</ele><time>2026-05-04T09:07:13Z</time></trkpt><trkpt lat="43.78268309404083" lon="12.248965691677439"><ele>832.4000000000001</ele><time>2026-05-04T09:07:14Z</time></trkpt><trkpt lat="43.78262711744345" lon="12.249090093580074"><ele>832.8000000000001</ele><time>2026-05-04T09:07:15Z</time></trkpt><trkpt lat="43.78255363566532" lon="12.249194487566687"><ele>833.2</ele><time>2026-05-04T09:07:16Z</time></trkpt><trkpt lat="43.78247712291258" lon="12.249295700351393"><ele>833.6</ele><time>2026-05-04T09:07:17Z</time></trkpt><trkpt lat="43.782396622215735" lon="12.249395453736211"><ele>834.0</ele><time>2026-05-04T09:07:18Z</time></trkpt><trkpt lat="43.78231355962589" lon="12.249491321522344"><ele>834.0</ele><time>2026-05-04T09:07:19Z</time></trkpt><trkpt lat="43.78223144536386" lon="12.249582600003901"><ele>834.0</ele><time>2026-05-04T09:07:20Z</time></trkpt><trkpt lat="43.78215556657319" lon="12.249681157596726"><ele>834.0</ele><time>2026-05-04T09:07:21Z</time></trkpt><trkpt lat="43.78207273356731" lon="12.249783908290949"><ele>834.0</ele><time>2026-05-04T09:07:22Z</time></trkpt><trkpt lat="43.78202295163689" lon="12.249917611609156"><ele>834.0</ele><time>2026-05-04T09:07:23Z</time></trkpt><trkpt lat="43.781976706750484" lon="12.25006890413161"><ele>836.25</ele><time>2026-05-04T09:07:24Z</time></trkpt><trkpt lat="43.78194175896708" lon="12.250242459957596"><ele>838.5</ele><time>2026-05-04T09:07:25Z</time></trkpt><trkpt lat="43.781916127931524" lon="12.250409218465732"><ele>840.75</ele><time>2026-05-04T09:07:26Z</time></trkpt><trkpt lat="43.78188908982951" lon="12.25057458107471"><ele>843.0</ele><time>2026-05-04T09:07:27Z</time></trkpt><trkpt lat="43.781859100614035" lon="12.25073666924012"><ele>840.75</ele><time>2026-05-04T09:07:28Z</time></trkpt><trkpt lat="43.78181357040734" lon="12.25089539364278"><ele>838.5</ele><time>2026-05-04T09:07:29Z</time></trkpt><trkpt lat="43.78175672734002" lon="12.251046924263152"><ele>836.25</ele><time>2026-05-04T09:07:30Z</time></trkpt><trkpt lat="43.78169694740135" lon="12.251196629629954"><ele>834.0</ele><time>2026-05-04T09:07:31Z</time></trkpt><trkpt lat="43.78164452115509" lon="12.251345946263328"><ele>835.5</ele><time>2026-05-04T09:07:32Z</time></trkpt><trkpt lat="43.78159307966867" lon="12.251497907242138"><ele>837.0</ele><time>2026-05-04T09:07:33Z</time></trkpt><trkpt lat="43.78155066861492" lon="12.251654489644459"><ele>838.5</ele><time>2026-05-04T09:07:34Z</time></trkpt><trkpt lat="43.781514867393916" lon="12.251809291720313"><ele>840.0</ele><time>2026-05-04T09:07:35Z</time></trkpt><trkpt lat="43.78149490003264" lon="12.251977776359201"><ele>840.0</ele><time>2026-05-04T09:07:36Z</time></trkpt><trkpt lat="43.78148338939646" lon="12.252149184425491"><ele>840.0</ele><time>2026-05-04T09:07:37Z</time></trkpt><trkpt lat="43.78148856603984" lon="12.252327316634597"><ele>840.0</ele><time>2026-05-04T09:07:38Z</time></trkpt><trkpt lat="43.78149634682189" lon="12.252506548780415"><ele>840.0</ele><time>2026-05-04T09:07:39Z</time></trkpt><trkpt lat="43.781522129928135" lon="12.252679374290542"><ele>840.0</ele><time>2026-05-04T09:07:40Z</time></trkpt><trkpt lat="43.781532948926" lon="12.252847193487769"><ele>840.0</ele><time>2026-05-04T09:07:41Z</time></trkpt><trkpt lat="43.781525312769936" lon="12.253008372593424"><ele>840.0</ele><time>2026-05-04T09:07:42Z</time></trkpt><trkpt lat="43.78148855067393" lon="12.253167190117194"><ele>840.0</ele><time>2026-05-04T09:07:43Z</time></trkpt><trkpt lat="43.78141230644233" lon="12.25330855482706"><ele>840.0</ele><time>2026-05-04T09:07:44Z</time></trkpt><trkpt lat="43.78133564368945" lon="12.253451832674923"><ele>840.0</ele><time>2026-05-04T09:07:45Z</time></trkpt><trkpt lat="43.78126286982337" lon="12.253608943816255"><ele>840.0</ele><time>2026-05-04T09:07:46Z</time></trkpt><trkpt lat="43.78117375433436" lon="12.253758120446355"><ele>840.0</ele><time>2026-05-04T09:07:47Z</time></trkpt><trkpt lat="43.78108590042625" lon="12.25390639826594"><ele>837.5</ele><time>2026-05-04T09:07:48Z</time></trkpt><trkpt lat="43.78100304901203" lon="12.254060813058867"><ele>835.0</ele><time>2026-05-04T09:07:49Z</time></trkpt><trkpt lat="43.780920118253874" lon="12.254207414277168"><ele>832.5</ele><time>2026-05-04T09:07:50Z</time></trkpt><trkpt lat="43.780842350689284" lon="12.25435622527675"><ele>830.0</ele><time>2026-05-04T09:07:51Z</time></trkpt><trkpt lat="43.78076449749081" lon="12.254505565728905"><ele>830.0</ele><time>2026-05-04T09:07:52Z</time></trkpt><trkpt lat="43.780692307352396" lon="12.254652833496415"><ele>830.0</ele><time>2026-05-04T09:07:53Z</time></trkpt><trkpt lat="43.780616529804384" lon="12.254805581911196"><ele>830.0</ele><time>2026-05-04T09:07:54Z</time></trkpt><trkpt lat="43.78054495848261" lon="12.254955484224103"><ele>830.0</ele><time>2026-05-04T09:07:55Z</time></trkpt><trkpt lat="43.78047196071792" lon="12.255105905947834"><ele>831.0</ele><time>2026-05-04T09:07:56Z</time></trkpt><trkpt lat="43.78039976911015" lon="12.25525387813939"><ele>832.0</ele><time>2026-05-04T09:07:57Z</time></trkpt><trkpt lat="43.78032809716611" lon="12.255399208758089"><ele>833.0</ele><time>2026-05-04T09:07:58Z</time></trkpt><trkpt lat="43.7802527519751" lon="12.255525519940528"><ele>834.0</ele><time>2026-05-04T09:07:59Z</time></trkpt><trkpt lat="43.780166233124305" lon="12.255646275457815"><ele>831.75</ele><time>2026-05-04T09:08:00Z</time></trkpt><trkpt lat="43.78007526854274" lon="12.255764504784594"><ele>829.5</ele><time>2026-05-04T09:08:01Z</time></trkpt><trkpt lat="43.77998260448585" lon="12.255876001159773"><ele>827.25</ele><time>2026-05-04T09:08:02Z</time></trkpt><trkpt lat="43.779890071533636" lon="12.255984033387444"><ele>825.0</ele><time>2026-05-04T09:08:03Z</time></trkpt><trkpt lat="43.77978556814695" lon="12.256071381111752"><ele>825.0</ele><time>2026-05-04T09:08:04Z</time></trkpt><trkpt lat="43.77970634489664" lon="12.256200561865413"><ele>825.0</ele><time>2026-05-04T09:08:05Z</time></trkpt><trkpt lat="43.779614982670275" lon="12.256313680458858"><ele>825.0</ele><time>2026-05-04T09:08:06Z</time></trkpt><trkpt lat="43.779532658124175" lon="12.25643720694572"><ele>825.0</ele><time>2026-05-04T09:08:07Z</time></trkpt><trkpt lat="43.779437533155765" lon="12.256546458807058"><ele>824.5</ele><time>2026-05-04T09:08:08Z</time></trkpt><trkpt lat="43.779331921299" lon="12.256644590886548"><ele>824.0</ele><time>2026-05-04T09:08:09Z</time></trkpt><trkpt lat="43.77922130461253" lon="12.256737245378742"><ele>823.5</ele><time>2026-05-04T09:08:10Z</time></trkpt><trkpt lat="43.77911136942526" lon="12.256823857321779"><ele>823.0</ele><time>2026-05-04T09:08:11Z</time></trkpt><trkpt lat="43.7790089562604" lon="12.25690883426387"><ele>823.0</ele><time>2026-05-04T09:08:12Z</time></trkpt><trkpt lat="43.7789046350423" lon="12.256998955174785"><ele>823.0</ele><time>2026-05-04T09:08:13Z</time></trkpt><trkpt lat="43.77880655672114" lon="12.257078406580252"><ele>823.0</ele><time>2026-05-04T09:08:14Z</time></trkpt><trkpt lat="43.77870588767964" lon="12.257159594115242"><ele>823.0</ele><time>2026-05-04T09:08:15Z</time></trkpt><trkpt lat="43.778606378571105" lon="12.257236665759528"><ele>821.5999999999999</ele><time>2026-05-04T09:08:16Z</time></trkpt><trkpt lat="43.77850938684676" lon="12.257308904171527"><ele>820.1999999999999</ele><time>2026-05-04T09:08:17Z</time></trkpt><trkpt lat="43.778417431193134" lon="12.257382675746008"><ele>818.8</ele><time>2026-05-04T09:08:18Z</time></trkpt><trkpt lat="43.77833437934738" lon="12.257448087893625"><ele>817.4</ele><time>2026-05-04T09:08:19Z</time></trkpt><trkpt lat="43.77825794984519" lon="12.257501440493241"><ele>816.0</ele><time>2026-05-04T09:08:20Z</time></trkpt><trkpt lat="43.778189585114646" lon="12.257548698036322"><ele>816.0</ele><time>2026-05-04T09:08:21Z</time></trkpt><trkpt lat="43.778126803864254" lon="12.257587517455056"><ele>816.0</ele><time>2026-05-04T09:08:22Z</time></trkpt><trkpt lat="43.778054739489654" lon="12.257599347005538"><ele>816.0</ele><time>2026-05-04T09:08:23Z</time></trkpt><trkpt lat="43.77798458585476" lon="12.25756150621185"><ele>816.0</ele><time>2026-05-04T09:08:24Z</time></trkpt><trkpt lat="43.777915756493385" lon="12.257569296902973"><ele>816.0</ele><time>2026-05-04T09:08:25Z</time></trkpt><trkpt lat="43.77778990329223" lon="12.257562156199983"><ele>816.0</ele><time>2026-05-04T09:08:27Z</time></trkpt><trkpt lat="43.7777112690404" lon="12.25754046951738"><ele>814.5999999999999</ele><time>2026-05-04T09:08:28Z</time></trkpt><trkpt lat="43.777625029333635" lon="12.257541797792607"><ele>813.2</ele><time>2026-05-04T09:08:29Z</time></trkpt><trkpt lat="43.77753220427727" lon="12.25756374822068"><ele>811.8</ele><time>2026-05-04T09:08:30Z</time></trkpt><trkpt lat="43.777436563098426" lon="12.257542556371867"><ele>810.4000000000001</ele><time>2026-05-04T09:08:31Z</time></trkpt><trkpt lat="43.77732601505014" lon="12.257564695787321"><ele>809.0</ele><time>2026-05-04T09:08:32Z</time></trkpt><trkpt lat="43.777203500924855" lon="12.257557437471252"><ele>809.0</ele><time>2026-05-04T09:08:33Z</time></trkpt><trkpt lat="43.77706956096423" lon="12.257558372294055"><ele>809.0</ele><time>2026-05-04T09:08:34Z</time></trkpt><trkpt lat="43.77693533972283" lon="12.25755881492154"><ele>809.0</ele><time>2026-05-04T09:08:35Z</time></trkpt><trkpt lat="43.77679391467519" lon="12.257563309286274"><ele>809.0</ele><time>2026-05-04T09:08:36Z</time></trkpt><trkpt lat="43.77665530026648" lon="12.257565981839873"><ele>806.0</ele><time>2026-05-04T09:08:37Z</time></trkpt><trkpt lat="43.77651373174255" lon="12.257570012094538"><ele>803.0</ele><time>2026-05-04T09:08:38Z</time></trkpt><trkpt lat="43.77637432691342" lon="12.257576241070748"><ele>800.0</ele><time>2026-05-04T09:08:39Z</time></trkpt><trkpt lat="43.776236340169554" lon="12.257576512971545"><ele>797.0</ele><time>2026-05-04T09:08:40Z</time></trkpt><trkpt lat="43.776111828797795" lon="12.257583669903125"><ele>795.4000000000001</ele><time>2026-05-04T09:08:41Z</time></trkpt><trkpt lat="43.77599929621515" lon="12.25758119704266"><ele>793.8000000000001</ele><time>2026-05-04T09:08:42Z</time></trkpt><trkpt lat="43.775897405987656" lon="12.257580051597463"><ele>792.2</ele><time>2026-05-04T09:08:43Z</time></trkpt><trkpt lat="43.77580377894948" lon="12.257572330968744"><ele>790.6</ele><time>2026-05-04T09:08:44Z</time></trkpt><trkpt lat="43.77572032220478" lon="12.257540228551306"><ele>789.0</ele><time>2026-05-04T09:08:45Z</time></trkpt><trkpt lat="43.775655490127356" lon="12.257468981360137"><ele>789.0</ele><time>2026-05-04T09:08:46Z</time></trkpt><trkpt lat="43.7756091839377" lon="12.257383514869677"><ele>789.0</ele><time>2026-05-04T09:08:47Z</time></trkpt><trkpt lat="43.775578234054784" lon="12.257280318764325"><ele>789.0</ele><time>2026-05-04T09:08:48Z</time></trkpt><trkpt lat="43.77557222787714" lon="12.2571813289362"><ele>789.0</ele><time>2026-05-04T09:08:49Z</time></trkpt><trkpt lat="43.77557871010214" lon="12.257082168146013"><ele>789.0</ele><time>2026-05-04T09:08:50Z</time></trkpt><trkpt lat="43.7755939151069" lon="12.256974788269535"><ele>789.0</ele><time>2026-05-04T09:08:52Z</time></trkpt><trkpt lat="43.77557941471939" lon="12.256878980041343"><ele>788.3333333333334</ele><time>2026-05-04T09:08:55Z</time></trkpt><trkpt lat="43.77547173656553" lon="12.25688442767219"><ele>787.6666666666667</ele><time>2026-05-04T09:08:56Z</time></trkpt><trkpt lat="43.775412500649516" lon="12.256780967544826"><ele>787.0</ele><time>2026-05-04T09:08:58Z</time></trkpt><trkpt lat="43.77540074869701" lon="12.256690533565886"><ele>786.3333333333334</ele><time>2026-05-04T09:08:59Z</time></trkpt><trkpt lat="43.7753715204147" lon="12.25659423528015"><ele>785.6666666666667</ele><time>2026-05-04T09:09:00Z</time></trkpt><trkpt lat="43.775332941635554" lon="12.256512381586202"><ele>785.0</ele><time>2026-05-04T09:09:01Z</time></trkpt><trkpt lat="43.77528126938161" lon="12.256420586506186"><ele>784.8333333333334</ele><time>2026-05-04T09:09:02Z</time></trkpt><trkpt lat="43.77522068380502" lon="12.25632066931235"><ele>784.6666666666667</ele><time>2026-05-04T09:09:03Z</time></trkpt><trkpt lat="43.775169735064594" lon="12.256252678338814"><ele>784.5</ele><time>2026-05-04T09:09:04Z</time></trkpt><trkpt lat="43.77511417537303" lon="12.256192170941203"><ele>784.3333333333333</ele><time>2026-05-04T09:09:05Z</time></trkpt><trkpt lat="43.77505733377834" lon="12.2561304649358"><ele>784.1666666666666</ele><time>2026-05-04T09:09:06Z</time></trkpt><trkpt lat="43.77499412044798" lon="12.256063823449649"><ele>784.0</ele><time>2026-05-04T09:09:08Z</time></trkpt><trkpt lat="43.7749191464478" lon="12.256023455899749"><ele>783.9999999999999</ele><time>2026-05-04T09:09:46Z</time></trkpt><trkpt lat="43.77482987873064" lon="12.255963472195544"><ele>784.0</ele><time>2026-05-04T09:09:48Z</time></trkpt><trkpt lat="43.774767326602706" lon="12.255910807413363"><ele>784.0</ele><time>2026-05-04T09:09:50Z</time></trkpt><trkpt lat="43.77470128411059" lon="12.255872184839658"><ele>784.0</ele><time>2026-05-04T09:09:52Z</time></trkpt><trkpt lat="43.774636007324666" lon="12.255833888403751"><ele>783.9999999999999</ele><time>2026-05-04T09:09:54Z</time></trkpt><trkpt lat="43.77456438895281" lon="12.255788677091436"><ele>784.0</ele><time>2026-05-04T09:09:57Z</time></trkpt><trkpt lat="43.77452351615688" lon="12.25570682117847"><ele>783.3333333333333</ele><time>2026-05-04T09:10:02Z</time></trkpt><trkpt lat="43.77449477972854" lon="12.255616843613728"><ele>782.6666666666666</ele><time>2026-05-04T09:10:17Z</time></trkpt><trkpt lat="43.774435492936085" lon="12.255571863490564"><ele>782.0</ele><time>2026-05-04T09:10:19Z</time></trkpt><trkpt lat="43.774372239748644" lon="12.255532589181179"><ele>781.3333333333333</ele><time>2026-05-04T09:10:21Z</time></trkpt><trkpt lat="43.77429172665461" lon="12.255471267161042"><ele>780.6666666666666</ele><time>2026-05-04T09:10:23Z</time></trkpt><trkpt lat="43.77421346502326" lon="12.255451808480428"><ele>780.0</ele><time>2026-05-04T09:10:26Z</time></trkpt><trkpt lat="43.7743024469223" lon="12.255476593276933"><ele>779.3333333333334</ele><time>2026-05-04T09:11:16Z</time></trkpt><trkpt lat="43.774376774412815" lon="12.255536810402115"><ele>778.6666666666667</ele><time>2026-05-04T09:11:18Z</time></trkpt><trkpt lat="43.77444691291564" lon="12.25559369681826"><ele>778.0</ele><time>2026-05-04T09:11:20Z</time></trkpt><trkpt lat="43.77449959287752" lon="12.25566756178903"><ele>777.3333333333334</ele><time>2026-05-04T09:11:23Z</time></trkpt><trkpt lat="43.7745294869366" lon="12.255749666718012"><ele>776.6666666666667</ele><time>2026-05-04T09:11:34Z</time></trkpt><trkpt lat="43.77461540450825" lon="12.255834374246184"><ele>776.0</ele><time>2026-05-04T09:11:50Z</time></trkpt><trkpt lat="43.774704959445586" lon="12.255905828802673"><ele>777.5999999999999</ele><time>2026-05-04T09:11:52Z</time></trkpt><trkpt lat="43.774798304367785" lon="12.255948567004708"><ele>779.2</ele><time>2026-05-04T09:11:54Z</time></trkpt><trkpt lat="43.77491434315193" lon="12.2560051468849"><ele>780.8</ele><time>2026-05-04T09:11:56Z</time></trkpt><trkpt lat="43.774982925404956" lon="12.256062339888302"><ele>782.4000000000001</ele><time>2026-05-04T09:11:57Z</time></trkpt><trkpt lat="43.77505164939194" lon="12.256135751492195"><ele>784.0</ele><time>2026-05-04T09:11:58Z</time></trkpt><trkpt lat="43.77511853837584" lon="12.256203762797877"><ele>783.9999999999999</ele><time>2026-05-04T09:11:59Z</time></trkpt><trkpt lat="43.77516666080109" lon="12.256301769002878"><ele>784.0</ele><time>2026-05-04T09:12:00Z</time></trkpt><trkpt lat="43.775220733358424" lon="12.256384547694845"><ele>784.0</ele><time>2026-05-04T09:12:01Z</time></trkpt><trkpt lat="43.7752719099763" lon="12.256474837784745"><ele>784.0</ele><time>2026-05-04T09:12:02Z</time></trkpt><trkpt lat="43.77532080450599" lon="12.256570886567314"><ele>783.9999999999999</ele><time>2026-05-04T09:12:03Z</time></trkpt><trkpt lat="43.77536184058113" lon="12.256671331316317"><ele>784.0</ele><time>2026-05-04T09:12:04Z</time></trkpt><trkpt lat="43.77539197105241" lon="12.256776204213583"><ele>784.2</ele><time>2026-05-04T09:12:05Z</time></trkpt><trkpt lat="43.7754222530995" lon="12.256928321126365"><ele>784.4000000000001</ele><time>2026-05-04T09:12:07Z</time></trkpt><trkpt lat="43.775560102349935" lon="12.256929272006715"><ele>784.6</ele><time>2026-05-04T09:12:09Z</time></trkpt><trkpt lat="43.77554278132272" lon="12.257078955803323"><ele>784.8</ele><time>2026-05-04T09:12:11Z</time></trkpt><trkpt lat="43.77554686116139" lon="12.25719000128987"><ele>785.0</ele><time>2026-05-04T09:12:12Z</time></trkpt><trkpt lat="43.775563564428815" lon="12.257304868351993"><ele>785.8</ele><time>2026-05-04T09:12:13Z</time></trkpt><trkpt lat="43.77559748293682" lon="12.257419268475465"><ele>786.6</ele><time>2026-05-04T09:12:14Z</time></trkpt><trkpt lat="43.77565397837764" lon="12.257522587982077"><ele>787.4000000000001</ele><time>2026-05-04T09:12:15Z</time></trkpt><trkpt lat="43.77575062577207" lon="12.25759064493884"><ele>788.2</ele><time>2026-05-04T09:12:16Z</time></trkpt><trkpt lat="43.775853877944414" lon="12.257623241820868"><ele>789.0</ele><time>2026-05-04T09:12:17Z</time></trkpt><trkpt lat="43.775968361178144" lon="12.25759923020068"><ele>791.0</ele><time>2026-05-04T09:12:18Z</time></trkpt><trkpt lat="43.77608973173183" lon="12.257596151898554"><ele>793.0</ele><time>2026-05-04T09:12:19Z</time></trkpt><trkpt lat="43.77621237307537" lon="12.257586977543395"><ele>795.0</ele><time>2026-05-04T09:12:20Z</time></trkpt><trkpt lat="43.77633801507225" lon="12.257583671499978"><ele>797.0</ele><time>2026-05-04T09:12:21Z</time></trkpt><trkpt lat="43.77646821316872" lon="12.257578987298631"><ele>797.0</ele><time>2026-05-04T09:12:22Z</time></trkpt><trkpt lat="43.776602895322284" lon="12.2575806569392"><ele>797.0</ele><time>2026-05-04T09:12:23Z</time></trkpt><trkpt lat="43.77674180466729" lon="12.257577413964817"><ele>797.0</ele><time>2026-05-04T09:12:24Z</time></trkpt><trkpt lat="43.77688138507384" lon="12.257576088397919"><ele>797.0</ele><time>2026-05-04T09:12:25Z</time></trkpt><trkpt lat="43.77702601562475" lon="12.257575023648243"><ele>800.0</ele><time>2026-05-04T09:12:26Z</time></trkpt><trkpt lat="43.77717022105889" lon="12.257572772148299"><ele>803.0</ele><time>2026-05-04T09:12:27Z</time></trkpt><trkpt lat="43.77732057719849" lon="12.257570684012466"><ele>806.0</ele><time>2026-05-04T09:12:28Z</time></trkpt><trkpt lat="43.777466073528494" lon="12.257571757191219"><ele>809.0</ele><time>2026-05-04T09:12:29Z</time></trkpt><trkpt lat="43.77760855664663" lon="12.257568217863184"><ele>810.4000000000001</ele><time>2026-05-04T09:12:30Z</time></trkpt><trkpt lat="43.77772959056235" lon="12.257565642069807"><ele>811.8</ele><time>2026-05-04T09:12:31Z</time></trkpt><trkpt lat="43.777833630124164" lon="12.25758637727764"><ele>813.2</ele><time>2026-05-04T09:12:32Z</time></trkpt><trkpt lat="43.77792193667339" lon="12.257593194599233"><ele>814.5999999999999</ele><time>2026-05-04T09:12:33Z</time></trkpt><trkpt lat="43.77800984838395" lon="12.257630844745636"><ele>816.0</ele><time>2026-05-04T09:12:35Z</time></trkpt><trkpt lat="43.77797826515807" lon="12.257724583134065"><ele>816.0</ele><time>2026-05-04T09:12:37Z</time></trkpt><trkpt lat="43.77785571058023" lon="12.257813637081462"><ele>816.0</ele><time>2026-05-04T09:12:39Z</time></trkpt><trkpt lat="43.77776730497939" lon="12.257868831334676"><ele>816.0</ele><time>2026-05-04T09:12:40Z</time></trkpt><trkpt lat="43.77767019096176" lon="12.25794223201407"><ele>816.0</ele><time>2026-05-04T09:12:41Z</time></trkpt><trkpt lat="43.777565398940055" lon="12.258025008293624"><ele>816.0</ele><time>2026-05-04T09:12:42Z</time></trkpt><trkpt lat="43.777465642185646" lon="12.258107684143102"><ele>816.0</ele><time>2026-05-04T09:12:43Z</time></trkpt><trkpt lat="43.77736986279914" lon="12.25820050066518"><ele>816.0</ele><time>2026-05-04T09:12:44Z</time></trkpt><trkpt lat="43.77728597572394" lon="12.258308054016984"><ele>816.0</ele><time>2026-05-04T09:12:45Z</time></trkpt><trkpt lat="43.77721415610592" lon="12.25842873091313"><ele>816.0</ele><time>2026-05-04T09:12:46Z</time></trkpt><trkpt lat="43.7771633337725" lon="12.258573984294065"><ele>816.0</ele><time>2026-05-04T09:12:47Z</time></trkpt><trkpt lat="43.77711831707157" lon="12.258735611601335"><ele>816.0</ele><time>2026-05-04T09:12:48Z</time></trkpt><trkpt lat="43.77708447068332" lon="12.258908133926338"><ele>816.0</ele><time>2026-05-04T09:12:49Z</time></trkpt><trkpt lat="43.7770505367715" lon="12.259079972585818"><ele>814.8</ele><time>2026-05-04T09:12:50Z</time></trkpt><trkpt lat="43.77700142547667" lon="12.25923061060666"><ele>813.5999999999999</ele><time>2026-05-04T09:12:51Z</time></trkpt><trkpt lat="43.77696006754919" lon="12.25937198745018"><ele>812.4</ele><time>2026-05-04T09:12:52Z</time></trkpt><trkpt lat="43.7769093292527" lon="12.259492755120954"><ele>811.2</ele><time>2026-05-04T09:12:53Z</time></trkpt><trkpt lat="43.77685031926395" lon="12.259609479046507"><ele>810.0</ele><time>2026-05-04T09:12:54Z</time></trkpt><trkpt lat="43.77675121619782" lon="12.259682484429806"><ele>810.0</ele><time>2026-05-04T09:12:55Z</time></trkpt><trkpt lat="43.77662781905781" lon="12.259734340468837"><ele>810.0</ele><time>2026-05-04T09:12:56Z</time></trkpt><trkpt lat="43.77649228899108" lon="12.259775473981552"><ele>810.0</ele><time>2026-05-04T09:12:57Z</time></trkpt><trkpt lat="43.7763562678716" lon="12.25980792823979"><ele>810.0</ele><time>2026-05-04T09:12:58Z</time></trkpt><trkpt lat="43.77621895869602" lon="12.259843291359402"><ele>811.5</ele><time>2026-05-04T09:12:59Z</time></trkpt><trkpt lat="43.77608750097336" lon="12.259882492222339"><ele>813.0</ele><time>2026-05-04T09:13:00Z</time></trkpt><trkpt lat="43.77595744220475" lon="12.259919428489994"><ele>814.5</ele><time>2026-05-04T09:13:01Z</time></trkpt><trkpt lat="43.77582618468883" lon="12.25995749325817"><ele>816.0</ele><time>2026-05-04T09:13:02Z</time></trkpt><trkpt lat="43.77569800265185" lon="12.259985038116294"><ele>816.0</ele><time>2026-05-04T09:13:03Z</time></trkpt><trkpt lat="43.77556945921521" lon="12.259985254639965"><ele>816.0</ele><time>2026-05-04T09:13:04Z</time></trkpt><trkpt lat="43.77544059617663" lon="12.259947416359536"><ele>816.0</ele><time>2026-05-04T09:13:05Z</time></trkpt><trkpt lat="43.77530162495916" lon="12.25989340681954"><ele>816.0</ele><time>2026-05-04T09:13:06Z</time></trkpt><trkpt lat="43.77516307430739" lon="12.25983118477915"><ele>813.75</ele><time>2026-05-04T09:13:07Z</time></trkpt><trkpt lat="43.775020510651316" lon="12.259769454201335"><ele>811.5</ele><time>2026-05-04T09:13:08Z</time></trkpt><trkpt lat="43.77488176562329" lon="12.259716269091744"><ele>809.25</ele><time>2026-05-04T09:13:09Z</time></trkpt><trkpt lat="43.77474281247929" lon="12.259669060043505"><ele>807.0</ele><time>2026-05-04T09:13:10Z</time></trkpt><trkpt lat="43.774608193542356" lon="12.259622336854694"><ele>807.0</ele><time>2026-05-04T09:13:11Z</time></trkpt><trkpt lat="43.774468313904855" lon="12.25957052676378"><ele>807.0</ele><time>2026-05-04T09:13:12Z</time></trkpt><trkpt lat="43.774321835780086" lon="12.259512155246712"><ele>807.0</ele><time>2026-05-04T09:13:13Z</time></trkpt><trkpt lat="43.77417493330922" lon="12.2594490102601"><ele>808.25</ele><time>2026-05-04T09:13:14Z</time></trkpt><trkpt lat="43.774033799895136" lon="12.259390455371491"><ele>809.5</ele><time>2026-05-04T09:13:15Z</time></trkpt><trkpt lat="43.77389511496898" lon="12.259329554241045"><ele>810.75</ele><time>2026-05-04T09:13:16Z</time></trkpt><trkpt lat="43.773758861861026" lon="12.259264983763677"><ele>812.0</ele><time>2026-05-04T09:13:17Z</time></trkpt><trkpt lat="43.77362451778415" lon="12.25920308898454"><ele>813.0</ele><time>2026-05-04T09:13:18Z</time></trkpt><trkpt lat="43.773489773112935" lon="12.25914212776543"><ele>814.0</ele><time>2026-05-04T09:13:19Z</time></trkpt><trkpt lat="43.77335350946354" lon="12.259077666073397"><ele>815.0</ele><time>2026-05-04T09:13:20Z</time></trkpt><trkpt lat="43.77322047625676" lon="12.259017435074574"><ele>816.0</ele><time>2026-05-04T09:13:21Z</time></trkpt><trkpt lat="43.773088782511095" lon="12.258951236690773"><ele>814.75</ele><time>2026-05-04T09:13:22Z</time></trkpt><trkpt lat="43.772961794165774" lon="12.258876824724036"><ele>813.5</ele><time>2026-05-04T09:13:23Z</time></trkpt><trkpt lat="43.772841388534495" lon="12.258800615757078"><ele>812.25</ele><time>2026-05-04T09:13:24Z</time></trkpt><trkpt lat="43.7727327791994" lon="12.258712032841325"><ele>811.0</ele><time>2026-05-04T09:13:25Z</time></trkpt><trkpt lat="43.77263060425894" lon="12.258604190153125"><ele>811.25</ele><time>2026-05-04T09:13:26Z</time></trkpt><trkpt lat="43.7725311642016" lon="12.258480803155624"><ele>811.5</ele><time>2026-05-04T09:13:27Z</time></trkpt><trkpt lat="43.7724363037154" lon="12.258335148154803"><ele>811.75</ele><time>2026-05-04T09:13:28Z</time></trkpt><trkpt lat="43.77234193656578" lon="12.258199509255608"><ele>812.0</ele><time>2026-05-04T09:13:29Z</time></trkpt><trkpt lat="43.772242067201546" lon="12.258095821488926"><ele>812.0</ele><time>2026-05-04T09:13:30Z</time></trkpt><trkpt lat="43.77212622147034" lon="12.258009575961768"><ele>812.0</ele><time>2026-05-04T09:13:31Z</time></trkpt><trkpt lat="43.7720032049245" lon="12.257925598318053"><ele>812.0</ele><time>2026-05-04T09:13:32Z</time></trkpt><trkpt lat="43.77187519834096" lon="12.257846964608246"><ele>812.0</ele><time>2026-05-04T09:13:33Z</time></trkpt><trkpt lat="43.77174762228937" lon="12.25777671536455"><ele>814.0</ele><time>2026-05-04T09:13:34Z</time></trkpt><trkpt lat="43.77162996229825" lon="12.257721610457526"><ele>816.0</ele><time>2026-05-04T09:13:35Z</time></trkpt><trkpt lat="43.77152153921168" lon="12.25767669144144"><ele>818.0</ele><time>2026-05-04T09:13:36Z</time></trkpt><trkpt lat="43.771406208071326" lon="12.257660388929397"><ele>820.0</ele><time>2026-05-04T09:13:37Z</time></trkpt><trkpt lat="43.77127890515011" lon="12.257663960573705"><ele>820.0</ele><time>2026-05-04T09:13:38Z</time></trkpt><trkpt lat="43.771148819370424" lon="12.257665300852947"><ele>820.0</ele><time>2026-05-04T09:13:39Z</time></trkpt><trkpt lat="43.77102286730617" lon="12.257633390342328"><ele>820.0</ele><time>2026-05-04T09:13:40Z</time></trkpt><trkpt lat="43.77090743527413" lon="12.257547430631316"><ele>820.0</ele><time>2026-05-04T09:13:41Z</time></trkpt><trkpt lat="43.77079083148266" lon="12.257462640378344"><ele>819.0</ele><time>2026-05-04T09:13:42Z</time></trkpt><trkpt lat="43.77066383970128" lon="12.257386766868986"><ele>818.0</ele><time>2026-05-04T09:13:43Z</time></trkpt><trkpt lat="43.770558239637886" lon="12.257280029252044"><ele>817.0</ele><time>2026-05-04T09:13:44Z</time></trkpt><trkpt lat="43.77046800710394" lon="12.25715829079878"><ele>816.0</ele><time>2026-05-04T09:13:45Z</time></trkpt><trkpt lat="43.770389635468426" lon="12.25700571889192"><ele>816.0</ele><time>2026-05-04T09:13:46Z</time></trkpt><trkpt lat="43.77031884239014" lon="12.256837613963224"><ele>816.0</ele><time>2026-05-04T09:13:47Z</time></trkpt><trkpt lat="43.77025405390255" lon="12.256658588456034"><ele>816.0</ele><time>2026-05-04T09:13:48Z</time></trkpt><trkpt lat="43.77020728801528" lon="12.25646858582219"><ele>816.0</ele><time>2026-05-04T09:13:49Z</time></trkpt><trkpt lat="43.77017814156198" lon="12.256260129481205"><ele>817.5</ele><time>2026-05-04T09:13:50Z</time></trkpt><trkpt lat="43.77016593058437" lon="12.256050903785294"><ele>819.0</ele><time>2026-05-04T09:13:51Z</time></trkpt><trkpt lat="43.77015801470315" lon="12.25584990724206"><ele>820.5</ele><time>2026-05-04T09:13:52Z</time></trkpt><trkpt lat="43.77012491088321" lon="12.255661051096844"><ele>822.0</ele><time>2026-05-04T09:13:53Z</time></trkpt><trkpt lat="43.770070725192504" lon="12.255460088079152"><ele>822.0</ele><time>2026-05-04T09:13:54Z</time></trkpt><trkpt lat="43.77000506870707" lon="12.255278335285215"><ele>822.0</ele><time>2026-05-04T09:13:55Z</time></trkpt><trkpt lat="43.76992855377898" lon="12.255092174997475"><ele>822.0</ele><time>2026-05-04T09:13:56Z</time></trkpt><trkpt lat="43.76983986051936" lon="12.254919840842476"><ele>819.75</ele><time>2026-05-04T09:13:57Z</time></trkpt><trkpt lat="43.76975200265726" lon="12.25475993483982"><ele>817.5</ele><time>2026-05-04T09:13:58Z</time></trkpt><trkpt lat="43.76967100592775" lon="12.254610019643382"><ele>815.25</ele><time>2026-05-04T09:13:59Z</time></trkpt><trkpt lat="43.769580605657" lon="12.254479638924597"><ele>813.0</ele><time>2026-05-04T09:14:00Z</time></trkpt><trkpt lat="43.76948765403021" lon="12.254376347192427"><ele>813.0</ele><time>2026-05-04T09:14:01Z</time></trkpt><trkpt lat="43.769378471005844" lon="12.254305112023998"><ele>813.0</ele><time>2026-05-04T09:14:02Z</time></trkpt><trkpt lat="43.76925143916817" lon="12.254248108775672"><ele>813.0</ele><time>2026-05-04T09:14:03Z</time></trkpt><trkpt lat="43.76912018736967" lon="12.25422619383149"><ele>813.0</ele><time>2026-05-04T09:14:04Z</time></trkpt><trkpt lat="43.76898594403519" lon="12.254221292289092"><ele>813.25</ele><time>2026-05-04T09:14:05Z</time></trkpt><trkpt lat="43.768848887389154" lon="12.254242033658883"><ele>813.5</ele><time>2026-05-04T09:14:06Z</time></trkpt><trkpt lat="43.76870191889364" lon="12.254278546609386"><ele>813.75</ele><time>2026-05-04T09:14:07Z</time></trkpt><trkpt lat="43.768549779790526" lon="12.254325409320145"><ele>814.0</ele><time>2026-05-04T09:14:08Z</time></trkpt><trkpt lat="43.76840143882142" lon="12.2543567004211"><ele>814.0</ele><time>2026-05-04T09:14:09Z</time></trkpt><trkpt lat="43.76825683241288" lon="12.254353550200086"><ele>814.0</ele><time>2026-05-04T09:14:10Z</time></trkpt><trkpt lat="43.76810038299807" lon="12.254328361588678"><ele>814.0</ele><time>2026-05-04T09:14:11Z</time></trkpt><trkpt lat="43.7679499026721" lon="12.254298870727174"><ele>814.0</ele><time>2026-05-04T09:14:12Z</time></trkpt><trkpt lat="43.76781211607406" lon="12.25427813779995"><ele>814.0</ele><time>2026-05-04T09:14:13Z</time></trkpt><trkpt lat="43.76767617006227" lon="12.2542781625501"><ele>814.0</ele><time>2026-05-04T09:14:14Z</time></trkpt><trkpt lat="43.76754634980679" lon="12.254297969983698"><ele>814.0</ele><time>2026-05-04T09:14:15Z</time></trkpt><trkpt lat="43.76742190494263" lon="12.254333429416466"><ele>813.6</ele><time>2026-05-04T09:14:16Z</time></trkpt><trkpt lat="43.76730787448161" lon="12.254359867807375"><ele>813.2</ele><time>2026-05-04T09:14:17Z</time></trkpt><trkpt lat="43.7672090589461" lon="12.254365433693891"><ele>812.8000000000001</ele><time>2026-05-04T09:14:18Z</time></trkpt><trkpt lat="43.76712895095353" lon="12.254332718307937"><ele>812.4000000000001</ele><time>2026-05-04T09:14:19Z</time></trkpt><trkpt lat="43.76705648674664" lon="12.254260401847413"><ele>812.0</ele><time>2026-05-04T09:14:20Z</time></trkpt><trkpt lat="43.76700835190556" lon="12.254160266615024"><ele>812.0</ele><time>2026-05-04T09:14:21Z</time></trkpt><trkpt lat="43.767008573790584" lon="12.25401726993072"><ele>812.0</ele><time>2026-05-04T09:14:22Z</time></trkpt><trkpt lat="43.76699497728171" lon="12.253865609378238"><ele>812.0</ele><time>2026-05-04T09:14:23Z</time></trkpt><trkpt lat="43.76701015940561" lon="12.253689791432313"><ele>812.0</ele><time>2026-05-04T09:14:24Z</time></trkpt><trkpt lat="43.76702347409116" lon="12.253506435479089"><ele>809.75</ele><time>2026-05-04T09:14:25Z</time></trkpt><trkpt lat="43.76702237124939" lon="12.253324488817272"><ele>807.5</ele><time>2026-05-04T09:14:26Z</time></trkpt><trkpt lat="43.76700449464736" lon="12.253135129761054"><ele>805.25</ele><time>2026-05-04T09:14:27Z</time></trkpt><trkpt lat="43.76697269364023" lon="12.252949524900712"><ele>803.0</ele><time>2026-05-04T09:14:28Z</time></trkpt><trkpt lat="43.76693248714257" lon="12.25276636838431"><ele>802.0</ele><time>2026-05-04T09:14:29Z</time></trkpt><trkpt lat="43.76688624324302" lon="12.25258270731618"><ele>801.0</ele><time>2026-05-04T09:14:30Z</time></trkpt><trkpt lat="43.76684468482204" lon="12.252387031419284"><ele>800.0</ele><time>2026-05-04T09:14:31Z</time></trkpt><trkpt lat="43.766816081727356" lon="12.25219710388592"><ele>799.0</ele><time>2026-05-04T09:14:32Z</time></trkpt><trkpt lat="43.76679633856169" lon="12.252006881035049"><ele>801.0</ele><time>2026-05-04T09:14:33Z</time></trkpt><trkpt lat="43.76678522518323" lon="12.251813657585103"><ele>803.0</ele><time>2026-05-04T09:14:34Z</time></trkpt><trkpt lat="43.766780034388304" lon="12.251614736053797"><ele>805.0</ele><time>2026-05-04T09:14:35Z</time></trkpt><trkpt lat="43.76676845892402" lon="12.251434169782584"><ele>807.0</ele><time>2026-05-04T09:14:36Z</time></trkpt><trkpt lat="43.766737142200235" lon="12.251265931825335"><ele>807.0</ele><time>2026-05-04T09:14:37Z</time></trkpt><trkpt lat="43.7666783736591" lon="12.25109931007354"><ele>807.0</ele><time>2026-05-04T09:14:38Z</time></trkpt><trkpt lat="43.766618476297396" lon="12.250930456878024"><ele>807.0</ele><time>2026-05-04T09:14:39Z</time></trkpt><trkpt lat="43.7665469126073" lon="12.250767043762838"><ele>807.0</ele><time>2026-05-04T09:14:40Z</time></trkpt><trkpt lat="43.76646503225553" lon="12.250600950575338"><ele>806.75</ele><time>2026-05-04T09:14:41Z</time></trkpt><trkpt lat="43.76637952039622" lon="12.250438886806611"><ele>806.5</ele><time>2026-05-04T09:14:42Z</time></trkpt><trkpt lat="43.76630321566897" lon="12.250291752489304"><ele>806.25</ele><time>2026-05-04T09:14:43Z</time></trkpt><trkpt lat="43.76623709952866" lon="12.250147326820661"><ele>806.0</ele><time>2026-05-04T09:14:44Z</time></trkpt><trkpt lat="43.766186600693096" lon="12.250002322134725"><ele>806.0</ele><time>2026-05-04T09:14:45Z</time></trkpt><trkpt lat="43.766158155691755" lon="12.249864561500173"><ele>806.0</ele><time>2026-05-04T09:14:46Z</time></trkpt><trkpt lat="43.76615244762346" lon="12.249731332437456"><ele>806.0</ele><time>2026-05-04T09:14:47Z</time></trkpt><trkpt lat="43.76617866080833" lon="12.249598206784842"><ele>806.0</ele><time>2026-05-04T09:14:48Z</time></trkpt><trkpt lat="43.76622811486798" lon="12.249458074131384"><ele>806.0</ele><time>2026-05-04T09:14:49Z</time></trkpt><trkpt lat="43.766334074621774" lon="12.249353502964272"><ele>806.5</ele><time>2026-05-04T09:14:50Z</time></trkpt><trkpt lat="43.76644232008815" lon="12.24920892483933"><ele>807.0</ele><time>2026-05-04T09:14:51Z</time></trkpt><trkpt lat="43.76655968767297" lon="12.249090224388894"><ele>807.5</ele><time>2026-05-04T09:14:52Z</time></trkpt><trkpt lat="43.76666619584782" lon="12.248979173488864"><ele>808.0</ele><time>2026-05-04T09:14:53Z</time></trkpt><trkpt lat="43.76675813938092" lon="12.24888585272898"><ele>808.0</ele><time>2026-05-04T09:14:54Z</time></trkpt><trkpt lat="43.76683141334695" lon="12.248814952558574"><ele>808.0</ele><time>2026-05-04T09:14:55Z</time></trkpt><trkpt lat="43.766886942979724" lon="12.248765738352485"><ele>808.0</ele><time>2026-05-04T09:14:56Z</time></trkpt><trkpt lat="43.76695176083069" lon="12.248719395585667"><ele>808.0</ele><time>2026-05-04T09:14:58Z</time></trkpt><trkpt lat="43.76700461024102" lon="12.248637244000314"><ele>808.0</ele><time>2026-05-04T09:15:10Z</time></trkpt><trkpt lat="43.7669052634164" lon="12.248355448671768"><ele>809.2</ele><time>2026-05-04T09:15:12Z</time></trkpt><trkpt lat="43.76683469377465" lon="12.248213756132388"><ele>810.4</ele><time>2026-05-04T09:15:14Z</time></trkpt><trkpt lat="43.76680767387383" lon="12.248133855943557"><ele>811.6</ele><time>2026-05-04T09:15:15Z</time></trkpt><trkpt lat="43.76679536636373" lon="12.247953575100965"><ele>812.8000000000001</ele><time>2026-05-04T09:15:17Z</time></trkpt><trkpt lat="43.766789103743754" lon="12.247864162975706"><ele>814.0</ele><time>2026-05-04T09:15:18Z</time></trkpt><trkpt lat="43.766771923219466" lon="12.24776658493332"><ele>816.6</ele><time>2026-05-04T09:15:19Z</time></trkpt><trkpt lat="43.76669879524647" lon="12.24764983000495"><ele>819.2</ele><time>2026-05-04T09:15:21Z</time></trkpt><trkpt lat="43.7666603819582" lon="12.247479251645604"><ele>821.8000000000001</ele><time>2026-05-04T09:15:23Z</time></trkpt><trkpt lat="43.7666753088803" lon="12.247383519525231"><ele>824.4000000000001</ele><time>2026-05-04T09:15:24Z</time></trkpt><trkpt lat="43.766699116045935" lon="12.247284024830726"><ele>827.0</ele><time>2026-05-04T09:15:25Z</time></trkpt><trkpt lat="43.7667104869898" lon="12.247145890637654"><ele>829.4000000000001</ele><time>2026-05-04T09:15:27Z</time></trkpt><trkpt lat="43.76670165353958" lon="12.247048909886347"><ele>831.8000000000001</ele><time>2026-05-04T09:15:28Z</time></trkpt><trkpt lat="43.766685248618025" lon="12.246950950232229"><ele>834.2</ele><time>2026-05-04T09:15:29Z</time></trkpt><trkpt lat="43.76666565395263" lon="12.246841192230095"><ele>836.6</ele><time>2026-05-04T09:15:30Z</time></trkpt><trkpt lat="43.76668871558128" lon="12.24667631478096"><ele>839.0</ele><time>2026-05-04T09:15:32Z</time></trkpt><trkpt lat="43.76680015807097" lon="12.246576583914681"><ele>839.0</ele><time>2026-05-04T09:15:34Z</time></trkpt><trkpt lat="43.76685643000105" lon="12.246528851014672"><ele>839.0</ele><time>2026-05-04T09:15:35Z</time></trkpt><trkpt lat="43.766922992280264" lon="12.24647265662309"><ele>839.0</ele><time>2026-05-04T09:15:36Z</time></trkpt><trkpt lat="43.76704007720375" lon="12.246439837290916"><ele>839.0</ele><time>2026-05-04T09:15:38Z</time></trkpt><trkpt lat="43.76710976903437" lon="12.246405070903915"><ele>839.0</ele><time>2026-05-04T09:15:39Z</time></trkpt><trkpt lat="43.767212661648585" lon="12.246337752660839"><ele>838.1666666666667</ele><time>2026-05-04T09:15:41Z</time></trkpt><trkpt lat="43.76727812257219" lon="12.246259643911216"><ele>837.3333333333334</ele><time>2026-05-04T09:15:43Z</time></trkpt><trkpt lat="43.767290549704235" lon="12.246082556515802"><ele>836.5</ele><time>2026-05-04T09:15:45Z</time></trkpt><trkpt lat="43.76728237956725" lon="12.245964535780535"><ele>835.6666666666667</ele><time>2026-05-04T09:15:47Z</time></trkpt><trkpt lat="43.76727976599116" lon="12.245848340673502"><ele>834.8333333333334</ele><time>2026-05-04T09:15:49Z</time></trkpt><trkpt lat="43.767268898953574" lon="12.24576090973735"><ele>834.0</ele><time>2026-05-04T09:15:50Z</time></trkpt><trkpt lat="43.767247935591406" lon="12.24567510591052"><ele>832.8000000000001</ele><time>2026-05-04T09:15:51Z</time></trkpt><trkpt lat="43.7672150114569" lon="12.245583345958176"><ele>831.6</ele><time>2026-05-04T09:15:52Z</time></trkpt><trkpt lat="43.76719768933861" lon="12.245492342913675"><ele>830.4</ele><time>2026-05-04T09:15:53Z</time></trkpt><trkpt lat="43.76717730123425" lon="12.245316517882095"><ele>829.2</ele><time>2026-05-04T09:15:55Z</time></trkpt><trkpt lat="43.76715374099242" lon="12.245168453994092"><ele>828.0</ele><time>2026-05-04T09:15:57Z</time></trkpt><trkpt lat="43.76714245247618" lon="12.24507087656165"><ele>828.0</ele><time>2026-05-04T09:16:00Z</time></trkpt><trkpt lat="43.767153011043604" lon="12.244971890510472"><ele>828.0</ele><time>2026-05-04T09:16:07Z</time></trkpt><trkpt lat="43.76716867751078" lon="12.244880039356723"><ele>828.0</ele><time>2026-05-04T09:16:15Z</time></trkpt><trkpt lat="43.76714676393102" lon="12.244775697527576"><ele>828.0</ele><time>2026-05-04T09:16:20Z</time></trkpt><trkpt lat="43.76712961493581" lon="12.244661810248655"><ele>828.0</ele><time>2026-05-04T09:16:22Z</time></trkpt><trkpt lat="43.76713080439063" lon="12.244544108236234"><ele>828.0</ele><time>2026-05-04T09:16:24Z</time></trkpt><trkpt lat="43.76711328306347" lon="12.244432835396308"><ele>826.0</ele><time>2026-05-04T09:16:26Z</time></trkpt><trkpt lat="43.76705208406621" lon="12.24433576714178"><ele>824.0</ele><time>2026-05-04T09:16:28Z</time></trkpt><trkpt lat="43.76696157881909" lon="12.244272085359519"><ele>822.0</ele><time>2026-05-04T09:16:30Z</time></trkpt><trkpt lat="43.766903959836036" lon="12.244235065490942"><ele>820.0</ele><time>2026-05-04T09:16:31Z</time></trkpt><trkpt lat="43.766802144583714" lon="12.244165676206974"><ele>818.0</ele><time>2026-05-04T09:16:33Z</time></trkpt><trkpt lat="43.76669750964116" lon="12.244099250404277"><ele>818.2</ele><time>2026-05-04T09:16:35Z</time></trkpt><trkpt lat="43.76663984301223" lon="12.244059968959439"><ele>818.4</ele><time>2026-05-04T09:16:36Z</time></trkpt><trkpt lat="43.76655201858609" lon="12.243959163559241"><ele>818.6</ele><time>2026-05-04T09:16:38Z</time></trkpt><trkpt lat="43.766440687605794" lon="12.243902610392771"><ele>818.8000000000001</ele><time>2026-05-04T09:16:40Z</time></trkpt><trkpt lat="43.766338119419316" lon="12.243875276859706"><ele>819.0</ele><time>2026-05-04T09:16:42Z</time></trkpt><trkpt lat="43.766256189993406" lon="12.243799159144695"><ele>819.0</ele><time>2026-05-04T09:16:44Z</time></trkpt><trkpt lat="43.766246886893285" lon="12.243712819157933"><ele>819.0</ele><time>2026-05-04T09:16:45Z</time></trkpt><trkpt lat="43.76617433881139" lon="12.243651600705574"><ele>819.0</ele><time>2026-05-04T09:16:46Z</time></trkpt><trkpt lat="43.76614455229502" lon="12.243553267775168"><ele>819.0</ele><time>2026-05-04T09:16:47Z</time></trkpt><trkpt lat="43.766101475996386" lon="12.243464199178787"><ele>819.0</ele><time>2026-05-04T09:16:48Z</time></trkpt><trkpt lat="43.76608064810381" lon="12.243375558767372"><ele>819.0</ele><time>2026-05-04T09:16:49Z</time></trkpt><trkpt lat="43.76605621794067" lon="12.243290443476187"><ele>819.0</ele><time>2026-05-04T09:16:50Z</time></trkpt><trkpt lat="43.766032454691576" lon="12.243208002941092"><ele>821.75</ele><time>2026-05-04T09:16:51Z</time></trkpt><trkpt lat="43.765964906530044" lon="12.243078955651772"><ele>824.5</ele><time>2026-05-04T09:16:53Z</time></trkpt><trkpt lat="43.76586492094474" lon="12.242977617389583"><ele>827.25</ele><time>2026-05-04T09:16:55Z</time></trkpt><trkpt lat="43.76572906832764" lon="12.24292587979374"><ele>830.0</ele><time>2026-05-04T09:16:57Z</time></trkpt><trkpt lat="43.76566343143545" lon="12.242890340468078"><ele>830.0</ele><time>2026-05-04T09:16:58Z</time></trkpt><trkpt lat="43.7656148974762" lon="12.242827266205452"><ele>830.0</ele><time>2026-05-04T09:16:59Z</time></trkpt><trkpt lat="43.76554186894215" lon="12.242722692628321"><ele>830.0</ele><time>2026-05-04T09:17:01Z</time></trkpt><trkpt lat="43.76547887582343" lon="12.242568973094226"><ele>830.0</ele><time>2026-05-04T09:17:03Z</time></trkpt><trkpt lat="43.76545494105191" lon="12.24248495485631"><ele>830.0</ele><time>2026-05-04T09:17:04Z</time></trkpt><trkpt lat="43.76542324619495" lon="12.242337686848243"><ele>828.75</ele><time>2026-05-04T09:17:06Z</time></trkpt><trkpt lat="43.76540449089275" lon="12.242136227495584"><ele>827.5</ele><time>2026-05-04T09:17:08Z</time></trkpt><trkpt lat="43.76542103468322" lon="12.241919976581661"><ele>826.25</ele><time>2026-05-04T09:17:10Z</time></trkpt><trkpt lat="43.7654279529547" lon="12.241783083776514"><ele>825.0</ele><time>2026-05-04T09:17:11Z</time></trkpt><trkpt lat="43.765417653187434" lon="12.241672131007292"><ele>825.0</ele><time>2026-05-04T09:17:12Z</time></trkpt><trkpt lat="43.76538534310243" lon="12.241596257571542"><ele>825.0</ele><time>2026-05-04T09:17:13Z</time></trkpt><trkpt lat="43.76534289561568" lon="12.241524774593424"><ele>825.0</ele><time>2026-05-04T09:17:14Z</time></trkpt><trkpt lat="43.76530862145878" lon="12.241416426975947"><ele>825.0</ele><time>2026-05-04T09:17:15Z</time></trkpt><trkpt lat="43.765235702577286" lon="12.241258435821823"><ele>825.0</ele><time>2026-05-04T09:17:17Z</time></trkpt><trkpt lat="43.765187868834424" lon="12.241194761802603"><ele>825.0</ele><time>2026-05-04T09:17:18Z</time></trkpt><trkpt lat="43.76512859633338" lon="12.241139763716516"><ele>827.6666666666666</ele><time>2026-05-04T09:17:19Z</time></trkpt><trkpt lat="43.76507467868993" lon="12.241085089527472"><ele>830.3333333333333</ele><time>2026-05-04T09:17:20Z</time></trkpt><trkpt lat="43.76497605590671" lon="12.241023049348337"><ele>833.0</ele><time>2026-05-04T09:17:22Z</time></trkpt><trkpt lat="43.7648909275596" lon="12.241003801656406"><ele>835.6666666666666</ele><time>2026-05-04T09:17:23Z</time></trkpt><trkpt lat="43.76480025503437" lon="12.240986940434853"><ele>838.3333333333333</ele><time>2026-05-04T09:17:24Z</time></trkpt><trkpt lat="43.764715710674224" lon="12.240939863268194"><ele>841.0</ele><time>2026-05-04T09:17:25Z</time></trkpt><trkpt lat="43.76460680715891" lon="12.240870560266965"><ele>841.0</ele><time>2026-05-04T09:17:26Z</time></trkpt><trkpt lat="43.76447466395712" lon="12.240848017957699"><ele>841.0</ele><time>2026-05-04T09:17:27Z</time></trkpt><trkpt lat="43.7643932203336" lon="12.240796259989997"><ele>841.0</ele><time>2026-05-04T09:17:28Z</time></trkpt><trkpt lat="43.764378493611986" lon="12.24067189844644"><ele>841.0</ele><time>2026-05-04T09:17:29Z</time></trkpt><trkpt lat="43.76438095008327" lon="12.240762437299201"><ele>841.0</ele><time>2026-05-04T09:17:33Z</time></trkpt><trkpt lat="43.764381009426096" lon="12.240922184234321"><ele>841.0</ele><time>2026-05-04T09:17:35Z</time></trkpt><trkpt lat="43.76436718244955" lon="12.241061849831643"><ele>841.0</ele><time>2026-05-04T09:17:37Z</time></trkpt><trkpt lat="43.76431213323318" lon="12.241225296032718"><ele>841.0</ele><time>2026-05-04T09:17:39Z</time></trkpt><trkpt lat="43.76426607431169" lon="12.24129681505338"><ele>841.0</ele><time>2026-05-04T09:17:40Z</time></trkpt><trkpt lat="43.76422051061093" lon="12.241382205628486"><ele>841.0</ele><time>2026-05-04T09:17:41Z</time></trkpt><trkpt lat="43.764173717488596" lon="12.241463505856856"><ele>841.9999999999999</ele><time>2026-05-04T09:17:42Z</time></trkpt><trkpt lat="43.764123893635585" lon="12.241541993335495"><ele>843.0</ele><time>2026-05-04T09:17:43Z</time></trkpt><trkpt lat="43.76406361697465" lon="12.241620907625604"><ele>844.0</ele><time>2026-05-04T09:17:44Z</time></trkpt><trkpt lat="43.76401072467646" lon="12.241709843781726"><ele>845.0</ele><time>2026-05-04T09:17:45Z</time></trkpt><trkpt lat="43.76395132321563" lon="12.2417890181372"><ele>845.9999999999999</ele><time>2026-05-04T09:17:46Z</time></trkpt><trkpt lat="43.76389858974507" lon="12.24187211264762"><ele>847.0</ele><time>2026-05-04T09:17:47Z</time></trkpt><trkpt lat="43.763847228537756" lon="12.241958064317714"><ele>846.9999999999999</ele><time>2026-05-04T09:17:48Z</time></trkpt><trkpt lat="43.76378333078475" lon="12.242106010903695"><ele>847.0</ele><time>2026-05-04T09:17:50Z</time></trkpt><trkpt lat="43.76376330080252" lon="12.242196284034867"><ele>847.0</ele><time>2026-05-04T09:17:51Z</time></trkpt><trkpt lat="43.76376093883606" lon="12.242290041550529"><ele>847.0</ele><time>2026-05-04T09:17:52Z</time></trkpt><trkpt lat="43.763760273831146" lon="12.242393244066596"><ele>846.9999999999999</ele><time>2026-05-04T09:17:53Z</time></trkpt><trkpt lat="43.76376779197536" lon="12.242493419108676"><ele>847.0</ele><time>2026-05-04T09:17:54Z</time></trkpt><trkpt lat="43.763776389385775" lon="12.242601817489504"><ele>848.3333333333333</ele><time>2026-05-04T09:17:55Z</time></trkpt><trkpt lat="43.76378943505504" lon="12.242726514429112"><ele>849.6666666666666</ele><time>2026-05-04T09:17:56Z</time></trkpt><trkpt lat="43.763795376251" lon="12.242843970625819"><ele>851.0</ele><time>2026-05-04T09:17:57Z</time></trkpt><trkpt lat="43.76377934904904" lon="12.242947050352317"><ele>852.3333333333333</ele><time>2026-05-04T09:17:58Z</time></trkpt><trkpt lat="43.76374382721114" lon="12.24305678677184"><ele>853.6666666666666</ele><time>2026-05-04T09:17:59Z</time></trkpt><trkpt lat="43.76369372296036" lon="12.243147347713336"><ele>855.0</ele><time>2026-05-04T09:18:00Z</time></trkpt><trkpt lat="43.76363678411796" lon="12.243240994055064"><ele>855.0</ele><time>2026-05-04T09:18:01Z</time></trkpt><trkpt lat="43.763595341414096" lon="12.243319842694243"><ele>855.0</ele><time>2026-05-04T09:18:02Z</time></trkpt><trkpt lat="43.763530590527644" lon="12.243374418999517"><ele>855.0</ele><time>2026-05-04T09:18:04Z</time></trkpt><trkpt lat="43.763601535847556" lon="12.243337275763999"><ele>855.0</ele><time>2026-05-04T09:18:29Z</time></trkpt><trkpt lat="43.76365268837938" lon="12.243193931665271"><ele>855.0</ele><time>2026-05-04T09:18:31Z</time></trkpt><trkpt lat="43.763687259141356" lon="12.243120251633956"><ele>855.0</ele><time>2026-05-04T09:18:32Z</time></trkpt><trkpt lat="43.76376297399942" lon="12.24297571279703"><ele>855.0</ele><time>2026-05-04T09:18:34Z</time></trkpt><trkpt lat="43.763787904191744" lon="12.242889789397264"><ele>855.0</ele><time>2026-05-04T09:18:35Z</time></trkpt><trkpt lat="43.76379244202712" lon="12.242735317889805"><ele>855.0</ele><time>2026-05-04T09:18:37Z</time></trkpt><trkpt lat="43.76377147765416" lon="12.242575059759941"><ele>855.0</ele><time>2026-05-04T09:18:39Z</time></trkpt><trkpt lat="43.76376059844718" lon="12.242486920649062"><ele>855.0</ele><time>2026-05-04T09:18:40Z</time></trkpt><trkpt lat="43.76375475116006" lon="12.242347836236465"><ele>855.0</ele><time>2026-05-04T09:18:42Z</time></trkpt><trkpt lat="43.763696069876914" lon="12.242312767364103"><ele>855.0</ele><time>2026-05-04T09:18:47Z</time></trkpt><trkpt lat="43.7636329506282" lon="12.24239083721257"><ele>855.0</ele><time>2026-05-04T09:18:49Z</time></trkpt><trkpt lat="43.763584199131756" lon="12.242470743439181"><ele>855.0</ele><time>2026-05-04T09:18:52Z</time></trkpt><trkpt lat="43.76354138999818" lon="12.2425544784981"><ele>855.0</ele><time>2026-05-04T09:18:56Z</time></trkpt><trkpt lat="43.76349224515629" lon="12.242648101227733"><ele>855.0</ele><time>2026-05-04T09:19:04Z</time></trkpt><trkpt lat="43.76344638795489" lon="12.242722733195427"><ele>852.8571428571429</ele><time>2026-05-04T09:19:07Z</time></trkpt><trkpt lat="43.763404657090696" lon="12.242791304618084"><ele>850.7142857142857</ele><time>2026-05-04T09:19:10Z</time></trkpt><trkpt lat="43.763347570475204" lon="12.242836006820337"><ele>848.5714285714286</ele><time>2026-05-04T09:19:13Z</time></trkpt><trkpt lat="43.76328675308176" lon="12.242767511852785"><ele>846.4285714285714</ele><time>2026-05-04T09:19:16Z</time></trkpt><trkpt lat="43.76323375691341" lon="12.242699480117343"><ele>844.2857142857142</ele><time>2026-05-04T09:19:20Z</time></trkpt><trkpt lat="43.76317832307754" lon="12.242656862506328"><ele>842.1428571428571</ele><time>2026-05-04T09:19:26Z</time></trkpt><trkpt lat="43.76309757272893" lon="12.242655193007593"><ele>840.0</ele><time>2026-05-04T09:20:43Z</time></trkpt><trkpt lat="43.76304462451663" lon="12.242552400361653"><ele>840.0</ele><time>2026-05-04T09:20:46Z</time></trkpt><trkpt lat="43.76296564831182" lon="12.242467137060906"><ele>840.0</ele><time>2026-05-04T09:20:48Z</time></trkpt><trkpt lat="43.762870003957566" lon="12.242410149801657"><ele>840.0</ele><time>2026-05-04T09:20:50Z</time></trkpt><trkpt lat="43.76280581180273" lon="12.242379856486236"><ele>840.0</ele><time>2026-05-04T09:20:51Z</time></trkpt><trkpt lat="43.7627066466474" lon="12.242335993025813"><ele>840.0</ele><time>2026-05-04T09:20:53Z</time></trkpt><trkpt lat="43.7626405097438" lon="12.24231293884825"><ele>840.0</ele><time>2026-05-04T09:20:56Z</time></trkpt><trkpt lat="43.76232466028991" lon="12.242211260263305"><ele>838.4285714285714</ele><time>2026-05-04T09:21:07Z</time></trkpt><trkpt lat="43.7622782932199" lon="12.242295925353812"><ele>836.8571428571429</ele><time>2026-05-04T09:21:08Z</time></trkpt><trkpt lat="43.76223222469089" lon="12.24237999228483"><ele>835.2857142857142</ele><time>2026-05-04T09:21:09Z</time></trkpt><trkpt lat="43.76219011271873" lon="12.24246073948713"><ele>833.7142857142858</ele><time>2026-05-04T09:21:10Z</time></trkpt><trkpt lat="43.76214047311463" lon="12.242539351927043"><ele>832.1428571428571</ele><time>2026-05-04T09:21:11Z</time></trkpt><trkpt lat="43.76209329956957" lon="12.24261275078551"><ele>830.5714285714286</ele><time>2026-05-04T09:21:12Z</time></trkpt><trkpt lat="43.762040960583484" lon="12.24268612235784"><ele>829.0</ele><time>2026-05-04T09:21:13Z</time></trkpt><trkpt lat="43.761988751557176" lon="12.242759355741562"><ele>828.9999999999999</ele><time>2026-05-04T09:21:14Z</time></trkpt><trkpt lat="43.76193097188262" lon="12.2428370095751"><ele>829.0</ele><time>2026-05-04T09:21:15Z</time></trkpt><trkpt lat="43.7618717657186" lon="12.242914776627469"><ele>829.0</ele><time>2026-05-04T09:21:16Z</time></trkpt><trkpt lat="43.76181731452315" lon="12.242998462924"><ele>829.0</ele><time>2026-05-04T09:21:17Z</time></trkpt><trkpt lat="43.76176390063268" lon="12.243094501289619"><ele>828.9999999999999</ele><time>2026-05-04T09:21:18Z</time></trkpt><trkpt lat="43.76170401248809" lon="12.2431770611622"><ele>829.0</ele><time>2026-05-04T09:21:19Z</time></trkpt><trkpt lat="43.761661400581396" lon="12.243293078022967"><ele>828.6666666666666</ele><time>2026-05-04T09:21:20Z</time></trkpt><trkpt lat="43.76162527695106" lon="12.243407161038748"><ele>828.3333333333333</ele><time>2026-05-04T09:21:21Z</time></trkpt><trkpt lat="43.76160292599044" lon="12.243529055732589"><ele>828.0</ele><time>2026-05-04T09:21:22Z</time></trkpt><trkpt lat="43.761561472457984" lon="12.243637924605371"><ele>827.6666666666667</ele><time>2026-05-04T09:21:23Z</time></trkpt><trkpt lat="43.76152989451555" lon="12.243749001910967"><ele>827.3333333333334</ele><time>2026-05-04T09:21:24Z</time></trkpt><trkpt lat="43.7614902520681" lon="12.243859636147768"><ele>827.0</ele><time>2026-05-04T09:21:25Z</time></trkpt><trkpt lat="43.76144583516271" lon="12.243963317015433"><ele>828.0000000000001</ele><time>2026-05-04T09:21:26Z</time></trkpt><trkpt lat="43.761386585382276" lon="12.244066607224019"><ele>829.0</ele><time>2026-05-04T09:21:27Z</time></trkpt><trkpt lat="43.76133611006076" lon="12.244133167413755"><ele>830.0</ele><time>2026-05-04T09:21:28Z</time></trkpt><trkpt lat="43.76126109374004" lon="12.244182547772441"><ele>831.0</ele><time>2026-05-04T09:21:31Z</time></trkpt><trkpt lat="43.761229641761545" lon="12.244263107426619"><ele>832.0000000000001</ele><time>2026-05-04T09:21:35Z</time></trkpt><trkpt lat="43.76130947061201" lon="12.244178189526739"><ele>833.0</ele><time>2026-05-04T09:21:38Z</time></trkpt><trkpt lat="43.76155306745488" lon="12.244082418066517"><ele>833.0</ele><time>2026-05-04T09:21:39Z</time></trkpt><trkpt lat="43.761402388339505" lon="12.244097407253715"><ele>833.0</ele><time>2026-05-04T09:21:40Z</time></trkpt><trkpt lat="43.76142739537916" lon="12.243965772488771"><ele>833.0</ele><time>2026-05-04T09:21:42Z</time></trkpt><trkpt lat="43.761374768982854" lon="12.243817699279408"><ele>833.0</ele><time>2026-05-04T09:21:44Z</time></trkpt><trkpt lat="43.761326089074146" lon="12.243742807838947"><ele>833.0</ele><time>2026-05-04T09:21:45Z</time></trkpt><trkpt lat="43.76127763171653" lon="12.243659383697395"><ele>832.0000000000001</ele><time>2026-05-04T09:21:46Z</time></trkpt><trkpt lat="43.76121974390237" lon="12.243597345354603"><ele>831.0</ele><time>2026-05-04T09:21:47Z</time></trkpt><trkpt lat="43.76116404945347" lon="12.243545666499795"><ele>830.0</ele><time>2026-05-04T09:21:48Z</time></trkpt><trkpt lat="43.7610805184909" lon="12.24349754411724"><ele>829.0</ele><time>2026-05-04T09:21:50Z</time></trkpt><trkpt lat="43.76100006324355" lon="12.24348649530926"><ele>828.0000000000001</ele><time>2026-05-04T09:21:52Z</time></trkpt><trkpt lat="43.760923757605006" lon="12.243509554732013"><ele>827.0</ele><time>2026-05-04T09:21:55Z</time></trkpt><trkpt lat="43.76083212026331" lon="12.243486892561556"><ele>824.6</ele><time>2026-05-04T09:21:59Z</time></trkpt><trkpt lat="43.76078324536818" lon="12.243286150323621"><ele>822.2</ele><time>2026-05-04T09:22:02Z</time></trkpt><trkpt lat="43.760731999192416" lon="12.243192480969599"><ele>819.8</ele><time>2026-05-04T09:22:04Z</time></trkpt><trkpt lat="43.76065811500164" lon="12.243084236986848"><ele>817.4</ele><time>2026-05-04T09:22:06Z</time></trkpt><trkpt lat="43.76059518380995" lon="12.24300979643921"><ele>815.0</ele><time>2026-05-04T09:22:08Z</time></trkpt><trkpt lat="43.76056102711457" lon="12.242934435232048"><ele>815.0</ele><time>2026-05-04T09:22:16Z</time></trkpt><trkpt lat="43.76061197535333" lon="12.243022986044224"><ele>815.0</ele><time>2026-05-04T09:22:20Z</time></trkpt><trkpt lat="43.760682752537804" lon="12.243106945124037"><ele>815.0</ele><time>2026-05-04T09:22:22Z</time></trkpt><trkpt lat="43.76074671688946" lon="12.243218446020977"><ele>815.0</ele><time>2026-05-04T09:22:24Z</time></trkpt><trkpt lat="43.76081104001896" lon="12.243324029827335"><ele>815.0</ele><time>2026-05-04T09:22:26Z</time></trkpt><trkpt lat="43.7608469422801" lon="12.243419671768521"><ele>815.0</ele><time>2026-05-04T09:22:28Z</time></trkpt><trkpt lat="43.76096323778374" lon="12.243473339206844"><ele>815.0</ele><time>2026-05-04T09:22:30Z</time></trkpt><trkpt lat="43.760767004510576" lon="12.243625145331261"><ele>815.0</ele><time>2026-05-04T09:22:34Z</time></trkpt><trkpt lat="43.760666528048674" lon="12.243691591073452"><ele>815.0</ele><time>2026-05-04T09:22:36Z</time></trkpt><trkpt lat="43.760563877817745" lon="12.243748058090546"><ele>815.0</ele><time>2026-05-04T09:22:38Z</time></trkpt><trkpt lat="43.76048500153122" lon="12.243850129924184"><ele>815.0</ele><time>2026-05-04T09:22:40Z</time></trkpt><trkpt lat="43.76037420125955" lon="12.24390841567818"><ele>815.0</ele><time>2026-05-04T09:22:42Z</time></trkpt><trkpt lat="43.76025584575483" lon="12.243907129171003"><ele>812.4</ele><time>2026-05-04T09:22:44Z</time></trkpt><trkpt lat="43.760150151376244" lon="12.2438480217865"><ele>809.8</ele><time>2026-05-04T09:22:46Z</time></trkpt><trkpt lat="43.76005056861049" lon="12.24376634653226"><ele>807.2</ele><time>2026-05-04T09:22:48Z</time></trkpt><trkpt lat="43.75997481019272" lon="12.243677461470547"><ele>804.6</ele><time>2026-05-04T09:22:50Z</time></trkpt><trkpt lat="43.75989593573828" lon="12.243566642132597"><ele>802.0</ele><time>2026-05-04T09:22:52Z</time></trkpt><trkpt lat="43.75981127253729" lon="12.243442733522759"><ele>801.9999999999999</ele><time>2026-05-04T09:22:54Z</time></trkpt><trkpt lat="43.75976725368125" lon="12.243378935376363"><ele>802.0</ele><time>2026-05-04T09:22:55Z</time></trkpt><trkpt lat="43.759720016545586" lon="12.243294734306064"><ele>802.0</ele><time>2026-05-04T09:22:56Z</time></trkpt><trkpt lat="43.75967331669489" lon="12.24320951998811"><ele>802.0</ele><time>2026-05-04T09:22:57Z</time></trkpt><trkpt lat="43.75962458543548" lon="12.243116853139412"><ele>801.9999999999999</ele><time>2026-05-04T09:22:58Z</time></trkpt><trkpt lat="43.75957219798338" lon="12.243033069070002"><ele>802.0</ele><time>2026-05-04T09:22:59Z</time></trkpt><trkpt lat="43.75951457338543" lon="12.24295038858119"><ele>800.6</ele><time>2026-05-04T09:23:00Z</time></trkpt><trkpt lat="43.75946013404189" lon="12.242854038811952"><ele>799.2</ele><time>2026-05-04T09:23:01Z</time></trkpt><trkpt lat="43.75941058990132" lon="12.242765929725156"><ele>797.8</ele><time>2026-05-04T09:23:02Z</time></trkpt><trkpt lat="43.75935259914947" lon="12.242655034992268"><ele>796.4</ele><time>2026-05-04T09:23:03Z</time></trkpt><trkpt lat="43.75929754791996" lon="12.24254408953901"><ele>795.0</ele><time>2026-05-04T09:23:04Z</time></trkpt><trkpt lat="43.75924646061971" lon="12.242439866272877"><ele>793.0</ele><time>2026-05-04T09:23:05Z</time></trkpt><trkpt lat="43.759194770080846" lon="12.242319694101424"><ele>791.0</ele><time>2026-05-04T09:23:06Z</time></trkpt><trkpt lat="43.75913930269103" lon="12.242206566532403"><ele>789.0</ele><time>2026-05-04T09:23:07Z</time></trkpt><trkpt lat="43.759074544508486" lon="12.242094104688077"><ele>787.0</ele><time>2026-05-04T09:23:08Z</time></trkpt><trkpt lat="43.75901121684864" lon="12.241980480870906"><ele>785.0</ele><time>2026-05-04T09:23:09Z</time></trkpt><trkpt lat="43.75895704087799" lon="12.241877357875572"><ele>784.5000000000001</ele><time>2026-05-04T09:23:10Z</time></trkpt><trkpt lat="43.75890403101839" lon="12.241772011819704"><ele>784.0</ele><time>2026-05-04T09:23:11Z</time></trkpt><trkpt lat="43.75885311110257" lon="12.241681173252953"><ele>783.5</ele><time>2026-05-04T09:23:12Z</time></trkpt><trkpt lat="43.758784669224326" lon="12.241605856338822"><ele>783.0</ele><time>2026-05-04T09:23:13Z</time></trkpt><trkpt lat="43.75871316020719" lon="12.241537150290025"><ele>782.5000000000001</ele><time>2026-05-04T09:23:14Z</time></trkpt><trkpt lat="43.75863913902167" lon="12.241455537660899"><ele>782.0</ele><time>2026-05-04T09:23:15Z</time></trkpt><trkpt lat="43.758571096875365" lon="12.241373734429956"><ele>779.0</ele><time>2026-05-04T09:23:16Z</time></trkpt><trkpt lat="43.75849374756827" lon="12.241281292055133"><ele>776.0</ele><time>2026-05-04T09:23:17Z</time></trkpt><trkpt lat="43.7584264914164" lon="12.241191639348244"><ele>773.0</ele><time>2026-05-04T09:23:18Z</time></trkpt><trkpt lat="43.75836413834747" lon="12.241100074093978"><ele>770.0</ele><time>2026-05-04T09:23:19Z</time></trkpt><trkpt lat="43.75829246316081" lon="12.240983131836039"><ele>767.0</ele><time>2026-05-04T09:23:20Z</time></trkpt><trkpt lat="43.758228767317235" lon="12.24087910902006"><ele>767.0</ele><time>2026-05-04T09:23:21Z</time></trkpt><trkpt lat="43.758172614011805" lon="12.24077060741709"><ele>767.0</ele><time>2026-05-04T09:23:22Z</time></trkpt><trkpt lat="43.75812269736992" lon="12.240651696491993"><ele>767.0</ele><time>2026-05-04T09:23:23Z</time></trkpt><trkpt lat="43.7580644199397" lon="12.24052403208653"><ele>767.0</ele><time>2026-05-04T09:23:24Z</time></trkpt><trkpt lat="43.75802970161175" lon="12.240440749598434"><ele>767.0</ele><time>2026-05-04T09:23:25Z</time></trkpt><trkpt lat="43.75797357601529" lon="12.240372572384084"><ele>767.0</ele><time>2026-05-04T09:23:26Z</time></trkpt><trkpt lat="43.757910898728966" lon="12.240306971500596"><ele>765.8333333333333</ele><time>2026-05-04T09:23:27Z</time></trkpt><trkpt lat="43.757839453866175" lon="12.240236141026589"><ele>764.6666666666666</ele><time>2026-05-04T09:23:28Z</time></trkpt><trkpt lat="43.75776014632457" lon="12.240172693396913"><ele>763.5</ele><time>2026-05-04T09:23:29Z</time></trkpt><trkpt lat="43.75769150062123" lon="12.240107297222313"><ele>762.3333333333334</ele><time>2026-05-04T09:23:30Z</time></trkpt><trkpt lat="43.75763274634474" lon="12.240060598665172"><ele>761.1666666666667</ele><time>2026-05-04T09:23:31Z</time></trkpt><trkpt lat="43.75756815990894" lon="12.240015394761269"><ele>760.0</ele><time>2026-05-04T09:23:32Z</time></trkpt><trkpt lat="43.75750518305708" lon="12.239973655278673"><ele>758.5</ele><time>2026-05-04T09:23:33Z</time></trkpt><trkpt lat="43.75741178699277" lon="12.239869327313539"><ele>757.0</ele><time>2026-05-04T09:23:35Z</time></trkpt><trkpt lat="43.75736642899081" lon="12.239808645431873"><ele>755.5</ele><time>2026-05-04T09:23:36Z</time></trkpt><trkpt lat="43.75726139548547" lon="12.239701718288758"><ele>754.0</ele><time>2026-05-04T09:23:38Z</time></trkpt><trkpt lat="43.757209722723964" lon="12.23965184571271"><ele>752.5</ele><time>2026-05-04T09:23:39Z</time></trkpt><trkpt lat="43.75715851761338" lon="12.239589541821667"><ele>751.0</ele><time>2026-05-04T09:23:40Z</time></trkpt><trkpt lat="43.75710868122928" lon="12.239518246651434"><ele>750.1428571428572</ele><time>2026-05-04T09:23:41Z</time></trkpt><trkpt lat="43.75706367092638" lon="12.239456457265595"><ele>749.2857142857143</ele><time>2026-05-04T09:23:42Z</time></trkpt><trkpt lat="43.75701654973043" lon="12.239371062927235"><ele>748.4285714285714</ele><time>2026-05-04T09:23:44Z</time></trkpt><trkpt lat="43.75702691170654" lon="12.239272905130152"><ele>747.5714285714287</ele><time>2026-05-04T09:24:09Z</time></trkpt><trkpt lat="43.75698544468346" lon="12.23916606591614"><ele>746.7142857142857</ele><time>2026-05-04T09:24:30Z</time></trkpt><trkpt lat="43.756922593103376" lon="12.239106435578964"><ele>745.8571428571429</ele><time>2026-05-04T09:24:32Z</time></trkpt><trkpt lat="43.75686630631543" lon="12.239056083043067"><ele>745.0</ele><time>2026-05-04T09:24:34Z</time></trkpt><trkpt lat="43.756791389681396" lon="12.239023737500935"><ele>741.8</ele><time>2026-05-04T09:24:37Z</time></trkpt><trkpt lat="43.75672626489641" lon="12.239014794410537"><ele>738.6</ele><time>2026-05-04T09:24:39Z</time></trkpt><trkpt lat="43.75662226545351" lon="12.239020582217806"><ele>735.4000000000001</ele><time>2026-05-04T09:24:41Z</time></trkpt><trkpt lat="43.756522308407725" lon="12.239031712480894"><ele>732.2</ele><time>2026-05-04T09:24:43Z</time></trkpt><trkpt lat="43.75642886753041" lon="12.239039114228884"><ele>729.0</ele><time>2026-05-04T09:24:45Z</time></trkpt><trkpt lat="43.75634275202253" lon="12.239004056612593"><ele>727.4000000000001</ele><time>2026-05-04T09:24:47Z</time></trkpt><trkpt lat="43.75626720270845" lon="12.238910711758809"><ele>725.8</ele><time>2026-05-04T09:24:49Z</time></trkpt><trkpt lat="43.756180259105165" lon="12.238785815940112"><ele>724.2</ele><time>2026-05-04T09:24:51Z</time></trkpt><trkpt lat="43.75612686477233" lon="12.238733896621007"><ele>722.5999999999999</ele><time>2026-05-04T09:24:52Z</time></trkpt><trkpt lat="43.75601520636201" lon="12.238666007933547"><ele>721.0</ele><time>2026-05-04T09:24:54Z</time></trkpt><trkpt lat="43.75596250612338" lon="12.238608527857668"><ele>718.0</ele><time>2026-05-04T09:24:55Z</time></trkpt><trkpt lat="43.75586675755879" lon="12.238546737847916"><ele>715.0</ele><time>2026-05-04T09:24:57Z</time></trkpt><trkpt lat="43.75579051708829" lon="12.238499369702637"><ele>712.0</ele><time>2026-05-04T09:24:59Z</time></trkpt><trkpt lat="43.75570530899712" lon="12.238479379145978"><ele>709.0</ele><time>2026-05-04T09:25:02Z</time></trkpt><trkpt lat="43.75562464762867" lon="12.238481294533585"><ele>706.0</ele><time>2026-05-04T09:25:04Z</time></trkpt><trkpt lat="43.75555504550441" lon="12.2385101460544"><ele>703.0</ele><time>2026-05-04T09:25:07Z</time></trkpt><trkpt lat="43.75549217747651" lon="12.238492023554198"><ele>703.0</ele><time>2026-05-04T09:25:12Z</time></trkpt><trkpt lat="43.75543886164627" lon="12.238591635982923"><ele>703.0</ele><time>2026-05-04T09:25:15Z</time></trkpt><trkpt lat="43.75547469288641" lon="12.238512575355337"><ele>703.0</ele><time>2026-05-04T09:25:27Z</time></trkpt><trkpt lat="43.75557393597823" lon="12.238539355363725"><ele>703.0</ele><time>2026-05-04T09:25:29Z</time></trkpt><trkpt lat="43.75568336043638" lon="12.238512065512465"><ele>703.0</ele><time>2026-05-04T09:25:31Z</time></trkpt><trkpt lat="43.75576519754031" lon="12.23846958449112"><ele>703.0</ele><time>2026-05-04T09:25:33Z</time></trkpt><trkpt lat="43.75574975945952" lon="12.238342259232926"><ele>703.0</ele><time>2026-05-04T09:25:37Z</time></trkpt><trkpt lat="43.75565248707166" lon="12.238291254235312"><ele>703.0</ele><time>2026-05-04T09:25:39Z</time></trkpt><trkpt lat="43.7555725245278" lon="12.238238648320891"><ele>703.0</ele><time>2026-05-04T09:25:41Z</time></trkpt><trkpt lat="43.75547747263199" lon="12.2381381966742"><ele>703.0</ele><time>2026-05-04T09:25:43Z</time></trkpt><trkpt lat="43.755418923823825" lon="12.238080839848335"><ele>701.6666666666667</ele><time>2026-05-04T09:25:44Z</time></trkpt><trkpt lat="43.755358622206295" lon="12.237991074267287"><ele>700.3333333333334</ele><time>2026-05-04T09:25:45Z</time></trkpt><trkpt lat="43.75531003114889" lon="12.237934641931409"><ele>699.0</ele><time>2026-05-04T09:25:46Z</time></trkpt><trkpt lat="43.75525136685946" lon="12.237883250236674"><ele>697.6666666666666</ele><time>2026-05-04T09:25:47Z</time></trkpt><trkpt lat="43.755192235644756" lon="12.23784713699132"><ele>696.3333333333333</ele><time>2026-05-04T09:25:48Z</time></trkpt><trkpt lat="43.75509742621457" lon="12.237793654991362"><ele>695.0</ele><time>2026-05-04T09:25:50Z</time></trkpt><trkpt lat="43.755024513650476" lon="12.237681116433697"><ele>692.6666666666666</ele><time>2026-05-04T09:25:52Z</time></trkpt><trkpt lat="43.75498722396384" lon="12.237610678056635"><ele>690.3333333333333</ele><time>2026-05-04T09:25:53Z</time></trkpt><trkpt lat="43.75491516266665" lon="12.237518548046182"><ele>688.0</ele><time>2026-05-04T09:25:55Z</time></trkpt><trkpt lat="43.754829267442325" lon="12.237492237368366"><ele>685.6666666666666</ele><time>2026-05-04T09:25:57Z</time></trkpt><trkpt lat="43.754767368714376" lon="12.23753226380731"><ele>683.3333333333334</ele><time>2026-05-04T09:26:01Z</time></trkpt><trkpt lat="43.754695352608614" lon="12.237495665198646"><ele>681.0</ele><time>2026-05-04T09:26:55Z</time></trkpt><trkpt lat="43.754625466071865" lon="12.237403115916946"><ele>681.0</ele><time>2026-05-04T09:26:59Z</time></trkpt><trkpt lat="43.754562204364234" lon="12.237352704604314"><ele>681.0</ele><time>2026-05-04T09:27:02Z</time></trkpt><trkpt lat="43.75450159954097" lon="12.237325404603018"><ele>681.0</ele><time>2026-05-04T09:27:05Z</time></trkpt><trkpt lat="43.75442593950173" lon="12.237297999426863"><ele>681.0</ele><time>2026-05-04T09:27:09Z</time></trkpt><trkpt lat="43.75435525664449" lon="12.237360102103269"><ele>681.0</ele><time>2026-05-04T09:27:12Z</time></trkpt><trkpt lat="43.754283761286956" lon="12.237414186715654"><ele>681.0</ele><time>2026-05-04T09:27:15Z</time></trkpt><trkpt lat="43.754208502571124" lon="12.237392867136258"><ele>679.3333333333334</ele><time>2026-05-04T09:27:19Z</time></trkpt><trkpt lat="43.75415760980974" lon="12.23733659525556"><ele>677.6666666666666</ele><time>2026-05-04T09:27:21Z</time></trkpt><trkpt lat="43.754151372262726" lon="12.237231917576553"><ele>676.0</ele><time>2026-05-04T09:27:24Z</time></trkpt><trkpt lat="43.75413317441463" lon="12.237129974071358"><ele>674.3333333333333</ele><time>2026-05-04T09:27:26Z</time></trkpt><trkpt lat="43.75407980833503" lon="12.237032202913554"><ele>672.6666666666666</ele><time>2026-05-04T09:27:28Z</time></trkpt><trkpt lat="43.75399726562998" lon="12.23695722571074"><ele>671.0</ele><time>2026-05-04T09:27:30Z</time></trkpt><trkpt lat="43.75393299177619" lon="12.236871746106146"><ele>670.0</ele><time>2026-05-04T09:27:32Z</time></trkpt><trkpt lat="43.75387529175874" lon="12.236716089255777"><ele>669.0</ele><time>2026-05-04T09:27:34Z</time></trkpt><trkpt lat="43.75385228296431" lon="12.236617282118399"><ele>668.0</ele><time>2026-05-04T09:27:35Z</time></trkpt><trkpt lat="43.753833908787946" lon="12.236528312474459"><ele>667.0</ele><time>2026-05-04T09:27:36Z</time></trkpt><trkpt lat="43.75381744335101" lon="12.236438257656634"><ele>666.0</ele><time>2026-05-04T09:27:37Z</time></trkpt><trkpt lat="43.75379464430261" lon="12.236353850207848"><ele>665.0</ele><time>2026-05-04T09:27:38Z</time></trkpt><trkpt lat="43.75376423128111" lon="12.236269407268741"><ele>664.6</ele><time>2026-05-04T09:27:39Z</time></trkpt><trkpt lat="43.75373788822882" lon="12.236185324132157"><ele>664.2</ele><time>2026-05-04T09:27:40Z</time></trkpt><trkpt lat="43.75371134357981" lon="12.236091540133112"><ele>663.8</ele><time>2026-05-04T09:27:41Z</time></trkpt><trkpt lat="43.75366612377956" lon="12.23592687799587"><ele>663.4</ele><time>2026-05-04T09:27:43Z</time></trkpt><trkpt lat="43.753651907418394" lon="12.23578022378641"><ele>663.0</ele><time>2026-05-04T09:27:45Z</time></trkpt><trkpt lat="43.75362209385284" lon="12.235674689743739"><ele>663.0</ele><time>2026-05-04T09:27:47Z</time></trkpt><trkpt lat="43.753551506414915" lon="12.235637238733718"><ele>663.0</ele><time>2026-05-04T09:27:49Z</time></trkpt><trkpt lat="43.753460369951036" lon="12.235675333216502"><ele>663.0</ele><time>2026-05-04T09:27:51Z</time></trkpt><trkpt lat="43.75333267494889" lon="12.23568590377819"><ele>663.0</ele><time>2026-05-04T09:27:53Z</time></trkpt><trkpt lat="43.75327076056888" lon="12.235651721738153"><ele>663.0</ele><time>2026-05-04T09:27:54Z</time></trkpt><trkpt lat="43.75321129089335" lon="12.235618025098155"><ele>663.0</ele><time>2026-05-04T09:27:55Z</time></trkpt><trkpt lat="43.75315008209598" lon="12.235577311860604"><ele>662.5</ele><time>2026-05-04T09:27:58Z</time></trkpt><trkpt lat="43.75319964975215" lon="12.235652384535898"><ele>662.0</ele><time>2026-05-04T09:28:03Z</time></trkpt><trkpt lat="43.75328325322807" lon="12.235665592339002"><ele>661.5</ele><time>2026-05-04T09:28:05Z</time></trkpt><trkpt lat="43.7533712041944" lon="12.23569631954892"><ele>661.0</ele><time>2026-05-04T09:28:07Z</time></trkpt><trkpt lat="43.753462163229095" lon="12.235696110267384"><ele>660.5</ele><time>2026-05-04T09:28:09Z</time></trkpt><trkpt lat="43.75353373477101" lon="12.235674990679204"><ele>660.0</ele><time>2026-05-04T09:28:11Z</time></trkpt><trkpt lat="43.75358216841463" lon="12.235582083894082"><ele>660.0</ele><time>2026-05-04T09:28:14Z</time></trkpt><trkpt lat="43.753578589933454" lon="12.235470357717581"><ele>660.0</ele><time>2026-05-04T09:28:16Z</time></trkpt><trkpt lat="43.7535659719246" lon="12.235343187251182"><ele>660.0</ele><time>2026-05-04T09:28:18Z</time></trkpt><trkpt lat="43.753494931346495" lon="12.235235279536576"><ele>660.0</ele><time>2026-05-04T09:28:20Z</time></trkpt><trkpt lat="43.753390059274786" lon="12.235153423228788"><ele>660.0</ele><time>2026-05-04T09:28:22Z</time></trkpt><trkpt lat="43.75326309242051" lon="12.235147178877169"><ele>660.0</ele><time>2026-05-04T09:28:24Z</time></trkpt><trkpt lat="43.75319074069218" lon="12.235152859744689"><ele>660.0</ele><time>2026-05-04T09:28:25Z</time></trkpt><trkpt lat="43.75310016616289" lon="12.2351670622314"><ele>660.0</ele><time>2026-05-04T09:28:26Z</time></trkpt><trkpt lat="43.75302672988433" lon="12.235171650593934"><ele>660.0</ele><time>2026-05-04T09:28:27Z</time></trkpt><trkpt lat="43.75296167964729" lon="12.23517719804902"><ele>660.0</ele><time>2026-05-04T09:28:28Z</time></trkpt><trkpt lat="43.7528764278119" lon="12.235180759646179"><ele>660.0</ele><time>2026-05-04T09:28:29Z</time></trkpt><trkpt lat="43.752793615878915" lon="12.23514808887069"><ele>661.1666666666666</ele><time>2026-05-04T09:28:30Z</time></trkpt><trkpt lat="43.75270156457135" lon="12.235096337479119"><ele>662.3333333333334</ele><time>2026-05-04T09:28:31Z</time></trkpt><trkpt lat="43.75262654566355" lon="12.23505379455784"><ele>663.5</ele><time>2026-05-04T09:28:32Z</time></trkpt><trkpt lat="43.752544825912594" lon="12.23503024131876"><ele>664.6666666666667</ele><time>2026-05-04T09:28:33Z</time></trkpt><trkpt lat="43.752460962464475" lon="12.235023763246884"><ele>665.8333333333334</ele><time>2026-05-04T09:28:34Z</time></trkpt><trkpt lat="43.75236282649473" lon="12.235006883924015"><ele>667.0</ele><time>2026-05-04T09:28:35Z</time></trkpt><trkpt lat="43.752275311868175" lon="12.23498813142914"><ele>667.0</ele><time>2026-05-04T09:28:36Z</time></trkpt><trkpt lat="43.75220789052251" lon="12.23496911307202"><ele>667.0</ele><time>2026-05-04T09:28:37Z</time></trkpt><trkpt lat="43.7520843722534" lon="12.235013501754143"><ele>667.0</ele><time>2026-05-04T09:28:39Z</time></trkpt><trkpt lat="43.751995141589035" lon="12.235058502669624"><ele>667.0</ele><time>2026-05-04T09:28:40Z</time></trkpt><trkpt lat="43.75190006075281" lon="12.235080719540894"><ele>667.0</ele><time>2026-05-04T09:28:41Z</time></trkpt><trkpt lat="43.751826884811294" lon="12.235080155461528"><ele>667.5</ele><time>2026-05-04T09:28:42Z</time></trkpt><trkpt lat="43.751745361806584" lon="12.235079823775646"><ele>668.0</ele><time>2026-05-04T09:28:43Z</time></trkpt><trkpt lat="43.751667481752" lon="12.23509847815202"><ele>668.5</ele><time>2026-05-04T09:28:44Z</time></trkpt><trkpt lat="43.751583750408855" lon="12.235101032509714"><ele>669.0</ele><time>2026-05-04T09:28:45Z</time></trkpt><trkpt lat="43.751454028433045" lon="12.23504677672568"><ele>669.5</ele><time>2026-05-04T09:28:48Z</time></trkpt><trkpt lat="43.75148194330672" lon="12.234963681163098"><ele>670.0</ele><time>2026-05-04T09:28:50Z</time></trkpt><trkpt lat="43.751520154039255" lon="12.234884459139884"><ele>669.5</ele><time>2026-05-04T09:28:51Z</time></trkpt><trkpt lat="43.75156404230394" lon="12.234783568328563"><ele>669.0</ele><time>2026-05-04T09:28:52Z</time></trkpt><trkpt lat="43.75159868494934" lon="12.234671097903828"><ele>668.5</ele><time>2026-05-04T09:28:53Z</time></trkpt><trkpt lat="43.751627853273924" lon="12.234558423376162"><ele>668.0</ele><time>2026-05-04T09:28:54Z</time></trkpt><trkpt lat="43.75165078019107" lon="12.234433611119652"><ele>667.5</ele><time>2026-05-04T09:28:55Z</time></trkpt><trkpt lat="43.751665421603754" lon="12.234308424244999"><ele>667.0</ele><time>2026-05-04T09:28:56Z</time></trkpt><trkpt lat="43.75168433416458" lon="12.23417857068775"><ele>667.0</ele><time>2026-05-04T09:28:57Z</time></trkpt><trkpt lat="43.75169579172026" lon="12.234036656915528"><ele>667.0</ele><time>2026-05-04T09:28:58Z</time></trkpt><trkpt lat="43.75169695185579" lon="12.233890506641227"><ele>667.0</ele><time>2026-05-04T09:28:59Z</time></trkpt><trkpt lat="43.75169196163972" lon="12.23374563853875"><ele>667.0</ele><time>2026-05-04T09:29:00Z</time></trkpt><trkpt lat="43.75169006377669" lon="12.233589634175098"><ele>667.0</ele><time>2026-05-04T09:29:01Z</time></trkpt><trkpt lat="43.75168327450466" lon="12.233441309574959"><ele>666.0</ele><time>2026-05-04T09:29:02Z</time></trkpt><trkpt lat="43.751673582566916" lon="12.233284735399518"><ele>665.0</ele><time>2026-05-04T09:29:03Z</time></trkpt><trkpt lat="43.751668950693364" lon="12.233129634481628"><ele>664.0</ele><time>2026-05-04T09:29:04Z</time></trkpt><trkpt lat="43.7516609451789" lon="12.232983172488852"><ele>663.0</ele><time>2026-05-04T09:29:05Z</time></trkpt><trkpt lat="43.75165231790932" lon="12.232848907878557"><ele>662.0</ele><time>2026-05-04T09:29:06Z</time></trkpt><trkpt lat="43.75165022617494" lon="12.23271709622389"><ele>661.6</ele><time>2026-05-04T09:29:07Z</time></trkpt><trkpt lat="43.751639515985076" lon="12.232586888252577"><ele>661.2</ele><time>2026-05-04T09:29:08Z</time></trkpt><trkpt lat="43.75161319488143" lon="12.232469595865906"><ele>660.8</ele><time>2026-05-04T09:29:09Z</time></trkpt><trkpt lat="43.75157468763254" lon="12.232365402325613"><ele>660.4</ele><time>2026-05-04T09:29:10Z</time></trkpt><trkpt lat="43.751508494039946" lon="12.232272737869511"><ele>660.0</ele><time>2026-05-04T09:29:11Z</time></trkpt><trkpt lat="43.751424314269634" lon="12.232177027574158"><ele>658.75</ele><time>2026-05-04T09:29:12Z</time></trkpt><trkpt lat="43.7513295528292" lon="12.232095846549578"><ele>657.5</ele><time>2026-05-04T09:29:13Z</time></trkpt><trkpt lat="43.75122404932787" lon="12.232013064701215"><ele>656.25</ele><time>2026-05-04T09:29:14Z</time></trkpt><trkpt lat="43.75113101680583" lon="12.231921112745516"><ele>655.0</ele><time>2026-05-04T09:29:15Z</time></trkpt><trkpt lat="43.75103146133135" lon="12.231842366114892"><ele>655.0</ele><time>2026-05-04T09:29:16Z</time></trkpt><trkpt lat="43.750935990523416" lon="12.231761179289432"><ele>655.0</ele><time>2026-05-04T09:29:17Z</time></trkpt><trkpt lat="43.75085129531788" lon="12.231694817919923"><ele>655.0</ele><time>2026-05-04T09:29:18Z</time></trkpt><trkpt lat="43.75075735376195" lon="12.231633416012256"><ele>655.0</ele><time>2026-05-04T09:29:19Z</time></trkpt><trkpt lat="43.75065649411369" lon="12.231600579118911"><ele>655.0</ele><time>2026-05-04T09:29:20Z</time></trkpt><trkpt lat="43.750548277552895" lon="12.231589162979654"><ele>655.0</ele><time>2026-05-04T09:29:21Z</time></trkpt><trkpt lat="43.75042873881494" lon="12.231561930978467"><ele>655.0</ele><time>2026-05-04T09:29:22Z</time></trkpt><trkpt lat="43.75031396915601" lon="12.231564372954496"><ele>655.0</ele><time>2026-05-04T09:29:23Z</time></trkpt><trkpt lat="43.75020435477485" lon="12.23155994074926"><ele>655.0</ele><time>2026-05-04T09:29:24Z</time></trkpt><trkpt lat="43.750091536485655" lon="12.231553880844206"><ele>654.2</ele><time>2026-05-04T09:29:25Z</time></trkpt><trkpt lat="43.74998981548416" lon="12.231537528667307"><ele>653.4</ele><time>2026-05-04T09:29:26Z</time></trkpt><trkpt lat="43.749892179544695" lon="12.231500733540916"><ele>652.5999999999999</ele><time>2026-05-04T09:29:27Z</time></trkpt><trkpt lat="43.74980406820868" lon="12.23144355329188"><ele>651.8</ele><time>2026-05-04T09:29:28Z</time></trkpt><trkpt lat="43.749724856557485" lon="12.231362353675136"><ele>651.0</ele><time>2026-05-04T09:29:29Z</time></trkpt><trkpt lat="43.74964831120399" lon="12.231262542270006"><ele>649.5</ele><time>2026-05-04T09:29:30Z</time></trkpt><trkpt lat="43.74956697481749" lon="12.231149033314741"><ele>648.0</ele><time>2026-05-04T09:29:31Z</time></trkpt><trkpt lat="43.749476192397346" lon="12.231020412292905"><ele>646.5</ele><time>2026-05-04T09:29:32Z</time></trkpt><trkpt lat="43.74937495091371" lon="12.230908881429073"><ele>645.0</ele><time>2026-05-04T09:29:33Z</time></trkpt><trkpt lat="43.749301875708184" lon="12.23078276269444"><ele>645.0</ele><time>2026-05-04T09:29:34Z</time></trkpt><trkpt lat="43.74921210575182" lon="12.230688160615937"><ele>645.0</ele><time>2026-05-04T09:29:35Z</time></trkpt><trkpt lat="43.749125755984714" lon="12.230589055315482"><ele>645.0</ele><time>2026-05-04T09:29:36Z</time></trkpt><trkpt lat="43.74905470710734" lon="12.230471404622534"><ele>645.0</ele><time>2026-05-04T09:29:37Z</time></trkpt><trkpt lat="43.74897765767626" lon="12.230365889036939"><ele>645.0</ele><time>2026-05-04T09:29:38Z</time></trkpt><trkpt lat="43.74890260678397" lon="12.230255239559419"><ele>642.5</ele><time>2026-05-04T09:29:39Z</time></trkpt><trkpt lat="43.748833543991445" lon="12.23014701498814"><ele>640.0</ele><time>2026-05-04T09:29:40Z</time></trkpt><trkpt lat="43.74875944228899" lon="12.230027618364089"><ele>637.5</ele><time>2026-05-04T09:29:41Z</time></trkpt><trkpt lat="43.74867454507562" lon="12.22992351494605"><ele>635.0</ele><time>2026-05-04T09:29:42Z</time></trkpt><trkpt lat="43.74860602271481" lon="12.22978717150391"><ele>636.0</ele><time>2026-05-04T09:29:43Z</time></trkpt><trkpt lat="43.74853885864449" lon="12.229655075987683"><ele>637.0</ele><time>2026-05-04T09:29:44Z</time></trkpt><trkpt lat="43.748471305669106" lon="12.22952847870298"><ele>638.0</ele><time>2026-05-04T09:29:45Z</time></trkpt><trkpt lat="43.74840818385701" lon="12.229418210903496"><ele>639.0</ele><time>2026-05-04T09:29:46Z</time></trkpt><trkpt lat="43.748352319436584" lon="12.229320530483456"><ele>640.0</ele><time>2026-05-04T09:29:47Z</time></trkpt><trkpt lat="43.748302715278264" lon="12.229239544401775"><ele>640.0</ele><time>2026-05-04T09:29:48Z</time></trkpt><trkpt lat="43.74820874881567" lon="12.229179725468953"><ele>640.0</ele><time>2026-05-04T09:29:50Z</time></trkpt><trkpt lat="43.74809032820589" lon="12.229231635600028"><ele>640.0</ele><time>2026-05-04T09:29:52Z</time></trkpt><trkpt lat="43.74803009539865" lon="12.229297697983052"><ele>640.0</ele><time>2026-05-04T09:29:53Z</time></trkpt><trkpt lat="43.74794452623806" lon="12.229367626390072"><ele>640.0</ele><time>2026-05-04T09:29:54Z</time></trkpt><trkpt lat="43.74786587748103" lon="12.229459040698295"><ele>640.0</ele><time>2026-05-04T09:29:55Z</time></trkpt><trkpt lat="43.74778184082777" lon="12.229560092420227"><ele>640.0</ele><time>2026-05-04T09:29:56Z</time></trkpt><trkpt lat="43.74769464023314" lon="12.229668190008482"><ele>640.0</ele><time>2026-05-04T09:29:57Z</time></trkpt><trkpt lat="43.74750737813927" lon="12.229903762306336"><ele>640.5</ele><time>2026-05-04T09:29:59Z</time></trkpt><trkpt lat="43.74740903810493" lon="12.230027472276007"><ele>641.0</ele><time>2026-05-04T09:30:00Z</time></trkpt><trkpt lat="43.74731322967262" lon="12.2301490212754"><ele>641.5</ele><time>2026-05-04T09:30:01Z</time></trkpt><trkpt lat="43.747214368245885" lon="12.23027546348989"><ele>642.0</ele><time>2026-05-04T09:30:02Z</time></trkpt><trkpt lat="43.74712040458208" lon="12.230396088123257"><ele>642.0</ele><time>2026-05-04T09:30:03Z</time></trkpt><trkpt lat="43.747026989311465" lon="12.23051288031384"><ele>642.0</ele><time>2026-05-04T09:30:04Z</time></trkpt><trkpt lat="43.74693332100928" lon="12.230626920189701"><ele>642.0</ele><time>2026-05-04T09:30:05Z</time></trkpt><trkpt lat="43.746842791518695" lon="12.230734839272158"><ele>642.0</ele><time>2026-05-04T09:30:06Z</time></trkpt><trkpt lat="43.746755646483884" lon="12.230837259100198"><ele>644.8</ele><time>2026-05-04T09:30:07Z</time></trkpt><trkpt lat="43.746672961502405" lon="12.230918189798215"><ele>647.6</ele><time>2026-05-04T09:30:08Z</time></trkpt><trkpt lat="43.74658847808902" lon="12.230976914449244"><ele>650.4</ele><time>2026-05-04T09:30:09Z</time></trkpt><trkpt lat="43.74649491531173" lon="12.230994980347212"><ele>653.1999999999999</ele><time>2026-05-04T09:30:10Z</time></trkpt><trkpt lat="43.74640037282277" lon="12.230981397071877"><ele>656.0</ele><time>2026-05-04T09:30:11Z</time></trkpt><trkpt lat="43.746300982330844" lon="12.230978820851972"><ele>655.9999999999999</ele><time>2026-05-04T09:30:12Z</time></trkpt><trkpt lat="43.7462364995487" lon="12.230998484321312"><ele>656.0</ele><time>2026-05-04T09:30:13Z</time></trkpt><trkpt lat="43.746188180758935" lon="12.231071560814295"><ele>656.0</ele><time>2026-05-04T09:30:14Z</time></trkpt><trkpt lat="43.74614481920104" lon="12.231153841441783"><ele>656.0</ele><time>2026-05-04T09:30:15Z</time></trkpt><trkpt lat="43.746135752556974" lon="12.231248827994193"><ele>656.0</ele><time>2026-05-04T09:30:16Z</time></trkpt><trkpt lat="43.74614802043386" lon="12.231351792407029"><ele>655.9999999999999</ele><time>2026-05-04T09:30:17Z</time></trkpt><trkpt lat="43.74617050827012" lon="12.23147283338434"><ele>656.0</ele><time>2026-05-04T09:30:18Z</time></trkpt><trkpt lat="43.746198170892974" lon="12.23160393581355"><ele>657.0</ele><time>2026-05-04T09:30:19Z</time></trkpt><trkpt lat="43.74622315088267" lon="12.23174917841587"><ele>658.0</ele><time>2026-05-04T09:30:20Z</time></trkpt><trkpt lat="43.74624405156237" lon="12.231899017556078"><ele>659.0</ele><time>2026-05-04T09:30:21Z</time></trkpt><trkpt lat="43.74626402632961" lon="12.232040135789541"><ele>660.0</ele><time>2026-05-04T09:30:22Z</time></trkpt><trkpt lat="43.746284288853396" lon="12.23214493228248"><ele>661.0</ele><time>2026-05-04T09:30:23Z</time></trkpt><trkpt lat="43.74629518072706" lon="12.232245099649194"><ele>661.5999999999999</ele><time>2026-05-04T09:30:24Z</time></trkpt><trkpt lat="43.7463015008225" lon="12.23233290416907"><ele>662.2</ele><time>2026-05-04T09:30:25Z</time></trkpt><trkpt lat="43.74623087710755" lon="12.232468883289666"><ele>662.8</ele><time>2026-05-04T09:30:27Z</time></trkpt><trkpt lat="43.74612575828509" lon="12.23244094511875"><ele>663.4000000000001</ele><time>2026-05-04T09:30:29Z</time></trkpt><trkpt lat="43.74602342853469" lon="12.232393304236224"><ele>664.0</ele><time>2026-05-04T09:30:31Z</time></trkpt><trkpt lat="43.74594477070294" lon="12.232370514316793"><ele>665.6666666666667</ele><time>2026-05-04T09:30:32Z</time></trkpt><trkpt lat="43.74586601242352" lon="12.232340516254675"><ele>667.3333333333334</ele><time>2026-05-04T09:30:33Z</time></trkpt><trkpt lat="43.74578407333723" lon="12.232325448360205"><ele>669.0</ele><time>2026-05-04T09:30:34Z</time></trkpt><trkpt lat="43.74570587652468" lon="12.232284050458077"><ele>670.6666666666666</ele><time>2026-05-04T09:30:35Z</time></trkpt><trkpt lat="43.745625028018075" lon="12.232272215886265"><ele>672.3333333333333</ele><time>2026-05-04T09:30:36Z</time></trkpt><trkpt lat="43.745561317423224" lon="12.232288678773182"><ele>674.0</ele><time>2026-05-04T09:30:37Z</time></trkpt><trkpt lat="43.745503310254804" lon="12.23232753140634"><ele>674.0000000000001</ele><time>2026-05-04T09:30:38Z</time></trkpt><trkpt lat="43.74548277112695" lon="12.232206513255555"><ele>674.0</ele><time>2026-05-04T09:30:41Z</time></trkpt><trkpt lat="43.74545968740619" lon="12.232117247119142"><ele>674.0</ele><time>2026-05-04T09:30:42Z</time></trkpt><trkpt lat="43.74546362749033" lon="12.232024467462196"><ele>674.0</ele><time>2026-05-04T09:30:43Z</time></trkpt><trkpt lat="43.74546443713994" lon="12.231934071213562"><ele>674.0</ele><time>2026-05-04T09:30:44Z</time></trkpt><trkpt lat="43.74543148906607" lon="12.23183379657023"><ele>674.0000000000001</ele><time>2026-05-04T09:30:45Z</time></trkpt><trkpt lat="43.745396743131195" lon="12.231740421174914"><ele>674.0</ele><time>2026-05-04T09:30:46Z</time></trkpt><trkpt lat="43.74533880613813" lon="12.231680060301702"><ele>674.0</ele><time>2026-05-04T09:30:47Z</time></trkpt><trkpt lat="43.74532995112904" lon="12.231535081709865"><ele>674.0</ele><time>2026-05-04T09:30:49Z</time></trkpt><trkpt lat="43.74525870256407" lon="12.23162105762723"><ele>674.0</ele><time>2026-05-04T09:30:52Z</time></trkpt><trkpt lat="43.74533903737698" lon="12.231453772273788"><ele>674.0</ele><time>2026-05-04T09:37:40Z</time></trkpt><trkpt lat="43.745335900798025" lon="12.231341476549558"><ele>674.0</ele><time>2026-05-04T09:44:37Z</time></trkpt><trkpt lat="43.74540385636473" lon="12.231292057771045"><ele>675.1666666666666</ele><time>2026-05-04T09:44:40Z</time></trkpt><trkpt lat="43.74543883681773" lon="12.231191053731681"><ele>676.3333333333333</ele><time>2026-05-04T09:44:43Z</time></trkpt><trkpt lat="43.74547064436907" lon="12.231101856806909"><ele>677.5</ele><time>2026-05-04T09:44:46Z</time></trkpt><trkpt lat="43.74551305898732" lon="12.231018412672963"><ele>678.6666666666666</ele><time>2026-05-04T09:44:49Z</time></trkpt><trkpt lat="43.74555936009599" lon="12.230904650352404"><ele>679.8333333333334</ele><time>2026-05-04T09:44:52Z</time></trkpt><trkpt lat="43.745606492514696" lon="12.230837021371745"><ele>681.0</ele><time>2026-05-04T09:44:54Z</time></trkpt><trkpt lat="43.74565312402723" lon="12.230732730876499"><ele>681.0</ele><time>2026-05-04T09:44:57Z</time></trkpt><trkpt lat="43.745699654975994" lon="12.23066001806468"><ele>681.0</ele><time>2026-05-04T09:45:01Z</time></trkpt><trkpt lat="43.74575388386179" lon="12.2305795229051"><ele>681.0</ele><time>2026-05-04T09:45:04Z</time></trkpt><trkpt lat="43.74582249394033" lon="12.230490247804111"><ele>681.0</ele><time>2026-05-04T09:45:07Z</time></trkpt><trkpt lat="43.745867071979866" lon="12.23038089792414"><ele>681.0</ele><time>2026-05-04T09:45:09Z</time></trkpt><trkpt lat="43.74590358362284" lon="12.230259333440937"><ele>681.0</ele><time>2026-05-04T09:45:11Z</time></trkpt><trkpt lat="43.74590869959578" lon="12.230149928498914"><ele>683.0</ele><time>2026-05-04T09:45:13Z</time></trkpt><trkpt lat="43.74591344263087" lon="12.229985126251137"><ele>685.0</ele><time>2026-05-04T09:45:15Z</time></trkpt><trkpt lat="43.745908562041535" lon="12.22986630553611"><ele>687.0</ele><time>2026-05-04T09:45:17Z</time></trkpt><trkpt lat="43.74586738213589" lon="12.229754693838602"><ele>689.0</ele><time>2026-05-04T09:45:19Z</time></trkpt><trkpt lat="43.74580802948677" lon="12.229640214389622"><ele>691.0</ele><time>2026-05-04T09:45:21Z</time></trkpt><trkpt lat="43.745759999717606" lon="12.22954610739883"><ele>691.0</ele><time>2026-05-04T09:45:23Z</time></trkpt><trkpt lat="43.745705862323916" lon="12.229450797492982"><ele>691.0</ele><time>2026-05-04T09:45:25Z</time></trkpt><trkpt lat="43.745631360902586" lon="12.229340769014307"><ele>691.0</ele><time>2026-05-04T09:45:27Z</time></trkpt><trkpt lat="43.74554732707674" lon="12.229260383315909"><ele>691.0</ele><time>2026-05-04T09:45:29Z</time></trkpt><trkpt lat="43.74546524060169" lon="12.22920353789371"><ele>691.0</ele><time>2026-05-04T09:45:31Z</time></trkpt><trkpt lat="43.745398265658245" lon="12.229172056419326"><ele>691.0</ele><time>2026-05-04T09:45:33Z</time></trkpt><trkpt lat="43.74532767792114" lon="12.229095261036667"><ele>691.0</ele><time>2026-05-04T09:45:36Z</time></trkpt><trkpt lat="43.74525975212846" lon="12.22905625644649"><ele>691.0</ele><time>2026-05-04T09:45:38Z</time></trkpt><trkpt lat="43.74515752872436" lon="12.229058358896923"><ele>691.0</ele><time>2026-05-04T09:45:41Z</time></trkpt><trkpt lat="43.745076640370996" lon="12.229092772269441"><ele>691.0</ele><time>2026-05-04T09:45:43Z</time></trkpt><trkpt lat="43.744973996075174" lon="12.229035340278527"><ele>696.8</ele><time>2026-05-04T09:45:45Z</time></trkpt><trkpt lat="43.74492853486922" lon="12.22893485838259"><ele>702.5999999999999</ele><time>2026-05-04T09:45:47Z</time></trkpt><trkpt lat="43.7448510099284" lon="12.228906008347597"><ele>708.4</ele><time>2026-05-04T09:45:49Z</time></trkpt><trkpt lat="43.7447264550877" lon="12.228937675189721"><ele>714.2</ele><time>2026-05-04T09:45:51Z</time></trkpt><trkpt lat="43.74465038556707" lon="12.22900562124269"><ele>720.0</ele><time>2026-05-04T09:45:53Z</time></trkpt><trkpt lat="43.74457093099964" lon="12.2289902242694"><ele>720.0</ele><time>2026-05-04T09:45:55Z</time></trkpt><trkpt lat="43.74450449104805" lon="12.228989628625051"><ele>720.0</ele><time>2026-05-04T09:45:56Z</time></trkpt><trkpt lat="43.744415809171336" lon="12.228958801662952"><ele>720.0</ele><time>2026-05-04T09:45:58Z</time></trkpt><trkpt lat="43.74435954210369" lon="12.228884120746324"><ele>720.0</ele><time>2026-05-04T09:46:00Z</time></trkpt><trkpt lat="43.744275068525866" lon="12.228898031141735"><ele>720.0</ele><time>2026-05-04T09:46:02Z</time></trkpt><trkpt lat="43.74421146619182" lon="12.228872833180525"><ele>720.0</ele><time>2026-05-04T09:46:04Z</time></trkpt><trkpt lat="43.74420649376486" lon="12.228778968817698"><ele>725.8333333333334</ele><time>2026-05-04T09:46:06Z</time></trkpt><trkpt lat="43.744252148279145" lon="12.228690810669281"><ele>731.6666666666666</ele><time>2026-05-04T09:46:09Z</time></trkpt><trkpt lat="43.744272319620414" lon="12.228587283659234"><ele>737.5</ele><time>2026-05-04T09:46:12Z</time></trkpt><trkpt lat="43.7442375334834" lon="12.22850760824196"><ele>743.3333333333333</ele><time>2026-05-04T09:46:23Z</time></trkpt><trkpt lat="43.74418313786835" lon="12.228454110641835"><ele>749.1666666666666</ele><time>2026-05-04T09:46:25Z</time></trkpt><trkpt lat="43.744102934211746" lon="12.228351038535585"><ele>755.0</ele><time>2026-05-04T09:46:27Z</time></trkpt><trkpt lat="43.74403263675353" lon="12.228308049607426"><ele>755.0</ele><time>2026-05-04T09:46:29Z</time></trkpt><trkpt lat="43.7439920164028" lon="12.228196708469584"><ele>755.0</ele><time>2026-05-04T09:46:31Z</time></trkpt><trkpt lat="43.74391392468745" lon="12.22808811895301"><ele>755.0</ele><time>2026-05-04T09:46:33Z</time></trkpt><trkpt lat="43.74384483288104" lon="12.227987038324258"><ele>755.0</ele><time>2026-05-04T09:46:35Z</time></trkpt><trkpt lat="43.74379840287375" lon="12.227907662412026"><ele>755.0</ele><time>2026-05-04T09:46:37Z</time></trkpt><trkpt lat="43.74373578474934" lon="12.227796786534757"><ele>755.0</ele><time>2026-05-04T09:46:39Z</time></trkpt><trkpt lat="43.74371938978136" lon="12.227677118451377"><ele>755.0</ele><time>2026-05-04T09:46:41Z</time></trkpt><trkpt lat="43.743705974729096" lon="12.227543576861256"><ele>755.0</ele><time>2026-05-04T09:46:43Z</time></trkpt><trkpt lat="43.7436989123853" lon="12.227421869648879"><ele>755.0</ele><time>2026-05-04T09:46:45Z</time></trkpt><trkpt lat="43.74365836476562" lon="12.227343246745072"><ele>755.0</ele><time>2026-05-04T09:46:47Z</time></trkpt><trkpt lat="43.74357956113336" lon="12.227297206914988"><ele>755.0</ele><time>2026-05-04T09:46:50Z</time></trkpt><trkpt lat="43.743528288301505" lon="12.227203950213445"><ele>763.0</ele><time>2026-05-04T09:46:52Z</time></trkpt><trkpt lat="43.74352639047005" lon="12.227049502280543"><ele>771.0</ele><time>2026-05-04T09:46:54Z</time></trkpt><trkpt lat="43.743497100612544" lon="12.226918134260155"><ele>779.0</ele><time>2026-05-04T09:46:56Z</time></trkpt><trkpt lat="43.74344652380486" lon="12.226822400073587"><ele>787.0</ele><time>2026-05-04T09:46:58Z</time></trkpt><trkpt lat="43.743395809036954" lon="12.22672145879725"><ele>795.0</ele><time>2026-05-04T09:47:00Z</time></trkpt><trkpt lat="43.7433973999491" lon="12.22656137468423"><ele>794.4</ele><time>2026-05-04T09:47:02Z</time></trkpt><trkpt lat="43.743407520750495" lon="12.226414633916455"><ele>793.8</ele><time>2026-05-04T09:47:04Z</time></trkpt><trkpt lat="43.74344409200205" lon="12.2262958536977"><ele>793.2</ele><time>2026-05-04T09:47:06Z</time></trkpt><trkpt lat="43.74345519156626" lon="12.226159122585276"><ele>792.6</ele><time>2026-05-04T09:47:08Z</time></trkpt><trkpt lat="43.743425395593924" lon="12.226035275821266"><ele>792.0</ele><time>2026-05-04T09:47:10Z</time></trkpt><trkpt lat="43.743382603045866" lon="12.225924308978952"><ele>792.0</ele><time>2026-05-04T09:47:12Z</time></trkpt><trkpt lat="43.74335371524447" lon="12.225797986119131"><ele>792.0</ele><time>2026-05-04T09:47:14Z</time></trkpt><trkpt lat="43.743316480322406" lon="12.225691523904592"><ele>792.0</ele><time>2026-05-04T09:47:16Z</time></trkpt><trkpt lat="43.74323187187383" lon="12.225613923570789"><ele>792.0</ele><time>2026-05-04T09:47:18Z</time></trkpt><trkpt lat="43.7431349916492" lon="12.225524944897762"><ele>792.0</ele><time>2026-05-04T09:47:20Z</time></trkpt><trkpt lat="43.74304887737547" lon="12.225448848447172"><ele>789.4000000000001</ele><time>2026-05-04T09:47:22Z</time></trkpt><trkpt lat="43.74297310139748" lon="12.225402837217418"><ele>786.8000000000001</ele><time>2026-05-04T09:47:24Z</time></trkpt><trkpt lat="43.742883037131186" lon="12.225386762367021"><ele>784.2</ele><time>2026-05-04T09:47:26Z</time></trkpt><trkpt lat="43.74279525515657" lon="12.225322901312921"><ele>781.6</ele><time>2026-05-04T09:47:28Z</time></trkpt><trkpt lat="43.74278719321481" lon="12.225184936067572"><ele>779.0</ele><time>2026-05-04T09:47:30Z</time></trkpt><trkpt lat="43.74273826883672" lon="12.225067475794825"><ele>782.6</ele><time>2026-05-04T09:47:32Z</time></trkpt><trkpt lat="43.742675952602035" lon="12.224961399666109"><ele>786.2</ele><time>2026-05-04T09:47:34Z</time></trkpt><trkpt lat="43.74266864957416" lon="12.224863995058247"><ele>789.8000000000001</ele><time>2026-05-04T09:47:37Z</time></trkpt><trkpt lat="43.74262515740517" lon="12.224736659815388"><ele>793.4000000000001</ele><time>2026-05-04T09:47:41Z</time></trkpt><trkpt lat="43.74260745481146" lon="12.224590650865181"><ele>797.0</ele><time>2026-05-04T09:47:43Z</time></trkpt><trkpt lat="43.742596572603716" lon="12.224486940652817"><ele>797.4000000000001</ele><time>2026-05-04T09:47:45Z</time></trkpt><trkpt lat="43.74256559894728" lon="12.224375806005856"><ele>797.8000000000001</ele><time>2026-05-04T09:47:47Z</time></trkpt><trkpt lat="43.742560106055556" lon="12.22421802403859"><ele>798.2</ele><time>2026-05-04T09:47:49Z</time></trkpt><trkpt lat="43.742556437683724" lon="12.224057201123246"><ele>798.6</ele><time>2026-05-04T09:47:51Z</time></trkpt><trkpt lat="43.74255883342779" lon="12.223899083384843"><ele>799.0</ele><time>2026-05-04T09:47:53Z</time></trkpt><trkpt lat="43.74255980714863" lon="12.223749827150659"><ele>799.0</ele><time>2026-05-04T09:47:55Z</time></trkpt><trkpt lat="43.74255303150528" lon="12.223602589405129"><ele>799.0</ele><time>2026-05-04T09:47:57Z</time></trkpt><trkpt lat="43.742552109363416" lon="12.223462547965465"><ele>799.0</ele><time>2026-05-04T09:47:59Z</time></trkpt><trkpt lat="43.74254725404448" lon="12.22332720975291"><ele>799.0</ele><time>2026-05-04T09:48:01Z</time></trkpt><trkpt lat="43.742550176740124" lon="12.223193583794403"><ele>799.0</ele><time>2026-05-04T09:48:03Z</time></trkpt><trkpt lat="43.74254623419223" lon="12.223086399387439"><ele>798.4999999999999</ele><time>2026-05-04T09:48:05Z</time></trkpt><trkpt lat="43.74253534196582" lon="12.222999677617844"><ele>798.0</ele><time>2026-05-04T09:48:09Z</time></trkpt><trkpt lat="43.742480392266124" lon="12.223050591947871"><ele>797.5</ele><time>2026-05-04T09:48:29Z</time></trkpt><trkpt lat="43.74258751646954" lon="12.222962926085755"><ele>797.0</ele><time>2026-05-04T09:48:34Z</time></trkpt><trkpt lat="43.742665780619916" lon="12.222884117387311"><ele>796.4999999999999</ele><time>2026-05-04T09:48:36Z</time></trkpt><trkpt lat="43.74273653975883" lon="12.222825300777515"><ele>796.0</ele><time>2026-05-04T09:48:38Z</time></trkpt><trkpt lat="43.74280708097611" lon="12.22279448924585"><ele>795.1666666666666</ele><time>2026-05-04T09:48:40Z</time></trkpt><trkpt lat="43.74287138920112" lon="12.222716214255442"><ele>794.3333333333333</ele><time>2026-05-04T09:48:46Z</time></trkpt><trkpt lat="43.74293122794776" lon="12.222680442844096"><ele>793.5</ele><time>2026-05-04T09:48:48Z</time></trkpt><trkpt lat="43.74299426337505" lon="12.222614429995634"><ele>792.6666666666667</ele><time>2026-05-04T09:48:50Z</time></trkpt><trkpt lat="43.743065127963675" lon="12.222547542335716"><ele>791.8333333333334</ele><time>2026-05-04T09:48:52Z</time></trkpt><trkpt lat="43.74312468561274" lon="12.222477186358295"><ele>791.0</ele><time>2026-05-04T09:48:54Z</time></trkpt><trkpt lat="43.7431960672637" lon="12.222412676779342"><ele>791.0000000000001</ele><time>2026-05-04T09:48:57Z</time></trkpt><trkpt lat="43.74326109027928" lon="12.222343105085656"><ele>791.0</ele><time>2026-05-04T09:48:59Z</time></trkpt><trkpt lat="43.74334020715006" lon="12.222288853095913"><ele>791.0</ele><time>2026-05-04T09:49:01Z</time></trkpt><trkpt lat="43.743421583010765" lon="12.222237506378733"><ele>791.0</ele><time>2026-05-04T09:49:03Z</time></trkpt><trkpt lat="43.74348142209617" lon="12.222208358240085"><ele>791.0000000000001</ele><time>2026-05-04T09:49:06Z</time></trkpt><trkpt lat="43.743451870753" lon="12.222053210971335"><ele>791.0</ele><time>2026-05-04T09:49:09Z</time></trkpt><trkpt lat="43.74343378745646" lon="12.221945842963086"><ele>789.75</ele><time>2026-05-04T09:49:11Z</time></trkpt><trkpt lat="43.74341839109644" lon="12.221853777384743"><ele>788.5</ele><time>2026-05-04T09:49:20Z</time></trkpt><trkpt lat="43.743477267786794" lon="12.222193929122493"><ele>787.25</ele><time>2026-05-04T09:49:28Z</time></trkpt><trkpt lat="43.74339159369329" lon="12.222244874317129"><ele>786.0</ele><time>2026-05-04T09:49:33Z</time></trkpt><trkpt lat="43.74328972328691" lon="12.222308244426895"><ele>787.0</ele><time>2026-05-04T09:49:35Z</time></trkpt><trkpt lat="43.743210948190146" lon="12.222379379395957"><ele>788.0</ele><time>2026-05-04T09:49:37Z</time></trkpt><trkpt lat="43.74314359056521" lon="12.222477353311012"><ele>789.0</ele><time>2026-05-04T09:49:39Z</time></trkpt><trkpt lat="43.74306079070793" lon="12.222542189833673"><ele>790.0</ele><time>2026-05-04T09:49:41Z</time></trkpt><trkpt lat="43.742988949489074" lon="12.222641538799861"><ele>791.0</ele><time>2026-05-04T09:49:43Z</time></trkpt><trkpt lat="43.7429012825179" lon="12.222706863875823"><ele>791.0</ele><time>2026-05-04T09:49:45Z</time></trkpt><trkpt lat="43.74281439133615" lon="12.222777927858262"><ele>791.0</ele><time>2026-05-04T09:49:47Z</time></trkpt><trkpt lat="43.742691240747575" lon="12.222869956150541"><ele>791.0</ele><time>2026-05-04T09:49:49Z</time></trkpt><trkpt lat="43.74262067803213" lon="12.222928834970709"><ele>791.0</ele><time>2026-05-04T09:49:50Z</time></trkpt><trkpt lat="43.74254224523516" lon="12.222994733875279"><ele>791.0</ele><time>2026-05-04T09:49:51Z</time></trkpt><trkpt lat="43.74246359731379" lon="12.22306908273987"><ele>792.5999999999999</ele><time>2026-05-04T09:49:52Z</time></trkpt><trkpt lat="43.74239821950288" lon="12.223181194877165"><ele>794.2</ele><time>2026-05-04T09:49:53Z</time></trkpt><trkpt lat="43.742321960154925" lon="12.223255642659995"><ele>795.8</ele><time>2026-05-04T09:49:54Z</time></trkpt><trkpt lat="43.742265143995965" lon="12.223345925418553"><ele>797.4000000000001</ele><time>2026-05-04T09:49:55Z</time></trkpt><trkpt lat="43.74218746929912" lon="12.223401214990757"><ele>799.0</ele><time>2026-05-04T09:49:56Z</time></trkpt><trkpt lat="43.742112762667055" lon="12.223488379759937"><ele>799.0</ele><time>2026-05-04T09:49:57Z</time></trkpt><trkpt lat="43.74204646960393" lon="12.223553447935538"><ele>799.0</ele><time>2026-05-04T09:49:58Z</time></trkpt><trkpt lat="43.74197572051189" lon="12.223625361731106"><ele>799.0</ele><time>2026-05-04T09:49:59Z</time></trkpt><trkpt lat="43.74189544180952" lon="12.223711848388698"><ele>799.0</ele><time>2026-05-04T09:50:00Z</time></trkpt><trkpt lat="43.74182211597058" lon="12.223790673496"><ele>799.0</ele><time>2026-05-04T09:50:01Z</time></trkpt><trkpt lat="43.74174915315701" lon="12.223870389889505"><ele>800.1666666666666</ele><time>2026-05-04T09:50:02Z</time></trkpt><trkpt lat="43.74166448456621" lon="12.22393818247912"><ele>801.3333333333333</ele><time>2026-05-04T09:50:03Z</time></trkpt><trkpt lat="43.74159713190241" lon="12.224032626943263"><ele>802.5</ele><time>2026-05-04T09:50:04Z</time></trkpt><trkpt lat="43.741531181315324" lon="12.224109322446388"><ele>803.6666666666667</ele><time>2026-05-04T09:50:05Z</time></trkpt><trkpt lat="43.741483106862034" lon="12.224198932684992"><ele>804.8333333333334</ele><time>2026-05-04T09:50:06Z</time></trkpt><trkpt lat="43.74142878676955" lon="12.224273418066396"><ele>806.0</ele><time>2026-05-04T09:50:07Z</time></trkpt><trkpt lat="43.74141156020158" lon="12.224369798568882"><ele>806.5999999999999</ele><time>2026-05-04T09:50:08Z</time></trkpt><trkpt lat="43.741447665298054" lon="12.224485660012903"><ele>807.2</ele><time>2026-05-04T09:50:09Z</time></trkpt><trkpt lat="43.74147611209106" lon="12.224600987613087"><ele>807.8</ele><time>2026-05-04T09:50:10Z</time></trkpt><trkpt lat="43.74150773999966" lon="12.224735195180742"><ele>808.4000000000001</ele><time>2026-05-04T09:50:11Z</time></trkpt><trkpt lat="43.74152708389482" lon="12.224860634840404"><ele>809.0</ele><time>2026-05-04T09:50:12Z</time></trkpt><trkpt lat="43.741511611184734" lon="12.224984385276786"><ele>809.8333333333334</ele><time>2026-05-04T09:50:13Z</time></trkpt><trkpt lat="43.74149417325821" lon="12.22510692990878"><ele>810.6666666666667</ele><time>2026-05-04T09:50:14Z</time></trkpt><trkpt lat="43.74146875365648" lon="12.22523549500453"><ele>811.5</ele><time>2026-05-04T09:50:15Z</time></trkpt><trkpt lat="43.741433109401484" lon="12.225340819708872"><ele>812.3333333333333</ele><time>2026-05-04T09:50:16Z</time></trkpt><trkpt lat="43.74138129667808" lon="12.225435374432097"><ele>813.1666666666666</ele><time>2026-05-04T09:50:17Z</time></trkpt><trkpt lat="43.74133607259911" lon="12.22553659907937"><ele>814.0</ele><time>2026-05-04T09:50:18Z</time></trkpt><trkpt lat="43.74126082403661" lon="12.225587363547127"><ele>814.0</ele><time>2026-05-04T09:50:19Z</time></trkpt><trkpt lat="43.74116198227976" lon="12.225565131447343"><ele>814.0</ele><time>2026-05-04T09:50:20Z</time></trkpt><trkpt lat="43.74107034921074" lon="12.225573336846383"><ele>814.0</ele><time>2026-05-04T09:50:21Z</time></trkpt><trkpt lat="43.740969666287135" lon="12.225581055807872"><ele>814.0</ele><time>2026-05-04T09:50:22Z</time></trkpt><trkpt lat="43.74087979964576" lon="12.22561211221878"><ele>814.0</ele><time>2026-05-04T09:50:23Z</time></trkpt><trkpt lat="43.74081160804877" lon="12.225697789265714"><ele>816.8333333333333</ele><time>2026-05-04T09:50:24Z</time></trkpt><trkpt lat="43.74075043185608" lon="12.225764394982887"><ele>819.6666666666666</ele><time>2026-05-04T09:50:25Z</time></trkpt><trkpt lat="43.74068632346776" lon="12.22585422390626"><ele>822.5</ele><time>2026-05-04T09:50:26Z</time></trkpt><trkpt lat="43.740608080894695" lon="12.225905075137032"><ele>825.3333333333333</ele><time>2026-05-04T09:50:27Z</time></trkpt><trkpt lat="43.74053820813036" lon="12.22594936225148"><ele>828.1666666666666</ele><time>2026-05-04T09:50:28Z</time></trkpt><trkpt lat="43.74047544860787" lon="12.226005692957182"><ele>831.0</ele><time>2026-05-04T09:50:29Z</time></trkpt><trkpt lat="43.74039775898314" lon="12.225996189305585"><ele>831.0</ele><time>2026-05-04T09:50:30Z</time></trkpt><trkpt lat="43.740325585681276" lon="12.22599292907641"><ele>831.0</ele><time>2026-05-04T09:50:31Z</time></trkpt><trkpt lat="43.740240639081954" lon="12.225991108100589"><ele>831.0</ele><time>2026-05-04T09:50:32Z</time></trkpt><trkpt lat="43.740151513382585" lon="12.225976657751332"><ele>831.0</ele><time>2026-05-04T09:50:33Z</time></trkpt><trkpt lat="43.74006237396845" lon="12.22596993224018"><ele>831.0</ele><time>2026-05-04T09:50:34Z</time></trkpt><trkpt lat="43.73998604788809" lon="12.225989358033027"><ele>831.0</ele><time>2026-05-04T09:50:35Z</time></trkpt><trkpt lat="43.73989404152904" lon="12.226041716471226"><ele>832.5999999999999</ele><time>2026-05-04T09:50:36Z</time></trkpt><trkpt lat="43.7398042331215" lon="12.226137396756918"><ele>834.2</ele><time>2026-05-04T09:50:37Z</time></trkpt><trkpt lat="43.7397168024123" lon="12.226198104753793"><ele>835.8</ele><time>2026-05-04T09:50:38Z</time></trkpt><trkpt lat="43.739623823335066" lon="12.226214972512901"><ele>837.4000000000001</ele><time>2026-05-04T09:50:39Z</time></trkpt><trkpt lat="43.73953527222467" lon="12.226247099475566"><ele>839.0</ele><time>2026-05-04T09:50:40Z</time></trkpt><trkpt lat="43.73944669460919" lon="12.226279236051406"><ele>839.8000000000001</ele><time>2026-05-04T09:50:41Z</time></trkpt><trkpt lat="43.73934056668071" lon="12.226317740012036"><ele>840.6</ele><time>2026-05-04T09:50:42Z</time></trkpt><trkpt lat="43.739246038912675" lon="12.22638127641022"><ele>841.4</ele><time>2026-05-04T09:50:43Z</time></trkpt><trkpt lat="43.73915053658835" lon="12.226423322672476"><ele>842.2</ele><time>2026-05-04T09:50:44Z</time></trkpt><trkpt lat="43.739054199884194" lon="12.226433655939752"><ele>843.0</ele><time>2026-05-04T09:50:45Z</time></trkpt><trkpt lat="43.73895591707411" lon="12.226461141362439"><ele>843.0</ele><time>2026-05-04T09:50:46Z</time></trkpt><trkpt lat="43.738861868252776" lon="12.226498431720598"><ele>843.0</ele><time>2026-05-04T09:50:47Z</time></trkpt><trkpt lat="43.73877152156266" lon="12.226481819304315"><ele>843.0</ele><time>2026-05-04T09:50:48Z</time></trkpt><trkpt lat="43.73868464264134" lon="12.22649162649102"><ele>843.0</ele><time>2026-05-04T09:50:49Z</time></trkpt><trkpt lat="43.738619005458304" lon="12.226446383756437"><ele>843.0</ele><time>2026-05-04T09:50:50Z</time></trkpt><trkpt lat="43.73852971907669" lon="12.226395576008771"><ele>843.0</ele><time>2026-05-04T09:50:51Z</time></trkpt><trkpt lat="43.738460612092055" lon="12.226338214177837"><ele>844.2</ele><time>2026-05-04T09:50:52Z</time></trkpt><trkpt lat="43.73839256462466" lon="12.226273452588655"><ele>845.4</ele><time>2026-05-04T09:50:53Z</time></trkpt><trkpt lat="43.7382877488983" lon="12.226227886361967"><ele>846.6</ele><time>2026-05-04T09:50:54Z</time></trkpt><trkpt lat="43.738181916373634" lon="12.226222950885676"><ele>847.8000000000001</ele><time>2026-05-04T09:50:55Z</time></trkpt><trkpt lat="43.73810765362455" lon="12.2260526612864"><ele>849.0</ele><time>2026-05-04T09:50:56Z</time></trkpt><trkpt lat="43.73800728452744" lon="12.22600213076347"><ele>849.0</ele><time>2026-05-04T09:50:57Z</time></trkpt><trkpt lat="43.737897829487906" lon="12.225996201738173"><ele>849.0</ele><time>2026-05-04T09:50:58Z</time></trkpt><trkpt lat="43.73779357958677" lon="12.22601157200947"><ele>849.0</ele><time>2026-05-04T09:50:59Z</time></trkpt><trkpt lat="43.73768902795814" lon="12.22607844023513"><ele>849.0</ele><time>2026-05-04T09:51:00Z</time></trkpt><trkpt lat="43.73759323825154" lon="12.226154338823974"><ele>849.0</ele><time>2026-05-04T09:51:01Z</time></trkpt><trkpt lat="43.73751389288893" lon="12.226219199892954"><ele>850.1428571428572</ele><time>2026-05-04T09:51:02Z</time></trkpt><trkpt lat="43.73745434980095" lon="12.226271274307075"><ele>851.2857142857143</ele><time>2026-05-04T09:51:03Z</time></trkpt><trkpt lat="43.73740150078543" lon="12.226329859987024"><ele>852.4285714285714</ele><time>2026-05-04T09:51:04Z</time></trkpt><trkpt lat="43.737334063330536" lon="12.226404970863348"><ele>853.5714285714287</ele><time>2026-05-04T09:51:06Z</time></trkpt><trkpt lat="43.73727886904718" lon="12.226454899745836"><ele>854.7142857142857</ele><time>2026-05-04T09:51:09Z</time></trkpt><trkpt lat="43.73730705053994" lon="12.226353687579158"><ele>855.8571428571429</ele><time>2026-05-04T09:53:44Z</time></trkpt><trkpt lat="43.73732154096053" lon="12.226265950208317"><ele>857.0</ele><time>2026-05-04T09:53:45Z</time></trkpt><trkpt lat="43.73732704600191" lon="12.226173797953088"><ele>857.0</ele><time>2026-05-04T09:53:46Z</time></trkpt><trkpt lat="43.737312156375346" lon="12.226081810040062"><ele>857.0</ele><time>2026-05-04T09:53:47Z</time></trkpt><trkpt lat="43.73729543246447" lon="12.225996282102262"><ele>857.0</ele><time>2026-05-04T09:53:48Z</time></trkpt><trkpt lat="43.7372631205038" lon="12.225909946050603"><ele>857.0</ele><time>2026-05-04T09:53:49Z</time></trkpt><trkpt lat="43.737219536827716" lon="12.225825476310128"><ele>857.0</ele><time>2026-05-04T09:53:50Z</time></trkpt><trkpt lat="43.7371724677725" lon="12.225748952000538"><ele>857.0</ele><time>2026-05-04T09:53:51Z</time></trkpt><trkpt lat="43.73712177259923" lon="12.225668771496185"><ele>857.0</ele><time>2026-05-04T09:53:52Z</time></trkpt><trkpt lat="43.73706367389171" lon="12.225607539198831"><ele>859.1428571428571</ele><time>2026-05-04T09:53:53Z</time></trkpt><trkpt lat="43.73701636799914" lon="12.225530689291523"><ele>861.2857142857142</ele><time>2026-05-04T09:53:54Z</time></trkpt><trkpt lat="43.73697261993813" lon="12.225463052782603"><ele>863.4285714285714</ele><time>2026-05-04T09:53:55Z</time></trkpt><trkpt lat="43.73693025785456" lon="12.225395694314166"><ele>865.5714285714286</ele><time>2026-05-04T09:53:56Z</time></trkpt><trkpt lat="43.73688577512241" lon="12.225325212362327"><ele>867.7142857142858</ele><time>2026-05-04T09:53:57Z</time></trkpt><trkpt lat="43.73684131082428" lon="12.225258950708104"><ele>869.8571428571429</ele><time>2026-05-04T09:53:58Z</time></trkpt><trkpt lat="43.736797441082516" lon="12.225189500482063"><ele>872.0</ele><time>2026-05-04T09:53:59Z</time></trkpt><trkpt lat="43.73675781392296" lon="12.225111599042584"><ele>872.0000000000001</ele><time>2026-05-04T09:54:00Z</time></trkpt><trkpt lat="43.736726996992985" lon="12.225034009592344"><ele>872.0</ele><time>2026-05-04T09:54:01Z</time></trkpt><trkpt lat="43.736697909384816" lon="12.224953737120043"><ele>872.0</ele><time>2026-05-04T09:54:02Z</time></trkpt><trkpt lat="43.73667275848954" lon="12.224872338490485"><ele>872.0</ele><time>2026-05-04T09:54:03Z</time></trkpt><trkpt lat="43.73666043049559" lon="12.224745656850002"><ele>872.0000000000001</ele><time>2026-05-04T09:54:05Z</time></trkpt><trkpt lat="43.73668860823357" lon="12.224639745046153"><ele>872.0</ele><time>2026-05-04T09:54:07Z</time></trkpt><trkpt lat="43.73672285383214" lon="12.22448164753807"><ele>873.8333333333334</ele><time>2026-05-04T09:54:09Z</time></trkpt><trkpt lat="43.736736881189" lon="12.224381344532125"><ele>875.6666666666667</ele><time>2026-05-04T09:54:10Z</time></trkpt><trkpt lat="43.73674828585753" lon="12.224272942262015"><ele>877.5</ele><time>2026-05-04T09:54:11Z</time></trkpt><trkpt lat="43.73675384286252" lon="12.224178592860477"><ele>879.3333333333333</ele><time>2026-05-04T09:54:12Z</time></trkpt><trkpt lat="43.73674793329658" lon="12.224088008244786"><ele>881.1666666666666</ele><time>2026-05-04T09:54:13Z</time></trkpt><trkpt lat="43.736726819296194" lon="12.223920428488332"><ele>883.0</ele><time>2026-05-04T09:54:15Z</time></trkpt><trkpt lat="43.736699938361674" lon="12.223763692140892"><ele>883.5999999999999</ele><time>2026-05-04T09:54:17Z</time></trkpt><trkpt lat="43.7366848597646" lon="12.22367599219734"><ele>884.1999999999999</ele><time>2026-05-04T09:54:18Z</time></trkpt><trkpt lat="43.73664980642844" lon="12.223508103195755"><ele>884.8</ele><time>2026-05-04T09:54:20Z</time></trkpt><trkpt lat="43.736585938703406" lon="12.223364405699284"><ele>885.4</ele><time>2026-05-04T09:54:22Z</time></trkpt><trkpt lat="43.73648399615217" lon="12.223243685475202"><ele>886.0</ele><time>2026-05-04T09:54:24Z</time></trkpt><trkpt lat="43.73643908658066" lon="12.223179693820605"><ele>886.3333333333333</ele><time>2026-05-04T09:54:25Z</time></trkpt><trkpt lat="43.7363791051161" lon="12.223118997173925"><ele>886.6666666666666</ele><time>2026-05-04T09:54:26Z</time></trkpt><trkpt lat="43.73631107403147" lon="12.223061613533108"><ele>887.0</ele><time>2026-05-04T09:54:27Z</time></trkpt><trkpt lat="43.73623379220543" lon="12.2230095887744"><ele>887.3333333333333</ele><time>2026-05-04T09:54:28Z</time></trkpt><trkpt lat="43.73615164051433" lon="12.22296532322066"><ele>887.6666666666666</ele><time>2026-05-04T09:54:29Z</time></trkpt><trkpt lat="43.73607769672668" lon="12.222929742378343"><ele>888.0</ele><time>2026-05-04T09:54:30Z</time></trkpt><trkpt lat="43.736011674769884" lon="12.222899508533267"><ele>888.0</ele><time>2026-05-04T09:54:31Z</time></trkpt><trkpt lat="43.73594648622281" lon="12.222871723632725"><ele>888.0</ele><time>2026-05-04T09:54:32Z</time></trkpt><trkpt lat="43.735883055243285" lon="12.22284763963051"><ele>888.0</ele><time>2026-05-04T09:54:33Z</time></trkpt><trkpt lat="43.735813394577164" lon="12.222829047034656"><ele>888.0</ele><time>2026-05-04T09:54:34Z</time></trkpt><trkpt lat="43.73569862743514" lon="12.222812895179986"><ele>888.0</ele><time>2026-05-04T09:54:36Z</time></trkpt><trkpt lat="43.73557915341902" lon="12.222807357552101"><ele>888.0</ele><time>2026-05-04T09:54:38Z</time></trkpt><trkpt lat="43.73548414895604" lon="12.222789602285964"><ele>888.0</ele><time>2026-05-04T09:54:40Z</time></trkpt><trkpt lat="43.735400782153576" lon="12.222578051145915"><ele>888.0</ele><time>2026-05-04T09:54:42Z</time></trkpt><trkpt lat="43.735358828171776" lon="12.22249247157603"><ele>888.0</ele><time>2026-05-04T09:54:43Z</time></trkpt><trkpt lat="43.73531820242091" lon="12.222404832487943"><ele>888.0</ele><time>2026-05-04T09:54:44Z</time></trkpt><trkpt lat="43.7352761492055" lon="12.222317494871668"><ele>888.0</ele><time>2026-05-04T09:54:45Z</time></trkpt><trkpt lat="43.735231970170126" lon="12.222231247573994"><ele>887.0</ele><time>2026-05-04T09:54:46Z</time></trkpt><trkpt lat="43.73518893031433" lon="12.222133155827418"><ele>886.0</ele><time>2026-05-04T09:54:47Z</time></trkpt><trkpt lat="43.735142919266885" lon="12.222034086469872"><ele>885.0</ele><time>2026-05-04T09:54:48Z</time></trkpt><trkpt lat="43.73509983179097" lon="12.221939141450607"><ele>884.0</ele><time>2026-05-04T09:54:49Z</time></trkpt><trkpt lat="43.73505260890205" lon="12.221842623676666"><ele>883.0</ele><time>2026-05-04T09:54:50Z</time></trkpt><trkpt lat="43.73500621115633" lon="12.22174931107219"><ele>882.0</ele><time>2026-05-04T09:54:51Z</time></trkpt><trkpt lat="43.73496412470094" lon="12.22164680880124"><ele>882.0</ele><time>2026-05-04T09:54:52Z</time></trkpt><trkpt lat="43.73492437844436" lon="12.221541024058897"><ele>882.0</ele><time>2026-05-04T09:54:53Z</time></trkpt><trkpt lat="43.73488346763254" lon="12.22143459602492"><ele>882.0</ele><time>2026-05-04T09:54:54Z</time></trkpt><trkpt lat="43.73484426068281" lon="12.22133283639023"><ele>882.0</ele><time>2026-05-04T09:54:55Z</time></trkpt><trkpt lat="43.7348064961698" lon="12.221234921063585"><ele>882.0</ele><time>2026-05-04T09:54:56Z</time></trkpt><trkpt lat="43.734765106059925" lon="12.221129271061276"><ele>882.0</ele><time>2026-05-04T09:54:57Z</time></trkpt><trkpt lat="43.73472142184144" lon="12.221026788664703"><ele>879.6666666666666</ele><time>2026-05-04T09:54:58Z</time></trkpt><trkpt lat="43.73468016071262" lon="12.220922926828546"><ele>877.3333333333333</ele><time>2026-05-04T09:54:59Z</time></trkpt><trkpt lat="43.734639035674064" lon="12.220824667634435"><ele>875.0</ele><time>2026-05-04T09:55:00Z</time></trkpt><trkpt lat="43.73459461122866" lon="12.22072545469398"><ele>872.6666666666666</ele><time>2026-05-04T09:55:01Z</time></trkpt><trkpt lat="43.73453983826598" lon="12.220618617902293"><ele>870.3333333333333</ele><time>2026-05-04T09:55:02Z</time></trkpt><trkpt lat="43.73449808874322" lon="12.220504885093211"><ele>868.0</ele><time>2026-05-04T09:55:03Z</time></trkpt><trkpt lat="43.73445864380603" lon="12.220385451992898"><ele>867.8333333333333</ele><time>2026-05-04T09:55:04Z</time></trkpt><trkpt lat="43.73443249046469" lon="12.220275273622216"><ele>867.6666666666666</ele><time>2026-05-04T09:55:05Z</time></trkpt><trkpt lat="43.7343969743937" lon="12.220159249032355"><ele>867.5</ele><time>2026-05-04T09:55:06Z</time></trkpt><trkpt lat="43.73436977422878" lon="12.220065290256636"><ele>867.3333333333333</ele><time>2026-05-04T09:55:07Z</time></trkpt><trkpt lat="43.734354835006556" lon="12.219979338453284"><ele>867.1666666666666</ele><time>2026-05-04T09:55:08Z</time></trkpt><trkpt lat="43.73435462798462" lon="12.219821618861783"><ele>867.0</ele><time>2026-05-04T09:55:10Z</time></trkpt><trkpt lat="43.734376300360125" lon="12.219648722591907"><ele>865.1666666666666</ele><time>2026-05-04T09:55:12Z</time></trkpt><trkpt lat="43.73436991664597" lon="12.219507873937618"><ele>863.3333333333333</ele><time>2026-05-04T09:55:14Z</time></trkpt><trkpt lat="43.734373185815386" lon="12.219386054401285"><ele>861.5</ele><time>2026-05-04T09:55:16Z</time></trkpt><trkpt lat="43.73439371887763" lon="12.219299025804206"><ele>859.6666666666666</ele><time>2026-05-04T09:55:18Z</time></trkpt><trkpt lat="43.73440810699215" lon="12.219186548079792"><ele>857.8333333333333</ele><time>2026-05-04T09:55:29Z</time></trkpt><trkpt lat="43.73438965495191" lon="12.219076039140115"><ele>856.0</ele><time>2026-05-04T09:55:31Z</time></trkpt><trkpt lat="43.73436581250228" lon="12.218944942585207"><ele>854.1666666666666</ele><time>2026-05-04T09:55:33Z</time></trkpt><trkpt lat="43.734337374187106" lon="12.218779767283838"><ele>852.3333333333333</ele><time>2026-05-04T09:55:35Z</time></trkpt><trkpt lat="43.73432314707778" lon="12.218678297747436"><ele>850.5</ele><time>2026-05-04T09:55:36Z</time></trkpt><trkpt lat="43.734306848535034" lon="12.218585853979281"><ele>848.6666666666667</ele><time>2026-05-04T09:55:37Z</time></trkpt><trkpt lat="43.73428969332952" lon="12.218498214844232"><ele>846.8333333333334</ele><time>2026-05-04T09:55:38Z</time></trkpt><trkpt lat="43.73427975977457" lon="12.218405798189142"><ele>845.0</ele><time>2026-05-04T09:55:39Z</time></trkpt><trkpt lat="43.73427470707721" lon="12.21829588729015"><ele>843.0000000000001</ele><time>2026-05-04T09:55:40Z</time></trkpt><trkpt lat="43.734244708849886" lon="12.218116144820815"><ele>841.0</ele><time>2026-05-04T09:55:42Z</time></trkpt><trkpt lat="43.734222719048" lon="12.21801825032214"><ele>839.0</ele><time>2026-05-04T09:55:43Z</time></trkpt><trkpt lat="43.734197409911545" lon="12.217922198693818"><ele>837.0</ele><time>2026-05-04T09:55:44Z</time></trkpt><trkpt lat="43.73418144989355" lon="12.217820866090259"><ele>835.0000000000001</ele><time>2026-05-04T09:55:45Z</time></trkpt><trkpt lat="43.73415808184444" lon="12.217723988802735"><ele>833.0</ele><time>2026-05-04T09:55:46Z</time></trkpt><trkpt lat="43.73414457977091" lon="12.2176302313809"><ele>833.0</ele><time>2026-05-04T09:55:47Z</time></trkpt><trkpt lat="43.73412742650782" lon="12.21753820068363"><ele>833.0</ele><time>2026-05-04T09:55:48Z</time></trkpt><trkpt lat="43.73410739232496" lon="12.217401225513658"><ele>833.0</ele><time>2026-05-04T09:55:50Z</time></trkpt><trkpt lat="43.734069683292034" lon="12.217258535238875"><ele>833.0</ele><time>2026-05-04T09:55:52Z</time></trkpt><trkpt lat="43.73402195446125" lon="12.217111864943908"><ele>833.0</ele><time>2026-05-04T09:55:54Z</time></trkpt><trkpt lat="43.73396987562332" lon="12.216989602390456"><ele>831.3333333333334</ele><time>2026-05-04T09:55:56Z</time></trkpt><trkpt lat="43.73391817618394" lon="12.216831756985114"><ele>829.6666666666667</ele><time>2026-05-04T09:55:58Z</time></trkpt><trkpt lat="43.733893967090005" lon="12.216751164806709"><ele>828.0</ele><time>2026-05-04T09:55:59Z</time></trkpt><trkpt lat="43.73385925114584" lon="12.216665732445342"><ele>826.3333333333333</ele><time>2026-05-04T09:56:00Z</time></trkpt><trkpt lat="43.733826517389886" lon="12.216589504416184"><ele>824.6666666666666</ele><time>2026-05-04T09:56:01Z</time></trkpt><trkpt lat="43.733788833990715" lon="12.216481631595904"><ele>823.0</ele><time>2026-05-04T09:56:02Z</time></trkpt><trkpt lat="43.73375638756947" lon="12.216393147602648"><ele>821.1666666666666</ele><time>2026-05-04T09:56:03Z</time></trkpt><trkpt lat="43.73372911273211" lon="12.21629934337102"><ele>819.3333333333333</ele><time>2026-05-04T09:56:04Z</time></trkpt><trkpt lat="43.73371211894104" lon="12.216190191808689"><ele>817.5</ele><time>2026-05-04T09:56:05Z</time></trkpt><trkpt lat="43.73369583051328" lon="12.216087300233497"><ele>815.6666666666667</ele><time>2026-05-04T09:56:06Z</time></trkpt><trkpt lat="43.73367118723171" lon="12.215967679830948"><ele>813.8333333333334</ele><time>2026-05-04T09:56:07Z</time></trkpt><trkpt lat="43.73365179830604" lon="12.215882329729885"><ele>812.0</ele><time>2026-05-04T09:56:08Z</time></trkpt><trkpt lat="43.73363138041429" lon="12.215768914643402"><ele>811.2</ele><time>2026-05-04T09:56:09Z</time></trkpt><trkpt lat="43.73359581977787" lon="12.215615114441267"><ele>810.4000000000001</ele><time>2026-05-04T09:56:11Z</time></trkpt><trkpt lat="43.733565884726396" lon="12.215518516416383"><ele>809.5999999999999</ele><time>2026-05-04T09:56:12Z</time></trkpt><trkpt lat="43.733522220845146" lon="12.215398004354993"><ele>808.8</ele><time>2026-05-04T09:56:13Z</time></trkpt><trkpt lat="43.73348924151368" lon="12.215305162413825"><ele>808.0</ele><time>2026-05-04T09:56:14Z</time></trkpt><trkpt lat="43.733456666308655" lon="12.215186418427626"><ele>808.0</ele><time>2026-05-04T09:56:15Z</time></trkpt><trkpt lat="43.73345034223444" lon="12.215023527597904"><ele>808.0</ele><time>2026-05-04T09:56:17Z</time></trkpt><trkpt lat="43.73344695766016" lon="12.214846284739496"><ele>808.0</ele><time>2026-05-04T09:56:19Z</time></trkpt><trkpt lat="43.73344037991943" lon="12.214741164377582"><ele>808.0</ele><time>2026-05-04T09:56:20Z</time></trkpt><trkpt lat="43.73343253490454" lon="12.214639249216386"><ele>808.0</ele><time>2026-05-04T09:56:21Z</time></trkpt><trkpt lat="43.733422036842356" lon="12.21452290826757"><ele>806.8333333333333</ele><time>2026-05-04T09:56:22Z</time></trkpt><trkpt lat="43.733401930757914" lon="12.214411816893838"><ele>805.6666666666666</ele><time>2026-05-04T09:56:23Z</time></trkpt><trkpt lat="43.733382779957346" lon="12.214278747748407"><ele>804.5</ele><time>2026-05-04T09:56:24Z</time></trkpt><trkpt lat="43.73335727943456" lon="12.21416288053213"><ele>803.3333333333333</ele><time>2026-05-04T09:56:25Z</time></trkpt><trkpt lat="43.733325985237585" lon="12.21405738807074"><ele>802.1666666666666</ele><time>2026-05-04T09:56:26Z</time></trkpt><trkpt lat="43.73329069933339" lon="12.213969302365143"><ele>801.0</ele><time>2026-05-04T09:56:27Z</time></trkpt><trkpt lat="43.73324754637009" lon="12.213895620478382"><ele>799.5999999999999</ele><time>2026-05-04T09:56:28Z</time></trkpt><trkpt lat="43.73318956927693" lon="12.213845654120218"><ele>798.2</ele><time>2026-05-04T09:56:29Z</time></trkpt><trkpt lat="43.73313507866531" lon="12.213801363069107"><ele>796.8</ele><time>2026-05-04T09:56:30Z</time></trkpt><trkpt lat="43.73306514531788" lon="12.213720967297895"><ele>795.4000000000001</ele><time>2026-05-04T09:56:31Z</time></trkpt><trkpt lat="43.73294858609618" lon="12.213641042528474"><ele>794.0</ele><time>2026-05-04T09:56:33Z</time></trkpt><trkpt lat="43.732846719049554" lon="12.213555187561754"><ele>794.0</ele><time>2026-05-04T09:56:35Z</time></trkpt><trkpt lat="43.73279588826143" lon="12.213501437978666"><ele>794.0</ele><time>2026-05-04T09:56:36Z</time></trkpt><trkpt lat="43.732700804303406" lon="12.213394696365"><ele>794.0</ele><time>2026-05-04T09:56:38Z</time></trkpt><trkpt lat="43.73264993346585" lon="12.213341879410706"><ele>794.0</ele><time>2026-05-04T09:56:39Z</time></trkpt><trkpt lat="43.732553131608505" lon="12.21322213232208"><ele>794.0</ele><time>2026-05-04T09:56:41Z</time></trkpt><trkpt lat="43.732498370116886" lon="12.213149866628338"><ele>792.8333333333334</ele><time>2026-05-04T09:56:42Z</time></trkpt><trkpt lat="43.73244678088512" lon="12.21307463889445"><ele>791.6666666666667</ele><time>2026-05-04T09:56:43Z</time></trkpt><trkpt lat="43.73240430937687" lon="12.212997246479745"><ele>790.5</ele><time>2026-05-04T09:56:44Z</time></trkpt><trkpt lat="43.732365323996554" lon="12.212923165866355"><ele>789.3333333333333</ele><time>2026-05-04T09:56:45Z</time></trkpt><trkpt lat="43.7323233328532" lon="12.21284545587588"><ele>788.1666666666666</ele><time>2026-05-04T09:56:46Z</time></trkpt><trkpt lat="43.73228466311061" lon="12.21270325435169"><ele>787.0</ele><time>2026-05-04T09:56:48Z</time></trkpt><trkpt lat="43.7322731232334" lon="12.212524097870725"><ele>786.9999999999999</ele><time>2026-05-04T09:56:50Z</time></trkpt><trkpt lat="43.732277654375046" lon="12.212434340981233"><ele>787.0</ele><time>2026-05-04T09:56:51Z</time></trkpt><trkpt lat="43.73228886709587" lon="12.212334943241506"><ele>787.0</ele><time>2026-05-04T09:56:52Z</time></trkpt><trkpt lat="43.73230656255515" lon="12.212229932658403"><ele>787.0</ele><time>2026-05-04T09:56:53Z</time></trkpt><trkpt lat="43.73232506596191" lon="12.212123200428683"><ele>786.9999999999999</ele><time>2026-05-04T09:56:54Z</time></trkpt><trkpt lat="43.73233491238391" lon="12.212013224782211"><ele>787.0</ele><time>2026-05-04T09:56:55Z</time></trkpt><trkpt lat="43.73234720427961" lon="12.211906354412337"><ele>785.8333333333333</ele><time>2026-05-04T09:56:56Z</time></trkpt><trkpt lat="43.73234726557018" lon="12.211797169374357"><ele>784.6666666666666</ele><time>2026-05-04T09:56:57Z</time></trkpt><trkpt lat="43.73234481199263" lon="12.211706229376405"><ele>783.5</ele><time>2026-05-04T09:56:58Z</time></trkpt><trkpt lat="43.732318978062565" lon="12.211601529195645"><ele>782.3333333333333</ele><time>2026-05-04T09:56:59Z</time></trkpt><trkpt lat="43.732286318015184" lon="12.211507852314803"><ele>781.1666666666666</ele><time>2026-05-04T09:57:00Z</time></trkpt><trkpt lat="43.732248004802585" lon="12.211412404210815"><ele>780.0</ele><time>2026-05-04T09:57:01Z</time></trkpt><trkpt lat="43.73220954367553" lon="12.211315134505755"><ele>778.3333333333334</ele><time>2026-05-04T09:57:02Z</time></trkpt><trkpt lat="43.73216575635469" lon="12.21124020461302"><ele>776.6666666666667</ele><time>2026-05-04T09:57:03Z</time></trkpt><trkpt lat="43.732112464258" lon="12.211156883970718"><ele>775.0</ele><time>2026-05-04T09:57:04Z</time></trkpt><trkpt lat="43.73207031744223" lon="12.21106275293663"><ele>773.3333333333334</ele><time>2026-05-04T09:57:05Z</time></trkpt><trkpt lat="43.73202304506343" lon="12.21095716493167"><ele>771.6666666666667</ele><time>2026-05-04T09:57:06Z</time></trkpt><trkpt lat="43.731969241919785" lon="12.210845786659915"><ele>770.0</ele><time>2026-05-04T09:57:07Z</time></trkpt><trkpt lat="43.73191934742336" lon="12.210735864031067"><ele>769.1666666666667</ele><time>2026-05-04T09:57:08Z</time></trkpt><trkpt lat="43.73187978119387" lon="12.210625626337865"><ele>768.3333333333334</ele><time>2026-05-04T09:57:09Z</time></trkpt><trkpt lat="43.731843016934945" lon="12.210515011359625"><ele>767.5</ele><time>2026-05-04T09:57:10Z</time></trkpt><trkpt lat="43.731811740409775" lon="12.210401654418336"><ele>766.6666666666667</ele><time>2026-05-04T09:57:11Z</time></trkpt><trkpt lat="43.731772893763264" lon="12.210281065434286"><ele>765.8333333333334</ele><time>2026-05-04T09:57:12Z</time></trkpt><trkpt lat="43.73174748173899" lon="12.210179146849846"><ele>765.0</ele><time>2026-05-04T09:57:13Z</time></trkpt><trkpt lat="43.73172780299723" lon="12.210071106312414"><ele>765.0</ele><time>2026-05-04T09:57:14Z</time></trkpt><trkpt lat="43.73171006833247" lon="12.209967129885912"><ele>765.0</ele><time>2026-05-04T09:57:15Z</time></trkpt><trkpt lat="43.73168997442701" lon="12.20985882718025"><ele>765.0</ele><time>2026-05-04T09:57:16Z</time></trkpt><trkpt lat="43.73167213091667" lon="12.209760262105869"><ele>765.0</ele><time>2026-05-04T09:57:17Z</time></trkpt><trkpt lat="43.73164993384824" lon="12.209666190101744"><ele>765.0</ele><time>2026-05-04T09:57:18Z</time></trkpt><trkpt lat="43.73161302605925" lon="12.209544983997226"><ele>765.0</ele><time>2026-05-04T09:57:19Z</time></trkpt><trkpt lat="43.73157416610131" lon="12.209425795593116"><ele>763.3333333333334</ele><time>2026-05-04T09:57:20Z</time></trkpt><trkpt lat="43.73153693196248" lon="12.20932557454738"><ele>761.6666666666666</ele><time>2026-05-04T09:57:21Z</time></trkpt><trkpt lat="43.73150186646189" lon="12.209233012508413"><ele>760.0</ele><time>2026-05-04T09:57:22Z</time></trkpt><trkpt lat="43.73145701944627" lon="12.209127818616938"><ele>758.3333333333333</ele><time>2026-05-04T09:57:23Z</time></trkpt><trkpt lat="43.73140814037925" lon="12.20903149354074"><ele>756.6666666666666</ele><time>2026-05-04T09:57:24Z</time></trkpt><trkpt lat="43.73135925025494" lon="12.208937743055468"><ele>755.0</ele><time>2026-05-04T09:57:25Z</time></trkpt><trkpt lat="43.73130169520865" lon="12.208868573722272"><ele>754.5</ele><time>2026-05-04T09:57:26Z</time></trkpt><trkpt lat="43.731222843749244" lon="12.208798022518037"><ele>754.0</ele><time>2026-05-04T09:57:27Z</time></trkpt><trkpt lat="43.73115279678917" lon="12.208769326155073"><ele>753.5</ele><time>2026-05-04T09:57:28Z</time></trkpt><trkpt lat="43.731060345713615" lon="12.20871827934162"><ele>753.0</ele><time>2026-05-04T09:57:29Z</time></trkpt><trkpt lat="43.73098010136311" lon="12.208654970084535"><ele>752.5</ele><time>2026-05-04T09:57:30Z</time></trkpt><trkpt lat="43.73092083228279" lon="12.20860344171577"><ele>752.0</ele><time>2026-05-04T09:57:31Z</time></trkpt><trkpt lat="43.73085336125214" lon="12.208542734862048"><ele>750.5</ele><time>2026-05-04T09:57:32Z</time></trkpt><trkpt lat="43.730797799963156" lon="12.20850038267178"><ele>749.0</ele><time>2026-05-04T09:57:33Z</time></trkpt><trkpt lat="43.730731864211236" lon="12.20845876091034"><ele>747.5</ele><time>2026-05-04T09:57:34Z</time></trkpt><trkpt lat="43.73066914769628" lon="12.20840996458564"><ele>746.0</ele><time>2026-05-04T09:57:35Z</time></trkpt><trkpt lat="43.730600155371164" lon="12.208359507582742"><ele>744.5</ele><time>2026-05-04T09:57:36Z</time></trkpt><trkpt lat="43.73052226689767" lon="12.208300224303649"><ele>743.0</ele><time>2026-05-04T09:57:37Z</time></trkpt><trkpt lat="43.730442705471226" lon="12.208235093024099"><ele>743.0</ele><time>2026-05-04T09:57:38Z</time></trkpt><trkpt lat="43.73036833777763" lon="12.208178592386869"><ele>743.0</ele><time>2026-05-04T09:57:39Z</time></trkpt><trkpt lat="43.73029248292249" lon="12.208121088320794"><ele>743.0</ele><time>2026-05-04T09:57:40Z</time></trkpt><trkpt lat="43.7302202276331" lon="12.208072164789543"><ele>743.0</ele><time>2026-05-04T09:57:41Z</time></trkpt><trkpt lat="43.73013243004701" lon="12.208004494420004"><ele>743.0</ele><time>2026-05-04T09:57:42Z</time></trkpt><trkpt lat="43.73005872385987" lon="12.20795346326493"><ele>743.0</ele><time>2026-05-04T09:57:43Z</time></trkpt><trkpt lat="43.72997496369114" lon="12.207888330618164"><ele>740.8</ele><time>2026-05-04T09:57:44Z</time></trkpt><trkpt lat="43.72988964707352" lon="12.207826323602145"><ele>738.5999999999999</ele><time>2026-05-04T09:57:45Z</time></trkpt><trkpt lat="43.72981065241408" lon="12.207772451372739"><ele>736.4000000000001</ele><time>2026-05-04T09:57:46Z</time></trkpt><trkpt lat="43.729723547593636" lon="12.207715660043132"><ele>734.2</ele><time>2026-05-04T09:57:47Z</time></trkpt><trkpt lat="43.729643085910624" lon="12.20766730197085"><ele>732.0</ele><time>2026-05-04T09:57:48Z</time></trkpt><trkpt lat="43.729559899352076" lon="12.207609632269161"><ele>732.0</ele><time>2026-05-04T09:57:49Z</time></trkpt><trkpt lat="43.72948330895482" lon="12.207563036821934"><ele>732.0</ele><time>2026-05-04T09:57:50Z</time></trkpt><trkpt lat="43.729391688203485" lon="12.207502624168159"><ele>732.0</ele><time>2026-05-04T09:57:51Z</time></trkpt><trkpt lat="43.72931744013711" lon="12.207454056883723"><ele>732.0</ele><time>2026-05-04T09:57:52Z</time></trkpt><trkpt lat="43.729232496052596" lon="12.207395467285284"><ele>732.0</ele><time>2026-05-04T09:57:53Z</time></trkpt><trkpt lat="43.72914774051961" lon="12.20734373066277"><ele>730.0</ele><time>2026-05-04T09:57:54Z</time></trkpt><trkpt lat="43.729064839356276" lon="12.207280478886222"><ele>728.0</ele><time>2026-05-04T09:57:55Z</time></trkpt><trkpt lat="43.7289709039827" lon="12.207222622942703"><ele>726.0</ele><time>2026-05-04T09:57:56Z</time></trkpt><trkpt lat="43.72889082516547" lon="12.20715779749013"><ele>724.0</ele><time>2026-05-04T09:57:57Z</time></trkpt><trkpt lat="43.72881270697107" lon="12.20709640354635"><ele>722.0</ele><time>2026-05-04T09:57:58Z</time></trkpt><trkpt lat="43.72872526390024" lon="12.207044435691872"><ele>722.0</ele><time>2026-05-04T09:57:59Z</time></trkpt><trkpt lat="43.728646254960715" lon="12.206984419848713"><ele>722.0</ele><time>2026-05-04T09:58:00Z</time></trkpt><trkpt lat="43.728545176231826" lon="12.206932824009602"><ele>722.0</ele><time>2026-05-04T09:58:01Z</time></trkpt><trkpt lat="43.72846004847849" lon="12.206867273437815"><ele>722.0</ele><time>2026-05-04T09:58:02Z</time></trkpt><trkpt lat="43.72837328422229" lon="12.206801460094004"><ele>722.0</ele><time>2026-05-04T09:58:03Z</time></trkpt><trkpt lat="43.728293911158225" lon="12.206737477719285"><ele>720.3333333333333</ele><time>2026-05-04T09:58:04Z</time></trkpt><trkpt lat="43.728222299073686" lon="12.206674442263555"><ele>718.6666666666666</ele><time>2026-05-04T09:58:05Z</time></trkpt><trkpt lat="43.728157230325486" lon="12.206599358187695"><ele>717.0</ele><time>2026-05-04T09:58:06Z</time></trkpt><trkpt lat="43.72809615644733" lon="12.206497651050453"><ele>715.3333333333334</ele><time>2026-05-04T09:58:08Z</time></trkpt><trkpt lat="43.72806908376532" lon="12.206416187399533"><ele>713.6666666666667</ele><time>2026-05-04T09:58:11Z</time></trkpt><trkpt lat="43.728113340845425" lon="12.206310342810545"><ele>712.0</ele><time>2026-05-04T09:58:57Z</time></trkpt><trkpt lat="43.728154586666754" lon="12.206240109678202"><ele>712.0</ele><time>2026-05-04T09:58:59Z</time></trkpt><trkpt lat="43.72816964100158" lon="12.206148667364696"><ele>712.0</ele><time>2026-05-04T09:59:01Z</time></trkpt><trkpt lat="43.728155699266765" lon="12.205998448036857"><ele>712.0</ele><time>2026-05-04T09:59:03Z</time></trkpt><trkpt lat="43.72814186088169" lon="12.205881771792694"><ele>712.0</ele><time>2026-05-04T09:59:05Z</time></trkpt><trkpt lat="43.72811742089309" lon="12.20578539220753"><ele>712.0</ele><time>2026-05-04T09:59:07Z</time></trkpt><trkpt lat="43.728072732695864" lon="12.205712957513176"><ele>712.0</ele><time>2026-05-04T09:59:09Z</time></trkpt><trkpt lat="43.72804853511167" lon="12.205624664399574"><ele>713.1666666666667</ele><time>2026-05-04T09:59:11Z</time></trkpt><trkpt lat="43.72803494109162" lon="12.205497758580096"><ele>714.3333333333334</ele><time>2026-05-04T09:59:13Z</time></trkpt><trkpt lat="43.727992167330896" lon="12.20539010923682"><ele>715.5</ele><time>2026-05-04T09:59:15Z</time></trkpt><trkpt lat="43.72792878195477" lon="12.205315287990711"><ele>716.6666666666666</ele><time>2026-05-04T09:59:17Z</time></trkpt><trkpt lat="43.72786698041052" lon="12.205233312080516"><ele>717.8333333333333</ele><time>2026-05-04T09:59:19Z</time></trkpt><trkpt lat="43.727806776235205" lon="12.205161655013486"><ele>719.0</ele><time>2026-05-04T09:59:21Z</time></trkpt><trkpt lat="43.727751147574" lon="12.205114098977361"><ele>717.3333333333333</ele><time>2026-05-04T09:59:23Z</time></trkpt><trkpt lat="43.72770516992192" lon="12.205007160093468"><ele>715.6666666666666</ele><time>2026-05-04T09:59:26Z</time></trkpt><trkpt lat="43.72764256662612" lon="12.204939754472596"><ele>714.0</ele><time>2026-05-04T09:59:29Z</time></trkpt><trkpt lat="43.72758662339366" lon="12.204875122584177"><ele>712.3333333333334</ele><time>2026-05-04T09:59:39Z</time></trkpt><trkpt lat="43.72754429714317" lon="12.204795640825456"><ele>710.6666666666667</ele><time>2026-05-04T09:59:41Z</time></trkpt><trkpt lat="43.72749069008948" lon="12.20471771505693"><ele>709.0</ele><time>2026-05-04T09:59:44Z</time></trkpt><trkpt lat="43.7274596040574" lon="12.204629242908814"><ele>709.0000000000001</ele><time>2026-05-04T09:59:47Z</time></trkpt><trkpt lat="43.72743404152007" lon="12.204503634991443"><ele>709.0</ele><time>2026-05-04T09:59:54Z</time></trkpt><trkpt lat="43.72741772449742" lon="12.204396804995618"><ele>709.0</ele><time>2026-05-04T09:59:57Z</time></trkpt><trkpt lat="43.72739917552579" lon="12.20431053838072"><ele>709.0</ele><time>2026-05-04T10:00:00Z</time></trkpt><trkpt lat="43.72739434165367" lon="12.204222137432678"><ele>709.0</ele><time>2026-05-04T10:00:03Z</time></trkpt><trkpt lat="43.72735667940307" lon="12.20414416364959"><ele>709.0000000000001</ele><time>2026-05-04T10:00:09Z</time></trkpt><trkpt lat="43.72730153488994" lon="12.204089834852548"><ele>709.0</ele><time>2026-05-04T10:00:13Z</time></trkpt><trkpt lat="43.72722654731167" lon="12.204072215212658"><ele>710.2857142857143</ele><time>2026-05-04T10:00:16Z</time></trkpt><trkpt lat="43.727188698873775" lon="12.203993812559817"><ele>711.5714285714286</ele><time>2026-05-04T10:00:25Z</time></trkpt><trkpt lat="43.727181675807834" lon="12.203868553162554"><ele>712.8571428571429</ele><time>2026-05-04T10:00:28Z</time></trkpt><trkpt lat="43.72718372409251" lon="12.203779743462281"><ele>714.1428571428571</ele><time>2026-05-04T10:00:31Z</time></trkpt><trkpt lat="43.72717043382581" lon="12.203693276021072"><ele>715.4285714285714</ele><time>2026-05-04T10:00:43Z</time></trkpt><trkpt lat="43.72713368188218" lon="12.203622478504078"><ele>716.7142857142858</ele><time>2026-05-04T10:00:45Z</time></trkpt><trkpt lat="43.7270465085872" lon="12.20363681008871"><ele>718.0</ele><time>2026-05-04T10:00:48Z</time></trkpt><trkpt lat="43.72695864111526" lon="12.203628340788237"><ele>718.0</ele><time>2026-05-04T10:00:51Z</time></trkpt><trkpt lat="43.72691374456213" lon="12.203557508607702"><ele>718.0</ele><time>2026-05-04T10:00:55Z</time></trkpt><trkpt lat="43.72685930686212" lon="12.203487112806068"><ele>718.0</ele><time>2026-05-04T10:00:59Z</time></trkpt><trkpt lat="43.72692823104049" lon="12.203545743894615"><ele>718.0</ele><time>2026-05-04T10:01:37Z</time></trkpt><trkpt lat="43.726967538489696" lon="12.203624777800409"><ele>718.0</ele><time>2026-05-04T10:01:39Z</time></trkpt><trkpt lat="43.72700862940158" lon="12.203714570904356"><ele>718.0</ele><time>2026-05-04T10:01:42Z</time></trkpt><trkpt lat="43.727011644657" lon="12.20383976480332"><ele>716.5</ele><time>2026-05-04T10:01:44Z</time></trkpt><trkpt lat="43.72702256202697" lon="12.204019494624372"><ele>715.0</ele><time>2026-05-04T10:01:46Z</time></trkpt><trkpt lat="43.72701222916678" lon="12.204115363842453"><ele>713.5</ele><time>2026-05-04T10:01:47Z</time></trkpt><trkpt lat="43.727027789728396" lon="12.20420463699649"><ele>712.0</ele><time>2026-05-04T10:01:48Z</time></trkpt><trkpt lat="43.72706443002881" lon="12.204301572740446"><ele>710.5</ele><time>2026-05-04T10:01:49Z</time></trkpt><trkpt lat="43.727086060552104" lon="12.204403473366773"><ele>709.0</ele><time>2026-05-04T10:01:50Z</time></trkpt><trkpt lat="43.72711208759046" lon="12.204509870497846"><ele>709.0</ele><time>2026-05-04T10:01:51Z</time></trkpt><trkpt lat="43.72713906614688" lon="12.204616204198595"><ele>709.0</ele><time>2026-05-04T10:01:52Z</time></trkpt><trkpt lat="43.727165607579344" lon="12.204720984173145"><ele>709.0</ele><time>2026-05-04T10:01:53Z</time></trkpt><trkpt lat="43.727195105274774" lon="12.204831122959622"><ele>709.0</ele><time>2026-05-04T10:01:54Z</time></trkpt><trkpt lat="43.727206257047165" lon="12.20494557226142"><ele>709.0</ele><time>2026-05-04T10:01:55Z</time></trkpt><trkpt lat="43.72722720458735" lon="12.205048508131597"><ele>709.0</ele><time>2026-05-04T10:01:56Z</time></trkpt><trkpt lat="43.727220901917654" lon="12.205191450608382"><ele>707.8333333333334</ele><time>2026-05-04T10:01:58Z</time></trkpt><trkpt lat="43.72716662596257" lon="12.205252998803553"><ele>706.6666666666667</ele><time>2026-05-04T10:02:00Z</time></trkpt><trkpt lat="43.72710316189609" lon="12.205282540307241"><ele>705.5</ele><time>2026-05-04T10:02:02Z</time></trkpt><trkpt lat="43.72706184424797" lon="12.205131686496065"><ele>704.3333333333334</ele><time>2026-05-04T10:02:03Z</time></trkpt><trkpt lat="43.72701009638784" lon="12.205051307470175"><ele>703.1666666666666</ele><time>2026-05-04T10:02:04Z</time></trkpt><trkpt lat="43.72695162397809" lon="12.204957872163334"><ele>702.0</ele><time>2026-05-04T10:02:05Z</time></trkpt><trkpt lat="43.726879366239025" lon="12.204874448516437"><ele>699.2</ele><time>2026-05-04T10:02:06Z</time></trkpt><trkpt lat="43.72681681529655" lon="12.204771187801345"><ele>696.4000000000001</ele><time>2026-05-04T10:02:07Z</time></trkpt><trkpt lat="43.72675354659979" lon="12.20466868734035"><ele>693.5999999999999</ele><time>2026-05-04T10:02:08Z</time></trkpt><trkpt lat="43.726689474496204" lon="12.204565170523152"><ele>690.8</ele><time>2026-05-04T10:02:09Z</time></trkpt><trkpt lat="43.72662342660917" lon="12.204457559013866"><ele>688.0</ele><time>2026-05-04T10:02:10Z</time></trkpt><trkpt lat="43.72655604024655" lon="12.204355237475315"><ele>688.0</ele><time>2026-05-04T10:02:11Z</time></trkpt><trkpt lat="43.726490545678175" lon="12.204252946431719"><ele>688.0</ele><time>2026-05-04T10:02:12Z</time></trkpt><trkpt lat="43.726435071077056" lon="12.204134373751758"><ele>688.0</ele><time>2026-05-04T10:02:13Z</time></trkpt><trkpt lat="43.7263688104375" lon="12.204031076265073"><ele>688.0</ele><time>2026-05-04T10:02:14Z</time></trkpt><trkpt lat="43.72629137545496" lon="12.203942439702672"><ele>688.0</ele><time>2026-05-04T10:02:15Z</time></trkpt><trkpt lat="43.7262353769305" lon="12.20382553827442"><ele>689.2</ele><time>2026-05-04T10:02:16Z</time></trkpt><trkpt lat="43.72615426361214" lon="12.20373114477301"><ele>690.4</ele><time>2026-05-04T10:02:17Z</time></trkpt><trkpt lat="43.726082402248785" lon="12.203634831242686"><ele>691.6</ele><time>2026-05-04T10:02:18Z</time></trkpt><trkpt lat="43.726024653765855" lon="12.203524484193297"><ele>692.8000000000001</ele><time>2026-05-04T10:02:19Z</time></trkpt><trkpt lat="43.72596458203015" lon="12.203426875572454"><ele>694.0</ele><time>2026-05-04T10:02:20Z</time></trkpt><trkpt lat="43.725904846088866" lon="12.203315348502374"><ele>688.4000000000001</ele><time>2026-05-04T10:02:21Z</time></trkpt><trkpt lat="43.72583886338005" lon="12.203217082875122"><ele>682.8</ele><time>2026-05-04T10:02:22Z</time></trkpt><trkpt lat="43.72579836048243" lon="12.203101555163462"><ele>677.2</ele><time>2026-05-04T10:02:23Z</time></trkpt><trkpt lat="43.72575974059628" lon="12.202973693920182"><ele>671.5999999999999</ele><time>2026-05-04T10:02:24Z</time></trkpt><trkpt lat="43.72575030617814" lon="12.20283189785558"><ele>666.0</ele><time>2026-05-04T10:02:25Z</time></trkpt><trkpt lat="43.725709407027956" lon="12.202696670991957"><ele>666.0</ele><time>2026-05-04T10:02:26Z</time></trkpt><trkpt lat="43.72567973356042" lon="12.202542406629565"><ele>666.0</ele><time>2026-05-04T10:02:27Z</time></trkpt><trkpt lat="43.725659451156474" lon="12.202391483285538"><ele>666.0</ele><time>2026-05-04T10:02:28Z</time></trkpt><trkpt lat="43.7256370286843" lon="12.20224071649595"><ele>666.0</ele><time>2026-05-04T10:02:29Z</time></trkpt><trkpt lat="43.72562216498778" lon="12.20209240215419"><ele>666.0</ele><time>2026-05-04T10:02:30Z</time></trkpt><trkpt lat="43.725615906869315" lon="12.201948814834758"><ele>666.0</ele><time>2026-05-04T10:02:31Z</time></trkpt><trkpt lat="43.72562297002581" lon="12.201804388968307"><ele>666.0</ele><time>2026-05-04T10:02:32Z</time></trkpt><trkpt lat="43.72562337269132" lon="12.20164323622348"><ele>666.0</ele><time>2026-05-04T10:02:33Z</time></trkpt><trkpt lat="43.72564082218282" lon="12.201475951722172"><ele>666.0</ele><time>2026-05-04T10:02:34Z</time></trkpt><trkpt lat="43.72565030839909" lon="12.201309840006504"><ele>665.25</ele><time>2026-05-04T10:02:35Z</time></trkpt><trkpt lat="43.7256607377373" lon="12.201147437408812"><ele>664.5</ele><time>2026-05-04T10:02:36Z</time></trkpt><trkpt lat="43.72566435986739" lon="12.200978546662144"><ele>663.75</ele><time>2026-05-04T10:02:37Z</time></trkpt><trkpt lat="43.72565368550195" lon="12.200813815429974"><ele>663.0</ele><time>2026-05-04T10:02:38Z</time></trkpt><trkpt lat="43.72562214339123" lon="12.200645846418139"><ele>663.0</ele><time>2026-05-04T10:02:39Z</time></trkpt><trkpt lat="43.725566464898556" lon="12.200488561213346"><ele>663.0</ele><time>2026-05-04T10:02:40Z</time></trkpt><trkpt lat="43.72550843581629" lon="12.200341149760838"><ele>663.0</ele><time>2026-05-04T10:02:41Z</time></trkpt><trkpt lat="43.7254733401847" lon="12.200184337311844"><ele>663.0</ele><time>2026-05-04T10:02:42Z</time></trkpt><trkpt lat="43.72543728335231" lon="12.200043213062662"><ele>663.0</ele><time>2026-05-04T10:02:43Z</time></trkpt><trkpt lat="43.7254172857412" lon="12.199904916705098"><ele>663.0</ele><time>2026-05-04T10:02:44Z</time></trkpt><trkpt lat="43.725405636863144" lon="12.19976514413516"><ele>663.0</ele><time>2026-05-04T10:02:45Z</time></trkpt><trkpt lat="43.725382850832546" lon="12.19961341473582"><ele>663.0</ele><time>2026-05-04T10:02:46Z</time></trkpt><trkpt lat="43.72540549323038" lon="12.199455152641926"><ele>663.0</ele><time>2026-05-04T10:02:47Z</time></trkpt><trkpt lat="43.725398646179514" lon="12.199286334282437"><ele>661.0</ele><time>2026-05-04T10:02:48Z</time></trkpt><trkpt lat="43.72540893886069" lon="12.199117700752062"><ele>659.0</ele><time>2026-05-04T10:02:49Z</time></trkpt><trkpt lat="43.72539580490428" lon="12.19894492614132"><ele>657.0</ele><time>2026-05-04T10:02:50Z</time></trkpt><trkpt lat="43.725391445960554" lon="12.198769423752209"><ele>655.0</ele><time>2026-05-04T10:02:51Z</time></trkpt><trkpt lat="43.72536088257624" lon="12.198599547356856"><ele>652.75</ele><time>2026-05-04T10:02:52Z</time></trkpt><trkpt lat="43.725344402025485" lon="12.198428076112608"><ele>650.5</ele><time>2026-05-04T10:02:53Z</time></trkpt><trkpt lat="43.72534684840741" lon="12.198262283793827"><ele>648.25</ele><time>2026-05-04T10:02:54Z</time></trkpt><trkpt lat="43.72533732266204" lon="12.198095582769493"><ele>646.0</ele><time>2026-05-04T10:02:55Z</time></trkpt><trkpt lat="43.72533825279653" lon="12.197951576039932"><ele>643.8333333333334</ele><time>2026-05-04T10:02:56Z</time></trkpt><trkpt lat="43.72534985024953" lon="12.197808239837098"><ele>641.6666666666667</ele><time>2026-05-04T10:02:57Z</time></trkpt><trkpt lat="43.72535710453362" lon="12.197688666159403"><ele>639.5</ele><time>2026-05-04T10:02:58Z</time></trkpt><trkpt lat="43.725352304302376" lon="12.197594544135569"><ele>637.3333333333334</ele><time>2026-05-04T10:02:59Z</time></trkpt><trkpt lat="43.725318722787776" lon="12.197511906083166"><ele>635.1666666666666</ele><time>2026-05-04T10:03:00Z</time></trkpt><trkpt lat="43.72525302307577" lon="12.197460344570224"><ele>633.0</ele><time>2026-05-04T10:03:01Z</time></trkpt><trkpt lat="43.72519241163114" lon="12.197397209439266"><ele>626.6</ele><time>2026-05-04T10:03:02Z</time></trkpt><trkpt lat="43.72521440105089" lon="12.197283578453819"><ele>620.1999999999999</ele><time>2026-05-04T10:03:03Z</time></trkpt><trkpt lat="43.72520450217827" lon="12.197160396696498"><ele>613.8</ele><time>2026-05-04T10:03:04Z</time></trkpt><trkpt lat="43.72518251370105" lon="12.197034808151766"><ele>607.4</ele><time>2026-05-04T10:03:05Z</time></trkpt><trkpt lat="43.725175827218855" lon="12.196908548278856"><ele>601.0</ele><time>2026-05-04T10:03:06Z</time></trkpt><trkpt lat="43.72516702931905" lon="12.19678408870444"><ele>601.0</ele><time>2026-05-04T10:03:07Z</time></trkpt><trkpt lat="43.725155102390126" lon="12.19666867463878"><ele>601.0</ele><time>2026-05-04T10:03:08Z</time></trkpt><trkpt lat="43.725134349867474" lon="12.19656390287235"><ele>601.0</ele><time>2026-05-04T10:03:09Z</time></trkpt><trkpt lat="43.72513001103383" lon="12.19646169955893"><ele>601.0</ele><time>2026-05-04T10:03:10Z</time></trkpt><trkpt lat="43.72512442637019" lon="12.196311702800656"><ele>601.0</ele><time>2026-05-04T10:03:12Z</time></trkpt><trkpt lat="43.725125902111564" lon="12.196224280860553"><ele>601.0</ele><time>2026-05-04T10:03:14Z</time></trkpt><trkpt lat="43.72517554453043" lon="12.196130403441245"><ele>597.4</ele><time>2026-05-04T10:03:26Z</time></trkpt><trkpt lat="43.725254995409635" lon="12.19613100420033"><ele>593.8</ele><time>2026-05-04T10:03:40Z</time></trkpt><trkpt lat="43.725354748981154" lon="12.19616088418274"><ele>590.1999999999999</ele><time>2026-05-04T10:03:42Z</time></trkpt><trkpt lat="43.72547650792259" lon="12.196207943323449"><ele>586.6</ele><time>2026-05-04T10:03:44Z</time></trkpt><trkpt lat="43.72554388347697" lon="12.196237828797374"><ele>583.0</ele><time>2026-05-04T10:03:45Z</time></trkpt><trkpt lat="43.72561243864731" lon="12.196265383078464"><ele>583.0</ele><time>2026-05-04T10:03:46Z</time></trkpt><trkpt lat="43.725688647309745" lon="12.196289989617513"><ele>583.0</ele><time>2026-05-04T10:03:47Z</time></trkpt><trkpt lat="43.72577281805778" lon="12.196324269147528"><ele>583.0</ele><time>2026-05-04T10:03:48Z</time></trkpt><trkpt lat="43.72585052991072" lon="12.196345873706079"><ele>583.0</ele><time>2026-05-04T10:03:49Z</time></trkpt><trkpt lat="43.725942208652825" lon="12.196356436639125"><ele>583.0</ele><time>2026-05-04T10:03:50Z</time></trkpt><trkpt lat="43.726024302320766" lon="12.19638395985722"><ele>583.0</ele><time>2026-05-04T10:03:51Z</time></trkpt><trkpt lat="43.72611599990845" lon="12.196394786975446"><ele>580.6</ele><time>2026-05-04T10:03:52Z</time></trkpt><trkpt lat="43.72620525422148" lon="12.196405325605493"><ele>578.1999999999999</ele><time>2026-05-04T10:03:53Z</time></trkpt><trkpt lat="43.726300607523044" lon="12.196418311141436"><ele>575.8</ele><time>2026-05-04T10:03:54Z</time></trkpt><trkpt lat="43.726391864664265" lon="12.196433102816998"><ele>573.4</ele><time>2026-05-04T10:03:55Z</time></trkpt><trkpt lat="43.726495674131584" lon="12.196453901860838"><ele>571.0</ele><time>2026-05-04T10:03:56Z</time></trkpt><trkpt lat="43.72660346019348" lon="12.19647839075095"><ele>571.5</ele><time>2026-05-04T10:03:57Z</time></trkpt><trkpt lat="43.72671284531385" lon="12.196505614113327"><ele>572.0</ele><time>2026-05-04T10:03:58Z</time></trkpt><trkpt lat="43.72682599469561" lon="12.196539734550925"><ele>572.5</ele><time>2026-05-04T10:03:59Z</time></trkpt><trkpt lat="43.726939534804735" lon="12.196579267010824"><ele>573.0</ele><time>2026-05-04T10:04:00Z</time></trkpt><trkpt lat="43.72706076628809" lon="12.196610151124798"><ele>573.0</ele><time>2026-05-04T10:04:01Z</time></trkpt><trkpt lat="43.727179071951475" lon="12.196679444681672"><ele>573.0</ele><time>2026-05-04T10:04:02Z</time></trkpt><trkpt lat="43.72731142207191" lon="12.196714200352712"><ele>573.0</ele><time>2026-05-04T10:04:03Z</time></trkpt><trkpt lat="43.727432388981164" lon="12.196787220594254"><ele>573.0</ele><time>2026-05-04T10:04:04Z</time></trkpt><trkpt lat="43.72754212680621" lon="12.196832978150578"><ele>573.0</ele><time>2026-05-04T10:04:05Z</time></trkpt><trkpt lat="43.72764411962873" lon="12.19685163124045"><ele>573.0</ele><time>2026-05-04T10:04:06Z</time></trkpt><trkpt lat="43.7277244581913" lon="12.196890244118482"><ele>573.0</ele><time>2026-05-04T10:04:07Z</time></trkpt><trkpt lat="43.727793605004244" lon="12.196906771749344"><ele>573.0</ele><time>2026-05-04T10:04:08Z</time></trkpt><trkpt lat="43.72791178623699" lon="12.196883652327397"><ele>573.0</ele><time>2026-05-04T10:04:10Z</time></trkpt><trkpt lat="43.72798300328962" lon="12.196761379644204"><ele>570.4</ele><time>2026-05-04T10:04:12Z</time></trkpt><trkpt lat="43.727897209911994" lon="12.196579594096244"><ele>567.8</ele><time>2026-05-04T10:04:14Z</time></trkpt><trkpt lat="43.72784214475844" lon="12.196522590088362"><ele>565.2</ele><time>2026-05-04T10:04:15Z</time></trkpt><trkpt lat="43.727771678287276" lon="12.196469364099451"><ele>562.6</ele><time>2026-05-04T10:04:16Z</time></trkpt><trkpt lat="43.72771044373149" lon="12.196398925320072"><ele>560.0</ele><time>2026-05-04T10:04:17Z</time></trkpt><trkpt lat="43.72764801513169" lon="12.1963425294431"><ele>559.3333333333333</ele><time>2026-05-04T10:04:18Z</time></trkpt><trkpt lat="43.727570150850354" lon="12.196300250433879"><ele>558.6666666666666</ele><time>2026-05-04T10:04:19Z</time></trkpt><trkpt lat="43.727509687647284" lon="12.196222804751567"><ele>558.0</ele><time>2026-05-04T10:04:20Z</time></trkpt><trkpt lat="43.72743689978765" lon="12.196187686351477"><ele>557.3333333333334</ele><time>2026-05-04T10:04:21Z</time></trkpt><trkpt lat="43.727379875019366" lon="12.196138372242231"><ele>556.6666666666667</ele><time>2026-05-04T10:04:22Z</time></trkpt><trkpt lat="43.7273026607514" lon="12.196065348459841"><ele>556.0</ele><time>2026-05-04T10:04:24Z</time></trkpt><trkpt lat="43.7272688937317" lon="12.195949395216978"><ele>556.0</ele><time>2026-05-04T10:04:27Z</time></trkpt><trkpt lat="43.727206542713525" lon="12.195892219895361"><ele>556.0</ele><time>2026-05-04T10:04:28Z</time></trkpt><trkpt lat="43.72711224932458" lon="12.195847331483304"><ele>556.0</ele><time>2026-05-04T10:04:29Z</time></trkpt><trkpt lat="43.727015709554095" lon="12.195783165005365"><ele>556.0</ele><time>2026-05-04T10:04:30Z</time></trkpt><trkpt lat="43.726910886436016" lon="12.195716618696517"><ele>556.0</ele><time>2026-05-04T10:04:31Z</time></trkpt><trkpt lat="43.726803642476185" lon="12.195659714237255"><ele>559.0</ele><time>2026-05-04T10:04:32Z</time></trkpt><trkpt lat="43.726689349387904" lon="12.195603069985882"><ele>562.0</ele><time>2026-05-04T10:04:33Z</time></trkpt><trkpt lat="43.726576188185966" lon="12.195533676336037"><ele>565.0</ele><time>2026-05-04T10:04:34Z</time></trkpt><trkpt lat="43.72646107167889" lon="12.195475329473991"><ele>568.0</ele><time>2026-05-04T10:04:35Z</time></trkpt><trkpt lat="43.726343902560465" lon="12.195410429136846"><ele>568.0</ele><time>2026-05-04T10:04:36Z</time></trkpt><trkpt lat="43.72623027167681" lon="12.195346330591983"><ele>568.0</ele><time>2026-05-04T10:04:37Z</time></trkpt><trkpt lat="43.72612272424603" lon="12.195287072840545"><ele>568.0</ele><time>2026-05-04T10:04:38Z</time></trkpt><trkpt lat="43.72602064043185" lon="12.195216957539177"><ele>568.0</ele><time>2026-05-04T10:04:39Z</time></trkpt><trkpt lat="43.72592514953996" lon="12.195143505127957"><ele>568.0</ele><time>2026-05-04T10:04:40Z</time></trkpt><trkpt lat="43.72584089274456" lon="12.19506196500609"><ele>568.0</ele><time>2026-05-04T10:04:41Z</time></trkpt><trkpt lat="43.72576559473702" lon="12.194970867041674"><ele>568.0</ele><time>2026-05-04T10:04:42Z</time></trkpt><trkpt lat="43.72569816095901" lon="12.194868476147704"><ele>568.0</ele><time>2026-05-04T10:04:43Z</time></trkpt><trkpt lat="43.7256362963276" lon="12.194753439981518"><ele>568.0</ele><time>2026-05-04T10:04:44Z</time></trkpt><trkpt lat="43.72556870462127" lon="12.194636853308722"><ele>566.4</ele><time>2026-05-04T10:04:45Z</time></trkpt><trkpt lat="43.7255052537413" lon="12.1945061203158"><ele>564.8</ele><time>2026-05-04T10:04:46Z</time></trkpt><trkpt lat="43.72544465545028" lon="12.1943769123687"><ele>563.2</ele><time>2026-05-04T10:04:47Z</time></trkpt><trkpt lat="43.725379548076994" lon="12.194247701619862"><ele>561.6</ele><time>2026-05-04T10:04:48Z</time></trkpt><trkpt lat="43.72531809803392" lon="12.194128255573297"><ele>560.0</ele><time>2026-05-04T10:04:49Z</time></trkpt><trkpt lat="43.725248327131474" lon="12.194022839776327"><ele>559.0</ele><time>2026-05-04T10:04:50Z</time></trkpt><trkpt lat="43.72516961836592" lon="12.193944623144604"><ele>558.0</ele><time>2026-05-04T10:04:51Z</time></trkpt><trkpt lat="43.72508000410305" lon="12.193901625407232"><ele>557.0</ele><time>2026-05-04T10:04:52Z</time></trkpt><trkpt lat="43.72499085546466" lon="12.193874991618522"><ele>556.0</ele><time>2026-05-04T10:04:53Z</time></trkpt><trkpt lat="43.724891805682866" lon="12.19393261973542"><ele>555.0</ele><time>2026-05-04T10:04:54Z</time></trkpt><trkpt lat="43.72482402382613" lon="12.194065535115774"><ele>555.0</ele><time>2026-05-04T10:04:55Z</time></trkpt><trkpt lat="43.7247661003064" lon="12.194194526813034"><ele>555.0</ele><time>2026-05-04T10:04:56Z</time></trkpt><trkpt lat="43.72470453137542" lon="12.1943578059003"><ele>555.0</ele><time>2026-05-04T10:04:57Z</time></trkpt><trkpt lat="43.72462175522867" lon="12.194482480453575"><ele>555.0</ele><time>2026-05-04T10:04:58Z</time></trkpt><trkpt lat="43.72453089532454" lon="12.194587044573966"><ele>555.0</ele><time>2026-05-04T10:04:59Z</time></trkpt><trkpt lat="43.724423221627475" lon="12.194670211211829"><ele>555.0</ele><time>2026-05-04T10:05:00Z</time></trkpt><trkpt lat="43.72429105280313" lon="12.194740892361866"><ele>555.0</ele><time>2026-05-04T10:05:01Z</time></trkpt><trkpt lat="43.72414451485585" lon="12.19479554802957"><ele>555.0</ele><time>2026-05-04T10:05:02Z</time></trkpt><trkpt lat="43.72399711147938" lon="12.194851443538807"><ele>555.75</ele><time>2026-05-04T10:05:03Z</time></trkpt><trkpt lat="43.723852986975466" lon="12.194903428154591"><ele>556.5</ele><time>2026-05-04T10:05:04Z</time></trkpt><trkpt lat="43.72371868835823" lon="12.194961997388575"><ele>557.25</ele><time>2026-05-04T10:05:05Z</time></trkpt><trkpt lat="43.72358248185066" lon="12.194972646052538"><ele>558.0</ele><time>2026-05-04T10:05:06Z</time></trkpt><trkpt lat="43.723442475131854" lon="12.194962187665514"><ele>555.75</ele><time>2026-05-04T10:05:07Z</time></trkpt><trkpt lat="43.723310875464314" lon="12.194901846505921"><ele>553.5</ele><time>2026-05-04T10:05:08Z</time></trkpt><trkpt lat="43.723172566735535" lon="12.19485409947381"><ele>551.25</ele><time>2026-05-04T10:05:09Z</time></trkpt><trkpt lat="43.723037475239195" lon="12.194807463092056"><ele>549.0</ele><time>2026-05-04T10:05:10Z</time></trkpt><trkpt lat="43.72290193727125" lon="12.194780781004873"><ele>549.25</ele><time>2026-05-04T10:05:11Z</time></trkpt><trkpt lat="43.72278334655137" lon="12.19473093022784"><ele>549.5</ele><time>2026-05-04T10:05:12Z</time></trkpt><trkpt lat="43.72267577972286" lon="12.19466906030253"><ele>549.75</ele><time>2026-05-04T10:05:13Z</time></trkpt><trkpt lat="43.722578501667385" lon="12.194576457867768"><ele>550.0</ele><time>2026-05-04T10:05:14Z</time></trkpt><trkpt lat="43.722512264987" lon="12.19443395142255"><ele>550.0</ele><time>2026-05-04T10:05:15Z</time></trkpt><trkpt lat="43.72242405439003" lon="12.194322367648505"><ele>550.0</ele><time>2026-05-04T10:05:16Z</time></trkpt><trkpt lat="43.72235129170963" lon="12.194214355072777"><ele>550.0</ele><time>2026-05-04T10:05:17Z</time></trkpt><trkpt lat="43.72229641402598" lon="12.194137180559679"><ele>550.0</ele><time>2026-05-04T10:05:18Z</time></trkpt><trkpt lat="43.7222379260877" lon="12.19407501580344"><ele>550.0</ele><time>2026-05-04T10:05:20Z</time></trkpt><trkpt lat="43.72221036019827" lon="12.193986776902081"><ele>550.0</ele><time>2026-05-04T10:05:36Z</time></trkpt><trkpt lat="43.72215411298347" lon="12.193928758887472"><ele>549.0</ele><time>2026-05-04T10:07:40Z</time></trkpt><trkpt lat="43.72215682646907" lon="12.19383548274733"><ele>548.0</ele><time>2026-05-04T10:07:41Z</time></trkpt><trkpt lat="43.72208734644559" lon="12.193678013809105"><ele>547.0</ele><time>2026-05-04T10:07:43Z</time></trkpt><trkpt lat="43.72205104634691" lon="12.193598093512351"><ele>546.0</ele><time>2026-05-04T10:07:44Z</time></trkpt><trkpt lat="43.7220191353093" lon="12.193510121816173"><ele>545.0</ele><time>2026-05-04T10:07:45Z</time></trkpt><trkpt lat="43.72198930984276" lon="12.193344049221704"><ele>545.0</ele><time>2026-05-04T10:07:47Z</time></trkpt><trkpt lat="43.721983337751126" lon="12.193253430785871"><ele>545.0</ele><time>2026-05-04T10:07:48Z</time></trkpt><trkpt lat="43.72200274877697" lon="12.193088985102749"><ele>545.0</ele><time>2026-05-04T10:07:50Z</time></trkpt><trkpt lat="43.722072572427905" lon="12.192941524632582"><ele>545.0</ele><time>2026-05-04T10:07:52Z</time></trkpt><trkpt lat="43.72217743460221" lon="12.192834246605397"><ele>545.0</ele><time>2026-05-04T10:07:54Z</time></trkpt><trkpt lat="43.722238305428995" lon="12.192805636436086"><ele>544.3333333333333</ele><time>2026-05-04T10:07:55Z</time></trkpt><trkpt lat="43.72229742614922" lon="12.192773700545331"><ele>543.6666666666666</ele><time>2026-05-04T10:07:56Z</time></trkpt><trkpt lat="43.72237185072669" lon="12.192776006458054"><ele>543.0</ele><time>2026-05-04T10:07:57Z</time></trkpt><trkpt lat="43.72244271889073" lon="12.192747992094437"><ele>542.3333333333334</ele><time>2026-05-04T10:07:58Z</time></trkpt><trkpt lat="43.722505809841714" lon="12.1927440418348"><ele>541.6666666666667</ele><time>2026-05-04T10:07:59Z</time></trkpt><trkpt lat="43.72263838844413" lon="12.19274860096801"><ele>541.0</ele><time>2026-05-04T10:08:01Z</time></trkpt><trkpt lat="43.72270842118535" lon="12.192740118525345"><ele>540.0000000000001</ele><time>2026-05-04T10:08:02Z</time></trkpt><trkpt lat="43.7227782463852" lon="12.192711953658042"><ele>539.0</ele><time>2026-05-04T10:08:03Z</time></trkpt><trkpt lat="43.7228498775355" lon="12.192720543308655"><ele>538.0</ele><time>2026-05-04T10:08:04Z</time></trkpt><trkpt lat="43.72291460661507" lon="12.192679809200067"><ele>537.0</ele><time>2026-05-04T10:08:05Z</time></trkpt><trkpt lat="43.72299448882864" lon="12.19263579691273"><ele>536.0</ele><time>2026-05-04T10:08:06Z</time></trkpt><trkpt lat="43.72305334138017" lon="12.192592882211006"><ele>535.0000000000001</ele><time>2026-05-04T10:08:07Z</time></trkpt><trkpt lat="43.72311447365532" lon="12.192522971376418"><ele>534.0</ele><time>2026-05-04T10:08:08Z</time></trkpt><trkpt lat="43.72318541004932" lon="12.192497406826742"><ele>534.0</ele><time>2026-05-04T10:08:09Z</time></trkpt><trkpt lat="43.723257843552176" lon="12.192453600150536"><ele>534.0</ele><time>2026-05-04T10:08:10Z</time></trkpt><trkpt lat="43.723343337429014" lon="12.192389356476847"><ele>534.0</ele><time>2026-05-04T10:08:11Z</time></trkpt><trkpt lat="43.723411495391424" lon="12.192356053407908"><ele>534.0</ele><time>2026-05-04T10:08:12Z</time></trkpt><trkpt lat="43.72348187650674" lon="12.192315208959645"><ele>534.0</ele><time>2026-05-04T10:08:13Z</time></trkpt><trkpt lat="43.723595963638665" lon="12.19228874805682"><ele>534.0</ele><time>2026-05-04T10:08:15Z</time></trkpt><trkpt lat="43.72365970547687" lon="12.192264516270075"><ele>529.8</ele><time>2026-05-04T10:08:16Z</time></trkpt><trkpt lat="43.723764764243334" lon="12.192228494330259"><ele>525.5999999999999</ele><time>2026-05-04T10:08:18Z</time></trkpt><trkpt lat="43.72387841949748" lon="12.19218971246527"><ele>521.4</ele><time>2026-05-04T10:08:20Z</time></trkpt><trkpt lat="43.72398196449269" lon="12.192150544086378"><ele>517.1999999999999</ele><time>2026-05-04T10:08:22Z</time></trkpt><trkpt lat="43.72408513880096" lon="12.192096951561261"><ele>513.0</ele><time>2026-05-04T10:08:24Z</time></trkpt><trkpt lat="43.724199025659544" lon="12.192042430473089"><ele>513.0000000000001</ele><time>2026-05-04T10:08:26Z</time></trkpt><trkpt lat="43.72426345424398" lon="12.192017291665628"><ele>513.0</ele><time>2026-05-04T10:08:27Z</time></trkpt><trkpt lat="43.72433626019714" lon="12.192053908535913"><ele>513.0</ele><time>2026-05-04T10:08:28Z</time></trkpt><trkpt lat="43.72441155680128" lon="12.192075754836504"><ele>513.0</ele><time>2026-05-04T10:08:29Z</time></trkpt><trkpt lat="43.72448751318607" lon="12.192104327711919"><ele>513.0</ele><time>2026-05-04T10:08:30Z</time></trkpt><trkpt lat="43.72455232128893" lon="12.192133919489264"><ele>513.0000000000001</ele><time>2026-05-04T10:08:31Z</time></trkpt><trkpt lat="43.72459988833586" lon="12.19219350842186"><ele>513.0</ele><time>2026-05-04T10:08:32Z</time></trkpt><trkpt lat="43.72469015993907" lon="12.192312380615292"><ele>512.0</ele><time>2026-05-04T10:08:34Z</time></trkpt><trkpt lat="43.72474807967031" lon="12.192479439429045"><ele>510.99999999999994</ele><time>2026-05-04T10:08:36Z</time></trkpt><trkpt lat="43.72477250007819" lon="12.19257805465828"><ele>509.99999999999994</ele><time>2026-05-04T10:08:37Z</time></trkpt><trkpt lat="43.72479287173131" lon="12.192688830773045"><ele>509.0</ele><time>2026-05-04T10:08:38Z</time></trkpt><trkpt lat="43.72484179692359" lon="12.192833660545391"><ele>508.0</ele><time>2026-05-04T10:08:40Z</time></trkpt><trkpt lat="43.724948072323095" lon="12.192906213289366"><ele>508.00000000000006</ele><time>2026-05-04T10:08:42Z</time></trkpt><trkpt lat="43.72502671833728" lon="12.192884488056407"><ele>508.0</ele><time>2026-05-04T10:08:43Z</time></trkpt><trkpt lat="43.72510768005299" lon="12.192845083181679"><ele>508.0</ele><time>2026-05-04T10:08:44Z</time></trkpt><trkpt lat="43.725176806723795" lon="12.192855452909686"><ele>508.0</ele><time>2026-05-04T10:08:45Z</time></trkpt><trkpt lat="43.7252399568763" lon="12.192846712297447"><ele>508.00000000000006</ele><time>2026-05-04T10:08:46Z</time></trkpt><trkpt lat="43.72536364907961" lon="12.192867289020748"><ele>508.0</ele><time>2026-05-04T10:08:48Z</time></trkpt><trkpt lat="43.72548307482013" lon="12.192861384938816"><ele>507.0</ele><time>2026-05-04T10:08:50Z</time></trkpt><trkpt lat="43.72558432954507" lon="12.192765201206377"><ele>505.99999999999994</ele><time>2026-05-04T10:08:52Z</time></trkpt><trkpt lat="43.72565610998352" lon="12.192710393775045"><ele>504.99999999999994</ele><time>2026-05-04T10:08:54Z</time></trkpt><trkpt lat="43.72574842245743" lon="12.192636777913176"><ele>504.0</ele><time>2026-05-04T10:08:56Z</time></trkpt><trkpt lat="43.72576055577562" lon="12.192547284817044"><ele>503.0</ele><time>2026-05-04T10:08:57Z</time></trkpt><trkpt lat="43.72575369395289" lon="12.192389352327371"><ele>502.42857142857144</ele><time>2026-05-04T10:08:59Z</time></trkpt><trkpt lat="43.72574513920373" lon="12.19229846411449"><ele>501.8571428571429</ele><time>2026-05-04T10:09:00Z</time></trkpt><trkpt lat="43.72572395477865" lon="12.192214371475483"><ele>501.28571428571433</ele><time>2026-05-04T10:09:01Z</time></trkpt><trkpt lat="43.725692111902426" lon="12.192122615247017"><ele>500.7142857142858</ele><time>2026-05-04T10:09:02Z</time></trkpt><trkpt lat="43.72563296174921" lon="12.192053009642718"><ele>500.14285714285717</ele><time>2026-05-04T10:09:03Z</time></trkpt><trkpt lat="43.72560329831242" lon="12.191965409427986"><ele>499.57142857142867</ele><time>2026-05-04T10:09:04Z</time></trkpt><trkpt lat="43.725562780482555" lon="12.19188778233429"><ele>499.00000000000006</ele><time>2026-05-04T10:09:05Z</time></trkpt><trkpt lat="43.725511476255214" lon="12.191780373095703"><ele>499.0</ele><time>2026-05-04T10:09:07Z</time></trkpt><trkpt lat="43.72549830366216" lon="12.191679532926457"><ele>499.0</ele><time>2026-05-04T10:09:09Z</time></trkpt><trkpt lat="43.72557397701649" lon="12.19157821570844"><ele>499.0</ele><time>2026-05-04T10:09:11Z</time></trkpt><trkpt lat="43.72563194417722" lon="12.191426538142995"><ele>499.0</ele><time>2026-05-04T10:09:13Z</time></trkpt><trkpt lat="43.72570117033742" lon="12.1913397710455"><ele>499.0</ele><time>2026-05-04T10:09:15Z</time></trkpt><trkpt lat="43.72560383791104" lon="12.191050600566271"><ele>499.50000000000006</ele><time>2026-05-04T10:10:27Z</time></trkpt><trkpt lat="43.72548528703372" lon="12.190982810136951"><ele>500.0</ele><time>2026-05-04T10:10:29Z</time></trkpt><trkpt lat="43.72541925545568" lon="12.190949904807693"><ele>500.5</ele><time>2026-05-04T10:10:30Z</time></trkpt><trkpt lat="43.725347579614606" lon="12.19090743361827"><ele>501.0</ele><time>2026-05-04T10:10:31Z</time></trkpt><trkpt lat="43.725275241456934" lon="12.190868602993818"><ele>501.50000000000006</ele><time>2026-05-04T10:10:32Z</time></trkpt><trkpt lat="43.72519973924905" lon="12.190833663417816"><ele>502.0</ele><time>2026-05-04T10:10:33Z</time></trkpt><trkpt lat="43.72513814236065" lon="12.190795102431093"><ele>502.0</ele><time>2026-05-04T10:10:34Z</time></trkpt><trkpt lat="43.7250653566874" lon="12.190761162344792"><ele>502.00000000000006</ele><time>2026-05-04T10:10:35Z</time></trkpt><trkpt lat="43.72494232305551" lon="12.190713835468486"><ele>502.00000000000006</ele><time>2026-05-04T10:10:37Z</time></trkpt><trkpt lat="43.72487808440499" lon="12.190694539941715"><ele>502.0</ele><time>2026-05-04T10:10:38Z</time></trkpt><trkpt lat="43.72477658630647" lon="12.190622954263834"><ele>502.0</ele><time>2026-05-04T10:10:40Z</time></trkpt><trkpt lat="43.724685954312946" lon="12.190504766331461"><ele>504.6666666666667</ele><time>2026-05-04T10:10:42Z</time></trkpt><trkpt lat="43.72463472952624" lon="12.190442975195403"><ele>507.33333333333337</ele><time>2026-05-04T10:10:43Z</time></trkpt><trkpt lat="43.724587506561726" lon="12.190380531244173"><ele>510.0</ele><time>2026-05-04T10:10:44Z</time></trkpt><trkpt lat="43.7245411216017" lon="12.190275316688036"><ele>512.6666666666666</ele><time>2026-05-04T10:10:46Z</time></trkpt><trkpt lat="43.72454658744916" lon="12.19013972908667"><ele>515.3333333333333</ele><time>2026-05-04T10:10:48Z</time></trkpt><trkpt lat="43.72455534620768" lon="12.190049244326342"><ele>518.0</ele><time>2026-05-04T10:10:49Z</time></trkpt><trkpt lat="43.72456971407873" lon="12.189905926503103"><ele>519.6</ele><time>2026-05-04T10:10:51Z</time></trkpt><trkpt lat="43.72456841954803" lon="12.189806656559668"><ele>521.1999999999999</ele><time>2026-05-04T10:10:52Z</time></trkpt><trkpt lat="43.72457297584511" lon="12.18964316520024"><ele>522.8</ele><time>2026-05-04T10:10:54Z</time></trkpt><trkpt lat="43.72455939521967" lon="12.189535234942458"><ele>524.4</ele><time>2026-05-04T10:10:55Z</time></trkpt><trkpt lat="43.7245020222668" lon="12.189389058542341"><ele>526.0</ele><time>2026-05-04T10:10:57Z</time></trkpt><trkpt lat="43.724377116756955" lon="12.189358526662767"><ele>526.0</ele><time>2026-05-04T10:10:59Z</time></trkpt><trkpt lat="43.72431019652529" lon="12.189377835973046"><ele>526.0</ele><time>2026-05-04T10:11:00Z</time></trkpt><trkpt lat="43.724244226122025" lon="12.189381137504585"><ele>526.0</ele><time>2026-05-04T10:11:02Z</time></trkpt><trkpt lat="43.724188649612046" lon="12.189319950549597"><ele>526.0</ele><time>2026-05-04T10:11:06Z</time></trkpt><trkpt lat="43.72410789368049" lon="12.189263735769424"><ele>526.0</ele><time>2026-05-04T10:11:08Z</time></trkpt><trkpt lat="43.72406936499674" lon="12.189155751441445"><ele>526.0</ele><time>2026-05-04T10:11:10Z</time></trkpt><trkpt lat="43.724037964898464" lon="12.189018498440875"><ele>531.0</ele><time>2026-05-04T10:11:12Z</time></trkpt><trkpt lat="43.723988211337065" lon="12.188888312222703"><ele>536.0</ele><time>2026-05-04T10:11:14Z</time></trkpt><trkpt lat="43.72392072964794" lon="12.188794610636597"><ele>541.0</ele><time>2026-05-04T10:11:16Z</time></trkpt><trkpt lat="43.723873021815386" lon="12.188719989028318"><ele>546.0</ele><time>2026-05-04T10:11:18Z</time></trkpt><trkpt lat="43.72378441881928" lon="12.188638553577933"><ele>551.0</ele><time>2026-05-04T10:11:20Z</time></trkpt><trkpt lat="43.72371759564802" lon="12.18857857293206"><ele>551.0</ele><time>2026-05-04T10:11:22Z</time></trkpt><trkpt lat="43.72367458359399" lon="12.188454714196569"><ele>551.0</ele><time>2026-05-04T10:11:25Z</time></trkpt><trkpt lat="43.72365375621265" lon="12.18837068617548"><ele>551.0</ele><time>2026-05-04T10:11:26Z</time></trkpt><trkpt lat="43.72359589797047" lon="12.18825640170016"><ele>551.0</ele><time>2026-05-04T10:11:28Z</time></trkpt><trkpt lat="43.723528910410245" lon="12.188152504105364"><ele>551.0</ele><time>2026-05-04T10:11:30Z</time></trkpt><trkpt lat="43.72352765884339" lon="12.188028088173528"><ele>552.6666666666666</ele><time>2026-05-04T10:11:32Z</time></trkpt><trkpt lat="43.723501415294514" lon="12.187894680317886"><ele>554.3333333333333</ele><time>2026-05-04T10:11:34Z</time></trkpt><trkpt lat="43.72343332678886" lon="12.187859278321389"><ele>556.0</ele><time>2026-05-04T10:11:36Z</time></trkpt><trkpt lat="43.72336015370728" lon="12.187951176227088"><ele>557.6666666666666</ele><time>2026-05-04T10:11:38Z</time></trkpt><trkpt lat="43.723279085391546" lon="12.188016819369084"><ele>559.3333333333334</ele><time>2026-05-04T10:11:40Z</time></trkpt><trkpt lat="43.723201520249575" lon="12.18800815774173"><ele>561.0</ele><time>2026-05-04T10:11:42Z</time></trkpt><trkpt lat="43.72309307029674" lon="12.187982817368395"><ele>561.0</ele><time>2026-05-04T10:11:44Z</time></trkpt><trkpt lat="43.722983994410804" lon="12.188020503911336"><ele>561.0</ele><time>2026-05-04T10:11:46Z</time></trkpt><trkpt lat="43.72289544064789" lon="12.188087317263127"><ele>561.0</ele><time>2026-05-04T10:11:48Z</time></trkpt><trkpt lat="43.72283419999923" lon="12.1881339801895"><ele>561.0</ele><time>2026-05-04T10:11:50Z</time></trkpt><trkpt lat="43.72275678226906" lon="12.188149229375068"><ele>561.0</ele><time>2026-05-04T10:11:53Z</time></trkpt><trkpt lat="43.722688795868244" lon="12.18820214210653"><ele>561.0</ele><time>2026-05-04T10:11:56Z</time></trkpt><trkpt lat="43.72262091508592" lon="12.188176610838186"><ele>559.3333333333334</ele><time>2026-05-04T10:12:00Z</time></trkpt><trkpt lat="43.7225602855855" lon="12.188200337495768"><ele>557.6666666666666</ele><time>2026-05-04T10:12:07Z</time></trkpt><trkpt lat="43.72253683634328" lon="12.188307923604635"><ele>556.0</ele><time>2026-05-04T10:12:21Z</time></trkpt><trkpt lat="43.72246107498882" lon="12.18831812979399"><ele>554.3333333333333</ele><time>2026-05-04T10:12:51Z</time></trkpt><trkpt lat="43.722383483257566" lon="12.188300214183183"><ele>552.6666666666666</ele><time>2026-05-04T10:12:57Z</time></trkpt><trkpt lat="43.72234733208784" lon="12.188386946506103"><ele>551.0</ele><time>2026-05-04T10:12:59Z</time></trkpt><trkpt lat="43.722332255438204" lon="12.188500425421182"><ele>550.9999999999999</ele><time>2026-05-04T10:13:01Z</time></trkpt><trkpt lat="43.7222970603947" lon="12.188575070530812"><ele>551.0</ele><time>2026-05-04T10:13:03Z</time></trkpt><trkpt lat="43.72225070885163" lon="12.188685526742331"><ele>551.0</ele><time>2026-05-04T10:13:06Z</time></trkpt><trkpt lat="43.722199943451315" lon="12.188765443325371"><ele>551.0</ele><time>2026-05-04T10:13:08Z</time></trkpt><trkpt lat="43.722144130716984" lon="12.188841517895968"><ele>551.0</ele><time>2026-05-04T10:13:10Z</time></trkpt><trkpt lat="43.72211838463698" lon="12.188923168475048"><ele>550.9999999999999</ele><time>2026-05-04T10:13:13Z</time></trkpt><trkpt lat="43.72205049465703" lon="12.188937973710097"><ele>551.0</ele><time>2026-05-04T10:13:17Z</time></trkpt><trkpt lat="43.72199575149693" lon="12.1888876378629"><ele>550.9999999999999</ele><time>2026-05-04T10:13:27Z</time></trkpt><trkpt lat="43.72192749071364" lon="12.1888714328519"><ele>551.0</ele><time>2026-05-04T10:13:29Z</time></trkpt><trkpt lat="43.72185166175953" lon="12.188850859878237"><ele>551.0</ele><time>2026-05-04T10:13:31Z</time></trkpt><trkpt lat="43.72177514431499" lon="12.188801184118365"><ele>551.0</ele><time>2026-05-04T10:13:33Z</time></trkpt><trkpt lat="43.7216989417521" lon="12.188808013928018"><ele>551.0</ele><time>2026-05-04T10:13:35Z</time></trkpt><trkpt lat="43.72163106856924" lon="12.18884316086013"><ele>550.9999999999999</ele><time>2026-05-04T10:13:37Z</time></trkpt><trkpt lat="43.72156938119341" lon="12.188863062008686"><ele>551.0</ele><time>2026-05-04T10:13:39Z</time></trkpt><trkpt lat="43.72149088832281" lon="12.188829541591035"><ele>556.0</ele><time>2026-05-04T10:13:41Z</time></trkpt><trkpt lat="43.72141958685732" lon="12.188794264750378"><ele>561.0</ele><time>2026-05-04T10:13:43Z</time></trkpt><trkpt lat="43.72131676455136" lon="12.188758133673836"><ele>566.0</ele><time>2026-05-04T10:13:45Z</time></trkpt><trkpt lat="43.721212634995524" lon="12.18871932970359"><ele>571.0</ele><time>2026-05-04T10:13:47Z</time></trkpt><trkpt lat="43.72113442439537" lon="12.188678456090457"><ele>576.0</ele><time>2026-05-04T10:13:49Z</time></trkpt><trkpt lat="43.72105037969697" lon="12.188634591285282"><ele>576.0</ele><time>2026-05-04T10:13:51Z</time></trkpt><trkpt lat="43.720974252844876" lon="12.188558145606551"><ele>576.0</ele><time>2026-05-04T10:13:53Z</time></trkpt><trkpt lat="43.72090646891556" lon="12.18847649560959"><ele>576.0</ele><time>2026-05-04T10:13:55Z</time></trkpt><trkpt lat="43.72083557903701" lon="12.18842398664931"><ele>576.0</ele><time>2026-05-04T10:13:57Z</time></trkpt><trkpt lat="43.720775470913836" lon="12.188314640352376"><ele>576.0</ele><time>2026-05-04T10:13:59Z</time></trkpt><trkpt lat="43.72073481182747" lon="12.188187532234833"><ele>579.0</ele><time>2026-05-04T10:14:01Z</time></trkpt><trkpt lat="43.72071747836054" lon="12.188053838158021"><ele>582.0</ele><time>2026-05-04T10:14:03Z</time></trkpt><trkpt lat="43.72069435422048" lon="12.18789460894241"><ele>585.0</ele><time>2026-05-04T10:14:05Z</time></trkpt><trkpt lat="43.72069401361696" lon="12.187796232508624"><ele>588.0</ele><time>2026-05-04T10:14:06Z</time></trkpt><trkpt lat="43.72068697512901" lon="12.187679727633041"><ele>591.0</ele><time>2026-05-04T10:14:08Z</time></trkpt><trkpt lat="43.72068672922526" lon="12.18758361633152"><ele>594.0</ele><time>2026-05-04T10:14:11Z</time></trkpt><trkpt lat="43.72065255428601" lon="12.18746872797233"><ele>594.0</ele><time>2026-05-04T10:14:14Z</time></trkpt><trkpt lat="43.7206262434156" lon="12.187378472116137"><ele>594.0</ele><time>2026-05-04T10:14:16Z</time></trkpt><trkpt lat="43.72060863731432" lon="12.187274477842195"><ele>594.0</ele><time>2026-05-04T10:14:18Z</time></trkpt><trkpt lat="43.72058107130627" lon="12.18715743025424"><ele>594.0</ele><time>2026-05-04T10:14:20Z</time></trkpt><trkpt lat="43.72051001062438" lon="12.187074173279095"><ele>594.0</ele><time>2026-05-04T10:14:22Z</time></trkpt><trkpt lat="43.72041062591466" lon="12.1870328801523"><ele>594.0</ele><time>2026-05-04T10:14:24Z</time></trkpt><trkpt lat="43.72034457120572" lon="12.186983232019761"><ele>595.2</ele><time>2026-05-04T10:14:26Z</time></trkpt><trkpt lat="43.720302292028975" lon="12.186873627317162"><ele>596.4</ele><time>2026-05-04T10:14:28Z</time></trkpt><trkpt lat="43.72026035744984" lon="12.186747523405536"><ele>597.6</ele><time>2026-05-04T10:14:30Z</time></trkpt><trkpt lat="43.72022006101672" lon="12.186608050273337"><ele>598.8</ele><time>2026-05-04T10:14:32Z</time></trkpt><trkpt lat="43.720179194490186" lon="12.186492176946599"><ele>600.0</ele><time>2026-05-04T10:14:34Z</time></trkpt><trkpt lat="43.72012816640875" lon="12.18636551413204"><ele>602.6666666666666</ele><time>2026-05-04T10:14:36Z</time></trkpt><trkpt lat="43.72008381208187" lon="12.186262033480208"><ele>605.3333333333334</ele><time>2026-05-04T10:14:38Z</time></trkpt><trkpt lat="43.720040552106646" lon="12.186141234046215"><ele>608.0</ele><time>2026-05-04T10:14:40Z</time></trkpt><trkpt lat="43.71997035176663" lon="12.186080153964223"><ele>610.6666666666667</ele><time>2026-05-04T10:14:42Z</time></trkpt><trkpt lat="43.71989032040616" lon="12.186035972798956"><ele>613.3333333333334</ele><time>2026-05-04T10:14:45Z</time></trkpt><trkpt lat="43.71983024129023" lon="12.18600811720512"><ele>616.0</ele><time>2026-05-04T10:14:48Z</time></trkpt><trkpt lat="43.71975037351043" lon="12.185959524737305"><ele>616.0</ele><time>2026-05-04T10:14:52Z</time></trkpt><trkpt lat="43.719677946148835" lon="12.185886645747445"><ele>616.0</ele><time>2026-05-04T10:14:54Z</time></trkpt><trkpt lat="43.7196118311661" lon="12.18581961902152"><ele>616.0</ele><time>2026-05-04T10:14:56Z</time></trkpt><trkpt lat="43.71952086023322" lon="12.185792755826432"><ele>616.0</ele><time>2026-05-04T10:14:58Z</time></trkpt><trkpt lat="43.71944081898695" lon="12.185784994706358"><ele>616.0</ele><time>2026-05-04T10:15:00Z</time></trkpt><trkpt lat="43.71938519561917" lon="12.185722594059987"><ele>616.0</ele><time>2026-05-04T10:15:02Z</time></trkpt><trkpt lat="43.719344004965066" lon="12.185628186150007"><ele>618.6666666666667</ele><time>2026-05-04T10:15:04Z</time></trkpt><trkpt lat="43.71934024781602" lon="12.18550921822528"><ele>621.3333333333334</ele><time>2026-05-04T10:15:07Z</time></trkpt><trkpt lat="43.71939461058519" lon="12.185433291138514"><ele>624.0</ele><time>2026-05-04T10:15:09Z</time></trkpt><trkpt lat="43.71944434501709" lon="12.185365904937868"><ele>626.6666666666666</ele><time>2026-05-04T10:15:11Z</time></trkpt><trkpt lat="43.71951516052619" lon="12.18524141553198"><ele>629.3333333333333</ele><time>2026-05-04T10:15:13Z</time></trkpt><trkpt lat="43.719575000372586" lon="12.185148568961448"><ele>632.0</ele><time>2026-05-04T10:15:15Z</time></trkpt><trkpt lat="43.7196359231642" lon="12.185079719918484"><ele>632.6666666666666</ele><time>2026-05-04T10:15:17Z</time></trkpt><trkpt lat="43.719717417961945" lon="12.184985247035172"><ele>633.3333333333333</ele><time>2026-05-04T10:15:19Z</time></trkpt><trkpt lat="43.71978015738865" lon="12.184893949980063"><ele>634.0</ele><time>2026-05-04T10:15:21Z</time></trkpt><trkpt lat="43.719829614841004" lon="12.184794513774527"><ele>634.6666666666666</ele><time>2026-05-04T10:15:23Z</time></trkpt><trkpt lat="43.71985818196926" lon="12.184700149663705"><ele>635.3333333333334</ele><time>2026-05-04T10:15:25Z</time></trkpt><trkpt lat="43.71986420853779" lon="12.184597031897402"><ele>636.0</ele><time>2026-05-04T10:15:27Z</time></trkpt><trkpt lat="43.719798895053515" lon="12.18455730222776"><ele>639.4</ele><time>2026-05-04T10:15:29Z</time></trkpt><trkpt lat="43.71968222385705" lon="12.184513829851864"><ele>642.8</ele><time>2026-05-04T10:15:31Z</time></trkpt><trkpt lat="43.719567732712946" lon="12.18448312038798"><ele>646.1999999999999</ele><time>2026-05-04T10:15:33Z</time></trkpt><trkpt lat="43.71947259839365" lon="12.184431365967853"><ele>649.6</ele><time>2026-05-04T10:15:35Z</time></trkpt><trkpt lat="43.719403805668435" lon="12.18443011485068"><ele>653.0</ele><time>2026-05-04T10:15:36Z</time></trkpt><trkpt lat="43.71934241081041" lon="12.184400347528667"><ele>653.0</ele><time>2026-05-04T10:15:37Z</time></trkpt><trkpt lat="43.71923265232647" lon="12.184325120897558"><ele>653.0</ele><time>2026-05-04T10:15:39Z</time></trkpt><trkpt lat="43.719176439925924" lon="12.184265915314302"><ele>653.0</ele><time>2026-05-04T10:15:41Z</time></trkpt><trkpt lat="43.71904084231149" lon="12.184238495571432"><ele>653.0</ele><time>2026-05-04T10:15:43Z</time></trkpt><trkpt lat="43.71896975124585" lon="12.184197162421823"><ele>653.0</ele><time>2026-05-04T10:15:44Z</time></trkpt><trkpt lat="43.71889916407504" lon="12.18414716658598"><ele>653.0</ele><time>2026-05-04T10:15:45Z</time></trkpt><trkpt lat="43.71883111561363" lon="12.18410222540563"><ele>653.0</ele><time>2026-05-04T10:15:46Z</time></trkpt><trkpt lat="43.71876116288803" lon="12.184053379696675"><ele>653.0</ele><time>2026-05-04T10:15:47Z</time></trkpt><trkpt lat="43.71870106871537" lon="12.18399381455127"><ele>653.0</ele><time>2026-05-04T10:15:48Z</time></trkpt><trkpt lat="43.71861662974205" lon="12.183977006312292"><ele>653.0</ele><time>2026-05-04T10:15:49Z</time></trkpt><trkpt lat="43.71853532816213" lon="12.183947375339615"><ele>653.0</ele><time>2026-05-04T10:15:50Z</time></trkpt><trkpt lat="43.718452916388955" lon="12.183926167919925"><ele>657.0</ele><time>2026-05-04T10:15:51Z</time></trkpt><trkpt lat="43.71836277393613" lon="12.183896746825397"><ele>661.0</ele><time>2026-05-04T10:15:52Z</time></trkpt><trkpt lat="43.71827572280929" lon="12.183871934600498"><ele>665.0</ele><time>2026-05-04T10:15:53Z</time></trkpt><trkpt lat="43.71818618757042" lon="12.183854886476686"><ele>669.0</ele><time>2026-05-04T10:15:54Z</time></trkpt><trkpt lat="43.71809148616623" lon="12.183831462801297"><ele>673.0</ele><time>2026-05-04T10:15:55Z</time></trkpt><trkpt lat="43.71800280075961" lon="12.18380757426551"><ele>673.0</ele><time>2026-05-04T10:15:56Z</time></trkpt><trkpt lat="43.717910531118164" lon="12.183774147324296"><ele>673.0</ele><time>2026-05-04T10:15:57Z</time></trkpt><trkpt lat="43.71781323584843" lon="12.18373580394693"><ele>673.0</ele><time>2026-05-04T10:15:58Z</time></trkpt><trkpt lat="43.7177242251301" lon="12.18368705488186"><ele>673.0</ele><time>2026-05-04T10:15:59Z</time></trkpt><trkpt lat="43.717631711515715" lon="12.183643825097942"><ele>673.0</ele><time>2026-05-04T10:16:00Z</time></trkpt><trkpt lat="43.7175369358003" lon="12.183615361779266"><ele>671.2</ele><time>2026-05-04T10:16:01Z</time></trkpt><trkpt lat="43.71744220118178" lon="12.183600101083298"><ele>669.4</ele><time>2026-05-04T10:16:02Z</time></trkpt><trkpt lat="43.717350233428036" lon="12.183605397627558"><ele>667.6</ele><time>2026-05-04T10:16:03Z</time></trkpt><trkpt lat="43.71725380486059" lon="12.18360896583717"><ele>665.8000000000001</ele><time>2026-05-04T10:16:04Z</time></trkpt><trkpt lat="43.71716845862243" lon="12.183723044050875"><ele>664.0</ele><time>2026-05-04T10:16:05Z</time></trkpt><trkpt lat="43.717084601337426" lon="12.183802704039051"><ele>664.0</ele><time>2026-05-04T10:16:06Z</time></trkpt><trkpt lat="43.71700349792541" lon="12.183844731987627"><ele>664.0</ele><time>2026-05-04T10:16:07Z</time></trkpt><trkpt lat="43.71692867673845" lon="12.183916516688909"><ele>664.0</ele><time>2026-05-04T10:16:08Z</time></trkpt><trkpt lat="43.71683062633797" lon="12.183930139844403"><ele>664.0</ele><time>2026-05-04T10:16:09Z</time></trkpt><trkpt lat="43.71673023914994" lon="12.183946313375152"><ele>664.0</ele><time>2026-05-04T10:16:10Z</time></trkpt><trkpt lat="43.7166224761878" lon="12.18397410236251"><ele>664.0</ele><time>2026-05-04T10:16:11Z</time></trkpt><trkpt lat="43.71651229531585" lon="12.183978048252344"><ele>664.0</ele><time>2026-05-04T10:16:12Z</time></trkpt><trkpt lat="43.71640254879236" lon="12.183993880369883"><ele>664.0</ele><time>2026-05-04T10:16:13Z</time></trkpt><trkpt lat="43.716308426509244" lon="12.184002297392901"><ele>664.0</ele><time>2026-05-04T10:16:14Z</time></trkpt><trkpt lat="43.71620660997664" lon="12.184017851564361"><ele>664.0</ele><time>2026-05-04T10:16:15Z</time></trkpt><trkpt lat="43.7161004342782" lon="12.18403038025047"><ele>663.6</ele><time>2026-05-04T10:16:16Z</time></trkpt><trkpt lat="43.71599681107725" lon="12.184045826480968"><ele>663.2</ele><time>2026-05-04T10:16:17Z</time></trkpt><trkpt lat="43.71589589264273" lon="12.184052729522065"><ele>662.8000000000001</ele><time>2026-05-04T10:16:18Z</time></trkpt><trkpt lat="43.71578964812457" lon="12.184059200309326"><ele>662.4000000000001</ele><time>2026-05-04T10:16:19Z</time></trkpt><trkpt lat="43.71568317826805" lon="12.184066891394306"><ele>662.0</ele><time>2026-05-04T10:16:20Z</time></trkpt><trkpt lat="43.71557738046207" lon="12.184077534592623"><ele>662.0</ele><time>2026-05-04T10:16:21Z</time></trkpt><trkpt lat="43.71547144998587" lon="12.184091540284758"><ele>662.0</ele><time>2026-05-04T10:16:22Z</time></trkpt><trkpt lat="43.71536490984072" lon="12.184109581067029"><ele>662.0</ele><time>2026-05-04T10:16:23Z</time></trkpt><trkpt lat="43.71525422473203" lon="12.18412177201933"><ele>662.0</ele><time>2026-05-04T10:16:24Z</time></trkpt><trkpt lat="43.71513512398192" lon="12.184135090465201"><ele>662.0</ele><time>2026-05-04T10:16:25Z</time></trkpt><trkpt lat="43.71501863853357" lon="12.18416681154126"><ele>663.8</ele><time>2026-05-04T10:16:26Z</time></trkpt><trkpt lat="43.71490560146065" lon="12.184196315625794"><ele>665.6</ele><time>2026-05-04T10:16:27Z</time></trkpt><trkpt lat="43.71480110857204" lon="12.184237062284891"><ele>667.4</ele><time>2026-05-04T10:16:28Z</time></trkpt><trkpt lat="43.71469097152253" lon="12.184268016032087"><ele>669.1999999999999</ele><time>2026-05-04T10:16:29Z</time></trkpt><trkpt lat="43.714579652708544" lon="12.184285106632618"><ele>671.0</ele><time>2026-05-04T10:16:30Z</time></trkpt><trkpt lat="43.714472541217795" lon="12.184279975176992"><ele>672.5</ele><time>2026-05-04T10:16:31Z</time></trkpt><trkpt lat="43.714362314641164" lon="12.184255290623325"><ele>674.0</ele><time>2026-05-04T10:16:32Z</time></trkpt><trkpt lat="43.71426039851656" lon="12.1841805568223"><ele>675.5</ele><time>2026-05-04T10:16:33Z</time></trkpt><trkpt lat="43.71414476498266" lon="12.184138594772145"><ele>677.0</ele><time>2026-05-04T10:16:34Z</time></trkpt><trkpt lat="43.71403317171012" lon="12.184067214550721"><ele>681.5</ele><time>2026-05-04T10:16:35Z</time></trkpt><trkpt lat="43.71392176517539" lon="12.183998130073027"><ele>686.0</ele><time>2026-05-04T10:16:36Z</time></trkpt><trkpt lat="43.713805880581376" lon="12.183934876934407"><ele>690.5</ele><time>2026-05-04T10:16:37Z</time></trkpt><trkpt lat="43.71369023687334" lon="12.183871441065993"><ele>695.0</ele><time>2026-05-04T10:16:38Z</time></trkpt><trkpt lat="43.71357351489476" lon="12.183807603198224"><ele>693.8</ele><time>2026-05-04T10:16:39Z</time></trkpt><trkpt lat="43.7134624111234" lon="12.183755673838023"><ele>692.6</ele><time>2026-05-04T10:16:40Z</time></trkpt><trkpt lat="43.71334885360127" lon="12.183713076747642"><ele>691.4000000000001</ele><time>2026-05-04T10:16:41Z</time></trkpt><trkpt lat="43.71323793555078" lon="12.183679808102513"><ele>690.2</ele><time>2026-05-04T10:16:42Z</time></trkpt><trkpt lat="43.713139980634686" lon="12.183653061311048"><ele>689.0</ele><time>2026-05-04T10:16:43Z</time></trkpt><trkpt lat="43.713060680211825" lon="12.183582284837803"><ele>689.0</ele><time>2026-05-04T10:16:44Z</time></trkpt><trkpt lat="43.71297167266323" lon="12.183512528781042"><ele>689.0</ele><time>2026-05-04T10:16:45Z</time></trkpt><trkpt lat="43.71287778410637" lon="12.183438634970654"><ele>689.0</ele><time>2026-05-04T10:16:46Z</time></trkpt><trkpt lat="43.712796599123344" lon="12.183333026722883"><ele>689.0</ele><time>2026-05-04T10:16:47Z</time></trkpt><trkpt lat="43.71271377897786" lon="12.183223764627568"><ele>689.0</ele><time>2026-05-04T10:16:48Z</time></trkpt><trkpt lat="43.712622826432366" lon="12.183113353389626"><ele>689.0</ele><time>2026-05-04T10:16:49Z</time></trkpt><trkpt lat="43.71252871994876" lon="12.183006354736461"><ele>689.0</ele><time>2026-05-04T10:16:50Z</time></trkpt><trkpt lat="43.712429988490804" lon="12.182894736647274"><ele>689.0</ele><time>2026-05-04T10:16:51Z</time></trkpt><trkpt lat="43.7123272620386" lon="12.182780664534015"><ele>689.0</ele><time>2026-05-04T10:16:52Z</time></trkpt><trkpt lat="43.712228178934446" lon="12.182660539420752"><ele>689.0</ele><time>2026-05-04T10:16:53Z</time></trkpt><trkpt lat="43.71212545220055" lon="12.182549068045876"><ele>689.0</ele><time>2026-05-04T10:16:54Z</time></trkpt><trkpt lat="43.71202615585231" lon="12.182427963186932"><ele>689.0</ele><time>2026-05-04T10:16:55Z</time></trkpt><trkpt lat="43.71193327165742" lon="12.182316543442182"><ele>689.0</ele><time>2026-05-04T10:16:56Z</time></trkpt><trkpt lat="43.711847973001504" lon="12.182209032879888"><ele>690.4000000000001</ele><time>2026-05-04T10:16:57Z</time></trkpt><trkpt lat="43.711764124793405" lon="12.182109977855777"><ele>691.8</ele><time>2026-05-04T10:16:58Z</time></trkpt><trkpt lat="43.71168957757234" lon="12.182014368229714"><ele>693.2</ele><time>2026-05-04T10:16:59Z</time></trkpt><trkpt lat="43.71161409891872" lon="12.18192203378916"><ele>694.5999999999999</ele><time>2026-05-04T10:17:00Z</time></trkpt><trkpt lat="43.71153072334069" lon="12.181821755509418"><ele>696.0</ele><time>2026-05-04T10:17:01Z</time></trkpt><trkpt lat="43.71136435610453" lon="12.181929203000369"><ele>696.0</ele><time>2026-05-04T10:17:02Z</time></trkpt><trkpt lat="43.71125391462418" lon="12.181957302321676"><ele>696.0</ele><time>2026-05-04T10:17:03Z</time></trkpt><trkpt lat="43.7111458717816" lon="12.18201056144377"><ele>696.0</ele><time>2026-05-04T10:17:04Z</time></trkpt><trkpt lat="43.71104219646066" lon="12.182090944079446"><ele>696.0</ele><time>2026-05-04T10:17:05Z</time></trkpt><trkpt lat="43.71094749702815" lon="12.182182684521681"><ele>696.4</ele><time>2026-05-04T10:17:06Z</time></trkpt><trkpt lat="43.710862108228035" lon="12.182279056635357"><ele>696.8</ele><time>2026-05-04T10:17:07Z</time></trkpt><trkpt lat="43.710778776567516" lon="12.18237092593294"><ele>697.1999999999999</ele><time>2026-05-04T10:17:08Z</time></trkpt><trkpt lat="43.7106943336838" lon="12.182430319105812"><ele>697.5999999999999</ele><time>2026-05-04T10:17:09Z</time></trkpt><trkpt lat="43.71063350703064" lon="12.182547048095119"><ele>698.0</ele><time>2026-05-04T10:17:10Z</time></trkpt><trkpt lat="43.710569030074964" lon="12.182645831560054"><ele>698.0</ele><time>2026-05-04T10:17:11Z</time></trkpt><trkpt lat="43.710514079641534" lon="12.1827404190269"><ele>698.0</ele><time>2026-05-04T10:17:12Z</time></trkpt><trkpt lat="43.71045126253324" lon="12.18282000153425"><ele>698.0</ele><time>2026-05-04T10:17:13Z</time></trkpt><trkpt lat="43.710393263830696" lon="12.182890156539296"><ele>698.0</ele><time>2026-05-04T10:17:14Z</time></trkpt><trkpt lat="43.71031920076908" lon="12.182942811542976"><ele>698.0</ele><time>2026-05-04T10:17:15Z</time></trkpt><trkpt lat="43.710233577732104" lon="12.182988108899199"><ele>698.0</ele><time>2026-05-04T10:17:16Z</time></trkpt><trkpt lat="43.710135253427026" lon="12.18302309840105"><ele>699.0</ele><time>2026-05-04T10:17:17Z</time></trkpt><trkpt lat="43.71004098142263" lon="12.183052184105403"><ele>700.0</ele><time>2026-05-04T10:17:18Z</time></trkpt><trkpt lat="43.70993854887663" lon="12.183074039318772"><ele>701.0</ele><time>2026-05-04T10:17:19Z</time></trkpt><trkpt lat="43.709852801875144" lon="12.18309989276239"><ele>702.0</ele><time>2026-05-04T10:17:20Z</time></trkpt><trkpt lat="43.70978122874487" lon="12.183115987984818"><ele>703.0</ele><time>2026-05-04T10:17:21Z</time></trkpt><trkpt lat="43.70971861175648" lon="12.183139611321108"><ele>704.0</ele><time>2026-05-04T10:17:22Z</time></trkpt><trkpt lat="43.70963721941559" lon="12.183149676751434"><ele>704.0</ele><time>2026-05-04T10:17:24Z</time></trkpt><trkpt lat="43.70954666945455" lon="12.183169350897296"><ele>704.0</ele><time>2026-05-04T10:18:31Z</time></trkpt><trkpt lat="43.70947450977605" lon="12.183204275474631"><ele>704.0</ele><time>2026-05-04T10:18:33Z</time></trkpt><trkpt lat="43.70940871891364" lon="12.183289400498307"><ele>704.0</ele><time>2026-05-04T10:18:35Z</time></trkpt><trkpt lat="43.7093568273121" lon="12.183396128770493"><ele>704.0</ele><time>2026-05-04T10:18:37Z</time></trkpt><trkpt lat="43.70930634934054" lon="12.183506459449253"><ele>704.0</ele><time>2026-05-04T10:18:39Z</time></trkpt><trkpt lat="43.70925948442584" lon="12.183618953108821"><ele>697.0</ele><time>2026-05-04T10:18:41Z</time></trkpt><trkpt lat="43.70922252962215" lon="12.183718868937293"><ele>697.0</ele><time>2026-05-04T10:18:43Z</time></trkpt><trkpt lat="43.709209604343094" lon="12.183814130624727"><ele>697.0</ele><time>2026-05-04T10:18:45Z</time></trkpt><trkpt lat="43.709194150071454" lon="12.183936311364072"><ele>697.0</ele><time>2026-05-04T10:18:48Z</time></trkpt><trkpt lat="43.70920477963045" lon="12.184031823385109"><ele>699.0</ele><time>2026-05-04T10:18:51Z</time></trkpt></trkseg><trkseg><trkpt lat="43.70410714302557" lon="12.187318643566394"><ele>684.5</ele><time>2026-05-04T11:15:28.015Z</time></trkpt><trkpt lat="43.70415849730997" lon="12.187377548708172"><ele>686.0</ele><time>2026-05-04T11:16:30Z</time></trkpt><trkpt lat="43.70423121882101" lon="12.187412325104754"><ele>687.5</ele><time>2026-05-04T11:16:33Z</time></trkpt><trkpt lat="43.704304345776414" lon="12.18740114834337"><ele>689.0</ele><time>2026-05-04T11:16:36Z</time></trkpt><trkpt lat="43.704377416452495" lon="12.187374771781347"><ele>690.5</ele><time>2026-05-04T11:16:38Z</time></trkpt><trkpt lat="43.704478843970286" lon="12.187291975321195"><ele>692.0</ele><time>2026-05-04T11:16:40Z</time></trkpt><trkpt lat="43.70453491196091" lon="12.187229453749529"><ele>692.0</ele><time>2026-05-04T11:16:41Z</time></trkpt><trkpt lat="43.704602996674204" lon="12.187156144477633"><ele>692.0</ele><time>2026-05-04T11:16:42Z</time></trkpt><trkpt lat="43.704675889592245" lon="12.187074077023095"><ele>692.0</ele><time>2026-05-04T11:16:43Z</time></trkpt><trkpt lat="43.70475174325318" lon="12.186999857800178"><ele>692.0</ele><time>2026-05-04T11:16:44Z</time></trkpt><trkpt lat="43.70482301680422" lon="12.186925583282775"><ele>692.0</ele><time>2026-05-04T11:16:45Z</time></trkpt><trkpt lat="43.70489675469751" lon="12.186850546092087"><ele>692.0</ele><time>2026-05-04T11:16:46Z</time></trkpt><trkpt lat="43.7049703052506" lon="12.186773208232536"><ele>692.0</ele><time>2026-05-04T11:16:47Z</time></trkpt><trkpt lat="43.705042444370704" lon="12.186696385941792"><ele>692.0</ele><time>2026-05-04T11:16:48Z</time></trkpt><trkpt lat="43.705121208434456" lon="12.186608111885116"><ele>692.0</ele><time>2026-05-04T11:16:49Z</time></trkpt><trkpt lat="43.705209566062685" lon="12.186482686322071"><ele>692.0</ele><time>2026-05-04T11:16:50Z</time></trkpt><trkpt lat="43.70529217352587" lon="12.186363651829355"><ele>693.75</ele><time>2026-05-04T11:16:51Z</time></trkpt><trkpt lat="43.70538269767143" lon="12.18625133494718"><ele>695.5</ele><time>2026-05-04T11:16:52Z</time></trkpt><trkpt lat="43.70547022541072" lon="12.186141097945969"><ele>697.25</ele><time>2026-05-04T11:16:53Z</time></trkpt><trkpt lat="43.70555369179931" lon="12.186022018975985"><ele>699.0</ele><time>2026-05-04T11:16:54Z</time></trkpt><trkpt lat="43.705636549949496" lon="12.185913574216372"><ele>699.0</ele><time>2026-05-04T11:16:55Z</time></trkpt><trkpt lat="43.70571761299831" lon="12.185800585132679"><ele>699.0</ele><time>2026-05-04T11:16:56Z</time></trkpt><trkpt lat="43.70580103166004" lon="12.185686368739228"><ele>699.0</ele><time>2026-05-04T11:16:57Z</time></trkpt><trkpt lat="43.705882135543135" lon="12.185578996575343"><ele>699.0</ele><time>2026-05-04T11:16:58Z</time></trkpt><trkpt lat="43.7059625426584" lon="12.185472928108686"><ele>699.0</ele><time>2026-05-04T11:16:59Z</time></trkpt><trkpt lat="43.70603932663807" lon="12.185364702957195"><ele>699.0</ele><time>2026-05-04T11:17:00Z</time></trkpt><trkpt lat="43.70611966613517" lon="12.185251375731369"><ele>699.0</ele><time>2026-05-04T11:17:01Z</time></trkpt><trkpt lat="43.70619784044918" lon="12.18514391572293"><ele>699.0</ele><time>2026-05-04T11:17:02Z</time></trkpt><trkpt lat="43.706269787261625" lon="12.185050928500022"><ele>699.0</ele><time>2026-05-04T11:17:03Z</time></trkpt><trkpt lat="43.70633544592286" lon="12.184970875065877"><ele>699.0</ele><time>2026-05-04T11:17:04Z</time></trkpt><trkpt lat="43.706399130113006" lon="12.184891759474544"><ele>699.0</ele><time>2026-05-04T11:17:05Z</time></trkpt><trkpt lat="43.70646219615631" lon="12.184799739195187"><ele>699.0</ele><time>2026-05-04T11:17:06Z</time></trkpt><trkpt lat="43.706526436064216" lon="12.184708824483621"><ele>699.0</ele><time>2026-05-04T11:17:07Z</time></trkpt><trkpt lat="43.70659456969221" lon="12.184621384638831"><ele>699.0</ele><time>2026-05-04T11:17:08Z</time></trkpt><trkpt lat="43.70666782928462" lon="12.184535331675173"><ele>697.8000000000001</ele><time>2026-05-04T11:17:09Z</time></trkpt><trkpt lat="43.706741007478485" lon="12.184455927746104"><ele>696.6</ele><time>2026-05-04T11:17:10Z</time></trkpt><trkpt lat="43.70682370569011" lon="12.18438198686294"><ele>695.4</ele><time>2026-05-04T11:17:11Z</time></trkpt><trkpt lat="43.70691346136853" lon="12.184323150646355"><ele>694.2</ele><time>2026-05-04T11:17:12Z</time></trkpt><trkpt lat="43.70701054417393" lon="12.184285848884072"><ele>693.0</ele><time>2026-05-04T11:17:13Z</time></trkpt><trkpt lat="43.70712407398041" lon="12.184261108976221"><ele>692.5</ele><time>2026-05-04T11:17:14Z</time></trkpt><trkpt lat="43.70724167802569" lon="12.184244930286447"><ele>692.0</ele><time>2026-05-04T11:17:15Z</time></trkpt><trkpt lat="43.70736251646879" lon="12.18424792424707"><ele>691.5</ele><time>2026-05-04T11:17:16Z</time></trkpt><trkpt lat="43.70749271296758" lon="12.184269471200057"><ele>691.0</ele><time>2026-05-04T11:17:17Z</time></trkpt><trkpt lat="43.707619891311566" lon="12.184294031991165"><ele>691.1999999999999</ele><time>2026-05-04T11:17:18Z</time></trkpt><trkpt lat="43.707744289234064" lon="12.18430135317607"><ele>691.4</ele><time>2026-05-04T11:17:19Z</time></trkpt><trkpt lat="43.707856911922114" lon="12.184308859015733"><ele>691.6</ele><time>2026-05-04T11:17:20Z</time></trkpt><trkpt lat="43.70796145568755" lon="12.184317075669206"><ele>691.8</ele><time>2026-05-04T11:17:21Z</time></trkpt><trkpt lat="43.70806651154819" lon="12.184328885034258"><ele>692.0</ele><time>2026-05-04T11:17:22Z</time></trkpt><trkpt lat="43.708172699025255" lon="12.184324679479323"><ele>692.0</ele><time>2026-05-04T11:17:23Z</time></trkpt><trkpt lat="43.70827602627274" lon="12.184299558321323"><ele>692.0</ele><time>2026-05-04T11:17:24Z</time></trkpt><trkpt lat="43.708372783995266" lon="12.184245386809721"><ele>692.0</ele><time>2026-05-04T11:17:25Z</time></trkpt><trkpt lat="43.708466684429226" lon="12.184189642434113"><ele>692.0</ele><time>2026-05-04T11:17:26Z</time></trkpt><trkpt lat="43.70856060968794" lon="12.184121926706213"><ele>692.0</ele><time>2026-05-04T11:17:27Z</time></trkpt><trkpt lat="43.70864748221904" lon="12.184025355658381"><ele>693.25</ele><time>2026-05-04T11:17:28Z</time></trkpt><trkpt lat="43.70873215503344" lon="12.183918865759878"><ele>694.5</ele><time>2026-05-04T11:17:29Z</time></trkpt><trkpt lat="43.708813027499765" lon="12.183798720537975"><ele>695.75</ele><time>2026-05-04T11:17:30Z</time></trkpt><trkpt lat="43.70888614535238" lon="12.183668781641462"><ele>697.0</ele><time>2026-05-04T11:17:31Z</time></trkpt><trkpt lat="43.708951396562746" lon="12.183533622462573"><ele>697.0</ele><time>2026-05-04T11:17:32Z</time></trkpt><trkpt lat="43.70901805340907" lon="12.183397721158943"><ele>697.0</ele><time>2026-05-04T11:17:33Z</time></trkpt><trkpt lat="43.70908347328529" lon="12.183262246895532"><ele>697.0</ele><time>2026-05-04T11:17:34Z</time></trkpt><trkpt lat="43.70915114639233" lon="12.183131467355903"><ele>697.0</ele><time>2026-05-04T11:17:35Z</time></trkpt><trkpt lat="43.70921940333238" lon="12.182998523378824"><ele>696.0</ele><time>2026-05-04T11:17:36Z</time></trkpt><trkpt lat="43.709284909159564" lon="12.182857705117003"><ele>695.0</ele><time>2026-05-04T11:17:37Z</time></trkpt><trkpt lat="43.709347634557915" lon="12.182713830918505"><ele>694.0</ele><time>2026-05-04T11:17:38Z</time></trkpt><trkpt lat="43.70940232376341" lon="12.182570308560177"><ele>693.0</ele><time>2026-05-04T11:17:39Z</time></trkpt><trkpt lat="43.70944865772162" lon="12.18243793692254"><ele>696.0</ele><time>2026-05-04T11:17:40Z</time></trkpt><trkpt lat="43.70949381692676" lon="12.182309936577472"><ele>699.0</ele><time>2026-05-04T11:17:41Z</time></trkpt><trkpt lat="43.70953428473681" lon="12.182182878221969"><ele>702.0</ele><time>2026-05-04T11:17:42Z</time></trkpt><trkpt lat="43.70958282277042" lon="12.182062144536333"><ele>705.0</ele><time>2026-05-04T11:17:43Z</time></trkpt><trkpt lat="43.70962608341634" lon="12.181940631946864"><ele>708.0</ele><time>2026-05-04T11:17:44Z</time></trkpt><trkpt lat="43.70966258650991" lon="12.181816911588975"><ele>708.0</ele><time>2026-05-04T11:17:45Z</time></trkpt><trkpt lat="43.70970235511819" lon="12.181698936335623"><ele>708.0</ele><time>2026-05-04T11:17:46Z</time></trkpt><trkpt lat="43.70974008365296" lon="12.181584094520202"><ele>708.0</ele><time>2026-05-04T11:17:47Z</time></trkpt><trkpt lat="43.709770716751905" lon="12.181473534200226"><ele>708.0</ele><time>2026-05-04T11:17:48Z</time></trkpt><trkpt lat="43.70980287213964" lon="12.181388203827032"><ele>708.0</ele><time>2026-05-04T11:17:49Z</time></trkpt><trkpt lat="43.70988140254997" lon="12.181285731237708"><ele>708.0</ele><time>2026-05-04T11:17:51Z</time></trkpt><trkpt lat="43.70994244184966" lon="12.181260741368975"><ele>708.3333333333334</ele><time>2026-05-04T11:17:53Z</time></trkpt><trkpt lat="43.71001222898719" lon="12.181224386196151"><ele>708.6666666666666</ele><time>2026-05-04T11:17:56Z</time></trkpt><trkpt lat="43.71008780496757" lon="12.181112056402364"><ele>709.0</ele><time>2026-05-04T11:17:58Z</time></trkpt><trkpt lat="43.710136746446516" lon="12.18104705698105"><ele>709.3333333333333</ele><time>2026-05-04T11:17:59Z</time></trkpt><trkpt lat="43.71018253956957" lon="12.180970428569408"><ele>709.6666666666666</ele><time>2026-05-04T11:18:00Z</time></trkpt><trkpt lat="43.71024582259739" lon="12.180905897556348"><ele>710.0</ele><time>2026-05-04T11:18:01Z</time></trkpt><trkpt lat="43.71029738375127" lon="12.18082565250166"><ele>710.0</ele><time>2026-05-04T11:18:02Z</time></trkpt><trkpt lat="43.71035558752021" lon="12.180736276749478"><ele>710.0</ele><time>2026-05-04T11:18:03Z</time></trkpt><trkpt lat="43.71042254216647" lon="12.180645643872154"><ele>710.0</ele><time>2026-05-04T11:18:04Z</time></trkpt><trkpt lat="43.7104916451736" lon="12.180564699184025"><ele>710.0</ele><time>2026-05-04T11:18:05Z</time></trkpt><trkpt lat="43.71056337081893" lon="12.180473459472712"><ele>710.0</ele><time>2026-05-04T11:18:06Z</time></trkpt><trkpt lat="43.71066704444688" lon="12.180411779193046"><ele>711.2</ele><time>2026-05-04T11:18:07Z</time></trkpt><trkpt lat="43.710757105828634" lon="12.180352396059176"><ele>712.4</ele><time>2026-05-04T11:18:08Z</time></trkpt><trkpt lat="43.710856416352804" lon="12.180293490045491"><ele>713.5999999999999</ele><time>2026-05-04T11:18:09Z</time></trkpt><trkpt lat="43.7109606699264" lon="12.180234293233502"><ele>714.8</ele><time>2026-05-04T11:18:10Z</time></trkpt><trkpt lat="43.711058925875534" lon="12.180180411763285"><ele>716.0</ele><time>2026-05-04T11:18:11Z</time></trkpt><trkpt lat="43.71116462869458" lon="12.180137239524651"><ele>716.0</ele><time>2026-05-04T11:18:12Z</time></trkpt><trkpt lat="43.711268725940435" lon="12.180090948668228"><ele>716.0</ele><time>2026-05-04T11:18:13Z</time></trkpt><trkpt lat="43.71137933738228" lon="12.180064331351849"><ele>716.0</ele><time>2026-05-04T11:18:14Z</time></trkpt><trkpt lat="43.71149204629336" lon="12.180012015583717"><ele>716.0</ele><time>2026-05-04T11:18:15Z</time></trkpt><trkpt lat="43.71161322146473" lon="12.179986248152632"><ele>716.0</ele><time>2026-05-04T11:18:16Z</time></trkpt><trkpt lat="43.71173450905881" lon="12.179991640522237"><ele>716.0</ele><time>2026-05-04T11:18:17Z</time></trkpt><trkpt lat="43.71185510061998" lon="12.179958196821707"><ele>716.0</ele><time>2026-05-04T11:18:18Z</time></trkpt><trkpt lat="43.711977136660664" lon="12.17995158150901"><ele>716.0</ele><time>2026-05-04T11:18:19Z</time></trkpt><trkpt lat="43.712092791386944" lon="12.179967099926971"><ele>716.75</ele><time>2026-05-04T11:18:20Z</time></trkpt><trkpt lat="43.712211313925124" lon="12.179946453631228"><ele>717.5</ele><time>2026-05-04T11:18:21Z</time></trkpt><trkpt lat="43.712329755958955" lon="12.179950981656425"><ele>718.25</ele><time>2026-05-04T11:18:22Z</time></trkpt><trkpt lat="43.71244810404617" lon="12.1799740544588"><ele>719.0</ele><time>2026-05-04T11:18:23Z</time></trkpt><trkpt lat="43.71255752123058" lon="12.179982899264957"><ele>719.0</ele><time>2026-05-04T11:18:24Z</time></trkpt><trkpt lat="43.712664655012134" lon="12.179982504508619"><ele>719.0</ele><time>2026-05-04T11:18:25Z</time></trkpt><trkpt lat="43.712765132575555" lon="12.180020010138774"><ele>719.0</ele><time>2026-05-04T11:18:26Z</time></trkpt><trkpt lat="43.71286679073152" lon="12.180085774042098"><ele>719.0</ele><time>2026-05-04T11:18:27Z</time></trkpt><trkpt lat="43.712969763264034" lon="12.180177674300161"><ele>719.0</ele><time>2026-05-04T11:18:28Z</time></trkpt><trkpt lat="43.71306710609649" lon="12.18027448613375"><ele>721.1666666666666</ele><time>2026-05-04T11:18:29Z</time></trkpt><trkpt lat="43.71315655320426" lon="12.180358756520334"><ele>723.3333333333333</ele><time>2026-05-04T11:18:30Z</time></trkpt><trkpt lat="43.71323605993425" lon="12.180429809199854"><ele>725.5</ele><time>2026-05-04T11:18:31Z</time></trkpt><trkpt lat="43.71331255324239" lon="12.180490386293952"><ele>727.6666666666666</ele><time>2026-05-04T11:18:32Z</time></trkpt><trkpt lat="43.71337956828983" lon="12.18054791300493"><ele>729.8333333333334</ele><time>2026-05-04T11:18:33Z</time></trkpt><trkpt lat="43.71343901584965" lon="12.180599683566406"><ele>732.0</ele><time>2026-05-04T11:18:34Z</time></trkpt><trkpt lat="43.7135304117523" lon="12.180676979130453"><ele>731.8</ele><time>2026-05-04T11:18:36Z</time></trkpt><trkpt lat="43.71364075194229" lon="12.180620725191943"><ele>731.6</ele><time>2026-05-04T11:18:39Z</time></trkpt><trkpt lat="43.713713858213715" lon="12.180471481008054"><ele>731.4</ele><time>2026-05-04T11:18:41Z</time></trkpt><trkpt lat="43.713739161737514" lon="12.180366275258226"><ele>731.1999999999999</ele><time>2026-05-04T11:18:42Z</time></trkpt><trkpt lat="43.71376202743109" lon="12.180242453012065"><ele>731.0</ele><time>2026-05-04T11:18:43Z</time></trkpt><trkpt lat="43.71377793667285" lon="12.1801199622967"><ele>731.0</ele><time>2026-05-04T11:18:44Z</time></trkpt><trkpt lat="43.71378726659569" lon="12.179994881482942"><ele>731.0</ele><time>2026-05-04T11:18:45Z</time></trkpt><trkpt lat="43.71379411038085" lon="12.179873995869926"><ele>731.0</ele><time>2026-05-04T11:18:46Z</time></trkpt><trkpt lat="43.71379830081814" lon="12.179763774777284"><ele>731.0</ele><time>2026-05-04T11:18:47Z</time></trkpt><trkpt lat="43.71380011442545" lon="12.17964772331795"><ele>731.0</ele><time>2026-05-04T11:18:48Z</time></trkpt><trkpt lat="43.71378854306745" lon="12.179534661163654"><ele>731.0</ele><time>2026-05-04T11:18:49Z</time></trkpt><trkpt lat="43.713782485303796" lon="12.179422747797075"><ele>731.5999999999999</ele><time>2026-05-04T11:18:50Z</time></trkpt><trkpt lat="43.713757543545576" lon="12.179309519536602"><ele>732.2</ele><time>2026-05-04T11:18:51Z</time></trkpt><trkpt lat="43.71370575452502" lon="12.179195659307377"><ele>732.8</ele><time>2026-05-04T11:18:52Z</time></trkpt><trkpt lat="43.713652046327375" lon="12.17908661197794"><ele>733.4000000000001</ele><time>2026-05-04T11:18:53Z</time></trkpt><trkpt lat="43.71360970530086" lon="12.178970738549138"><ele>734.0</ele><time>2026-05-04T11:18:54Z</time></trkpt><trkpt lat="43.713572311984485" lon="12.178871465311282"><ele>736.8000000000001</ele><time>2026-05-04T11:18:55Z</time></trkpt><trkpt lat="43.71353935215656" lon="12.178754827149609"><ele>739.6</ele><time>2026-05-04T11:18:56Z</time></trkpt><trkpt lat="43.71351646392984" lon="12.178638063799124"><ele>742.4</ele><time>2026-05-04T11:18:57Z</time></trkpt><trkpt lat="43.7134967903501" lon="12.178507607810971"><ele>745.2</ele><time>2026-05-04T11:18:58Z</time></trkpt><trkpt lat="43.713483459750165" lon="12.178375621539068"><ele>748.0</ele><time>2026-05-04T11:18:59Z</time></trkpt><trkpt lat="43.71347264997717" lon="12.178235265369862"><ele>750.4</ele><time>2026-05-04T11:19:00Z</time></trkpt><trkpt lat="43.71346033427235" lon="12.178096005878249"><ele>752.8</ele><time>2026-05-04T11:19:01Z</time></trkpt><trkpt lat="43.71344670257825" lon="12.177965732511243"><ele>755.2</ele><time>2026-05-04T11:19:02Z</time></trkpt><trkpt lat="43.713418662734284" lon="12.177841498002708"><ele>757.6</ele><time>2026-05-04T11:19:03Z</time></trkpt><trkpt lat="43.713407025320684" lon="12.177725138169938"><ele>760.0</ele><time>2026-05-04T11:19:04Z</time></trkpt><trkpt lat="43.71338884145622" lon="12.17762259309313"><ele>760.0</ele><time>2026-05-04T11:19:05Z</time></trkpt><trkpt lat="43.71334770895945" lon="12.177517375944024"><ele>760.0</ele><time>2026-05-04T11:19:06Z</time></trkpt><trkpt lat="43.7132905234385" lon="12.177412621644518"><ele>760.0</ele><time>2026-05-04T11:19:07Z</time></trkpt><trkpt lat="43.71323886070223" lon="12.177309614758538"><ele>760.0</ele><time>2026-05-04T11:19:08Z</time></trkpt><trkpt lat="43.713190065154535" lon="12.177201061461744"><ele>760.0</ele><time>2026-05-04T11:19:09Z</time></trkpt><trkpt lat="43.71314172881075" lon="12.177100238712177"><ele>762.25</ele><time>2026-05-04T11:19:10Z</time></trkpt><trkpt lat="43.71311974080966" lon="12.176997016026572"><ele>764.5</ele><time>2026-05-04T11:19:11Z</time></trkpt><trkpt lat="43.713090209212254" lon="12.17690984811099"><ele>766.75</ele><time>2026-05-04T11:19:12Z</time></trkpt><trkpt lat="43.71307852653184" lon="12.176761133642762"><ele>769.0</ele><time>2026-05-04T11:19:14Z</time></trkpt><trkpt lat="43.71288340989468" lon="12.176644294739324"><ele>768.9999999999999</ele><time>2026-05-04T11:19:33Z</time></trkpt><trkpt lat="43.71295657797844" lon="12.176647961624974"><ele>769.0</ele><time>2026-05-04T11:19:37Z</time></trkpt><trkpt lat="43.71302924019032" lon="12.176707747063322"><ele>769.0</ele><time>2026-05-04T11:19:40Z</time></trkpt><trkpt lat="43.71309718680322" lon="12.176707583981395"><ele>769.0</ele><time>2026-05-04T11:19:44Z</time></trkpt><trkpt lat="43.713139442193324" lon="12.176617125268729"><ele>768.9999999999999</ele><time>2026-05-04T11:19:47Z</time></trkpt><trkpt lat="43.71317820414406" lon="12.176489710176886"><ele>769.0</ele><time>2026-05-04T11:19:50Z</time></trkpt><trkpt lat="43.71321791246187" lon="12.176359184267548"><ele>768.5</ele><time>2026-05-04T11:19:52Z</time></trkpt><trkpt lat="43.713135321098456" lon="12.176168098006794"><ele>768.0</ele><time>2026-05-04T11:19:54Z</time></trkpt><trkpt lat="43.71313873911281" lon="12.17601836430922"><ele>767.5</ele><time>2026-05-04T11:19:56Z</time></trkpt><trkpt lat="43.71313306998955" lon="12.175884918548665"><ele>767.0</ele><time>2026-05-04T11:19:58Z</time></trkpt><trkpt lat="43.713099302548514" lon="12.175759509415414"><ele>766.4285714285714</ele><time>2026-05-04T11:20:00Z</time></trkpt><trkpt lat="43.71307702247969" lon="12.1756711506284"><ele>765.8571428571429</ele><time>2026-05-04T11:20:02Z</time></trkpt><trkpt lat="43.713024067139834" lon="12.175603464186246"><ele>765.2857142857142</ele><time>2026-05-04T11:20:04Z</time></trkpt><trkpt lat="43.71295840228996" lon="12.175563715630975"><ele>764.7142857142858</ele><time>2026-05-04T11:20:06Z</time></trkpt><trkpt lat="43.71288901524756" lon="12.175543654312508"><ele>764.1428571428571</ele><time>2026-05-04T11:20:08Z</time></trkpt><trkpt lat="43.71281617450521" lon="12.175544972157988"><ele>763.5714285714286</ele><time>2026-05-04T11:20:10Z</time></trkpt><trkpt lat="43.71275328630138" lon="12.175551291440096"><ele>763.0</ele><time>2026-05-04T11:20:12Z</time></trkpt><trkpt lat="43.71267556745512" lon="12.175564465560173"><ele>765.8571428571429</ele><time>2026-05-04T11:20:14Z</time></trkpt><trkpt lat="43.71260720763616" lon="12.175573191757145"><ele>768.7142857142858</ele><time>2026-05-04T11:20:16Z</time></trkpt><trkpt lat="43.71253166783994" lon="12.17559592655747"><ele>771.5714285714286</ele><time>2026-05-04T11:20:18Z</time></trkpt><trkpt lat="43.71246747003853" lon="12.175611626618819"><ele>774.4285714285714</ele><time>2026-05-04T11:20:20Z</time></trkpt><trkpt lat="43.71240285417152" lon="12.175592397360818"><ele>777.2857142857143</ele><time>2026-05-04T11:20:23Z</time></trkpt><trkpt lat="43.712369461198556" lon="12.175486861773884"><ele>780.1428571428571</ele><time>2026-05-04T11:20:25Z</time></trkpt><trkpt lat="43.712345115899524" lon="12.175404523872785"><ele>783.0</ele><time>2026-05-04T11:20:27Z</time></trkpt><trkpt lat="43.7123191773678" lon="12.175295412250085"><ele>783.0</ele><time>2026-05-04T11:20:30Z</time></trkpt><trkpt lat="43.7123289678244" lon="12.175206234573643"><ele>783.0</ele><time>2026-05-04T11:20:32Z</time></trkpt><trkpt lat="43.712376709763426" lon="12.175134522423992"><ele>783.0</ele><time>2026-05-04T11:20:34Z</time></trkpt><trkpt lat="43.71241248925004" lon="12.175049279342689"><ele>783.0</ele><time>2026-05-04T11:20:36Z</time></trkpt><trkpt lat="43.71241472076649" lon="12.174943587010985"><ele>783.0</ele><time>2026-05-04T11:20:39Z</time></trkpt><trkpt lat="43.71238891420861" lon="12.174832629798814"><ele>783.0</ele><time>2026-05-04T11:20:41Z</time></trkpt><trkpt lat="43.71237369347537" lon="12.174714198565878"><ele>783.5</ele><time>2026-05-04T11:20:43Z</time></trkpt><trkpt lat="43.71235012576149" lon="12.174607956881594"><ele>784.0</ele><time>2026-05-04T11:20:45Z</time></trkpt><trkpt lat="43.71236646243222" lon="12.174518662541969"><ele>784.5</ele><time>2026-05-04T11:21:22Z</time></trkpt><trkpt lat="43.712425196809676" lon="12.174454505285691"><ele>785.0</ele><time>2026-05-04T11:21:25Z</time></trkpt><trkpt lat="43.71246154918333" lon="12.174360838822475"><ele>785.5</ele><time>2026-05-04T11:21:28Z</time></trkpt><trkpt lat="43.71249262738515" lon="12.174281552903526"><ele>786.0</ele><time>2026-05-04T11:21:32Z</time></trkpt><trkpt lat="43.71240034070684" lon="12.174239310183443"><ele>786.0</ele><time>2026-05-04T11:22:18Z</time></trkpt><trkpt lat="43.71233061603086" lon="12.174203930873032"><ele>786.0</ele><time>2026-05-04T11:22:20Z</time></trkpt><trkpt lat="43.71226944653122" lon="12.174115357732955"><ele>786.0</ele><time>2026-05-04T11:22:22Z</time></trkpt><trkpt lat="43.712220166446365" lon="12.174014260357241"><ele>786.0</ele><time>2026-05-04T11:22:24Z</time></trkpt><trkpt lat="43.71218866729439" lon="12.173891349499542"><ele>786.0</ele><time>2026-05-04T11:22:26Z</time></trkpt><trkpt lat="43.71216764860081" lon="12.173759317144432"><ele>786.0</ele><time>2026-05-04T11:22:28Z</time></trkpt><trkpt lat="43.71214785397313" lon="12.173649243589722"><ele>786.1666666666666</ele><time>2026-05-04T11:22:30Z</time></trkpt><trkpt lat="43.71211201190757" lon="12.173551132812321"><ele>786.3333333333333</ele><time>2026-05-04T11:22:32Z</time></trkpt><trkpt lat="43.712047954500875" lon="12.173477154324019"><ele>786.5</ele><time>2026-05-04T11:22:34Z</time></trkpt><trkpt lat="43.71196390589223" lon="12.173442340524558"><ele>786.6666666666666</ele><time>2026-05-04T11:22:36Z</time></trkpt><trkpt lat="43.71187515631804" lon="12.17343101512913"><ele>786.8333333333333</ele><time>2026-05-04T11:22:38Z</time></trkpt><trkpt lat="43.711816842638136" lon="12.173389964071738"><ele>787.0</ele><time>2026-05-04T11:22:40Z</time></trkpt><trkpt lat="43.71173614932449" lon="12.173203418031814"><ele>791.4000000000001</ele><time>2026-05-04T11:22:43Z</time></trkpt><trkpt lat="43.71170177184958" lon="12.173083182577054"><ele>795.8000000000001</ele><time>2026-05-04T11:22:45Z</time></trkpt><trkpt lat="43.71166263213393" lon="12.17297789015091"><ele>800.2</ele><time>2026-05-04T11:22:47Z</time></trkpt><trkpt lat="43.71163017354483" lon="12.172898218607994"><ele>804.6</ele><time>2026-05-04T11:22:49Z</time></trkpt><trkpt lat="43.711589565219164" lon="12.172752691110473"><ele>809.0</ele><time>2026-05-04T11:22:51Z</time></trkpt><trkpt lat="43.71160652576155" lon="12.172585983956651"><ele>809.0</ele><time>2026-05-04T11:22:53Z</time></trkpt><trkpt lat="43.7116456266706" lon="12.172497806345541"><ele>809.0</ele><time>2026-05-04T11:22:54Z</time></trkpt><trkpt lat="43.711705195938414" lon="12.172424649821137"><ele>809.0</ele><time>2026-05-04T11:22:55Z</time></trkpt><trkpt lat="43.71178481722859" lon="12.172327855981948"><ele>809.0</ele><time>2026-05-04T11:22:57Z</time></trkpt><trkpt lat="43.71188153706201" lon="12.172279009191598"><ele>809.0</ele><time>2026-05-04T11:22:59Z</time></trkpt><trkpt lat="43.711970660147486" lon="12.172228414051265"><ele>805.0</ele><time>2026-05-04T11:23:01Z</time></trkpt><trkpt lat="43.71205844057502" lon="12.172151731497857"><ele>801.0</ele><time>2026-05-04T11:23:03Z</time></trkpt><trkpt lat="43.71212234853589" lon="12.17202249023035"><ele>797.0</ele><time>2026-05-04T11:23:05Z</time></trkpt><trkpt lat="43.71213662788013" lon="12.171927536245603"><ele>793.0</ele><time>2026-05-04T11:23:06Z</time></trkpt><trkpt lat="43.71213062636104" lon="12.171816002788972"><ele>789.0</ele><time>2026-05-04T11:23:07Z</time></trkpt><trkpt lat="43.71212282245276" lon="12.171702616571167"><ele>789.0</ele><time>2026-05-04T11:23:08Z</time></trkpt><trkpt lat="43.7121135033252" lon="12.171595260412909"><ele>789.0</ele><time>2026-05-04T11:23:09Z</time></trkpt><trkpt lat="43.712097289988456" lon="12.171488469632129"><ele>789.0</ele><time>2026-05-04T11:23:10Z</time></trkpt><trkpt lat="43.712087871288226" lon="12.171399858438607"><ele>789.0</ele><time>2026-05-04T11:23:11Z</time></trkpt><trkpt lat="43.71207946270088" lon="12.171291093349451"><ele>789.0</ele><time>2026-05-04T11:23:12Z</time></trkpt><trkpt lat="43.71208847941528" lon="12.17119783430131"><ele>789.0</ele><time>2026-05-04T11:23:13Z</time></trkpt><trkpt lat="43.71210355970898" lon="12.171075584277288"><ele>789.0</ele><time>2026-05-04T11:23:14Z</time></trkpt><trkpt lat="43.71210879350643" lon="12.170967357388042"><ele>789.0</ele><time>2026-05-04T11:23:15Z</time></trkpt><trkpt lat="43.71209875777482" lon="12.170858857527326"><ele>789.0</ele><time>2026-05-04T11:23:16Z</time></trkpt><trkpt lat="43.71206549630355" lon="12.170702080878279"><ele>789.0</ele><time>2026-05-04T11:23:17Z</time></trkpt><trkpt lat="43.712034185368324" lon="12.170566299211226"><ele>789.0</ele><time>2026-05-04T11:23:18Z</time></trkpt><trkpt lat="43.71200219315002" lon="12.170453737364287"><ele>790.6666666666666</ele><time>2026-05-04T11:23:19Z</time></trkpt><trkpt lat="43.711980485809555" lon="12.170345910142135"><ele>792.3333333333333</ele><time>2026-05-04T11:23:20Z</time></trkpt><trkpt lat="43.7119701660716" lon="12.170224721350472"><ele>794.0</ele><time>2026-05-04T11:23:21Z</time></trkpt><trkpt lat="43.71195502223105" lon="12.170109247208954"><ele>795.6666666666666</ele><time>2026-05-04T11:23:22Z</time></trkpt><trkpt lat="43.7119381805864" lon="12.169990357334136"><ele>797.3333333333333</ele><time>2026-05-04T11:23:23Z</time></trkpt><trkpt lat="43.711918802506375" lon="12.169862786614475"><ele>799.0</ele><time>2026-05-04T11:23:24Z</time></trkpt><trkpt lat="43.71190301766277" lon="12.16975324680527"><ele>801.8333333333333</ele><time>2026-05-04T11:23:25Z</time></trkpt><trkpt lat="43.711891776270505" lon="12.169618254379165"><ele>804.6666666666666</ele><time>2026-05-04T11:23:26Z</time></trkpt><trkpt lat="43.71188325729819" lon="12.169502131200328"><ele>807.5</ele><time>2026-05-04T11:23:27Z</time></trkpt><trkpt lat="43.7118720248888" lon="12.169394996969533"><ele>810.3333333333333</ele><time>2026-05-04T11:23:28Z</time></trkpt><trkpt lat="43.71186195605405" lon="12.16930074039861"><ele>813.1666666666666</ele><time>2026-05-04T11:23:29Z</time></trkpt><trkpt lat="43.711830732307476" lon="12.169172661480879"><ele>816.0</ele><time>2026-05-04T11:23:31Z</time></trkpt><trkpt lat="43.71173962336669" lon="12.169056557985526"><ele>815.8</ele><time>2026-05-04T11:23:33Z</time></trkpt><trkpt lat="43.711664534192394" lon="12.168945327266389"><ele>815.5999999999999</ele><time>2026-05-04T11:23:35Z</time></trkpt><trkpt lat="43.71166353408543" lon="12.16879461352664"><ele>815.4</ele><time>2026-05-04T11:23:37Z</time></trkpt><trkpt lat="43.71168121139603" lon="12.168644974440708"><ele>815.2</ele><time>2026-05-04T11:23:39Z</time></trkpt><trkpt lat="43.7117214403284" lon="12.168497909750142"><ele>815.0</ele><time>2026-05-04T11:23:41Z</time></trkpt><trkpt lat="43.71176128147771" lon="12.168335360653293"><ele>815.0000000000001</ele><time>2026-05-04T11:23:43Z</time></trkpt><trkpt lat="43.71178397240915" lon="12.168232069319618"><ele>815.0</ele><time>2026-05-04T11:23:44Z</time></trkpt><trkpt lat="43.71179937409514" lon="12.168108311222804"><ele>815.0</ele><time>2026-05-04T11:23:45Z</time></trkpt><trkpt lat="43.711806426924824" lon="12.168000606134514"><ele>815.0</ele><time>2026-05-04T11:23:46Z</time></trkpt><trkpt lat="43.71181242983986" lon="12.167858463317376"><ele>815.0000000000001</ele><time>2026-05-04T11:23:48Z</time></trkpt><trkpt lat="43.71181912907916" lon="12.167738604159142"><ele>815.0</ele><time>2026-05-04T11:23:50Z</time></trkpt><trkpt lat="43.711799511084365" lon="12.167587147671016"><ele>815.1666666666667</ele><time>2026-05-04T11:23:52Z</time></trkpt><trkpt lat="43.711791017533386" lon="12.167402160056247"><ele>815.3333333333334</ele><time>2026-05-04T11:23:54Z</time></trkpt><trkpt lat="43.711791607370145" lon="12.167298661674717"><ele>815.5</ele><time>2026-05-04T11:23:55Z</time></trkpt><trkpt lat="43.71179330488736" lon="12.167193795611295"><ele>815.6666666666667</ele><time>2026-05-04T11:23:56Z</time></trkpt><trkpt lat="43.711813419460036" lon="12.167094545855715"><ele>815.8333333333334</ele><time>2026-05-04T11:23:57Z</time></trkpt><trkpt lat="43.711838369935734" lon="12.16699317147308"><ele>816.0</ele><time>2026-05-04T11:23:58Z</time></trkpt><trkpt lat="43.71184969776686" lon="12.166877456133392"><ele>816.5</ele><time>2026-05-04T11:23:59Z</time></trkpt><trkpt lat="43.71188681922339" lon="12.16676693842673"><ele>817.0</ele><time>2026-05-04T11:24:00Z</time></trkpt><trkpt lat="43.71190306033811" lon="12.166657926698834"><ele>817.5</ele><time>2026-05-04T11:24:01Z</time></trkpt><trkpt lat="43.711919462384046" lon="12.166555877196211"><ele>818.0</ele><time>2026-05-04T11:24:02Z</time></trkpt><trkpt lat="43.71193005331509" lon="12.16645922783882"><ele>818.5</ele><time>2026-05-04T11:24:03Z</time></trkpt><trkpt lat="43.71196549460577" lon="12.166353826162835"><ele>819.0</ele><time>2026-05-04T11:24:04Z</time></trkpt><trkpt lat="43.712012874123474" lon="12.16626444670705"><ele>819.0</ele><time>2026-05-04T11:24:05Z</time></trkpt><trkpt lat="43.71206126967616" lon="12.166174921155555"><ele>819.0</ele><time>2026-05-04T11:24:06Z</time></trkpt><trkpt lat="43.712094094883874" lon="12.166095600188505"><ele>819.0</ele><time>2026-05-04T11:24:07Z</time></trkpt><trkpt lat="43.71211788506713" lon="12.165992995842416"><ele>819.0</ele><time>2026-05-04T11:24:08Z</time></trkpt><trkpt lat="43.712110867896506" lon="12.165880899003932"><ele>819.0</ele><time>2026-05-04T11:24:09Z</time></trkpt><trkpt lat="43.71213297988934" lon="12.165775271701554"><ele>819.0</ele><time>2026-05-04T11:24:10Z</time></trkpt><trkpt lat="43.71215410575447" lon="12.1656608023873"><ele>816.5</ele><time>2026-05-04T11:24:11Z</time></trkpt><trkpt lat="43.71217237720949" lon="12.165548526719201"><ele>814.0</ele><time>2026-05-04T11:24:12Z</time></trkpt><trkpt lat="43.71221055035873" lon="12.165460368581163"><ele>811.5</ele><time>2026-05-04T11:24:13Z</time></trkpt><trkpt lat="43.712263673998535" lon="12.165389675930024"><ele>809.0</ele><time>2026-05-04T11:24:14Z</time></trkpt><trkpt lat="43.712313707197154" lon="12.165334234430293"><ele>806.5</ele><time>2026-05-04T11:24:15Z</time></trkpt><trkpt lat="43.71237996906235" lon="12.165296371193985"><ele>804.0</ele><time>2026-05-04T11:24:16Z</time></trkpt><trkpt lat="43.7124639250148" lon="12.165255937207208"><ele>804.0</ele><time>2026-05-04T11:24:17Z</time></trkpt><trkpt lat="43.71253225645369" lon="12.165223402443086"><ele>804.0</ele><time>2026-05-04T11:24:18Z</time></trkpt><trkpt lat="43.712601339576146" lon="12.165209433387721"><ele>804.0</ele><time>2026-05-04T11:24:19Z</time></trkpt><trkpt lat="43.712666954784254" lon="12.165230325831718"><ele>804.0</ele><time>2026-05-04T11:24:20Z</time></trkpt><trkpt lat="43.71276664845649" lon="12.165270281170043"><ele>804.0</ele><time>2026-05-04T11:24:21Z</time></trkpt><trkpt lat="43.7128369109948" lon="12.165319542154625"><ele>804.0</ele><time>2026-05-04T11:24:22Z</time></trkpt><trkpt lat="43.712949101287094" lon="12.165341062951928"><ele>804.2</ele><time>2026-05-04T11:24:24Z</time></trkpt><trkpt lat="43.71305859036529" lon="12.165248303921082"><ele>804.4000000000001</ele><time>2026-05-04T11:24:26Z</time></trkpt><trkpt lat="43.7131075983451" lon="12.165155770039386"><ele>804.6</ele><time>2026-05-04T11:24:27Z</time></trkpt><trkpt lat="43.713166195074635" lon="12.16503785006204"><ele>804.8</ele><time>2026-05-04T11:24:28Z</time></trkpt><trkpt lat="43.713226967095245" lon="12.164940296590217"><ele>805.0</ele><time>2026-05-04T11:24:29Z</time></trkpt><trkpt lat="43.71327065080446" lon="12.164863817188445"><ele>805.2</ele><time>2026-05-04T11:24:30Z</time></trkpt><trkpt lat="43.71329316887292" lon="12.164776478715718"><ele>805.4</ele><time>2026-05-04T11:24:31Z</time></trkpt><trkpt lat="43.71328884949584" lon="12.164689156756033"><ele>805.5999999999999</ele><time>2026-05-04T11:24:32Z</time></trkpt><trkpt lat="43.71325664794751" lon="12.16453039289452"><ele>805.8</ele><time>2026-05-04T11:24:34Z</time></trkpt><trkpt lat="43.71327898684619" lon="12.164314613188118"><ele>806.0</ele><time>2026-05-04T11:24:36Z</time></trkpt><trkpt lat="43.713299438046654" lon="12.164152095955648"><ele>805.4</ele><time>2026-05-04T11:24:37Z</time></trkpt><trkpt lat="43.71331863150461" lon="12.163998045495475"><ele>804.8</ele><time>2026-05-04T11:24:38Z</time></trkpt><trkpt lat="43.71334712329428" lon="12.163870330001298"><ele>804.1999999999999</ele><time>2026-05-04T11:24:39Z</time></trkpt><trkpt lat="43.71339512986947" lon="12.163780086772558"><ele>803.5999999999999</ele><time>2026-05-04T11:24:40Z</time></trkpt><trkpt lat="43.71346804723208" lon="12.16369368179253"><ele>803.0</ele><time>2026-05-04T11:24:41Z</time></trkpt><trkpt lat="43.71352645556686" lon="12.163639778277114"><ele>802.3333333333334</ele><time>2026-05-04T11:24:42Z</time></trkpt><trkpt lat="43.7136058976246" lon="12.16360286076383"><ele>801.6666666666667</ele><time>2026-05-04T11:24:45Z</time></trkpt><trkpt lat="43.71369948734632" lon="12.16355961505497"><ele>801.0</ele><time>2026-05-04T11:24:47Z</time></trkpt><trkpt lat="43.71378437128174" lon="12.163490292739178"><ele>800.3333333333333</ele><time>2026-05-04T11:24:49Z</time></trkpt><trkpt lat="43.71384176575218" lon="12.163450239255605"><ele>799.6666666666666</ele><time>2026-05-04T11:24:50Z</time></trkpt><trkpt lat="43.71390212016975" lon="12.16340183122129"><ele>799.0</ele><time>2026-05-04T11:24:51Z</time></trkpt><trkpt lat="43.71396816995414" lon="12.163278783937065"><ele>799.8000000000001</ele><time>2026-05-04T11:24:53Z</time></trkpt><trkpt lat="43.71403325215456" lon="12.163159814702903"><ele>800.6</ele><time>2026-05-04T11:24:55Z</time></trkpt><trkpt lat="43.714064257615185" lon="12.163029212436735"><ele>801.4</ele><time>2026-05-04T11:24:57Z</time></trkpt><trkpt lat="43.71409617688973" lon="12.16287902541783"><ele>802.2</ele><time>2026-05-04T11:24:59Z</time></trkpt><trkpt lat="43.714159893645686" lon="12.162750304202858"><ele>803.0</ele><time>2026-05-04T11:25:01Z</time></trkpt><trkpt lat="43.71424385870502" lon="12.162615397395102"><ele>803.0000000000001</ele><time>2026-05-04T11:25:03Z</time></trkpt><trkpt lat="43.71427879322734" lon="12.162519655378322"><ele>803.0</ele><time>2026-05-04T11:25:04Z</time></trkpt><trkpt lat="43.71430283882744" lon="12.162426190755404"><ele>803.0</ele><time>2026-05-04T11:25:05Z</time></trkpt><trkpt lat="43.714307587553954" lon="12.16232816443792"><ele>803.0</ele><time>2026-05-04T11:25:06Z</time></trkpt><trkpt lat="43.71429592497622" lon="12.162226218537354"><ele>803.0000000000001</ele><time>2026-05-04T11:25:07Z</time></trkpt><trkpt lat="43.714253070092546" lon="12.162068890501075"><ele>803.0</ele><time>2026-05-04T11:25:09Z</time></trkpt><trkpt lat="43.714211785974" lon="12.161981862225861"><ele>803.1428571428571</ele><time>2026-05-04T11:25:10Z</time></trkpt><trkpt lat="43.71417887092807" lon="12.161884601378373"><ele>803.2857142857142</ele><time>2026-05-04T11:25:11Z</time></trkpt><trkpt lat="43.71414456629939" lon="12.161787807616575"><ele>803.4285714285713</ele><time>2026-05-04T11:25:12Z</time></trkpt><trkpt lat="43.71410338697696" lon="12.161711090068316"><ele>803.5714285714286</ele><time>2026-05-04T11:25:13Z</time></trkpt><trkpt lat="43.714057879296185" lon="12.16162704340949"><ele>803.7142857142858</ele><time>2026-05-04T11:25:14Z</time></trkpt><trkpt lat="43.714010801579995" lon="12.161559562588028"><ele>803.8571428571428</ele><time>2026-05-04T11:25:15Z</time></trkpt><trkpt lat="43.713962769275355" lon="12.161486999953743"><ele>804.0</ele><time>2026-05-04T11:25:16Z</time></trkpt><trkpt lat="43.713896369128015" lon="12.161340003696788"><ele>807.0</ele><time>2026-05-04T11:25:18Z</time></trkpt><trkpt lat="43.71382416309055" lon="12.161201656523241"><ele>810.0</ele><time>2026-05-04T11:25:20Z</time></trkpt><trkpt lat="43.71377907181411" lon="12.161135699117656"><ele>813.0</ele><time>2026-05-04T11:25:21Z</time></trkpt><trkpt lat="43.713730108650154" lon="12.161056879688614"><ele>816.0</ele><time>2026-05-04T11:25:22Z</time></trkpt><trkpt lat="43.71364986453167" lon="12.160924555495576"><ele>819.0</ele><time>2026-05-04T11:25:24Z</time></trkpt><trkpt lat="43.713602685444236" lon="12.160846845029072"><ele>819.0</ele><time>2026-05-04T11:25:25Z</time></trkpt><trkpt lat="43.71356608948334" lon="12.160773383469511"><ele>819.0</ele><time>2026-05-04T11:25:26Z</time></trkpt><trkpt lat="43.7134874464782" lon="12.160625283521485"><ele>819.0</ele><time>2026-05-04T11:25:28Z</time></trkpt><trkpt lat="43.71343757299912" lon="12.160550316750475"><ele>819.0</ele><time>2026-05-04T11:25:29Z</time></trkpt><trkpt lat="43.71338537019166" lon="12.160400777997232"><ele>819.0</ele><time>2026-05-04T11:25:31Z</time></trkpt><trkpt lat="43.713330814018775" lon="12.16027839835679"><ele>821.5</ele><time>2026-05-04T11:25:33Z</time></trkpt><trkpt lat="43.71329783071813" lon="12.160194665861912"><ele>824.0</ele><time>2026-05-04T11:25:34Z</time></trkpt><trkpt lat="43.71325605622361" lon="12.160123005297825"><ele>826.5</ele><time>2026-05-04T11:25:35Z</time></trkpt><trkpt lat="43.713194514885565" lon="12.159976576136993"><ele>829.0</ele><time>2026-05-04T11:25:37Z</time></trkpt><trkpt lat="43.713145982755876" lon="12.159875965861143"><ele>831.5</ele><time>2026-05-04T11:25:39Z</time></trkpt><trkpt lat="43.71310395600124" lon="12.159792115058757"><ele>834.0</ele><time>2026-05-04T11:25:41Z</time></trkpt><trkpt lat="43.713055097648756" lon="12.159713745273828"><ele>838.4000000000001</ele><time>2026-05-04T11:25:43Z</time></trkpt><trkpt lat="43.71301467653541" lon="12.159646273580018"><ele>842.8</ele><time>2026-05-04T11:25:44Z</time></trkpt><trkpt lat="43.71294791687741" lon="12.15947555706517"><ele>847.1999999999999</ele><time>2026-05-04T11:25:46Z</time></trkpt><trkpt lat="43.71291509092021" lon="12.159399989509765"><ele>851.5999999999999</ele><time>2026-05-04T11:25:47Z</time></trkpt><trkpt lat="43.71286411820719" lon="12.15927470579265"><ele>856.0</ele><time>2026-05-04T11:25:49Z</time></trkpt><trkpt lat="43.712785115977496" lon="12.159137505509742"><ele>858.5999999999999</ele><time>2026-05-04T11:25:51Z</time></trkpt><trkpt lat="43.71272214283747" lon="12.159021954615358"><ele>861.1999999999999</ele><time>2026-05-04T11:25:53Z</time></trkpt><trkpt lat="43.71266919364341" lon="12.15889613189021"><ele>863.8000000000001</ele><time>2026-05-04T11:25:55Z</time></trkpt><trkpt lat="43.7126155231061" lon="12.1587716649754"><ele>866.4000000000001</ele><time>2026-05-04T11:25:57Z</time></trkpt><trkpt lat="43.71257166937549" lon="12.158632444064146"><ele>869.0</ele><time>2026-05-04T11:25:59Z</time></trkpt><trkpt lat="43.71254336967464" lon="12.158534470107375"><ele>869.0000000000001</ele><time>2026-05-04T11:26:01Z</time></trkpt><trkpt lat="43.712516204237936" lon="12.158449201834038"><ele>869.0</ele><time>2026-05-04T11:26:04Z</time></trkpt><trkpt lat="43.71250543642831" lon="12.158361155106231"><ele>869.0</ele><time>2026-05-04T11:26:07Z</time></trkpt><trkpt lat="43.7125059633013" lon="12.158253464790796"><ele>869.0</ele><time>2026-05-04T11:26:09Z</time></trkpt><trkpt lat="43.71248951090187" lon="12.158144159795883"><ele>869.0000000000001</ele><time>2026-05-04T11:26:11Z</time></trkpt><trkpt lat="43.712462625414275" lon="12.15800786186638"><ele>869.0</ele><time>2026-05-04T11:26:24Z</time></trkpt><trkpt lat="43.71245136547235" lon="12.15786952194098"><ele>872.1666666666667</ele><time>2026-05-04T11:26:26Z</time></trkpt><trkpt lat="43.71249727604102" lon="12.157773464755218"><ele>875.3333333333334</ele><time>2026-05-04T11:26:29Z</time></trkpt><trkpt lat="43.712585151630805" lon="12.157758887664032"><ele>878.5</ele><time>2026-05-04T11:26:31Z</time></trkpt><trkpt lat="43.712695412280304" lon="12.157766392415176"><ele>881.6666666666667</ele><time>2026-05-04T11:26:33Z</time></trkpt><trkpt lat="43.71278211381319" lon="12.157783740226195"><ele>884.8333333333334</ele><time>2026-05-04T11:26:35Z</time></trkpt><trkpt lat="43.71283252727151" lon="12.15771437931788"><ele>888.0</ele><time>2026-05-04T11:26:37Z</time></trkpt><trkpt lat="43.71287431421745" lon="12.157605045136078"><ele>891.0</ele><time>2026-05-04T11:26:40Z</time></trkpt><trkpt lat="43.71285089436365" lon="12.157454762129488"><ele>894.0</ele><time>2026-05-04T11:26:42Z</time></trkpt><trkpt lat="43.712834253426685" lon="12.157366594735684"><ele>897.0</ele><time>2026-05-04T11:26:43Z</time></trkpt><trkpt lat="43.71282336090472" lon="12.157275044635684"><ele>900.0</ele><time>2026-05-04T11:26:44Z</time></trkpt><trkpt lat="43.71280574088615" lon="12.157099231538757"><ele>903.0</ele><time>2026-05-04T11:26:46Z</time></trkpt><trkpt lat="43.71277797538151" lon="12.156972467779005"><ele>902.8</ele><time>2026-05-04T11:26:48Z</time></trkpt><trkpt lat="43.71277349817357" lon="12.156854430294329"><ele>902.5999999999999</ele><time>2026-05-04T11:26:50Z</time></trkpt><trkpt lat="43.712756432265884" lon="12.156733894288966"><ele>902.4000000000001</ele><time>2026-05-04T11:26:52Z</time></trkpt><trkpt lat="43.7127042066113" lon="12.15663992699434"><ele>902.2</ele><time>2026-05-04T11:26:54Z</time></trkpt><trkpt lat="43.71258314423325" lon="12.156604818631104"><ele>902.0</ele><time>2026-05-04T11:26:56Z</time></trkpt><trkpt lat="43.71247967582637" lon="12.156574784052193"><ele>900.6666666666667</ele><time>2026-05-04T11:26:58Z</time></trkpt><trkpt lat="43.71238911135691" lon="12.156494190435017"><ele>899.3333333333334</ele><time>2026-05-04T11:27:00Z</time></trkpt><trkpt lat="43.712349063972894" lon="12.156422724999375"><ele>898.0</ele><time>2026-05-04T11:27:01Z</time></trkpt><trkpt lat="43.712306899128265" lon="12.156343985911434"><ele>896.6666666666667</ele><time>2026-05-04T11:27:02Z</time></trkpt><trkpt lat="43.712263645174026" lon="12.156262051778004"><ele>895.3333333333334</ele><time>2026-05-04T11:27:03Z</time></trkpt><trkpt lat="43.71219131552679" lon="12.156132447605394"><ele>894.0</ele><time>2026-05-04T11:27:05Z</time></trkpt><trkpt lat="43.712110414245984" lon="12.155993261120468"><ele>894.0</ele><time>2026-05-04T11:27:07Z</time></trkpt><trkpt lat="43.7120644366712" lon="12.155896681071841"><ele>894.0000000000001</ele><time>2026-05-04T11:27:08Z</time></trkpt><trkpt lat="43.7120176678643" lon="12.1557887573672"><ele>894.0000000000001</ele><time>2026-05-04T11:27:09Z</time></trkpt><trkpt lat="43.711963616507795" lon="12.155677087151284"><ele>894.0</ele><time>2026-05-04T11:27:10Z</time></trkpt><trkpt lat="43.71189502367081" lon="12.15554913883402"><ele>894.0</ele><time>2026-05-04T11:27:11Z</time></trkpt><trkpt lat="43.71183863805925" lon="12.15544634531448"><ele>893.8333333333334</ele><time>2026-05-04T11:27:12Z</time></trkpt><trkpt lat="43.71179473481629" lon="12.155343360021556"><ele>893.6666666666667</ele><time>2026-05-04T11:27:13Z</time></trkpt><trkpt lat="43.71175811636678" lon="12.155252839440918"><ele>893.5</ele><time>2026-05-04T11:27:14Z</time></trkpt><trkpt lat="43.711708149484224" lon="12.155106909211703"><ele>893.3333333333334</ele><time>2026-05-04T11:27:16Z</time></trkpt><trkpt lat="43.71167558164365" lon="12.155031315034007"><ele>893.1666666666667</ele><time>2026-05-04T11:27:17Z</time></trkpt><trkpt lat="43.71163859607048" lon="12.154948235261969"><ele>893.0</ele><time>2026-05-04T11:27:18Z</time></trkpt><trkpt lat="43.711607560860934" lon="12.154869740692446"><ele>891.8</ele><time>2026-05-04T11:27:19Z</time></trkpt><trkpt lat="43.71155929353598" lon="12.154783151641883"><ele>890.5999999999999</ele><time>2026-05-04T11:27:20Z</time></trkpt><trkpt lat="43.71151088826167" lon="12.154675048536205"><ele>889.4000000000001</ele><time>2026-05-04T11:27:21Z</time></trkpt><trkpt lat="43.71146382862031" lon="12.154558030280386"><ele>888.2</ele><time>2026-05-04T11:27:22Z</time></trkpt><trkpt lat="43.711409992861206" lon="12.154437581372443"><ele>887.0</ele><time>2026-05-04T11:27:23Z</time></trkpt><trkpt lat="43.71135725234738" lon="12.154302296511842"><ele>887.0</ele><time>2026-05-04T11:27:24Z</time></trkpt><trkpt lat="43.71131327451455" lon="12.154160365009192"><ele>887.0</ele><time>2026-05-04T11:27:25Z</time></trkpt><trkpt lat="43.71127716439152" lon="12.153996404993013"><ele>887.0</ele><time>2026-05-04T11:27:26Z</time></trkpt><trkpt lat="43.71125053129313" lon="12.153819542787017"><ele>887.0</ele><time>2026-05-04T11:27:27Z</time></trkpt><trkpt lat="43.71122362279902" lon="12.15366248053719"><ele>886.0000000000001</ele><time>2026-05-04T11:27:28Z</time></trkpt><trkpt lat="43.71119835324591" lon="12.153517968926081"><ele>885.0</ele><time>2026-05-04T11:27:29Z</time></trkpt><trkpt lat="43.71117244818589" lon="12.153395908605273"><ele>884.0</ele><time>2026-05-04T11:27:30Z</time></trkpt><trkpt lat="43.71115635761458" lon="12.153284324437896"><ele>883.0</ele><time>2026-05-04T11:27:31Z</time></trkpt><trkpt lat="43.71114394561533" lon="12.1531792932898"><ele>882.0000000000001</ele><time>2026-05-04T11:27:32Z</time></trkpt><trkpt lat="43.7111370056114" lon="12.15306472096392"><ele>881.0</ele><time>2026-05-04T11:27:33Z</time></trkpt><trkpt lat="43.71112886171012" lon="12.152934954305076"><ele>880.5999999999999</ele><time>2026-05-04T11:27:34Z</time></trkpt><trkpt lat="43.71112095551559" lon="12.152807303545172"><ele>880.1999999999999</ele><time>2026-05-04T11:27:35Z</time></trkpt><trkpt lat="43.71110887210089" lon="12.152680200426701"><ele>879.8000000000001</ele><time>2026-05-04T11:27:36Z</time></trkpt><trkpt lat="43.71110435525578" lon="12.152545152851223"><ele>879.4000000000001</ele><time>2026-05-04T11:27:37Z</time></trkpt><trkpt lat="43.711109977116415" lon="12.152435818054315"><ele>879.0</ele><time>2026-05-04T11:27:38Z</time></trkpt><trkpt lat="43.71113444922454" lon="12.152312799273131"><ele>879.4000000000001</ele><time>2026-05-04T11:27:39Z</time></trkpt><trkpt lat="43.71115627010917" lon="12.152189281532882"><ele>879.8000000000001</ele><time>2026-05-04T11:27:40Z</time></trkpt><trkpt lat="43.71115057540384" lon="12.152049459109945"><ele>880.1999999999999</ele><time>2026-05-04T11:27:41Z</time></trkpt><trkpt lat="43.71112705062567" lon="12.1519249498811"><ele>880.5999999999999</ele><time>2026-05-04T11:27:42Z</time></trkpt><trkpt lat="43.71108502481043" lon="12.151800163669119"><ele>881.0</ele><time>2026-05-04T11:27:43Z</time></trkpt><trkpt lat="43.711029382250615" lon="12.1516721550374"><ele>881.0</ele><time>2026-05-04T11:27:44Z</time></trkpt><trkpt lat="43.71097574326183" lon="12.151546809049846"><ele>880.9999999999999</ele><time>2026-05-04T11:27:45Z</time></trkpt><trkpt lat="43.71092341326738" lon="12.151429701609388"><ele>880.9999999999999</ele><time>2026-05-04T11:27:46Z</time></trkpt><trkpt lat="43.71087409620576" lon="12.151324300965143"><ele>881.0</ele><time>2026-05-04T11:27:47Z</time></trkpt><trkpt lat="43.71081293845133" lon="12.151215573074504"><ele>881.0</ele><time>2026-05-04T11:27:48Z</time></trkpt><trkpt lat="43.71074588899981" lon="12.15109826080147"><ele>881.1999999999999</ele><time>2026-05-04T11:27:49Z</time></trkpt><trkpt lat="43.710686368377274" lon="12.150971708147605"><ele>881.3999999999999</ele><time>2026-05-04T11:27:50Z</time></trkpt><trkpt lat="43.71062119836112" lon="12.150861072877545"><ele>881.6</ele><time>2026-05-04T11:27:51Z</time></trkpt><trkpt lat="43.71054199144251" lon="12.150743783821635"><ele>881.8</ele><time>2026-05-04T11:27:52Z</time></trkpt><trkpt lat="43.71047045187525" lon="12.150638077376817"><ele>882.0</ele><time>2026-05-04T11:27:53Z</time></trkpt><trkpt lat="43.7104120752827" lon="12.150529218661923"><ele>881.0</ele><time>2026-05-04T11:27:54Z</time></trkpt><trkpt lat="43.71036101917911" lon="12.150413814843319"><ele>880.0</ele><time>2026-05-04T11:27:55Z</time></trkpt><trkpt lat="43.7103163868387" lon="12.150298657153204"><ele>879.0</ele><time>2026-05-04T11:27:56Z</time></trkpt><trkpt lat="43.71026391133164" lon="12.150179964461307"><ele>878.0</ele><time>2026-05-04T11:27:57Z</time></trkpt><trkpt lat="43.7102098919068" lon="12.150068094014088"><ele>877.0</ele><time>2026-05-04T11:27:58Z</time></trkpt><trkpt lat="43.71015302926773" lon="12.149945394556852"><ele>876.4000000000001</ele><time>2026-05-04T11:27:59Z</time></trkpt><trkpt lat="43.71010303526731" lon="12.14984202966167"><ele>875.8000000000001</ele><time>2026-05-04T11:28:00Z</time></trkpt><trkpt lat="43.71004250098751" lon="12.149729128254194"><ele>875.2</ele><time>2026-05-04T11:28:01Z</time></trkpt><trkpt lat="43.70999056856534" lon="12.149607459890461"><ele>874.6</ele><time>2026-05-04T11:28:02Z</time></trkpt><trkpt lat="43.709938441213794" lon="12.149494713000765"><ele>874.0</ele><time>2026-05-04T11:28:03Z</time></trkpt><trkpt lat="43.70989392937821" lon="12.149400427479652"><ele>874.0</ele><time>2026-05-04T11:28:04Z</time></trkpt><trkpt lat="43.70984602747225" lon="12.149313667518618"><ele>874.0000000000001</ele><time>2026-05-04T11:28:05Z</time></trkpt><trkpt lat="43.70981587263792" lon="12.149204694348063"><ele>874.0000000000001</ele><time>2026-05-04T11:28:06Z</time></trkpt><trkpt lat="43.709795033331105" lon="12.149064173413787"><ele>874.0</ele><time>2026-05-04T11:28:07Z</time></trkpt><trkpt lat="43.709784180123414" lon="12.148920083107742"><ele>874.0</ele><time>2026-05-04T11:28:08Z</time></trkpt><trkpt lat="43.709783295124446" lon="12.148795640127029"><ele>874.4000000000001</ele><time>2026-05-04T11:28:09Z</time></trkpt><trkpt lat="43.709787934168034" lon="12.148685338679218"><ele>874.8000000000001</ele><time>2026-05-04T11:28:10Z</time></trkpt><trkpt lat="43.7097849308755" lon="12.148558512797935"><ele>875.1999999999999</ele><time>2026-05-04T11:28:11Z</time></trkpt><trkpt lat="43.709779916103045" lon="12.148427264173156"><ele>875.5999999999999</ele><time>2026-05-04T11:28:12Z</time></trkpt><trkpt lat="43.709774579138475" lon="12.148307432888362"><ele>876.0</ele><time>2026-05-04T11:28:13Z</time></trkpt><trkpt lat="43.709764466473295" lon="12.148175062827782"><ele>876.0</ele><time>2026-05-04T11:28:14Z</time></trkpt><trkpt lat="43.709754043120384" lon="12.148043079513918"><ele>875.9999999999999</ele><time>2026-05-04T11:28:15Z</time></trkpt><trkpt lat="43.70972888755748" lon="12.147920112291418"><ele>875.9999999999999</ele><time>2026-05-04T11:28:16Z</time></trkpt><trkpt lat="43.709692411494615" lon="12.14778648705338"><ele>876.0</ele><time>2026-05-04T11:28:17Z</time></trkpt><trkpt lat="43.7096550989977" lon="12.147663106177347"><ele>876.0</ele><time>2026-05-04T11:28:18Z</time></trkpt><trkpt lat="43.709622235818976" lon="12.147541891550453"><ele>877.1999999999999</ele><time>2026-05-04T11:28:19Z</time></trkpt><trkpt lat="43.70960311052963" lon="12.147285050594792"><ele>878.3999999999999</ele><time>2026-05-04T11:28:21Z</time></trkpt><trkpt lat="43.70962300380758" lon="12.147171789945975"><ele>879.6</ele><time>2026-05-04T11:28:22Z</time></trkpt><trkpt lat="43.70964253797174" lon="12.147076181136919"><ele>880.8</ele><time>2026-05-04T11:28:23Z</time></trkpt><trkpt lat="43.70965512364336" lon="12.146944217156877"><ele>882.0</ele><time>2026-05-04T11:28:25Z</time></trkpt><trkpt lat="43.70973326962198" lon="12.146873709606739"><ele>882.0</ele><time>2026-05-04T11:28:28Z</time></trkpt><trkpt lat="43.709836158039735" lon="12.146815480181164"><ele>882.0</ele><time>2026-05-04T11:28:30Z</time></trkpt><trkpt lat="43.70990615458429" lon="12.146781084167557"><ele>882.0</ele><time>2026-05-04T11:28:31Z</time></trkpt><trkpt lat="43.70997495609169" lon="12.14673100875911"><ele>882.0</ele><time>2026-05-04T11:28:32Z</time></trkpt><trkpt lat="43.71003368164555" lon="12.146662523326619"><ele>882.0</ele><time>2026-05-04T11:28:33Z</time></trkpt><trkpt lat="43.710079182982675" lon="12.146575960091774"><ele>882.0</ele><time>2026-05-04T11:28:34Z</time></trkpt><trkpt lat="43.71011866733031" lon="12.14647524108429"><ele>883.25</ele><time>2026-05-04T11:28:35Z</time></trkpt><trkpt lat="43.71014203929547" lon="12.146306849028726"><ele>884.5</ele><time>2026-05-04T11:28:36Z</time></trkpt><trkpt lat="43.710176386288104" lon="12.146148579532218"><ele>885.75</ele><time>2026-05-04T11:28:37Z</time></trkpt><trkpt lat="43.710195590858" lon="12.145999107183046"><ele>887.0</ele><time>2026-05-04T11:28:38Z</time></trkpt><trkpt lat="43.71021659190861" lon="12.145858918384253"><ele>884.1666666666667</ele><time>2026-05-04T11:28:39Z</time></trkpt><trkpt lat="43.71024616434102" lon="12.145727339562335"><ele>881.3333333333334</ele><time>2026-05-04T11:28:40Z</time></trkpt><trkpt lat="43.71026459784749" lon="12.145585281393238"><ele>878.5</ele><time>2026-05-04T11:28:41Z</time></trkpt><trkpt lat="43.71027539515165" lon="12.145479884403736"><ele>875.6666666666667</ele><time>2026-05-04T11:28:42Z</time></trkpt><trkpt lat="43.710290604340535" lon="12.145368324798977"><ele>872.8333333333334</ele><time>2026-05-04T11:28:43Z</time></trkpt><trkpt lat="43.710319949752346" lon="12.145256726549047"><ele>870.0</ele><time>2026-05-04T11:28:44Z</time></trkpt><trkpt lat="43.7103677872428" lon="12.14517726645091"><ele>870.0</ele><time>2026-05-04T11:28:45Z</time></trkpt><trkpt lat="43.710419415941544" lon="12.145094067809808"><ele>870.0</ele><time>2026-05-04T11:28:46Z</time></trkpt><trkpt lat="43.71046343835949" lon="12.145019677053309"><ele>870.0</ele><time>2026-05-04T11:28:47Z</time></trkpt><trkpt lat="43.71050234686415" lon="12.14494717227906"><ele>870.0</ele><time>2026-05-04T11:28:48Z</time></trkpt><trkpt lat="43.710543119408875" lon="12.14479986428449"><ele>870.0</ele><time>2026-05-04T11:28:50Z</time></trkpt><trkpt lat="43.71051019095077" lon="12.144649061362282"><ele>870.0</ele><time>2026-05-04T11:28:52Z</time></trkpt><trkpt lat="43.71047198854071" lon="12.144557449777936"><ele>870.0</ele><time>2026-05-04T11:28:53Z</time></trkpt><trkpt lat="43.71042018386158" lon="12.144482784591617"><ele>870.0</ele><time>2026-05-04T11:28:54Z</time></trkpt><trkpt lat="43.71037159870198" lon="12.144388529936363"><ele>870.0</ele><time>2026-05-04T11:28:55Z</time></trkpt><trkpt lat="43.71033346242142" lon="12.144310503041554"><ele>870.0</ele><time>2026-05-04T11:28:56Z</time></trkpt><trkpt lat="43.71029630232923" lon="12.144236945351434"><ele>870.0</ele><time>2026-05-04T11:28:57Z</time></trkpt><trkpt lat="43.71032080524174" lon="12.144091820150246"><ele>870.0</ele><time>2026-05-04T11:28:58Z</time></trkpt><trkpt lat="43.71025630473687" lon="12.144008406404668"><ele>870.2</ele><time>2026-05-04T11:29:00Z</time></trkpt><trkpt lat="43.710175190936546" lon="12.143880925148858"><ele>870.4</ele><time>2026-05-04T11:29:02Z</time></trkpt><trkpt lat="43.710129456658244" lon="12.143794518148258"><ele>870.5999999999999</ele><time>2026-05-04T11:29:03Z</time></trkpt><trkpt lat="43.710089925721455" lon="12.143692737769236"><ele>870.8</ele><time>2026-05-04T11:29:04Z</time></trkpt><trkpt lat="43.71004815994921" lon="12.143561976299718"><ele>871.0</ele><time>2026-05-04T11:29:05Z</time></trkpt><trkpt lat="43.70999868681655" lon="12.143414583295042"><ele>871.0</ele><time>2026-05-04T11:29:06Z</time></trkpt><trkpt lat="43.709966528844774" lon="12.143264131885221"><ele>871.0</ele><time>2026-05-04T11:29:07Z</time></trkpt><trkpt lat="43.70994348532751" lon="12.143096857421442"><ele>871.0</ele><time>2026-05-04T11:29:08Z</time></trkpt><trkpt lat="43.70989660048017" lon="12.142951637654376"><ele>871.0</ele><time>2026-05-04T11:29:09Z</time></trkpt><trkpt lat="43.70987819861778" lon="12.142798111324193"><ele>870.1999999999999</ele><time>2026-05-04T11:29:10Z</time></trkpt><trkpt lat="43.70984491516386" lon="12.142651056816767"><ele>869.3999999999999</ele><time>2026-05-04T11:29:11Z</time></trkpt><trkpt lat="43.70980501766353" lon="12.142527127738584"><ele>868.6</ele><time>2026-05-04T11:29:12Z</time></trkpt><trkpt lat="43.70979021155241" lon="12.14239206955521"><ele>867.8</ele><time>2026-05-04T11:29:13Z</time></trkpt><trkpt lat="43.70976688507941" lon="12.142265176794373"><ele>867.0</ele><time>2026-05-04T11:29:14Z</time></trkpt><trkpt lat="43.7097333549599" lon="12.14214711862793"><ele>866.0</ele><time>2026-05-04T11:29:15Z</time></trkpt><trkpt lat="43.709721440955775" lon="12.141986187515014"><ele>865.0</ele><time>2026-05-04T11:29:16Z</time></trkpt><trkpt lat="43.70969635132203" lon="12.141808637524319"><ele>864.0</ele><time>2026-05-04T11:29:17Z</time></trkpt><trkpt lat="43.709675600495785" lon="12.14161735257191"><ele>863.0</ele><time>2026-05-04T11:29:18Z</time></trkpt><trkpt lat="43.709652740863135" lon="12.141434572878637"><ele>863.0</ele><time>2026-05-04T11:29:19Z</time></trkpt><trkpt lat="43.7096093854504" lon="12.141279045478244"><ele>863.0</ele><time>2026-05-04T11:29:20Z</time></trkpt><trkpt lat="43.70957234357774" lon="12.141117765391604"><ele>863.0</ele><time>2026-05-04T11:29:21Z</time></trkpt><trkpt lat="43.709560375858864" lon="12.140954682203292"><ele>863.0</ele><time>2026-05-04T11:29:22Z</time></trkpt><trkpt lat="43.70954343977125" lon="12.140792590680853"><ele>863.5</ele><time>2026-05-04T11:29:23Z</time></trkpt><trkpt lat="43.70951807748727" lon="12.140632359752138"><ele>864.0</ele><time>2026-05-04T11:29:24Z</time></trkpt><trkpt lat="43.70950229205582" lon="12.140457511829455"><ele>864.5</ele><time>2026-05-04T11:29:25Z</time></trkpt><trkpt lat="43.70949130330103" lon="12.140277955637956"><ele>865.0</ele><time>2026-05-04T11:29:26Z</time></trkpt><trkpt lat="43.70945604827869" lon="12.140090429660162"><ele>865.0</ele><time>2026-05-04T11:29:27Z</time></trkpt><trkpt lat="43.70944642238857" lon="12.139915726178907"><ele>865.0</ele><time>2026-05-04T11:29:28Z</time></trkpt><trkpt lat="43.70943755337175" lon="12.139759998868618"><ele>865.0</ele><time>2026-05-04T11:29:29Z</time></trkpt><trkpt lat="43.70945720726709" lon="12.139606012946665"><ele>865.0</ele><time>2026-05-04T11:29:30Z</time></trkpt><trkpt lat="43.70948454337749" lon="12.139460922198719"><ele>865.4999999999999</ele><time>2026-05-04T11:29:31Z</time></trkpt><trkpt lat="43.70951120677138" lon="12.139331474185518"><ele>866.0</ele><time>2026-05-04T11:29:32Z</time></trkpt><trkpt lat="43.70952461718095" lon="12.13923048404039"><ele>866.5</ele><time>2026-05-04T11:29:33Z</time></trkpt><trkpt lat="43.7095107713327" lon="12.139139843207207"><ele>867.0</ele><time>2026-05-04T11:29:34Z</time></trkpt><trkpt lat="43.70947591902795" lon="12.139061022551108"><ele>867.4999999999999</ele><time>2026-05-04T11:29:35Z</time></trkpt><trkpt lat="43.70942820390718" lon="12.13899269588316"><ele>868.0</ele><time>2026-05-04T11:29:36Z</time></trkpt><trkpt lat="43.70935061533569" lon="12.13895604474361"><ele>870.5999999999999</ele><time>2026-05-04T11:29:37Z</time></trkpt><trkpt lat="43.70926146317257" lon="12.138947945144118"><ele>873.1999999999999</ele><time>2026-05-04T11:29:38Z</time></trkpt><trkpt lat="43.70916433323697" lon="12.138961021022844"><ele>875.8</ele><time>2026-05-04T11:29:39Z</time></trkpt><trkpt lat="43.70906695264164" lon="12.139021600677529"><ele>878.4</ele><time>2026-05-04T11:29:40Z</time></trkpt><trkpt lat="43.708957889761216" lon="12.139100274738711"><ele>881.0</ele><time>2026-05-04T11:29:41Z</time></trkpt><trkpt lat="43.708845849302264" lon="12.1391980333465"><ele>880.1999999999999</ele><time>2026-05-04T11:29:42Z</time></trkpt><trkpt lat="43.70874500331565" lon="12.13921830889958"><ele>879.3999999999999</ele><time>2026-05-04T11:29:43Z</time></trkpt><trkpt lat="43.708652194758535" lon="12.139226268737222"><ele>878.6</ele><time>2026-05-04T11:29:44Z</time></trkpt><trkpt lat="43.7085629691656" lon="12.139212947936896"><ele>877.8</ele><time>2026-05-04T11:29:45Z</time></trkpt><trkpt lat="43.708486853858" lon="12.139082174840693"><ele>877.0</ele><time>2026-05-04T11:29:46Z</time></trkpt><trkpt lat="43.70839061912186" lon="12.138958353692454"><ele>874.5</ele><time>2026-05-04T11:29:47Z</time></trkpt><trkpt lat="43.708277178607474" lon="12.138824769163882"><ele>872.0</ele><time>2026-05-04T11:29:48Z</time></trkpt><trkpt lat="43.70816822252102" lon="12.138696579774788"><ele>869.5</ele><time>2026-05-04T11:29:49Z</time></trkpt><trkpt lat="43.708057427341124" lon="12.138582985026098"><ele>867.0</ele><time>2026-05-04T11:29:50Z</time></trkpt><trkpt lat="43.707921073346945" lon="12.138480555112187"><ele>867.0</ele><time>2026-05-04T11:29:51Z</time></trkpt><trkpt lat="43.70776746680864" lon="12.138373648962993"><ele>867.0</ele><time>2026-05-04T11:29:52Z</time></trkpt><trkpt lat="43.70763224773382" lon="12.138271024819055"><ele>867.0</ele><time>2026-05-04T11:29:53Z</time></trkpt><trkpt lat="43.70750036601799" lon="12.138178108621444"><ele>864.25</ele><time>2026-05-04T11:29:54Z</time></trkpt><trkpt lat="43.707358039320944" lon="12.138114215630196"><ele>861.5</ele><time>2026-05-04T11:29:55Z</time></trkpt><trkpt lat="43.70722010599269" lon="12.138072716047612"><ele>858.75</ele><time>2026-05-04T11:29:56Z</time></trkpt><trkpt lat="43.70708433518114" lon="12.138039740397785"><ele>856.0</ele><time>2026-05-04T11:29:57Z</time></trkpt><trkpt lat="43.706955444794936" lon="12.138008509091081"><ele>854.5</ele><time>2026-05-04T11:29:58Z</time></trkpt><trkpt lat="43.706828914772814" lon="12.137975182729265"><ele>853.0</ele><time>2026-05-04T11:29:59Z</time></trkpt><trkpt lat="43.706708891098465" lon="12.13794378801458"><ele>851.5</ele><time>2026-05-04T11:30:00Z</time></trkpt><trkpt lat="43.706599376843776" lon="12.137875424630625"><ele>850.0</ele><time>2026-05-04T11:30:01Z</time></trkpt><trkpt lat="43.70648477073038" lon="12.1378061607953"><ele>850.0</ele><time>2026-05-04T11:30:02Z</time></trkpt><trkpt lat="43.70636083756613" lon="12.137718957956913"><ele>850.0</ele><time>2026-05-04T11:30:03Z</time></trkpt><trkpt lat="43.70623933604306" lon="12.137626833931403"><ele>850.0</ele><time>2026-05-04T11:30:04Z</time></trkpt><trkpt lat="43.70611674916925" lon="12.137546127433543"><ele>850.0</ele><time>2026-05-04T11:30:05Z</time></trkpt><trkpt lat="43.706026111453184" lon="12.137450813785387"><ele>848.6</ele><time>2026-05-04T11:30:06Z</time></trkpt><trkpt lat="43.705953664959175" lon="12.137360375560428"><ele>847.2</ele><time>2026-05-04T11:30:07Z</time></trkpt><trkpt lat="43.70589371848285" lon="12.137275583528625"><ele>845.8</ele><time>2026-05-04T11:30:08Z</time></trkpt><trkpt lat="43.70581861911892" lon="12.137191834609991"><ele>844.4</ele><time>2026-05-04T11:30:09Z</time></trkpt><trkpt lat="43.70568973794192" lon="12.137194445207822"><ele>843.0</ele><time>2026-05-04T11:30:10Z</time></trkpt><trkpt lat="43.70559276033897" lon="12.137145518102333"><ele>843.0</ele><time>2026-05-04T11:30:11Z</time></trkpt><trkpt lat="43.70550724754464" lon="12.137123713861673"><ele>843.0</ele><time>2026-05-04T11:30:12Z</time></trkpt><trkpt lat="43.70542553524612" lon="12.137138536116067"><ele>843.0</ele><time>2026-05-04T11:30:13Z</time></trkpt><trkpt lat="43.705355135128166" lon="12.137122910421363"><ele>843.0</ele><time>2026-05-04T11:30:14Z</time></trkpt><trkpt lat="43.70527123872976" lon="12.137116673058744"><ele>843.0</ele><time>2026-05-04T11:30:17Z</time></trkpt><trkpt lat="43.7052981519996" lon="12.136996727656731"><ele>843.0</ele><time>2026-05-04T11:30:19Z</time></trkpt><trkpt lat="43.70530421851185" lon="12.13688488144692"><ele>843.0</ele><time>2026-05-04T11:30:20Z</time></trkpt><trkpt lat="43.705325144178005" lon="12.136784057287821"><ele>843.0</ele><time>2026-05-04T11:30:21Z</time></trkpt><trkpt lat="43.70533154471014" lon="12.136688282570272"><ele>843.0</ele><time>2026-05-04T11:30:22Z</time></trkpt><trkpt lat="43.70533896012804" lon="12.136590510702694"><ele>843.0</ele><time>2026-05-04T11:30:23Z</time></trkpt><trkpt lat="43.70534645583612" lon="12.136490838741652"><ele>843.0</ele><time>2026-05-04T11:30:24Z</time></trkpt><trkpt lat="43.7053424723677" lon="12.136371026149988"><ele>843.0</ele><time>2026-05-04T11:30:25Z</time></trkpt><trkpt lat="43.705313433241436" lon="12.136251068962725"><ele>841.2</ele><time>2026-05-04T11:30:26Z</time></trkpt><trkpt lat="43.70527142564" lon="12.13611200206564"><ele>839.4</ele><time>2026-05-04T11:30:27Z</time></trkpt><trkpt lat="43.70517597434536" lon="12.136012870395092"><ele>837.6</ele><time>2026-05-04T11:30:28Z</time></trkpt><trkpt lat="43.705095952008044" lon="12.135915116681156"><ele>835.8000000000001</ele><time>2026-05-04T11:30:29Z</time></trkpt><trkpt lat="43.70502432202294" lon="12.135823219089243"><ele>834.0</ele><time>2026-05-04T11:30:30Z</time></trkpt><trkpt lat="43.70496927815566" lon="12.1357197101827"><ele>832.2</ele><time>2026-05-04T11:30:31Z</time></trkpt><trkpt lat="43.704936980176875" lon="12.135594788794872"><ele>830.4000000000001</ele><time>2026-05-04T11:30:32Z</time></trkpt><trkpt lat="43.70493262089039" lon="12.135461228296224"><ele>828.6</ele><time>2026-05-04T11:30:33Z</time></trkpt><trkpt lat="43.704953741497924" lon="12.135333099281583"><ele>826.8</ele><time>2026-05-04T11:30:34Z</time></trkpt><trkpt lat="43.70501171378989" lon="12.135222294289068"><ele>825.0</ele><time>2026-05-04T11:30:35Z</time></trkpt><trkpt lat="43.70508922586628" lon="12.13512566766631"><ele>825.0</ele><time>2026-05-04T11:30:36Z</time></trkpt><trkpt lat="43.705178025452526" lon="12.135058384670316"><ele>825.0</ele><time>2026-05-04T11:30:37Z</time></trkpt><trkpt lat="43.70527801445773" lon="12.135028648848373"><ele>825.0</ele><time>2026-05-04T11:30:38Z</time></trkpt><trkpt lat="43.70538736933879" lon="12.135046244630209"><ele>825.0</ele><time>2026-05-04T11:30:39Z</time></trkpt><trkpt lat="43.70550220833899" lon="12.135093709621522"><ele>825.0</ele><time>2026-05-04T11:30:40Z</time></trkpt><trkpt lat="43.705614621180565" lon="12.135162118988669"><ele>824.8</ele><time>2026-05-04T11:30:41Z</time></trkpt><trkpt lat="43.70571060655691" lon="12.135227241528602"><ele>824.6</ele><time>2026-05-04T11:30:42Z</time></trkpt><trkpt lat="43.705799566662826" lon="12.135288500772022"><ele>824.4000000000001</ele><time>2026-05-04T11:30:43Z</time></trkpt><trkpt lat="43.70587864598406" lon="12.135341123737327"><ele>824.2</ele><time>2026-05-04T11:30:44Z</time></trkpt><trkpt lat="43.70595523271515" lon="12.135384387780393"><ele>824.0</ele><time>2026-05-04T11:30:45Z</time></trkpt><trkpt lat="43.70603303803715" lon="12.135427662065977"><ele>823.8000000000001</ele><time>2026-05-04T11:30:46Z</time></trkpt><trkpt lat="43.706105416451436" lon="12.135467611662795"><ele>823.6</ele><time>2026-05-04T11:30:47Z</time></trkpt><trkpt lat="43.70617235873576" lon="12.135501332740676"><ele>823.4</ele><time>2026-05-04T11:30:48Z</time></trkpt><trkpt lat="43.706277977050185" lon="12.135535533349964"><ele>823.2</ele><time>2026-05-04T11:30:50Z</time></trkpt><trkpt lat="43.70636889644468" lon="12.135521860335498"><ele>823.0</ele><time>2026-05-04T11:30:53Z</time></trkpt><trkpt lat="43.70646724558429" lon="12.135463916586975"><ele>823.0</ele><time>2026-05-04T11:30:57Z</time></trkpt><trkpt lat="43.70653369686494" lon="12.135404861652518"><ele>823.0</ele><time>2026-05-04T11:30:58Z</time></trkpt><trkpt lat="43.706607904706075" lon="12.135315715364149"><ele>823.0</ele><time>2026-05-04T11:30:59Z</time></trkpt><trkpt lat="43.70666859707383" lon="12.135158128468934"><ele>823.0</ele><time>2026-05-04T11:31:00Z</time></trkpt><trkpt lat="43.706721140447726" lon="12.134984257600975"><ele>823.0</ele><time>2026-05-04T11:31:01Z</time></trkpt><trkpt lat="43.70677243350383" lon="12.134810291037954"><ele>821.5</ele><time>2026-05-04T11:31:02Z</time></trkpt><trkpt lat="43.706805326496976" lon="12.134636658059707"><ele>820.0</ele><time>2026-05-04T11:31:03Z</time></trkpt><trkpt lat="43.70686077047069" lon="12.134467231479475"><ele>818.5</ele><time>2026-05-04T11:31:04Z</time></trkpt><trkpt lat="43.70691376561651" lon="12.134304230911344"><ele>817.0</ele><time>2026-05-04T11:31:05Z</time></trkpt><trkpt lat="43.70697241873657" lon="12.134150876693532"><ele>814.75</ele><time>2026-05-04T11:31:06Z</time></trkpt><trkpt lat="43.70706271606126" lon="12.134029073634714"><ele>812.5</ele><time>2026-05-04T11:31:07Z</time></trkpt><trkpt lat="43.70715288473499" lon="12.133895063358224"><ele>810.25</ele><time>2026-05-04T11:31:08Z</time></trkpt><trkpt lat="43.70728925990419" lon="12.133788121203555"><ele>808.0</ele><time>2026-05-04T11:31:09Z</time></trkpt><trkpt lat="43.70744309377992" lon="12.133688046653363"><ele>808.0</ele><time>2026-05-04T11:31:10Z</time></trkpt><trkpt lat="43.70761298581498" lon="12.133594406841972"><ele>808.0</ele><time>2026-05-04T11:31:11Z</time></trkpt><trkpt lat="43.707761221566045" lon="12.133475932063995"><ele>808.0</ele><time>2026-05-04T11:31:12Z</time></trkpt><trkpt lat="43.70790505572242" lon="12.133378321682178"><ele>809.25</ele><time>2026-05-04T11:31:13Z</time></trkpt><trkpt lat="43.708047914599454" lon="12.133282227343917"><ele>810.5</ele><time>2026-05-04T11:31:14Z</time></trkpt><trkpt lat="43.70817824367634" lon="12.133190708199747"><ele>811.75</ele><time>2026-05-04T11:31:15Z</time></trkpt><trkpt lat="43.708295952014716" lon="12.133114847077184"><ele>813.0</ele><time>2026-05-04T11:31:16Z</time></trkpt><trkpt lat="43.70839833364241" lon="12.133044278101275"><ele>810.8</ele><time>2026-05-04T11:31:17Z</time></trkpt><trkpt lat="43.708481563309036" lon="12.132944214836543"><ele>808.5999999999999</ele><time>2026-05-04T11:31:18Z</time></trkpt><trkpt lat="43.708543550228626" lon="12.132817520371212"><ele>806.4000000000001</ele><time>2026-05-04T11:31:19Z</time></trkpt><trkpt lat="43.708571796709286" lon="12.132670596839707"><ele>804.2</ele><time>2026-05-04T11:31:20Z</time></trkpt><trkpt lat="43.70856643537928" lon="12.132516940590861"><ele>802.0</ele><time>2026-05-04T11:31:21Z</time></trkpt><trkpt lat="43.708533113273354" lon="12.13236752944701"><ele>799.5</ele><time>2026-05-04T11:31:22Z</time></trkpt><trkpt lat="43.70847264206273" lon="12.132240578069444"><ele>797.0</ele><time>2026-05-04T11:31:23Z</time></trkpt><trkpt lat="43.708387754980976" lon="12.13214469692873"><ele>794.5</ele><time>2026-05-04T11:31:24Z</time></trkpt><trkpt lat="43.70827733423094" lon="12.13208361875809"><ele>792.0</ele><time>2026-05-04T11:31:25Z</time></trkpt><trkpt lat="43.7081444646719" lon="12.132056237935036"><ele>792.0</ele><time>2026-05-04T11:31:26Z</time></trkpt><trkpt lat="43.70798935832781" lon="12.132021162352563"><ele>792.0</ele><time>2026-05-04T11:31:27Z</time></trkpt><trkpt lat="43.70781913643775" lon="12.132000402191368"><ele>792.0</ele><time>2026-05-04T11:31:28Z</time></trkpt><trkpt lat="43.70764869270975" lon="12.131966940925489"><ele>790.6666666666667</ele><time>2026-05-04T11:31:29Z</time></trkpt><trkpt lat="43.70749271656795" lon="12.131935790060435"><ele>789.3333333333334</ele><time>2026-05-04T11:31:30Z</time></trkpt><trkpt lat="43.70734109869481" lon="12.131900910403711"><ele>788.0</ele><time>2026-05-04T11:31:31Z</time></trkpt><trkpt lat="43.707198391361494" lon="12.13185029136574"><ele>788.0</ele><time>2026-05-04T11:31:32Z</time></trkpt><trkpt lat="43.70706620150074" lon="12.131788738858143"><ele>788.0</ele><time>2026-05-04T11:31:33Z</time></trkpt><trkpt lat="43.7069348529282" lon="12.131689961567714"><ele>788.0</ele><time>2026-05-04T11:31:34Z</time></trkpt><trkpt lat="43.706798600644774" lon="12.13154742976372"><ele>784.3333333333334</ele><time>2026-05-04T11:31:35Z</time></trkpt><trkpt lat="43.70664679449721" lon="12.1313775823314"><ele>780.6666666666667</ele><time>2026-05-04T11:31:36Z</time></trkpt><trkpt lat="43.706506982098006" lon="12.131208278358852"><ele>777.0</ele><time>2026-05-04T11:31:37Z</time></trkpt><trkpt lat="43.70637135640002" lon="12.131061007948714"><ele>777.0</ele><time>2026-05-04T11:31:38Z</time></trkpt><trkpt lat="43.70623401997267" lon="12.13091269978173"><ele>777.0</ele><time>2026-05-04T11:31:39Z</time></trkpt><trkpt lat="43.706118384075104" lon="12.13077729698434"><ele>777.0</ele><time>2026-05-04T11:31:40Z</time></trkpt><trkpt lat="43.70600246277595" lon="12.130654090798815"><ele>774.75</ele><time>2026-05-04T11:31:41Z</time></trkpt><trkpt lat="43.705891859085206" lon="12.130569318398441"><ele>772.5</ele><time>2026-05-04T11:31:42Z</time></trkpt><trkpt lat="43.70576767619702" lon="12.13051920522255"><ele>770.25</ele><time>2026-05-04T11:31:43Z</time></trkpt><trkpt lat="43.705615151586635" lon="12.130494525192626"><ele>768.0</ele><time>2026-05-04T11:31:44Z</time></trkpt><trkpt lat="43.70544592923176" lon="12.13050546002631"><ele>768.0</ele><time>2026-05-04T11:31:45Z</time></trkpt><trkpt lat="43.705297946491456" lon="12.130526173465164"><ele>768.0</ele><time>2026-05-04T11:31:46Z</time></trkpt><trkpt lat="43.705171056851114" lon="12.130536406603468"><ele>768.0</ele><time>2026-05-04T11:31:47Z</time></trkpt><trkpt lat="43.70505904165688" lon="12.130532622999386"><ele>768.0</ele><time>2026-05-04T11:31:48Z</time></trkpt><trkpt lat="43.70496943506684" lon="12.130515437643862"><ele>768.5</ele><time>2026-05-04T11:31:49Z</time></trkpt><trkpt lat="43.70490173792825" lon="12.130491543711303"><ele>769.0</ele><time>2026-05-04T11:31:50Z</time></trkpt><trkpt lat="43.704848168133836" lon="12.130431498291058"><ele>769.5</ele><time>2026-05-04T11:31:52Z</time></trkpt><trkpt lat="43.70478286438434" lon="12.130384879700214"><ele>770.0</ele><time>2026-05-04T11:31:56Z</time></trkpt><trkpt lat="43.704704990260616" lon="12.130286330532636"><ele>770.5</ele><time>2026-05-04T11:31:58Z</time></trkpt><trkpt lat="43.70465174575109" lon="12.130234995526767"><ele>771.0</ele><time>2026-05-04T11:31:59Z</time></trkpt><trkpt lat="43.704625127364075" lon="12.130142815565952"><ele>774.0</ele><time>2026-05-04T11:32:01Z</time></trkpt><trkpt lat="43.7043588954568" lon="12.13046886065086"><ele>777.0</ele><time>2026-05-04T11:32:02Z</time></trkpt><trkpt lat="43.70428429790857" lon="12.130534326712747"><ele>780.0</ele><time>2026-05-04T11:32:03Z</time></trkpt><trkpt lat="43.704200641007034" lon="12.130635573940902"><ele>779.2</ele><time>2026-05-04T11:32:04Z</time></trkpt><trkpt lat="43.70412610996163" lon="12.130724964768165"><ele>778.4</ele><time>2026-05-04T11:32:05Z</time></trkpt><trkpt lat="43.7040588303471" lon="12.130801170198938"><ele>777.5999999999999</ele><time>2026-05-04T11:32:06Z</time></trkpt><trkpt lat="43.703980067156834" lon="12.130881590050116"><ele>776.8</ele><time>2026-05-04T11:32:07Z</time></trkpt><trkpt lat="43.70389268254761" lon="12.130941577129132"><ele>776.0</ele><time>2026-05-04T11:32:08Z</time></trkpt><trkpt lat="43.70381802122019" lon="12.1310170334774"><ele>776.0000000000001</ele><time>2026-05-04T11:32:09Z</time></trkpt><trkpt lat="43.70375878422876" lon="12.131093863013211"><ele>776.0</ele><time>2026-05-04T11:32:10Z</time></trkpt><trkpt lat="43.703704498881734" lon="12.13116582920078"><ele>776.0</ele><time>2026-05-04T11:32:11Z</time></trkpt><trkpt lat="43.703637875483686" lon="12.131253496711981"><ele>776.0</ele><time>2026-05-04T11:32:13Z</time></trkpt><trkpt lat="43.70356823978276" lon="12.131209795235167"><ele>776.0000000000001</ele><time>2026-05-04T11:32:16Z</time></trkpt><trkpt lat="43.703528572126274" lon="12.131116239296194"><ele>776.0</ele><time>2026-05-04T11:32:19Z</time></trkpt><trkpt lat="43.703441249488456" lon="12.131160251963685"><ele>776.5000000000001</ele><time>2026-05-04T11:32:22Z</time></trkpt><trkpt lat="43.703365453455916" lon="12.131219819741657"><ele>777.0</ele><time>2026-05-04T11:32:24Z</time></trkpt><trkpt lat="43.70327677672895" lon="12.131304562665534"><ele>777.5</ele><time>2026-05-04T11:32:26Z</time></trkpt><trkpt lat="43.70322728848114" lon="12.131410994820612"><ele>778.0</ele><time>2026-05-04T11:32:28Z</time></trkpt><trkpt lat="43.70319169062654" lon="12.131483034518686"><ele>778.5000000000001</ele><time>2026-05-04T11:32:30Z</time></trkpt><trkpt lat="43.7032509746145" lon="12.131405884797733"><ele>779.0</ele><time>2026-05-04T11:32:51Z</time></trkpt><trkpt lat="43.703287674924795" lon="12.131325215207552"><ele>779.0000000000001</ele><time>2026-05-04T11:32:53Z</time></trkpt><trkpt lat="43.703372382945446" lon="12.131222565035376"><ele>779.0</ele><time>2026-05-04T11:32:55Z</time></trkpt><trkpt lat="43.70343487164989" lon="12.131174459155782"><ele>779.0</ele><time>2026-05-04T11:32:57Z</time></trkpt><trkpt lat="43.7035057693594" lon="12.131149147238673"><ele>779.0</ele><time>2026-05-04T11:32:59Z</time></trkpt><trkpt lat="43.70358009338015" lon="12.13120923816283"><ele>779.0000000000001</ele><time>2026-05-04T11:33:02Z</time></trkpt><trkpt lat="43.703638280204764" lon="12.131274857196509"><ele>779.0</ele><time>2026-05-04T11:33:05Z</time></trkpt><trkpt lat="43.70370072837992" lon="12.131195450165144"><ele>779.0000000000001</ele><time>2026-05-04T11:33:08Z</time></trkpt><trkpt lat="43.703727025224815" lon="12.13109625482251"><ele>779.0</ele><time>2026-05-04T11:33:11Z</time></trkpt><trkpt lat="43.70368010658014" lon="12.131000840714362"><ele>779.0</ele><time>2026-05-04T11:33:14Z</time></trkpt><trkpt lat="43.703643729388794" lon="12.130880568987836"><ele>779.0</ele><time>2026-05-04T11:33:17Z</time></trkpt><trkpt lat="43.703598018407" lon="12.130782182658978"><ele>779.0000000000001</ele><time>2026-05-04T11:33:20Z</time></trkpt><trkpt lat="43.703539314305786" lon="12.130746569022252"><ele>779.0</ele><time>2026-05-04T11:33:22Z</time></trkpt><trkpt lat="43.70347472676809" lon="12.130756341676507"><ele>779.0000000000001</ele><time>2026-05-04T11:33:24Z</time></trkpt><trkpt lat="43.703409793953256" lon="12.130808572733965"><ele>779.0</ele><time>2026-05-04T11:33:26Z</time></trkpt><trkpt lat="43.70335003545836" lon="12.130837186548566"><ele>779.0</ele><time>2026-05-04T11:33:30Z</time></trkpt><trkpt lat="43.70328165398632" lon="12.130812021484674"><ele>779.0</ele><time>2026-05-04T11:33:32Z</time></trkpt><trkpt lat="43.703193778017464" lon="12.130728869333629"><ele>779.0000000000001</ele><time>2026-05-04T11:33:34Z</time></trkpt><trkpt lat="43.703109824118386" lon="12.130631701633003"><ele>779.0</ele><time>2026-05-04T11:33:36Z</time></trkpt><trkpt lat="43.70303781136257" lon="12.130612124863028"><ele>779.0000000000001</ele><time>2026-05-04T11:33:39Z</time></trkpt><trkpt lat="43.70298575105944" lon="12.130667256389547"><ele>779.0</ele><time>2026-05-04T11:33:41Z</time></trkpt><trkpt lat="43.70290816225623" lon="12.13071344732267"><ele>779.0</ele><time>2026-05-04T11:33:43Z</time></trkpt><trkpt lat="43.70280850154848" lon="12.130770769248976"><ele>779.0</ele><time>2026-05-04T11:33:45Z</time></trkpt><trkpt lat="43.702736978386085" lon="12.130799578968269"><ele>779.0000000000001</ele><time>2026-05-04T11:33:47Z</time></trkpt><trkpt lat="43.70264671703031" lon="12.130740543030106"><ele>779.0</ele><time>2026-05-04T11:33:49Z</time></trkpt><trkpt lat="43.70259184379038" lon="12.13064405620091"><ele>782.0</ele><time>2026-05-04T11:33:51Z</time></trkpt><trkpt lat="43.7025340742012" lon="12.130538481445733"><ele>785.0</ele><time>2026-05-04T11:33:53Z</time></trkpt><trkpt lat="43.702505620006896" lon="12.130422605860218"><ele>788.0</ele><time>2026-05-04T11:33:55Z</time></trkpt><trkpt lat="43.70247710234695" lon="12.130312245578716"><ele>791.0</ele><time>2026-05-04T11:33:57Z</time></trkpt><trkpt lat="43.70238084189467" lon="12.130215959375233"><ele>794.0</ele><time>2026-05-04T11:33:59Z</time></trkpt><trkpt lat="43.70230321998838" lon="12.130113333512837"><ele>794.0</ele><time>2026-05-04T11:34:01Z</time></trkpt><trkpt lat="43.702237418495415" lon="12.130012884145703"><ele>794.0</ele><time>2026-05-04T11:34:03Z</time></trkpt><trkpt lat="43.70219612679105" lon="12.12994126511981"><ele>794.0</ele><time>2026-05-04T11:34:04Z</time></trkpt><trkpt lat="43.70214658037595" lon="12.129805585955673"><ele>794.0</ele><time>2026-05-04T11:34:06Z</time></trkpt><trkpt lat="43.7021455886082" lon="12.129640130030012"><ele>794.0</ele><time>2026-05-04T11:34:08Z</time></trkpt><trkpt lat="43.70208869687109" lon="12.129526296597152"><ele>797.0</ele><time>2026-05-04T11:34:10Z</time></trkpt><trkpt lat="43.70201389655687" lon="12.12944322779782"><ele>800.0</ele><time>2026-05-04T11:34:12Z</time></trkpt><trkpt lat="43.70192909788525" lon="12.129380870853968"><ele>803.0</ele><time>2026-05-04T11:34:14Z</time></trkpt><trkpt lat="43.70186180753232" lon="12.129374064781008"><ele>806.0</ele><time>2026-05-04T11:34:15Z</time></trkpt><trkpt lat="43.701738978027144" lon="12.129340923575564"><ele>809.0</ele><time>2026-05-04T11:34:17Z</time></trkpt><trkpt lat="43.70162311545936" lon="12.129294531043584"><ele>809.0000000000001</ele><time>2026-05-04T11:34:19Z</time></trkpt><trkpt lat="43.70152992423797" lon="12.129265639352479"><ele>809.0</ele><time>2026-05-04T11:34:21Z</time></trkpt><trkpt lat="43.70144383735469" lon="12.129201523286643"><ele>809.0</ele><time>2026-05-04T11:34:23Z</time></trkpt><trkpt lat="43.70141203657348" lon="12.129124013694328"><ele>809.0</ele><time>2026-05-04T11:34:24Z</time></trkpt><trkpt lat="43.701379290549845" lon="12.128982451076745"><ele>809.0000000000001</ele><time>2026-05-04T11:34:26Z</time></trkpt><trkpt lat="43.701357008241935" lon="12.128895983552766"><ele>809.0</ele><time>2026-05-04T11:34:27Z</time></trkpt><trkpt lat="43.70133344996541" lon="12.128810098083752"><ele>813.2</ele><time>2026-05-04T11:34:28Z</time></trkpt><trkpt lat="43.70132320680196" lon="12.128670795152233"><ele>817.4000000000001</ele><time>2026-05-04T11:34:30Z</time></trkpt><trkpt lat="43.701325305493015" lon="12.128524221908588"><ele>821.6</ele><time>2026-05-04T11:34:32Z</time></trkpt><trkpt lat="43.701289156975925" lon="12.128393536865232"><ele>825.8</ele><time>2026-05-04T11:34:34Z</time></trkpt><trkpt lat="43.701237285824234" lon="12.128344139565726"><ele>830.0</ele><time>2026-05-04T11:34:36Z</time></trkpt><trkpt lat="43.70116469341221" lon="12.128297312714034"><ele>831.2</ele><time>2026-05-04T11:34:38Z</time></trkpt><trkpt lat="43.70110887306369" lon="12.128182847918035"><ele>832.4</ele><time>2026-05-04T11:34:40Z</time></trkpt><trkpt lat="43.701098315597584" lon="12.128054775587213"><ele>833.5999999999999</ele><time>2026-05-04T11:34:42Z</time></trkpt><trkpt lat="43.70108772412697" lon="12.127935912050441"><ele>834.8</ele><time>2026-05-04T11:34:44Z</time></trkpt><trkpt lat="43.701090507344716" lon="12.127776423892664"><ele>836.0</ele><time>2026-05-04T11:34:46Z</time></trkpt><trkpt lat="43.70103734885346" lon="12.127703981528217"><ele>836.0000000000001</ele><time>2026-05-04T11:34:48Z</time></trkpt><trkpt lat="43.7009955758654" lon="12.127634509301055"><ele>836.0</ele><time>2026-05-04T11:34:49Z</time></trkpt><trkpt lat="43.70095357037495" lon="12.127548802935284"><ele>836.0</ele><time>2026-05-04T11:34:51Z</time></trkpt><trkpt lat="43.700875827164445" lon="12.127474955384445"><ele>836.0</ele><time>2026-05-04T11:34:54Z</time></trkpt><trkpt lat="43.700800448047715" lon="12.127492317148564"><ele>836.0000000000001</ele><time>2026-05-04T11:34:59Z</time></trkpt><trkpt lat="43.70073173038425" lon="12.127547130476225"><ele>836.0</ele><time>2026-05-04T11:35:53Z</time></trkpt><trkpt lat="43.70068555295465" lon="12.127671743052282"><ele>836.0</ele><time>2026-05-04T11:35:55Z</time></trkpt><trkpt lat="43.700612756225404" lon="12.127726089917651"><ele>836.0</ele><time>2026-05-04T11:35:57Z</time></trkpt><trkpt lat="43.70049841057154" lon="12.127732311468353"><ele>836.0</ele><time>2026-05-04T11:35:59Z</time></trkpt><trkpt lat="43.700404055574104" lon="12.127678534530855"><ele>836.0</ele><time>2026-05-04T11:36:01Z</time></trkpt><trkpt lat="43.70036090588961" lon="12.12760207475164"><ele>836.0</ele><time>2026-05-04T11:36:03Z</time></trkpt><trkpt lat="43.70035448703409" lon="12.127476825972215"><ele>839.4</ele><time>2026-05-04T11:36:05Z</time></trkpt><trkpt lat="43.70034447710839" lon="12.12733491152773"><ele>842.8</ele><time>2026-05-04T11:36:07Z</time></trkpt><trkpt lat="43.70033849749216" lon="12.127244705863411"><ele>846.1999999999999</ele><time>2026-05-04T11:36:09Z</time></trkpt><trkpt lat="43.70032745890162" lon="12.12715718276638"><ele>849.5999999999999</ele><time>2026-05-04T11:36:14Z</time></trkpt><trkpt lat="43.70026428241304" lon="12.127031550935282"><ele>853.0</ele><time>2026-05-04T11:36:16Z</time></trkpt><trkpt lat="43.70016842040874" lon="12.12694260436306"><ele>853.0</ele><time>2026-05-04T11:36:18Z</time></trkpt><trkpt lat="43.70010886321012" lon="12.126907297040908"><ele>853.0</ele><time>2026-05-04T11:36:19Z</time></trkpt><trkpt lat="43.70004162008663" lon="12.126869220516172"><ele>853.0</ele><time>2026-05-04T11:36:20Z</time></trkpt><trkpt lat="43.6999254197557" lon="12.126794298375971"><ele>853.0</ele><time>2026-05-04T11:36:22Z</time></trkpt><trkpt lat="43.699837934308846" lon="12.126737356925476"><ele>853.0</ele><time>2026-05-04T11:36:24Z</time></trkpt><trkpt lat="43.69978862545578" lon="12.12660921662552"><ele>854.8333333333333</ele><time>2026-05-04T11:36:26Z</time></trkpt><trkpt lat="43.69977889338213" lon="12.126517469520737"><ele>856.6666666666666</ele><time>2026-05-04T11:36:27Z</time></trkpt><trkpt lat="43.69975107067209" lon="12.12634753845932"><ele>858.5</ele><time>2026-05-04T11:36:29Z</time></trkpt><trkpt lat="43.699730246320854" lon="12.126248929902257"><ele>860.3333333333333</ele><time>2026-05-04T11:36:30Z</time></trkpt><trkpt lat="43.69973016500251" lon="12.126150450462903"><ele>862.1666666666666</ele><time>2026-05-04T11:36:31Z</time></trkpt><trkpt lat="43.69972372950735" lon="12.126056464537013"><ele>864.0</ele><time>2026-05-04T11:36:32Z</time></trkpt><trkpt lat="43.699751204039366" lon="12.125906380069276"><ele>864.0</ele><time>2026-05-04T11:36:34Z</time></trkpt><trkpt lat="43.699790017653406" lon="12.125772582056227"><ele>864.0000000000001</ele><time>2026-05-04T11:36:36Z</time></trkpt><trkpt lat="43.699806406337665" lon="12.125683092450982"><ele>864.0000000000001</ele><time>2026-05-04T11:36:37Z</time></trkpt><trkpt lat="43.69986341540729" lon="12.125551062929047"><ele>864.0</ele><time>2026-05-04T11:36:39Z</time></trkpt><trkpt lat="43.69996365704318" lon="12.12548772999762"><ele>864.0</ele><time>2026-05-04T11:36:41Z</time></trkpt><trkpt lat="43.69994010515848" lon="12.125403272411207"><ele>863.4000000000001</ele><time>2026-05-04T11:36:46Z</time></trkpt><trkpt lat="43.699874233986506" lon="12.125323103443465"><ele>862.8000000000001</ele><time>2026-05-04T11:37:08Z</time></trkpt><trkpt lat="43.69982682596803" lon="12.125247180522196"><ele>862.1999999999999</ele><time>2026-05-04T11:37:10Z</time></trkpt><trkpt lat="43.69976736870025" lon="12.125160054408822"><ele>861.5999999999999</ele><time>2026-05-04T11:37:12Z</time></trkpt><trkpt lat="43.69969897144397" lon="12.125057796854753"><ele>861.0</ele><time>2026-05-04T11:37:14Z</time></trkpt><trkpt lat="43.699623166103734" lon="12.124961255445418"><ele>860.1999999999999</ele><time>2026-05-04T11:37:16Z</time></trkpt><trkpt lat="43.69954874270959" lon="12.12484561152531"><ele>859.3999999999999</ele><time>2026-05-04T11:37:18Z</time></trkpt><trkpt lat="43.699477449994504" lon="12.124730811852933"><ele>858.6</ele><time>2026-05-04T11:37:20Z</time></trkpt><trkpt lat="43.69939627613278" lon="12.124624594537428"><ele>857.8</ele><time>2026-05-04T11:37:22Z</time></trkpt><trkpt lat="43.699312423518506" lon="12.124545545132184"><ele>857.0</ele><time>2026-05-04T11:37:24Z</time></trkpt><trkpt lat="43.69919904147072" lon="12.124498844414992"><ele>859.4000000000001</ele><time>2026-05-04T11:37:26Z</time></trkpt><trkpt lat="43.69909023497027" lon="12.124433953723855"><ele>861.8000000000001</ele><time>2026-05-04T11:37:28Z</time></trkpt><trkpt lat="43.69901684798502" lon="12.124318289848631"><ele>864.2</ele><time>2026-05-04T11:37:30Z</time></trkpt><trkpt lat="43.69893732461899" lon="12.124166717743435"><ele>866.6</ele><time>2026-05-04T11:37:32Z</time></trkpt><trkpt lat="43.69888663026996" lon="12.124096792054562"><ele>869.0</ele><time>2026-05-04T11:37:33Z</time></trkpt><trkpt lat="43.69881444356066" lon="12.123993184916104"><ele>869.0000000000001</ele><time>2026-05-04T11:37:35Z</time></trkpt><trkpt lat="43.69874666099116" lon="12.12392245733381"><ele>869.0</ele><time>2026-05-04T11:37:37Z</time></trkpt><trkpt lat="43.69868388646872" lon="12.123848790877874"><ele>869.0</ele><time>2026-05-04T11:37:39Z</time></trkpt><trkpt lat="43.6986268919915" lon="12.123775387622691"><ele>869.0</ele><time>2026-05-04T11:37:42Z</time></trkpt><trkpt lat="43.69857214618684" lon="12.123709478899032"><ele>869.0000000000001</ele><time>2026-05-04T11:38:02Z</time></trkpt><trkpt lat="43.69865447296433" lon="12.123796261595015"><ele>869.0</ele><time>2026-05-04T11:38:16Z</time></trkpt><trkpt lat="43.69874368613352" lon="12.123885003033058"><ele>869.0000000000001</ele><time>2026-05-04T11:38:18Z</time></trkpt><trkpt lat="43.69883520329477" lon="12.123970666697037"><ele>869.0</ele><time>2026-05-04T11:38:20Z</time></trkpt><trkpt lat="43.69889540300891" lon="12.12403489987449"><ele>869.0</ele><time>2026-05-04T11:38:22Z</time></trkpt><trkpt lat="43.69893258740833" lon="12.124114489357057"><ele>869.0</ele><time>2026-05-04T11:38:24Z</time></trkpt><trkpt lat="43.69898343643282" lon="12.124193854145465"><ele>869.0000000000001</ele><time>2026-05-04T11:38:26Z</time></trkpt><trkpt lat="43.699037990286065" lon="12.124262912640226"><ele>869.0</ele><time>2026-05-04T11:38:28Z</time></trkpt><trkpt lat="43.699081669549095" lon="12.124327473654994"><ele>869.0000000000001</ele><time>2026-05-04T11:38:30Z</time></trkpt><trkpt lat="43.69900868320898" lon="12.124244267900664"><ele>869.0</ele><time>2026-05-04T11:39:31Z</time></trkpt><trkpt lat="43.69896437548419" lon="12.124169368650824"><ele>869.0</ele><time>2026-05-04T11:39:32Z</time></trkpt><trkpt lat="43.69891245342894" lon="12.124081985804946"><ele>869.0</ele><time>2026-05-04T11:39:33Z</time></trkpt><trkpt lat="43.69885800118902" lon="12.124000034810813"><ele>869.0000000000001</ele><time>2026-05-04T11:39:34Z</time></trkpt><trkpt lat="43.698797084538015" lon="12.123938352002043"><ele>869.0</ele><time>2026-05-04T11:39:35Z</time></trkpt><trkpt lat="43.69873588797661" lon="12.123874860464735"><ele>869.0</ele><time>2026-05-04T11:39:36Z</time></trkpt><trkpt lat="43.69866022944322" lon="12.123800125640754"><ele>869.0000000000001</ele><time>2026-05-04T11:39:37Z</time></trkpt><trkpt lat="43.698578495707864" lon="12.123711498431755"><ele>869.0000000000001</ele><time>2026-05-04T11:39:38Z</time></trkpt><trkpt lat="43.698515807924345" lon="12.123638313748856"><ele>869.0</ele><time>2026-05-04T11:39:39Z</time></trkpt><trkpt lat="43.69842334716275" lon="12.123552544171563"><ele>869.0</ele><time>2026-05-04T11:39:41Z</time></trkpt><trkpt lat="43.69828999960824" lon="12.123511044414679"><ele>871.5000000000001</ele><time>2026-05-04T11:39:43Z</time></trkpt><trkpt lat="43.698202825414306" lon="12.12347458383294"><ele>874.0</ele><time>2026-05-04T11:39:44Z</time></trkpt><trkpt lat="43.69811096016479" lon="12.123450197634597"><ele>876.5</ele><time>2026-05-04T11:39:45Z</time></trkpt><trkpt lat="43.69803317514719" lon="12.12343271836791"><ele>879.0</ele><time>2026-05-04T11:39:46Z</time></trkpt><trkpt lat="43.69796554945169" lon="12.123433641357751"><ele>881.5000000000001</ele><time>2026-05-04T11:39:47Z</time></trkpt><trkpt lat="43.69788777879951" lon="12.123447170417506"><ele>884.0</ele><time>2026-05-04T11:39:49Z</time></trkpt><trkpt lat="43.69782994623679" lon="12.123382842544148"><ele>885.2</ele><time>2026-05-04T11:39:51Z</time></trkpt><trkpt lat="43.69775993635561" lon="12.123205548253013"><ele>886.4000000000001</ele><time>2026-05-04T11:39:53Z</time></trkpt><trkpt lat="43.69770524106345" lon="12.12309508884508"><ele>887.6</ele><time>2026-05-04T11:39:54Z</time></trkpt><trkpt lat="43.69760709659595" lon="12.123023988443546"><ele>888.8</ele><time>2026-05-04T11:39:56Z</time></trkpt><trkpt lat="43.69753832241624" lon="12.123008062237393"><ele>890.0</ele><time>2026-05-04T11:39:57Z</time></trkpt><trkpt lat="43.697438947768674" lon="12.122987034469368"><ele>890.0</ele><time>2026-05-04T11:39:59Z</time></trkpt><trkpt lat="43.697330401202315" lon="12.122967988720264"><ele>890.0</ele><time>2026-05-04T11:40:01Z</time></trkpt><trkpt lat="43.697233514883116" lon="12.122961550958658"><ele>890.0</ele><time>2026-05-04T11:40:03Z</time></trkpt><trkpt lat="43.69714675729875" lon="12.122953551758002"><ele>890.0</ele><time>2026-05-04T11:40:05Z</time></trkpt><trkpt lat="43.69706445140527" lon="12.122971891664221"><ele>890.0</ele><time>2026-05-04T11:40:07Z</time></trkpt><trkpt lat="43.69699150279281" lon="12.12296583427335"><ele>890.0</ele><time>2026-05-04T11:40:10Z</time></trkpt><trkpt lat="43.69692023834951" lon="12.122958087986714"><ele>890.0</ele><time>2026-05-04T11:40:19Z</time></trkpt><trkpt lat="43.69683638825656" lon="12.122940740219185"><ele>890.0</ele><time>2026-05-04T11:40:21Z</time></trkpt><trkpt lat="43.69673582701309" lon="12.122937684956641"><ele>890.0</ele><time>2026-05-04T11:40:23Z</time></trkpt><trkpt lat="43.69662151473518" lon="12.122920513497462"><ele>890.0</ele><time>2026-05-04T11:40:25Z</time></trkpt><trkpt lat="43.69650009967355" lon="12.122918051360235"><ele>890.8333333333334</ele><time>2026-05-04T11:40:27Z</time></trkpt><trkpt lat="43.696431434321944" lon="12.122914973677572"><ele>891.6666666666667</ele><time>2026-05-04T11:40:28Z</time></trkpt><trkpt lat="43.696365280451495" lon="12.122914339304595"><ele>892.5</ele><time>2026-05-04T11:40:29Z</time></trkpt><trkpt lat="43.696244068971446" lon="12.122908950543579"><ele>893.3333333333333</ele><time>2026-05-04T11:40:31Z</time></trkpt><trkpt lat="43.69617858443285" lon="12.122898671355157"><ele>894.1666666666666</ele><time>2026-05-04T11:40:32Z</time></trkpt><trkpt lat="43.696052581998735" lon="12.122875300405623"><ele>895.0</ele><time>2026-05-04T11:40:34Z</time></trkpt><trkpt lat="43.69593741506662" lon="12.12285440404276"><ele>896.6</ele><time>2026-05-04T11:40:36Z</time></trkpt><trkpt lat="43.69582380063481" lon="12.12283307311303"><ele>898.2</ele><time>2026-05-04T11:40:38Z</time></trkpt><trkpt lat="43.69574288019696" lon="12.122777981357473"><ele>899.8</ele><time>2026-05-04T11:40:40Z</time></trkpt><trkpt lat="43.69563989248216" lon="12.122732773998063"><ele>901.4</ele><time>2026-05-04T11:40:42Z</time></trkpt><trkpt lat="43.69553737490816" lon="12.122679221332682"><ele>903.0</ele><time>2026-05-04T11:40:44Z</time></trkpt><trkpt lat="43.695480081329606" lon="12.122633297527507"><ele>903.0</ele><time>2026-05-04T11:40:45Z</time></trkpt><trkpt lat="43.695377328170856" lon="12.122541098149325"><ele>903.0</ele><time>2026-05-04T11:40:47Z</time></trkpt><trkpt lat="43.69528926455324" lon="12.122452028045872"><ele>903.0</ele><time>2026-05-04T11:40:49Z</time></trkpt><trkpt lat="43.695201030708965" lon="12.122388866216992"><ele>903.0</ele><time>2026-05-04T11:40:51Z</time></trkpt><trkpt lat="43.69511517793248" lon="12.122339513253284"><ele>903.0</ele><time>2026-05-04T11:40:53Z</time></trkpt><trkpt lat="43.69504566704952" lon="12.12226565355571"><ele>903.7142857142858</ele><time>2026-05-04T11:40:55Z</time></trkpt><trkpt lat="43.69498752033842" lon="12.122197478176565"><ele>904.4285714285714</ele><time>2026-05-04T11:40:58Z</time></trkpt><trkpt lat="43.694946196583786" lon="12.122118134083818"><ele>905.1428571428571</ele><time>2026-05-04T11:41:12Z</time></trkpt><trkpt lat="43.69493362942923" lon="12.12203070093708"><ele>905.8571428571429</ele><time>2026-05-04T11:41:16Z</time></trkpt><trkpt lat="43.69495571381739" lon="12.121947230244123"><ele>906.5714285714287</ele><time>2026-05-04T11:41:26Z</time></trkpt><trkpt lat="43.69495170681681" lon="12.122042292780671"><ele>907.2857142857143</ele><time>2026-05-04T11:41:40Z</time></trkpt><trkpt lat="43.69488514923826" lon="12.122098826978787"><ele>908.0</ele><time>2026-05-04T11:46:41Z</time></trkpt><trkpt lat="43.69481865523921" lon="12.122070713420326"><ele>908.0000000000001</ele><time>2026-05-04T11:47:29Z</time></trkpt><trkpt lat="43.69475262153941" lon="12.122003593965795"><ele>908.0</ele><time>2026-05-04T11:47:31Z</time></trkpt><trkpt lat="43.694683745404305" lon="12.121942938389846"><ele>908.0</ele><time>2026-05-04T11:47:33Z</time></trkpt><trkpt lat="43.69460511734732" lon="12.12191656502733"><ele>908.0</ele><time>2026-05-04T11:47:35Z</time></trkpt><trkpt lat="43.694512913782084" lon="12.121843574305966"><ele>908.0000000000001</ele><time>2026-05-04T11:47:38Z</time></trkpt><trkpt lat="43.69444525575588" lon="12.121774386425704"><ele>908.0</ele><time>2026-05-04T11:47:40Z</time></trkpt><trkpt lat="43.69437117379473" lon="12.121696414681336"><ele>910.4285714285714</ele><time>2026-05-04T11:47:42Z</time></trkpt><trkpt lat="43.69431865855982" lon="12.121646454761557"><ele>912.8571428571429</ele><time>2026-05-04T11:47:45Z</time></trkpt><trkpt lat="43.69425720930303" lon="12.121592613959734"><ele>915.2857142857143</ele><time>2026-05-04T11:48:25Z</time></trkpt><trkpt lat="43.69417599070667" lon="12.121537309252995"><ele>917.7142857142858</ele><time>2026-05-04T11:49:13Z</time></trkpt><trkpt lat="43.694121030439256" lon="12.121493879771114"><ele>920.1428571428571</ele><time>2026-05-04T11:49:23Z</time></trkpt><trkpt lat="43.694060101743105" lon="12.121439723940819"><ele>922.5714285714287</ele><time>2026-05-04T11:49:32Z</time></trkpt><trkpt lat="43.693992163193414" lon="12.121404357121621"><ele>925.0</ele><time>2026-05-04T11:49:36Z</time></trkpt><trkpt lat="43.693916033319304" lon="12.121371163697768"><ele>925.0</ele><time>2026-05-04T11:49:39Z</time></trkpt><trkpt lat="43.69384193745248" lon="12.121352496868127"><ele>925.0</ele><time>2026-05-04T11:49:41Z</time></trkpt><trkpt lat="43.69377480916697" lon="12.121381927905237"><ele>925.0</ele><time>2026-05-04T11:49:43Z</time></trkpt><trkpt lat="43.693747417947826" lon="12.121469967125263"><ele>925.0</ele><time>2026-05-04T11:49:45Z</time></trkpt><trkpt lat="43.69379123149359" lon="12.121565597142549"><ele>925.0</ele><time>2026-05-04T11:49:47Z</time></trkpt><trkpt lat="43.693846707695826" lon="12.12162428951523"><ele>925.0</ele><time>2026-05-04T11:49:49Z</time></trkpt><trkpt lat="43.69384618374871" lon="12.121718079282012"><ele>925.0</ele><time>2026-05-04T11:49:51Z</time></trkpt><trkpt lat="43.693820450837194" lon="12.121837203524047"><ele>924.9999999999999</ele><time>2026-05-04T11:49:53Z</time></trkpt><trkpt lat="43.69376628597038" lon="12.121909629344927"><ele>925.0</ele><time>2026-05-04T11:49:55Z</time></trkpt><trkpt lat="43.69369784471207" lon="12.12194616723378"><ele>925.0</ele><time>2026-05-04T11:49:58Z</time></trkpt><trkpt lat="43.69361138270908" lon="12.121979734810576"><ele>925.0</ele><time>2026-05-04T11:50:01Z</time></trkpt><trkpt lat="43.69353584287051" lon="12.121955052401416"><ele>924.9999999999999</ele><time>2026-05-04T11:50:03Z</time></trkpt><trkpt lat="43.69343381751833" lon="12.121938070258032"><ele>925.0</ele><time>2026-05-04T11:50:06Z</time></trkpt><trkpt lat="43.69335466441319" lon="12.121987984298016"><ele>927.9999999999999</ele><time>2026-05-04T11:50:08Z</time></trkpt><trkpt lat="43.69331451807765" lon="12.12208278044105"><ele>931.0</ele><time>2026-05-04T11:50:10Z</time></trkpt><trkpt lat="43.69326005286278" lon="12.122180229130985"><ele>934.0</ele><time>2026-05-04T11:50:12Z</time></trkpt><trkpt lat="43.693209169228155" lon="12.122266716629474"><ele>937.0</ele><time>2026-05-04T11:50:14Z</time></trkpt><trkpt lat="43.69313754036879" lon="12.122329079110177"><ele>939.9999999999999</ele><time>2026-05-04T11:50:16Z</time></trkpt><trkpt lat="43.69303687229515" lon="12.1223713164626"><ele>943.0</ele><time>2026-05-04T11:50:18Z</time></trkpt><trkpt lat="43.6929305798547" lon="12.12239933625073"><ele>944.5999999999999</ele><time>2026-05-04T11:50:20Z</time></trkpt><trkpt lat="43.692821174326525" lon="12.122410943981828"><ele>946.1999999999999</ele><time>2026-05-04T11:50:22Z</time></trkpt><trkpt lat="43.69272573155263" lon="12.122416774783972"><ele>947.8</ele><time>2026-05-04T11:50:24Z</time></trkpt><trkpt lat="43.69262664163999" lon="12.122422702678604"><ele>949.4</ele><time>2026-05-04T11:50:26Z</time></trkpt><trkpt lat="43.69253445550473" lon="12.122464072240202"><ele>951.0</ele><time>2026-05-04T11:50:28Z</time></trkpt><trkpt lat="43.69245173621192" lon="12.122495166856536"><ele>952.5</ele><time>2026-05-04T11:50:31Z</time></trkpt><trkpt lat="43.69239024078218" lon="12.122465371824212"><ele>954.0</ele><time>2026-05-04T11:50:34Z</time></trkpt><trkpt lat="43.692336739370795" lon="12.1223800656301"><ele>955.5</ele><time>2026-05-04T11:50:37Z</time></trkpt><trkpt lat="43.692363915457754" lon="12.122251845830545"><ele>957.0</ele><time>2026-05-04T11:50:39Z</time></trkpt><trkpt lat="43.69235373872672" lon="12.122112298584485"><ele>958.5</ele><time>2026-05-04T11:50:41Z</time></trkpt><trkpt lat="43.69229081321708" lon="12.12202187766838"><ele>960.0</ele><time>2026-05-04T11:50:43Z</time></trkpt><trkpt lat="43.69224297233087" lon="12.121953625708159"><ele>960.0</ele><time>2026-05-04T11:50:46Z</time></trkpt><trkpt lat="43.692171399606906" lon="12.121863313852916"><ele>960.0</ele><time>2026-05-04T11:50:49Z</time></trkpt><trkpt lat="43.692091386209135" lon="12.121803681980605"><ele>960.0</ele><time>2026-05-04T11:50:51Z</time></trkpt><trkpt lat="43.69203093130171" lon="12.121697385615079"><ele>960.0</ele><time>2026-05-04T11:50:53Z</time></trkpt><trkpt lat="43.6919506786449" lon="12.121563887329364"><ele>960.0</ele><time>2026-05-04T11:50:55Z</time></trkpt><trkpt lat="43.691865822488715" lon="12.121433971117982"><ele>963.4</ele><time>2026-05-04T11:50:57Z</time></trkpt><trkpt lat="43.69177817910725" lon="12.121300749451624"><ele>966.8</ele><time>2026-05-04T11:50:59Z</time></trkpt><trkpt lat="43.691731634633854" lon="12.121217706422444"><ele>970.2</ele><time>2026-05-04T11:51:00Z</time></trkpt><trkpt lat="43.691654690775195" lon="12.121092955350637"><ele>973.6</ele><time>2026-05-04T11:51:02Z</time></trkpt><trkpt lat="43.69161408675817" lon="12.121020988243044"><ele>977.0</ele><time>2026-05-04T11:51:03Z</time></trkpt><trkpt lat="43.691572140325604" lon="12.120944070503706"><ele>977.0000000000001</ele><time>2026-05-04T11:51:04Z</time></trkpt><trkpt lat="43.691505898741504" lon="12.120784979010818"><ele>977.0</ele><time>2026-05-04T11:51:06Z</time></trkpt><trkpt lat="43.69147115981252" lon="12.120691485948"><ele>977.0</ele><time>2026-05-04T11:51:07Z</time></trkpt><trkpt lat="43.69144022711627" lon="12.120615098882805"><ele>977.0</ele><time>2026-05-04T11:51:08Z</time></trkpt><trkpt lat="43.691402737817214" lon="12.120530597113364"><ele>977.0000000000001</ele><time>2026-05-04T11:51:09Z</time></trkpt><trkpt lat="43.691370011879364" lon="12.12044897246986"><ele>977.0</ele><time>2026-05-04T11:51:10Z</time></trkpt><trkpt lat="43.691333794474325" lon="12.120356538052974"><ele>978.6</ele><time>2026-05-04T11:51:11Z</time></trkpt><trkpt lat="43.691295956891366" lon="12.12027406885148"><ele>980.2</ele><time>2026-05-04T11:51:12Z</time></trkpt><trkpt lat="43.6912573067826" lon="12.12018667009735"><ele>981.8</ele><time>2026-05-04T11:51:13Z</time></trkpt><trkpt lat="43.69116726919616" lon="12.120039069751607"><ele>983.4</ele><time>2026-05-04T11:51:15Z</time></trkpt><trkpt lat="43.69109592631564" lon="12.119910046181532"><ele>985.0</ele><time>2026-05-04T11:51:17Z</time></trkpt><trkpt lat="43.691056795853335" lon="12.119792287199132"><ele>987.8333333333333</ele><time>2026-05-04T11:51:19Z</time></trkpt><trkpt lat="43.69106244604611" lon="12.119697577288623"><ele>990.6666666666666</ele><time>2026-05-04T11:51:20Z</time></trkpt><trkpt lat="43.6910656730821" lon="12.11959472385144"><ele>993.5</ele><time>2026-05-04T11:51:21Z</time></trkpt><trkpt lat="43.691062822417216" lon="12.119487151992962"><ele>996.3333333333333</ele><time>2026-05-04T11:51:22Z</time></trkpt><trkpt lat="43.691046933065316" lon="12.119373656987893"><ele>999.1666666666666</ele><time>2026-05-04T11:51:23Z</time></trkpt><trkpt lat="43.69102672406264" lon="12.11925703558057"><ele>1002.0</ele><time>2026-05-04T11:51:24Z</time></trkpt><trkpt lat="43.691001439404204" lon="12.119165128779871"><ele>1005.3333333333334</ele><time>2026-05-04T11:51:25Z</time></trkpt><trkpt lat="43.690960721283965" lon="12.119057351314865"><ele>1008.6666666666667</ele><time>2026-05-04T11:51:26Z</time></trkpt><trkpt lat="43.69088860378311" lon="12.118934334322702"><ele>1012.0</ele><time>2026-05-04T11:51:28Z</time></trkpt><trkpt lat="43.690851665480594" lon="12.11886229747132"><ele>1015.3333333333334</ele><time>2026-05-04T11:51:29Z</time></trkpt><trkpt lat="43.69079936665213" lon="12.118762156336487"><ele>1018.6666666666667</ele><time>2026-05-04T11:51:31Z</time></trkpt><trkpt lat="43.690742759207744" lon="12.118671524460568"><ele>1022.0</ele><time>2026-05-04T11:51:34Z</time></trkpt><trkpt lat="43.69066038414639" lon="12.118550633773694"><ele>1022.0</ele><time>2026-05-04T11:51:36Z</time></trkpt><trkpt lat="43.690587124603844" lon="12.118426896754379"><ele>1022.0</ele><time>2026-05-04T11:51:38Z</time></trkpt><trkpt lat="43.69052903256868" lon="12.118327828217408"><ele>1022.0</ele><time>2026-05-04T11:51:40Z</time></trkpt><trkpt lat="43.690472921468306" lon="12.118209726068002"><ele>1022.0</ele><time>2026-05-04T11:51:42Z</time></trkpt><trkpt lat="43.69044337639099" lon="12.118131967953271"><ele>1022.0</ele><time>2026-05-04T11:51:43Z</time></trkpt><trkpt lat="43.690373297722736" lon="12.118012961584636"><ele>1022.6</ele><time>2026-05-04T11:51:45Z</time></trkpt><trkpt lat="43.69030119789587" lon="12.11791201676307"><ele>1023.2</ele><time>2026-05-04T11:51:47Z</time></trkpt><trkpt lat="43.69023121410272" lon="12.117810139978031"><ele>1023.8</ele><time>2026-05-04T11:51:49Z</time></trkpt><trkpt lat="43.69014578257786" lon="12.1177110543015"><ele>1024.4</ele><time>2026-05-04T11:51:51Z</time></trkpt><trkpt lat="43.69006958443926" lon="12.117621625123364"><ele>1025.0</ele><time>2026-05-04T11:51:53Z</time></trkpt><trkpt lat="43.69000086074799" lon="12.117576307283397"><ele>1025.0</ele><time>2026-05-04T11:51:55Z</time></trkpt><trkpt lat="43.689924400820836" lon="12.117529857301559"><ele>1025.0</ele><time>2026-05-04T11:51:57Z</time></trkpt><trkpt lat="43.689856917592266" lon="12.117473744396122"><ele>1025.0</ele><time>2026-05-04T11:52:00Z</time></trkpt><trkpt lat="43.68979130972792" lon="12.117378945782265"><ele>1025.0</ele><time>2026-05-04T11:52:02Z</time></trkpt><trkpt lat="43.689710108463274" lon="12.117275651325087"><ele>1025.0</ele><time>2026-05-04T11:52:04Z</time></trkpt><trkpt lat="43.689621940288795" lon="12.117170095214707"><ele>1030.2</ele><time>2026-05-04T11:52:06Z</time></trkpt><trkpt lat="43.689545226864425" lon="12.117066948248208"><ele>1035.4</ele><time>2026-05-04T11:52:08Z</time></trkpt><trkpt lat="43.68949547808652" lon="12.117005621955357"><ele>1040.6</ele><time>2026-05-04T11:52:09Z</time></trkpt><trkpt lat="43.68940937621864" lon="12.11693028559415"><ele>1045.8</ele><time>2026-05-04T11:52:11Z</time></trkpt><trkpt lat="43.68933157902879" lon="12.116829135058957"><ele>1051.0</ele><time>2026-05-04T11:52:13Z</time></trkpt><trkpt lat="43.68927582003266" lon="12.11674968876184"><ele>1051.6666666666665</ele><time>2026-05-04T11:52:15Z</time></trkpt><trkpt lat="43.68923030723494" lon="12.116679206949415"><ele>1052.3333333333333</ele><time>2026-05-04T11:52:17Z</time></trkpt><trkpt lat="43.689160684650126" lon="12.116589409212104"><ele>1053.0</ele><time>2026-05-04T11:52:20Z</time></trkpt><trkpt lat="43.689103968638875" lon="12.116509006138497"><ele>1053.6666666666667</ele><time>2026-05-04T11:52:22Z</time></trkpt><trkpt lat="43.689038674796166" lon="12.11642859333009"><ele>1054.3333333333335</ele><time>2026-05-04T11:52:24Z</time></trkpt><trkpt lat="43.68898667756461" lon="12.116358172268962"><ele>1055.0</ele><time>2026-05-04T11:52:26Z</time></trkpt><trkpt lat="43.68890411564025" lon="12.116269558342113"><ele>1056.6</ele><time>2026-05-04T11:52:29Z</time></trkpt><trkpt lat="43.68884808633057" lon="12.116184025737303"><ele>1058.2</ele><time>2026-05-04T11:52:31Z</time></trkpt><trkpt lat="43.68878855661414" lon="12.116089523127842"><ele>1059.8</ele><time>2026-05-04T11:52:33Z</time></trkpt><trkpt lat="43.688707994258635" lon="12.115994362126083"><ele>1061.4</ele><time>2026-05-04T11:52:35Z</time></trkpt><trkpt lat="43.68863687478501" lon="12.115893059277488"><ele>1063.0</ele><time>2026-05-04T11:52:37Z</time></trkpt><trkpt lat="43.68856604717583" lon="12.11580781822385"><ele>1058.4</ele><time>2026-05-04T11:52:39Z</time></trkpt><trkpt lat="43.688494527085986" lon="12.115713468674626"><ele>1053.8</ele><time>2026-05-04T11:52:41Z</time></trkpt><trkpt lat="43.68843530139676" lon="12.115608038256333"><ele>1049.2</ele><time>2026-05-04T11:52:43Z</time></trkpt><trkpt lat="43.68834800145099" lon="12.115500160016966"><ele>1044.6</ele><time>2026-05-04T11:52:45Z</time></trkpt><trkpt lat="43.68827658300797" lon="12.11540119536297"><ele>1040.0</ele><time>2026-05-04T11:52:47Z</time></trkpt><trkpt lat="43.68820806479931" lon="12.115303770593778"><ele>1040.0</ele><time>2026-05-04T11:52:49Z</time></trkpt><trkpt lat="43.68811406848879" lon="12.11520266558623"><ele>1040.0</ele><time>2026-05-04T11:52:51Z</time></trkpt><trkpt lat="43.68806638378483" lon="12.115143801245305"><ele>1040.0</ele><time>2026-05-04T11:52:52Z</time></trkpt><trkpt lat="43.687978781559075" lon="12.115062523405115"><ele>1040.0</ele><time>2026-05-04T11:52:54Z</time></trkpt><trkpt lat="43.68789111422948" lon="12.114966644547495"><ele>1040.0</ele><time>2026-05-04T11:52:56Z</time></trkpt><trkpt lat="43.68783347554534" lon="12.11492790359425"><ele>1036.2</ele><time>2026-05-04T11:52:57Z</time></trkpt><trkpt lat="43.68773707696814" lon="12.114885339163717"><ele>1032.4</ele><time>2026-05-04T11:52:59Z</time></trkpt><trkpt lat="43.68761953477279" lon="12.114870690219748"><ele>1028.6</ele><time>2026-05-04T11:53:01Z</time></trkpt><trkpt lat="43.68752993952192" lon="12.11483908727571"><ele>1024.8</ele><time>2026-05-04T11:53:03Z</time></trkpt><trkpt lat="43.68739576496253" lon="12.114804156063917"><ele>1021.0</ele><time>2026-05-04T11:53:05Z</time></trkpt><trkpt lat="43.68732729958721" lon="12.114786089679566"><ele>1020.9999999999999</ele><time>2026-05-04T11:53:06Z</time></trkpt><trkpt lat="43.687261945731095" lon="12.114769461375701"><ele>1021.0</ele><time>2026-05-04T11:53:07Z</time></trkpt><trkpt lat="43.68713185818075" lon="12.114741285298598"><ele>1021.0</ele><time>2026-05-04T11:53:09Z</time></trkpt><trkpt lat="43.68706177434725" lon="12.11469142069314"><ele>1021.0</ele><time>2026-05-04T11:53:10Z</time></trkpt><trkpt lat="43.68700378849984" lon="12.114651748821133"><ele>1020.9999999999999</ele><time>2026-05-04T11:53:11Z</time></trkpt><trkpt lat="43.686917735265304" lon="12.114574567342233"><ele>1021.0</ele><time>2026-05-04T11:53:13Z</time></trkpt><trkpt lat="43.68681220870981" lon="12.11459150444765"><ele>1019.3333333333333</ele><time>2026-05-04T11:53:15Z</time></trkpt><trkpt lat="43.6867419586053" lon="12.114573343749907"><ele>1017.6666666666666</ele><time>2026-05-04T11:53:16Z</time></trkpt><trkpt lat="43.68667280310048" lon="12.114558924808437"><ele>1016.0</ele><time>2026-05-04T11:53:17Z</time></trkpt><trkpt lat="43.68659594353343" lon="12.114547592442571"><ele>1014.3333333333333</ele><time>2026-05-04T11:53:18Z</time></trkpt><trkpt lat="43.68645527707774" lon="12.114526444088018"><ele>1012.6666666666666</ele><time>2026-05-04T11:53:20Z</time></trkpt><trkpt lat="43.68639094647324" lon="12.114514277750214"><ele>1011.0</ele><time>2026-05-04T11:53:21Z</time></trkpt><trkpt lat="43.6862551811533" lon="12.114500850850904"><ele>1011.0</ele><time>2026-05-04T11:53:23Z</time></trkpt><trkpt lat="43.68618746230155" lon="12.114479554553757"><ele>1010.9999999999999</ele><time>2026-05-04T11:53:24Z</time></trkpt><trkpt lat="43.686115006185624" lon="12.114467760146264"><ele>1010.9999999999999</ele><time>2026-05-04T11:53:25Z</time></trkpt><trkpt lat="43.685995746851475" lon="12.114448178609123"><ele>1011.0</ele><time>2026-05-04T11:53:27Z</time></trkpt><trkpt lat="43.68593164678953" lon="12.114437059406484"><ele>1011.0</ele><time>2026-05-04T11:53:28Z</time></trkpt><trkpt lat="43.68580544986831" lon="12.114403809757311"><ele>1010.25</ele><time>2026-05-04T11:53:30Z</time></trkpt><trkpt lat="43.68574246937309" lon="12.114391245736613"><ele>1009.5</ele><time>2026-05-04T11:53:31Z</time></trkpt><trkpt lat="43.68560973325193" lon="12.1141244153258"><ele>1008.75</ele><time>2026-05-04T11:53:33Z</time></trkpt><trkpt lat="43.685538548534986" lon="12.114141516416453"><ele>1008.0</ele><time>2026-05-04T11:53:35Z</time></trkpt><trkpt lat="43.68542811461356" lon="12.114176202466162"><ele>1008.0</ele><time>2026-05-04T11:55:04Z</time></trkpt><trkpt lat="43.685352314715416" lon="12.114194362319806"><ele>1008.0</ele><time>2026-05-04T11:55:05Z</time></trkpt><trkpt lat="43.685268868848546" lon="12.114220302981858"><ele>1008.0</ele><time>2026-05-04T11:55:06Z</time></trkpt><trkpt lat="43.68518510932659" lon="12.114249865463393"><ele>1008.0</ele><time>2026-05-04T11:55:07Z</time></trkpt><trkpt lat="43.6850919829322" lon="12.11428545918976"><ele>1008.0</ele><time>2026-05-04T11:55:08Z</time></trkpt><trkpt lat="43.68498817279322" lon="12.114315865764134"><ele>1006.8</ele><time>2026-05-04T11:55:09Z</time></trkpt><trkpt lat="43.684882740195576" lon="12.114352553551232"><ele>1005.5999999999999</ele><time>2026-05-04T11:55:10Z</time></trkpt><trkpt lat="43.684775633997496" lon="12.114386784132918"><ele>1004.4000000000001</ele><time>2026-05-04T11:55:11Z</time></trkpt><trkpt lat="43.684667501397094" lon="12.11442227779709"><ele>1003.2</ele><time>2026-05-04T11:55:12Z</time></trkpt><trkpt lat="43.68455691333362" lon="12.114462122491014"><ele>1002.0</ele><time>2026-05-04T11:55:13Z</time></trkpt><trkpt lat="43.68444671855145" lon="12.114507982887144"><ele>999.75</ele><time>2026-05-04T11:55:14Z</time></trkpt><trkpt lat="43.68434294248758" lon="12.11457014213791"><ele>997.5</ele><time>2026-05-04T11:55:15Z</time></trkpt><trkpt lat="43.684241676645975" lon="12.11464903615691"><ele>995.25</ele><time>2026-05-04T11:55:16Z</time></trkpt><trkpt lat="43.68413813626981" lon="12.11474153530111"><ele>993.0</ele><time>2026-05-04T11:55:17Z</time></trkpt><trkpt lat="43.684045003574106" lon="12.114839429888171"><ele>994.5</ele><time>2026-05-04T11:55:18Z</time></trkpt><trkpt lat="43.68394749270864" lon="12.114945839713174"><ele>996.0</ele><time>2026-05-04T11:55:19Z</time></trkpt><trkpt lat="43.68385076351449" lon="12.115045892446139"><ele>997.5</ele><time>2026-05-04T11:55:20Z</time></trkpt><trkpt lat="43.683760937212355" lon="12.115146791861813"><ele>999.0</ele><time>2026-05-04T11:55:21Z</time></trkpt><trkpt lat="43.68367264068553" lon="12.115241756847505"><ele>997.6666666666666</ele><time>2026-05-04T11:55:22Z</time></trkpt><trkpt lat="43.683587407812944" lon="12.115331949636671"><ele>996.3333333333333</ele><time>2026-05-04T11:55:23Z</time></trkpt><trkpt lat="43.683508422259216" lon="12.115413597724057"><ele>995.0</ele><time>2026-05-04T11:55:24Z</time></trkpt><trkpt lat="43.683436167611575" lon="12.115482069830282"><ele>993.6666666666666</ele><time>2026-05-04T11:55:25Z</time></trkpt><trkpt lat="43.68337625518936" lon="12.115544407340025"><ele>992.3333333333333</ele><time>2026-05-04T11:55:26Z</time></trkpt><trkpt lat="43.6833185967825" lon="12.11559506772361"><ele>991.0</ele><time>2026-05-04T11:55:27Z</time></trkpt><trkpt lat="43.68322585331326" lon="12.115664793509026"><ele>990.9999999999999</ele><time>2026-05-04T11:55:29Z</time></trkpt><trkpt lat="43.6831377587524" lon="12.115616232044987"><ele>991.0</ele><time>2026-05-04T11:55:30Z</time></trkpt><trkpt lat="43.68305753260862" lon="12.115589700198623"><ele>991.0</ele><time>2026-05-04T11:55:31Z</time></trkpt><trkpt lat="43.68298563092509" lon="12.115564528245512"><ele>991.0</ele><time>2026-05-04T11:55:32Z</time></trkpt><trkpt lat="43.682915633990866" lon="12.115547209151256"><ele>990.9999999999999</ele><time>2026-05-04T11:55:33Z</time></trkpt><trkpt lat="43.68284757522561" lon="12.115491279432003"><ele>991.0</ele><time>2026-05-04T11:55:34Z</time></trkpt><trkpt lat="43.68278522639775" lon="12.115455613898403"><ele>988.4999999999999</ele><time>2026-05-04T11:55:35Z</time></trkpt><trkpt lat="43.68272324723733" lon="12.11541552799753"><ele>986.0</ele><time>2026-05-04T11:55:36Z</time></trkpt><trkpt lat="43.6826605299022" lon="12.115375980926512"><ele>983.5</ele><time>2026-05-04T11:55:37Z</time></trkpt><trkpt lat="43.682603442711894" lon="12.11533023751192"><ele>981.0</ele><time>2026-05-04T11:55:38Z</time></trkpt><trkpt lat="43.68251741190077" lon="12.115195222132991"><ele>978.4999999999999</ele><time>2026-05-04T11:55:40Z</time></trkpt><trkpt lat="43.68250249069759" lon="12.11509903204429"><ele>976.0</ele><time>2026-05-04T11:55:41Z</time></trkpt><trkpt lat="43.68250664335636" lon="12.11496600248352"><ele>975.0</ele><time>2026-05-04T11:55:42Z</time></trkpt><trkpt lat="43.68250145383377" lon="12.114841103855213"><ele>973.9999999999999</ele><time>2026-05-04T11:55:43Z</time></trkpt><trkpt lat="43.68249348776459" lon="12.114703574664892"><ele>972.9999999999999</ele><time>2026-05-04T11:55:44Z</time></trkpt><trkpt lat="43.68248281780453" lon="12.114567738800902"><ele>972.0</ele><time>2026-05-04T11:55:45Z</time></trkpt><trkpt lat="43.68248049002909" lon="12.114429240181979"><ele>971.0</ele><time>2026-05-04T11:55:46Z</time></trkpt><trkpt lat="43.682490327296975" lon="12.11430091581809"><ele>971.0</ele><time>2026-05-04T11:55:47Z</time></trkpt><trkpt lat="43.68250211071321" lon="12.114170512263499"><ele>970.9999999999999</ele><time>2026-05-04T11:55:48Z</time></trkpt><trkpt lat="43.68252153246699" lon="12.11403364511382"><ele>970.9999999999999</ele><time>2026-05-04T11:55:49Z</time></trkpt><trkpt lat="43.68254343200927" lon="12.1138991664014"><ele>971.0</ele><time>2026-05-04T11:55:50Z</time></trkpt><trkpt lat="43.68256369842524" lon="12.113751418199024"><ele>971.0</ele><time>2026-05-04T11:55:51Z</time></trkpt><trkpt lat="43.68259234337934" lon="12.113602904395178"><ele>969.5</ele><time>2026-05-04T11:55:52Z</time></trkpt><trkpt lat="43.68261846466394" lon="12.113449020581125"><ele>968.0</ele><time>2026-05-04T11:55:53Z</time></trkpt><trkpt lat="43.682642047192346" lon="12.113289752467114"><ele>966.5</ele><time>2026-05-04T11:55:54Z</time></trkpt><trkpt lat="43.68266326685073" lon="12.113137725078792"><ele>965.0</ele><time>2026-05-04T11:55:55Z</time></trkpt><trkpt lat="43.68268546042798" lon="12.11298583488741"><ele>963.0</ele><time>2026-05-04T11:55:56Z</time></trkpt><trkpt lat="43.682701558037046" lon="12.112839595853584"><ele>961.0</ele><time>2026-05-04T11:55:57Z</time></trkpt><trkpt lat="43.68270833241492" lon="12.112710158448163"><ele>959.0</ele><time>2026-05-04T11:55:58Z</time></trkpt><trkpt lat="43.682711650629535" lon="12.112583937464231"><ele>957.0</ele><time>2026-05-04T11:55:59Z</time></trkpt><trkpt lat="43.68272667606684" lon="12.112468689462181"><ele>955.0</ele><time>2026-05-04T11:56:00Z</time></trkpt><trkpt lat="43.68275973643167" lon="12.112364497527208"><ele>954.8333333333333</ele><time>2026-05-04T11:56:01Z</time></trkpt><trkpt lat="43.68281212293884" lon="12.112252605396513"><ele>954.6666666666666</ele><time>2026-05-04T11:56:02Z</time></trkpt><trkpt lat="43.682907705095445" lon="12.112193228861438"><ele>954.5</ele><time>2026-05-04T11:56:03Z</time></trkpt><trkpt lat="43.6829589906275" lon="12.112097068528525"><ele>954.3333333333333</ele><time>2026-05-04T11:56:04Z</time></trkpt><trkpt lat="43.683002392412774" lon="12.112015690215609"><ele>954.1666666666666</ele><time>2026-05-04T11:56:05Z</time></trkpt><trkpt lat="43.683012591814" lon="12.111899012065395"><ele>954.0</ele><time>2026-05-04T11:56:06Z</time></trkpt><trkpt lat="43.682986545458" lon="12.111793160766222"><ele>954.0</ele><time>2026-05-04T11:56:07Z</time></trkpt><trkpt lat="43.68294390750505" lon="12.111700525879113"><ele>954.0000000000001</ele><time>2026-05-04T11:56:08Z</time></trkpt><trkpt lat="43.682874423376056" lon="12.111607477120076"><ele>954.0000000000001</ele><time>2026-05-04T11:56:09Z</time></trkpt><trkpt lat="43.68279558595977" lon="12.111526976308527"><ele>954.0</ele><time>2026-05-04T11:56:10Z</time></trkpt><trkpt lat="43.682721507955854" lon="12.111460137187846"><ele>954.0</ele><time>2026-05-04T11:56:11Z</time></trkpt><trkpt lat="43.68263910735795" lon="12.11140136800718"><ele>950.6</ele><time>2026-05-04T11:56:12Z</time></trkpt><trkpt lat="43.68255120011263" lon="12.111349851756291"><ele>947.2</ele><time>2026-05-04T11:56:13Z</time></trkpt><trkpt lat="43.682461207051816" lon="12.111313505429319"><ele>943.8000000000001</ele><time>2026-05-04T11:56:14Z</time></trkpt><trkpt lat="43.68237725756261" lon="12.111309246365275"><ele>940.4000000000001</ele><time>2026-05-04T11:56:15Z</time></trkpt><trkpt lat="43.68229057093793" lon="12.111358791297485"><ele>937.0</ele><time>2026-05-04T11:56:16Z</time></trkpt><trkpt lat="43.682201939315014" lon="12.111428491131464"><ele>937.0</ele><time>2026-05-04T11:56:17Z</time></trkpt><trkpt lat="43.68211243050139" lon="12.111492564971234"><ele>937.0</ele><time>2026-05-04T11:56:18Z</time></trkpt><trkpt lat="43.68203408483875" lon="12.111552070531738"><ele>937.0</ele><time>2026-05-04T11:56:19Z</time></trkpt><trkpt lat="43.6819847281596" lon="12.111608393091782"><ele>937.0</ele><time>2026-05-04T11:56:20Z</time></trkpt><trkpt lat="43.681890877548604" lon="12.111674637564926"><ele>937.0</ele><time>2026-05-04T11:56:22Z</time></trkpt><trkpt lat="43.681802027165254" lon="12.111646693168197"><ele>936.9999999999999</ele><time>2026-05-04T11:56:24Z</time></trkpt><trkpt lat="43.68181448384385" lon="12.11155156605234"><ele>937.0</ele><time>2026-05-04T11:56:25Z</time></trkpt><trkpt lat="43.68187853362088" lon="12.11142479194013"><ele>937.0</ele><time>2026-05-04T11:56:27Z</time></trkpt><trkpt lat="43.681907497755276" lon="12.111341763685362"><ele>937.0</ele><time>2026-05-04T11:56:28Z</time></trkpt><trkpt lat="43.68193301935711" lon="12.111253346436193"><ele>936.9999999999999</ele><time>2026-05-04T11:56:29Z</time></trkpt><trkpt lat="43.68194852906972" lon="12.111163442869916"><ele>937.0</ele><time>2026-05-04T11:56:30Z</time></trkpt><trkpt lat="43.68195857116348" lon="12.111072822883484"><ele>934.9999999999999</ele><time>2026-05-04T11:56:31Z</time></trkpt><trkpt lat="43.68192549285641" lon="12.110987297132821"><ele>933.0</ele><time>2026-05-04T11:56:32Z</time></trkpt><trkpt lat="43.681873561430656" lon="12.11092881862607"><ele>931.0</ele><time>2026-05-04T11:56:33Z</time></trkpt><trkpt lat="43.68179456991365" lon="12.110928744231357"><ele>929.0</ele><time>2026-05-04T11:56:34Z</time></trkpt><trkpt lat="43.681717124195444" lon="12.11090284094098"><ele>926.9999999999999</ele><time>2026-05-04T11:56:35Z</time></trkpt><trkpt lat="43.6815955340588" lon="12.110883176321213"><ele>925.0</ele><time>2026-05-04T11:56:37Z</time></trkpt><trkpt lat="43.6815175320465" lon="12.1107452383426"><ele>923.6</ele><time>2026-05-04T11:56:39Z</time></trkpt><trkpt lat="43.68149474159898" lon="12.110630435975706"><ele>922.2</ele><time>2026-05-04T11:56:40Z</time></trkpt><trkpt lat="43.68146881361457" lon="12.110500477194721"><ele>920.8</ele><time>2026-05-04T11:56:41Z</time></trkpt><trkpt lat="43.68143128287745" lon="12.110376851688859"><ele>919.4</ele><time>2026-05-04T11:56:42Z</time></trkpt><trkpt lat="43.68141291358492" lon="12.11026197543048"><ele>918.0</ele><time>2026-05-04T11:56:43Z</time></trkpt><trkpt lat="43.68142604836012" lon="12.110141222070402"><ele>918.0</ele><time>2026-05-04T11:56:44Z</time></trkpt><trkpt lat="43.681444414158946" lon="12.1100406813469"><ele>918.0</ele><time>2026-05-04T11:56:45Z</time></trkpt><trkpt lat="43.68149333701354" lon="12.109966680907112"><ele>918.0</ele><time>2026-05-04T11:56:46Z</time></trkpt><trkpt lat="43.681551381176625" lon="12.109872204866297"><ele>918.0</ele><time>2026-05-04T11:56:47Z</time></trkpt><trkpt lat="43.68160723564499" lon="12.109788252126938"><ele>918.0</ele><time>2026-05-04T11:56:48Z</time></trkpt><trkpt lat="43.68167317808641" lon="12.109697746313444"><ele>918.0</ele><time>2026-05-04T11:56:49Z</time></trkpt><trkpt lat="43.68172368400134" lon="12.109599355242498"><ele>916.8</ele><time>2026-05-04T11:56:50Z</time></trkpt><trkpt lat="43.681732916474935" lon="12.109487604837357"><ele>915.5999999999999</ele><time>2026-05-04T11:56:51Z</time></trkpt><trkpt lat="43.681685612776974" lon="12.109370223484412"><ele>914.4000000000001</ele><time>2026-05-04T11:56:52Z</time></trkpt><trkpt lat="43.68163146811224" lon="12.109268977763335"><ele>913.2</ele><time>2026-05-04T11:56:53Z</time></trkpt><trkpt lat="43.681557307864246" lon="12.109186499644832"><ele>912.0</ele><time>2026-05-04T11:56:54Z</time></trkpt><trkpt lat="43.681475610840174" lon="12.109097607689797"><ele>910.2</ele><time>2026-05-04T11:56:55Z</time></trkpt><trkpt lat="43.68142342496578" lon="12.1089975037329"><ele>908.4000000000001</ele><time>2026-05-04T11:56:56Z</time></trkpt><trkpt lat="43.68137335247544" lon="12.108912207853278"><ele>906.5999999999999</ele><time>2026-05-04T11:56:57Z</time></trkpt><trkpt lat="43.68134672059157" lon="12.108803918877655"><ele>904.8</ele><time>2026-05-04T11:56:58Z</time></trkpt><trkpt lat="43.68133572469455" lon="12.108673085130974"><ele>903.0</ele><time>2026-05-04T11:56:59Z</time></trkpt><trkpt lat="43.6813271720974" lon="12.108530727290207"><ele>903.0</ele><time>2026-05-04T11:57:00Z</time></trkpt><trkpt lat="43.681327423013286" lon="12.108391224562133"><ele>903.0</ele><time>2026-05-04T11:57:01Z</time></trkpt><trkpt lat="43.68133534007912" lon="12.108257076462559"><ele>903.0</ele><time>2026-05-04T11:57:02Z</time></trkpt><trkpt lat="43.68134435606505" lon="12.108131383084473"><ele>903.0</ele><time>2026-05-04T11:57:03Z</time></trkpt><trkpt lat="43.68135496454449" lon="12.107983488471884"><ele>903.0</ele><time>2026-05-04T11:57:04Z</time></trkpt><trkpt lat="43.68136814888622" lon="12.107857801202112"><ele>901.8</ele><time>2026-05-04T11:57:05Z</time></trkpt><trkpt lat="43.68136126420514" lon="12.1077550101423"><ele>900.5999999999999</ele><time>2026-05-04T11:57:06Z</time></trkpt><trkpt lat="43.681350518924425" lon="12.107605613295522"><ele>899.4000000000001</ele><time>2026-05-04T11:57:08Z</time></trkpt><trkpt lat="43.68129948118863" lon="12.107530683628221"><ele>898.2</ele><time>2026-05-04T11:57:09Z</time></trkpt><trkpt lat="43.681193595752305" lon="12.107511999641737"><ele>897.0</ele><time>2026-05-04T11:57:10Z</time></trkpt><trkpt lat="43.681086806342385" lon="12.107514934042186"><ele>895.0</ele><time>2026-05-04T11:57:11Z</time></trkpt><trkpt lat="43.68099475915107" lon="12.107501467073277"><ele>893.0</ele><time>2026-05-04T11:57:12Z</time></trkpt><trkpt lat="43.680908546422465" lon="12.107461636742805"><ele>891.0</ele><time>2026-05-04T11:57:13Z</time></trkpt><trkpt lat="43.68085724421239" lon="12.107355811667475"><ele>889.0</ele><time>2026-05-04T11:57:14Z</time></trkpt><trkpt lat="43.68078570736397" lon="12.107268377752957"><ele>887.0</ele><time>2026-05-04T11:57:15Z</time></trkpt><trkpt lat="43.680702291715114" lon="12.107218660720095"><ele>886.0</ele><time>2026-05-04T11:57:16Z</time></trkpt><trkpt lat="43.680627059144726" lon="12.10714494442704"><ele>885.0</ele><time>2026-05-04T11:57:17Z</time></trkpt><trkpt lat="43.680520845590394" lon="12.107128853858907"><ele>884.0</ele><time>2026-05-04T11:57:18Z</time></trkpt><trkpt lat="43.68041919919155" lon="12.107184089659212"><ele>883.0</ele><time>2026-05-04T11:57:19Z</time></trkpt><trkpt lat="43.68032353903863" lon="12.107194613939068"><ele>882.0</ele><time>2026-05-04T11:57:20Z</time></trkpt><trkpt lat="43.68022993930719" lon="12.107186935322055"><ele>880.0</ele><time>2026-05-04T11:57:21Z</time></trkpt><trkpt lat="43.68014801633968" lon="12.107166866866807"><ele>878.0</ele><time>2026-05-04T11:57:22Z</time></trkpt><trkpt lat="43.68005502809526" lon="12.107120437847948"><ele>876.0</ele><time>2026-05-04T11:57:23Z</time></trkpt><trkpt lat="43.67997463505511" lon="12.107040081292473"><ele>874.0</ele><time>2026-05-04T11:57:24Z</time></trkpt><trkpt lat="43.67991733502976" lon="12.106904580845038"><ele>872.0</ele><time>2026-05-04T11:57:25Z</time></trkpt><trkpt lat="43.67986831415437" lon="12.106777571121222"><ele>872.0</ele><time>2026-05-04T11:57:26Z</time></trkpt><trkpt lat="43.67983117808044" lon="12.106628656248414"><ele>872.0</ele><time>2026-05-04T11:57:27Z</time></trkpt><trkpt lat="43.679793678852356" lon="12.106468407857177"><ele>872.0</ele><time>2026-05-04T11:57:28Z</time></trkpt><trkpt lat="43.67976380118338" lon="12.106313421470217"><ele>872.0</ele><time>2026-05-04T11:57:29Z</time></trkpt><trkpt lat="43.67973762718654" lon="12.106169646751122"><ele>871.0</ele><time>2026-05-04T11:57:30Z</time></trkpt><trkpt lat="43.67970491532362" lon="12.106035906188934"><ele>870.0</ele><time>2026-05-04T11:57:31Z</time></trkpt><trkpt lat="43.67966087793754" lon="12.105909530658929"><ele>869.0</ele><time>2026-05-04T11:57:32Z</time></trkpt><trkpt lat="43.679589110154645" lon="12.105780579730313"><ele>868.0</ele><time>2026-05-04T11:57:33Z</time></trkpt><trkpt lat="43.67950747866569" lon="12.105674832966747"><ele>867.0</ele><time>2026-05-04T11:57:34Z</time></trkpt><trkpt lat="43.67942154022247" lon="12.10557866681819"><ele>864.6</ele><time>2026-05-04T11:57:35Z</time></trkpt><trkpt lat="43.67935685903606" lon="12.105503439202009"><ele>862.2</ele><time>2026-05-04T11:57:36Z</time></trkpt><trkpt lat="43.679296121582006" lon="12.105410132944115"><ele>859.8</ele><time>2026-05-04T11:57:37Z</time></trkpt><trkpt lat="43.67925598449517" lon="12.105328784327968"><ele>857.4</ele><time>2026-05-04T11:57:38Z</time></trkpt><trkpt lat="43.67925614851661" lon="12.105172232777429"><ele>855.0</ele><time>2026-05-04T11:57:40Z</time></trkpt><trkpt lat="43.67936192750068" lon="12.105104517715297"><ele>855.0</ele><time>2026-05-04T11:57:42Z</time></trkpt><trkpt lat="43.679418900958396" lon="12.10505297564381"><ele>855.0</ele><time>2026-05-04T11:57:43Z</time></trkpt><trkpt lat="43.67952977657399" lon="12.104974276185345"><ele>855.0</ele><time>2026-05-04T11:57:45Z</time></trkpt><trkpt lat="43.679629083325096" lon="12.10487922192722"><ele>855.0</ele><time>2026-05-04T11:57:47Z</time></trkpt><trkpt lat="43.67964460690253" lon="12.104777619956279"><ele>855.0</ele><time>2026-05-04T11:57:48Z</time></trkpt><trkpt lat="43.679578989098296" lon="12.104662446539031"><ele>855.4</ele><time>2026-05-04T11:57:49Z</time></trkpt><trkpt lat="43.67947471171836" lon="12.10462844093298"><ele>855.8</ele><time>2026-05-04T11:57:50Z</time></trkpt><trkpt lat="43.67940039999217" lon="12.104606741529823"><ele>856.2</ele><time>2026-05-04T11:57:51Z</time></trkpt><trkpt lat="43.67932221377343" lon="12.104555007678469"><ele>856.6</ele><time>2026-05-04T11:57:52Z</time></trkpt><trkpt lat="43.67924119593772" lon="12.104495739796176"><ele>857.0</ele><time>2026-05-04T11:57:53Z</time></trkpt><trkpt lat="43.67915398704237" lon="12.10442324623659"><ele>857.0</ele><time>2026-05-04T11:57:54Z</time></trkpt><trkpt lat="43.679055834177085" lon="12.104347123732518"><ele>857.0</ele><time>2026-05-04T11:57:55Z</time></trkpt><trkpt lat="43.67896765209868" lon="12.104242291385557"><ele>857.0</ele><time>2026-05-04T11:57:56Z</time></trkpt><trkpt lat="43.67888082199179" lon="12.104132382933813"><ele>857.0</ele><time>2026-05-04T11:57:57Z</time></trkpt><trkpt lat="43.67878882719972" lon="12.104032555992028"><ele>856.5</ele><time>2026-05-04T11:57:58Z</time></trkpt><trkpt lat="43.67869113218525" lon="12.103939179225025"><ele>856.0</ele><time>2026-05-04T11:57:59Z</time></trkpt><trkpt lat="43.678595909543375" lon="12.10383999907988"><ele>855.5</ele><time>2026-05-04T11:58:00Z</time></trkpt><trkpt lat="43.67851229014823" lon="12.103727533086117"><ele>855.0</ele><time>2026-05-04T11:58:01Z</time></trkpt><trkpt lat="43.67841559641957" lon="12.103618752610473"><ele>853.0</ele><time>2026-05-04T11:58:02Z</time></trkpt><trkpt lat="43.67831047663045" lon="12.1035336418931"><ele>851.0</ele><time>2026-05-04T11:58:03Z</time></trkpt><trkpt lat="43.67822293718988" lon="12.103423397773586"><ele>849.0</ele><time>2026-05-04T11:58:04Z</time></trkpt><trkpt lat="43.67813118583578" lon="12.10331831625376"><ele>847.0</ele><time>2026-05-04T11:58:05Z</time></trkpt><trkpt lat="43.678043453667215" lon="12.103218238268797"><ele>844.6</ele><time>2026-05-04T11:58:06Z</time></trkpt><trkpt lat="43.677949334238406" lon="12.103113220724492"><ele>842.2</ele><time>2026-05-04T11:58:07Z</time></trkpt><trkpt lat="43.677861935320045" lon="12.10302400538439"><ele>839.8</ele><time>2026-05-04T11:58:08Z</time></trkpt><trkpt lat="43.67777709666496" lon="12.102963262720165"><ele>837.4</ele><time>2026-05-04T11:58:09Z</time></trkpt><trkpt lat="43.6777028166918" lon="12.102901535994691"><ele>835.0</ele><time>2026-05-04T11:58:10Z</time></trkpt><trkpt lat="43.6776331399855" lon="12.102860685338507"><ele>834.1666666666666</ele><time>2026-05-04T11:58:11Z</time></trkpt><trkpt lat="43.677553811949856" lon="12.102849682361068"><ele>833.3333333333333</ele><time>2026-05-04T11:58:12Z</time></trkpt><trkpt lat="43.677480060659875" lon="12.102862120062788"><ele>832.5</ele><time>2026-05-04T11:58:13Z</time></trkpt><trkpt lat="43.677406414449614" lon="12.102912080243172"><ele>831.6666666666667</ele><time>2026-05-04T11:58:14Z</time></trkpt><trkpt lat="43.67734534648796" lon="12.102986405403021"><ele>830.8333333333334</ele><time>2026-05-04T11:58:15Z</time></trkpt><trkpt lat="43.67728489086555" lon="12.103082426708928"><ele>830.0</ele><time>2026-05-04T11:58:16Z</time></trkpt><trkpt lat="43.6772194606238" lon="12.103184331029768"><ele>829.4</ele><time>2026-05-04T11:58:17Z</time></trkpt><trkpt lat="43.67714408417548" lon="12.10325532853135"><ele>828.8</ele><time>2026-05-04T11:58:18Z</time></trkpt><trkpt lat="43.6770539945921" lon="12.103253966059958"><ele>828.2</ele><time>2026-05-04T11:58:19Z</time></trkpt><trkpt lat="43.67696258312343" lon="12.103261076577141"><ele>827.6</ele><time>2026-05-04T11:58:20Z</time></trkpt><trkpt lat="43.67686826671645" lon="12.103287444154532"><ele>827.0</ele><time>2026-05-04T11:58:21Z</time></trkpt><trkpt lat="43.67678432070375" lon="12.10327560668879"><ele>827.0</ele><time>2026-05-04T11:58:22Z</time></trkpt><trkpt lat="43.676710054996896" lon="12.103283601033764"><ele>827.0</ele><time>2026-05-04T11:58:23Z</time></trkpt><trkpt lat="43.676650705212936" lon="12.103246878119787"><ele>827.0</ele><time>2026-05-04T11:58:24Z</time></trkpt><trkpt lat="43.67658380941955" lon="12.10320658861901"><ele>827.0</ele><time>2026-05-04T11:58:26Z</time></trkpt><trkpt lat="43.676597444719256" lon="12.103097402463467"><ele>827.0</ele><time>2026-05-04T11:58:29Z</time></trkpt><trkpt lat="43.676669368865696" lon="12.103111962176202"><ele>827.0</ele><time>2026-05-04T11:58:30Z</time></trkpt><trkpt lat="43.67673141113599" lon="12.103070847296612"><ele>827.0</ele><time>2026-05-04T11:58:31Z</time></trkpt><trkpt lat="43.676806214370416" lon="12.10303105769054"><ele>827.5000000000001</ele><time>2026-05-04T11:58:32Z</time></trkpt><trkpt lat="43.676883688014385" lon="12.102986040846645"><ele>828.0</ele><time>2026-05-04T11:58:33Z</time></trkpt><trkpt lat="43.67693937017251" lon="12.10291974423048"><ele>828.5</ele><time>2026-05-04T11:58:34Z</time></trkpt><trkpt lat="43.67698409423748" lon="12.102838866331819"><ele>829.0</ele><time>2026-05-04T11:58:35Z</time></trkpt><trkpt lat="43.6769919598556" lon="12.102729803520965"><ele>829.5000000000001</ele><time>2026-05-04T11:58:36Z</time></trkpt><trkpt lat="43.6769999902169" lon="12.102580373549998"><ele>830.0</ele><time>2026-05-04T11:58:37Z</time></trkpt><trkpt lat="43.67694343268169" lon="12.10238170139844"><ele>826.4</ele><time>2026-05-04T11:58:38Z</time></trkpt><trkpt lat="43.676907933148236" lon="12.102232203794426"><ele>822.8</ele><time>2026-05-04T11:58:39Z</time></trkpt><trkpt lat="43.67686749585515" lon="12.10209107818423"><ele>819.2</ele><time>2026-05-04T11:58:40Z</time></trkpt><trkpt lat="43.67681626218204" lon="12.101963791775875"><ele>815.6</ele><time>2026-05-04T11:58:41Z</time></trkpt><trkpt lat="43.676742216232704" lon="12.101861436217744"><ele>812.0</ele><time>2026-05-04T11:58:42Z</time></trkpt><trkpt lat="43.67664739935286" lon="12.101719016815622"><ele>812.0000000000001</ele><time>2026-05-04T11:58:43Z</time></trkpt><trkpt lat="43.67654463434274" lon="12.101623887205832"><ele>812.0</ele><time>2026-05-04T11:58:44Z</time></trkpt><trkpt lat="43.67645981987703" lon="12.101545051921349"><ele>812.0</ele><time>2026-05-04T11:58:45Z</time></trkpt><trkpt lat="43.67639894959398" lon="12.101479569638327"><ele>812.0</ele><time>2026-05-04T11:58:46Z</time></trkpt><trkpt lat="43.67635771663246" lon="12.10141196804467"><ele>812.0000000000001</ele><time>2026-05-04T11:58:47Z</time></trkpt><trkpt lat="43.67633061399752" lon="12.10131292779291"><ele>812.0</ele><time>2026-05-04T11:58:49Z</time></trkpt><trkpt lat="43.67636668606693" lon="12.10120052681845"><ele>810.6</ele><time>2026-05-04T11:58:51Z</time></trkpt><trkpt lat="43.67640796496713" lon="12.10111029104198"><ele>809.2</ele><time>2026-05-04T11:58:52Z</time></trkpt><trkpt lat="43.67647011626275" lon="12.101041546206362"><ele>807.8</ele><time>2026-05-04T11:58:53Z</time></trkpt><trkpt lat="43.676521928295735" lon="12.100885963273537"><ele>806.4</ele><time>2026-05-04T11:58:54Z</time></trkpt><trkpt lat="43.67651054145674" lon="12.100691011334979"><ele>805.0</ele><time>2026-05-04T11:58:55Z</time></trkpt><trkpt lat="43.676493698072015" lon="12.100521343356395"><ele>803.6</ele><time>2026-05-04T11:58:56Z</time></trkpt><trkpt lat="43.676487033997745" lon="12.100359235884516"><ele>802.2</ele><time>2026-05-04T11:58:57Z</time></trkpt><trkpt lat="43.676481019741956" lon="12.100199546864882"><ele>800.8</ele><time>2026-05-04T11:58:58Z</time></trkpt><trkpt lat="43.676474177016644" lon="12.10005469095368"><ele>799.4</ele><time>2026-05-04T11:58:59Z</time></trkpt><trkpt lat="43.67646000510827" lon="12.099907872661474"><ele>798.0</ele><time>2026-05-04T11:59:00Z</time></trkpt><trkpt lat="43.67644155568389" lon="12.099780601332172"><ele>797.2857142857143</ele><time>2026-05-04T11:59:01Z</time></trkpt><trkpt lat="43.676416242570895" lon="12.09966108259138"><ele>796.5714285714286</ele><time>2026-05-04T11:59:02Z</time></trkpt><trkpt lat="43.67639273559685" lon="12.099569810257709"><ele>795.8571428571429</ele><time>2026-05-04T11:59:03Z</time></trkpt><trkpt lat="43.676353740079755" lon="12.099491536760473"><ele>795.1428571428571</ele><time>2026-05-04T11:59:04Z</time></trkpt><trkpt lat="43.67629196741595" lon="12.099444792334246"><ele>794.4285714285714</ele><time>2026-05-04T11:59:05Z</time></trkpt><trkpt lat="43.676214337332034" lon="12.099452689535187"><ele>793.7142857142858</ele><time>2026-05-04T11:59:06Z</time></trkpt><trkpt lat="43.67615282892143" lon="12.099472539364642"><ele>793.0</ele><time>2026-05-04T11:59:07Z</time></trkpt><trkpt lat="43.676098088036014" lon="12.099529134483967"><ele>791.2</ele><time>2026-05-04T11:59:08Z</time></trkpt><trkpt lat="43.67604776851413" lon="12.09961308999937"><ele>789.4</ele><time>2026-05-04T11:59:09Z</time></trkpt><trkpt lat="43.67600289813809" lon="12.099717339820073"><ele>787.6</ele><time>2026-05-04T11:59:10Z</time></trkpt><trkpt lat="43.67595535559951" lon="12.099846820736717"><ele>785.8000000000001</ele><time>2026-05-04T11:59:11Z</time></trkpt><trkpt lat="43.67591427908634" lon="12.099991820981817"><ele>784.0</ele><time>2026-05-04T11:59:12Z</time></trkpt><trkpt lat="43.675881995798434" lon="12.100120187835"><ele>783.8000000000001</ele><time>2026-05-04T11:59:13Z</time></trkpt><trkpt lat="43.67585366712855" lon="12.100245198644101"><ele>783.6</ele><time>2026-05-04T11:59:14Z</time></trkpt><trkpt lat="43.675807696417486" lon="12.10036099187132"><ele>783.4</ele><time>2026-05-04T11:59:15Z</time></trkpt><trkpt lat="43.67574408026192" lon="12.100452173637828"><ele>783.2</ele><time>2026-05-04T11:59:16Z</time></trkpt><trkpt lat="43.67568029142188" lon="12.100543892377587"><ele>783.0</ele><time>2026-05-04T11:59:17Z</time></trkpt><trkpt lat="43.67563672703197" lon="12.100644282517825"><ele>783.0</ele><time>2026-05-04T11:59:18Z</time></trkpt><trkpt lat="43.67558480496416" lon="12.10073586394509"><ele>783.0</ele><time>2026-05-04T11:59:19Z</time></trkpt><trkpt lat="43.6754977539881" lon="12.100793192282097"><ele>783.0</ele><time>2026-05-04T11:59:20Z</time></trkpt><trkpt lat="43.67542040091689" lon="12.100858755138916"><ele>783.0</ele><time>2026-05-04T11:59:21Z</time></trkpt><trkpt lat="43.6753280685999" lon="12.100879490041738"><ele>783.0</ele><time>2026-05-04T11:59:22Z</time></trkpt><trkpt lat="43.67524502043138" lon="12.100873508172848"><ele>783.0</ele><time>2026-05-04T11:59:23Z</time></trkpt><trkpt lat="43.67515550893858" lon="12.100854342653136"><ele>780.5999999999999</ele><time>2026-05-04T11:59:24Z</time></trkpt><trkpt lat="43.675069283961804" lon="12.10081327953135"><ele>778.1999999999999</ele><time>2026-05-04T11:59:25Z</time></trkpt><trkpt lat="43.67499011671814" lon="12.100759220999759"><ele>775.8</ele><time>2026-05-04T11:59:26Z</time></trkpt><trkpt lat="43.67490274403498" lon="12.100684422165273"><ele>773.4</ele><time>2026-05-04T11:59:27Z</time></trkpt><trkpt lat="43.674805627465965" lon="12.100609491716002"><ele>771.0</ele><time>2026-05-04T11:59:28Z</time></trkpt><trkpt lat="43.674716423289134" lon="12.100512149230772"><ele>771.0</ele><time>2026-05-04T11:59:29Z</time></trkpt><trkpt lat="43.67462309387744" lon="12.100429733354785"><ele>771.0</ele><time>2026-05-04T11:59:30Z</time></trkpt><trkpt lat="43.674546402768165" lon="12.100374124051472"><ele>771.0</ele><time>2026-05-04T11:59:31Z</time></trkpt><trkpt lat="43.674480976126134" lon="12.100330792946238"><ele>771.0</ele><time>2026-05-04T11:59:32Z</time></trkpt><trkpt lat="43.67439598122236" lon="12.100280598534614"><ele>771.0</ele><time>2026-05-04T11:59:34Z</time></trkpt><trkpt lat="43.67428916290822" lon="12.100220239791438"><ele>769.4</ele><time>2026-05-04T11:59:53Z</time></trkpt><trkpt lat="43.6742133249613" lon="12.100214962383053"><ele>767.8</ele><time>2026-05-04T11:59:54Z</time></trkpt><trkpt lat="43.67411576642873" lon="12.10023634704573"><ele>766.1999999999999</ele><time>2026-05-04T11:59:55Z</time></trkpt><trkpt lat="43.6740186218733" lon="12.100278501859883"><ele>764.5999999999999</ele><time>2026-05-04T11:59:56Z</time></trkpt><trkpt lat="43.673913648665305" lon="12.100251212898826"><ele>763.0</ele><time>2026-05-04T11:59:57Z</time></trkpt><trkpt lat="43.67383780390168" lon="12.100220860470415"><ele>763.0</ele><time>2026-05-04T11:59:58Z</time></trkpt><trkpt lat="43.67375461292396" lon="12.100166444585833"><ele>763.0</ele><time>2026-05-04T11:59:59Z</time></trkpt><trkpt lat="43.6736735675193" lon="12.100123379766274"><ele>763.0</ele><time>2026-05-04T12:00:01Z</time></trkpt><trkpt lat="43.67358285450342" lon="12.10002800771877"><ele>763.0</ele><time>2026-05-04T12:00:02Z</time></trkpt><trkpt lat="43.67348906781763" lon="12.099937362282992"><ele>763.0</ele><time>2026-05-04T12:00:03Z</time></trkpt><trkpt lat="43.67339049067411" lon="12.099845598008686"><ele>761.0</ele><time>2026-05-04T12:00:04Z</time></trkpt><trkpt lat="43.67329461626461" lon="12.099758263358618"><ele>759.0</ele><time>2026-05-04T12:00:05Z</time></trkpt><trkpt lat="43.67319748500134" lon="12.099670175269045"><ele>757.0</ele><time>2026-05-04T12:00:06Z</time></trkpt><trkpt lat="43.67309592251904" lon="12.099580612403898"><ele>755.0</ele><time>2026-05-04T12:00:07Z</time></trkpt><trkpt lat="43.67299563109638" lon="12.099485097508552"><ele>755.0</ele><time>2026-05-04T12:00:08Z</time></trkpt><trkpt lat="43.67290541576109" lon="12.099363547797095"><ele>755.0</ele><time>2026-05-04T12:00:09Z</time></trkpt><trkpt lat="43.672802826620675" lon="12.099264172697797"><ele>755.0</ele><time>2026-05-04T12:00:10Z</time></trkpt><trkpt lat="43.67271026090817" lon="12.09915208685294"><ele>755.0</ele><time>2026-05-04T12:00:11Z</time></trkpt><trkpt lat="43.67261740163774" lon="12.099036623264599"><ele>752.75</ele><time>2026-05-04T12:00:12Z</time></trkpt><trkpt lat="43.67252497201455" lon="12.098924689111875"><ele>750.5</ele><time>2026-05-04T12:00:13Z</time></trkpt><trkpt lat="43.67243049981595" lon="12.098806201134693"><ele>748.25</ele><time>2026-05-04T12:00:14Z</time></trkpt><trkpt lat="43.67234078227741" lon="12.098688303521332"><ele>746.0</ele><time>2026-05-04T12:00:15Z</time></trkpt><trkpt lat="43.6722458880811" lon="12.098568078133066"><ele>746.0</ele><time>2026-05-04T12:00:16Z</time></trkpt><trkpt lat="43.67215014357785" lon="12.098447128541931"><ele>746.0</ele><time>2026-05-04T12:00:17Z</time></trkpt><trkpt lat="43.67205801853235" lon="12.098325704158091"><ele>746.0</ele><time>2026-05-04T12:00:18Z</time></trkpt><trkpt lat="43.67196582207473" lon="12.098210221393588"><ele>746.0</ele><time>2026-05-04T12:00:19Z</time></trkpt><trkpt lat="43.67187533395136" lon="12.098097365079225"><ele>744.1999999999999</ele><time>2026-05-04T12:00:20Z</time></trkpt><trkpt lat="43.67178651146089" lon="12.097987190866657"><ele>742.4</ele><time>2026-05-04T12:00:21Z</time></trkpt><trkpt lat="43.671699802052565" lon="12.097890897937265"><ele>740.6</ele><time>2026-05-04T12:00:22Z</time></trkpt><trkpt lat="43.67160687023872" lon="12.097825858277218"><ele>738.8</ele><time>2026-05-04T12:00:23Z</time></trkpt><trkpt lat="43.6715020957394" lon="12.097805969783668"><ele>737.0</ele><time>2026-05-04T12:00:24Z</time></trkpt><trkpt lat="43.67138188531988" lon="12.097795455510374"><ele>737.0</ele><time>2026-05-04T12:00:25Z</time></trkpt><trkpt lat="43.67124477112919" lon="12.097760644260852"><ele>737.0</ele><time>2026-05-04T12:00:26Z</time></trkpt><trkpt lat="43.67111034704382" lon="12.09771573578526"><ele>737.0</ele><time>2026-05-04T12:00:27Z</time></trkpt><trkpt lat="43.67100183724679" lon="12.097673483190963"><ele>737.0</ele><time>2026-05-04T12:00:28Z</time></trkpt><trkpt lat="43.670887273242585" lon="12.097619643028828"><ele>735.4000000000001</ele><time>2026-05-04T12:00:29Z</time></trkpt><trkpt lat="43.67078466076293" lon="12.097545589639136"><ele>733.8000000000001</ele><time>2026-05-04T12:00:30Z</time></trkpt><trkpt lat="43.6707032481688" lon="12.097500065763652"><ele>732.2</ele><time>2026-05-04T12:00:31Z</time></trkpt><trkpt lat="43.67061135921155" lon="12.09747221066967"><ele>730.6</ele><time>2026-05-04T12:00:32Z</time></trkpt><trkpt lat="43.670540517312965" lon="12.097416471193561"><ele>729.0</ele><time>2026-05-04T12:00:33Z</time></trkpt><trkpt lat="43.670477747973564" lon="12.097354309336707"><ele>729.0</ele><time>2026-05-04T12:00:34Z</time></trkpt><trkpt lat="43.67042791713283" lon="12.097268659367224"><ele>729.0</ele><time>2026-05-04T12:00:35Z</time></trkpt><trkpt lat="43.670400848671704" lon="12.097149841762684"><ele>729.0</ele><time>2026-05-04T12:00:36Z</time></trkpt><trkpt lat="43.67038395097528" lon="12.097014771534617"><ele>729.0</ele><time>2026-05-04T12:00:37Z</time></trkpt><trkpt lat="43.670373610905315" lon="12.096885779913828"><ele>729.0</ele><time>2026-05-04T12:00:38Z</time></trkpt><trkpt lat="43.67037088874345" lon="12.096739227055957"><ele>729.0</ele><time>2026-05-04T12:00:39Z</time></trkpt><trkpt lat="43.67037173899117" lon="12.096599130412075"><ele>729.0</ele><time>2026-05-04T12:00:40Z</time></trkpt><trkpt lat="43.67037246660652" lon="12.096466923307286"><ele>729.0</ele><time>2026-05-04T12:00:41Z</time></trkpt><trkpt lat="43.670373507775494" lon="12.096325301624653"><ele>729.0</ele><time>2026-05-04T12:00:42Z</time></trkpt><trkpt lat="43.670372592597495" lon="12.096168362800164"><ele>729.0</ele><time>2026-05-04T12:00:43Z</time></trkpt><trkpt lat="43.67037434941399" lon="12.09600284118995"><ele>726.5</ele><time>2026-05-04T12:00:44Z</time></trkpt><trkpt lat="43.67037567507641" lon="12.095842059702806"><ele>724.0</ele><time>2026-05-04T12:00:45Z</time></trkpt><trkpt lat="43.67037779125019" lon="12.095677263875665"><ele>721.5</ele><time>2026-05-04T12:00:46Z</time></trkpt><trkpt lat="43.670394912579134" lon="12.095511770584295"><ele>719.0</ele><time>2026-05-04T12:00:47Z</time></trkpt><trkpt lat="43.67040108417896" lon="12.095346983177809"><ele>717.4000000000001</ele><time>2026-05-04T12:00:48Z</time></trkpt><trkpt lat="43.67039863955737" lon="12.095187003384495"><ele>715.8</ele><time>2026-05-04T12:00:49Z</time></trkpt><trkpt lat="43.67040036832868" lon="12.095032012524026"><ele>714.2</ele><time>2026-05-04T12:00:50Z</time></trkpt><trkpt lat="43.67040381356521" lon="12.094891559970463"><ele>712.5999999999999</ele><time>2026-05-04T12:00:51Z</time></trkpt><trkpt lat="43.67040244890079" lon="12.094769633217531"><ele>711.0</ele><time>2026-05-04T12:00:52Z</time></trkpt><trkpt lat="43.67039943532299" lon="12.094657485334071"><ele>710.1999999999999</ele><time>2026-05-04T12:00:53Z</time></trkpt><trkpt lat="43.670352657181354" lon="12.094491674388095"><ele>709.4</ele><time>2026-05-04T12:00:55Z</time></trkpt><trkpt lat="43.67025199853896" lon="12.094409039561231"><ele>708.6</ele><time>2026-05-04T12:00:57Z</time></trkpt><trkpt lat="43.67015990897006" lon="12.09440309255723"><ele>707.8</ele><time>2026-05-04T12:00:58Z</time></trkpt><trkpt lat="43.67006477276153" lon="12.09438625783463"><ele>707.0</ele><time>2026-05-04T12:00:59Z</time></trkpt><trkpt lat="43.6699678142445" lon="12.094420412438776"><ele>705.5</ele><time>2026-05-04T12:01:00Z</time></trkpt><trkpt lat="43.66987984985803" lon="12.094413230432744"><ele>704.0</ele><time>2026-05-04T12:01:01Z</time></trkpt><trkpt lat="43.66980941495348" lon="12.094414080621828"><ele>702.5</ele><time>2026-05-04T12:01:02Z</time></trkpt><trkpt lat="43.66970232624136" lon="12.094417442609755"><ele>701.0</ele><time>2026-05-04T12:01:04Z</time></trkpt><trkpt lat="43.66965331862142" lon="12.094354266745746"><ele>699.5</ele><time>2026-05-04T12:01:05Z</time></trkpt><trkpt lat="43.669646639514816" lon="12.094263192601957"><ele>698.0</ele><time>2026-05-04T12:01:06Z</time></trkpt><trkpt lat="43.66969252112833" lon="12.094148319337997"><ele>697.1666666666666</ele><time>2026-05-04T12:01:08Z</time></trkpt><trkpt lat="43.66979429201988" lon="12.094071070023526"><ele>696.3333333333333</ele><time>2026-05-04T12:01:10Z</time></trkpt><trkpt lat="43.66986735537238" lon="12.094078971518105"><ele>695.5</ele><time>2026-05-04T12:01:11Z</time></trkpt><trkpt lat="43.669935756377335" lon="12.094051036476126"><ele>694.6666666666666</ele><time>2026-05-04T12:01:12Z</time></trkpt><trkpt lat="43.6699884036537" lon="12.093903827864994"><ele>693.8333333333334</ele><time>2026-05-04T12:01:14Z</time></trkpt><trkpt lat="43.67000234897169" lon="12.093816431528278"><ele>693.0</ele><time>2026-05-04T12:01:15Z</time></trkpt><trkpt lat="43.669963860075185" lon="12.093727340903726"><ele>693.0</ele><time>2026-05-04T12:01:16Z</time></trkpt><trkpt lat="43.66986490512048" lon="12.093660765952022"><ele>693.0</ele><time>2026-05-04T12:01:17Z</time></trkpt><trkpt lat="43.669792049890866" lon="12.093635949321056"><ele>693.0</ele><time>2026-05-04T12:01:18Z</time></trkpt><trkpt lat="43.66972299659022" lon="12.093596988151626"><ele>693.0</ele><time>2026-05-04T12:01:19Z</time></trkpt><trkpt lat="43.66965473929768" lon="12.093540970252906"><ele>693.0</ele><time>2026-05-04T12:01:20Z</time></trkpt><trkpt lat="43.669606697403644" lon="12.093482890955851"><ele>693.0</ele><time>2026-05-04T12:01:21Z</time></trkpt><trkpt lat="43.66958225901382" lon="12.093383561698708"><ele>693.0</ele><time>2026-05-04T12:01:22Z</time></trkpt><trkpt lat="43.66956905185542" lon="12.09326913159361"><ele>693.0</ele><time>2026-05-04T12:01:23Z</time></trkpt><trkpt lat="43.66958407128478" lon="12.09313447145762"><ele>693.0</ele><time>2026-05-04T12:01:24Z</time></trkpt><trkpt lat="43.669600583141644" lon="12.092990514605392"><ele>693.0</ele><time>2026-05-04T12:01:25Z</time></trkpt><trkpt lat="43.669592088959355" lon="12.09287017790127"><ele>693.0</ele><time>2026-05-04T12:01:26Z</time></trkpt><trkpt lat="43.66960169625717" lon="12.092763242296954"><ele>692.4</ele><time>2026-05-04T12:01:27Z</time></trkpt><trkpt lat="43.66957680051949" lon="12.092661034623196"><ele>691.8</ele><time>2026-05-04T12:01:28Z</time></trkpt><trkpt lat="43.669458979731374" lon="12.092598855849456"><ele>691.2</ele><time>2026-05-04T12:01:29Z</time></trkpt><trkpt lat="43.66936691077943" lon="12.092543605566028"><ele>690.6</ele><time>2026-05-04T12:01:30Z</time></trkpt><trkpt lat="43.66926487323022" lon="12.092491148788069"><ele>690.0</ele><time>2026-05-04T12:01:31Z</time></trkpt><trkpt lat="43.66914212519665" lon="12.092399431747419"><ele>687.75</ele><time>2026-05-04T12:01:32Z</time></trkpt><trkpt lat="43.66902771748981" lon="12.09232671760638"><ele>685.5</ele><time>2026-05-04T12:01:33Z</time></trkpt><trkpt lat="43.668921908151084" lon="12.092242416885897"><ele>683.25</ele><time>2026-05-04T12:01:34Z</time></trkpt><trkpt lat="43.668820335392006" lon="12.092145927999681"><ele>681.0</ele><time>2026-05-04T12:01:35Z</time></trkpt><trkpt lat="43.66873083717138" lon="12.092044304273495"><ele>681.0</ele><time>2026-05-04T12:01:36Z</time></trkpt><trkpt lat="43.66865747875877" lon="12.09193941347653"><ele>681.0</ele><time>2026-05-04T12:01:37Z</time></trkpt><trkpt lat="43.66860182212316" lon="12.091821351693387"><ele>681.0</ele><time>2026-05-04T12:01:38Z</time></trkpt><trkpt lat="43.66855741821983" lon="12.091680663519904"><ele>681.0</ele><time>2026-05-04T12:01:39Z</time></trkpt><trkpt lat="43.66850994485592" lon="12.091508689852283"><ele>678.5999999999999</ele><time>2026-05-04T12:01:40Z</time></trkpt><trkpt lat="43.66846854453522" lon="12.091331199154823"><ele>676.2</ele><time>2026-05-04T12:01:41Z</time></trkpt><trkpt lat="43.66843490632397" lon="12.091192213966984"><ele>673.8</ele><time>2026-05-04T12:01:42Z</time></trkpt><trkpt lat="43.6683913468654" lon="12.091084856488473"><ele>671.4000000000001</ele><time>2026-05-04T12:01:43Z</time></trkpt><trkpt lat="43.668363287892205" lon="12.090962396318362"><ele>669.0</ele><time>2026-05-04T12:01:44Z</time></trkpt><trkpt lat="43.66833581554497" lon="12.09085469016777"><ele>669.0</ele><time>2026-05-04T12:01:45Z</time></trkpt><trkpt lat="43.66824968458852" lon="12.090758978716938"><ele>669.0</ele><time>2026-05-04T12:01:46Z</time></trkpt><trkpt lat="43.66811242548397" lon="12.090677981035316"><ele>669.0</ele><time>2026-05-04T12:01:47Z</time></trkpt><trkpt lat="43.667973737198615" lon="12.09059920806179"><ele>669.0</ele><time>2026-05-04T12:01:48Z</time></trkpt><trkpt lat="43.66783054520554" lon="12.090521894810726"><ele>666.0</ele><time>2026-05-04T12:01:49Z</time></trkpt><trkpt lat="43.66770591318257" lon="12.09045090126889"><ele>663.0</ele><time>2026-05-04T12:01:50Z</time></trkpt><trkpt lat="43.66758091226741" lon="12.0903806907615"><ele>660.0</ele><time>2026-05-04T12:01:51Z</time></trkpt><trkpt lat="43.667453920706016" lon="12.090334167155474"><ele>657.0</ele><time>2026-05-04T12:01:52Z</time></trkpt><trkpt lat="43.667351229227826" lon="12.090252347578033"><ele>657.0</ele><time>2026-05-04T12:01:53Z</time></trkpt><trkpt lat="43.66724084067433" lon="12.09018235689941"><ele>657.0</ele><time>2026-05-04T12:01:54Z</time></trkpt><trkpt lat="43.667144714346485" lon="12.090100517920096"><ele>657.0</ele><time>2026-05-04T12:01:55Z</time></trkpt><trkpt lat="43.667067561766096" lon="12.090022034318569"><ele>657.0</ele><time>2026-05-04T12:01:56Z</time></trkpt><trkpt lat="43.66700919442003" lon="12.089946085613839"><ele>657.0</ele><time>2026-05-04T12:01:57Z</time></trkpt><trkpt lat="43.66696608336345" lon="12.089876090184765"><ele>656.5</ele><time>2026-05-04T12:01:58Z</time></trkpt><trkpt lat="43.66693372041657" lon="12.089797170339228"><ele>656.0</ele><time>2026-05-04T12:01:59Z</time></trkpt><trkpt lat="43.66693206739427" lon="12.089701539685732"><ele>655.5</ele><time>2026-05-04T12:02:00Z</time></trkpt><trkpt lat="43.66696293724944" lon="12.089589911472308"><ele>655.0</ele><time>2026-05-04T12:02:01Z</time></trkpt><trkpt lat="43.66700614809467" lon="12.089493455225545"><ele>654.5</ele><time>2026-05-04T12:02:02Z</time></trkpt><trkpt lat="43.66706937392854" lon="12.089399211383965"><ele>654.0</ele><time>2026-05-04T12:02:03Z</time></trkpt><trkpt lat="43.66716324859392" lon="12.08931970833914"><ele>654.0</ele><time>2026-05-04T12:02:04Z</time></trkpt><trkpt lat="43.6672761682715" lon="12.089234904191688"><ele>654.0</ele><time>2026-05-04T12:02:05Z</time></trkpt><trkpt lat="43.6673820286988" lon="12.089166140425473"><ele>654.0</ele><time>2026-05-04T12:02:06Z</time></trkpt><trkpt lat="43.667477256149304" lon="12.089113520034456"><ele>654.0</ele><time>2026-05-04T12:02:07Z</time></trkpt><trkpt lat="43.66754811602788" lon="12.089046047152452"><ele>654.0</ele><time>2026-05-04T12:02:08Z</time></trkpt><trkpt lat="43.66762153126694" lon="12.089016431585577"><ele>652.6</ele><time>2026-05-04T12:02:09Z</time></trkpt><trkpt lat="43.667676738544394" lon="12.088947390550956"><ele>651.2</ele><time>2026-05-04T12:02:10Z</time></trkpt><trkpt lat="43.66770499440827" lon="12.08882393069773"><ele>649.8000000000001</ele><time>2026-05-04T12:02:11Z</time></trkpt><trkpt lat="43.667712758446385" lon="12.088666862424532"><ele>648.4000000000001</ele><time>2026-05-04T12:02:12Z</time></trkpt><trkpt lat="43.66768965835104" lon="12.088496623548833"><ele>647.0</ele><time>2026-05-04T12:02:13Z</time></trkpt><trkpt lat="43.667701489854906" lon="12.08831857092363"><ele>647.6</ele><time>2026-05-04T12:02:14Z</time></trkpt><trkpt lat="43.667652487095665" lon="12.088142224363294"><ele>648.2</ele><time>2026-05-04T12:02:15Z</time></trkpt><trkpt lat="43.6676374918387" lon="12.087986486733042"><ele>648.8</ele><time>2026-05-04T12:02:16Z</time></trkpt><trkpt lat="43.667617438597794" lon="12.087849464340602"><ele>649.4</ele><time>2026-05-04T12:02:17Z</time></trkpt><trkpt lat="43.66762321961075" lon="12.087726370673249"><ele>650.0</ele><time>2026-05-04T12:02:18Z</time></trkpt><trkpt lat="43.66764588597322" lon="12.087568705083836"><ele>651.0</ele><time>2026-05-04T12:02:19Z</time></trkpt><trkpt lat="43.66767443153356" lon="12.087396770225862"><ele>652.0</ele><time>2026-05-04T12:02:20Z</time></trkpt><trkpt lat="43.66767638716478" lon="12.087209029834796"><ele>653.0</ele><time>2026-05-04T12:02:21Z</time></trkpt><trkpt lat="43.66765696781649" lon="12.08700351641904"><ele>654.0</ele><time>2026-05-04T12:02:22Z</time></trkpt><trkpt lat="43.66761952453803" lon="12.08678227635133"><ele>654.6666666666666</ele><time>2026-05-04T12:02:23Z</time></trkpt><trkpt lat="43.667576734846236" lon="12.086545766043534"><ele>655.3333333333333</ele><time>2026-05-04T12:02:24Z</time></trkpt><trkpt lat="43.66752775533023" lon="12.086340854163543"><ele>656.0</ele><time>2026-05-04T12:02:25Z</time></trkpt><trkpt lat="43.66750933350721" lon="12.086165202158961"><ele>656.0</ele><time>2026-05-04T12:02:26Z</time></trkpt><trkpt lat="43.66748450154928" lon="12.08597578395718"><ele>656.0</ele><time>2026-05-04T12:02:27Z</time></trkpt><trkpt lat="43.66746610457072" lon="12.085781348289245"><ele>656.0</ele><time>2026-05-04T12:02:28Z</time></trkpt><trkpt lat="43.66745205976831" lon="12.085583273276567"><ele>656.0</ele><time>2026-05-04T12:02:29Z</time></trkpt><trkpt lat="43.66743081757009" lon="12.085383611461522"><ele>656.5</ele><time>2026-05-04T12:02:30Z</time></trkpt><trkpt lat="43.66739764407531" lon="12.085199261981751"><ele>657.0</ele><time>2026-05-04T12:02:31Z</time></trkpt><trkpt lat="43.6673522915541" lon="12.085036453734856"><ele>657.5</ele><time>2026-05-04T12:02:32Z</time></trkpt><trkpt lat="43.66731223877792" lon="12.084901957862423"><ele>658.0</ele><time>2026-05-04T12:02:33Z</time></trkpt><trkpt lat="43.667287043410624" lon="12.084777049585798"><ele>658.5</ele><time>2026-05-04T12:02:34Z</time></trkpt><trkpt lat="43.66730095358657" lon="12.084656022756736"><ele>659.0</ele><time>2026-05-04T12:02:35Z</time></trkpt><trkpt lat="43.66732787106646" lon="12.084504421216566"><ele>659.5</ele><time>2026-05-04T12:02:36Z</time></trkpt><trkpt lat="43.667361962913034" lon="12.084332302087747"><ele>660.0</ele><time>2026-05-04T12:02:37Z</time></trkpt><trkpt lat="43.667397188418285" lon="12.084153320292511"><ele>660.0</ele><time>2026-05-04T12:02:38Z</time></trkpt><trkpt lat="43.66742881542062" lon="12.083986539054605"><ele>660.0</ele><time>2026-05-04T12:02:39Z</time></trkpt><trkpt lat="43.66745555230328" lon="12.083852341891445"><ele>660.0</ele><time>2026-05-04T12:02:40Z</time></trkpt><trkpt lat="43.66748613653381" lon="12.083726673383563"><ele>660.0</ele><time>2026-05-04T12:02:41Z</time></trkpt><trkpt lat="43.66751642617029" lon="12.0836185198954"><ele>660.0</ele><time>2026-05-04T12:02:42Z</time></trkpt><trkpt lat="43.66755435193711" lon="12.083530808503385"><ele>660.0</ele><time>2026-05-04T12:02:43Z</time></trkpt><trkpt lat="43.66759983000757" lon="12.08345942561678"><ele>660.0</ele><time>2026-05-04T12:02:44Z</time></trkpt><trkpt lat="43.667675867366206" lon="12.083415228434928"><ele>660.0</ele><time>2026-05-04T12:02:45Z</time></trkpt><trkpt lat="43.66777088919006" lon="12.083379033859737"><ele>660.0</ele><time>2026-05-04T12:02:46Z</time></trkpt><trkpt lat="43.667853838316184" lon="12.083324971277042"><ele>660.0</ele><time>2026-05-04T12:02:47Z</time></trkpt><trkpt lat="43.667918787623755" lon="12.083267643504945"><ele>660.0</ele><time>2026-05-04T12:02:48Z</time></trkpt><trkpt lat="43.66798396455536" lon="12.083139172846248"><ele>660.8333333333334</ele><time>2026-05-04T12:02:50Z</time></trkpt><trkpt lat="43.66797553569311" lon="12.083050657316539"><ele>661.6666666666666</ele><time>2026-05-04T12:02:51Z</time></trkpt><trkpt lat="43.66792065077417" lon="12.082977319064575"><ele>662.5</ele><time>2026-05-04T12:02:52Z</time></trkpt><trkpt lat="43.66786051398008" lon="12.082908855478413"><ele>663.3333333333333</ele><time>2026-05-04T12:02:53Z</time></trkpt><trkpt lat="43.66778754619091" lon="12.0828358199524"><ele>664.1666666666666</ele><time>2026-05-04T12:02:54Z</time></trkpt><trkpt lat="43.667702320203915" lon="12.082754263937618"><ele>665.0</ele><time>2026-05-04T12:02:55Z</time></trkpt><trkpt lat="43.66760773881252" lon="12.082656937136136"><ele>665.0</ele><time>2026-05-04T12:02:56Z</time></trkpt><trkpt lat="43.66752703390693" lon="12.082565438904915"><ele>665.0</ele><time>2026-05-04T12:02:57Z</time></trkpt><trkpt lat="43.66743898918972" lon="12.082478061264947"><ele>665.0</ele><time>2026-05-04T12:02:58Z</time></trkpt><trkpt lat="43.66735687603109" lon="12.082381406385416"><ele>665.0</ele><time>2026-05-04T12:02:59Z</time></trkpt><trkpt lat="43.66727455023086" lon="12.082288164363222"><ele>665.0</ele><time>2026-05-04T12:03:00Z</time></trkpt><trkpt lat="43.667182718012306" lon="12.082190297199135"><ele>663.4</ele><time>2026-05-04T12:03:01Z</time></trkpt><trkpt lat="43.66709936680832" lon="12.082096925124972"><ele>661.8</ele><time>2026-05-04T12:03:02Z</time></trkpt><trkpt lat="43.66704139655983" lon="12.08199145365177"><ele>660.2</ele><time>2026-05-04T12:03:03Z</time></trkpt><trkpt lat="43.66698497742411" lon="12.081899862637384"><ele>658.6</ele><time>2026-05-04T12:03:04Z</time></trkpt><trkpt lat="43.666948346619385" lon="12.081825366505937"><ele>657.0</ele><time>2026-05-04T12:03:05Z</time></trkpt><trkpt lat="43.666938449054896" lon="12.08164533468482"><ele>661.3333333333334</ele><time>2026-05-04T12:03:07Z</time></trkpt><trkpt lat="43.66695726105521" lon="12.081540187959066"><ele>665.6666666666666</ele><time>2026-05-04T12:03:08Z</time></trkpt><trkpt lat="43.666980436896225" lon="12.081450374116855"><ele>670.0</ele><time>2026-05-04T12:03:09Z</time></trkpt><trkpt lat="43.667014823653076" lon="12.081342385804268"><ele>674.3333333333333</ele><time>2026-05-04T12:03:10Z</time></trkpt><trkpt lat="43.66705623497164" lon="12.081216194358651"><ele>678.6666666666666</ele><time>2026-05-04T12:03:11Z</time></trkpt><trkpt lat="43.66710959180552" lon="12.081080597946228"><ele>683.0</ele><time>2026-05-04T12:03:12Z</time></trkpt><trkpt lat="43.66715541488128" lon="12.08095099541426"><ele>683.0</ele><time>2026-05-04T12:03:13Z</time></trkpt><trkpt lat="43.66717782411302" lon="12.080804706845944"><ele>683.0</ele><time>2026-05-04T12:03:14Z</time></trkpt><trkpt lat="43.66716332677492" lon="12.080656686144822"><ele>683.0</ele><time>2026-05-04T12:03:15Z</time></trkpt><trkpt lat="43.667153451961674" lon="12.080544991599213"><ele>683.0</ele><time>2026-05-04T12:03:16Z</time></trkpt><trkpt lat="43.6671512843542" lon="12.080449181683667"><ele>683.0</ele><time>2026-05-04T12:03:17Z</time></trkpt><trkpt lat="43.66720376939139" lon="12.080312458044292"><ele>684.5</ele><time>2026-05-04T12:03:19Z</time></trkpt><trkpt lat="43.66723593453297" lon="12.080226250600932"><ele>686.0</ele><time>2026-05-04T12:03:20Z</time></trkpt><trkpt lat="43.66726326754509" lon="12.08013273606697"><ele>687.5</ele><time>2026-05-04T12:03:21Z</time></trkpt><trkpt lat="43.66728577509312" lon="12.080029783128362"><ele>689.0</ele><time>2026-05-04T12:03:22Z</time></trkpt><trkpt lat="43.667284749036924" lon="12.079919018927056"><ele>690.5</ele><time>2026-05-04T12:03:23Z</time></trkpt><trkpt lat="43.66726704203599" lon="12.07980892861425"><ele>692.0</ele><time>2026-05-04T12:03:24Z</time></trkpt><trkpt lat="43.66721785550112" lon="12.07970072561412"><ele>694.8</ele><time>2026-05-04T12:03:25Z</time></trkpt><trkpt lat="43.66713065308002" lon="12.079625416428042"><ele>697.6</ele><time>2026-05-04T12:03:26Z</time></trkpt><trkpt lat="43.667068951282005" lon="12.079533424112878"><ele>700.4</ele><time>2026-05-04T12:03:27Z</time></trkpt><trkpt lat="43.6670175558291" lon="12.079451380584723"><ele>703.1999999999999</ele><time>2026-05-04T12:03:28Z</time></trkpt><trkpt lat="43.66696216528132" lon="12.079358291076483"><ele>706.0</ele><time>2026-05-04T12:03:29Z</time></trkpt><trkpt lat="43.666907295718154" lon="12.079257149511973"><ele>702.0</ele><time>2026-05-04T12:03:30Z</time></trkpt><trkpt lat="43.66685135088141" lon="12.07913852782817"><ele>698.0</ele><time>2026-05-04T12:03:31Z</time></trkpt><trkpt lat="43.66679604246526" lon="12.079004379794016"><ele>694.0</ele><time>2026-05-04T12:03:32Z</time></trkpt><trkpt lat="43.66674098238781" lon="12.078869956312925"><ele>690.0</ele><time>2026-05-04T12:03:33Z</time></trkpt><trkpt lat="43.666683983422196" lon="12.078735261607811"><ele>686.0</ele><time>2026-05-04T12:03:34Z</time></trkpt><trkpt lat="43.66662017433367" lon="12.078592873229766"><ele>686.0</ele><time>2026-05-04T12:03:35Z</time></trkpt><trkpt lat="43.666541661443524" lon="12.078462958718026"><ele>686.0</ele><time>2026-05-04T12:03:36Z</time></trkpt><trkpt lat="43.66648393934656" lon="12.078318232607046"><ele>686.0</ele><time>2026-05-04T12:03:37Z</time></trkpt><trkpt lat="43.66642560546063" lon="12.078181367927856"><ele>686.0</ele><time>2026-05-04T12:03:38Z</time></trkpt><trkpt lat="43.66637573942816" lon="12.078037840103512"><ele>689.0</ele><time>2026-05-04T12:03:39Z</time></trkpt><trkpt lat="43.666305962596496" lon="12.077910755516509"><ele>692.0</ele><time>2026-05-04T12:03:40Z</time></trkpt><trkpt lat="43.66624859880087" lon="12.077774160291876"><ele>695.0</ele><time>2026-05-04T12:03:41Z</time></trkpt><trkpt lat="43.6661886530586" lon="12.077642206063405"><ele>698.0</ele><time>2026-05-04T12:03:42Z</time></trkpt><trkpt lat="43.66613063931805" lon="12.077498096344115"><ele>693.8</ele><time>2026-05-04T12:03:43Z</time></trkpt><trkpt lat="43.6660716348117" lon="12.077372599683185"><ele>689.5999999999999</ele><time>2026-05-04T12:03:44Z</time></trkpt><trkpt lat="43.66601916887054" lon="12.07725093260186"><ele>685.4000000000001</ele><time>2026-05-04T12:03:45Z</time></trkpt><trkpt lat="43.66597246452207" lon="12.077134815607215"><ele>681.2</ele><time>2026-05-04T12:03:46Z</time></trkpt><trkpt lat="43.66593932915619" lon="12.076997639622544"><ele>677.0</ele><time>2026-05-04T12:03:47Z</time></trkpt><trkpt lat="43.665905513258906" lon="12.07687575477312"><ele>677.0</ele><time>2026-05-04T12:03:48Z</time></trkpt><trkpt lat="43.665855816761315" lon="12.076763645580446"><ele>677.0</ele><time>2026-05-04T12:03:49Z</time></trkpt><trkpt lat="43.665825827070954" lon="12.076631712255333"><ele>677.0</ele><time>2026-05-04T12:03:50Z</time></trkpt><trkpt lat="43.66578608508201" lon="12.076503127081583"><ele>677.0</ele><time>2026-05-04T12:03:51Z</time></trkpt><trkpt lat="43.66574601549967" lon="12.076383464648764"><ele>677.0</ele><time>2026-05-04T12:03:52Z</time></trkpt><trkpt lat="43.66572257872662" lon="12.07626304949455"><ele>678.4000000000001</ele><time>2026-05-04T12:03:53Z</time></trkpt><trkpt lat="43.665718269791405" lon="12.076132209571734"><ele>679.8000000000001</ele><time>2026-05-04T12:03:54Z</time></trkpt><trkpt lat="43.66568441649995" lon="12.076013340058038"><ele>681.2</ele><time>2026-05-04T12:03:55Z</time></trkpt><trkpt lat="43.66563294919231" lon="12.075914588628493"><ele>682.6</ele><time>2026-05-04T12:03:56Z</time></trkpt><trkpt lat="43.66552454187012" lon="12.075849416001004"><ele>684.0</ele><time>2026-05-04T12:03:57Z</time></trkpt><trkpt lat="43.665450347483336" lon="12.07574611649277"><ele>682.2</ele><time>2026-05-04T12:03:58Z</time></trkpt><trkpt lat="43.6653729270115" lon="12.075657700035489"><ele>680.4000000000001</ele><time>2026-05-04T12:03:59Z</time></trkpt><trkpt lat="43.66530650518079" lon="12.075554726963668"><ele>678.6</ele><time>2026-05-04T12:04:00Z</time></trkpt><trkpt lat="43.66522965401988" lon="12.075434986144053"><ele>676.8</ele><time>2026-05-04T12:04:01Z</time></trkpt><trkpt lat="43.665158008384516" lon="12.075323355687054"><ele>675.0</ele><time>2026-05-04T12:04:02Z</time></trkpt><trkpt lat="43.665109341749826" lon="12.075222995990766"><ele>675.0</ele><time>2026-05-04T12:04:03Z</time></trkpt><trkpt lat="43.665071793923545" lon="12.075128370993603"><ele>675.0</ele><time>2026-05-04T12:04:04Z</time></trkpt><trkpt lat="43.6650257622111" lon="12.074991428752991"><ele>675.0</ele><time>2026-05-04T12:04:05Z</time></trkpt><trkpt lat="43.6649831891522" lon="12.074860861364533"><ele>675.0</ele><time>2026-05-04T12:04:06Z</time></trkpt><trkpt lat="43.66490369907616" lon="12.074733692553862"><ele>675.0</ele><time>2026-05-04T12:04:07Z</time></trkpt><trkpt lat="43.6648218664024" lon="12.074599813405"><ele>676.5</ele><time>2026-05-04T12:04:08Z</time></trkpt><trkpt lat="43.664731651006974" lon="12.074478695069775"><ele>678.0</ele><time>2026-05-04T12:04:09Z</time></trkpt><trkpt lat="43.664641246821446" lon="12.074363495972808"><ele>679.5</ele><time>2026-05-04T12:04:10Z</time></trkpt><trkpt lat="43.664544027140415" lon="12.074264971240154"><ele>681.0</ele><time>2026-05-04T12:04:11Z</time></trkpt><trkpt lat="43.66447418124609" lon="12.074163658346853"><ele>677.0</ele><time>2026-05-04T12:04:12Z</time></trkpt><trkpt lat="43.664398112345815" lon="12.074064564968737"><ele>673.0</ele><time>2026-05-04T12:04:13Z</time></trkpt><trkpt lat="43.664332618111736" lon="12.073947284806485"><ele>669.0</ele><time>2026-05-04T12:04:14Z</time></trkpt><trkpt lat="43.66428514983733" lon="12.073829593504565"><ele>665.0</ele><time>2026-05-04T12:04:15Z</time></trkpt><trkpt lat="43.66425493361344" lon="12.073702053899522"><ele>661.0</ele><time>2026-05-04T12:04:16Z</time></trkpt><trkpt lat="43.664248946262504" lon="12.073564933350534"><ele>661.0</ele><time>2026-05-04T12:04:17Z</time></trkpt><trkpt lat="43.66426144907447" lon="12.073407086484083"><ele>661.0</ele><time>2026-05-04T12:04:18Z</time></trkpt><trkpt lat="43.66426107733396" lon="12.073241406635502"><ele>661.0</ele><time>2026-05-04T12:04:19Z</time></trkpt><trkpt lat="43.66425412711599" lon="12.073092547219451"><ele>661.0</ele><time>2026-05-04T12:04:20Z</time></trkpt><trkpt lat="43.66423285651471" lon="12.072943858967436"><ele>660.5999999999999</ele><time>2026-05-04T12:04:21Z</time></trkpt><trkpt lat="43.66419449067676" lon="12.072806024690712"><ele>660.2</ele><time>2026-05-04T12:04:22Z</time></trkpt><trkpt lat="43.66411947424944" lon="12.072702579868048"><ele>659.8</ele><time>2026-05-04T12:04:23Z</time></trkpt><trkpt lat="43.66405178646674" lon="12.072595163560923"><ele>659.4000000000001</ele><time>2026-05-04T12:04:24Z</time></trkpt><trkpt lat="43.663982538017514" lon="12.07249706288909"><ele>659.0</ele><time>2026-05-04T12:04:25Z</time></trkpt><trkpt lat="43.66396037643818" lon="12.072380432996002"><ele>658.4000000000001</ele><time>2026-05-04T12:04:26Z</time></trkpt><trkpt lat="43.66394423637008" lon="12.072270627820211"><ele>657.8</ele><time>2026-05-04T12:04:27Z</time></trkpt><trkpt lat="43.6639549325637" lon="12.072151863961228"><ele>657.2</ele><time>2026-05-04T12:04:28Z</time></trkpt><trkpt lat="43.663972468887756" lon="12.072021616403427"><ele>656.5999999999999</ele><time>2026-05-04T12:04:29Z</time></trkpt><trkpt lat="43.66399172352034" lon="12.071872017927634"><ele>656.0</ele><time>2026-05-04T12:04:30Z</time></trkpt><trkpt lat="43.66400064897361" lon="12.071704146432795"><ele>654.1999999999999</ele><time>2026-05-04T12:04:31Z</time></trkpt><trkpt lat="43.66399608803331" lon="12.071532936269053"><ele>652.4</ele><time>2026-05-04T12:04:32Z</time></trkpt><trkpt lat="43.66398664332089" lon="12.071372382589635"><ele>650.6</ele><time>2026-05-04T12:04:33Z</time></trkpt><trkpt lat="43.66398030611249" lon="12.071224470944541"><ele>648.8</ele><time>2026-05-04T12:04:34Z</time></trkpt><trkpt lat="43.6639766611288" lon="12.071087827758626"><ele>647.0</ele><time>2026-05-04T12:04:35Z</time></trkpt><trkpt lat="43.66397524912009" lon="12.070952382697275"><ele>647.0</ele><time>2026-05-04T12:04:36Z</time></trkpt><trkpt lat="43.66397782704285" lon="12.07082110249284"><ele>647.0</ele><time>2026-05-04T12:04:37Z</time></trkpt><trkpt lat="43.66398373812307" lon="12.070693301650737"><ele>647.0</ele><time>2026-05-04T12:04:38Z</time></trkpt><trkpt lat="43.66399280613037" lon="12.070559288342983"><ele>647.0</ele><time>2026-05-04T12:04:39Z</time></trkpt><trkpt lat="43.66400424798201" lon="12.070408708835977"><ele>647.0</ele><time>2026-05-04T12:04:40Z</time></trkpt><trkpt lat="43.664011731246795" lon="12.070249855270438"><ele>646.0</ele><time>2026-05-04T12:04:41Z</time></trkpt><trkpt lat="43.664000202807934" lon="12.070098661350134"><ele>645.0</ele><time>2026-05-04T12:04:42Z</time></trkpt><trkpt lat="43.66401463508059" lon="12.06995099832089"><ele>644.0</ele><time>2026-05-04T12:04:43Z</time></trkpt><trkpt lat="43.664010511496734" lon="12.069805574873575"><ele>643.0</ele><time>2026-05-04T12:04:44Z</time></trkpt><trkpt lat="43.66402828220032" lon="12.069657389081758"><ele>642.0</ele><time>2026-05-04T12:04:45Z</time></trkpt><trkpt lat="43.664039342734355" lon="12.069514505295901"><ele>641.0</ele><time>2026-05-04T12:04:46Z</time></trkpt><trkpt lat="43.66405283223761" lon="12.069369531208501"><ele>640.0</ele><time>2026-05-04T12:04:47Z</time></trkpt><trkpt lat="43.66405711088921" lon="12.069232886700549"><ele>639.0</ele><time>2026-05-04T12:04:48Z</time></trkpt><trkpt lat="43.664079922572455" lon="12.069084221006522"><ele>638.0</ele><time>2026-05-04T12:04:49Z</time></trkpt><trkpt lat="43.66411169581654" lon="12.06893278275227"><ele>637.0</ele><time>2026-05-04T12:04:50Z</time></trkpt><trkpt lat="43.664149476486884" lon="12.06879213947496"><ele>636.2</ele><time>2026-05-04T12:04:51Z</time></trkpt><trkpt lat="43.66417166877408" lon="12.068651016372222"><ele>635.4000000000001</ele><time>2026-05-04T12:04:52Z</time></trkpt><trkpt lat="43.66419571768839" lon="12.068511519178506"><ele>634.5999999999999</ele><time>2026-05-04T12:04:53Z</time></trkpt><trkpt lat="43.66422536368606" lon="12.068375375475592"><ele>633.8</ele><time>2026-05-04T12:04:54Z</time></trkpt><trkpt lat="43.66422875718402" lon="12.068228171327183"><ele>633.0</ele><time>2026-05-04T12:04:55Z</time></trkpt><trkpt lat="43.66423223077292" lon="12.068093505415375"><ele>631.8</ele><time>2026-05-04T12:04:56Z</time></trkpt><trkpt lat="43.66422476099663" lon="12.067954554090486"><ele>630.5999999999999</ele><time>2026-05-04T12:04:57Z</time></trkpt><trkpt lat="43.664204269196226" lon="12.067826830446409"><ele>629.4000000000001</ele><time>2026-05-04T12:04:58Z</time></trkpt><trkpt lat="43.6641797330994" lon="12.067700150846527"><ele>628.2</ele><time>2026-05-04T12:04:59Z</time></trkpt><trkpt lat="43.66415339188177" lon="12.067583562247734"><ele>627.0</ele><time>2026-05-04T12:05:00Z</time></trkpt><trkpt lat="43.664122419314964" lon="12.067475463867387"><ele>624.6</ele><time>2026-05-04T12:05:01Z</time></trkpt><trkpt lat="43.66410273389281" lon="12.067379361630602"><ele>622.2</ele><time>2026-05-04T12:05:02Z</time></trkpt><trkpt lat="43.664106020477135" lon="12.067252787920458"><ele>619.8</ele><time>2026-05-04T12:05:03Z</time></trkpt><trkpt lat="43.66413927946831" lon="12.067133003835188"><ele>617.4</ele><time>2026-05-04T12:05:04Z</time></trkpt><trkpt lat="43.66418275709228" lon="12.06701237340408"><ele>615.0</ele><time>2026-05-04T12:05:05Z</time></trkpt><trkpt lat="43.664237764546115" lon="12.066861887559774"><ele>615.0</ele><time>2026-05-04T12:05:06Z</time></trkpt><trkpt lat="43.6642891408284" lon="12.066726463239707"><ele>615.0</ele><time>2026-05-04T12:05:07Z</time></trkpt><trkpt lat="43.6643454522081" lon="12.066600109963252"><ele>615.0</ele><time>2026-05-04T12:05:08Z</time></trkpt><trkpt lat="43.66441399894125" lon="12.066478493463208"><ele>615.0</ele><time>2026-05-04T12:05:09Z</time></trkpt><trkpt lat="43.66446448079879" lon="12.066345484653928"><ele>615.0</ele><time>2026-05-04T12:05:10Z</time></trkpt><trkpt lat="43.6645149954319" lon="12.066241341054985"><ele>615.6</ele><time>2026-05-04T12:05:11Z</time></trkpt><trkpt lat="43.66459154243108" lon="12.066170342746137"><ele>616.2</ele><time>2026-05-04T12:05:12Z</time></trkpt><trkpt lat="43.664646163526896" lon="12.066107868964243"><ele>616.8</ele><time>2026-05-04T12:05:13Z</time></trkpt><trkpt lat="43.66472698355403" lon="12.066038288784009"><ele>617.4</ele><time>2026-05-04T12:05:14Z</time></trkpt><trkpt lat="43.66484286241067" lon="12.066003822938697"><ele>618.0</ele><time>2026-05-04T12:05:15Z</time></trkpt><trkpt lat="43.66494816707354" lon="12.06593506243533"><ele>618.0</ele><time>2026-05-04T12:05:16Z</time></trkpt><trkpt lat="43.66504808577611" lon="12.065872902897864"><ele>618.0</ele><time>2026-05-04T12:05:17Z</time></trkpt><trkpt lat="43.66514860726631" lon="12.065820649754398"><ele>618.0</ele><time>2026-05-04T12:05:18Z</time></trkpt><trkpt lat="43.665244064318" lon="12.06579226827273"><ele>618.0</ele><time>2026-05-04T12:05:19Z</time></trkpt><trkpt lat="43.66533139305221" lon="12.06575169313435"><ele>618.0</ele><time>2026-05-04T12:05:20Z</time></trkpt><trkpt lat="43.66541138189878" lon="12.065728014340227"><ele>618.6666666666666</ele><time>2026-05-04T12:05:21Z</time></trkpt><trkpt lat="43.665487084536196" lon="12.065690252805645"><ele>619.3333333333334</ele><time>2026-05-04T12:05:22Z</time></trkpt><trkpt lat="43.66555300643273" lon="12.065651093367816"><ele>620.0</ele><time>2026-05-04T12:05:23Z</time></trkpt><trkpt lat="43.665602996400565" lon="12.065496029479245"><ele>620.6666666666667</ele><time>2026-05-04T12:05:25Z</time></trkpt><trkpt lat="43.66559189319567" lon="12.065396221473186"><ele>621.3333333333334</ele><time>2026-05-04T12:05:26Z</time></trkpt><trkpt lat="43.66557314952484" lon="12.065282822212767"><ele>622.0</ele><time>2026-05-04T12:05:27Z</time></trkpt><trkpt lat="43.66548940660484" lon="12.065191009476337"><ele>622.0</ele><time>2026-05-04T12:05:28Z</time></trkpt><trkpt lat="43.665390534092666" lon="12.065080821394583"><ele>622.0</ele><time>2026-05-04T12:05:29Z</time></trkpt><trkpt lat="43.66530594666682" lon="12.064984712697077"><ele>622.0</ele><time>2026-05-04T12:05:30Z</time></trkpt><trkpt lat="43.66522884862767" lon="12.064890911545627"><ele>622.0</ele><time>2026-05-04T12:05:31Z</time></trkpt><trkpt lat="43.66517456739959" lon="12.064789651359753"><ele>622.0</ele><time>2026-05-04T12:05:32Z</time></trkpt><trkpt lat="43.66512759425121" lon="12.064644650171369"><ele>619.6</ele><time>2026-05-04T12:05:34Z</time></trkpt><trkpt lat="43.66515281756251" lon="12.06454835071746"><ele>617.2</ele><time>2026-05-04T12:05:35Z</time></trkpt><trkpt lat="43.66524000432352" lon="12.06444712528499"><ele>614.8</ele><time>2026-05-04T12:05:36Z</time></trkpt><trkpt lat="43.66529915954204" lon="12.064305577541216"><ele>612.4</ele><time>2026-05-04T12:05:37Z</time></trkpt><trkpt lat="43.66536378499665" lon="12.064168673153942"><ele>610.0</ele><time>2026-05-04T12:05:38Z</time></trkpt><trkpt lat="43.66542698278232" lon="12.064048105483979"><ele>606.8</ele><time>2026-05-04T12:05:39Z</time></trkpt><trkpt lat="43.665492052835" lon="12.063948130585144"><ele>603.6</ele><time>2026-05-04T12:05:40Z</time></trkpt><trkpt lat="43.665556189745914" lon="12.063873630320055"><ele>600.4</ele><time>2026-05-04T12:05:41Z</time></trkpt><trkpt lat="43.66560524760154" lon="12.063778721830923"><ele>597.2</ele><time>2026-05-04T12:05:42Z</time></trkpt><trkpt lat="43.66565316385534" lon="12.063682471371987"><ele>594.0</ele><time>2026-05-04T12:05:44Z</time></trkpt><trkpt lat="43.66557696380467" lon="12.063551641144205"><ele>594.0</ele><time>2026-05-04T12:05:46Z</time></trkpt><trkpt lat="43.665461033223615" lon="12.06357296567959"><ele>594.0</ele><time>2026-05-04T12:05:47Z</time></trkpt><trkpt lat="43.665374203443214" lon="12.063638658921505"><ele>594.0</ele><time>2026-05-04T12:05:48Z</time></trkpt><trkpt lat="43.66527495328211" lon="12.063694249493986"><ele>594.0</ele><time>2026-05-04T12:05:49Z</time></trkpt><trkpt lat="43.66517736259951" lon="12.063748429578245"><ele>594.0</ele><time>2026-05-04T12:05:50Z</time></trkpt><trkpt lat="43.66508694880863" lon="12.063777834216763"><ele>594.0</ele><time>2026-05-04T12:05:51Z</time></trkpt><trkpt lat="43.66499976593741" lon="12.063820647337254"><ele>594.0</ele><time>2026-05-04T12:05:52Z</time></trkpt><trkpt lat="43.66491504941669" lon="12.063886898698506"><ele>594.0</ele><time>2026-05-04T12:05:53Z</time></trkpt><trkpt lat="43.66481529256669" lon="12.063978326734784"><ele>594.0</ele><time>2026-05-04T12:05:54Z</time></trkpt><trkpt lat="43.66474094518238" lon="12.064077380419928"><ele>594.0</ele><time>2026-05-04T12:05:55Z</time></trkpt><trkpt lat="43.66465856368798" lon="12.064152702989999"><ele>594.0</ele><time>2026-05-04T12:05:56Z</time></trkpt><trkpt lat="43.6645805293166" lon="12.064192161584685"><ele>594.0</ele><time>2026-05-04T12:05:57Z</time></trkpt><trkpt lat="43.66449131044639" lon="12.06419580472759"><ele>594.0</ele><time>2026-05-04T12:05:58Z</time></trkpt><trkpt lat="43.66439494335944" lon="12.064217078983487"><ele>594.0</ele><time>2026-05-04T12:05:59Z</time></trkpt><trkpt lat="43.664303543937415" lon="12.064186107967345"><ele>594.0</ele><time>2026-05-04T12:06:00Z</time></trkpt><trkpt lat="43.66420839071783" lon="12.06421829859518"><ele>591.2</ele><time>2026-05-04T12:06:01Z</time></trkpt><trkpt lat="43.66412904750432" lon="12.064294553614527"><ele>588.4</ele><time>2026-05-04T12:06:02Z</time></trkpt><trkpt lat="43.66407729234969" lon="12.064391013846434"><ele>585.6</ele><time>2026-05-04T12:06:03Z</time></trkpt><trkpt lat="43.663984901120635" lon="12.064451253536962"><ele>582.8</ele><time>2026-05-04T12:06:05Z</time></trkpt><trkpt lat="43.66391455315408" lon="12.064341411445678"><ele>580.0</ele><time>2026-05-04T12:06:07Z</time></trkpt><trkpt lat="43.663931428270615" lon="12.064229933740256"><ele>580.0</ele><time>2026-05-04T12:06:08Z</time></trkpt><trkpt lat="43.66394560650712" lon="12.064117332995426"><ele>580.0</ele><time>2026-05-04T12:06:09Z</time></trkpt><trkpt lat="43.66395707106134" lon="12.063974567043527"><ele>580.0</ele><time>2026-05-04T12:06:10Z</time></trkpt><trkpt lat="43.66396539693545" lon="12.063843401437138"><ele>580.0</ele><time>2026-05-04T12:06:11Z</time></trkpt><trkpt lat="43.663975311764084" lon="12.063723857228469"><ele>580.0</ele><time>2026-05-04T12:06:12Z</time></trkpt><trkpt lat="43.66398775440143" lon="12.063621766481841"><ele>580.0</ele><time>2026-05-04T12:06:13Z</time></trkpt><trkpt lat="43.6640035759222" lon="12.063527831576005"><ele>578.2</ele><time>2026-05-04T12:06:14Z</time></trkpt><trkpt lat="43.66406343979741" lon="12.06344147685995"><ele>576.4</ele><time>2026-05-04T12:06:15Z</time></trkpt><trkpt lat="43.66416237813964" lon="12.063387143869155"><ele>574.6</ele><time>2026-05-04T12:06:16Z</time></trkpt><trkpt lat="43.66422752160252" lon="12.063307613246403"><ele>572.8</ele><time>2026-05-04T12:06:17Z</time></trkpt><trkpt lat="43.66428213134292" lon="12.063203398698224"><ele>571.0</ele><time>2026-05-04T12:06:18Z</time></trkpt><trkpt lat="43.66428144990906" lon="12.063057822972565"><ele>570.5</ele><time>2026-05-04T12:06:19Z</time></trkpt><trkpt lat="43.66431527076311" lon="12.06294920095841"><ele>570.0</ele><time>2026-05-04T12:06:20Z</time></trkpt><trkpt lat="43.6643675118647" lon="12.06286001431037"><ele>569.5</ele><time>2026-05-04T12:06:21Z</time></trkpt><trkpt lat="43.66444742063308" lon="12.062833041989153"><ele>569.0</ele><time>2026-05-04T12:06:22Z</time></trkpt><trkpt lat="43.66448162439273" lon="12.06275861972021"><ele>568.5</ele><time>2026-05-04T12:06:23Z</time></trkpt><trkpt lat="43.66450593310545" lon="12.062624664794198"><ele>568.0</ele><time>2026-05-04T12:06:25Z</time></trkpt><trkpt lat="43.664428923578114" lon="12.062494210790943"><ele>566.1999999999999</ele><time>2026-05-04T12:06:27Z</time></trkpt><trkpt lat="43.66433008548754" lon="12.062507190313118"><ele>564.4</ele><time>2026-05-04T12:06:28Z</time></trkpt><trkpt lat="43.66424704443727" lon="12.062573479103323"><ele>562.5999999999999</ele><time>2026-05-04T12:06:29Z</time></trkpt><trkpt lat="43.66416103065243" lon="12.06254518581255"><ele>560.8</ele><time>2026-05-04T12:06:30Z</time></trkpt><trkpt lat="43.664061903475336" lon="12.062504712129273"><ele>559.0</ele><time>2026-05-04T12:06:31Z</time></trkpt><trkpt lat="43.66395768395832" lon="12.062480852417101"><ele>557.2</ele><time>2026-05-04T12:06:32Z</time></trkpt><trkpt lat="43.663860387323275" lon="12.06244058894754"><ele>555.4</ele><time>2026-05-04T12:06:33Z</time></trkpt><trkpt lat="43.663760346854694" lon="12.062427630261237"><ele>553.6</ele><time>2026-05-04T12:06:34Z</time></trkpt><trkpt lat="43.66366489918691" lon="12.062386378872471"><ele>551.8</ele><time>2026-05-04T12:06:35Z</time></trkpt><trkpt lat="43.66358536243595" lon="12.062389318610217"><ele>550.0</ele><time>2026-05-04T12:06:36Z</time></trkpt><trkpt lat="43.66351235996647" lon="12.062416350726359"><ele>551.6</ele><time>2026-05-04T12:06:37Z</time></trkpt><trkpt lat="43.66342112321088" lon="12.062562430056477"><ele>553.2</ele><time>2026-05-04T12:06:39Z</time></trkpt><trkpt lat="43.66339326931557" lon="12.06268518211289"><ele>554.8</ele><time>2026-05-04T12:06:40Z</time></trkpt><trkpt lat="43.663408900679016" lon="12.062809465906279"><ele>556.4</ele><time>2026-05-04T12:06:41Z</time></trkpt><trkpt lat="43.663347062657515" lon="12.062922994812473"><ele>558.0</ele><time>2026-05-04T12:06:43Z</time></trkpt><trkpt lat="43.66325362951127" lon="12.06289058964751"><ele>558.0</ele><time>2026-05-04T12:06:45Z</time></trkpt><trkpt lat="43.66324051725297" lon="12.062782462980396"><ele>558.0</ele><time>2026-05-04T12:06:46Z</time></trkpt><trkpt lat="43.66322709053852" lon="12.062688431640623"><ele>558.0</ele><time>2026-05-04T12:06:47Z</time></trkpt><trkpt lat="43.66318811452002" lon="12.062569147605489"><ele>558.0</ele><time>2026-05-04T12:06:48Z</time></trkpt><trkpt lat="43.66314394782247" lon="12.062438468734792"><ele>558.0</ele><time>2026-05-04T12:06:49Z</time></trkpt><trkpt lat="43.66309996843788" lon="12.062306951890356"><ele>556.6666666666666</ele><time>2026-05-04T12:06:50Z</time></trkpt><trkpt lat="43.66304531419953" lon="12.06219504305993"><ele>555.3333333333334</ele><time>2026-05-04T12:06:51Z</time></trkpt><trkpt lat="43.663020926983215" lon="12.062064048007239"><ele>554.0</ele><time>2026-05-04T12:06:52Z</time></trkpt><trkpt lat="43.66298264266134" lon="12.061946395641328"><ele>552.6666666666667</ele><time>2026-05-04T12:06:53Z</time></trkpt><trkpt lat="43.66295098691003" lon="12.061842165271882"><ele>551.3333333333334</ele><time>2026-05-04T12:06:54Z</time></trkpt><trkpt lat="43.66291976881068" lon="12.06174360564244"><ele>550.0</ele><time>2026-05-04T12:06:55Z</time></trkpt><trkpt lat="43.66291694427756" lon="12.061628437172796"><ele>547.4</ele><time>2026-05-04T12:06:56Z</time></trkpt><trkpt lat="43.66295251076564" lon="12.061525181167397"><ele>544.8</ele><time>2026-05-04T12:06:57Z</time></trkpt><trkpt lat="43.66300056482386" lon="12.061414766251742"><ele>542.2</ele><time>2026-05-04T12:06:58Z</time></trkpt><trkpt lat="43.66309180919481" lon="12.061341933923856"><ele>539.6</ele><time>2026-05-04T12:06:59Z</time></trkpt><trkpt lat="43.66317871968312" lon="12.061259923326952"><ele>537.0</ele><time>2026-05-04T12:07:00Z</time></trkpt><trkpt lat="43.66325061842881" lon="12.061187004581525"><ele>537.0</ele><time>2026-05-04T12:07:01Z</time></trkpt><trkpt lat="43.66330436687177" lon="12.061121951855418"><ele>537.0</ele><time>2026-05-04T12:07:02Z</time></trkpt><trkpt lat="43.66334736257362" lon="12.060977484057481"><ele>537.0</ele><time>2026-05-04T12:07:04Z</time></trkpt><trkpt lat="43.663296442687596" lon="12.060883053742733"><ele>537.0</ele><time>2026-05-04T12:07:05Z</time></trkpt><trkpt lat="43.663241435120284" lon="12.06081766259007"><ele>537.0</ele><time>2026-05-04T12:07:06Z</time></trkpt><trkpt lat="43.66318419263606" lon="12.060743158884675"><ele>537.0</ele><time>2026-05-04T12:07:07Z</time></trkpt><trkpt lat="43.66309290215011" lon="12.06065008364392"><ele>536.0</ele><time>2026-05-04T12:07:08Z</time></trkpt><trkpt lat="43.6630081080433" lon="12.060583881528345"><ele>535.0</ele><time>2026-05-04T12:07:09Z</time></trkpt><trkpt lat="43.66292164027074" lon="12.060518911765707"><ele>534.0</ele><time>2026-05-04T12:07:10Z</time></trkpt><trkpt lat="43.66284416338291" lon="12.060460697509873"><ele>533.0</ele><time>2026-05-04T12:07:11Z</time></trkpt><trkpt lat="43.662771295386456" lon="12.060407541380583"><ele>532.0</ele><time>2026-05-04T12:07:12Z</time></trkpt><trkpt lat="43.662685397450495" lon="12.060362788327058"><ele>529.2</ele><time>2026-05-04T12:07:13Z</time></trkpt><trkpt lat="43.66258200515666" lon="12.06033929619593"><ele>526.4000000000001</ele><time>2026-05-04T12:07:14Z</time></trkpt><trkpt lat="43.66247672655348" lon="12.060338960768451"><ele>523.5999999999999</ele><time>2026-05-04T12:07:15Z</time></trkpt><trkpt lat="43.66239439976113" lon="12.060316730567125"><ele>520.8</ele><time>2026-05-04T12:07:16Z</time></trkpt><trkpt lat="43.66231429625437" lon="12.060269060234601"><ele>518.0</ele><time>2026-05-04T12:07:17Z</time></trkpt><trkpt lat="43.66223077066502" lon="12.060182463633348"><ele>518.0</ele><time>2026-05-04T12:07:18Z</time></trkpt><trkpt lat="43.662167085993424" lon="12.06010473814824"><ele>518.0</ele><time>2026-05-04T12:07:19Z</time></trkpt><trkpt lat="43.66211165520373" lon="12.060026974941612"><ele>518.0</ele><time>2026-05-04T12:07:20Z</time></trkpt><trkpt lat="43.6620479869707" lon="12.05995859895372"><ele>518.0</ele><time>2026-05-04T12:07:21Z</time></trkpt><trkpt lat="43.662017984749646" lon="12.059873640786078"><ele>518.0</ele><time>2026-05-04T12:07:22Z</time></trkpt><trkpt lat="43.66200913000987" lon="12.059784640814932"><ele>518.0</ele><time>2026-05-04T12:07:23Z</time></trkpt><trkpt lat="43.66205275319176" lon="12.059709635394245"><ele>518.0</ele><time>2026-05-04T12:07:24Z</time></trkpt><trkpt lat="43.66215274541938" lon="12.059652159662802"><ele>516.3333333333333</ele><time>2026-05-04T12:07:26Z</time></trkpt><trkpt lat="43.66222075915823" lon="12.059639706387193"><ele>514.6666666666666</ele><time>2026-05-04T12:07:27Z</time></trkpt><trkpt lat="43.662297585484175" lon="12.059674142008127"><ele>513.0</ele><time>2026-05-04T12:07:28Z</time></trkpt><trkpt lat="43.66238630211969" lon="12.059718690924289"><ele>511.33333333333337</ele><time>2026-05-04T12:07:29Z</time></trkpt><trkpt lat="43.66246581606834" lon="12.059755418304333"><ele>509.6666666666667</ele><time>2026-05-04T12:07:30Z</time></trkpt><trkpt lat="43.662556272723606" lon="12.059774877172442"><ele>508.0</ele><time>2026-05-04T12:07:31Z</time></trkpt><trkpt lat="43.662634913397" lon="12.059781513106067"><ele>508.00000000000006</ele><time>2026-05-04T12:07:32Z</time></trkpt><trkpt lat="43.66271278697347" lon="12.05976896549263"><ele>508.0</ele><time>2026-05-04T12:07:33Z</time></trkpt><trkpt lat="43.66277704985834" lon="12.059767194835265"><ele>508.0</ele><time>2026-05-04T12:07:34Z</time></trkpt><trkpt lat="43.66285198176277" lon="12.059645402360331"><ele>508.0</ele><time>2026-05-04T12:07:36Z</time></trkpt><trkpt lat="43.662842101579464" lon="12.059520167089264"><ele>508.00000000000006</ele><time>2026-05-04T12:07:37Z</time></trkpt><trkpt lat="43.66279556418914" lon="12.0594216951306"><ele>508.0</ele><time>2026-05-04T12:07:38Z</time></trkpt><trkpt lat="43.66275728133105" lon="12.059272362444538"><ele>507.25</ele><time>2026-05-04T12:07:39Z</time></trkpt><trkpt lat="43.66271127309544" lon="12.059107384911536"><ele>506.5</ele><time>2026-05-04T12:07:40Z</time></trkpt><trkpt lat="43.662667584131086" lon="12.05894909002098"><ele>505.75</ele><time>2026-05-04T12:07:41Z</time></trkpt><trkpt lat="43.66261859733671" lon="12.058813408289588"><ele>505.0</ele><time>2026-05-04T12:07:42Z</time></trkpt><trkpt lat="43.66258522305702" lon="12.058673786481318"><ele>505.0</ele><time>2026-05-04T12:07:43Z</time></trkpt><trkpt lat="43.66254114100044" lon="12.058531810996701"><ele>505.0</ele><time>2026-05-04T12:07:44Z</time></trkpt><trkpt lat="43.66246906396959" lon="12.05839888219792"><ele>505.0</ele><time>2026-05-04T12:07:45Z</time></trkpt><trkpt lat="43.66241641395603" lon="12.058255083494014"><ele>505.0</ele><time>2026-05-04T12:07:46Z</time></trkpt><trkpt lat="43.662356380281224" lon="12.058128404735463"><ele>505.50000000000006</ele><time>2026-05-04T12:07:47Z</time></trkpt><trkpt lat="43.662309712880116" lon="12.057990238444635"><ele>506.0</ele><time>2026-05-04T12:07:48Z</time></trkpt><trkpt lat="43.66228218097246" lon="12.057857955322618"><ele>506.5</ele><time>2026-05-04T12:07:49Z</time></trkpt><trkpt lat="43.66226393915459" lon="12.057735024716894"><ele>507.0</ele><time>2026-05-04T12:07:50Z</time></trkpt><trkpt lat="43.66227334951852" lon="12.057637607204997"><ele>507.50000000000006</ele><time>2026-05-04T12:07:51Z</time></trkpt><trkpt lat="43.66225885390428" lon="12.057542375948248"><ele>508.0</ele><time>2026-05-04T12:07:52Z</time></trkpt><trkpt lat="43.66225144724748" lon="12.057420874987141"><ele>508.0</ele><time>2026-05-04T12:07:54Z</time></trkpt><trkpt lat="43.662159386211414" lon="12.057397335397463"><ele>507.99999999999994</ele><time>2026-05-04T12:07:56Z</time></trkpt><trkpt lat="43.662119371136825" lon="12.057473662759593"><ele>507.99999999999994</ele><time>2026-05-04T12:07:58Z</time></trkpt><trkpt lat="43.66213606535221" lon="12.057671504989937"><ele>508.0</ele><time>2026-05-04T12:08:00Z</time></trkpt><trkpt lat="43.662151501348724" lon="12.05778928311119"><ele>508.0</ele><time>2026-05-04T12:08:01Z</time></trkpt><trkpt lat="43.66214888761133" lon="12.057893556362695"><ele>508.33333333333337</ele><time>2026-05-04T12:08:02Z</time></trkpt><trkpt lat="43.66215467685771" lon="12.05800090526437"><ele>508.6666666666667</ele><time>2026-05-04T12:08:03Z</time></trkpt><trkpt lat="43.662157551117204" lon="12.058116683073274"><ele>509.0</ele><time>2026-05-04T12:08:04Z</time></trkpt><trkpt lat="43.66215384234376" lon="12.058239563089607"><ele>509.33333333333337</ele><time>2026-05-04T12:08:05Z</time></trkpt><trkpt lat="43.66215171529494" lon="12.058357671167668"><ele>509.6666666666667</ele><time>2026-05-04T12:08:06Z</time></trkpt><trkpt lat="43.66214622215134" lon="12.058473379370009"><ele>510.0</ele><time>2026-05-04T12:08:07Z</time></trkpt><trkpt lat="43.66213237573297" lon="12.058574390699865"><ele>509.0</ele><time>2026-05-04T12:08:08Z</time></trkpt><trkpt lat="43.662107438334445" lon="12.05867897538656"><ele>508.0</ele><time>2026-05-04T12:08:09Z</time></trkpt><trkpt lat="43.66201854509071" lon="12.058769764368385"><ele>507.0</ele><time>2026-05-04T12:08:11Z</time></trkpt><trkpt lat="43.661941946852" lon="12.05870900797957"><ele>506.0</ele><time>2026-05-04T12:08:12Z</time></trkpt><trkpt lat="43.66187476374264" lon="12.058627389819534"><ele>505.0</ele><time>2026-05-04T12:08:13Z</time></trkpt><trkpt lat="43.66179423204101" lon="12.058542281716706"><ele>501.2</ele><time>2026-05-04T12:08:14Z</time></trkpt><trkpt lat="43.661719990632434" lon="12.058458019041817"><ele>497.4</ele><time>2026-05-04T12:08:15Z</time></trkpt><trkpt lat="43.661646029780876" lon="12.05836293210167"><ele>493.6</ele><time>2026-05-04T12:08:16Z</time></trkpt><trkpt lat="43.66157333569438" lon="12.058269850311735"><ele>489.8</ele><time>2026-05-04T12:08:17Z</time></trkpt><trkpt lat="43.661497947428" lon="12.05819233454091"><ele>486.0</ele><time>2026-05-04T12:08:18Z</time></trkpt><trkpt lat="43.66142681927259" lon="12.058137231779593"><ele>486.0</ele><time>2026-05-04T12:08:19Z</time></trkpt><trkpt lat="43.66132326181044" lon="12.058145141005653"><ele>486.0</ele><time>2026-05-04T12:08:21Z</time></trkpt><trkpt lat="43.661221844089695" lon="12.058250311998869"><ele>486.0</ele><time>2026-05-04T12:08:23Z</time></trkpt><trkpt lat="43.661152471604176" lon="12.058285627680572"><ele>486.0</ele><time>2026-05-04T12:08:24Z</time></trkpt><trkpt lat="43.66105406602711" lon="12.058305765258222"><ele>486.0</ele><time>2026-05-04T12:08:26Z</time></trkpt><trkpt lat="43.661000080446954" lon="12.0581245542165"><ele>483.8</ele><time>2026-05-04T12:08:28Z</time></trkpt><trkpt lat="43.660967492962236" lon="12.057975553160766"><ele>481.6</ele><time>2026-05-04T12:08:29Z</time></trkpt><trkpt lat="43.66093230826646" lon="12.057828303325456"><ele>479.4</ele><time>2026-05-04T12:08:30Z</time></trkpt><trkpt lat="43.66090594495156" lon="12.057704648917289"><ele>477.2</ele><time>2026-05-04T12:08:31Z</time></trkpt><trkpt lat="43.66088569630984" lon="12.057594246078212"><ele>475.0</ele><time>2026-05-04T12:08:32Z</time></trkpt><trkpt lat="43.66087141848998" lon="12.057495824080169"><ele>476.0</ele><time>2026-05-04T12:08:33Z</time></trkpt><trkpt lat="43.66086277544325" lon="12.057404321326304"><ele>477.0</ele><time>2026-05-04T12:08:34Z</time></trkpt><trkpt lat="43.660900942949674" lon="12.05724935857587"><ele>478.0</ele><time>2026-05-04T12:08:36Z</time></trkpt><trkpt lat="43.6609740650752" lon="12.05720128813092"><ele>479.0</ele><time>2026-05-04T12:08:37Z</time></trkpt><trkpt lat="43.661075913167906" lon="12.057173436598504"><ele>480.0</ele><time>2026-05-04T12:08:38Z</time></trkpt><trkpt lat="43.66116211309619" lon="12.057141625637296"><ele>480.0</ele><time>2026-05-04T12:08:39Z</time></trkpt><trkpt lat="43.661232451322014" lon="12.057083297627445"><ele>480.0</ele><time>2026-05-04T12:08:40Z</time></trkpt><trkpt lat="43.66127256935081" lon="12.056915696715526"><ele>480.0</ele><time>2026-05-04T12:08:42Z</time></trkpt><trkpt lat="43.66127026144218" lon="12.056807759907539"><ele>480.0</ele><time>2026-05-04T12:08:43Z</time></trkpt><trkpt lat="43.66124428013359" lon="12.056685188495061"><ele>480.0</ele><time>2026-05-04T12:08:44Z</time></trkpt><trkpt lat="43.66122668497086" lon="12.056556493259459"><ele>478.5</ele><time>2026-05-04T12:08:45Z</time></trkpt><trkpt lat="43.66122205353326" lon="12.056413068933143"><ele>477.0</ele><time>2026-05-04T12:08:46Z</time></trkpt><trkpt lat="43.661207135837174" lon="12.056279261536831"><ele>475.5</ele><time>2026-05-04T12:08:47Z</time></trkpt><trkpt lat="43.66122680267084" lon="12.05615669681919"><ele>474.0</ele><time>2026-05-04T12:08:48Z</time></trkpt><trkpt lat="43.66123308121145" lon="12.056058722765675"><ele>472.5</ele><time>2026-05-04T12:08:49Z</time></trkpt><trkpt lat="43.661241041722064" lon="12.055963795664903"><ele>471.0</ele><time>2026-05-04T12:08:50Z</time></trkpt><trkpt lat="43.661248290420204" lon="12.055843574768545"><ele>469.4</ele><time>2026-05-04T12:08:51Z</time></trkpt><trkpt lat="43.66127602895692" lon="12.055724447846679"><ele>467.8</ele><time>2026-05-04T12:08:52Z</time></trkpt><trkpt lat="43.66130166490354" lon="12.055590441325421"><ele>466.19999999999993</ele><time>2026-05-04T12:08:53Z</time></trkpt><trkpt lat="43.66131316111535" lon="12.055446827726136"><ele>464.59999999999997</ele><time>2026-05-04T12:08:54Z</time></trkpt><trkpt lat="43.661320193316435" lon="12.055308461700406"><ele>463.0</ele><time>2026-05-04T12:08:55Z</time></trkpt><trkpt lat="43.66135167001618" lon="12.055165617767777"><ele>463.0</ele><time>2026-05-04T12:08:56Z</time></trkpt><trkpt lat="43.66136940295773" lon="12.05503265524102"><ele>462.99999999999994</ele><time>2026-05-04T12:08:57Z</time></trkpt><trkpt lat="43.66137298394679" lon="12.054889242909201"><ele>462.99999999999994</ele><time>2026-05-04T12:08:58Z</time></trkpt><trkpt lat="43.661401840406" lon="12.0547508761661"><ele>463.0</ele><time>2026-05-04T12:08:59Z</time></trkpt><trkpt lat="43.6614114778278" lon="12.05462809576333"><ele>463.0</ele><time>2026-05-04T12:09:00Z</time></trkpt><trkpt lat="43.66141347395115" lon="12.054526108696487"><ele>461.33333333333337</ele><time>2026-05-04T12:09:01Z</time></trkpt><trkpt lat="43.661402814192954" lon="12.054418878578662"><ele>459.6666666666667</ele><time>2026-05-04T12:09:02Z</time></trkpt><trkpt lat="43.66137217763235" lon="12.054288955670929"><ele>458.0</ele><time>2026-05-04T12:09:03Z</time></trkpt><trkpt lat="43.66130126256777" lon="12.054200535424004"><ele>456.33333333333337</ele><time>2026-05-04T12:09:04Z</time></trkpt><trkpt lat="43.661274847801636" lon="12.054100827107431"><ele>454.6666666666667</ele><time>2026-05-04T12:09:05Z</time></trkpt><trkpt lat="43.66128298765235" lon="12.0540097889281"><ele>453.0</ele><time>2026-05-04T12:09:06Z</time></trkpt><trkpt lat="43.661329307745326" lon="12.053927280313214"><ele>449.5</ele><time>2026-05-04T12:09:07Z</time></trkpt><trkpt lat="43.66139198835215" lon="12.053828919634784"><ele>446.0</ele><time>2026-05-04T12:09:08Z</time></trkpt><trkpt lat="43.6614724368951" lon="12.053723041076823"><ele>442.5</ele><time>2026-05-04T12:09:09Z</time></trkpt><trkpt lat="43.66155421851038" lon="12.053575708350913"><ele>439.0</ele><time>2026-05-04T12:09:10Z</time></trkpt><trkpt lat="43.66165150536067" lon="12.053455473146006"><ele>439.0</ele><time>2026-05-04T12:09:11Z</time></trkpt><trkpt lat="43.6617324308085" lon="12.053334017647986"><ele>439.0</ele><time>2026-05-04T12:09:12Z</time></trkpt><trkpt lat="43.66180140308962" lon="12.053208230184078"><ele>439.0</ele><time>2026-05-04T12:09:13Z</time></trkpt><trkpt lat="43.66186404373216" lon="12.053076252625758"><ele>439.0</ele><time>2026-05-04T12:09:14Z</time></trkpt><trkpt lat="43.66192240427046" lon="12.052936936890736"><ele>441.0</ele><time>2026-05-04T12:09:15Z</time></trkpt><trkpt lat="43.66197607051561" lon="12.052772337602992"><ele>443.0</ele><time>2026-05-04T12:09:16Z</time></trkpt><trkpt lat="43.66202184162895" lon="12.052585518681562"><ele>445.0</ele><time>2026-05-04T12:09:17Z</time></trkpt><trkpt lat="43.66206495061237" lon="12.052390144332096"><ele>447.0</ele><time>2026-05-04T12:09:18Z</time></trkpt><trkpt lat="43.66210322688873" lon="12.0521983611566"><ele>442.5</ele><time>2026-05-04T12:09:19Z</time></trkpt><trkpt lat="43.66213546437079" lon="12.052021255901346"><ele>438.0</ele><time>2026-05-04T12:09:20Z</time></trkpt><trkpt lat="43.66216813937527" lon="12.05186294500125"><ele>433.5</ele><time>2026-05-04T12:09:21Z</time></trkpt><trkpt lat="43.66219292008697" lon="12.05172217403762"><ele>429.0</ele><time>2026-05-04T12:09:22Z</time></trkpt><trkpt lat="43.662215322799035" lon="12.051594233791167"><ele>429.0</ele><time>2026-05-04T12:09:23Z</time></trkpt><trkpt lat="43.66223303164163" lon="12.051471352202414"><ele>429.0</ele><time>2026-05-04T12:09:24Z</time></trkpt><trkpt lat="43.66225870400607" lon="12.051372405873492"><ele>429.0</ele><time>2026-05-04T12:09:25Z</time></trkpt><trkpt lat="43.66226827097497" lon="12.051282610017452"><ele>429.0</ele><time>2026-05-04T12:09:26Z</time></trkpt><trkpt lat="43.662299289216804" lon="12.051205499904002"><ele>429.0</ele><time>2026-05-04T12:09:27Z</time></trkpt><trkpt lat="43.66236290659137" lon="12.051050396577402"><ele>429.0</ele><time>2026-05-04T12:09:29Z</time></trkpt><trkpt lat="43.66244275974406" lon="12.051008210504897"><ele>429.0</ele><time>2026-05-04T12:09:30Z</time></trkpt><trkpt lat="43.662505614534545" lon="12.050927821505383"><ele>429.0</ele><time>2026-05-04T12:09:31Z</time></trkpt><trkpt lat="43.66254875928782" lon="12.050820559917147"><ele>429.0</ele><time>2026-05-04T12:09:32Z</time></trkpt><trkpt lat="43.66258668138924" lon="12.050736526005874"><ele>429.0</ele><time>2026-05-04T12:09:33Z</time></trkpt><trkpt lat="43.662612124280066" lon="12.050560375828185"><ele>429.0</ele><time>2026-05-04T12:09:35Z</time></trkpt><trkpt lat="43.66262354188041" lon="12.050407034554455"><ele>429.0</ele><time>2026-05-04T12:09:37Z</time></trkpt><trkpt lat="43.662644049685156" lon="12.050252281597315"><ele>429.0</ele><time>2026-05-04T12:09:39Z</time></trkpt><trkpt lat="43.66262761589748" lon="12.050131424989146"><ele>429.0</ele><time>2026-05-04T12:09:41Z</time></trkpt><trkpt lat="43.662582314086315" lon="12.050050214282566"><ele>429.0</ele><time>2026-05-04T12:09:43Z</time></trkpt><trkpt lat="43.66262748419223" lon="12.049939971225905"><ele>429.0</ele><time>2026-05-04T12:09:45Z</time></trkpt><trkpt lat="43.66266666495977" lon="12.04984726810943"><ele>429.0</ele><time>2026-05-04T12:09:46Z</time></trkpt><trkpt lat="43.66270403226533" lon="12.049728162120273"><ele>429.0</ele><time>2026-05-04T12:09:47Z</time></trkpt><trkpt lat="43.66275030378823" lon="12.049612603655934"><ele>429.0</ele><time>2026-05-04T12:09:48Z</time></trkpt><trkpt lat="43.6627962411195" lon="12.049497391803724"><ele>429.0</ele><time>2026-05-04T12:09:49Z</time></trkpt><trkpt lat="43.662847514442824" lon="12.04937746920201"><ele>429.0</ele><time>2026-05-04T12:09:50Z</time></trkpt><trkpt lat="43.66289450260697" lon="12.049251033652862"><ele>429.0</ele><time>2026-05-04T12:09:51Z</time></trkpt><trkpt lat="43.66294535653427" lon="12.049130943872656"><ele>431.6</ele><time>2026-05-04T12:09:52Z</time></trkpt><trkpt lat="43.66299286194421" lon="12.049017213991696"><ele>434.2</ele><time>2026-05-04T12:09:53Z</time></trkpt><trkpt lat="43.66304210878848" lon="12.048904888255004"><ele>436.80000000000007</ele><time>2026-05-04T12:09:54Z</time></trkpt><trkpt lat="43.66308732451872" lon="12.048795457330161"><ele>439.40000000000003</ele><time>2026-05-04T12:09:55Z</time></trkpt><trkpt lat="43.66312767790183" lon="12.048687647993956"><ele>442.0</ele><time>2026-05-04T12:09:56Z</time></trkpt><trkpt lat="43.66317466062612" lon="12.048575222856897"><ele>442.0</ele><time>2026-05-04T12:09:57Z</time></trkpt><trkpt lat="43.66322189698489" lon="12.048468073655629"><ele>442.00000000000006</ele><time>2026-05-04T12:09:58Z</time></trkpt><trkpt lat="43.66327219886596" lon="12.04834938430155"><ele>442.00000000000006</ele><time>2026-05-04T12:09:59Z</time></trkpt><trkpt lat="43.66332807846317" lon="12.048208368343454"><ele>442.0</ele><time>2026-05-04T12:10:00Z</time></trkpt><trkpt lat="43.66339125413961" lon="12.048052084584112"><ele>442.0</ele><time>2026-05-04T12:10:01Z</time></trkpt><trkpt lat="43.66345704663747" lon="12.047890501819241"><ele>442.25</ele><time>2026-05-04T12:10:02Z</time></trkpt><trkpt lat="43.6635257921394" lon="12.047731243585206"><ele>442.5</ele><time>2026-05-04T12:10:03Z</time></trkpt><trkpt lat="43.6635919335309" lon="12.047577447948475"><ele>442.75</ele><time>2026-05-04T12:10:04Z</time></trkpt><trkpt lat="43.66366223115795" lon="12.047424465883037"><ele>443.0</ele><time>2026-05-04T12:10:05Z</time></trkpt><trkpt lat="43.663723732941634" lon="12.047266984168074"><ele>443.0</ele><time>2026-05-04T12:10:06Z</time></trkpt><trkpt lat="43.663784569816166" lon="12.04710861627452"><ele>443.0</ele><time>2026-05-04T12:10:07Z</time></trkpt><trkpt lat="43.663846889256256" lon="12.046956912504978"><ele>443.0</ele><time>2026-05-04T12:10:08Z</time></trkpt><trkpt lat="43.66390762590203" lon="12.046813450935412"><ele>443.0</ele><time>2026-05-04T12:10:09Z</time></trkpt><trkpt lat="43.66396737655046" lon="12.046683303332898"><ele>442.0</ele><time>2026-05-04T12:10:10Z</time></trkpt><trkpt lat="43.66403959088547" lon="12.046575000712355"><ele>440.99999999999994</ele><time>2026-05-04T12:10:11Z</time></trkpt><trkpt lat="43.6640986299391" lon="12.04646562276089"><ele>439.99999999999994</ele><time>2026-05-04T12:10:12Z</time></trkpt><trkpt lat="43.664182599505224" lon="12.046375003929477"><ele>439.0</ele><time>2026-05-04T12:10:13Z</time></trkpt><trkpt lat="43.664283404665916" lon="12.046320466480912"><ele>438.0</ele><time>2026-05-04T12:10:14Z</time></trkpt><trkpt lat="43.66438941260629" lon="12.046290582004447"><ele>438.0</ele><time>2026-05-04T12:10:15Z</time></trkpt><trkpt lat="43.664505487765645" lon="12.04627265272179"><ele>438.0</ele><time>2026-05-04T12:10:16Z</time></trkpt><trkpt lat="43.66462627026723" lon="12.046303879879375"><ele>438.0</ele><time>2026-05-04T12:10:17Z</time></trkpt><trkpt lat="43.66474993084911" lon="12.046353894129377"><ele>438.0</ele><time>2026-05-04T12:10:18Z</time></trkpt><trkpt lat="43.66486791493433" lon="12.046411321382267"><ele>438.0</ele><time>2026-05-04T12:10:19Z</time></trkpt><trkpt lat="43.66497574399938" lon="12.046468546348898"><ele>438.0</ele><time>2026-05-04T12:10:20Z</time></trkpt><trkpt lat="43.66508893474565" lon="12.046519973450287"><ele>438.0</ele><time>2026-05-04T12:10:21Z</time></trkpt><trkpt lat="43.66520722469589" lon="12.04652730226892"><ele>438.0</ele><time>2026-05-04T12:10:22Z</time></trkpt><trkpt lat="43.665324418966605" lon="12.046495899887292"><ele>437.5</ele><time>2026-05-04T12:10:23Z</time></trkpt><trkpt lat="43.66543447213575" lon="12.04643193052871"><ele>437.0</ele><time>2026-05-04T12:10:24Z</time></trkpt><trkpt lat="43.66553858177145" lon="12.046332335021111"><ele>436.5</ele><time>2026-05-04T12:10:25Z</time></trkpt><trkpt lat="43.66563650483072" lon="12.04619895292516"><ele>436.0</ele><time>2026-05-04T12:10:26Z</time></trkpt><trkpt lat="43.665733012700834" lon="12.04606153083276"><ele>436.0</ele><time>2026-05-04T12:10:27Z</time></trkpt><trkpt lat="43.66582537957194" lon="12.04592696443246"><ele>436.0</ele><time>2026-05-04T12:10:28Z</time></trkpt><trkpt lat="43.665916394332115" lon="12.045798389200158"><ele>436.0</ele><time>2026-05-04T12:10:29Z</time></trkpt><trkpt lat="43.666016097544144" lon="12.045688488807913"><ele>436.0</ele><time>2026-05-04T12:10:30Z</time></trkpt><trkpt lat="43.666104541788116" lon="12.045569462576232"><ele>435.75</ele><time>2026-05-04T12:10:31Z</time></trkpt><trkpt lat="43.666188838074305" lon="12.04545732462895"><ele>435.5</ele><time>2026-05-04T12:10:32Z</time></trkpt><trkpt lat="43.66627832404896" lon="12.045338282548128"><ele>435.25</ele><time>2026-05-04T12:10:33Z</time></trkpt><trkpt lat="43.666371098246294" lon="12.045214373552819"><ele>435.0</ele><time>2026-05-04T12:10:34Z</time></trkpt><trkpt lat="43.666465672110256" lon="12.045088107586105"><ele>434.5</ele><time>2026-05-04T12:10:35Z</time></trkpt><trkpt lat="43.66654602665377" lon="12.04494129368991"><ele>434.0</ele><time>2026-05-04T12:10:36Z</time></trkpt><trkpt lat="43.66663794431972" lon="12.044815748473502"><ele>433.5</ele><time>2026-05-04T12:10:37Z</time></trkpt><trkpt lat="43.666727594960925" lon="12.044698700750773"><ele>433.0</ele><time>2026-05-04T12:10:38Z</time></trkpt><trkpt lat="43.66681438734233" lon="12.044581257550295"><ele>433.0</ele><time>2026-05-04T12:10:39Z</time></trkpt><trkpt lat="43.66691858755641" lon="12.044479128102799"><ele>433.0</ele><time>2026-05-04T12:10:40Z</time></trkpt><trkpt lat="43.66700638106399" lon="12.044360838830961"><ele>433.0</ele><time>2026-05-04T12:10:41Z</time></trkpt><trkpt lat="43.66707840883227" lon="12.044231219098496"><ele>433.0</ele><time>2026-05-04T12:10:42Z</time></trkpt><trkpt lat="43.667170788186034" lon="12.044135963456528"><ele>432.4</ele><time>2026-05-04T12:10:43Z</time></trkpt><trkpt lat="43.6672447530755" lon="12.044034718560868"><ele>431.79999999999995</ele><time>2026-05-04T12:10:44Z</time></trkpt><trkpt lat="43.66730869592098" lon="12.043947409894846"><ele>431.2</ele><time>2026-05-04T12:10:45Z</time></trkpt><trkpt lat="43.66735611034303" lon="12.043862785388807"><ele>430.6</ele><time>2026-05-04T12:10:46Z</time></trkpt><trkpt lat="43.667442413152635" lon="12.043788601349936"><ele>430.0</ele><time>2026-05-04T12:10:48Z</time></trkpt><trkpt lat="43.66753322821447" lon="12.043739464324611"><ele>430.0</ele><time>2026-05-04T12:10:50Z</time></trkpt><trkpt lat="43.66761948885394" lon="12.043539973051278"><ele>430.0</ele><time>2026-05-04T12:10:53Z</time></trkpt><trkpt lat="43.667561195941325" lon="12.043442808718249"><ele>430.0</ele><time>2026-05-04T12:10:54Z</time></trkpt><trkpt lat="43.66751413438893" lon="12.04335394362594"><ele>430.0</ele><time>2026-05-04T12:10:55Z</time></trkpt><trkpt lat="43.66751445522285" lon="12.043227807055306"><ele>430.0</ele><time>2026-05-04T12:10:56Z</time></trkpt><trkpt lat="43.667512054076745" lon="12.04310670131018"><ele>429.8</ele><time>2026-05-04T12:10:57Z</time></trkpt><trkpt lat="43.66751175264588" lon="12.042969045423426"><ele>429.6</ele><time>2026-05-04T12:10:58Z</time></trkpt><trkpt lat="43.66750942628459" lon="12.042819533635829"><ele>429.4</ele><time>2026-05-04T12:10:59Z</time></trkpt><trkpt lat="43.66752957124903" lon="12.042673225004595"><ele>429.2</ele><time>2026-05-04T12:11:00Z</time></trkpt><trkpt lat="43.66752703907144" lon="12.04252489379769"><ele>429.0</ele><time>2026-05-04T12:11:01Z</time></trkpt><trkpt lat="43.66749979222882" lon="12.04238359845298"><ele>429.6</ele><time>2026-05-04T12:11:02Z</time></trkpt><trkpt lat="43.66751199026674" lon="12.042245658112465"><ele>430.2</ele><time>2026-05-04T12:11:03Z</time></trkpt><trkpt lat="43.66752903716363" lon="12.042117808754034"><ele>430.80000000000007</ele><time>2026-05-04T12:11:04Z</time></trkpt><trkpt lat="43.66754815363997" lon="12.042002489046963"><ele>431.40000000000003</ele><time>2026-05-04T12:11:05Z</time></trkpt><trkpt lat="43.66760464668208" lon="12.041885205821506"><ele>432.0</ele><time>2026-05-04T12:11:07Z</time></trkpt><trkpt lat="43.66766777481462" lon="12.041807976196534"><ele>432.0</ele><time>2026-05-04T12:11:09Z</time></trkpt><trkpt lat="43.667724373160056" lon="12.041755378965004"><ele>432.00000000000006</ele><time>2026-05-04T12:11:11Z</time></trkpt><trkpt lat="43.66758168865006" lon="12.041710980113722"><ele>432.00000000000006</ele><time>2026-05-04T12:11:39Z</time></trkpt><trkpt lat="43.66754526724546" lon="12.041790137397177"><ele>432.0</ele><time>2026-05-04T12:11:40Z</time></trkpt><trkpt lat="43.66750910756384" lon="12.041863466301326"><ele>432.0</ele><time>2026-05-04T12:11:41Z</time></trkpt><trkpt lat="43.66742472556381" lon="12.04195376862469"><ele>432.0</ele><time>2026-05-04T12:11:43Z</time></trkpt><trkpt lat="43.6673503723936" lon="12.04204554656904"><ele>432.00000000000006</ele><time>2026-05-04T12:11:45Z</time></trkpt><trkpt lat="43.66728206171974" lon="12.042108305452329"><ele>432.00000000000006</ele><time>2026-05-04T12:11:47Z</time></trkpt><trkpt lat="43.66719915254209" lon="12.041971553600403"><ele>432.0</ele><time>2026-05-04T12:11:50Z</time></trkpt><trkpt lat="43.66715457549607" lon="12.041909980034513"><ele>432.0</ele><time>2026-05-04T12:11:51Z</time></trkpt><trkpt lat="43.6670757948149" lon="12.041813909986201"><ele>432.0</ele><time>2026-05-04T12:11:53Z</time></trkpt><trkpt lat="43.66704831662871" lon="12.041721668365943"><ele>432.00000000000006</ele><time>2026-05-04T12:11:55Z</time></trkpt><trkpt lat="43.66712496942815" lon="12.041635536135846"><ele>432.00000000000006</ele><time>2026-05-04T12:11:57Z</time></trkpt><trkpt lat="43.667218048892565" lon="12.041517585526986"><ele>432.0</ele><time>2026-05-04T12:11:59Z</time></trkpt><trkpt lat="43.66727783724184" lon="12.041454674968275"><ele>432.0</ele><time>2026-05-04T12:12:00Z</time></trkpt><trkpt lat="43.66735319139837" lon="12.041382649648433"><ele>432.8</ele><time>2026-05-04T12:12:01Z</time></trkpt><trkpt lat="43.66743599463252" lon="12.0413078135861"><ele>433.6</ele><time>2026-05-04T12:12:02Z</time></trkpt><trkpt lat="43.66752974841841" lon="12.041232407466303"><ele>434.40000000000003</ele><time>2026-05-04T12:12:03Z</time></trkpt><trkpt lat="43.667621763894495" lon="12.041161900794629"><ele>435.20000000000005</ele><time>2026-05-04T12:12:04Z</time></trkpt><trkpt lat="43.66771354953901" lon="12.04108862539968"><ele>436.0</ele><time>2026-05-04T12:12:05Z</time></trkpt><trkpt lat="43.667798199976204" lon="12.041021071322128"><ele>436.0</ele><time>2026-05-04T12:12:06Z</time></trkpt><trkpt lat="43.667884080571035" lon="12.040953072077418"><ele>436.0</ele><time>2026-05-04T12:12:07Z</time></trkpt><trkpt lat="43.6679578685337" lon="12.040895879464474"><ele>436.0</ele><time>2026-05-04T12:12:08Z</time></trkpt><trkpt lat="43.66804158163729" lon="12.040830918015478"><ele>436.0</ele><time>2026-05-04T12:12:09Z</time></trkpt><trkpt lat="43.66812730089123" lon="12.040764399858361"><ele>436.0</ele><time>2026-05-04T12:12:10Z</time></trkpt><trkpt lat="43.66822641195122" lon="12.04068708755489"><ele>436.0</ele><time>2026-05-04T12:12:11Z</time></trkpt><trkpt lat="43.66832563223307" lon="12.040608242978653"><ele>436.0</ele><time>2026-05-04T12:12:12Z</time></trkpt><trkpt lat="43.66841701166164" lon="12.04053285392052"><ele>436.0</ele><time>2026-05-04T12:12:13Z</time></trkpt><trkpt lat="43.66848938296601" lon="12.040445008705706"><ele>436.0</ele><time>2026-05-04T12:12:14Z</time></trkpt><trkpt lat="43.66857389997901" lon="12.040397215327028"><ele>436.0</ele><time>2026-05-04T12:12:15Z</time></trkpt><trkpt lat="43.66864057244758" lon="12.040332167336226"><ele>436.0</ele><time>2026-05-04T12:12:16Z</time></trkpt><trkpt lat="43.66871682570155" lon="12.040251539900833"><ele>436.0</ele><time>2026-05-04T12:12:18Z</time></trkpt><trkpt lat="43.668615298104946" lon="12.040144682166858"><ele>436.0</ele><time>2026-05-04T12:12:24Z</time></trkpt><trkpt lat="43.66855190663618" lon="12.040091349313611"><ele>436.0</ele><time>2026-05-04T12:12:26Z</time></trkpt><trkpt lat="43.66848422156189" lon="12.040050666530536"><ele>436.0</ele><time>2026-05-04T12:12:27Z</time></trkpt><trkpt lat="43.6684042622788" lon="12.040006817741455"><ele>436.6666666666667</ele><time>2026-05-04T12:12:28Z</time></trkpt><trkpt lat="43.66832139573095" lon="12.039973917430075"><ele>437.33333333333337</ele><time>2026-05-04T12:12:29Z</time></trkpt><trkpt lat="43.66823873024306" lon="12.039946752759652"><ele>438.0</ele><time>2026-05-04T12:12:30Z</time></trkpt><trkpt lat="43.6681524383759" lon="12.039947702874416"><ele>438.66666666666663</ele><time>2026-05-04T12:12:31Z</time></trkpt><trkpt lat="43.668072558244305" lon="12.039923575985117"><ele>439.3333333333333</ele><time>2026-05-04T12:12:32Z</time></trkpt><trkpt lat="43.66798950696812" lon="12.039887323925157"><ele>440.0</ele><time>2026-05-04T12:12:33Z</time></trkpt><trkpt lat="43.667895478418025" lon="12.039840514025144"><ele>442.16666666666663</ele><time>2026-05-04T12:12:34Z</time></trkpt><trkpt lat="43.667814226986685" lon="12.039781551413967"><ele>444.3333333333333</ele><time>2026-05-04T12:12:35Z</time></trkpt><trkpt lat="43.66773378594005" lon="12.0397188552303"><ele>446.5</ele><time>2026-05-04T12:12:36Z</time></trkpt><trkpt lat="43.667650669942745" lon="12.03966631150116"><ele>448.66666666666663</ele><time>2026-05-04T12:12:37Z</time></trkpt><trkpt lat="43.66757330118721" lon="12.0396265144758"><ele>450.8333333333333</ele><time>2026-05-04T12:12:38Z</time></trkpt><trkpt lat="43.66749065208577" lon="12.039577757896302"><ele>453.0</ele><time>2026-05-04T12:12:39Z</time></trkpt><trkpt lat="43.66742956076843" lon="12.039547616219325"><ele>454.5</ele><time>2026-05-04T12:12:40Z</time></trkpt><trkpt lat="43.667375301201304" lon="12.039503333230188"><ele>456.0</ele><time>2026-05-04T12:12:41Z</time></trkpt><trkpt lat="43.66725706329706" lon="12.039506554632489"><ele>457.5</ele><time>2026-05-04T12:12:43Z</time></trkpt><trkpt lat="43.66717387421374" lon="12.039545167475191"><ele>459.0</ele><time>2026-05-04T12:12:44Z</time></trkpt><trkpt lat="43.66708876058258" lon="12.039555636449363"><ele>460.5</ele><time>2026-05-04T12:12:45Z</time></trkpt><trkpt lat="43.66700639091555" lon="12.03957037845989"><ele>462.0</ele><time>2026-05-04T12:12:46Z</time></trkpt><trkpt lat="43.66692520801188" lon="12.039575202931127"><ele>464.3333333333333</ele><time>2026-05-04T12:12:47Z</time></trkpt><trkpt lat="43.66684924694445" lon="12.039588818154012"><ele>466.66666666666663</ele><time>2026-05-04T12:12:48Z</time></trkpt><trkpt lat="43.666783506268295" lon="12.039540337104519"><ele>469.0</ele><time>2026-05-04T12:12:50Z</time></trkpt><trkpt lat="43.6668631602364" lon="12.03940723084805"><ele>471.3333333333333</ele><time>2026-05-04T12:12:54Z</time></trkpt><trkpt lat="43.6668150632331" lon="12.039477351571577"><ele>473.66666666666663</ele><time>2026-05-04T12:13:16Z</time></trkpt><trkpt lat="43.66675814082776" lon="12.039517603951793"><ele>476.0</ele><time>2026-05-04T12:13:20Z</time></trkpt><trkpt lat="43.66671939001609" lon="12.039424851040941"><ele>475.99999999999994</ele><time>2026-05-04T12:14:04Z</time></trkpt><trkpt lat="43.666710776562724" lon="12.039295740136842"><ele>476.0</ele><time>2026-05-04T12:14:06Z</time></trkpt><trkpt lat="43.666712926178555" lon="12.039183385907938"><ele>476.0</ele><time>2026-05-04T12:14:08Z</time></trkpt><trkpt lat="43.666714509023684" lon="12.039083924740892"><ele>476.0</ele><time>2026-05-04T12:14:10Z</time></trkpt><trkpt lat="43.66671966961114" lon="12.038990384481687"><ele>475.99999999999994</ele><time>2026-05-04T12:14:12Z</time></trkpt><trkpt lat="43.6667381721858" lon="12.038892855812668"><ele>476.0</ele><time>2026-05-04T12:14:15Z</time></trkpt><trkpt lat="43.66666799281811" lon="12.038835428826165"><ele>478.99999999999994</ele><time>2026-05-04T12:14:51Z</time></trkpt><trkpt lat="43.66658639821798" lon="12.03876381531159"><ele>482.0</ele><time>2026-05-04T12:14:54Z</time></trkpt><trkpt lat="43.666526527699354" lon="12.038718908115102"><ele>485.0</ele><time>2026-05-04T12:14:56Z</time></trkpt><trkpt lat="43.66646001978359" lon="12.038625077575844"><ele>488.0</ele><time>2026-05-04T12:14:59Z</time></trkpt><trkpt lat="43.66641901353575" lon="12.03855072719222"><ele>490.99999999999994</ele><time>2026-05-04T12:15:02Z</time></trkpt><trkpt lat="43.666440115065825" lon="12.038437936310682"><ele>494.0</ele><time>2026-05-04T12:16:47Z</time></trkpt><trkpt lat="43.666396689128" lon="12.038359327264937"><ele>493.99999999999994</ele><time>2026-05-04T12:16:49Z</time></trkpt><trkpt lat="43.666441300012295" lon="12.038456008203816"><ele>494.0</ele><time>2026-05-04T12:21:28Z</time></trkpt><trkpt lat="43.66645942457341" lon="12.038542229122003"><ele>494.0</ele><time>2026-05-04T12:21:30Z</time></trkpt><trkpt lat="43.66647851188738" lon="12.03862575251761"><ele>494.0</ele><time>2026-05-04T12:21:32Z</time></trkpt><trkpt lat="43.66653825714755" lon="12.038717172760157"><ele>493.99999999999994</ele><time>2026-05-04T12:21:34Z</time></trkpt><trkpt lat="43.666614664167774" lon="12.038793899274074"><ele>494.0</ele><time>2026-05-04T12:21:36Z</time></trkpt><trkpt lat="43.6666923212177" lon="12.038840615084078"><ele>494.0</ele><time>2026-05-04T12:21:38Z</time></trkpt><trkpt lat="43.666738331755276" lon="12.038953451002685"><ele>494.0</ele><time>2026-05-04T12:21:41Z</time></trkpt><trkpt lat="43.66672649902703" lon="12.039114768312583"><ele>494.0</ele><time>2026-05-04T12:21:43Z</time></trkpt><trkpt lat="43.66673215568919" lon="12.039277391647982"><ele>494.0</ele><time>2026-05-04T12:21:45Z</time></trkpt><trkpt lat="43.66673421951991" lon="12.03941451666675"><ele>494.0</ele><time>2026-05-04T12:21:47Z</time></trkpt><trkpt lat="43.66675686418365" lon="12.039527202143123"><ele>491.42857142857144</ele><time>2026-05-04T12:21:49Z</time></trkpt><trkpt lat="43.6668061776262" lon="12.03959797490699"><ele>488.85714285714283</ele><time>2026-05-04T12:21:51Z</time></trkpt><trkpt lat="43.666910607207" lon="12.03960060531137"><ele>486.2857142857143</ele><time>2026-05-04T12:21:53Z</time></trkpt><trkpt lat="43.66697820388672" lon="12.039597310237"><ele>483.7142857142857</ele><time>2026-05-04T12:21:54Z</time></trkpt><trkpt lat="43.667044171914675" lon="12.039588147036124"><ele>481.1428571428571</ele><time>2026-05-04T12:21:55Z</time></trkpt><trkpt lat="43.66711315236212" lon="12.039588066801086"><ele>478.57142857142856</ele><time>2026-05-04T12:21:56Z</time></trkpt><trkpt lat="43.66717494301985" lon="12.039570033466608"><ele>476.0</ele><time>2026-05-04T12:21:57Z</time></trkpt><trkpt lat="43.6672824134818" lon="12.039570438564112"><ele>473.66666666666663</ele><time>2026-05-04T12:21:59Z</time></trkpt><trkpt lat="43.66737465997248" lon="12.039569621713504"><ele>471.3333333333333</ele><time>2026-05-04T12:22:01Z</time></trkpt><trkpt lat="43.667465770736946" lon="12.039628980536882"><ele>469.0</ele><time>2026-05-04T12:22:03Z</time></trkpt><trkpt lat="43.667531121408814" lon="12.039673210470289"><ele>466.66666666666663</ele><time>2026-05-04T12:22:04Z</time></trkpt><trkpt lat="43.66759523181346" lon="12.039714897626165"><ele>464.3333333333333</ele><time>2026-05-04T12:22:05Z</time></trkpt><trkpt lat="43.66765840388181" lon="12.03975501898784"><ele>462.0</ele><time>2026-05-04T12:22:06Z</time></trkpt><trkpt lat="43.66774017582061" lon="12.039805761396345"><ele>460.20000000000005</ele><time>2026-05-04T12:22:07Z</time></trkpt><trkpt lat="43.66782204028208" lon="12.03984380837752"><ele>458.40000000000003</ele><time>2026-05-04T12:22:08Z</time></trkpt><trkpt lat="43.66787660583211" lon="12.039902289843678"><ele>456.59999999999997</ele><time>2026-05-04T12:22:09Z</time></trkpt><trkpt lat="43.6679901277795" lon="12.03993006696367"><ele>454.79999999999995</ele><time>2026-05-04T12:22:10Z</time></trkpt><trkpt lat="43.668078860287594" lon="12.039968215195405"><ele>453.0</ele><time>2026-05-04T12:22:11Z</time></trkpt><trkpt lat="43.66817129630797" lon="12.03999236261447"><ele>450.8333333333333</ele><time>2026-05-04T12:22:12Z</time></trkpt><trkpt lat="43.66825893696948" lon="12.040020465302707"><ele>448.66666666666663</ele><time>2026-05-04T12:22:13Z</time></trkpt><trkpt lat="43.66833836906547" lon="12.040046558429582"><ele>446.5</ele><time>2026-05-04T12:22:14Z</time></trkpt><trkpt lat="43.668408104437475" lon="12.040076902970599"><ele>444.3333333333333</ele><time>2026-05-04T12:22:15Z</time></trkpt><trkpt lat="43.668471954169355" lon="12.040104062733926"><ele>442.16666666666663</ele><time>2026-05-04T12:22:16Z</time></trkpt><trkpt lat="43.66853417828068" lon="12.040140069083762"><ele>440.0</ele><time>2026-05-04T12:22:17Z</time></trkpt><trkpt lat="43.66860404132157" lon="12.040188126729927"><ele>439.8</ele><time>2026-05-04T12:22:19Z</time></trkpt><trkpt lat="43.66866912226462" lon="12.04023391983252"><ele>439.6</ele><time>2026-05-04T12:22:41Z</time></trkpt><trkpt lat="43.66877940133165" lon="12.04014445700553"><ele>439.4</ele><time>2026-05-04T12:22:44Z</time></trkpt><trkpt lat="43.66887634952142" lon="12.040029159477148"><ele>439.2</ele><time>2026-05-04T12:22:46Z</time></trkpt><trkpt lat="43.66892307540774" lon="12.039954569474133"><ele>439.0</ele><time>2026-05-04T12:22:47Z</time></trkpt><trkpt lat="43.66897106459121" lon="12.039875549834472"><ele>439.00000000000006</ele><time>2026-05-04T12:22:48Z</time></trkpt><trkpt lat="43.66902039883138" lon="12.039792097099841"><ele>439.0</ele><time>2026-05-04T12:22:49Z</time></trkpt><trkpt lat="43.66907239325777" lon="12.0397041447101"><ele>439.0</ele><time>2026-05-04T12:22:50Z</time></trkpt><trkpt lat="43.6691235538036" lon="12.039617602846391"><ele>439.0</ele><time>2026-05-04T12:22:51Z</time></trkpt><trkpt lat="43.66917368627652" lon="12.039532800077966"><ele>439.00000000000006</ele><time>2026-05-04T12:22:52Z</time></trkpt><trkpt lat="43.6692213788978" lon="12.039452124509173"><ele>439.0</ele><time>2026-05-04T12:22:53Z</time></trkpt><trkpt lat="43.66927194371574" lon="12.039366590323924"><ele>439.00000000000006</ele><time>2026-05-04T12:22:54Z</time></trkpt><trkpt lat="43.66931575490164" lon="12.039292480554133"><ele>439.0</ele><time>2026-05-04T12:22:55Z</time></trkpt><trkpt lat="43.66936482617359" lon="12.03920974553675"><ele>439.0</ele><time>2026-05-04T12:22:56Z</time></trkpt><trkpt lat="43.6694149761953" lon="12.03912610743376"><ele>439.0</ele><time>2026-05-04T12:22:57Z</time></trkpt><trkpt lat="43.66946829281129" lon="12.039041303484936"><ele>439.00000000000006</ele><time>2026-05-04T12:22:58Z</time></trkpt><trkpt lat="43.669522025341635" lon="12.038955787129971"><ele>439.0</ele><time>2026-05-04T12:22:59Z</time></trkpt><trkpt lat="43.66957294840346" lon="12.038859521904705"><ele>439.00000000000006</ele><time>2026-05-04T12:23:00Z</time></trkpt><trkpt lat="43.669625781075986" lon="12.038782652792376"><ele>439.0</ele><time>2026-05-04T12:23:01Z</time></trkpt><trkpt lat="43.66968273560654" lon="12.03870330416717"><ele>439.0</ele><time>2026-05-04T12:23:02Z</time></trkpt><trkpt lat="43.66973197605131" lon="12.038634656576003"><ele>439.0</ele><time>2026-05-04T12:23:03Z</time></trkpt><trkpt lat="43.669807455338926" lon="12.03852188691282"><ele>439.00000000000006</ele><time>2026-05-04T12:23:05Z</time></trkpt><trkpt lat="43.669885761934594" lon="12.038479169353097"><ele>439.0</ele><time>2026-05-04T12:23:07Z</time></trkpt><trkpt lat="43.66995253635475" lon="12.0384250845839"><ele>439.0</ele><time>2026-05-04T12:23:09Z</time></trkpt><trkpt lat="43.670015494606346" lon="12.038387667324562"><ele>439.0</ele><time>2026-05-04T12:23:10Z</time></trkpt><trkpt lat="43.67002552909761" lon="12.038178007883058"><ele>439.0</ele><time>2026-05-04T12:23:11Z</time></trkpt><trkpt lat="43.670077605353775" lon="12.038055646522219"><ele>439.0</ele><time>2026-05-04T12:23:12Z</time></trkpt><trkpt lat="43.670131173198115" lon="12.037942079923695"><ele>439.0</ele><time>2026-05-04T12:23:13Z</time></trkpt><trkpt lat="43.67018926800254" lon="12.037828532448533"><ele>439.0</ele><time>2026-05-04T12:23:14Z</time></trkpt><trkpt lat="43.67024294877673" lon="12.037711662655763"><ele>439.0</ele><time>2026-05-04T12:23:15Z</time></trkpt><trkpt lat="43.67029796854732" lon="12.037596303416157"><ele>439.0</ele><time>2026-05-04T12:23:16Z</time></trkpt><trkpt lat="43.67035141824106" lon="12.03748167548006"><ele>439.0</ele><time>2026-05-04T12:23:17Z</time></trkpt><trkpt lat="43.67040273685341" lon="12.037369047235318"><ele>439.0</ele><time>2026-05-04T12:23:18Z</time></trkpt><trkpt lat="43.67045262604972" lon="12.037252031068993"><ele>439.6</ele><time>2026-05-04T12:23:19Z</time></trkpt><trkpt lat="43.67050599571485" lon="12.037133190725093"><ele>440.2</ele><time>2026-05-04T12:23:20Z</time></trkpt><trkpt lat="43.67052901536589" lon="12.036985434393497"><ele>440.80000000000007</ele><time>2026-05-04T12:23:21Z</time></trkpt><trkpt lat="43.67050712566525" lon="12.036838498153076"><ele>441.40000000000003</ele><time>2026-05-04T12:23:22Z</time></trkpt><trkpt lat="43.67048954402608" lon="12.036686613255398"><ele>442.0</ele><time>2026-05-04T12:23:23Z</time></trkpt><trkpt lat="43.67046323187764" lon="12.036535146410431"><ele>443.0</ele><time>2026-05-04T12:23:24Z</time></trkpt><trkpt lat="43.670416690989995" lon="12.036395426512616"><ele>444.00000000000006</ele><time>2026-05-04T12:23:25Z</time></trkpt><trkpt lat="43.67037583703688" lon="12.036246979552349"><ele>445.00000000000006</ele><time>2026-05-04T12:23:26Z</time></trkpt><trkpt lat="43.670336301951195" lon="12.036096560567987"><ele>446.0</ele><time>2026-05-04T12:23:27Z</time></trkpt><trkpt lat="43.670304152837346" lon="12.035956677196577"><ele>447.0</ele><time>2026-05-04T12:23:28Z</time></trkpt><trkpt lat="43.6702793794475" lon="12.035820831406058"><ele>448.40000000000003</ele><time>2026-05-04T12:23:29Z</time></trkpt><trkpt lat="43.67026460821615" lon="12.035690032852935"><ele>449.80000000000007</ele><time>2026-05-04T12:23:30Z</time></trkpt><trkpt lat="43.670270004022456" lon="12.035561987532724"><ele>451.2</ele><time>2026-05-04T12:23:31Z</time></trkpt><trkpt lat="43.67032020345432" lon="12.035441253761578"><ele>452.6</ele><time>2026-05-04T12:23:32Z</time></trkpt><trkpt lat="43.67037328002477" lon="12.0353187738574"><ele>454.0</ele><time>2026-05-04T12:23:33Z</time></trkpt><trkpt lat="43.67042309264994" lon="12.03519213200399"><ele>454.0</ele><time>2026-05-04T12:23:34Z</time></trkpt><trkpt lat="43.67049026672098" lon="12.035079815306572"><ele>454.0</ele><time>2026-05-04T12:23:35Z</time></trkpt><trkpt lat="43.67055183179361" lon="12.034963638674213"><ele>454.0</ele><time>2026-05-04T12:23:36Z</time></trkpt><trkpt lat="43.670615771222" lon="12.034840947206494"><ele>454.0</ele><time>2026-05-04T12:23:37Z</time></trkpt><trkpt lat="43.67067920346376" lon="12.034713289628153"><ele>454.0</ele><time>2026-05-04T12:23:38Z</time></trkpt><trkpt lat="43.6707439887125" lon="12.034581748383003"><ele>456.5</ele><time>2026-05-04T12:23:39Z</time></trkpt><trkpt lat="43.67081306931066" lon="12.034451821114194"><ele>459.0</ele><time>2026-05-04T12:23:40Z</time></trkpt><trkpt lat="43.67087247610582" lon="12.03432381466682"><ele>461.5</ele><time>2026-05-04T12:23:41Z</time></trkpt><trkpt lat="43.67093844036638" lon="12.034194691094635"><ele>464.0</ele><time>2026-05-04T12:23:42Z</time></trkpt><trkpt lat="43.67098921430688" lon="12.034056100079088"><ele>466.25</ele><time>2026-05-04T12:23:43Z</time></trkpt><trkpt lat="43.67102839640961" lon="12.033913288766424"><ele>468.5</ele><time>2026-05-04T12:23:44Z</time></trkpt><trkpt lat="43.67105538846565" lon="12.033756332774841"><ele>470.75</ele><time>2026-05-04T12:23:45Z</time></trkpt><trkpt lat="43.67106377072767" lon="12.033591744762331"><ele>473.0</ele><time>2026-05-04T12:23:46Z</time></trkpt><trkpt lat="43.67105577388689" lon="12.033427873189067"><ele>472.75</ele><time>2026-05-04T12:23:47Z</time></trkpt><trkpt lat="43.671038942600845" lon="12.033263985779046"><ele>472.5</ele><time>2026-05-04T12:23:48Z</time></trkpt><trkpt lat="43.67101425552391" lon="12.033105705423209"><ele>472.25</ele><time>2026-05-04T12:23:49Z</time></trkpt><trkpt lat="43.67099723906209" lon="12.032941258848835"><ele>472.0</ele><time>2026-05-04T12:23:50Z</time></trkpt><trkpt lat="43.670929489168266" lon="12.032804983645942"><ele>472.0</ele><time>2026-05-04T12:23:51Z</time></trkpt><trkpt lat="43.67085667497371" lon="12.032675076265921"><ele>472.0</ele><time>2026-05-04T12:23:52Z</time></trkpt><trkpt lat="43.670766425795094" lon="12.032565327518885"><ele>472.0</ele><time>2026-05-04T12:23:53Z</time></trkpt><trkpt lat="43.670680225656106" lon="12.032451694854396"><ele>472.0</ele><time>2026-05-04T12:23:54Z</time></trkpt><trkpt lat="43.67061774915107" lon="12.032328764362774"><ele>472.20000000000005</ele><time>2026-05-04T12:23:55Z</time></trkpt><trkpt lat="43.670586587215695" lon="12.032185882426075"><ele>472.40000000000003</ele><time>2026-05-04T12:23:56Z</time></trkpt><trkpt lat="43.67060340129054" lon="12.032035032869839"><ele>472.59999999999997</ele><time>2026-05-04T12:23:57Z</time></trkpt><trkpt lat="43.67064790673433" lon="12.031897840103017"><ele>472.79999999999995</ele><time>2026-05-04T12:23:58Z</time></trkpt><trkpt lat="43.670721332985124" lon="12.031774504720149"><ele>473.0</ele><time>2026-05-04T12:23:59Z</time></trkpt><trkpt lat="43.67079776565667" lon="12.031634171221151"><ele>473.75</ele><time>2026-05-04T12:24:00Z</time></trkpt><trkpt lat="43.670866359902966" lon="12.031480687291014"><ele>474.5</ele><time>2026-05-04T12:24:01Z</time></trkpt><trkpt lat="43.670948854941514" lon="12.031335570189183"><ele>475.25</ele><time>2026-05-04T12:24:02Z</time></trkpt><trkpt lat="43.67102938728258" lon="12.031188202956248"><ele>476.0</ele><time>2026-05-04T12:24:03Z</time></trkpt><trkpt lat="43.67111241416799" lon="12.031036792084691"><ele>476.0</ele><time>2026-05-04T12:24:04Z</time></trkpt><trkpt lat="43.67119025251003" lon="12.03089198258975"><ele>476.0</ele><time>2026-05-04T12:24:05Z</time></trkpt><trkpt lat="43.67126770844774" lon="12.030749200924747"><ele>476.0</ele><time>2026-05-04T12:24:06Z</time></trkpt><trkpt lat="43.67134069985377" lon="12.030614750304224"><ele>476.0</ele><time>2026-05-04T12:24:07Z</time></trkpt><trkpt lat="43.67140538648338" lon="12.030484517358298"><ele>476.4</ele><time>2026-05-04T12:24:08Z</time></trkpt><trkpt lat="43.67146498661943" lon="12.030375999103175"><ele>476.8</ele><time>2026-05-04T12:24:09Z</time></trkpt><trkpt lat="43.671491591443434" lon="12.030241111391529"><ele>477.19999999999993</ele><time>2026-05-04T12:24:10Z</time></trkpt><trkpt lat="43.67146774689768" lon="12.030093744937375"><ele>477.59999999999997</ele><time>2026-05-04T12:24:11Z</time></trkpt><trkpt lat="43.671427690189965" lon="12.02996616033293"><ele>478.0</ele><time>2026-05-04T12:24:12Z</time></trkpt><trkpt lat="43.67135949878917" lon="12.02985096145344"><ele>480.75</ele><time>2026-05-04T12:24:13Z</time></trkpt><trkpt lat="43.67127984033901" lon="12.029732976249152"><ele>483.5</ele><time>2026-05-04T12:24:14Z</time></trkpt><trkpt lat="43.67116089439562" lon="12.029657570456807"><ele>486.25</ele><time>2026-05-04T12:24:15Z</time></trkpt><trkpt lat="43.67104461877977" lon="12.029565447156395"><ele>489.0</ele><time>2026-05-04T12:24:16Z</time></trkpt><trkpt lat="43.67092400482442" lon="12.029468516207098"><ele>489.0</ele><time>2026-05-04T12:24:17Z</time></trkpt><trkpt lat="43.670808362690316" lon="12.029354744396208"><ele>489.0</ele><time>2026-05-04T12:24:18Z</time></trkpt><trkpt lat="43.67069642591957" lon="12.02925038827368"><ele>489.0</ele><time>2026-05-04T12:24:19Z</time></trkpt><trkpt lat="43.670598196993986" lon="12.02915989805553"><ele>489.0</ele><time>2026-05-04T12:24:20Z</time></trkpt><trkpt lat="43.67050486298325" lon="12.029088703001678"><ele>489.79999999999995</ele><time>2026-05-04T12:24:21Z</time></trkpt><trkpt lat="43.67041370632419" lon="12.02905203880924"><ele>490.59999999999997</ele><time>2026-05-04T12:24:22Z</time></trkpt><trkpt lat="43.67031856589933" lon="12.029055233767838"><ele>491.4</ele><time>2026-05-04T12:24:23Z</time></trkpt><trkpt lat="43.67022403157163" lon="12.029105057232393"><ele>492.2</ele><time>2026-05-04T12:24:24Z</time></trkpt><trkpt lat="43.670144621168426" lon="12.029208521761012"><ele>493.0</ele><time>2026-05-04T12:24:25Z</time></trkpt><trkpt lat="43.67008349119525" lon="12.02934862028568"><ele>493.25</ele><time>2026-05-04T12:24:26Z</time></trkpt><trkpt lat="43.67003886099334" lon="12.029516248983752"><ele>493.5</ele><time>2026-05-04T12:24:27Z</time></trkpt><trkpt lat="43.66999318999973" lon="12.029684584760242"><ele>493.75</ele><time>2026-05-04T12:24:28Z</time></trkpt><trkpt lat="43.66994144940436" lon="12.029848221072948"><ele>494.0</ele><time>2026-05-04T12:24:29Z</time></trkpt><trkpt lat="43.66984512287146" lon="12.03010564934218"><ele>493.99999999999994</ele><time>2026-05-04T12:24:31Z</time></trkpt><trkpt lat="43.6697944539372" lon="12.030186523324483"><ele>494.0</ele><time>2026-05-04T12:24:32Z</time></trkpt><trkpt lat="43.6697367936735" lon="12.030227284173828"><ele>494.0</ele><time>2026-05-04T12:24:33Z</time></trkpt><trkpt lat="43.669672890636704" lon="12.03020917463941"><ele>494.0</ele><time>2026-05-04T12:24:34Z</time></trkpt><trkpt lat="43.66962567300017" lon="12.03013900912512"><ele>493.99999999999994</ele><time>2026-05-04T12:24:35Z</time></trkpt><trkpt lat="43.669608756808636" lon="12.030025356800166"><ele>494.0</ele><time>2026-05-04T12:24:36Z</time></trkpt><trkpt lat="43.66963883197709" lon="12.029897029097613"><ele>495.5</ele><time>2026-05-04T12:24:37Z</time></trkpt><trkpt lat="43.6696240665247" lon="12.029750390520372"><ele>497.0</ele><time>2026-05-04T12:24:38Z</time></trkpt><trkpt lat="43.66963251296898" lon="12.029589242099"><ele>498.5</ele><time>2026-05-04T12:24:39Z</time></trkpt><trkpt lat="43.66963045948147" lon="12.029417362883503"><ele>500.0</ele><time>2026-05-04T12:24:40Z</time></trkpt><trkpt lat="43.66963352461308" lon="12.029236816892803"><ele>500.5</ele><time>2026-05-04T12:24:41Z</time></trkpt><trkpt lat="43.669633323765716" lon="12.029048265372444"><ele>501.0</ele><time>2026-05-04T12:24:42Z</time></trkpt><trkpt lat="43.6696382107481" lon="12.028851945745764"><ele>501.5</ele><time>2026-05-04T12:24:43Z</time></trkpt><trkpt lat="43.66964220040204" lon="12.028657863741786"><ele>502.0</ele><time>2026-05-04T12:24:44Z</time></trkpt><trkpt lat="43.66964613896603" lon="12.028465439264043"><ele>504.75</ele><time>2026-05-04T12:24:45Z</time></trkpt><trkpt lat="43.66964700233998" lon="12.028284336949557"><ele>507.5</ele><time>2026-05-04T12:24:46Z</time></trkpt><trkpt lat="43.66964575076053" lon="12.028105027187946"><ele>510.25</ele><time>2026-05-04T12:24:47Z</time></trkpt><trkpt lat="43.669655342726365" lon="12.027937065714097"><ele>513.0</ele><time>2026-05-04T12:24:48Z</time></trkpt><trkpt lat="43.66968560106672" lon="12.027784431726284"><ele>513.0</ele><time>2026-05-04T12:24:49Z</time></trkpt><trkpt lat="43.66977012588354" lon="12.027669518080215"><ele>513.0</ele><time>2026-05-04T12:24:50Z</time></trkpt><trkpt lat="43.669865665644465" lon="12.02757367132281"><ele>513.0</ele><time>2026-05-04T12:24:51Z</time></trkpt><trkpt lat="43.669961483248436" lon="12.027448269087241"><ele>513.0</ele><time>2026-05-04T12:24:52Z</time></trkpt><trkpt lat="43.67007037988629" lon="12.02734068517864"><ele>511.5</ele><time>2026-05-04T12:24:53Z</time></trkpt><trkpt lat="43.67017411488528" lon="12.027222780207"><ele>510.0</ele><time>2026-05-04T12:24:54Z</time></trkpt><trkpt lat="43.67027032031624" lon="12.027114296446175"><ele>508.5</ele><time>2026-05-04T12:24:55Z</time></trkpt><trkpt lat="43.670358219804186" lon="12.027017824003785"><ele>507.0</ele><time>2026-05-04T12:24:56Z</time></trkpt><trkpt lat="43.670436442762586" lon="12.026930584833577"><ele>507.0</ele><time>2026-05-04T12:24:57Z</time></trkpt><trkpt lat="43.67049967713215" lon="12.02685306456289"><ele>507.0</ele><time>2026-05-04T12:24:58Z</time></trkpt><trkpt lat="43.6705379100495" lon="12.026773268205558"><ele>507.0</ele><time>2026-05-04T12:24:59Z</time></trkpt><trkpt lat="43.670547643979646" lon="12.026685259289714"><ele>507.0</ele><time>2026-05-04T12:25:00Z</time></trkpt><trkpt lat="43.670551449428174" lon="12.026591516676755"><ele>507.0</ele><time>2026-05-04T12:25:01Z</time></trkpt><trkpt lat="43.67047855121711" lon="12.02650970529323"><ele>507.0</ele><time>2026-05-04T12:25:02Z</time></trkpt><trkpt lat="43.67037565288094" lon="12.026495403579165"><ele>505.6</ele><time>2026-05-04T12:25:03Z</time></trkpt><trkpt lat="43.67027901329005" lon="12.02650449913365"><ele>504.20000000000005</ele><time>2026-05-04T12:25:04Z</time></trkpt><trkpt lat="43.670170120232896" lon="12.026514632549912"><ele>502.8</ele><time>2026-05-04T12:25:05Z</time></trkpt><trkpt lat="43.670060785307356" lon="12.026489621471281"><ele>501.4</ele><time>2026-05-04T12:25:06Z</time></trkpt><trkpt lat="43.669956671566425" lon="12.026423265612497"><ele>500.0</ele><time>2026-05-04T12:25:07Z</time></trkpt><trkpt lat="43.66988192234899" lon="12.026301014319133"><ele>504.0</ele><time>2026-05-04T12:25:08Z</time></trkpt><trkpt lat="43.669798072775926" lon="12.026181692363172"><ele>508.0</ele><time>2026-05-04T12:25:09Z</time></trkpt><trkpt lat="43.669708818606516" lon="12.026057898816012"><ele>512.0</ele><time>2026-05-04T12:25:10Z</time></trkpt><trkpt lat="43.66960979858853" lon="12.025937292318336"><ele>516.0</ele><time>2026-05-04T12:25:11Z</time></trkpt><trkpt lat="43.66951713094311" lon="12.025813323074658"><ele>521.5</ele><time>2026-05-04T12:25:12Z</time></trkpt><trkpt lat="43.669439049131526" lon="12.025682915892315"><ele>527.0</ele><time>2026-05-04T12:25:13Z</time></trkpt><trkpt lat="43.669375442556465" lon="12.025537084421256"><ele>532.5</ele><time>2026-05-04T12:25:14Z</time></trkpt><trkpt lat="43.669337405901906" lon="12.025373813717843"><ele>538.0</ele><time>2026-05-04T12:25:15Z</time></trkpt><trkpt lat="43.66927316610693" lon="12.025214391566422"><ele>538.0</ele><time>2026-05-04T12:25:16Z</time></trkpt><trkpt lat="43.66921694852761" lon="12.025043166035555"><ele>538.0</ele><time>2026-05-04T12:25:17Z</time></trkpt><trkpt lat="43.66915293124295" lon="12.024879014040236"><ele>538.0</ele><time>2026-05-04T12:25:18Z</time></trkpt><trkpt lat="43.66908389868598" lon="12.024725511674049"><ele>538.0</ele><time>2026-05-04T12:25:19Z</time></trkpt><trkpt lat="43.669006954298936" lon="12.024590992262034"><ele>537.25</ele><time>2026-05-04T12:25:20Z</time></trkpt><trkpt lat="43.668924570487185" lon="12.024464405495763"><ele>536.5</ele><time>2026-05-04T12:25:21Z</time></trkpt><trkpt lat="43.668847673205335" lon="12.02432942412486"><ele>535.75</ele><time>2026-05-04T12:25:22Z</time></trkpt><trkpt lat="43.66875096781212" lon="12.02421941799037"><ele>535.0</ele><time>2026-05-04T12:25:23Z</time></trkpt><trkpt lat="43.66862951460124" lon="12.024130361540514"><ele>539.25</ele><time>2026-05-04T12:25:24Z</time></trkpt><trkpt lat="43.66851076811902" lon="12.024030379781108"><ele>543.5</ele><time>2026-05-04T12:25:25Z</time></trkpt><trkpt lat="43.66839144094899" lon="12.023934700881941"><ele>547.75</ele><time>2026-05-04T12:25:26Z</time></trkpt><trkpt lat="43.668270010373355" lon="12.023848390978443"><ele>552.0</ele><time>2026-05-04T12:25:27Z</time></trkpt><trkpt lat="43.66816336692737" lon="12.023770008459586"><ele>552.0</ele><time>2026-05-04T12:25:28Z</time></trkpt><trkpt lat="43.66807389960427" lon="12.023694948682206"><ele>552.0</ele><time>2026-05-04T12:25:29Z</time></trkpt><trkpt lat="43.66800389271107" lon="12.0236280897991"><ele>552.0</ele><time>2026-05-04T12:25:30Z</time></trkpt><trkpt lat="43.667971767691114" lon="12.023549676723967"><ele>552.0</ele><time>2026-05-04T12:25:31Z</time></trkpt><trkpt lat="43.6679816911388" lon="12.023445475235143"><ele>552.0</ele><time>2026-05-04T12:25:32Z</time></trkpt><trkpt lat="43.66802751999813" lon="12.023361639521225"><ele>552.0</ele><time>2026-05-04T12:25:33Z</time></trkpt><trkpt lat="43.668108545403726" lon="12.023312455983056"><ele>551.6666666666666</ele><time>2026-05-04T12:25:34Z</time></trkpt><trkpt lat="43.66820195758577" lon="12.023303200811156"><ele>551.3333333333334</ele><time>2026-05-04T12:25:35Z</time></trkpt><trkpt lat="43.66829877549525" lon="12.02330634866052"><ele>551.0</ele><time>2026-05-04T12:25:36Z</time></trkpt><trkpt lat="43.66839505671016" lon="12.023294273913166"><ele>550.6666666666667</ele><time>2026-05-04T12:25:37Z</time></trkpt><trkpt lat="43.66847815476499" lon="12.023263146028905"><ele>550.3333333333334</ele><time>2026-05-04T12:25:38Z</time></trkpt><trkpt lat="43.66854416236155" lon="12.02321968355712"><ele>550.0</ele><time>2026-05-04T12:25:39Z</time></trkpt><trkpt lat="43.668579907188864" lon="12.023132072902644"><ele>550.0</ele><time>2026-05-04T12:25:40Z</time></trkpt><trkpt lat="43.6685902121911" lon="12.0230398824868"><ele>550.0</ele><time>2026-05-04T12:25:41Z</time></trkpt><trkpt lat="43.668549125676265" lon="12.02295473581322"><ele>550.0</ele><time>2026-05-04T12:25:42Z</time></trkpt><trkpt lat="43.6684784280008" lon="12.022890995773851"><ele>550.0</ele><time>2026-05-04T12:25:43Z</time></trkpt><trkpt lat="43.668395053785595" lon="12.022871649755777"><ele>550.0</ele><time>2026-05-04T12:25:44Z</time></trkpt><trkpt lat="43.6682936157007" lon="12.022861859171483"><ele>550.0</ele><time>2026-05-04T12:25:45Z</time></trkpt><trkpt lat="43.66818212767266" lon="12.022843782234904"><ele>550.0</ele><time>2026-05-04T12:25:46Z</time></trkpt><trkpt lat="43.66806702329031" lon="12.022821269366485"><ele>550.0</ele><time>2026-05-04T12:25:47Z</time></trkpt><trkpt lat="43.66795454176803" lon="12.02279424914106"><ele>550.0</ele><time>2026-05-04T12:25:48Z</time></trkpt><trkpt lat="43.66785021960396" lon="12.022765451812937"><ele>550.0</ele><time>2026-05-04T12:25:49Z</time></trkpt><trkpt lat="43.667760286033136" lon="12.022717522216565"><ele>550.0</ele><time>2026-05-04T12:25:50Z</time></trkpt><trkpt lat="43.66768755033674" lon="12.022632143258804"><ele>553.4</ele><time>2026-05-04T12:25:51Z</time></trkpt><trkpt lat="43.66764019911303" lon="12.022519002022417"><ele>556.8</ele><time>2026-05-04T12:25:52Z</time></trkpt><trkpt lat="43.667615262279426" lon="12.022380436408566"><ele>560.2</ele><time>2026-05-04T12:25:53Z</time></trkpt><trkpt lat="43.66763514726233" lon="12.022237117541055"><ele>563.6</ele><time>2026-05-04T12:25:54Z</time></trkpt><trkpt lat="43.66764475978041" lon="12.02207702246956"><ele>567.0</ele><time>2026-05-04T12:25:55Z</time></trkpt><trkpt lat="43.66764584352704" lon="12.02191163548083"><ele>567.0</ele><time>2026-05-04T12:25:56Z</time></trkpt><trkpt lat="43.667658746314544" lon="12.02173610760758"><ele>567.0</ele><time>2026-05-04T12:25:57Z</time></trkpt><trkpt lat="43.66767150422251" lon="12.021555117923695"><ele>567.0</ele><time>2026-05-04T12:25:58Z</time></trkpt><trkpt lat="43.667681836028756" lon="12.021388400620946"><ele>567.0</ele><time>2026-05-04T12:25:59Z</time></trkpt><trkpt lat="43.66768518176097" lon="12.021248683787489"><ele>567.0</ele><time>2026-05-04T12:26:00Z</time></trkpt><trkpt lat="43.66767260504757" lon="12.02112612813684"><ele>567.0</ele><time>2026-05-04T12:26:01Z</time></trkpt><trkpt lat="43.667650351897215" lon="12.021009466309707"><ele>567.0</ele><time>2026-05-04T12:26:02Z</time></trkpt><trkpt lat="43.66755860290641" lon="12.02092213915543"><ele>567.0</ele><time>2026-05-04T12:26:03Z</time></trkpt><trkpt lat="43.66745952488398" lon="12.020851418145721"><ele>567.0</ele><time>2026-05-04T12:26:04Z</time></trkpt><trkpt lat="43.66735288132909" lon="12.020776158392703"><ele>567.0</ele><time>2026-05-04T12:26:05Z</time></trkpt><trkpt lat="43.667248340901665" lon="12.020679205505212"><ele>567.0</ele><time>2026-05-04T12:26:06Z</time></trkpt><trkpt lat="43.667147629612145" lon="12.020584348363291"><ele>567.0</ele><time>2026-05-04T12:26:07Z</time></trkpt><trkpt lat="43.6670623497106" lon="12.02049381005632"><ele>567.0</ele><time>2026-05-04T12:26:08Z</time></trkpt><trkpt lat="43.66699854843542" lon="12.02039874112344"><ele>567.0</ele><time>2026-05-04T12:26:09Z</time></trkpt><trkpt lat="43.666960602933344" lon="12.020287406687473"><ele>567.0</ele><time>2026-05-04T12:26:10Z</time></trkpt><trkpt lat="43.66695429065891" lon="12.02016262033042"><ele>567.0</ele><time>2026-05-04T12:26:11Z</time></trkpt><trkpt lat="43.66698098398751" lon="12.02003826657184"><ele>567.0</ele><time>2026-05-04T12:26:12Z</time></trkpt><trkpt lat="43.66703154031679" lon="12.019928181009593"><ele>567.0</ele><time>2026-05-04T12:26:13Z</time></trkpt><trkpt lat="43.66712261477069" lon="12.019841492717608"><ele>567.0</ele><time>2026-05-04T12:26:14Z</time></trkpt><trkpt lat="43.6672237739859" lon="12.019788640386603"><ele>570.0</ele><time>2026-05-04T12:26:15Z</time></trkpt><trkpt lat="43.66732999322674" lon="12.019748681576221"><ele>573.0</ele><time>2026-05-04T12:26:16Z</time></trkpt><trkpt lat="43.66742312991481" lon="12.019708867204388"><ele>576.0</ele><time>2026-05-04T12:26:17Z</time></trkpt><trkpt lat="43.6674924318749" lon="12.019647475074443"><ele>579.0</ele><time>2026-05-04T12:26:18Z</time></trkpt><trkpt lat="43.66754519495238" lon="12.019559004479088"><ele>582.0</ele><time>2026-05-04T12:26:19Z</time></trkpt><trkpt lat="43.667568007414445" lon="12.0194264876516"><ele>582.0</ele><time>2026-05-04T12:26:20Z</time></trkpt><trkpt lat="43.667573784899716" lon="12.019273650539642"><ele>582.0</ele><time>2026-05-04T12:26:21Z</time></trkpt><trkpt lat="43.667577533471515" lon="12.019114413516933"><ele>582.0</ele><time>2026-05-04T12:26:22Z</time></trkpt><trkpt lat="43.667578275557844" lon="12.018940970425321"><ele>582.0</ele><time>2026-05-04T12:26:23Z</time></trkpt><trkpt lat="43.66757841114058" lon="12.018760195960803"><ele>583.25</ele><time>2026-05-04T12:26:24Z</time></trkpt><trkpt lat="43.66758835148846" lon="12.018588965484357"><ele>584.5</ele><time>2026-05-04T12:26:25Z</time></trkpt><trkpt lat="43.667580492639615" lon="12.018417093852348"><ele>585.75</ele><time>2026-05-04T12:26:26Z</time></trkpt><trkpt lat="43.66755018451406" lon="12.018246839622066"><ele>587.0</ele><time>2026-05-04T12:26:27Z</time></trkpt><trkpt lat="43.66749870520127" lon="12.018082663347423"><ele>587.75</ele><time>2026-05-04T12:26:28Z</time></trkpt><trkpt lat="43.667434872408144" lon="12.017922829541979"><ele>588.5</ele><time>2026-05-04T12:26:29Z</time></trkpt><trkpt lat="43.66736929631721" lon="12.017760768530234"><ele>589.25</ele><time>2026-05-04T12:26:30Z</time></trkpt><trkpt lat="43.66731479773932" lon="12.017594469582436"><ele>590.0</ele><time>2026-05-04T12:26:31Z</time></trkpt><trkpt lat="43.66728113017332" lon="12.017425054861032"><ele>590.25</ele><time>2026-05-04T12:26:32Z</time></trkpt><trkpt lat="43.66728959395656" lon="12.017255796746694"><ele>590.5</ele><time>2026-05-04T12:26:33Z</time></trkpt><trkpt lat="43.66730955419677" lon="12.017078948952674"><ele>590.75</ele><time>2026-05-04T12:26:34Z</time></trkpt><trkpt lat="43.667312428467156" lon="12.01690311413639"><ele>591.0</ele><time>2026-05-04T12:26:35Z</time></trkpt><trkpt lat="43.66734091894804" lon="12.01672296952767"><ele>593.5</ele><time>2026-05-04T12:26:36Z</time></trkpt><trkpt lat="43.66736567326783" lon="12.016544044405794"><ele>596.0</ele><time>2026-05-04T12:26:37Z</time></trkpt><trkpt lat="43.66739068610329" lon="12.016363218835162"><ele>598.5</ele><time>2026-05-04T12:26:38Z</time></trkpt><trkpt lat="43.66743150659491" lon="12.016205606025775"><ele>601.0</ele><time>2026-05-04T12:26:39Z</time></trkpt><trkpt lat="43.667508898518754" lon="12.016079792424074"><ele>601.0</ele><time>2026-05-04T12:26:40Z</time></trkpt><trkpt lat="43.667589959342415" lon="12.015947219776669"><ele>601.0</ele><time>2026-05-04T12:26:41Z</time></trkpt><trkpt lat="43.66766894789872" lon="12.015807545190336"><ele>601.0</ele><time>2026-05-04T12:26:42Z</time></trkpt><trkpt lat="43.66777265325013" lon="12.015696040742714"><ele>601.0</ele><time>2026-05-04T12:26:43Z</time></trkpt><trkpt lat="43.66788479676524" lon="12.015610450784866"><ele>601.5</ele><time>2026-05-04T12:26:44Z</time></trkpt><trkpt lat="43.668007709443664" lon="12.015598214449273"><ele>602.0</ele><time>2026-05-04T12:26:45Z</time></trkpt><trkpt lat="43.66813962653253" lon="12.015543268267294"><ele>602.5</ele><time>2026-05-04T12:26:46Z</time></trkpt><trkpt lat="43.66827060849359" lon="12.015528237650644"><ele>603.0</ele><time>2026-05-04T12:26:47Z</time></trkpt><trkpt lat="43.66839568080771" lon="12.015499409448763"><ele>603.0</ele><time>2026-05-04T12:26:48Z</time></trkpt><trkpt lat="43.66851101109014" lon="12.015461478232853"><ele>603.0</ele><time>2026-05-04T12:26:49Z</time></trkpt><trkpt lat="43.66861359214414" lon="12.015412348350425"><ele>603.0</ele><time>2026-05-04T12:26:50Z</time></trkpt><trkpt lat="43.66871583261213" lon="12.0153323370638"><ele>603.0</ele><time>2026-05-04T12:26:51Z</time></trkpt><trkpt lat="43.668806655109734" lon="12.015221210674746"><ele>600.5</ele><time>2026-05-04T12:26:52Z</time></trkpt><trkpt lat="43.66888440258452" lon="12.015077905105043"><ele>598.0</ele><time>2026-05-04T12:26:53Z</time></trkpt><trkpt lat="43.668943778530014" lon="12.014924096990878"><ele>595.5</ele><time>2026-05-04T12:26:54Z</time></trkpt><trkpt lat="43.66897164281413" lon="12.014763603462294"><ele>593.0</ele><time>2026-05-04T12:26:55Z</time></trkpt><trkpt lat="43.668966832001104" lon="12.014607428999001"><ele>593.0</ele><time>2026-05-04T12:26:56Z</time></trkpt><trkpt lat="43.66892633497628" lon="12.014454332576506"><ele>593.0</ele><time>2026-05-04T12:26:57Z</time></trkpt><trkpt lat="43.6688603883228" lon="12.014314422528383"><ele>593.0</ele><time>2026-05-04T12:26:58Z</time></trkpt><trkpt lat="43.668786623347344" lon="12.014202891487749"><ele>593.0</ele><time>2026-05-04T12:26:59Z</time></trkpt><trkpt lat="43.66869158711457" lon="12.014131939515906"><ele>598.25</ele><time>2026-05-04T12:27:00Z</time></trkpt><trkpt lat="43.668575166821554" lon="12.014084145693642"><ele>603.5</ele><time>2026-05-04T12:27:01Z</time></trkpt><trkpt lat="43.668451609503485" lon="12.014050588135747"><ele>608.75</ele><time>2026-05-04T12:27:02Z</time></trkpt><trkpt lat="43.6683283482789" lon="12.014014192235983"><ele>614.0</ele><time>2026-05-04T12:27:03Z</time></trkpt><trkpt lat="43.668219142499815" lon="12.013974573698311"><ele>614.0</ele><time>2026-05-04T12:27:04Z</time></trkpt><trkpt lat="43.668120430719426" lon="12.013932857629104"><ele>614.0</ele><time>2026-05-04T12:27:05Z</time></trkpt><trkpt lat="43.66803378599537" lon="12.01389354141361"><ele>614.0</ele><time>2026-05-04T12:27:06Z</time></trkpt><trkpt lat="43.66795829996943" lon="12.01385808418712"><ele>614.0</ele><time>2026-05-04T12:27:07Z</time></trkpt><trkpt lat="43.667898863178344" lon="12.013826071051522"><ele>614.0</ele><time>2026-05-04T12:27:08Z</time></trkpt><trkpt lat="43.66782960610752" lon="12.013760014520345"><ele>614.0</ele><time>2026-05-04T12:27:10Z</time></trkpt><trkpt lat="43.66775509139937" lon="12.013900094392218"><ele>615.6666666666666</ele><time>2026-05-04T12:27:11Z</time></trkpt><trkpt lat="43.66771284425812" lon="12.01398004510071"><ele>617.3333333333333</ele><time>2026-05-04T12:27:12Z</time></trkpt><trkpt lat="43.66766667130233" lon="12.014065765739556"><ele>619.0</ele><time>2026-05-04T12:27:13Z</time></trkpt><trkpt lat="43.667613768747245" lon="12.014140078394956"><ele>620.6666666666666</ele><time>2026-05-04T12:27:14Z</time></trkpt><trkpt lat="43.66754904837969" lon="12.014226694378808"><ele>622.3333333333334</ele><time>2026-05-04T12:27:15Z</time></trkpt><trkpt lat="43.667478190050105" lon="12.014325209528295"><ele>624.0</ele><time>2026-05-04T12:27:16Z</time></trkpt><trkpt lat="43.667404805266386" lon="12.014430815777713"><ele>624.0</ele><time>2026-05-04T12:27:17Z</time></trkpt><trkpt lat="43.66733117738988" lon="12.014523944601953"><ele>624.0</ele><time>2026-05-04T12:27:18Z</time></trkpt><trkpt lat="43.66727428475029" lon="12.014609065498293"><ele>624.0</ele><time>2026-05-04T12:27:19Z</time></trkpt><trkpt lat="43.66723082712757" lon="12.014699338385705"><ele>624.0</ele><time>2026-05-04T12:27:20Z</time></trkpt><trkpt lat="43.66720478315241" lon="12.014783624199083"><ele>624.0</ele><time>2026-05-04T12:27:21Z</time></trkpt><trkpt lat="43.66717756750336" lon="12.014884314557166"><ele>624.0</ele><time>2026-05-04T12:27:23Z</time></trkpt><trkpt lat="43.66714120020652" lon="12.015007302453274"><ele>622.5714285714286</ele><time>2026-05-04T12:27:57Z</time></trkpt><trkpt lat="43.667120456255915" lon="12.015093249129874"><ele>621.1428571428571</ele><time>2026-05-04T12:27:58Z</time></trkpt><trkpt lat="43.66709943461151" lon="12.015184014073276"><ele>619.7142857142857</ele><time>2026-05-04T12:27:59Z</time></trkpt><trkpt lat="43.66707834395151" lon="12.015274083879211"><ele>618.2857142857142</ele><time>2026-05-04T12:28:00Z</time></trkpt><trkpt lat="43.667057110294195" lon="12.015357077138408"><ele>616.8571428571429</ele><time>2026-05-04T12:28:01Z</time></trkpt><trkpt lat="43.66703906517822" lon="12.015443925770496"><ele>615.4285714285713</ele><time>2026-05-04T12:28:02Z</time></trkpt><trkpt lat="43.66699938518161" lon="12.01552010004442"><ele>614.0</ele><time>2026-05-04T12:28:03Z</time></trkpt><trkpt lat="43.666947319795995" lon="12.015578067285185"><ele>616.6666666666666</ele><time>2026-05-04T12:28:04Z</time></trkpt><trkpt lat="43.66690304328835" lon="12.01564355797611"><ele>619.3333333333333</ele><time>2026-05-04T12:28:05Z</time></trkpt><trkpt lat="43.666854347730954" lon="12.015723881055862"><ele>622.0</ele><time>2026-05-04T12:28:06Z</time></trkpt><trkpt lat="43.6667832658561" lon="12.015779029329511"><ele>624.6666666666666</ele><time>2026-05-04T12:28:07Z</time></trkpt><trkpt lat="43.66670048253079" lon="12.015824280982294"><ele>627.3333333333334</ele><time>2026-05-04T12:28:08Z</time></trkpt><trkpt lat="43.66661675650899" lon="12.015873625799154"><ele>630.0</ele><time>2026-05-04T12:28:09Z</time></trkpt><trkpt lat="43.6665410880016" lon="12.015946382109306"><ele>630.0</ele><time>2026-05-04T12:28:10Z</time></trkpt><trkpt lat="43.6664790130011" lon="12.016046259784643"><ele>630.0</ele><time>2026-05-04T12:28:11Z</time></trkpt><trkpt lat="43.66642567258053" lon="12.016168310727751"><ele>630.0</ele><time>2026-05-04T12:28:12Z</time></trkpt><trkpt lat="43.66638392546171" lon="12.016306049699802"><ele>630.0</ele><time>2026-05-04T12:28:13Z</time></trkpt><trkpt lat="43.666342489923444" lon="12.016460100363469"><ele>630.0</ele><time>2026-05-04T12:28:14Z</time></trkpt><trkpt lat="43.666311005093846" lon="12.016619634949912"><ele>627.25</ele><time>2026-05-04T12:28:15Z</time></trkpt><trkpt lat="43.66627573455889" lon="12.016785832369695"><ele>624.5</ele><time>2026-05-04T12:28:16Z</time></trkpt><trkpt lat="43.6662547024008" lon="12.01694800849613"><ele>621.75</ele><time>2026-05-04T12:28:17Z</time></trkpt><trkpt lat="43.6662405393671" lon="12.017118052864316"><ele>619.0</ele><time>2026-05-04T12:28:18Z</time></trkpt><trkpt lat="43.66622967394126" lon="12.0172910400156"><ele>619.0</ele><time>2026-05-04T12:28:19Z</time></trkpt><trkpt lat="43.6662184587729" lon="12.01746260379915"><ele>619.0</ele><time>2026-05-04T12:28:20Z</time></trkpt><trkpt lat="43.6662099739866" lon="12.017628445172122"><ele>619.0</ele><time>2026-05-04T12:28:21Z</time></trkpt><trkpt lat="43.6662002081634" lon="12.017784895808095"><ele>619.0</ele><time>2026-05-04T12:28:22Z</time></trkpt><trkpt lat="43.66618451323796" lon="12.017921502082721"><ele>618.8</ele><time>2026-05-04T12:28:23Z</time></trkpt><trkpt lat="43.666160068333014" lon="12.018045122858544"><ele>618.5999999999999</ele><time>2026-05-04T12:28:24Z</time></trkpt><trkpt lat="43.666109417116076" lon="12.0181416397858"><ele>618.4</ele><time>2026-05-04T12:28:25Z</time></trkpt><trkpt lat="43.666039515915465" lon="12.018225772290386"><ele>618.1999999999999</ele><time>2026-05-04T12:28:26Z</time></trkpt><trkpt lat="43.66594456437026" lon="12.018277800832871"><ele>618.0</ele><time>2026-05-04T12:28:27Z</time></trkpt><trkpt lat="43.66583622711538" lon="12.018305615859848"><ele>622.75</ele><time>2026-05-04T12:28:28Z</time></trkpt><trkpt lat="43.66572114545388" lon="12.018319573276457"><ele>627.5</ele><time>2026-05-04T12:28:29Z</time></trkpt><trkpt lat="43.6656101540969" lon="12.018349656036422"><ele>632.25</ele><time>2026-05-04T12:28:30Z</time></trkpt><trkpt lat="43.6654914454764" lon="12.018363651200351"><ele>637.0</ele><time>2026-05-04T12:28:31Z</time></trkpt><trkpt lat="43.66537316949379" lon="12.01838789712148"><ele>638.3333333333334</ele><time>2026-05-04T12:28:32Z</time></trkpt><trkpt lat="43.6652593990608" lon="12.01841154318329"><ele>639.6666666666667</ele><time>2026-05-04T12:28:33Z</time></trkpt><trkpt lat="43.665163707974706" lon="12.018425205848889"><ele>641.0</ele><time>2026-05-04T12:28:34Z</time></trkpt><trkpt lat="43.66509289583174" lon="12.018415430527527"><ele>642.3333333333334</ele><time>2026-05-04T12:28:35Z</time></trkpt><trkpt lat="43.66502535093756" lon="12.018388339633116"><ele>643.6666666666666</ele><time>2026-05-04T12:28:37Z</time></trkpt><trkpt lat="43.66509402364855" lon="12.018416637128324"><ele>645.0</ele><time>2026-05-04T12:30:01Z</time></trkpt><trkpt lat="43.66515904425417" lon="12.018304058423436"><ele>646.6666666666666</ele><time>2026-05-04T12:30:03Z</time></trkpt><trkpt lat="43.66520368073108" lon="12.018240556638888"><ele>648.3333333333334</ele><time>2026-05-04T12:30:05Z</time></trkpt><trkpt lat="43.66525098630205" lon="12.01813622934112"><ele>650.0</ele><time>2026-05-04T12:30:07Z</time></trkpt><trkpt lat="43.6652516107869" lon="12.01803275266955"><ele>651.6666666666667</ele><time>2026-05-04T12:30:09Z</time></trkpt><trkpt lat="43.66525858898549" lon="12.017945822967711"><ele>653.3333333333334</ele><time>2026-05-04T12:30:10Z</time></trkpt><trkpt lat="43.66526873865583" lon="12.017852313197137"><ele>655.0</ele><time>2026-05-04T12:30:11Z</time></trkpt><trkpt lat="43.66526783143684" lon="12.017720443901249"><ele>654.8</ele><time>2026-05-04T12:30:13Z</time></trkpt><trkpt lat="43.66528920743894" lon="12.017614533799488"><ele>654.6</ele><time>2026-05-04T12:30:15Z</time></trkpt><trkpt lat="43.66530436475259" lon="12.017512093755306"><ele>654.4000000000001</ele><time>2026-05-04T12:30:17Z</time></trkpt><trkpt lat="43.66531700848841" lon="12.017364181401804"><ele>654.2</ele><time>2026-05-04T12:30:19Z</time></trkpt><trkpt lat="43.66530833630547" lon="12.017204836142417"><ele>654.0</ele><time>2026-05-04T12:30:21Z</time></trkpt><trkpt lat="43.66529478317586" lon="12.017068399854821"><ele>654.0</ele><time>2026-05-04T12:30:23Z</time></trkpt><trkpt lat="43.665294736282576" lon="12.01693868082782"><ele>654.0</ele><time>2026-05-04T12:30:25Z</time></trkpt><trkpt lat="43.66530412284888" lon="12.016779376412195"><ele>654.0</ele><time>2026-05-04T12:30:27Z</time></trkpt><trkpt lat="43.66529717841832" lon="12.016685807394198"><ele>654.0</ele><time>2026-05-04T12:30:28Z</time></trkpt><trkpt lat="43.665283617154024" lon="12.016600567794121"><ele>654.0</ele><time>2026-05-04T12:30:29Z</time></trkpt><trkpt lat="43.665260593498175" lon="12.016476150037048"><ele>654.0</ele><time>2026-05-04T12:30:30Z</time></trkpt><trkpt lat="43.66523965259312" lon="12.016362420130033"><ele>655.0</ele><time>2026-05-04T12:30:31Z</time></trkpt><trkpt lat="43.66522718327151" lon="12.016249705929596"><ele>656.0</ele><time>2026-05-04T12:30:32Z</time></trkpt><trkpt lat="43.665238476212686" lon="12.01613393354976"><ele>657.0</ele><time>2026-05-04T12:30:33Z</time></trkpt><trkpt lat="43.665261759006775" lon="12.01601892091031"><ele>658.0</ele><time>2026-05-04T12:30:34Z</time></trkpt><trkpt lat="43.665323585444305" lon="12.015923706352508"><ele>659.0</ele><time>2026-05-04T12:30:35Z</time></trkpt><trkpt lat="43.665342920782116" lon="12.015813452305691"><ele>660.0</ele><time>2026-05-04T12:30:36Z</time></trkpt><trkpt lat="43.66537277886247" lon="12.015702373267178"><ele>660.8</ele><time>2026-05-04T12:30:37Z</time></trkpt><trkpt lat="43.66538933777449" lon="12.0156009698828"><ele>661.6</ele><time>2026-05-04T12:30:38Z</time></trkpt><trkpt lat="43.66534624607086" lon="12.015486687302586"><ele>662.4000000000001</ele><time>2026-05-04T12:30:39Z</time></trkpt><trkpt lat="43.665311501754836" lon="12.015357446631716"><ele>663.2</ele><time>2026-05-04T12:30:40Z</time></trkpt><trkpt lat="43.66522476338913" lon="12.015253243380979"><ele>664.0</ele><time>2026-05-04T12:30:41Z</time></trkpt><trkpt lat="43.665155211276044" lon="12.015150220769597"><ele>664.6</ele><time>2026-05-04T12:30:42Z</time></trkpt><trkpt lat="43.665098750892405" lon="12.015037340891917"><ele>665.2</ele><time>2026-05-04T12:30:43Z</time></trkpt><trkpt lat="43.66507902146696" lon="12.014907035479343"><ele>665.8000000000001</ele><time>2026-05-04T12:30:44Z</time></trkpt><trkpt lat="43.66506597645005" lon="12.014766129675333"><ele>666.4000000000001</ele><time>2026-05-04T12:30:45Z</time></trkpt><trkpt lat="43.66506194905298" lon="12.014618109874357"><ele>667.0</ele><time>2026-05-04T12:30:46Z</time></trkpt><trkpt lat="43.66505402933957" lon="12.01447740598932"><ele>667.8</ele><time>2026-05-04T12:30:47Z</time></trkpt><trkpt lat="43.665081387105936" lon="12.01434616098103"><ele>668.6</ele><time>2026-05-04T12:30:48Z</time></trkpt><trkpt lat="43.665116169075944" lon="12.014225550240967"><ele>669.4</ele><time>2026-05-04T12:30:49Z</time></trkpt><trkpt lat="43.665160688228035" lon="12.014138564014182"><ele>670.1999999999999</ele><time>2026-05-04T12:30:50Z</time></trkpt><trkpt lat="43.665228951366664" lon="12.01405881073368"><ele>671.0</ele><time>2026-05-04T12:30:51Z</time></trkpt><trkpt lat="43.665322224316654" lon="12.014001075465236"><ele>673.4</ele><time>2026-05-04T12:30:52Z</time></trkpt><trkpt lat="43.66542473869654" lon="12.013955922244355"><ele>675.8</ele><time>2026-05-04T12:30:53Z</time></trkpt><trkpt lat="43.665540284847104" lon="12.013912359864374"><ele>678.1999999999999</ele><time>2026-05-04T12:30:54Z</time></trkpt><trkpt lat="43.6656351550674" lon="12.013895117775956"><ele>680.5999999999999</ele><time>2026-05-04T12:30:55Z</time></trkpt><trkpt lat="43.66569998092038" lon="12.013850442014933"><ele>683.0</ele><time>2026-05-04T12:30:56Z</time></trkpt><trkpt lat="43.66577324909409" lon="12.01376832400855"><ele>683.0</ele><time>2026-05-04T12:30:57Z</time></trkpt><trkpt lat="43.66581390011811" lon="12.013675551556858"><ele>683.0</ele><time>2026-05-04T12:30:58Z</time></trkpt><trkpt lat="43.66584668560135" lon="12.013554391936633"><ele>683.0</ele><time>2026-05-04T12:30:59Z</time></trkpt><trkpt lat="43.665849074500166" lon="12.0134004555328"><ele>683.0</ele><time>2026-05-04T12:31:00Z</time></trkpt><trkpt lat="43.66588355666073" lon="12.013239874017042"><ele>683.0</ele><time>2026-05-04T12:31:01Z</time></trkpt><trkpt lat="43.665907056114186" lon="12.013076501252517"><ele>684.0</ele><time>2026-05-04T12:31:02Z</time></trkpt><trkpt lat="43.665925005448706" lon="12.01291247825794"><ele>685.0</ele><time>2026-05-04T12:31:03Z</time></trkpt><trkpt lat="43.66594034651327" lon="12.012736837705054"><ele>686.0</ele><time>2026-05-04T12:31:04Z</time></trkpt><trkpt lat="43.66593921495753" lon="12.012544867936498"><ele>687.0</ele><time>2026-05-04T12:31:05Z</time></trkpt><trkpt lat="43.66594507478981" lon="12.012356406147731"><ele>687.0</ele><time>2026-05-04T12:31:06Z</time></trkpt><trkpt lat="43.66596582251823" lon="12.012194339276283"><ele>687.0</ele><time>2026-05-04T12:31:07Z</time></trkpt><trkpt lat="43.665971898118784" lon="12.012051125956235"><ele>687.0</ele><time>2026-05-04T12:31:08Z</time></trkpt><trkpt lat="43.665975806764656" lon="12.011914294878983"><ele>687.0</ele><time>2026-05-04T12:31:09Z</time></trkpt><trkpt lat="43.6659654989436" lon="12.011779729278164"><ele>687.0</ele><time>2026-05-04T12:31:10Z</time></trkpt><trkpt lat="43.66597121802569" lon="12.011635825252068"><ele>686.8</ele><time>2026-05-04T12:31:11Z</time></trkpt><trkpt lat="43.66598809686635" lon="12.011497533009488"><ele>686.6</ele><time>2026-05-04T12:31:12Z</time></trkpt><trkpt lat="43.665991927293234" lon="12.011378355439494"><ele>686.4</ele><time>2026-05-04T12:31:13Z</time></trkpt><trkpt lat="43.66597927295965" lon="12.011257148447983"><ele>686.1999999999999</ele><time>2026-05-04T12:31:14Z</time></trkpt><trkpt lat="43.66601008601444" lon="12.011131273962569"><ele>686.0</ele><time>2026-05-04T12:31:15Z</time></trkpt><trkpt lat="43.666071604197995" lon="12.011020553369741"><ele>686.4</ele><time>2026-05-04T12:31:16Z</time></trkpt><trkpt lat="43.666141476523265" lon="12.010888103337306"><ele>686.8</ele><time>2026-05-04T12:31:17Z</time></trkpt><trkpt lat="43.666201395673234" lon="12.01074186055666"><ele>687.1999999999999</ele><time>2026-05-04T12:31:18Z</time></trkpt><trkpt lat="43.66624338650788" lon="12.010641608200729"><ele>687.5999999999999</ele><time>2026-05-04T12:31:19Z</time></trkpt><trkpt lat="43.66626604492467" lon="12.010536959809206"><ele>688.0</ele><time>2026-05-04T12:31:20Z</time></trkpt><trkpt lat="43.66624853265155" lon="12.010407036898062"><ele>688.2</ele><time>2026-05-04T12:31:21Z</time></trkpt><trkpt lat="43.66616909990491" lon="12.010276764871598"><ele>688.4</ele><time>2026-05-04T12:31:22Z</time></trkpt><trkpt lat="43.66611466295883" lon="12.010132332600843"><ele>688.6</ele><time>2026-05-04T12:31:23Z</time></trkpt><trkpt lat="43.66607582331759" lon="12.01001702018039"><ele>688.8000000000001</ele><time>2026-05-04T12:31:24Z</time></trkpt><trkpt lat="43.6660519729096" lon="12.009875977044326"><ele>689.0</ele><time>2026-05-04T12:31:26Z</time></trkpt><trkpt lat="43.66616278872823" lon="12.009812620407246"><ele>693.2</ele><time>2026-05-04T12:31:28Z</time></trkpt><trkpt lat="43.666236548820905" lon="12.009817612859699"><ele>697.4000000000001</ele><time>2026-05-04T12:31:29Z</time></trkpt><trkpt lat="43.666316752126455" lon="12.009810935893029"><ele>701.6</ele><time>2026-05-04T12:31:30Z</time></trkpt><trkpt lat="43.6664124069137" lon="12.00980318414555"><ele>705.8</ele><time>2026-05-04T12:31:31Z</time></trkpt><trkpt lat="43.66651980287247" lon="12.009787150997543"><ele>710.0</ele><time>2026-05-04T12:31:32Z</time></trkpt><trkpt lat="43.66663428368207" lon="12.009766082862637"><ele>710.0</ele><time>2026-05-04T12:31:33Z</time></trkpt><trkpt lat="43.66674023576805" lon="12.009711241137705"><ele>710.0</ele><time>2026-05-04T12:31:34Z</time></trkpt><trkpt lat="43.66682594392991" lon="12.00965421784297"><ele>710.0</ele><time>2026-05-04T12:31:35Z</time></trkpt><trkpt lat="43.666914099961964" lon="12.00959094558737"><ele>710.0</ele><time>2026-05-04T12:31:36Z</time></trkpt><trkpt lat="43.666971853880845" lon="12.00948957616629"><ele>710.0</ele><time>2026-05-04T12:31:37Z</time></trkpt><trkpt lat="43.66699812942024" lon="12.009365657658568"><ele>709.8</ele><time>2026-05-04T12:31:38Z</time></trkpt><trkpt lat="43.66700424193461" lon="12.009235552750086"><ele>709.6</ele><time>2026-05-04T12:31:39Z</time></trkpt><trkpt lat="43.66698631848815" lon="12.00906785183038"><ele>709.4000000000001</ele><time>2026-05-04T12:31:40Z</time></trkpt><trkpt lat="43.666985284802294" lon="12.00891011669244"><ele>709.2</ele><time>2026-05-04T12:31:41Z</time></trkpt><trkpt lat="43.66698389884704" lon="12.00875040504713"><ele>709.0</ele><time>2026-05-04T12:31:42Z</time></trkpt><trkpt lat="43.66703343280463" lon="12.008599485190397"><ele>712.25</ele><time>2026-05-04T12:31:43Z</time></trkpt><trkpt lat="43.667066695007655" lon="12.00842918137159"><ele>715.5</ele><time>2026-05-04T12:31:44Z</time></trkpt><trkpt lat="43.66711844199289" lon="12.008259762827914"><ele>718.75</ele><time>2026-05-04T12:31:45Z</time></trkpt><trkpt lat="43.66715260205066" lon="12.00808709848361"><ele>722.0</ele><time>2026-05-04T12:31:46Z</time></trkpt><trkpt lat="43.667148026769404" lon="12.007910671733708"><ele>723.8</ele><time>2026-05-04T12:31:47Z</time></trkpt><trkpt lat="43.66712708236492" lon="12.007749589997852"><ele>725.6</ele><time>2026-05-04T12:31:48Z</time></trkpt><trkpt lat="43.66711270960355" lon="12.007621936239868"><ele>727.4</ele><time>2026-05-04T12:31:49Z</time></trkpt><trkpt lat="43.667131116906525" lon="12.007499896140947"><ele>729.1999999999999</ele><time>2026-05-04T12:31:50Z</time></trkpt><trkpt lat="43.667197375742354" lon="12.007396008808787"><ele>731.0</ele><time>2026-05-04T12:31:51Z</time></trkpt><trkpt lat="43.667204153309825" lon="12.007262985109424"><ele>732.4</ele><time>2026-05-04T12:31:52Z</time></trkpt><trkpt lat="43.66718358815906" lon="12.007118208100643"><ele>733.8</ele><time>2026-05-04T12:31:53Z</time></trkpt><trkpt lat="43.667126411755646" lon="12.00700712639"><ele>735.1999999999999</ele><time>2026-05-04T12:31:54Z</time></trkpt><trkpt lat="43.66707342376316" lon="12.006874275169542"><ele>736.5999999999999</ele><time>2026-05-04T12:31:55Z</time></trkpt><trkpt lat="43.66704486060388" lon="12.006718059656308"><ele>738.0</ele><time>2026-05-04T12:31:56Z</time></trkpt><trkpt lat="43.667005156141194" lon="12.00654392067629"><ele>737.8</ele><time>2026-05-04T12:31:57Z</time></trkpt><trkpt lat="43.66699731587937" lon="12.006377964650378"><ele>737.5999999999999</ele><time>2026-05-04T12:31:58Z</time></trkpt><trkpt lat="43.66697534315806" lon="12.006211201516106"><ele>737.4000000000001</ele><time>2026-05-04T12:31:59Z</time></trkpt><trkpt lat="43.66693776893396" lon="12.006055227722879"><ele>737.2</ele><time>2026-05-04T12:32:00Z</time></trkpt><trkpt lat="43.666929013831286" lon="12.005960114399924"><ele>737.0</ele><time>2026-05-04T12:32:01Z</time></trkpt><trkpt lat="43.66688262860278" lon="12.005839830287215"><ele>737.0</ele><time>2026-05-04T12:32:02Z</time></trkpt><trkpt lat="43.66688036834218" lon="12.005715849787299"><ele>737.0</ele><time>2026-05-04T12:32:03Z</time></trkpt><trkpt lat="43.66686086917693" lon="12.005550239405178"><ele>737.0</ele><time>2026-05-04T12:32:04Z</time></trkpt><trkpt lat="43.66689287001923" lon="12.005437628061758"><ele>737.0</ele><time>2026-05-04T12:32:05Z</time></trkpt><trkpt lat="43.66692375789814" lon="12.005343730721727"><ele>737.0</ele><time>2026-05-04T12:32:06Z</time></trkpt><trkpt lat="43.66696929069401" lon="12.005258724166842"><ele>738.1666666666666</ele><time>2026-05-04T12:32:07Z</time></trkpt><trkpt lat="43.667038026374904" lon="12.005192901492602"><ele>739.3333333333333</ele><time>2026-05-04T12:32:08Z</time></trkpt><trkpt lat="43.66709822210495" lon="12.005156026296625"><ele>740.5</ele><time>2026-05-04T12:32:09Z</time></trkpt><trkpt lat="43.66715324628886" lon="12.005091912592393"><ele>741.6666666666666</ele><time>2026-05-04T12:32:10Z</time></trkpt><trkpt lat="43.667204467437976" lon="12.005021539563177"><ele>742.8333333333334</ele><time>2026-05-04T12:32:11Z</time></trkpt><trkpt lat="43.66724849071878" lon="12.004912002908169"><ele>744.0</ele><time>2026-05-04T12:32:12Z</time></trkpt><trkpt lat="43.66728010127433" lon="12.004779394034548"><ele>745.25</ele><time>2026-05-04T12:32:13Z</time></trkpt><trkpt lat="43.667292083236575" lon="12.004626214712086"><ele>746.5</ele><time>2026-05-04T12:32:14Z</time></trkpt><trkpt lat="43.66729474132409" lon="12.00444830512399"><ele>747.75</ele><time>2026-05-04T12:32:15Z</time></trkpt><trkpt lat="43.667292654155176" lon="12.004264935227809"><ele>749.0</ele><time>2026-05-04T12:32:16Z</time></trkpt><trkpt lat="43.66731335813651" lon="12.004125194985487"><ele>749.8000000000001</ele><time>2026-05-04T12:32:17Z</time></trkpt><trkpt lat="43.6673279352438" lon="12.003989101463157"><ele>750.6</ele><time>2026-05-04T12:32:18Z</time></trkpt><trkpt lat="43.6673425276071" lon="12.003839497827098"><ele>751.4</ele><time>2026-05-04T12:32:19Z</time></trkpt><trkpt lat="43.66735855277894" lon="12.003686651568662"><ele>752.2</ele><time>2026-05-04T12:32:20Z</time></trkpt><trkpt lat="43.667375000864915" lon="12.003539525227586"><ele>753.0</ele><time>2026-05-04T12:32:21Z</time></trkpt><trkpt lat="43.66738321126386" lon="12.003393544513395"><ele>751.4</ele><time>2026-05-04T12:32:22Z</time></trkpt><trkpt lat="43.66739895303124" lon="12.003241230089685"><ele>749.8</ele><time>2026-05-04T12:32:23Z</time></trkpt><trkpt lat="43.66739698830823" lon="12.003102292346387"><ele>748.2</ele><time>2026-05-04T12:32:24Z</time></trkpt><trkpt lat="43.66739672080497" lon="12.002988243680308"><ele>746.6</ele><time>2026-05-04T12:32:25Z</time></trkpt><trkpt lat="43.66741364274634" lon="12.00286905796867"><ele>745.0</ele><time>2026-05-04T12:32:26Z</time></trkpt><trkpt lat="43.667426189394995" lon="12.002759324244236"><ele>745.0</ele><time>2026-05-04T12:32:27Z</time></trkpt><trkpt lat="43.66743931984767" lon="12.002637688504759"><ele>745.0</ele><time>2026-05-04T12:32:28Z</time></trkpt><trkpt lat="43.66744750361394" lon="12.002520868989214"><ele>745.0</ele><time>2026-05-04T12:32:29Z</time></trkpt><trkpt lat="43.6674705535512" lon="12.002412281671782"><ele>745.0</ele><time>2026-05-04T12:32:30Z</time></trkpt><trkpt lat="43.667524197802464" lon="12.002311484542156"><ele>745.0</ele><time>2026-05-04T12:32:31Z</time></trkpt><trkpt lat="43.667589505664544" lon="12.002219639248185"><ele>745.0</ele><time>2026-05-04T12:32:32Z</time></trkpt><trkpt lat="43.6676572016892" lon="12.002092590523421"><ele>743.4</ele><time>2026-05-04T12:32:33Z</time></trkpt><trkpt lat="43.66769120269342" lon="12.00196309980715"><ele>741.8</ele><time>2026-05-04T12:32:34Z</time></trkpt><trkpt lat="43.667728166680064" lon="12.001841609068945"><ele>740.2</ele><time>2026-05-04T12:32:35Z</time></trkpt><trkpt lat="43.667730787030656" lon="12.001690987570745"><ele>738.6</ele><time>2026-05-04T12:32:36Z</time></trkpt><trkpt lat="43.66774596069045" lon="12.001577854584571"><ele>737.0</ele><time>2026-05-04T12:32:37Z</time></trkpt><trkpt lat="43.667736329105836" lon="12.00145426369759"><ele>737.0</ele><time>2026-05-04T12:32:38Z</time></trkpt><trkpt lat="43.66769290583488" lon="12.00133278107402"><ele>737.0</ele><time>2026-05-04T12:32:39Z</time></trkpt><trkpt lat="43.667630218354994" lon="12.001224762755337"><ele>737.0</ele><time>2026-05-04T12:32:40Z</time></trkpt><trkpt lat="43.66757723280263" lon="12.00113497113781"><ele>737.0</ele><time>2026-05-04T12:32:41Z</time></trkpt><trkpt lat="43.667533553611875" lon="12.0010373231822"><ele>737.0</ele><time>2026-05-04T12:32:42Z</time></trkpt><trkpt lat="43.667494504807465" lon="12.000946070724838"><ele>737.0</ele><time>2026-05-04T12:32:43Z</time></trkpt><trkpt lat="43.667468987906126" lon="12.000854337973163"><ele>737.8571428571429</ele><time>2026-05-04T12:32:44Z</time></trkpt><trkpt lat="43.66744716609632" lon="12.000772179170964"><ele>738.7142857142858</ele><time>2026-05-04T12:32:45Z</time></trkpt><trkpt lat="43.66741511800703" lon="12.000631771989507"><ele>739.5714285714287</ele><time>2026-05-04T12:32:47Z</time></trkpt><trkpt lat="43.66742123454926" lon="12.00054257442736"><ele>740.4285714285714</ele><time>2026-05-04T12:32:48Z</time></trkpt><trkpt lat="43.66740170102369" lon="12.000454463234647"><ele>741.2857142857142</ele><time>2026-05-04T12:32:49Z</time></trkpt><trkpt lat="43.66739538112832" lon="12.000360786230592"><ele>742.1428571428572</ele><time>2026-05-04T12:32:50Z</time></trkpt><trkpt lat="43.66739002763027" lon="12.000266808193663"><ele>743.0</ele><time>2026-05-04T12:32:51Z</time></trkpt><trkpt lat="43.66737091672729" lon="12.000178722696345"><ele>743.0</ele><time>2026-05-04T12:32:52Z</time></trkpt><trkpt lat="43.66733958246825" lon="12.000027379222928"><ele>743.0</ele><time>2026-05-04T12:32:54Z</time></trkpt><trkpt lat="43.66729638029276" lon="11.99988490283101"><ele>743.0</ele><time>2026-05-04T12:32:56Z</time></trkpt><trkpt lat="43.66723550859846" lon="11.99973857025251"><ele>743.0</ele><time>2026-05-04T12:32:58Z</time></trkpt><trkpt lat="43.66719366990049" lon="11.99957723533109"><ele>743.0</ele><time>2026-05-04T12:33:00Z</time></trkpt><trkpt lat="43.6671539851963" lon="11.999420103806683"><ele>743.0</ele><time>2026-05-04T12:33:02Z</time></trkpt><trkpt lat="43.667095460848664" lon="11.999197576361171"><ele>743.0</ele><time>2026-05-04T12:33:05Z</time></trkpt><trkpt lat="43.667070757672185" lon="11.999046229425733"><ele>743.0</ele><time>2026-05-04T12:33:07Z</time></trkpt><trkpt lat="43.66703250561569" lon="11.99889659427469"><ele>743.3333333333333</ele><time>2026-05-04T12:33:09Z</time></trkpt><trkpt lat="43.666996075191584" lon="11.99876916379647"><ele>743.6666666666666</ele><time>2026-05-04T12:33:11Z</time></trkpt><trkpt lat="43.667021083302906" lon="11.998688321093406"><ele>744.0</ele><time>2026-05-04T12:33:13Z</time></trkpt><trkpt lat="43.667051204315094" lon="11.998589491506797"><ele>744.3333333333334</ele><time>2026-05-04T12:33:15Z</time></trkpt><trkpt lat="43.667116276697854" lon="11.998549984555872"><ele>744.6666666666667</ele><time>2026-05-04T12:33:16Z</time></trkpt><trkpt lat="43.66715962447869" lon="11.998470268505017"><ele>745.0</ele><time>2026-05-04T12:33:17Z</time></trkpt><trkpt lat="43.66723640598725" lon="11.998473190598672"><ele>745.0</ele><time>2026-05-04T12:33:18Z</time></trkpt><trkpt lat="43.66729202050471" lon="11.998596151722767"><ele>745.0</ele><time>2026-05-04T12:33:19Z</time></trkpt><trkpt lat="43.66735368614833" lon="11.99855307448159"><ele>745.0</ele><time>2026-05-04T12:33:20Z</time></trkpt><trkpt lat="43.66743283867585" lon="11.998356163731913"><ele>745.0</ele><time>2026-05-04T12:33:21Z</time></trkpt><trkpt lat="43.66747912449373" lon="11.998144611731918"><ele>748.3333333333334</ele><time>2026-05-04T12:33:22Z</time></trkpt><trkpt lat="43.667326652641044" lon="11.997765730677836"><ele>751.6666666666666</ele><time>2026-05-04T12:33:23Z</time></trkpt><trkpt lat="43.66732412295297" lon="11.997607333544273"><ele>755.0</ele><time>2026-05-04T12:33:25Z</time></trkpt><trkpt lat="43.66736596420629" lon="11.997504802267589"><ele>756.6</ele><time>2026-05-04T12:33:26Z</time></trkpt><trkpt lat="43.66739911292509" lon="11.997402069704409"><ele>758.2</ele><time>2026-05-04T12:33:27Z</time></trkpt><trkpt lat="43.66742128859399" lon="11.997296292804748"><ele>759.8</ele><time>2026-05-04T12:33:28Z</time></trkpt><trkpt lat="43.66745566667066" lon="11.997186894288921"><ele>761.4</ele><time>2026-05-04T12:33:29Z</time></trkpt><trkpt lat="43.667500330905355" lon="11.997037744172628"><ele>763.0</ele><time>2026-05-04T12:33:30Z</time></trkpt><trkpt lat="43.66754834177111" lon="11.996877679617299"><ele>763.0</ele><time>2026-05-04T12:33:31Z</time></trkpt><trkpt lat="43.66759586797922" lon="11.996746815212187"><ele>763.0</ele><time>2026-05-04T12:33:32Z</time></trkpt><trkpt lat="43.66761937423396" lon="11.996635698208214"><ele>763.0</ele><time>2026-05-04T12:33:33Z</time></trkpt><trkpt lat="43.667626044779674" lon="11.996510950242811"><ele>763.0</ele><time>2026-05-04T12:33:34Z</time></trkpt><trkpt lat="43.66767099168611" lon="11.99639985259961"><ele>763.0</ele><time>2026-05-04T12:33:35Z</time></trkpt><trkpt lat="43.66766802403838" lon="11.996308196602921"><ele>763.0</ele><time>2026-05-04T12:33:36Z</time></trkpt><trkpt lat="43.667657248906224" lon="11.99618795795044"><ele>764.5999999999999</ele><time>2026-05-04T12:33:37Z</time></trkpt><trkpt lat="43.667655261461604" lon="11.996064002771568"><ele>766.1999999999999</ele><time>2026-05-04T12:33:38Z</time></trkpt><trkpt lat="43.66757812391645" lon="11.995891366367323"><ele>767.8</ele><time>2026-05-04T12:33:40Z</time></trkpt><trkpt lat="43.667534762475" lon="11.99579188149248"><ele>769.4</ele><time>2026-05-04T12:33:41Z</time></trkpt><trkpt lat="43.66751212723332" lon="11.995670672763788"><ele>771.0</ele><time>2026-05-04T12:33:42Z</time></trkpt><trkpt lat="43.667489818917296" lon="11.995555127338681"><ele>773.3333333333334</ele><time>2026-05-04T12:33:43Z</time></trkpt><trkpt lat="43.66747621550792" lon="11.995426632069888"><ele>775.6666666666667</ele><time>2026-05-04T12:33:44Z</time></trkpt><trkpt lat="43.66746236283894" lon="11.995327056353347"><ele>778.0</ele><time>2026-05-04T12:33:45Z</time></trkpt><trkpt lat="43.66742906320133" lon="11.995205766976076"><ele>780.3333333333334</ele><time>2026-05-04T12:33:46Z</time></trkpt><trkpt lat="43.667381555502644" lon="11.995109961399578"><ele>782.6666666666667</ele><time>2026-05-04T12:33:47Z</time></trkpt><trkpt lat="43.667330881230136" lon="11.995005389789481"><ele>785.0</ele><time>2026-05-04T12:33:48Z</time></trkpt><trkpt lat="43.66729059066082" lon="11.994911314775115"><ele>786.5000000000001</ele><time>2026-05-04T12:33:49Z</time></trkpt><trkpt lat="43.6672462879763" lon="11.994800200977798"><ele>788.0</ele><time>2026-05-04T12:33:50Z</time></trkpt><trkpt lat="43.66721547270266" lon="11.99468974428592"><ele>789.5</ele><time>2026-05-04T12:33:51Z</time></trkpt><trkpt lat="43.66723628654044" lon="11.994544954066459"><ele>791.0</ele><time>2026-05-04T12:33:53Z</time></trkpt><trkpt lat="43.66725700795252" lon="11.994453577555003"><ele>792.5000000000001</ele><time>2026-05-04T12:34:29Z</time></trkpt><trkpt lat="43.667318927590415" lon="11.994388596328104"><ele>794.0</ele><time>2026-05-04T12:53:19Z</time></trkpt><trkpt lat="43.66739718157442" lon="11.994373226506776"><ele>794.0</ele><time>2026-05-04T12:53:22Z</time></trkpt><trkpt lat="43.66749692237816" lon="11.99437633470347"><ele>794.0</ele><time>2026-05-04T12:53:25Z</time></trkpt><trkpt lat="43.66759822833245" lon="11.994395102152978"><ele>794.0</ele><time>2026-05-04T12:53:27Z</time></trkpt><trkpt lat="43.66771627057554" lon="11.994425194791333"><ele>794.0</ele><time>2026-05-04T12:53:29Z</time></trkpt><trkpt lat="43.66778106332713" lon="11.994443602572005"><ele>794.0</ele><time>2026-05-04T12:53:30Z</time></trkpt><trkpt lat="43.66785403020269" lon="11.994454355207647"><ele>794.0000000000001</ele><time>2026-05-04T12:53:31Z</time></trkpt><trkpt lat="43.66791913643742" lon="11.994455963936856"><ele>794.0</ele><time>2026-05-04T12:53:32Z</time></trkpt><trkpt lat="43.66801780918611" lon="11.994443768319368"><ele>794.0</ele><time>2026-05-04T12:53:34Z</time></trkpt><trkpt lat="43.66812001595093" lon="11.994438352503465"><ele>794.0</ele><time>2026-05-04T12:54:07Z</time></trkpt><trkpt lat="43.66823252134045" lon="11.994438033370537"><ele>794.0000000000001</ele><time>2026-05-04T12:54:09Z</time></trkpt><trkpt lat="43.66829429836862" lon="11.994475671974827"><ele>794.0</ele><time>2026-05-04T12:54:10Z</time></trkpt><trkpt lat="43.668357462456484" lon="11.994475091729386"><ele>794.0000000000001</ele><time>2026-05-04T12:54:11Z</time></trkpt><trkpt lat="43.66843222504005" lon="11.994476803198397"><ele>794.0</ele><time>2026-05-04T12:54:12Z</time></trkpt><trkpt lat="43.66850218115992" lon="11.994473269874899"><ele>794.0</ele><time>2026-05-04T12:54:13Z</time></trkpt><trkpt lat="43.668578091773114" lon="11.994459802050336"><ele>794.0</ele><time>2026-05-04T12:54:14Z</time></trkpt><trkpt lat="43.66864245599899" lon="11.994446163467064"><ele>794.0000000000001</ele><time>2026-05-04T12:54:15Z</time></trkpt><trkpt lat="43.66870475588547" lon="11.994418518068752"><ele>794.0</ele><time>2026-05-04T12:54:16Z</time></trkpt><trkpt lat="43.66881490837233" lon="11.994351458949767"><ele>793.4000000000001</ele><time>2026-05-04T12:54:18Z</time></trkpt><trkpt lat="43.66892446490322" lon="11.994263355697994"><ele>792.8</ele><time>2026-05-04T12:54:20Z</time></trkpt><trkpt lat="43.66898287756143" lon="11.994197234603574"><ele>792.2</ele><time>2026-05-04T12:54:21Z</time></trkpt><trkpt lat="43.66903638600382" lon="11.994137895122249"><ele>791.5999999999999</ele><time>2026-05-04T12:54:22Z</time></trkpt><trkpt lat="43.66909757262947" lon="11.994089164714296"><ele>791.0</ele><time>2026-05-04T12:54:23Z</time></trkpt><trkpt lat="43.66920749866669" lon="11.994007765279239"><ele>785.8</ele><time>2026-05-04T12:54:25Z</time></trkpt><trkpt lat="43.669340683082304" lon="11.993948760161953"><ele>780.5999999999999</ele><time>2026-05-04T12:54:27Z</time></trkpt><trkpt lat="43.66940857066895" lon="11.993924207085227"><ele>775.4</ele><time>2026-05-04T12:54:28Z</time></trkpt><trkpt lat="43.66951684740087" lon="11.993907157954743"><ele>770.2</ele><time>2026-05-04T12:54:30Z</time></trkpt><trkpt lat="43.669631686841605" lon="11.993944903381585"><ele>765.0</ele><time>2026-05-04T12:54:32Z</time></trkpt><trkpt lat="43.66969352412822" lon="11.99399402323082"><ele>763.1666666666666</ele><time>2026-05-04T12:54:33Z</time></trkpt><trkpt lat="43.66975322088003" lon="11.994055973146352"><ele>761.3333333333334</ele><time>2026-05-04T12:54:34Z</time></trkpt><trkpt lat="43.66981310208683" lon="11.994104863760294"><ele>759.5</ele><time>2026-05-04T12:54:35Z</time></trkpt><trkpt lat="43.66992641078167" lon="11.994150486297348"><ele>757.6666666666667</ele><time>2026-05-04T12:54:37Z</time></trkpt><trkpt lat="43.669995209668286" lon="11.99419317418895"><ele>755.8333333333334</ele><time>2026-05-04T12:54:38Z</time></trkpt><trkpt lat="43.67008395340434" lon="11.994282343807267"><ele>754.0</ele><time>2026-05-04T12:54:40Z</time></trkpt><trkpt lat="43.67013736139712" lon="11.99438858047241"><ele>754.2</ele><time>2026-05-04T12:54:42Z</time></trkpt><trkpt lat="43.67020044453806" lon="11.994421081597936"><ele>754.4000000000001</ele><time>2026-05-04T12:54:46Z</time></trkpt><trkpt lat="43.6702907374446" lon="11.99433794275051"><ele>754.6</ele><time>2026-05-04T12:54:48Z</time></trkpt><trkpt lat="43.670376452257486" lon="11.994240719491259"><ele>754.8</ele><time>2026-05-04T12:54:50Z</time></trkpt><trkpt lat="43.6704788439188" lon="11.994182675679173"><ele>755.0</ele><time>2026-05-04T12:54:52Z</time></trkpt><trkpt lat="43.670538176301285" lon="11.99414156227004"><ele>755.0</ele><time>2026-05-04T12:54:53Z</time></trkpt><trkpt lat="43.67059846307369" lon="11.994096193616272"><ele>755.0</ele><time>2026-05-04T12:54:54Z</time></trkpt><trkpt lat="43.670660980987925" lon="11.994041536864932"><ele>755.0</ele><time>2026-05-04T12:54:55Z</time></trkpt><trkpt lat="43.67074104803941" lon="11.993993003368125"><ele>755.0</ele><time>2026-05-04T12:54:56Z</time></trkpt><trkpt lat="43.67081985511011" lon="11.993941633344985"><ele>755.0</ele><time>2026-05-04T12:54:57Z</time></trkpt><trkpt lat="43.670887710394325" lon="11.993907342173022"><ele>755.0</ele><time>2026-05-04T12:54:58Z</time></trkpt><trkpt lat="43.670952888284575" lon="11.993858354506319"><ele>755.0</ele><time>2026-05-04T12:54:59Z</time></trkpt><trkpt lat="43.671009457668234" lon="11.993819705063029"><ele>755.0</ele><time>2026-05-04T12:55:00Z</time></trkpt><trkpt lat="43.67108352120191" lon="11.99379006014945"><ele>755.0</ele><time>2026-05-04T12:55:01Z</time></trkpt><trkpt lat="43.671156724575155" lon="11.993771412023596"><ele>755.0</ele><time>2026-05-04T12:55:02Z</time></trkpt><trkpt lat="43.671221733405005" lon="11.993756969531663"><ele>755.0</ele><time>2026-05-04T12:55:03Z</time></trkpt><trkpt lat="43.67135148637478" lon="11.993773808551527"><ele>755.0</ele><time>2026-05-04T12:55:05Z</time></trkpt><trkpt lat="43.671422804439906" lon="11.993786604282466"><ele>754.3333333333333</ele><time>2026-05-04T12:55:06Z</time></trkpt><trkpt lat="43.67148461944128" lon="11.99380743916008"><ele>753.6666666666666</ele><time>2026-05-04T12:55:07Z</time></trkpt><trkpt lat="43.67154590802482" lon="11.993843930822594"><ele>753.0</ele><time>2026-05-04T12:55:08Z</time></trkpt><trkpt lat="43.671608594955806" lon="11.993888121264657"><ele>752.3333333333334</ele><time>2026-05-04T12:55:09Z</time></trkpt><trkpt lat="43.67167736806628" lon="11.99392286232301"><ele>751.6666666666667</ele><time>2026-05-04T12:55:10Z</time></trkpt><trkpt lat="43.67178584691431" lon="11.993893974087094"><ele>751.0</ele><time>2026-05-04T12:55:12Z</time></trkpt><trkpt lat="43.67184209604304" lon="11.993831947256623"><ele>751.0</ele><time>2026-05-04T12:55:13Z</time></trkpt><trkpt lat="43.67190194975184" lon="11.993792709489059"><ele>751.0</ele><time>2026-05-04T12:55:14Z</time></trkpt><trkpt lat="43.671962849569475" lon="11.993757016568479"><ele>751.0</ele><time>2026-05-04T12:55:15Z</time></trkpt><trkpt lat="43.67199500234215" lon="11.993578689906487"><ele>751.0</ele><time>2026-05-04T12:55:17Z</time></trkpt><trkpt lat="43.67200330802321" lon="11.993459743242836"><ele>751.0</ele><time>2026-05-04T12:55:18Z</time></trkpt><trkpt lat="43.67200857502037" lon="11.993369069165224"><ele>751.0</ele><time>2026-05-04T12:55:19Z</time></trkpt><trkpt lat="43.67205154105271" lon="11.993299885490652"><ele>748.0</ele><time>2026-05-04T12:55:21Z</time></trkpt><trkpt lat="43.67213804234932" lon="11.993223057413472"><ele>745.0</ele><time>2026-05-04T12:55:23Z</time></trkpt><trkpt lat="43.672197279233096" lon="11.993157141463316"><ele>742.0</ele><time>2026-05-04T12:55:24Z</time></trkpt><trkpt lat="43.67225189670935" lon="11.9930688192935"><ele>739.0</ele><time>2026-05-04T12:55:25Z</time></trkpt><trkpt lat="43.6722895961509" lon="11.992984468611217"><ele>736.0</ele><time>2026-05-04T12:55:26Z</time></trkpt><trkpt lat="43.67232129761628" lon="11.992846421033244"><ele>733.0</ele><time>2026-05-04T12:55:28Z</time></trkpt><trkpt lat="43.67233900719139" lon="11.992702677447848"><ele>733.0</ele><time>2026-05-04T12:55:30Z</time></trkpt><trkpt lat="43.67240322466591" lon="11.992537386600178"><ele>733.0</ele><time>2026-05-04T12:55:32Z</time></trkpt><trkpt lat="43.67245660000356" lon="11.992448318337665"><ele>733.0</ele><time>2026-05-04T12:55:33Z</time></trkpt><trkpt lat="43.6725571330856" lon="11.992341412069647"><ele>733.0</ele><time>2026-05-04T12:55:35Z</time></trkpt><trkpt lat="43.6726436256811" lon="11.992284825077848"><ele>733.0</ele><time>2026-05-04T12:55:36Z</time></trkpt><trkpt lat="43.672720303579005" lon="11.992226097898936"><ele>730.2</ele><time>2026-05-04T12:55:37Z</time></trkpt><trkpt lat="43.67279553168949" lon="11.992146768798271"><ele>727.4</ele><time>2026-05-04T12:55:38Z</time></trkpt><trkpt lat="43.67285536037198" lon="11.992091998044588"><ele>724.6</ele><time>2026-05-04T12:55:39Z</time></trkpt><trkpt lat="43.67292512044233" lon="11.992030466146494"><ele>721.8000000000001</ele><time>2026-05-04T12:55:41Z</time></trkpt><trkpt lat="43.673028942977716" lon="11.9920225764511"><ele>719.0</ele><time>2026-05-04T12:55:43Z</time></trkpt><trkpt lat="43.67315803471007" lon="11.9920628233332"><ele>719.0</ele><time>2026-05-04T12:55:45Z</time></trkpt><trkpt lat="43.6732275830158" lon="11.992073158739831"><ele>719.0</ele><time>2026-05-04T12:55:46Z</time></trkpt><trkpt lat="43.67329641290708" lon="11.99206610780532"><ele>719.0</ele><time>2026-05-04T12:55:47Z</time></trkpt><trkpt lat="43.67336034909859" lon="11.992044190897122"><ele>719.0</ele><time>2026-05-04T12:55:48Z</time></trkpt><trkpt lat="43.673431707834865" lon="11.992028968753878"><ele>719.0</ele><time>2026-05-04T12:55:49Z</time></trkpt><trkpt lat="43.673492486388334" lon="11.991894453876407"><ele>719.0</ele><time>2026-05-04T12:55:51Z</time></trkpt><trkpt lat="43.67349988287484" lon="11.9917993168277"><ele>719.0</ele><time>2026-05-04T12:55:52Z</time></trkpt><trkpt lat="43.673490683502095" lon="11.991675662540146"><ele>719.0</ele><time>2026-05-04T12:55:53Z</time></trkpt><trkpt lat="43.6734933987146" lon="11.991569722493688"><ele>719.0</ele><time>2026-05-04T12:55:54Z</time></trkpt><trkpt lat="43.673524552834316" lon="11.991439689431415"><ele>719.0</ele><time>2026-05-04T12:55:56Z</time></trkpt><trkpt lat="43.6735618955301" lon="11.99131960354511"><ele>719.0</ele><time>2026-05-04T12:55:58Z</time></trkpt><trkpt lat="43.67358097698087" lon="11.991151543431897"><ele>717.0</ele><time>2026-05-04T12:56:00Z</time></trkpt><trkpt lat="43.67359876215353" lon="11.991055195425593"><ele>715.0</ele><time>2026-05-04T12:56:01Z</time></trkpt><trkpt lat="43.673631138303115" lon="11.990956625124985"><ele>713.0</ele><time>2026-05-04T12:56:02Z</time></trkpt><trkpt lat="43.67366680160046" lon="11.99087933090775"><ele>711.0</ele><time>2026-05-04T12:56:03Z</time></trkpt><trkpt lat="43.6737384542495" lon="11.990765618288341"><ele>709.0</ele><time>2026-05-04T12:56:05Z</time></trkpt><trkpt lat="43.67381411522848" lon="11.990659845335077"><ele>707.0</ele><time>2026-05-04T12:56:07Z</time></trkpt><trkpt lat="43.67386929068501" lon="11.99059037464228"><ele>704.3333333333333</ele><time>2026-05-04T12:56:08Z</time></trkpt><trkpt lat="43.67393297577526" lon="11.990529838029769"><ele>701.6666666666666</ele><time>2026-05-04T12:56:09Z</time></trkpt><trkpt lat="43.673990507213354" lon="11.990451882709309"><ele>699.0</ele><time>2026-05-04T12:56:10Z</time></trkpt><trkpt lat="43.674036293404455" lon="11.99036772895094"><ele>696.3333333333334</ele><time>2026-05-04T12:56:11Z</time></trkpt><trkpt lat="43.67412348851629" lon="11.990259559851037"><ele>693.6666666666667</ele><time>2026-05-04T12:56:13Z</time></trkpt><trkpt lat="43.67417420773053" lon="11.990192501102158"><ele>691.0</ele><time>2026-05-04T12:56:15Z</time></trkpt><trkpt lat="43.67423223572523" lon="11.99012663937263"><ele>691.0</ele><time>2026-05-04T12:58:21Z</time></trkpt><trkpt lat="43.67432096147994" lon="11.990057879774032"><ele>691.0</ele><time>2026-05-04T12:59:01Z</time></trkpt><trkpt lat="43.67439461771509" lon="11.990002232626457"><ele>691.0</ele><time>2026-05-04T12:59:07Z</time></trkpt><trkpt lat="43.674459877957396" lon="11.989939476431347"><ele>691.0</ele><time>2026-05-04T12:59:22Z</time></trkpt><trkpt lat="43.67454037947211" lon="11.989888105260567"><ele>691.0</ele><time>2026-05-04T12:59:24Z</time></trkpt><trkpt lat="43.674659586846474" lon="11.989832164434832"><ele>686.5</ele><time>2026-05-04T12:59:26Z</time></trkpt><trkpt lat="43.67472151571619" lon="11.989806826880637"><ele>682.0</ele><time>2026-05-04T12:59:27Z</time></trkpt><trkpt lat="43.67478355776019" lon="11.989786618218547"><ele>677.5</ele><time>2026-05-04T12:59:28Z</time></trkpt><trkpt lat="43.6748958695435" lon="11.989761671970872"><ele>673.0</ele><time>2026-05-04T12:59:30Z</time></trkpt><trkpt lat="43.67501769409332" lon="11.989753624291836"><ele>668.5</ele><time>2026-05-04T12:59:32Z</time></trkpt><trkpt lat="43.6750840900984" lon="11.989754053082121"><ele>664.0</ele><time>2026-05-04T12:59:33Z</time></trkpt><trkpt lat="43.67514948799907" lon="11.989755337714566"><ele>664.0</ele><time>2026-05-04T12:59:34Z</time></trkpt><trkpt lat="43.6752251900271" lon="11.989757174590881"><ele>664.0</ele><time>2026-05-04T12:59:35Z</time></trkpt><trkpt lat="43.675293828413324" lon="11.989755326204357"><ele>664.0</ele><time>2026-05-04T12:59:36Z</time></trkpt><trkpt lat="43.67535903205315" lon="11.989754653146997"><ele>664.0</ele><time>2026-05-04T12:59:37Z</time></trkpt><trkpt lat="43.67542912768703" lon="11.989750879340846"><ele>664.0</ele><time>2026-05-04T12:59:38Z</time></trkpt><trkpt lat="43.67549626293044" lon="11.989732186017935"><ele>664.0</ele><time>2026-05-04T12:59:39Z</time></trkpt><trkpt lat="43.675610776425714" lon="11.989663828096834"><ele>663.3333333333334</ele><time>2026-05-04T12:59:41Z</time></trkpt><trkpt lat="43.67567331392547" lon="11.989618949425857"><ele>662.6666666666667</ele><time>2026-05-04T12:59:42Z</time></trkpt><trkpt lat="43.6757727945449" lon="11.989546648905103"><ele>662.0</ele><time>2026-05-04T12:59:44Z</time></trkpt><trkpt lat="43.67582367747197" lon="11.989486213160413"><ele>661.3333333333334</ele><time>2026-05-04T12:59:45Z</time></trkpt><trkpt lat="43.67588425561509" lon="11.989420722419686"><ele>660.6666666666666</ele><time>2026-05-04T12:59:46Z</time></trkpt><trkpt lat="43.675946641634624" lon="11.989356928731393"><ele>660.0</ele><time>2026-05-04T12:59:47Z</time></trkpt><trkpt lat="43.67599397758879" lon="11.989295479531465"><ele>660.0</ele><time>2026-05-04T12:59:48Z</time></trkpt><trkpt lat="43.67604799386728" lon="11.98923169525645"><ele>660.0</ele><time>2026-05-04T12:59:49Z</time></trkpt><trkpt lat="43.676106770804076" lon="11.989127151637021"><ele>660.0</ele><time>2026-05-04T12:59:51Z</time></trkpt><trkpt lat="43.67614330055472" lon="11.988975470317833"><ele>660.0</ele><time>2026-05-04T12:59:53Z</time></trkpt><trkpt lat="43.676188273142664" lon="11.988912566441297"><ele>660.0</ele><time>2026-05-04T12:59:54Z</time></trkpt><trkpt lat="43.67623227294953" lon="11.98883374777219"><ele>660.0</ele><time>2026-05-04T12:59:55Z</time></trkpt><trkpt lat="43.67627444183303" lon="11.988765913442574"><ele>658.1666666666666</ele><time>2026-05-04T12:59:56Z</time></trkpt><trkpt lat="43.67631854222635" lon="11.988701027729268"><ele>656.3333333333334</ele><time>2026-05-04T12:59:57Z</time></trkpt><trkpt lat="43.67641698143067" lon="11.988603947355905"><ele>654.5</ele><time>2026-05-04T12:59:59Z</time></trkpt><trkpt lat="43.67653816902588" lon="11.988591377357285"><ele>652.6666666666667</ele><time>2026-05-04T13:00:01Z</time></trkpt><trkpt lat="43.67660261341414" lon="11.988590200714539"><ele>650.8333333333334</ele><time>2026-05-04T13:00:02Z</time></trkpt><trkpt lat="43.67667642073594" lon="11.988594145074137"><ele>649.0</ele><time>2026-05-04T13:00:03Z</time></trkpt><trkpt lat="43.67675750189457" lon="11.988618532498858"><ele>649.0</ele><time>2026-05-04T13:00:04Z</time></trkpt><trkpt lat="43.67682412356022" lon="11.988636694316366"><ele>649.0</ele><time>2026-05-04T13:00:05Z</time></trkpt><trkpt lat="43.676938271252425" lon="11.98861531340076"><ele>649.0</ele><time>2026-05-04T13:00:07Z</time></trkpt><trkpt lat="43.67701884416016" lon="11.98858955346375"><ele>649.0</ele><time>2026-05-04T13:00:08Z</time></trkpt><trkpt lat="43.677084003990444" lon="11.988553921213747"><ele>649.0</ele><time>2026-05-04T13:00:09Z</time></trkpt><trkpt lat="43.67718404924818" lon="11.988556770263315"><ele>649.0</ele><time>2026-05-04T13:00:11Z</time></trkpt><trkpt lat="43.677301306111346" lon="11.988637616067319"><ele>648.8333333333334</ele><time>2026-05-04T13:00:13Z</time></trkpt><trkpt lat="43.6773730582718" lon="11.988661025454054"><ele>648.6666666666667</ele><time>2026-05-04T13:00:14Z</time></trkpt><trkpt lat="43.67743991847419" lon="11.988659385616778"><ele>648.5</ele><time>2026-05-04T13:00:15Z</time></trkpt><trkpt lat="43.677521992152435" lon="11.98864687862395"><ele>648.3333333333334</ele><time>2026-05-04T13:00:16Z</time></trkpt><trkpt lat="43.67760383887394" lon="11.98863027030331"><ele>648.1666666666666</ele><time>2026-05-04T13:00:17Z</time></trkpt><trkpt lat="43.677679844032795" lon="11.988618642111588"><ele>648.0</ele><time>2026-05-04T13:00:18Z</time></trkpt><trkpt lat="43.677754429929706" lon="11.988607743736093"><ele>649.8</ele><time>2026-05-04T13:00:19Z</time></trkpt><trkpt lat="43.677876362413095" lon="11.98861559704495"><ele>651.5999999999999</ele><time>2026-05-04T13:00:21Z</time></trkpt><trkpt lat="43.677953434499315" lon="11.98865059669547"><ele>653.4000000000001</ele><time>2026-05-04T13:00:22Z</time></trkpt><trkpt lat="43.678029813016614" lon="11.988713443427573"><ele>655.2</ele><time>2026-05-04T13:00:23Z</time></trkpt><trkpt lat="43.67810546734574" lon="11.98877321566232"><ele>657.0</ele><time>2026-05-04T13:00:24Z</time></trkpt><trkpt lat="43.678177757825644" lon="11.988806697161657"><ele>657.0</ele><time>2026-05-04T13:00:25Z</time></trkpt><trkpt lat="43.67824069594766" lon="11.988824665566776"><ele>657.0</ele><time>2026-05-04T13:00:26Z</time></trkpt><trkpt lat="43.67836619480806" lon="11.988861819360073"><ele>657.0</ele><time>2026-05-04T13:00:28Z</time></trkpt><trkpt lat="43.67842905120751" lon="11.988879094094136"><ele>657.0</ele><time>2026-05-04T13:00:29Z</time></trkpt><trkpt lat="43.67855397899573" lon="11.988804954736073"><ele>657.0</ele><time>2026-05-04T13:00:31Z</time></trkpt><trkpt lat="43.678626119857476" lon="11.988751739198868"><ele>658.1666666666666</ele><time>2026-05-04T13:00:32Z</time></trkpt><trkpt lat="43.67870182742185" lon="11.988713623172963"><ele>659.3333333333334</ele><time>2026-05-04T13:00:33Z</time></trkpt><trkpt lat="43.678776104652066" lon="11.988684637261514"><ele>660.5</ele><time>2026-05-04T13:00:34Z</time></trkpt><trkpt lat="43.67886745617853" lon="11.98865661156748"><ele>661.6666666666667</ele><time>2026-05-04T13:00:35Z</time></trkpt><trkpt lat="43.678955503352974" lon="11.988628790216474"><ele>662.8333333333334</ele><time>2026-05-04T13:00:36Z</time></trkpt><trkpt lat="43.679046637722" lon="11.988589120637927"><ele>664.0</ele><time>2026-05-04T13:00:37Z</time></trkpt><trkpt lat="43.67911666195078" lon="11.988538131287944"><ele>664.0</ele><time>2026-05-04T13:00:38Z</time></trkpt><trkpt lat="43.679188120417805" lon="11.988482091720133"><ele>664.0</ele><time>2026-05-04T13:00:39Z</time></trkpt><trkpt lat="43.67925197222376" lon="11.988418142310817"><ele>664.0</ele><time>2026-05-04T13:00:40Z</time></trkpt><trkpt lat="43.67931503606317" lon="11.988348492018002"><ele>664.0</ele><time>2026-05-04T13:00:41Z</time></trkpt><trkpt lat="43.67937872384194" lon="11.988271067584355"><ele>664.0</ele><time>2026-05-04T13:00:42Z</time></trkpt><trkpt lat="43.679423280605555" lon="11.988180665290114"><ele>664.0</ele><time>2026-05-04T13:00:43Z</time></trkpt><trkpt lat="43.67945114212954" lon="11.98809394071366"><ele>661.0</ele><time>2026-05-04T13:00:44Z</time></trkpt><trkpt lat="43.6794903459078" lon="11.98799392903811"><ele>658.0</ele><time>2026-05-04T13:00:45Z</time></trkpt><trkpt lat="43.67952221229379" lon="11.987910001342087"><ele>655.0</ele><time>2026-05-04T13:00:46Z</time></trkpt><trkpt lat="43.679558054707954" lon="11.98782183659576"><ele>652.0</ele><time>2026-05-04T13:00:47Z</time></trkpt><trkpt lat="43.679610392693974" lon="11.987673208964862"><ele>649.0</ele><time>2026-05-04T13:00:49Z</time></trkpt><trkpt lat="43.67965647950926" lon="11.987533998896893"><ele>647.2</ele><time>2026-05-04T13:00:51Z</time></trkpt><trkpt lat="43.67970436409927" lon="11.987452539884165"><ele>645.4000000000001</ele><time>2026-05-04T13:00:53Z</time></trkpt><trkpt lat="43.67975824130914" lon="11.987319992741265"><ele>643.6</ele><time>2026-05-04T13:00:55Z</time></trkpt><trkpt lat="43.67980662910479" lon="11.987201700219327"><ele>641.8</ele><time>2026-05-04T13:00:57Z</time></trkpt><trkpt lat="43.67984505997565" lon="11.987078612867307"><ele>640.0</ele><time>2026-05-04T13:00:59Z</time></trkpt><trkpt lat="43.67985410792538" lon="11.986968292537751"><ele>640.0</ele><time>2026-05-04T13:01:01Z</time></trkpt><trkpt lat="43.679761927492926" lon="11.986884949574096"><ele>640.0</ele><time>2026-05-04T13:01:04Z</time></trkpt><trkpt lat="43.67969883892815" lon="11.986874474546559"><ele>640.0</ele><time>2026-05-04T13:01:05Z</time></trkpt><trkpt lat="43.67963731032593" lon="11.9868500980977"><ele>640.0</ele><time>2026-05-04T13:01:06Z</time></trkpt><trkpt lat="43.67958690441196" lon="11.986787326262705"><ele>640.0</ele><time>2026-05-04T13:01:07Z</time></trkpt><trkpt lat="43.67948525186688" lon="11.986740631945112"><ele>640.0</ele><time>2026-05-04T13:01:09Z</time></trkpt><trkpt lat="43.67939162623112" lon="11.986690880419191"><ele>639.4</ele><time>2026-05-04T13:01:11Z</time></trkpt><trkpt lat="43.67931007339418" lon="11.986626090263947"><ele>638.8</ele><time>2026-05-04T13:01:13Z</time></trkpt><trkpt lat="43.679211916440494" lon="11.98659105248565"><ele>638.2</ele><time>2026-05-04T13:01:15Z</time></trkpt><trkpt lat="43.679115618593954" lon="11.986576542195294"><ele>637.6</ele><time>2026-05-04T13:01:17Z</time></trkpt><trkpt lat="43.67902748207094" lon="11.986632106967516"><ele>637.0</ele><time>2026-05-04T13:01:19Z</time></trkpt><trkpt lat="43.678948678650706" lon="11.986738631068587"><ele>636.7142857142857</ele><time>2026-05-04T13:01:21Z</time></trkpt><trkpt lat="43.67890805705715" lon="11.986812236358846"><ele>636.4285714285714</ele><time>2026-05-04T13:01:22Z</time></trkpt><trkpt lat="43.67886528302583" lon="11.986880250517103"><ele>636.1428571428571</ele><time>2026-05-04T13:01:23Z</time></trkpt><trkpt lat="43.67879780938417" lon="11.986945940114673"><ele>635.8571428571429</ele><time>2026-05-04T13:01:24Z</time></trkpt><trkpt lat="43.67872478218516" lon="11.986980104073918"><ele>635.5714285714286</ele><time>2026-05-04T13:01:25Z</time></trkpt><trkpt lat="43.67865788292606" lon="11.986981253133903"><ele>635.2857142857142</ele><time>2026-05-04T13:01:26Z</time></trkpt><trkpt lat="43.678574671909885" lon="11.986961565496193"><ele>635.0</ele><time>2026-05-04T13:01:27Z</time></trkpt><trkpt lat="43.67850394185904" lon="11.98692321225197"><ele>634.6</ele><time>2026-05-04T13:01:28Z</time></trkpt><trkpt lat="43.6784285205495" lon="11.986825427416425"><ele>634.2</ele><time>2026-05-04T13:01:30Z</time></trkpt><trkpt lat="43.67846274107157" lon="11.98667700447516"><ele>633.8</ele><time>2026-05-04T13:01:32Z</time></trkpt><trkpt lat="43.67854362297124" lon="11.986523153341697"><ele>633.4</ele><time>2026-05-04T13:01:34Z</time></trkpt><trkpt lat="43.678594868286815" lon="11.986425547952942"><ele>633.0</ele><time>2026-05-04T13:01:35Z</time></trkpt><trkpt lat="43.67863861638539" lon="11.986332165684958"><ele>633.6666666666666</ele><time>2026-05-04T13:01:36Z</time></trkpt><trkpt lat="43.67866182439006" lon="11.986244368920715"><ele>634.3333333333334</ele><time>2026-05-04T13:01:37Z</time></trkpt><trkpt lat="43.67863681790507" lon="11.986120451092997"><ele>635.0</ele><time>2026-05-04T13:01:39Z</time></trkpt><trkpt lat="43.6785174546147" lon="11.986118382191176"><ele>635.6666666666667</ele><time>2026-05-04T13:01:41Z</time></trkpt><trkpt lat="43.6784511420096" lon="11.986152414289165"><ele>636.3333333333334</ele><time>2026-05-04T13:01:42Z</time></trkpt><trkpt lat="43.67837397881451" lon="11.986169819578775"><ele>637.0</ele><time>2026-05-04T13:01:43Z</time></trkpt><trkpt lat="43.67830797603012" lon="11.98613704659905"><ele>638.3333333333334</ele><time>2026-05-04T13:01:44Z</time></trkpt><trkpt lat="43.67821694957137" lon="11.98602333925613"><ele>639.6666666666667</ele><time>2026-05-04T13:01:46Z</time></trkpt><trkpt lat="43.67819062742924" lon="11.985936820779168"><ele>641.0</ele><time>2026-05-04T13:01:47Z</time></trkpt><trkpt lat="43.6781885390375" lon="11.98579420984986"><ele>642.3333333333334</ele><time>2026-05-04T13:01:49Z</time></trkpt><trkpt lat="43.67820145727682" lon="11.985684277141445"><ele>643.6666666666666</ele><time>2026-05-04T13:01:51Z</time></trkpt><trkpt lat="43.678206538548395" lon="11.985587465791397"><ele>645.0</ele><time>2026-05-04T13:01:53Z</time></trkpt><trkpt lat="43.67821272601488" lon="11.985469578555389"><ele>647.6</ele><time>2026-05-04T13:01:55Z</time></trkpt><trkpt lat="43.67830133748045" lon="11.985354469129197"><ele>650.2</ele><time>2026-05-04T13:01:57Z</time></trkpt><trkpt lat="43.678313332424224" lon="11.985260486651041"><ele>652.8</ele><time>2026-05-04T13:01:58Z</time></trkpt><trkpt lat="43.678289116338526" lon="11.985090697425942"><ele>655.4</ele><time>2026-05-04T13:02:00Z</time></trkpt><trkpt lat="43.67828337848927" lon="11.984941398725276"><ele>658.0</ele><time>2026-05-04T13:02:02Z</time></trkpt><trkpt lat="43.678325436796634" lon="11.984783394326803"><ele>660.1666666666667</ele><time>2026-05-04T13:02:04Z</time></trkpt><trkpt lat="43.678339657730014" lon="11.98468705130331"><ele>662.3333333333334</ele><time>2026-05-04T13:02:05Z</time></trkpt><trkpt lat="43.67835743452674" lon="11.984587660935333"><ele>664.5</ele><time>2026-05-04T13:02:06Z</time></trkpt><trkpt lat="43.678374871046024" lon="11.984464565832587"><ele>666.6666666666666</ele><time>2026-05-04T13:02:07Z</time></trkpt><trkpt lat="43.678402013477275" lon="11.98437083025354"><ele>668.8333333333333</ele><time>2026-05-04T13:02:08Z</time></trkpt><trkpt lat="43.678367512973416" lon="11.984263246712295"><ele>671.0</ele><time>2026-05-04T13:02:10Z</time></trkpt><trkpt lat="43.67827678753569" lon="11.984232184576308"><ele>671.0</ele><time>2026-05-04T13:02:12Z</time></trkpt><trkpt lat="43.67821948093418" lon="11.984273517280625"><ele>671.0</ele><time>2026-05-04T13:02:13Z</time></trkpt><trkpt lat="43.67814261037487" lon="11.98423175630964"><ele>671.0</ele><time>2026-05-04T13:02:15Z</time></trkpt><trkpt lat="43.67805348486188" lon="11.984115707422983"><ele>671.0</ele><time>2026-05-04T13:02:17Z</time></trkpt><trkpt lat="43.67800360710796" lon="11.984059274908866"><ele>671.0</ele><time>2026-05-04T13:02:18Z</time></trkpt><trkpt lat="43.67794319377297" lon="11.984014792863935"><ele>671.0</ele><time>2026-05-04T13:02:19Z</time></trkpt><trkpt lat="43.67787636680036" lon="11.983978058359742"><ele>673.0</ele><time>2026-05-04T13:02:20Z</time></trkpt><trkpt lat="43.67779809563376" lon="11.983931062948795"><ele>675.0</ele><time>2026-05-04T13:02:21Z</time></trkpt><trkpt lat="43.67774139996187" lon="11.9838871814428"><ele>677.0</ele><time>2026-05-04T13:02:22Z</time></trkpt><trkpt lat="43.67769229499745" lon="11.983819868395157"><ele>679.0</ele><time>2026-05-04T13:02:23Z</time></trkpt><trkpt lat="43.67761885302965" lon="11.983771770617727"><ele>681.0</ele><time>2026-05-04T13:02:25Z</time></trkpt><trkpt lat="43.67761207940759" lon="11.983682969402212"><ele>683.0</ele><time>2026-05-04T13:02:38Z</time></trkpt><trkpt lat="43.67762371474616" lon="11.98355269169332"><ele>683.0</ele><time>2026-05-04T13:02:40Z</time></trkpt><trkpt lat="43.67770009081073" lon="11.983470872798172"><ele>683.0</ele><time>2026-05-04T13:02:42Z</time></trkpt><trkpt lat="43.67763222385852" lon="11.983548272972303"><ele>683.0</ele><time>2026-05-04T13:02:50Z</time></trkpt><trkpt lat="43.67761836392786" lon="11.983666196082062"><ele>683.0</ele><time>2026-05-04T13:02:54Z</time></trkpt><trkpt lat="43.67761180286761" lon="11.983770751931916"><ele>683.0</ele><time>2026-05-04T13:02:56Z</time></trkpt><trkpt lat="43.67766769105319" lon="11.983810951699496"><ele>683.0</ele><time>2026-05-04T13:02:58Z</time></trkpt><trkpt lat="43.677725093564135" lon="11.983858272488414"><ele>683.4285714285714</ele><time>2026-05-04T13:03:00Z</time></trkpt><trkpt lat="43.677781938758116" lon="11.98390620786814"><ele>683.8571428571429</ele><time>2026-05-04T13:03:02Z</time></trkpt><trkpt lat="43.67783837239503" lon="11.983950502098647"><ele>684.2857142857142</ele><time>2026-05-04T13:03:04Z</time></trkpt><trkpt lat="43.67791116913024" lon="11.984004146710149"><ele>684.7142857142858</ele><time>2026-05-04T13:03:07Z</time></trkpt><trkpt lat="43.67797854311917" lon="11.984045463267398"><ele>685.1428571428571</ele><time>2026-05-04T13:03:10Z</time></trkpt><trkpt lat="43.67805215033781" lon="11.984109924051754"><ele>685.5714285714286</ele><time>2026-05-04T13:03:13Z</time></trkpt><trkpt lat="43.67810019974356" lon="11.984182828294971"><ele>686.0</ele><time>2026-05-04T13:03:15Z</time></trkpt><trkpt lat="43.678161431380246" lon="11.984242221646921"><ele>686.0</ele><time>2026-05-04T13:03:17Z</time></trkpt><trkpt lat="43.678229214793994" lon="11.984255070316282"><ele>686.0</ele><time>2026-05-04T13:03:19Z</time></trkpt><trkpt lat="43.678309883893355" lon="11.984253666114522"><ele>686.0</ele><time>2026-05-04T13:03:22Z</time></trkpt><trkpt lat="43.67838242936552" lon="11.984259155366804"><ele>686.0</ele><time>2026-05-04T13:03:35Z</time></trkpt><trkpt lat="43.67844555031237" lon="11.984142816529316"><ele>686.0</ele><time>2026-05-04T13:03:38Z</time></trkpt><trkpt lat="43.67849386167719" lon="11.984086846609994"><ele>686.0</ele><time>2026-05-04T13:03:40Z</time></trkpt><trkpt lat="43.67858319946131" lon="11.984053574511664"><ele>684.6666666666666</ele><time>2026-05-04T13:03:43Z</time></trkpt><trkpt lat="43.67865850658681" lon="11.984012272116889"><ele>683.3333333333333</ele><time>2026-05-04T13:03:46Z</time></trkpt><trkpt lat="43.67870237140499" lon="11.983942258867955"><ele>682.0</ele><time>2026-05-04T13:03:48Z</time></trkpt><trkpt lat="43.67875920683219" lon="11.983873651041819"><ele>680.6666666666666</ele><time>2026-05-04T13:03:50Z</time></trkpt><trkpt lat="43.67882553144495" lon="11.983856206685052"><ele>679.3333333333334</ele><time>2026-05-04T13:03:52Z</time></trkpt><trkpt lat="43.67889791612346" lon="11.983814669760964"><ele>678.0</ele><time>2026-05-04T13:03:54Z</time></trkpt><trkpt lat="43.67895511179972" lon="11.98372094738091"><ele>678.0</ele><time>2026-05-04T13:03:57Z</time></trkpt><trkpt lat="43.67900074365344" lon="11.983651580901475"><ele>678.0</ele><time>2026-05-04T13:03:59Z</time></trkpt><trkpt lat="43.67907216514191" lon="11.983629847793589"><ele>678.0</ele><time>2026-05-04T13:04:01Z</time></trkpt><trkpt lat="43.67914953338671" lon="11.983626125017077"><ele>678.0</ele><time>2026-05-04T13:04:03Z</time></trkpt><trkpt lat="43.67923765509202" lon="11.98358646116542"><ele>678.0</ele><time>2026-05-04T13:04:06Z</time></trkpt><trkpt lat="43.679345632378094" lon="11.983521175763222"><ele>678.0</ele><time>2026-05-04T13:04:08Z</time></trkpt><trkpt lat="43.67940315053863" lon="11.983481051091298"><ele>676.3333333333334</ele><time>2026-05-04T13:04:09Z</time></trkpt><trkpt lat="43.6794717364645" lon="11.983409356618468"><ele>674.6666666666666</ele><time>2026-05-04T13:04:11Z</time></trkpt><trkpt lat="43.67954640145969" lon="11.983325247372171"><ele>673.0</ele><time>2026-05-04T13:04:13Z</time></trkpt><trkpt lat="43.67960784984707" lon="11.98328293063926"><ele>671.3333333333333</ele><time>2026-05-04T13:04:15Z</time></trkpt><trkpt lat="43.67966297927408" lon="11.983209968870991"><ele>669.6666666666666</ele><time>2026-05-04T13:04:17Z</time></trkpt><trkpt lat="43.67973669902248" lon="11.98313096383899"><ele>668.0</ele><time>2026-05-04T13:04:19Z</time></trkpt><trkpt lat="43.679824527338845" lon="11.98308990458663"><ele>673.0</ele><time>2026-05-04T13:04:22Z</time></trkpt><trkpt lat="43.679900713723534" lon="11.983046816186013"><ele>678.0</ele><time>2026-05-04T13:04:25Z</time></trkpt><trkpt lat="43.6799583939189" lon="11.982972857121023"><ele>683.0</ele><time>2026-05-04T13:04:28Z</time></trkpt><trkpt lat="43.68000408299648" lon="11.982904417456671"><ele>688.0</ele><time>2026-05-04T13:04:32Z</time></trkpt><trkpt lat="43.68004373857592" lon="11.982821133175303"><ele>693.0</ele><time>2026-05-04T13:04:46Z</time></trkpt><trkpt lat="43.68009013255138" lon="11.982761921879419"><ele>698.0</ele><time>2026-05-04T13:04:48Z</time></trkpt><trkpt lat="43.68014996434992" lon="11.982705476559733"><ele>703.0</ele><time>2026-05-04T13:04:51Z</time></trkpt><trkpt lat="43.68020924584227" lon="11.982610709291448"><ele>703.0</ele><time>2026-05-04T13:04:55Z</time></trkpt><trkpt lat="43.68025954836876" lon="11.982555837644627"><ele>703.0</ele><time>2026-05-04T13:04:57Z</time></trkpt><trkpt lat="43.68032433815434" lon="11.982471047893691"><ele>703.0</ele><time>2026-05-04T13:05:00Z</time></trkpt><trkpt lat="43.68035129609336" lon="11.982387475045703"><ele>703.0</ele><time>2026-05-04T13:05:03Z</time></trkpt><trkpt lat="43.6803850802738" lon="11.982300826996727"><ele>703.0</ele><time>2026-05-04T13:05:12Z</time></trkpt><trkpt lat="43.680417270429736" lon="11.982221252848266"><ele>703.0</ele><time>2026-05-04T13:06:12Z</time></trkpt><trkpt lat="43.680459393072496" lon="11.982134135136745"><ele>703.0</ele><time>2026-05-04T13:06:17Z</time></trkpt><trkpt lat="43.680508619225144" lon="11.982060804154916"><ele>704.5</ele><time>2026-05-04T13:06:21Z</time></trkpt><trkpt lat="43.680568500855856" lon="11.982020774762873"><ele>706.0</ele><time>2026-05-04T13:06:24Z</time></trkpt><trkpt lat="43.68062651006595" lon="11.981919345452738"><ele>707.5</ele><time>2026-05-04T13:06:32Z</time></trkpt><trkpt lat="43.68064047179209" lon="11.981832302889504"><ele>709.0</ele><time>2026-05-04T13:06:38Z</time></trkpt><trkpt lat="43.680583432954485" lon="11.981756871971694"><ele>710.5</ele><time>2026-05-04T13:08:55Z</time></trkpt><trkpt lat="43.68051341445203" lon="11.981704323384534"><ele>712.0</ele><time>2026-05-04T13:08:57Z</time></trkpt><trkpt lat="43.68043540814749" lon="11.981672819063808"><ele>716.9999999999999</ele><time>2026-05-04T13:09:00Z</time></trkpt><trkpt lat="43.680415682834195" lon="11.981576352225686"><ele>722.0</ele><time>2026-05-04T13:09:03Z</time></trkpt><trkpt lat="43.680447934432244" lon="11.981491773746454"><ele>727.0</ele><time>2026-05-04T13:09:05Z</time></trkpt><trkpt lat="43.68050628410694" lon="11.981430405100882"><ele>732.0</ele><time>2026-05-04T13:09:09Z</time></trkpt><trkpt lat="43.68053224689721" lon="11.981339025995224"><ele>737.0</ele><time>2026-05-04T13:09:11Z</time></trkpt><trkpt lat="43.68055862516853" lon="11.981252584755884"><ele>741.9999999999999</ele><time>2026-05-04T13:09:13Z</time></trkpt><trkpt lat="43.680589422127404" lon="11.981165066262161"><ele>747.0</ele><time>2026-05-04T13:09:15Z</time></trkpt><trkpt lat="43.680635925034466" lon="11.981085426451497"><ele>746.9999999999999</ele><time>2026-05-04T13:09:18Z</time></trkpt><trkpt lat="43.68068935055421" lon="11.981031554883995"><ele>747.0</ele><time>2026-05-04T13:09:20Z</time></trkpt><trkpt lat="43.68075173588934" lon="11.980950645328047"><ele>747.0</ele><time>2026-05-04T13:09:23Z</time></trkpt><trkpt lat="43.680807306849054" lon="11.980878504668373"><ele>747.0</ele><time>2026-05-04T13:09:26Z</time></trkpt><trkpt lat="43.68084215324957" lon="11.980788635438625"><ele>747.0</ele><time>2026-05-04T13:09:55Z</time></trkpt><trkpt lat="43.680861397715134" lon="11.980701674143967"><ele>746.9999999999999</ele><time>2026-05-04T13:09:57Z</time></trkpt><trkpt lat="43.680908411270146" lon="11.98061002498155"><ele>747.0</ele><time>2026-05-04T13:10:00Z</time></trkpt><trkpt lat="43.68096348054221" lon="11.98052057529619"><ele>748.6666666666666</ele><time>2026-05-04T13:10:02Z</time></trkpt><trkpt lat="43.681010965095446" lon="11.980405137409084"><ele>750.3333333333334</ele><time>2026-05-04T13:10:04Z</time></trkpt><trkpt lat="43.68105035719499" lon="11.980297456135297"><ele>752.0</ele><time>2026-05-04T13:10:06Z</time></trkpt><trkpt lat="43.68109732867607" lon="11.98022420898683"><ele>753.6666666666667</ele><time>2026-05-04T13:10:08Z</time></trkpt><trkpt lat="43.68114082942252" lon="11.980159292556822"><ele>755.3333333333334</ele><time>2026-05-04T13:10:10Z</time></trkpt><trkpt lat="43.68120004531006" lon="11.98009480859524"><ele>757.0</ele><time>2026-05-04T13:10:14Z</time></trkpt><trkpt lat="43.68130148576835" lon="11.980004318869799"><ele>763.8333333333334</ele><time>2026-05-04T13:10:17Z</time></trkpt><trkpt lat="43.68137052106578" lon="11.979940141754042"><ele>770.6666666666667</ele><time>2026-05-04T13:10:30Z</time></trkpt><trkpt lat="43.681414404530436" lon="11.97987557064426"><ele>777.5</ele><time>2026-05-04T13:10:34Z</time></trkpt><trkpt lat="43.6814854549552" lon="11.979808374246966"><ele>784.3333333333334</ele><time>2026-05-04T13:10:36Z</time></trkpt><trkpt lat="43.68156928984055" lon="11.979756912003596"><ele>791.1666666666666</ele><time>2026-05-04T13:10:38Z</time></trkpt><trkpt lat="43.681629411624364" lon="11.979706753429717"><ele>798.0</ele><time>2026-05-04T13:10:40Z</time></trkpt><trkpt lat="43.68170383885657" lon="11.979672798175727"><ele>798.0</ele><time>2026-05-04T13:10:42Z</time></trkpt><trkpt lat="43.68179296230301" lon="11.979621280986573"><ele>798.0</ele><time>2026-05-04T13:10:44Z</time></trkpt><trkpt lat="43.681884295199005" lon="11.979575326607902"><ele>798.0</ele><time>2026-05-04T13:10:46Z</time></trkpt><trkpt lat="43.68195098367299" lon="11.979537746855142"><ele>798.0</ele><time>2026-05-04T13:10:48Z</time></trkpt><trkpt lat="43.68202303355947" lon="11.979523375488457"><ele>798.0</ele><time>2026-05-04T13:10:50Z</time></trkpt><trkpt lat="43.68212887442711" lon="11.979493639612699"><ele>798.0</ele><time>2026-05-04T13:10:52Z</time></trkpt><trkpt lat="43.682206585899515" lon="11.979448893156105"><ele>796.6666666666666</ele><time>2026-05-04T13:10:54Z</time></trkpt><trkpt lat="43.682280467424675" lon="11.979387859416065"><ele>795.3333333333333</ele><time>2026-05-04T13:10:57Z</time></trkpt><trkpt lat="43.68234484028892" lon="11.979325824039005"><ele>794.0</ele><time>2026-05-04T13:11:00Z</time></trkpt><trkpt lat="43.68237408555187" lon="11.979228837178072"><ele>792.6666666666666</ele><time>2026-05-04T13:11:03Z</time></trkpt><trkpt lat="43.682416748351216" lon="11.979143817902875"><ele>791.3333333333333</ele><time>2026-05-04T13:11:13Z</time></trkpt><trkpt lat="43.682453100882725" lon="11.979039157636063"><ele>790.0</ele><time>2026-05-04T13:11:16Z</time></trkpt><trkpt lat="43.68252972089717" lon="11.97902299745412"><ele>791.6666666666666</ele><time>2026-05-04T13:11:22Z</time></trkpt><trkpt lat="43.68261581019629" lon="11.979022858595805"><ele>793.3333333333333</ele><time>2026-05-04T13:11:25Z</time></trkpt><trkpt lat="43.68266544321325" lon="11.97896572168795"><ele>795.0</ele><time>2026-05-04T13:11:28Z</time></trkpt><trkpt lat="43.68270759889812" lon="11.978870571471278"><ele>796.6666666666667</ele><time>2026-05-04T13:11:32Z</time></trkpt><trkpt lat="43.6827506716977" lon="11.978754873275687"><ele>798.3333333333334</ele><time>2026-05-04T13:11:35Z</time></trkpt><trkpt lat="43.682777635097295" lon="11.978668232001498"><ele>800.0</ele><time>2026-05-04T13:11:37Z</time></trkpt><trkpt lat="43.6827961611266" lon="11.978578891949722"><ele>800.0000000000001</ele><time>2026-05-04T13:11:39Z</time></trkpt><trkpt lat="43.6828143830633" lon="11.978488068377349"><ele>800.0</ele><time>2026-05-04T13:11:42Z</time></trkpt><trkpt lat="43.68285236267507" lon="11.978386786467714"><ele>800.0</ele><time>2026-05-04T13:12:14Z</time></trkpt><trkpt lat="43.68289885900739" lon="11.978290595916283"><ele>800.0</ele><time>2026-05-04T13:12:16Z</time></trkpt><trkpt lat="43.68291030371724" lon="11.978178290582909"><ele>800.0000000000001</ele><time>2026-05-04T13:12:18Z</time></trkpt><trkpt lat="43.682962882649655" lon="11.978083940402474"><ele>800.0</ele><time>2026-05-04T13:12:20Z</time></trkpt><trkpt lat="43.683012209889675" lon="11.97797470097419"><ele>802.0000000000001</ele><time>2026-05-04T13:12:22Z</time></trkpt><trkpt lat="43.68306166227473" lon="11.977897224582387"><ele>804.0</ele><time>2026-05-04T13:12:24Z</time></trkpt><trkpt lat="43.683109308028556" lon="11.977812218370277"><ele>806.0</ele><time>2026-05-04T13:12:26Z</time></trkpt><trkpt lat="43.68316242950446" lon="11.977736035890988"><ele>808.0</ele><time>2026-05-04T13:12:28Z</time></trkpt><trkpt lat="43.6831955775837" lon="11.977653813551584"><ele>810.0</ele><time>2026-05-04T13:12:30Z</time></trkpt><trkpt lat="43.683232505880525" lon="11.977577098916548"><ele>812.0000000000001</ele><time>2026-05-04T13:12:32Z</time></trkpt><trkpt lat="43.683279441813895" lon="11.977495456575836"><ele>814.0</ele><time>2026-05-04T13:12:34Z</time></trkpt><trkpt lat="43.68333348184037" lon="11.977406468507002"><ele>813.6666666666666</ele><time>2026-05-04T13:12:37Z</time></trkpt><trkpt lat="43.68339337724271" lon="11.977343404854887"><ele>813.3333333333333</ele><time>2026-05-04T13:12:41Z</time></trkpt><trkpt lat="43.68345471564761" lon="11.977264741971151"><ele>813.0</ele><time>2026-05-04T13:12:43Z</time></trkpt><trkpt lat="43.683512110250966" lon="11.977228674140063"><ele>812.6666666666667</ele><time>2026-05-04T13:12:45Z</time></trkpt><trkpt lat="43.68358195930338" lon="11.977202433251025"><ele>812.3333333333334</ele><time>2026-05-04T13:12:49Z</time></trkpt><trkpt lat="43.68365858350186" lon="11.97716259539269"><ele>812.0</ele><time>2026-05-04T13:12:52Z</time></trkpt><trkpt lat="43.683729059419015" lon="11.977133366295138"><ele>812.0</ele><time>2026-05-04T13:12:54Z</time></trkpt><trkpt lat="43.6837894435458" lon="11.977097134163667"><ele>812.0</ele><time>2026-05-04T13:12:56Z</time></trkpt><trkpt lat="43.683821397308364" lon="11.97701615552008"><ele>812.0</ele><time>2026-05-04T13:12:59Z</time></trkpt><trkpt lat="43.683885218654666" lon="11.97694708922944"><ele>812.0</ele><time>2026-05-04T13:13:02Z</time></trkpt><trkpt lat="43.68396497793494" lon="11.976917300765919"><ele>812.0</ele><time>2026-05-04T13:13:06Z</time></trkpt><trkpt lat="43.68403544213417" lon="11.976900694720966"><ele>812.0</ele><time>2026-05-04T13:13:10Z</time></trkpt><trkpt lat="43.68397141613773" lon="11.976909398894541"><ele>812.0</ele><time>2026-05-04T13:14:08Z</time></trkpt><trkpt lat="43.6839073464234" lon="11.976941497872886"><ele>812.0000000000001</ele><time>2026-05-04T13:14:11Z</time></trkpt><trkpt lat="43.68383499369356" lon="11.977008438759855"><ele>812.0</ele><time>2026-05-04T13:14:14Z</time></trkpt><trkpt lat="43.683801259325335" lon="11.97709044065235"><ele>812.0</ele><time>2026-05-04T13:14:58Z</time></trkpt><trkpt lat="43.68372842288328" lon="11.977154317146335"><ele>812.0</ele><time>2026-05-04T13:15:03Z</time></trkpt><trkpt lat="43.683656030674726" lon="11.977178570426144"><ele>812.0000000000001</ele><time>2026-05-04T13:15:06Z</time></trkpt><trkpt lat="43.68357384464399" lon="11.977223052267748"><ele>812.0</ele><time>2026-05-04T13:15:09Z</time></trkpt><trkpt lat="43.68349640511398" lon="11.977262999061821"><ele>812.0000000000001</ele><time>2026-05-04T13:15:12Z</time></trkpt><trkpt lat="43.6834245955278" lon="11.977327135504746"><ele>812.0</ele><time>2026-05-04T13:15:15Z</time></trkpt><trkpt lat="43.68337943978675" lon="11.977397849296562"><ele>812.0</ele><time>2026-05-04T13:15:18Z</time></trkpt><trkpt lat="43.683435350612896" lon="11.977307771384028"><ele>812.0</ele><time>2026-05-04T13:16:01Z</time></trkpt><trkpt lat="43.68351592935978" lon="11.977242265243715"><ele>812.0000000000001</ele><time>2026-05-04T13:16:03Z</time></trkpt><trkpt lat="43.683590820846504" lon="11.977200812086814"><ele>812.0</ele><time>2026-05-04T13:16:06Z</time></trkpt><trkpt lat="43.68366208314015" lon="11.977169056107819"><ele>812.0000000000001</ele><time>2026-05-04T13:16:08Z</time></trkpt><trkpt lat="43.68373188377196" lon="11.97714150157719"><ele>812.0</ele><time>2026-05-04T13:16:10Z</time></trkpt><trkpt lat="43.683802920920165" lon="11.977095890829903"><ele>812.0</ele><time>2026-05-04T13:16:12Z</time></trkpt><trkpt lat="43.6838385860054" lon="11.976991592576304"><ele>812.0</ele><time>2026-05-04T13:16:15Z</time></trkpt><trkpt lat="43.68389651076484" lon="11.976947875173163"><ele>812.0000000000001</ele><time>2026-05-04T13:16:18Z</time></trkpt><trkpt lat="43.683979882463966" lon="11.976917313335102"><ele>812.0</ele><time>2026-05-04T13:16:59Z</time></trkpt><trkpt lat="43.68404354955136" lon="11.976878708280427"><ele>812.0000000000001</ele><time>2026-05-04T13:17:03Z</time></trkpt><trkpt lat="43.68405041246766" lon="11.976756768328967"><ele>812.0</ele><time>2026-05-04T13:17:08Z</time></trkpt><trkpt lat="43.684049948624754" lon="11.97662083613557"><ele>812.0</ele><time>2026-05-04T13:17:11Z</time></trkpt><trkpt lat="43.68407069298722" lon="11.976522103970945"><ele>812.0</ele><time>2026-05-04T13:17:14Z</time></trkpt><trkpt lat="43.68408529127949" lon="11.976433984427006"><ele>812.0000000000001</ele><time>2026-05-04T13:17:17Z</time></trkpt><trkpt lat="43.684174783585114" lon="11.976437207043654"><ele>812.0</ele><time>2026-05-04T13:17:22Z</time></trkpt><trkpt lat="43.6842353442483" lon="11.976494584785339"><ele>810.6666666666667</ele><time>2026-05-04T13:17:31Z</time></trkpt><trkpt lat="43.684298034938365" lon="11.97654921574986"><ele>809.3333333333334</ele><time>2026-05-04T13:17:36Z</time></trkpt><trkpt lat="43.68435479791097" lon="11.97650198623357"><ele>808.0</ele><time>2026-05-04T13:17:43Z</time></trkpt><trkpt lat="43.68440007940423" lon="11.97640055955919"><ele>806.6666666666667</ele><time>2026-05-04T13:17:59Z</time></trkpt><trkpt lat="43.68446630466409" lon="11.976349924945923"><ele>805.3333333333334</ele><time>2026-05-04T13:18:02Z</time></trkpt><trkpt lat="43.6845434346737" lon="11.976312191285992"><ele>804.0</ele><time>2026-05-04T13:18:06Z</time></trkpt><trkpt lat="43.684622790563544" lon="11.976307603102002"><ele>804.0</ele><time>2026-05-04T13:18:10Z</time></trkpt><trkpt lat="43.68469918657142" lon="11.976302676922467"><ele>804.0</ele><time>2026-05-04T13:18:13Z</time></trkpt><trkpt lat="43.684769418125896" lon="11.976287569951914"><ele>804.0</ele><time>2026-05-04T13:18:16Z</time></trkpt><trkpt lat="43.684839263046186" lon="11.97622322218846"><ele>804.0</ele><time>2026-05-04T13:18:19Z</time></trkpt><trkpt lat="43.68490273610066" lon="11.976196292135013"><ele>804.0</ele><time>2026-05-04T13:18:47Z</time></trkpt><trkpt lat="43.68489375411001" lon="11.976298210987215"><ele>804.0</ele><time>2026-05-04T13:18:51Z</time></trkpt><trkpt lat="43.68491711033396" lon="11.976392542560404"><ele>804.0</ele><time>2026-05-04T13:18:54Z</time></trkpt><trkpt lat="43.684985175868476" lon="11.976497972843966"><ele>804.0</ele><time>2026-05-04T13:18:57Z</time></trkpt><trkpt lat="43.68506255716941" lon="11.976515598384676"><ele>804.0</ele><time>2026-05-04T13:19:00Z</time></trkpt><trkpt lat="43.68513101389573" lon="11.976449781550741"><ele>804.0</ele><time>2026-05-04T13:19:02Z</time></trkpt><trkpt lat="43.68521177114433" lon="11.976434167322207"><ele>804.0</ele><time>2026-05-04T13:19:04Z</time></trkpt><trkpt lat="43.68527040073472" lon="11.97638727757462"><ele>804.0</ele><time>2026-05-04T13:19:06Z</time></trkpt><trkpt lat="43.685365841292985" lon="11.976366163346174"><ele>804.0</ele><time>2026-05-04T13:19:08Z</time></trkpt><trkpt lat="43.685448451798536" lon="11.976371856654215"><ele>801.0</ele><time>2026-05-04T13:19:10Z</time></trkpt><trkpt lat="43.68553706493041" lon="11.976422316423736"><ele>798.0</ele><time>2026-05-04T13:19:12Z</time></trkpt><trkpt lat="43.685600580096846" lon="11.976475025512995"><ele>795.0</ele><time>2026-05-04T13:19:15Z</time></trkpt><trkpt lat="43.68565177952778" lon="11.976419825839391"><ele>792.0</ele><time>2026-05-04T13:19:17Z</time></trkpt><trkpt lat="43.68572053322538" lon="11.976352509180568"><ele>789.0</ele><time>2026-05-04T13:19:19Z</time></trkpt><trkpt lat="43.685773691974255" lon="11.976288749950626"><ele>786.0</ele><time>2026-05-04T13:19:21Z</time></trkpt><trkpt lat="43.68581555427067" lon="11.976199512175244"><ele>786.0</ele><time>2026-05-04T13:19:23Z</time></trkpt><trkpt lat="43.6858743435883" lon="11.976131933613232"><ele>786.0</ele><time>2026-05-04T13:19:25Z</time></trkpt><trkpt lat="43.68593134362789" lon="11.976065410295188"><ele>786.0</ele><time>2026-05-04T13:19:27Z</time></trkpt><trkpt lat="43.6859656599668" lon="11.975966761244509"><ele>786.0</ele><time>2026-05-04T13:19:29Z</time></trkpt><trkpt lat="43.68600045735848" lon="11.975840156087829"><ele>786.0</ele><time>2026-05-04T13:19:31Z</time></trkpt><trkpt lat="43.68602309006714" lon="11.975754712335506"><ele>786.0</ele><time>2026-05-04T13:19:32Z</time></trkpt><trkpt lat="43.686082521018605" lon="11.975610598250437"><ele>786.0</ele><time>2026-05-04T13:19:34Z</time></trkpt><trkpt lat="43.6861128761075" lon="11.975495468610841"><ele>786.0</ele><time>2026-05-04T13:19:36Z</time></trkpt><trkpt lat="43.68615891227823" lon="11.975381532663187"><ele>786.0</ele><time>2026-05-04T13:19:38Z</time></trkpt><trkpt lat="43.68620243622167" lon="11.975273754422446"><ele>786.0</ele><time>2026-05-04T13:19:40Z</time></trkpt><trkpt lat="43.686250129755464" lon="11.975156690467985"><ele>786.0</ele><time>2026-05-04T13:19:42Z</time></trkpt><trkpt lat="43.686289405674266" lon="11.975041851531026"><ele>788.8</ele><time>2026-05-04T13:19:44Z</time></trkpt><trkpt lat="43.68631755689546" lon="11.974906514365715"><ele>791.5999999999999</ele><time>2026-05-04T13:19:46Z</time></trkpt><trkpt lat="43.68628529071705" lon="11.974788295967628"><ele>794.4</ele><time>2026-05-04T13:19:49Z</time></trkpt><trkpt lat="43.686219745508666" lon="11.974652005550784"><ele>797.2</ele><time>2026-05-04T13:19:51Z</time></trkpt><trkpt lat="43.68620317065146" lon="11.974539935496301"><ele>800.0</ele><time>2026-05-04T13:19:53Z</time></trkpt><trkpt lat="43.68624811739412" lon="11.974472756584746"><ele>800.0000000000001</ele><time>2026-05-04T13:19:56Z</time></trkpt><trkpt lat="43.68634842505548" lon="11.9745112098926"><ele>800.0</ele><time>2026-05-04T13:19:58Z</time></trkpt><trkpt lat="43.68645284860701" lon="11.974558936469334"><ele>800.0</ele><time>2026-05-04T13:20:00Z</time></trkpt><trkpt lat="43.68651657760687" lon="11.974597282937948"><ele>800.0</ele><time>2026-05-04T13:20:01Z</time></trkpt><trkpt lat="43.68657877454501" lon="11.974634762940852"><ele>800.0000000000001</ele><time>2026-05-04T13:20:02Z</time></trkpt><trkpt lat="43.686640772369635" lon="11.974653337566695"><ele>800.0</ele><time>2026-05-04T13:20:03Z</time></trkpt><trkpt lat="43.68671905039741" lon="11.974641738320274"><ele>800.0000000000001</ele><time>2026-05-04T13:20:05Z</time></trkpt><trkpt lat="43.68677269310105" lon="11.974584189588857"><ele>800.0</ele><time>2026-05-04T13:20:06Z</time></trkpt><trkpt lat="43.68685425580764" lon="11.974515737790616"><ele>800.0</ele><time>2026-05-04T13:20:07Z</time></trkpt><trkpt lat="43.68693486798107" lon="11.97444564801249"><ele>800.0</ele><time>2026-05-04T13:20:08Z</time></trkpt><trkpt lat="43.68699790350927" lon="11.974391425651623"><ele>800.0000000000001</ele><time>2026-05-04T13:20:09Z</time></trkpt><trkpt lat="43.68708977560439" lon="11.974407066655733"><ele>800.0</ele><time>2026-05-04T13:20:11Z</time></trkpt><trkpt lat="43.68715776099008" lon="11.974455585973514"><ele>805.6</ele><time>2026-05-04T13:20:12Z</time></trkpt><trkpt lat="43.68722566283531" lon="11.97453491100163"><ele>811.2</ele><time>2026-05-04T13:20:13Z</time></trkpt><trkpt lat="43.68729920915347" lon="11.974586546582078"><ele>816.8</ele><time>2026-05-04T13:20:14Z</time></trkpt><trkpt lat="43.687421674812995" lon="11.974604164065331"><ele>822.4</ele><time>2026-05-04T13:20:16Z</time></trkpt><trkpt lat="43.68749646218848" lon="11.974617271598824"><ele>828.0</ele><time>2026-05-04T13:20:17Z</time></trkpt><trkpt lat="43.687572368630846" lon="11.974667724745903"><ele>828.0</ele><time>2026-05-04T13:20:18Z</time></trkpt><trkpt lat="43.687658567096165" lon="11.974769270696381"><ele>828.0</ele><time>2026-05-04T13:20:20Z</time></trkpt><trkpt lat="43.687703663009955" lon="11.974910445277393"><ele>828.0</ele><time>2026-05-04T13:20:22Z</time></trkpt><trkpt lat="43.687788519102284" lon="11.975007137896474"><ele>828.0</ele><time>2026-05-04T13:20:24Z</time></trkpt><trkpt lat="43.68791129477941" lon="11.975070443357373"><ele>828.2</ele><time>2026-05-04T13:20:26Z</time></trkpt><trkpt lat="43.68800501450282" lon="11.975117630773802"><ele>828.4</ele><time>2026-05-04T13:20:28Z</time></trkpt><trkpt lat="43.68806895951205" lon="11.975055305184513"><ele>828.6</ele><time>2026-05-04T13:20:30Z</time></trkpt><trkpt lat="43.688037247288584" lon="11.974904805912715"><ele>828.8000000000001</ele><time>2026-05-04T13:20:32Z</time></trkpt><trkpt lat="43.68800678947811" lon="11.974777584823258"><ele>829.0</ele><time>2026-05-04T13:20:34Z</time></trkpt><trkpt lat="43.6879961825455" lon="11.974661705759997"><ele>832.6666666666666</ele><time>2026-05-04T13:20:39Z</time></trkpt><trkpt lat="43.68803787327419" lon="11.974569927934168"><ele>836.3333333333333</ele><time>2026-05-04T13:20:41Z</time></trkpt><trkpt lat="43.68813796024013" lon="11.974586026642438"><ele>840.0</ele><time>2026-05-04T13:20:43Z</time></trkpt><trkpt lat="43.68822983655351" lon="11.974548712381722"><ele>843.6666666666667</ele><time>2026-05-04T13:20:45Z</time></trkpt><trkpt lat="43.68829807670589" lon="11.974522308998306"><ele>847.3333333333334</ele><time>2026-05-04T13:20:46Z</time></trkpt><trkpt lat="43.68836493077409" lon="11.974505546932095"><ele>851.0</ele><time>2026-05-04T13:20:47Z</time></trkpt><trkpt lat="43.68845171035215" lon="11.974522825016813"><ele>851.0000000000001</ele><time>2026-05-04T13:20:49Z</time></trkpt><trkpt lat="43.688544679936335" lon="11.974599159995812"><ele>851.0</ele><time>2026-05-04T13:20:52Z</time></trkpt><trkpt lat="43.68861589612927" lon="11.974670675767422"><ele>851.0</ele><time>2026-05-04T13:20:54Z</time></trkpt><trkpt lat="43.688684858916076" lon="11.974742000366733"><ele>851.0</ele><time>2026-05-04T13:20:56Z</time></trkpt><trkpt lat="43.68876560819011" lon="11.974774670946251"><ele>851.0000000000001</ele><time>2026-05-04T13:20:58Z</time></trkpt><trkpt lat="43.68883833253891" lon="11.97476110440452"><ele>851.0</ele><time>2026-05-04T13:21:00Z</time></trkpt><trkpt lat="43.68894456079519" lon="11.97477641193637"><ele>852.4</ele><time>2026-05-04T13:21:02Z</time></trkpt><trkpt lat="43.68905351979495" lon="11.974784964739468"><ele>853.8</ele><time>2026-05-04T13:21:04Z</time></trkpt><trkpt lat="43.68914469586637" lon="11.974812995317588"><ele>855.1999999999999</ele><time>2026-05-04T13:21:06Z</time></trkpt><trkpt lat="43.68925919867773" lon="11.974875663659398"><ele>856.5999999999999</ele><time>2026-05-04T13:21:08Z</time></trkpt><trkpt lat="43.68932751061846" lon="11.974886170354221"><ele>858.0</ele><time>2026-05-04T13:21:09Z</time></trkpt><trkpt lat="43.689427328108394" lon="11.974878400705734"><ele>858.0</ele><time>2026-05-04T13:21:11Z</time></trkpt><trkpt lat="43.68952674726005" lon="11.97484210518504"><ele>858.0</ele><time>2026-05-04T13:21:13Z</time></trkpt><trkpt lat="43.68961783067244" lon="11.974776957317115"><ele>858.0</ele><time>2026-05-04T13:21:15Z</time></trkpt><trkpt lat="43.68966539215592" lon="11.974703209541897"><ele>858.0</ele><time>2026-05-04T13:21:17Z</time></trkpt><trkpt lat="43.689618778582066" lon="11.974637288591623"><ele>858.0</ele><time>2026-05-04T13:21:21Z</time></trkpt><trkpt lat="43.689515527208165" lon="11.974640512502546"><ele>858.0</ele><time>2026-05-04T13:21:23Z</time></trkpt><trkpt lat="43.6894145213901" lon="11.974641153935764"><ele>858.0</ele><time>2026-05-04T13:21:25Z</time></trkpt><trkpt lat="43.68932723001414" lon="11.974593340414295"><ele>858.0</ele><time>2026-05-04T13:21:27Z</time></trkpt><trkpt lat="43.6892235331451" lon="11.97452203075452"><ele>858.0</ele><time>2026-05-04T13:21:29Z</time></trkpt><trkpt lat="43.689130169378345" lon="11.974440702234988"><ele>858.0</ele><time>2026-05-04T13:21:31Z</time></trkpt><trkpt lat="43.68904731667133" lon="11.974375496344887"><ele>858.0</ele><time>2026-05-04T13:21:33Z</time></trkpt><trkpt lat="43.68897204779899" lon="11.974302932276359"><ele>861.4</ele><time>2026-05-04T13:21:35Z</time></trkpt><trkpt lat="43.68893254168153" lon="11.97417869541542"><ele>864.8</ele><time>2026-05-04T13:21:37Z</time></trkpt><trkpt lat="43.6889266956798" lon="11.974039422894935"><ele>868.2</ele><time>2026-05-04T13:21:39Z</time></trkpt><trkpt lat="43.68888971007022" lon="11.973911407411988"><ele>871.6</ele><time>2026-05-04T13:21:41Z</time></trkpt><trkpt lat="43.688838338851966" lon="11.973804289391067"><ele>875.0</ele><time>2026-05-04T13:21:43Z</time></trkpt><trkpt lat="43.688787212548704" lon="11.97367998683962"><ele>875.0000000000001</ele><time>2026-05-04T13:21:45Z</time></trkpt><trkpt lat="43.68871683171105" lon="11.973544150762505"><ele>875.0</ele><time>2026-05-04T13:21:47Z</time></trkpt><trkpt lat="43.688679594663135" lon="11.973467164305733"><ele>875.0</ele><time>2026-05-04T13:21:48Z</time></trkpt><trkpt lat="43.68864299620031" lon="11.973386189629819"><ele>875.0</ele><time>2026-05-04T13:21:49Z</time></trkpt><trkpt lat="43.68860091869603" lon="11.973296306001616"><ele>875.0000000000001</ele><time>2026-05-04T13:21:50Z</time></trkpt><trkpt lat="43.688558571829375" lon="11.97322210314173"><ele>875.0</ele><time>2026-05-04T13:21:51Z</time></trkpt><trkpt lat="43.688509698209515" lon="11.973140652291804"><ele>876.6666666666667</ele><time>2026-05-04T13:21:52Z</time></trkpt><trkpt lat="43.68846829424783" lon="11.973057515893446"><ele>878.3333333333334</ele><time>2026-05-04T13:21:53Z</time></trkpt><trkpt lat="43.68840156797537" lon="11.972948194329465"><ele>880.0</ele><time>2026-05-04T13:21:54Z</time></trkpt><trkpt lat="43.68833319418566" lon="11.972852440733272"><ele>881.6666666666667</ele><time>2026-05-04T13:21:55Z</time></trkpt><trkpt lat="43.68826507685309" lon="11.972778345917387"><ele>883.3333333333334</ele><time>2026-05-04T13:21:56Z</time></trkpt><trkpt lat="43.68821311714458" lon="11.97271314663279"><ele>885.0</ele><time>2026-05-04T13:21:57Z</time></trkpt><trkpt lat="43.68815461914471" lon="11.9726174204757"><ele>885.0</ele><time>2026-05-04T13:21:58Z</time></trkpt><trkpt lat="43.688107230542784" lon="11.97255532477877"><ele>885.0</ele><time>2026-05-04T13:21:59Z</time></trkpt><trkpt lat="43.688039957628675" lon="11.972500420041623"><ele>885.0</ele><time>2026-05-04T13:22:00Z</time></trkpt><trkpt lat="43.688070984723005" lon="11.972413014780212"><ele>885.0</ele><time>2026-05-04T13:22:04Z</time></trkpt><trkpt lat="43.688148282315666" lon="11.972416502757014"><ele>885.0</ele><time>2026-05-04T13:22:06Z</time></trkpt><trkpt lat="43.68822234670148" lon="11.972402557958375"><ele>885.0</ele><time>2026-05-04T13:22:08Z</time></trkpt><trkpt lat="43.68831760620725" lon="11.972373750899253"><ele>887.3333333333334</ele><time>2026-05-04T13:22:10Z</time></trkpt><trkpt lat="43.688384383969066" lon="11.972380498047722"><ele>889.6666666666667</ele><time>2026-05-04T13:22:11Z</time></trkpt><trkpt lat="43.688451740783734" lon="11.972398364434259"><ele>892.0</ele><time>2026-05-04T13:22:12Z</time></trkpt><trkpt lat="43.688518343823205" lon="11.972436746673024"><ele>894.3333333333334</ele><time>2026-05-04T13:22:13Z</time></trkpt><trkpt lat="43.688583562259275" lon="11.9724544659314"><ele>896.6666666666667</ele><time>2026-05-04T13:22:14Z</time></trkpt><trkpt lat="43.68871331303415" lon="11.972482523748022"><ele>899.0</ele><time>2026-05-04T13:22:16Z</time></trkpt><trkpt lat="43.68881426616265" lon="11.972449329673738"><ele>899.0000000000001</ele><time>2026-05-04T13:22:18Z</time></trkpt><trkpt lat="43.68892048090996" lon="11.972358672523344"><ele>899.0</ele><time>2026-05-04T13:22:20Z</time></trkpt><trkpt lat="43.68896033188643" lon="11.972289332669385"><ele>899.0</ele><time>2026-05-04T13:22:21Z</time></trkpt><trkpt lat="43.68898958185296" lon="11.972197995846832"><ele>899.0</ele><time>2026-05-04T13:22:22Z</time></trkpt><trkpt lat="43.689021997667105" lon="11.97212249432159"><ele>899.0000000000001</ele><time>2026-05-04T13:22:23Z</time></trkpt><trkpt lat="43.68905168387659" lon="11.972040993714542"><ele>899.0</ele><time>2026-05-04T13:22:24Z</time></trkpt><trkpt lat="43.68907669275777" lon="11.971954936586583"><ele>899.0</ele><time>2026-05-04T13:22:25Z</time></trkpt><trkpt lat="43.68915071730211" lon="11.971790055756058"><ele>899.0000000000001</ele><time>2026-05-04T13:22:27Z</time></trkpt><trkpt lat="43.689182182114415" lon="11.971693096617784"><ele>899.0000000000001</ele><time>2026-05-04T13:22:28Z</time></trkpt><trkpt lat="43.68928908359952" lon="11.97156474363818"><ele>899.0</ele><time>2026-05-04T13:22:30Z</time></trkpt><trkpt lat="43.689350655179005" lon="11.971499942530375"><ele>899.0</ele><time>2026-05-04T13:22:31Z</time></trkpt><trkpt lat="43.68941082749167" lon="11.971425486133501"><ele>899.3333333333334</ele><time>2026-05-04T13:22:32Z</time></trkpt><trkpt lat="43.68945435396586" lon="11.971344470600581"><ele>899.6666666666667</ele><time>2026-05-04T13:22:33Z</time></trkpt><trkpt lat="43.689502785621436" lon="11.971226144610839"><ele>900.0</ele><time>2026-05-04T13:22:34Z</time></trkpt><trkpt lat="43.6895406873431" lon="11.971117811255235"><ele>900.3333333333333</ele><time>2026-05-04T13:22:35Z</time></trkpt><trkpt lat="43.68957257892965" lon="11.971030938100737"><ele>900.6666666666666</ele><time>2026-05-04T13:22:36Z</time></trkpt><trkpt lat="43.68960278214781" lon="11.970901752530674"><ele>901.0</ele><time>2026-05-04T13:22:38Z</time></trkpt><trkpt lat="43.689524026093885" lon="11.970816223637659"><ele>904.1666666666666</ele><time>2026-05-04T13:22:40Z</time></trkpt><trkpt lat="43.68942461647078" lon="11.97089642736266"><ele>907.3333333333333</ele><time>2026-05-04T13:22:42Z</time></trkpt><trkpt lat="43.689371232815915" lon="11.9709704019106"><ele>910.5</ele><time>2026-05-04T13:22:43Z</time></trkpt><trkpt lat="43.689302958385085" lon="11.971046673889065"><ele>913.6666666666667</ele><time>2026-05-04T13:22:44Z</time></trkpt><trkpt lat="43.68923592152318" lon="11.971118317897535"><ele>916.8333333333334</ele><time>2026-05-04T13:22:45Z</time></trkpt><trkpt lat="43.689167321299166" lon="11.971182500962254"><ele>920.0</ele><time>2026-05-04T13:22:46Z</time></trkpt><trkpt lat="43.6890565523381" lon="11.971288063749373"><ele>920.0</ele><time>2026-05-04T13:22:48Z</time></trkpt><trkpt lat="43.68895384837909" lon="11.971310463349905"><ele>920.0</ele><time>2026-05-04T13:22:50Z</time></trkpt><trkpt lat="43.68894812691231" lon="11.971207674852378"><ele>920.0</ele><time>2026-05-04T13:22:53Z</time></trkpt><trkpt lat="43.68899741256502" lon="11.971022282469258"><ele>920.0</ele><time>2026-05-04T13:22:55Z</time></trkpt><trkpt lat="43.68902764647369" lon="11.970906936125587"><ele>920.0</ele><time>2026-05-04T13:22:56Z</time></trkpt><trkpt lat="43.68903980677747" lon="11.970811224398416"><ele>923.0000000000001</ele><time>2026-05-04T13:22:57Z</time></trkpt><trkpt lat="43.689055715733616" lon="11.970668029800896"><ele>926.0</ele><time>2026-05-04T13:22:59Z</time></trkpt><trkpt lat="43.68904251890395" lon="11.970581414742776"><ele>929.0</ele><time>2026-05-04T13:23:00Z</time></trkpt><trkpt lat="43.68902528459167" lon="11.97049241259614"><ele>932.0</ele><time>2026-05-04T13:23:01Z</time></trkpt><trkpt lat="43.68904669305454" lon="11.970336308374444"><ele>935.0000000000001</ele><time>2026-05-04T13:23:03Z</time></trkpt><trkpt lat="43.68907876183223" lon="11.970254040645182"><ele>938.0</ele><time>2026-05-04T13:23:04Z</time></trkpt><trkpt lat="43.689099348747675" lon="11.97013862983405"><ele>940.8</ele><time>2026-05-04T13:23:05Z</time></trkpt><trkpt lat="43.68911208748795" lon="11.970023701671607"><ele>943.5999999999999</ele><time>2026-05-04T13:23:06Z</time></trkpt><trkpt lat="43.68908629607842" lon="11.969860472399706"><ele>946.4000000000001</ele><time>2026-05-04T13:23:08Z</time></trkpt><trkpt lat="43.68902103852154" lon="11.969710722770442"><ele>949.2</ele><time>2026-05-04T13:23:10Z</time></trkpt><trkpt lat="43.68898546471952" lon="11.969600086234957"><ele>952.0</ele><time>2026-05-04T13:23:12Z</time></trkpt><trkpt lat="43.6890478458819" lon="11.969478693896223"><ele>952.0</ele><time>2026-05-04T13:23:16Z</time></trkpt><trkpt lat="43.68907889238914" lon="11.969386180168017"><ele>952.0</ele><time>2026-05-04T13:23:17Z</time></trkpt><trkpt lat="43.689123943564596" lon="11.969233000699807"><ele>952.0</ele><time>2026-05-04T13:23:19Z</time></trkpt><trkpt lat="43.689132577455574" lon="11.969144347764566"><ele>952.0</ele><time>2026-05-04T13:23:20Z</time></trkpt><trkpt lat="43.68912642047094" lon="11.969054465402483"><ele>952.0</ele><time>2026-05-04T13:23:21Z</time></trkpt><trkpt lat="43.68910100039048" lon="11.968881162014789"><ele>954.4000000000001</ele><time>2026-05-04T13:23:23Z</time></trkpt><trkpt lat="43.68905957515975" lon="11.96871429346845"><ele>956.8000000000001</ele><time>2026-05-04T13:23:25Z</time></trkpt><trkpt lat="43.68903195878895" lon="11.968634544051898"><ele>959.2</ele><time>2026-05-04T13:23:26Z</time></trkpt><trkpt lat="43.689001854390504" lon="11.968504746853277"><ele>961.6</ele><time>2026-05-04T13:23:28Z</time></trkpt><trkpt lat="43.68900739784148" lon="11.968402128620626"><ele>964.0</ele><time>2026-05-04T13:23:30Z</time></trkpt><trkpt lat="43.68899940735466" lon="11.968233407066492"><ele>964.9999999999999</ele><time>2026-05-04T13:23:32Z</time></trkpt><trkpt lat="43.6889855113695" lon="11.968139468191971"><ele>966.0</ele><time>2026-05-04T13:23:33Z</time></trkpt><trkpt lat="43.68894033076685" lon="11.967993930061064"><ele>967.0</ele><time>2026-05-04T13:23:35Z</time></trkpt><trkpt lat="43.68891855598086" lon="11.967909412058779"><ele>968.0</ele><time>2026-05-04T13:23:36Z</time></trkpt><trkpt lat="43.68888503443267" lon="11.967795807408846"><ele>968.9999999999999</ele><time>2026-05-04T13:23:38Z</time></trkpt><trkpt lat="43.688861754815356" lon="11.967689302633653"><ele>970.0</ele><time>2026-05-04T13:23:40Z</time></trkpt><trkpt lat="43.68886911036076" lon="11.967545986034937"><ele>970.4</ele><time>2026-05-04T13:23:42Z</time></trkpt><trkpt lat="43.68893640108882" lon="11.967397756588941"><ele>970.8</ele><time>2026-05-04T13:23:44Z</time></trkpt><trkpt lat="43.68901010687741" lon="11.967256697018108"><ele>971.2</ele><time>2026-05-04T13:23:46Z</time></trkpt><trkpt lat="43.68905744689867" lon="11.967193949538322"><ele>971.6</ele><time>2026-05-04T13:23:47Z</time></trkpt><trkpt lat="43.68913237891391" lon="11.96709016341905"><ele>972.0</ele><time>2026-05-04T13:23:49Z</time></trkpt><trkpt lat="43.68918867514003" lon="11.966955041365742"><ele>972.0</ele><time>2026-05-04T13:23:51Z</time></trkpt><trkpt lat="43.689197498764415" lon="11.966863172326459"><ele>972.0</ele><time>2026-05-04T13:23:52Z</time></trkpt><trkpt lat="43.68920479417635" lon="11.966769544934113"><ele>972.0</ele><time>2026-05-04T13:23:53Z</time></trkpt><trkpt lat="43.68919685672151" lon="11.966666055942762"><ele>972.0</ele><time>2026-05-04T13:23:54Z</time></trkpt><trkpt lat="43.68919647373249" lon="11.966574951495826"><ele>972.0</ele><time>2026-05-04T13:23:55Z</time></trkpt><trkpt lat="43.689207666895626" lon="11.966487315769767"><ele>972.0</ele><time>2026-05-04T13:23:56Z</time></trkpt><trkpt lat="43.689242631275235" lon="11.966405513474886"><ele>972.0</ele><time>2026-05-04T13:23:57Z</time></trkpt><trkpt lat="43.689291182393895" lon="11.96633545104144"><ele>971.0</ele><time>2026-05-04T13:23:58Z</time></trkpt><trkpt lat="43.68932746836091" lon="11.966245388284243"><ele>970.0</ele><time>2026-05-04T13:23:59Z</time></trkpt><trkpt lat="43.689365992062285" lon="11.966161813490855"><ele>969.0</ele><time>2026-05-04T13:24:00Z</time></trkpt><trkpt lat="43.68944637146071" lon="11.966011900360755"><ele>968.0</ele><time>2026-05-04T13:24:02Z</time></trkpt><trkpt lat="43.68952806144751" lon="11.965859964183862"><ele>967.0</ele><time>2026-05-04T13:24:04Z</time></trkpt><trkpt lat="43.689587895468556" lon="11.965762594662216"><ele>966.9999999999999</ele><time>2026-05-04T13:24:05Z</time></trkpt><trkpt lat="43.6896394774686" lon="11.965688359482575"><ele>967.0</ele><time>2026-05-04T13:24:06Z</time></trkpt><trkpt lat="43.68968857084907" lon="11.965595735857988"><ele>967.0</ele><time>2026-05-04T13:24:07Z</time></trkpt><trkpt lat="43.68973748550455" lon="11.965491552441293"><ele>967.0</ele><time>2026-05-04T13:24:08Z</time></trkpt><trkpt lat="43.6897770900137" lon="11.965397523234826"><ele>966.9999999999999</ele><time>2026-05-04T13:24:09Z</time></trkpt><trkpt lat="43.689820252587644" lon="11.965306527818235"><ele>967.0</ele><time>2026-05-04T13:24:10Z</time></trkpt><trkpt lat="43.689861602915684" lon="11.965231546543375"><ele>966.9999999999999</ele><time>2026-05-04T13:24:11Z</time></trkpt><trkpt lat="43.68994553349186" lon="11.965084458849992"><ele>967.0</ele><time>2026-05-04T13:24:13Z</time></trkpt><trkpt lat="43.6900047435654" lon="11.965024964927442"><ele>967.0</ele><time>2026-05-04T13:24:14Z</time></trkpt><trkpt lat="43.69007017003479" lon="11.964979220147928"><ele>967.0</ele><time>2026-05-04T13:24:15Z</time></trkpt><trkpt lat="43.690133336631405" lon="11.964935976234976"><ele>966.9999999999999</ele><time>2026-05-04T13:24:16Z</time></trkpt><trkpt lat="43.69020137912115" lon="11.964864742182202"><ele>967.0</ele><time>2026-05-04T13:24:17Z</time></trkpt><trkpt lat="43.69024458798096" lon="11.964795726168736"><ele>968.6666666666666</ele><time>2026-05-04T13:24:18Z</time></trkpt><trkpt lat="43.69029816463073" lon="11.964728904233597"><ele>970.3333333333333</ele><time>2026-05-04T13:24:19Z</time></trkpt><trkpt lat="43.69039026923296" lon="11.964711353417021"><ele>972.0</ele><time>2026-05-04T13:24:21Z</time></trkpt><trkpt lat="43.6903133262141" lon="11.964709455828173"><ele>973.6666666666667</ele><time>2026-05-04T13:24:28Z</time></trkpt><trkpt lat="43.690232887281944" lon="11.964727197211365"><ele>975.3333333333334</ele><time>2026-05-04T13:24:31Z</time></trkpt><trkpt lat="43.690170188711214" lon="11.964697761492962"><ele>977.0</ele><time>2026-05-04T13:24:34Z</time></trkpt><trkpt lat="43.690149203286204" lon="11.964598071892349"><ele>977.0000000000001</ele><time>2026-05-04T13:24:39Z</time></trkpt><trkpt lat="43.69021751691065" lon="11.964543711080905"><ele>977.0</ele><time>2026-05-04T13:24:42Z</time></trkpt><trkpt lat="43.69028317262732" lon="11.964560116879092"><ele>977.0</ele><time>2026-05-04T13:25:06Z</time></trkpt><trkpt lat="43.6903496420674" lon="11.964545906749732"><ele>977.0</ele><time>2026-05-04T13:25:08Z</time></trkpt><trkpt lat="43.69043716627061" lon="11.964546412322953"><ele>977.0000000000001</ele><time>2026-05-04T13:25:11Z</time></trkpt><trkpt lat="43.69051589695325" lon="11.964542278026334"><ele>977.0</ele><time>2026-05-04T13:25:13Z</time></trkpt><trkpt lat="43.690613944268165" lon="11.964533857911544"><ele>977.5000000000001</ele><time>2026-05-04T13:25:15Z</time></trkpt><trkpt lat="43.69069537197249" lon="11.964516298730642"><ele>978.0</ele><time>2026-05-04T13:25:17Z</time></trkpt><trkpt lat="43.690787788539566" lon="11.964479874019613"><ele>978.5</ele><time>2026-05-04T13:25:19Z</time></trkpt><trkpt lat="43.69089482529684" lon="11.964406457840127"><ele>979.0</ele><time>2026-05-04T13:25:21Z</time></trkpt><trkpt lat="43.690954959345746" lon="11.964379136126784"><ele>979.5000000000001</ele><time>2026-05-04T13:25:22Z</time></trkpt><trkpt lat="43.69102266597399" lon="11.964349108432245"><ele>980.0</ele><time>2026-05-04T13:25:23Z</time></trkpt><trkpt lat="43.691094960213626" lon="11.964331549070966"><ele>981.5000000000001</ele><time>2026-05-04T13:25:24Z</time></trkpt><trkpt lat="43.69116258932024" lon="11.964298792145232"><ele>983.0</ele><time>2026-05-04T13:25:25Z</time></trkpt><trkpt lat="43.69123831226153" lon="11.964253273091115"><ele>984.5</ele><time>2026-05-04T13:25:26Z</time></trkpt><trkpt lat="43.69130946846548" lon="11.964206380915153"><ele>986.0</ele><time>2026-05-04T13:25:27Z</time></trkpt><trkpt lat="43.691361219589474" lon="11.96415019914397"><ele>987.5000000000001</ele><time>2026-05-04T13:25:28Z</time></trkpt><trkpt lat="43.69141965483739" lon="11.964079957267547"><ele>989.0</ele><time>2026-05-04T13:25:29Z</time></trkpt><trkpt lat="43.6915203179245" lon="11.963972734872819"><ele>989.0</ele><time>2026-05-04T13:25:31Z</time></trkpt><trkpt lat="43.69158412188402" lon="11.963950005721795"><ele>988.9999999999999</ele><time>2026-05-04T13:25:32Z</time></trkpt><trkpt lat="43.691641127730385" lon="11.963908160030119"><ele>989.0</ele><time>2026-05-04T13:25:33Z</time></trkpt><trkpt lat="43.69168992311784" lon="11.963818779147728"><ele>989.0</ele><time>2026-05-04T13:25:34Z</time></trkpt><trkpt lat="43.69173745964554" lon="11.963757097849664"><ele>988.9999999999999</ele><time>2026-05-04T13:25:35Z</time></trkpt><trkpt lat="43.69180623070784" lon="11.963704324664183"><ele>989.0</ele><time>2026-05-04T13:25:36Z</time></trkpt><trkpt lat="43.69187833140808" lon="11.963681660849595"><ele>989.0</ele><time>2026-05-04T13:25:37Z</time></trkpt><trkpt lat="43.691941330607236" lon="11.963661594878108"><ele>988.5000000000001</ele><time>2026-05-04T13:25:38Z</time></trkpt><trkpt lat="43.69201554518486" lon="11.963619639574373"><ele>988.0</ele><time>2026-05-04T13:25:39Z</time></trkpt><trkpt lat="43.69207743574539" lon="11.9635675121141"><ele>987.5</ele><time>2026-05-04T13:25:40Z</time></trkpt><trkpt lat="43.692165270599446" lon="11.96349590780181"><ele>987.0</ele><time>2026-05-04T13:25:42Z</time></trkpt><trkpt lat="43.6922430816304" lon="11.963419315094974"><ele>986.5000000000001</ele><time>2026-05-04T13:25:44Z</time></trkpt><trkpt lat="43.69229778289719" lon="11.963374490896523"><ele>986.0</ele><time>2026-05-04T13:25:45Z</time></trkpt><trkpt lat="43.69239472704533" lon="11.963284465192384"><ele>986.0</ele><time>2026-05-04T13:25:47Z</time></trkpt><trkpt lat="43.69244718386639" lon="11.96323421810937"><ele>985.9999999999999</ele><time>2026-05-04T13:25:48Z</time></trkpt><trkpt lat="43.69255638603598" lon="11.963137629921624"><ele>985.9999999999999</ele><time>2026-05-04T13:25:50Z</time></trkpt><trkpt lat="43.69267482160002" lon="11.963043481665556"><ele>986.0</ele><time>2026-05-04T13:25:52Z</time></trkpt><trkpt lat="43.692736501252284" lon="11.962996213890197"><ele>986.0</ele><time>2026-05-04T13:25:53Z</time></trkpt><trkpt lat="43.692806517649295" lon="11.962955512269726"><ele>985.6666666666667</ele><time>2026-05-04T13:25:54Z</time></trkpt><trkpt lat="43.69287671307759" lon="11.96292099893008"><ele>985.3333333333334</ele><time>2026-05-04T13:25:55Z</time></trkpt><trkpt lat="43.69294599017726" lon="11.962888131184618"><ele>985.0</ele><time>2026-05-04T13:25:56Z</time></trkpt><trkpt lat="43.69300964862337" lon="11.962862076511502"><ele>984.6666666666667</ele><time>2026-05-04T13:25:57Z</time></trkpt><trkpt lat="43.69311946165826" lon="11.962832771749888"><ele>984.3333333333334</ele><time>2026-05-04T13:25:59Z</time></trkpt><trkpt lat="43.69318233472894" lon="11.962848915494394"><ele>984.0</ele><time>2026-05-04T13:26:00Z</time></trkpt><trkpt lat="43.69328797640013" lon="11.9628009824054"><ele>984.0</ele><time>2026-05-04T13:26:02Z</time></trkpt><trkpt lat="43.69332920642348" lon="11.962650652370035"><ele>984.0</ele><time>2026-05-04T13:26:04Z</time></trkpt><trkpt lat="43.693336791868056" lon="11.962557377079342"><ele>984.0</ele><time>2026-05-04T13:26:06Z</time></trkpt><trkpt lat="43.69336171256838" lon="11.962464730661443"><ele>984.0</ele><time>2026-05-04T13:26:43Z</time></trkpt><trkpt lat="43.69336328042144" lon="11.962371908635795"><ele>984.0</ele><time>2026-05-04T13:27:39Z</time></trkpt><trkpt lat="43.69333395886255" lon="11.962468050378845"><ele>984.0</ele><time>2026-05-04T13:27:49Z</time></trkpt><trkpt lat="43.69330994658819" lon="11.962549464653607"><ele>984.0</ele><time>2026-05-04T13:28:28Z</time></trkpt><trkpt lat="43.69324374623304" lon="11.962606350093427"><ele>984.0</ele><time>2026-05-04T13:28:32Z</time></trkpt><trkpt lat="43.69314472761875" lon="11.962550716034603"><ele>984.0</ele><time>2026-05-04T13:28:35Z</time></trkpt><trkpt lat="43.69307088066672" lon="11.962529495909408"><ele>984.0</ele><time>2026-05-04T13:28:37Z</time></trkpt><trkpt lat="43.69298598597001" lon="11.9625057117782"><ele>984.0</ele><time>2026-05-04T13:28:40Z</time></trkpt><trkpt lat="43.692902753419105" lon="11.962507478318724"><ele>984.0</ele><time>2026-05-04T13:28:43Z</time></trkpt><trkpt lat="43.69282273117685" lon="11.96253853172822"><ele>984.3333333333334</ele><time>2026-05-04T13:28:45Z</time></trkpt><trkpt lat="43.69274020562342" lon="11.962570516470102"><ele>984.6666666666667</ele><time>2026-05-04T13:28:47Z</time></trkpt><trkpt lat="43.69267409585283" lon="11.96255197956485"><ele>985.0</ele><time>2026-05-04T13:28:49Z</time></trkpt><trkpt lat="43.692603460605504" lon="11.962541735008283"><ele>985.3333333333334</ele><time>2026-05-04T13:28:51Z</time></trkpt><trkpt lat="43.69251094336366" lon="11.962528855680308"><ele>985.6666666666667</ele><time>2026-05-04T13:28:53Z</time></trkpt><trkpt lat="43.6924417998215" lon="11.962496375660013"><ele>986.0</ele><time>2026-05-04T13:28:55Z</time></trkpt><trkpt lat="43.692366265097604" lon="11.962423886140789"><ele>984.5999999999999</ele><time>2026-05-04T13:28:57Z</time></trkpt><trkpt lat="43.6922668200589" lon="11.962389758414258"><ele>983.1999999999999</ele><time>2026-05-04T13:28:59Z</time></trkpt><trkpt lat="43.69216825802907" lon="11.962363320854053"><ele>981.8000000000001</ele><time>2026-05-04T13:29:01Z</time></trkpt><trkpt lat="43.6920822633733" lon="11.962326250768655"><ele>980.4000000000001</ele><time>2026-05-04T13:29:03Z</time></trkpt><trkpt lat="43.69198495756185" lon="11.962246216246992"><ele>979.0</ele><time>2026-05-04T13:29:05Z</time></trkpt><trkpt lat="43.69193253852883" lon="11.962182119765727"><ele>977.8000000000001</ele><time>2026-05-04T13:29:06Z</time></trkpt><trkpt lat="43.691871892786246" lon="11.962130256210719"><ele>976.6000000000001</ele><time>2026-05-04T13:29:07Z</time></trkpt><trkpt lat="43.691766642456614" lon="11.962023764708"><ele>975.4</ele><time>2026-05-04T13:29:09Z</time></trkpt><trkpt lat="43.691684403157105" lon="11.961926251710382"><ele>974.2</ele><time>2026-05-04T13:29:11Z</time></trkpt><trkpt lat="43.69159714071403" lon="11.961845193280759"><ele>973.0</ele><time>2026-05-04T13:29:13Z</time></trkpt><trkpt lat="43.691509923415516" lon="11.961752084997585"><ele>971.5999999999999</ele><time>2026-05-04T13:29:15Z</time></trkpt><trkpt lat="43.69142469107613" lon="11.961626034117494"><ele>970.1999999999999</ele><time>2026-05-04T13:29:17Z</time></trkpt><trkpt lat="43.69137662525231" lon="11.96156294704889"><ele>968.8</ele><time>2026-05-04T13:29:18Z</time></trkpt><trkpt lat="43.69128769797283" lon="11.961468713033113"><ele>967.4</ele><time>2026-05-04T13:29:20Z</time></trkpt><trkpt lat="43.69120144397129" lon="11.961448555811304"><ele>966.0</ele><time>2026-05-04T13:29:22Z</time></trkpt><trkpt lat="43.691090825833236" lon="11.961442696229211"><ele>964.1999999999999</ele><time>2026-05-04T13:29:24Z</time></trkpt><trkpt lat="43.690990301929475" lon="11.961459197637751"><ele>962.3999999999999</ele><time>2026-05-04T13:29:26Z</time></trkpt><trkpt lat="43.69088191351608" lon="11.961503365802965"><ele>960.6</ele><time>2026-05-04T13:29:28Z</time></trkpt><trkpt lat="43.690788292508735" lon="11.961572484945751"><ele>958.8</ele><time>2026-05-04T13:29:30Z</time></trkpt><trkpt lat="43.69068346858624" lon="11.961639270793361"><ele>957.0</ele><time>2026-05-04T13:29:32Z</time></trkpt><trkpt lat="43.690586062664686" lon="11.961697856291623"><ele>957.3333333333334</ele><time>2026-05-04T13:29:34Z</time></trkpt><trkpt lat="43.690510017743556" lon="11.961769590122946"><ele>957.6666666666667</ele><time>2026-05-04T13:29:36Z</time></trkpt><trkpt lat="43.69045710525876" lon="11.961823051851498"><ele>958.0</ele><time>2026-05-04T13:29:38Z</time></trkpt><trkpt lat="43.69037797464603" lon="11.961806760175067"><ele>958.3333333333334</ele><time>2026-05-04T13:29:41Z</time></trkpt><trkpt lat="43.69030091454717" lon="11.961767381263623"><ele>958.6666666666667</ele><time>2026-05-04T13:29:43Z</time></trkpt><trkpt lat="43.69020707243701" lon="11.961773508052964"><ele>959.0</ele><time>2026-05-04T13:29:45Z</time></trkpt><trkpt lat="43.69010755374094" lon="11.961838117978857"><ele>958.2</ele><time>2026-05-04T13:29:47Z</time></trkpt><trkpt lat="43.69000964504011" lon="11.961885358323888"><ele>957.4000000000001</ele><time>2026-05-04T13:29:49Z</time></trkpt><trkpt lat="43.68990965445481" lon="11.96189792094701"><ele>956.6</ele><time>2026-05-04T13:29:51Z</time></trkpt><trkpt lat="43.68981397420049" lon="11.96188683128627"><ele>955.8</ele><time>2026-05-04T13:29:53Z</time></trkpt><trkpt lat="43.689745751027424" lon="11.961891170475347"><ele>955.0</ele><time>2026-05-04T13:29:55Z</time></trkpt><trkpt lat="43.68965165939446" lon="11.961839140128824"><ele>955.0</ele><time>2026-05-04T13:29:58Z</time></trkpt><trkpt lat="43.68957410058486" lon="11.96175759904183"><ele>955.0</ele><time>2026-05-04T13:30:00Z</time></trkpt><trkpt lat="43.68952327893372" lon="11.96170428140792"><ele>955.0</ele><time>2026-05-04T13:30:01Z</time></trkpt><trkpt lat="43.689452748020756" lon="11.961592272489609"><ele>955.0</ele><time>2026-05-04T13:30:03Z</time></trkpt><trkpt lat="43.68942487005643" lon="11.961466223983901"><ele>955.0</ele><time>2026-05-04T13:30:05Z</time></trkpt><trkpt lat="43.68942328096981" lon="11.961339893118929"><ele>954.2</ele><time>2026-05-04T13:30:07Z</time></trkpt><trkpt lat="43.689405970964536" lon="11.961207281925006"><ele>953.4</ele><time>2026-05-04T13:30:09Z</time></trkpt><trkpt lat="43.689340009124614" lon="11.961093245895269"><ele>952.5999999999999</ele><time>2026-05-04T13:30:11Z</time></trkpt><trkpt lat="43.68927972048397" lon="11.960975408603208"><ele>951.8</ele><time>2026-05-04T13:30:13Z</time></trkpt><trkpt lat="43.68923029217651" lon="11.960825612930579"><ele>951.0</ele><time>2026-05-04T13:30:15Z</time></trkpt><trkpt lat="43.689194614470594" lon="11.960752684890021"><ele>951.0</ele><time>2026-05-04T13:30:16Z</time></trkpt><trkpt lat="43.689146456407286" lon="11.960635711218757"><ele>950.9999999999999</ele><time>2026-05-04T13:30:18Z</time></trkpt><trkpt lat="43.68909406417802" lon="11.96049771278157"><ele>950.9999999999999</ele><time>2026-05-04T13:30:20Z</time></trkpt><trkpt lat="43.68906045514697" lon="11.960419561911536"><ele>951.0</ele><time>2026-05-04T13:30:21Z</time></trkpt><trkpt lat="43.68900195198092" lon="11.96026692738711"><ele>951.0</ele><time>2026-05-04T13:30:23Z</time></trkpt><trkpt lat="43.68897578968124" lon="11.96017161915648"><ele>951.0</ele><time>2026-05-04T13:30:24Z</time></trkpt><trkpt lat="43.68894394999506" lon="11.960089663710757"><ele>951.0</ele><time>2026-05-04T13:30:25Z</time></trkpt><trkpt lat="43.68891115225305" lon="11.960009640794407"><ele>951.0</ele><time>2026-05-04T13:30:26Z</time></trkpt><trkpt lat="43.688875721918485" lon="11.959929446488491"><ele>951.0</ele><time>2026-05-04T13:30:27Z</time></trkpt><trkpt lat="43.68885279135045" lon="11.95983631321123"><ele>951.0</ele><time>2026-05-04T13:30:28Z</time></trkpt><trkpt lat="43.68882065456113" lon="11.959754351711101"><ele>951.0</ele><time>2026-05-04T13:30:29Z</time></trkpt><trkpt lat="43.68879690402446" lon="11.95965450924753"><ele>951.0</ele><time>2026-05-04T13:30:30Z</time></trkpt><trkpt lat="43.68878488615537" lon="11.959561191097878"><ele>949.8</ele><time>2026-05-04T13:30:31Z</time></trkpt><trkpt lat="43.688768220427505" lon="11.959391717375304"><ele>948.5999999999999</ele><time>2026-05-04T13:30:33Z</time></trkpt><trkpt lat="43.688735357395565" lon="11.959211684006526"><ele>947.4</ele><time>2026-05-04T13:30:35Z</time></trkpt><trkpt lat="43.688726562590624" lon="11.959122577253726"><ele>946.2</ele><time>2026-05-04T13:30:36Z</time></trkpt><trkpt lat="43.68870116325371" lon="11.958976941121099"><ele>945.0</ele><time>2026-05-04T13:30:38Z</time></trkpt><trkpt lat="43.68870702785576" lon="11.958852899607733"><ele>942.25</ele><time>2026-05-04T13:30:40Z</time></trkpt><trkpt lat="43.68874228534216" lon="11.95871016658131"><ele>939.5</ele><time>2026-05-04T13:30:42Z</time></trkpt><trkpt lat="43.68875380016334" lon="11.958538363190241"><ele>936.75</ele><time>2026-05-04T13:30:44Z</time></trkpt><trkpt lat="43.688753167254106" lon="11.958365479719395"><ele>934.0</ele><time>2026-05-04T13:30:46Z</time></trkpt><trkpt lat="43.68876322534316" lon="11.958200958814789"><ele>932.4000000000001</ele><time>2026-05-04T13:30:48Z</time></trkpt><trkpt lat="43.688772096892876" lon="11.958058550295027"><ele>930.8000000000001</ele><time>2026-05-04T13:30:50Z</time></trkpt><trkpt lat="43.68875965565413" lon="11.95792076476847"><ele>929.1999999999999</ele><time>2026-05-04T13:30:52Z</time></trkpt><trkpt lat="43.68874157790567" lon="11.957771030784945"><ele>927.5999999999999</ele><time>2026-05-04T13:30:54Z</time></trkpt><trkpt lat="43.688703999431084" lon="11.957630743192636"><ele>926.0</ele><time>2026-05-04T13:30:56Z</time></trkpt><trkpt lat="43.688680059404554" lon="11.957470207715307"><ele>924.0000000000001</ele><time>2026-05-04T13:30:58Z</time></trkpt><trkpt lat="43.688683285855944" lon="11.957310830143834"><ele>922.0</ele><time>2026-05-04T13:31:00Z</time></trkpt><trkpt lat="43.68868815919917" lon="11.957223489506026"><ele>920.0</ele><time>2026-05-04T13:31:01Z</time></trkpt><trkpt lat="43.68865994644157" lon="11.9570857083189"><ele>918.0</ele><time>2026-05-04T13:31:03Z</time></trkpt><trkpt lat="43.688621165095356" lon="11.957010474752662"><ele>916.0000000000001</ele><time>2026-05-04T13:31:04Z</time></trkpt><trkpt lat="43.68858663537166" lon="11.95691240184717"><ele>914.0</ele><time>2026-05-04T13:31:06Z</time></trkpt><trkpt lat="43.688602092117" lon="11.956815139333454"><ele>914.0000000000001</ele><time>2026-05-04T13:31:09Z</time></trkpt><trkpt lat="43.68865253698606" lon="11.95676004755033"><ele>914.0</ele><time>2026-05-04T13:31:11Z</time></trkpt><trkpt lat="43.6887188608979" lon="11.956714945518412"><ele>914.0000000000001</ele><time>2026-05-04T13:31:13Z</time></trkpt><trkpt lat="43.688771938135744" lon="11.956667599061316"><ele>914.0000000000001</ele><time>2026-05-04T13:31:15Z</time></trkpt><trkpt lat="43.688801209580134" lon="11.956580702296021"><ele>914.0</ele><time>2026-05-04T13:31:19Z</time></trkpt><trkpt lat="43.688827289151504" lon="11.956499972369846"><ele>914.0000000000001</ele><time>2026-05-04T13:31:22Z</time></trkpt><trkpt lat="43.688890501891606" lon="11.956450735010225"><ele>914.0000000000001</ele><time>2026-05-04T13:31:24Z</time></trkpt><trkpt lat="43.68899018261999" lon="11.956361509014348"><ele>911.8000000000001</ele><time>2026-05-04T13:31:26Z</time></trkpt><trkpt lat="43.68903974050654" lon="11.956289367789596"><ele>909.6000000000001</ele><time>2026-05-04T13:31:27Z</time></trkpt><trkpt lat="43.689130196585396" lon="11.956139734205038"><ele>907.4</ele><time>2026-05-04T13:31:29Z</time></trkpt><trkpt lat="43.689161740464534" lon="11.956026715740352"><ele>905.2</ele><time>2026-05-04T13:31:30Z</time></trkpt><trkpt lat="43.68918276497975" lon="11.955911595160961"><ele>903.0</ele><time>2026-05-04T13:31:31Z</time></trkpt><trkpt lat="43.68920548273185" lon="11.95582778606157"><ele>901.4</ele><time>2026-05-04T13:31:32Z</time></trkpt><trkpt lat="43.68926678774816" lon="11.955678774254327"><ele>899.8</ele><time>2026-05-04T13:31:34Z</time></trkpt><trkpt lat="43.68932536503974" lon="11.955546343109429"><ele>898.2</ele><time>2026-05-04T13:31:36Z</time></trkpt><trkpt lat="43.68933874185948" lon="11.955393151779818"><ele>896.6</ele><time>2026-05-04T13:31:38Z</time></trkpt><trkpt lat="43.689341486601045" lon="11.955296189900055"><ele>895.0</ele><time>2026-05-04T13:31:39Z</time></trkpt><trkpt lat="43.689365148655625" lon="11.955213852865032"><ele>895.0</ele><time>2026-05-04T13:31:40Z</time></trkpt><trkpt lat="43.68939554425401" lon="11.955128339257442"><ele>895.0</ele><time>2026-05-04T13:31:41Z</time></trkpt><trkpt lat="43.68944196465842" lon="11.955028216651906"><ele>895.0</ele><time>2026-05-04T13:31:43Z</time></trkpt><trkpt lat="43.68952946402197" lon="11.954970539758532"><ele>895.0</ele><time>2026-05-04T13:31:45Z</time></trkpt><trkpt lat="43.68960554114148" lon="11.95499283053895"><ele>895.0</ele><time>2026-05-04T13:31:46Z</time></trkpt><trkpt lat="43.689726556019636" lon="11.954993126940893"><ele>893.4</ele><time>2026-05-04T13:31:48Z</time></trkpt><trkpt lat="43.68982848988762" lon="11.955005584413978"><ele>891.8</ele><time>2026-05-04T13:31:50Z</time></trkpt><trkpt lat="43.68993892396606" lon="11.954892749360965"><ele>890.2</ele><time>2026-05-04T13:31:52Z</time></trkpt><trkpt lat="43.68997775981407" lon="11.95477939350829"><ele>888.6</ele><time>2026-05-04T13:31:54Z</time></trkpt><trkpt lat="43.6899298703434" lon="11.954678634912026"><ele>887.0</ele><time>2026-05-04T13:31:56Z</time></trkpt><trkpt lat="43.68984071005168" lon="11.95459713381359"><ele>887.0000000000001</ele><time>2026-05-04T13:31:58Z</time></trkpt><trkpt lat="43.68977047086512" lon="11.954511506862001"><ele>887.0</ele><time>2026-05-04T13:32:00Z</time></trkpt><trkpt lat="43.68973697580013" lon="11.954372748997956"><ele>887.0</ele><time>2026-05-04T13:32:02Z</time></trkpt><trkpt lat="43.689730508015934" lon="11.954286036145922"><ele>887.0</ele><time>2026-05-04T13:32:03Z</time></trkpt><trkpt lat="43.68970626675217" lon="11.95417568945504"><ele>887.0000000000001</ele><time>2026-05-04T13:32:04Z</time></trkpt><trkpt lat="43.689670616087156" lon="11.954093735520303"><ele>887.0</ele><time>2026-05-04T13:32:05Z</time></trkpt><trkpt lat="43.689626690235706" lon="11.954011191145316"><ele>885.4000000000001</ele><time>2026-05-04T13:32:06Z</time></trkpt><trkpt lat="43.68957996725385" lon="11.953944615793445"><ele>883.8000000000001</ele><time>2026-05-04T13:32:07Z</time></trkpt><trkpt lat="43.68947936292168" lon="11.953861840152886"><ele>882.2</ele><time>2026-05-04T13:32:09Z</time></trkpt><trkpt lat="43.689395264260064" lon="11.953787263525657"><ele>880.6</ele><time>2026-05-04T13:32:11Z</time></trkpt><trkpt lat="43.68933942698508" lon="11.953692028340832"><ele>879.0</ele><time>2026-05-04T13:32:13Z</time></trkpt><trkpt lat="43.689333019913136" lon="11.953565995079318"><ele>878.4000000000001</ele><time>2026-05-04T13:32:15Z</time></trkpt><trkpt lat="43.68930466406692" lon="11.953390358476442"><ele>877.8000000000001</ele><time>2026-05-04T13:32:16Z</time></trkpt><trkpt lat="43.68923217748531" lon="11.953281517249978"><ele>877.1999999999999</ele><time>2026-05-04T13:32:17Z</time></trkpt><trkpt lat="43.68916372218546" lon="11.953162253727848"><ele>876.5999999999999</ele><time>2026-05-04T13:32:19Z</time></trkpt><trkpt lat="43.689134515984826" lon="11.95306344209613"><ele>876.0</ele><time>2026-05-04T13:32:20Z</time></trkpt><trkpt lat="43.689119809633816" lon="11.952925083099487"><ele>874.5999999999999</ele><time>2026-05-04T13:32:22Z</time></trkpt><trkpt lat="43.68916449167426" lon="11.952860710038584"><ele>873.1999999999999</ele><time>2026-05-04T13:32:24Z</time></trkpt><trkpt lat="43.68922249496268" lon="11.952826020353287"><ele>871.8000000000001</ele><time>2026-05-04T13:32:26Z</time></trkpt><trkpt lat="43.689369655306464" lon="11.95262154207136"><ele>870.4000000000001</ele><time>2026-05-04T13:32:29Z</time></trkpt><trkpt lat="43.68937890168546" lon="11.952500359760627"><ele>869.0</ele><time>2026-05-04T13:32:30Z</time></trkpt><trkpt lat="43.68936863930154" lon="11.952407894336474"><ele>868.0000000000001</ele><time>2026-05-04T13:32:31Z</time></trkpt><trkpt lat="43.68937175033405" lon="11.952310267303714"><ele>867.0</ele><time>2026-05-04T13:32:32Z</time></trkpt><trkpt lat="43.68938228712415" lon="11.952165497762612"><ele>866.0</ele><time>2026-05-04T13:32:34Z</time></trkpt><trkpt lat="43.68938901548176" lon="11.952073054282875"><ele>865.0</ele><time>2026-05-04T13:32:35Z</time></trkpt><trkpt lat="43.68939597904848" lon="11.951969668436147"><ele>864.0000000000001</ele><time>2026-05-04T13:32:36Z</time></trkpt><trkpt lat="43.68940273110733" lon="11.951855901968445"><ele>863.0</ele><time>2026-05-04T13:32:37Z</time></trkpt><trkpt lat="43.689413047337545" lon="11.951748218219276"><ele>862.2</ele><time>2026-05-04T13:32:38Z</time></trkpt><trkpt lat="43.68940664850686" lon="11.95165574109144"><ele>861.4</ele><time>2026-05-04T13:32:39Z</time></trkpt><trkpt lat="43.68939791999473" lon="11.951515491362878"><ele>860.6000000000001</ele><time>2026-05-04T13:32:40Z</time></trkpt><trkpt lat="43.68937681667556" lon="11.951427859891586"><ele>859.8000000000001</ele><time>2026-05-04T13:32:41Z</time></trkpt><trkpt lat="43.689355490392344" lon="11.951233073787398"><ele>859.0</ele><time>2026-05-04T13:32:43Z</time></trkpt><trkpt lat="43.689342578664345" lon="11.951114131209774"><ele>858.9999999999999</ele><time>2026-05-04T13:32:44Z</time></trkpt><trkpt lat="43.68932485662984" lon="11.95102321217783"><ele>859.0</ele><time>2026-05-04T13:32:45Z</time></trkpt><trkpt lat="43.68933383845214" lon="11.950922162322618"><ele>859.0</ele><time>2026-05-04T13:32:46Z</time></trkpt><trkpt lat="43.689350183853854" lon="11.950831061696466"><ele>859.0</ele><time>2026-05-04T13:32:47Z</time></trkpt><trkpt lat="43.68940161676845" lon="11.95074835014542"><ele>859.0</ele><time>2026-05-04T13:32:48Z</time></trkpt><trkpt lat="43.68945632836324" lon="11.950666187454939"><ele>858.9999999999999</ele><time>2026-05-04T13:32:49Z</time></trkpt><trkpt lat="43.68946220086261" lon="11.950566373403902"><ele>859.0</ele><time>2026-05-04T13:32:50Z</time></trkpt><trkpt lat="43.68944766430489" lon="11.950332894970918"><ele>859.6</ele><time>2026-05-04T13:32:52Z</time></trkpt><trkpt lat="43.68944135307895" lon="11.950213816946505"><ele>860.2</ele><time>2026-05-04T13:32:53Z</time></trkpt><trkpt lat="43.68943088659991" lon="11.95006140959772"><ele>860.8000000000001</ele><time>2026-05-04T13:32:54Z</time></trkpt><trkpt lat="43.68941086885876" lon="11.949912089876978"><ele>861.4000000000001</ele><time>2026-05-04T13:32:55Z</time></trkpt><trkpt lat="43.68939445383198" lon="11.949771398321248"><ele>862.0</ele><time>2026-05-04T13:32:56Z</time></trkpt><trkpt lat="43.68937892521939" lon="11.949613906230073"><ele>862.0</ele><time>2026-05-04T13:32:57Z</time></trkpt><trkpt lat="43.689368283938" lon="11.949465388347633"><ele>862.0</ele><time>2026-05-04T13:32:58Z</time></trkpt><trkpt lat="43.68937198150335" lon="11.949309086454246"><ele>862.0</ele><time>2026-05-04T13:32:59Z</time></trkpt><trkpt lat="43.68936716016113" lon="11.949178625755891"><ele>862.0</ele><time>2026-05-04T13:33:00Z</time></trkpt><trkpt lat="43.68936379026349" lon="11.949027105120189"><ele>862.0</ele><time>2026-05-04T13:33:01Z</time></trkpt><trkpt lat="43.689354572042284" lon="11.948889782868283"><ele>862.6666666666666</ele><time>2026-05-04T13:33:02Z</time></trkpt><trkpt lat="43.68935754198828" lon="11.948777390588015"><ele>863.3333333333333</ele><time>2026-05-04T13:33:03Z</time></trkpt><trkpt lat="43.68936190014035" lon="11.94868023737984"><ele>864.0</ele><time>2026-05-04T13:33:04Z</time></trkpt><trkpt lat="43.68933432889585" lon="11.948580926361938"><ele>864.6666666666667</ele><time>2026-05-04T13:33:05Z</time></trkpt><trkpt lat="43.68929636653165" lon="11.948443636229419"><ele>865.3333333333334</ele><time>2026-05-04T13:33:06Z</time></trkpt><trkpt lat="43.68925425729826" lon="11.94832493109934"><ele>866.0</ele><time>2026-05-04T13:33:07Z</time></trkpt><trkpt lat="43.689207700881816" lon="11.94822735110342"><ele>866.6666666666667</ele><time>2026-05-04T13:33:08Z</time></trkpt><trkpt lat="43.68917429924658" lon="11.948111187606003"><ele>867.3333333333334</ele><time>2026-05-04T13:33:09Z</time></trkpt><trkpt lat="43.68914253428121" lon="11.94802457938136"><ele>868.0</ele><time>2026-05-04T13:33:10Z</time></trkpt><trkpt lat="43.689125016352804" lon="11.94788830360278"><ele>868.6666666666667</ele><time>2026-05-04T13:33:12Z</time></trkpt><trkpt lat="43.68917401950571" lon="11.947780636868288"><ele>869.3333333333334</ele><time>2026-05-04T13:33:15Z</time></trkpt><trkpt lat="43.68922443849688" lon="11.947723602761068"><ele>870.0</ele><time>2026-05-04T13:33:16Z</time></trkpt><trkpt lat="43.68928795525097" lon="11.947647328846008"><ele>870.0</ele><time>2026-05-04T13:33:17Z</time></trkpt><trkpt lat="43.68935320312635" lon="11.947563799824724"><ele>870.0</ele><time>2026-05-04T13:33:18Z</time></trkpt><trkpt lat="43.68940955410355" lon="11.947472433541414"><ele>870.0</ele><time>2026-05-04T13:33:19Z</time></trkpt><trkpt lat="43.68946219181967" lon="11.947364265389012"><ele>870.0</ele><time>2026-05-04T13:33:20Z</time></trkpt><trkpt lat="43.689503688798474" lon="11.947246879956984"><ele>870.0</ele><time>2026-05-04T13:33:21Z</time></trkpt><trkpt lat="43.68955115590525" lon="11.947120641948244"><ele>869.8</ele><time>2026-05-04T13:33:22Z</time></trkpt><trkpt lat="43.68959054703579" lon="11.946987630957667"><ele>869.6</ele><time>2026-05-04T13:33:23Z</time></trkpt><trkpt lat="43.68964406564561" lon="11.946859345185588"><ele>869.4000000000001</ele><time>2026-05-04T13:33:24Z</time></trkpt><trkpt lat="43.68970825004197" lon="11.946731776755298"><ele>869.2</ele><time>2026-05-04T13:33:25Z</time></trkpt><trkpt lat="43.689789935803006" lon="11.946613190705689"><ele>869.0</ele><time>2026-05-04T13:33:26Z</time></trkpt><trkpt lat="43.68987746275961" lon="11.946505117910704"><ele>868.25</ele><time>2026-05-04T13:33:27Z</time></trkpt><trkpt lat="43.689967753172276" lon="11.946398119985167"><ele>867.5</ele><time>2026-05-04T13:33:28Z</time></trkpt><trkpt lat="43.69005816633003" lon="11.946301115350577"><ele>866.75</ele><time>2026-05-04T13:33:29Z</time></trkpt><trkpt lat="43.69015551870262" lon="11.94622160945572"><ele>866.0</ele><time>2026-05-04T13:33:30Z</time></trkpt><trkpt lat="43.69027742768075" lon="11.946197701941955"><ele>866.0</ele><time>2026-05-04T13:33:31Z</time></trkpt><trkpt lat="43.69040678023953" lon="11.94616135238423"><ele>866.0</ele><time>2026-05-04T13:33:32Z</time></trkpt><trkpt lat="43.69051957179707" lon="11.946106776043207"><ele>866.0</ele><time>2026-05-04T13:33:33Z</time></trkpt><trkpt lat="43.69063636419612" lon="11.946072213529138"><ele>866.0</ele><time>2026-05-04T13:33:34Z</time></trkpt><trkpt lat="43.6907447402206" lon="11.94600432665453"><ele>866.0</ele><time>2026-05-04T13:33:35Z</time></trkpt><trkpt lat="43.6908480243629" lon="11.945902800499322"><ele>866.0</ele><time>2026-05-04T13:33:36Z</time></trkpt><trkpt lat="43.69094289941866" lon="11.94577376420973"><ele>866.0</ele><time>2026-05-04T13:33:37Z</time></trkpt><trkpt lat="43.69102848386034" lon="11.945634827760122"><ele>866.0</ele><time>2026-05-04T13:33:38Z</time></trkpt><trkpt lat="43.691117193091564" lon="11.945502258338173"><ele>865.5999999999999</ele><time>2026-05-04T13:33:39Z</time></trkpt><trkpt lat="43.69120170803953" lon="11.94537262581678"><ele>865.1999999999999</ele><time>2026-05-04T13:33:40Z</time></trkpt><trkpt lat="43.69127446869006" lon="11.945251387659942"><ele>864.8000000000001</ele><time>2026-05-04T13:33:41Z</time></trkpt><trkpt lat="43.691321983165246" lon="11.945132992014946"><ele>864.4000000000001</ele><time>2026-05-04T13:33:42Z</time></trkpt><trkpt lat="43.69133080604156" lon="11.944980662306149"><ele>864.0</ele><time>2026-05-04T13:33:43Z</time></trkpt><trkpt lat="43.69131900094724" lon="11.944804194403568"><ele>862.5</ele><time>2026-05-04T13:33:44Z</time></trkpt><trkpt lat="43.6912953372602" lon="11.944627564870702"><ele>861.0</ele><time>2026-05-04T13:33:45Z</time></trkpt><trkpt lat="43.691268041426945" lon="11.944460384011105"><ele>859.5</ele><time>2026-05-04T13:33:46Z</time></trkpt><trkpt lat="43.69123961901211" lon="11.944298466675361"><ele>858.0</ele><time>2026-05-04T13:33:47Z</time></trkpt><trkpt lat="43.691217472042275" lon="11.944149777989212"><ele>856.3333333333334</ele><time>2026-05-04T13:33:48Z</time></trkpt><trkpt lat="43.69119886109876" lon="11.944022280520258"><ele>854.6666666666667</ele><time>2026-05-04T13:33:49Z</time></trkpt><trkpt lat="43.691193376615296" lon="11.943909781838473"><ele>853.0</ele><time>2026-05-04T13:33:50Z</time></trkpt><trkpt lat="43.69121114661269" lon="11.943807606133191"><ele>851.3333333333334</ele><time>2026-05-04T13:33:51Z</time></trkpt><trkpt lat="43.69126080013479" lon="11.943725776677507"><ele>849.6666666666667</ele><time>2026-05-04T13:33:52Z</time></trkpt><trkpt lat="43.69134733959409" lon="11.943675666090494"><ele>848.0</ele><time>2026-05-04T13:33:53Z</time></trkpt><trkpt lat="43.69146418284456" lon="11.943669932333691"><ele>848.0000000000001</ele><time>2026-05-04T13:33:54Z</time></trkpt><trkpt lat="43.69157946817058" lon="11.943627560746513"><ele>848.0</ele><time>2026-05-04T13:33:55Z</time></trkpt><trkpt lat="43.691672268512434" lon="11.943603165355299"><ele>848.0</ele><time>2026-05-04T13:33:56Z</time></trkpt><trkpt lat="43.69174836196711" lon="11.943564136844074"><ele>848.0</ele><time>2026-05-04T13:33:57Z</time></trkpt><trkpt lat="43.691804524009726" lon="11.943498652160278"><ele>848.0000000000001</ele><time>2026-05-04T13:33:58Z</time></trkpt><trkpt lat="43.691831223802" lon="11.94340429929409"><ele>848.0</ele><time>2026-05-04T13:33:59Z</time></trkpt><trkpt lat="43.69182916697958" lon="11.943293672806918"><ele>846.0</ele><time>2026-05-04T13:34:00Z</time></trkpt><trkpt lat="43.69178531959199" lon="11.943197373137503"><ele>844.0</ele><time>2026-05-04T13:34:01Z</time></trkpt><trkpt lat="43.69171355768772" lon="11.943129586916996"><ele>842.0</ele><time>2026-05-04T13:34:02Z</time></trkpt><trkpt lat="43.691621064746734" lon="11.943093756736813"><ele>840.0</ele><time>2026-05-04T13:34:03Z</time></trkpt><trkpt lat="43.69152571290612" lon="11.943084406862265"><ele>838.0</ele><time>2026-05-04T13:34:04Z</time></trkpt><trkpt lat="43.6914365142218" lon="11.943036991809485"><ele>838.0</ele><time>2026-05-04T13:34:05Z</time></trkpt><trkpt lat="43.69137069389262" lon="11.942940655372738"><ele>838.0</ele><time>2026-05-04T13:34:06Z</time></trkpt><trkpt lat="43.691323973981845" lon="11.942812043132731"><ele>838.0</ele><time>2026-05-04T13:34:07Z</time></trkpt><trkpt lat="43.69129324752724" lon="11.942666281918903"><ele>838.0</ele><time>2026-05-04T13:34:08Z</time></trkpt><trkpt lat="43.69128036322501" lon="11.942516375112302"><ele>838.0</ele><time>2026-05-04T13:34:09Z</time></trkpt><trkpt lat="43.69130825984177" lon="11.942363355451945"><ele>840.25</ele><time>2026-05-04T13:34:10Z</time></trkpt><trkpt lat="43.69135864481263" lon="11.942200674292943"><ele>842.5</ele><time>2026-05-04T13:34:11Z</time></trkpt><trkpt lat="43.691399037169184" lon="11.942036403986778"><ele>844.75</ele><time>2026-05-04T13:34:12Z</time></trkpt><trkpt lat="43.69141456781909" lon="11.941867411074986"><ele>847.0</ele><time>2026-05-04T13:34:13Z</time></trkpt><trkpt lat="43.691415425227724" lon="11.941721703282745"><ele>847.6</ele><time>2026-05-04T13:34:14Z</time></trkpt><trkpt lat="43.69140291715047" lon="11.94160954416538"><ele>848.2</ele><time>2026-05-04T13:34:15Z</time></trkpt><trkpt lat="43.69138309085289" lon="11.94149996632177"><ele>848.8</ele><time>2026-05-04T13:34:16Z</time></trkpt><trkpt lat="43.691317093900516" lon="11.941415048745968"><ele>849.4</ele><time>2026-05-04T13:34:17Z</time></trkpt><trkpt lat="43.69121395822055" lon="11.941396753282769"><ele>850.0</ele><time>2026-05-04T13:34:18Z</time></trkpt><trkpt lat="43.69111600414702" lon="11.941384496877726"><ele>847.8</ele><time>2026-05-04T13:34:19Z</time></trkpt><trkpt lat="43.69101009456098" lon="11.941380251875604"><ele>845.6</ele><time>2026-05-04T13:34:20Z</time></trkpt><trkpt lat="43.69093292880289" lon="11.941318768219523"><ele>843.4000000000001</ele><time>2026-05-04T13:34:21Z</time></trkpt><trkpt lat="43.69086763933003" lon="11.941232930476327"><ele>841.2</ele><time>2026-05-04T13:34:22Z</time></trkpt><trkpt lat="43.69083069157058" lon="11.941109153252542"><ele>839.0</ele><time>2026-05-04T13:34:23Z</time></trkpt><trkpt lat="43.6908040051487" lon="11.940954048131857"><ele>841.0</ele><time>2026-05-04T13:34:24Z</time></trkpt><trkpt lat="43.69075396918213" lon="11.940789586749956"><ele>843.0</ele><time>2026-05-04T13:34:25Z</time></trkpt><trkpt lat="43.69072197253492" lon="11.940615385716958"><ele>845.0</ele><time>2026-05-04T13:34:26Z</time></trkpt><trkpt lat="43.69069295281918" lon="11.940458807887259"><ele>847.0</ele><time>2026-05-04T13:34:27Z</time></trkpt><trkpt lat="43.69066008138536" lon="11.940316342759264"><ele>847.0</ele><time>2026-05-04T13:34:28Z</time></trkpt><trkpt lat="43.69064275131818" lon="11.94018068927852"><ele>847.0</ele><time>2026-05-04T13:34:29Z</time></trkpt><trkpt lat="43.690629269158684" lon="11.940068813747615"><ele>847.0</ele><time>2026-05-04T13:34:30Z</time></trkpt><trkpt lat="43.69065191574146" lon="11.939956552561238"><ele>847.0</ele><time>2026-05-04T13:34:31Z</time></trkpt><trkpt lat="43.69073236187329" lon="11.939867706018662"><ele>847.0</ele><time>2026-05-04T13:34:32Z</time></trkpt><trkpt lat="43.69081625434899" lon="11.939757176744694"><ele>849.25</ele><time>2026-05-04T13:34:33Z</time></trkpt><trkpt lat="43.69090544766916" lon="11.939635370584645"><ele>851.5</ele><time>2026-05-04T13:34:34Z</time></trkpt><trkpt lat="43.69098527076068" lon="11.939495497645517"><ele>853.75</ele><time>2026-05-04T13:34:35Z</time></trkpt><trkpt lat="43.69107692018812" lon="11.93937684178039"><ele>856.0</ele><time>2026-05-04T13:34:36Z</time></trkpt><trkpt lat="43.691155160999934" lon="11.93926364626134"><ele>859.75</ele><time>2026-05-04T13:34:37Z</time></trkpt><trkpt lat="43.69123614072862" lon="11.939153111415909"><ele>863.5</ele><time>2026-05-04T13:34:38Z</time></trkpt><trkpt lat="43.69131914641433" lon="11.939042789086415"><ele>867.25</ele><time>2026-05-04T13:34:39Z</time></trkpt><trkpt lat="43.69140386660978" lon="11.93893318933733"><ele>871.0</ele><time>2026-05-04T13:34:40Z</time></trkpt><trkpt lat="43.69149385344539" lon="11.93883162233555"><ele>871.0</ele><time>2026-05-04T13:34:41Z</time></trkpt><trkpt lat="43.691593270009264" lon="11.938734787872596"><ele>871.0</ele><time>2026-05-04T13:34:42Z</time></trkpt><trkpt lat="43.69170638743376" lon="11.938656861826267"><ele>871.0</ele><time>2026-05-04T13:34:43Z</time></trkpt><trkpt lat="43.69182583640493" lon="11.938584386388753"><ele>871.0</ele><time>2026-05-04T13:34:44Z</time></trkpt><trkpt lat="43.69195363366388" lon="11.938518853304728"><ele>872.75</ele><time>2026-05-04T13:34:45Z</time></trkpt><trkpt lat="43.692084792802405" lon="11.938456606037725"><ele>874.5</ele><time>2026-05-04T13:34:46Z</time></trkpt><trkpt lat="43.69221736525161" lon="11.938376238414708"><ele>876.25</ele><time>2026-05-04T13:34:47Z</time></trkpt><trkpt lat="43.69235132785089" lon="11.938301439232838"><ele>878.0</ele><time>2026-05-04T13:34:48Z</time></trkpt><trkpt lat="43.69248642092005" lon="11.938234152212589"><ele>878.0</ele><time>2026-05-04T13:34:49Z</time></trkpt><trkpt lat="43.69261265430384" lon="11.938159916997169"><ele>878.0</ele><time>2026-05-04T13:34:50Z</time></trkpt><trkpt lat="43.69274430370451" lon="11.93809996134809"><ele>878.0</ele><time>2026-05-04T13:34:51Z</time></trkpt><trkpt lat="43.69287192465773" lon="11.938029700452521"><ele>878.0</ele><time>2026-05-04T13:34:52Z</time></trkpt><trkpt lat="43.692991744466134" lon="11.937966234457686"><ele>880.0</ele><time>2026-05-04T13:34:53Z</time></trkpt><trkpt lat="43.69310703113943" lon="11.937907855784514"><ele>882.0</ele><time>2026-05-04T13:34:54Z</time></trkpt><trkpt lat="43.69321707393233" lon="11.937847246446298"><ele>884.0</ele><time>2026-05-04T13:34:55Z</time></trkpt><trkpt lat="43.693326166483445" lon="11.937782559025832"><ele>886.0</ele><time>2026-05-04T13:34:56Z</time></trkpt><trkpt lat="43.69342780254645" lon="11.937704472407027"><ele>886.0</ele><time>2026-05-04T13:34:57Z</time></trkpt><trkpt lat="43.69353082342414" lon="11.937609007560003"><ele>886.0</ele><time>2026-05-04T13:34:58Z</time></trkpt><trkpt lat="43.69362684720218" lon="11.937495413692565"><ele>886.0</ele><time>2026-05-04T13:34:59Z</time></trkpt><trkpt lat="43.69372076909943" lon="11.937370017267044"><ele>886.0</ele><time>2026-05-04T13:35:00Z</time></trkpt><trkpt lat="43.69381218131381" lon="11.937246674543553"><ele>887.25</ele><time>2026-05-04T13:35:01Z</time></trkpt><trkpt lat="43.69390496006218" lon="11.937124153303294"><ele>888.5</ele><time>2026-05-04T13:35:02Z</time></trkpt><trkpt lat="43.69399060262364" lon="11.936994735510563"><ele>889.75</ele><time>2026-05-04T13:35:03Z</time></trkpt><trkpt lat="43.69407710822411" lon="11.93687933166941"><ele>891.0</ele><time>2026-05-04T13:35:04Z</time></trkpt><trkpt lat="43.69416337902249" lon="11.936771395160525"><ele>889.5</ele><time>2026-05-04T13:35:05Z</time></trkpt><trkpt lat="43.69424805960124" lon="11.936657835426551"><ele>888.0</ele><time>2026-05-04T13:35:06Z</time></trkpt><trkpt lat="43.69433563757224" lon="11.93654107124433"><ele>886.5</ele><time>2026-05-04T13:35:07Z</time></trkpt><trkpt lat="43.694425289203764" lon="11.936429155970256"><ele>885.0</ele><time>2026-05-04T13:35:08Z</time></trkpt><trkpt lat="43.69451507339866" lon="11.936314222378162"><ele>887.6</ele><time>2026-05-04T13:35:09Z</time></trkpt><trkpt lat="43.69460299073442" lon="11.936199824232817"><ele>890.2</ele><time>2026-05-04T13:35:10Z</time></trkpt><trkpt lat="43.694685365366226" lon="11.93608812177313"><ele>892.8</ele><time>2026-05-04T13:35:11Z</time></trkpt><trkpt lat="43.694760144354824" lon="11.93599011447269"><ele>895.4</ele><time>2026-05-04T13:35:12Z</time></trkpt><trkpt lat="43.69482537993975" lon="11.935900800198414"><ele>898.0</ele><time>2026-05-04T13:35:13Z</time></trkpt><trkpt lat="43.69488234404489" lon="11.935828423738503"><ele>898.0</ele><time>2026-05-04T13:35:14Z</time></trkpt><trkpt lat="43.694939191987096" lon="11.93576881588514"><ele>898.0</ele><time>2026-05-04T13:35:15Z</time></trkpt><trkpt lat="43.695088754065175" lon="11.935769545098015"><ele>898.0</ele><time>2026-05-04T13:35:17Z</time></trkpt><trkpt lat="43.69515619044587" lon="11.935824751472165"><ele>898.0</ele><time>2026-05-04T13:35:18Z</time></trkpt><trkpt lat="43.69523113998597" lon="11.93592775651975"><ele>898.0</ele><time>2026-05-04T13:35:20Z</time></trkpt><trkpt lat="43.695289926508515" lon="11.93600471905156"><ele>899.9999999999999</ele><time>2026-05-04T13:35:22Z</time></trkpt><trkpt lat="43.6953411462756" lon="11.936065939573377"><ele>902.0</ele><time>2026-05-04T13:35:24Z</time></trkpt><trkpt lat="43.69538542914628" lon="11.935960467665842"><ele>904.0</ele><time>2026-05-04T13:35:25Z</time></trkpt><trkpt lat="43.69543161774695" lon="11.935864444973912"><ele>906.0</ele><time>2026-05-04T13:35:26Z</time></trkpt><trkpt lat="43.6954706893119" lon="11.935754035467397"><ele>907.9999999999999</ele><time>2026-05-04T13:35:27Z</time></trkpt><trkpt lat="43.695512204087095" lon="11.935642413502816"><ele>910.0</ele><time>2026-05-04T13:35:28Z</time></trkpt><trkpt lat="43.695548103312" lon="11.935526932404398"><ele>910.0</ele><time>2026-05-04T13:35:29Z</time></trkpt><trkpt lat="43.695584136266675" lon="11.93540776240501"><ele>910.0</ele><time>2026-05-04T13:35:30Z</time></trkpt><trkpt lat="43.695619958534635" lon="11.935277996729079"><ele>910.0</ele><time>2026-05-04T13:35:31Z</time></trkpt><trkpt lat="43.69566549274727" lon="11.935156166699992"><ele>910.0</ele><time>2026-05-04T13:35:32Z</time></trkpt><trkpt lat="43.695712543165165" lon="11.935027341493637"><ele>910.0</ele><time>2026-05-04T13:35:33Z</time></trkpt><trkpt lat="43.6957610209135" lon="11.934892255126329"><ele>909.0</ele><time>2026-05-04T13:35:34Z</time></trkpt><trkpt lat="43.69581116116791" lon="11.934747573412848"><ele>908.0</ele><time>2026-05-04T13:35:35Z</time></trkpt><trkpt lat="43.69586276961557" lon="11.934607871575313"><ele>907.0</ele><time>2026-05-04T13:35:36Z</time></trkpt><trkpt lat="43.695909887188634" lon="11.934457832000895"><ele>906.0</ele><time>2026-05-04T13:35:37Z</time></trkpt><trkpt lat="43.6959545602064" lon="11.934301540072264"><ele>906.25</ele><time>2026-05-04T13:35:38Z</time></trkpt><trkpt lat="43.69599115040083" lon="11.93414943238557"><ele>906.5</ele><time>2026-05-04T13:35:39Z</time></trkpt><trkpt lat="43.69601808460343" lon="11.93399126705292"><ele>906.75</ele><time>2026-05-04T13:35:40Z</time></trkpt><trkpt lat="43.69603421703456" lon="11.933822785964951"><ele>907.0</ele><time>2026-05-04T13:35:41Z</time></trkpt><trkpt lat="43.69604076366915" lon="11.933652010212914"><ele>907.0</ele><time>2026-05-04T13:35:42Z</time></trkpt><trkpt lat="43.69604672203416" lon="11.933490039098567"><ele>907.0</ele><time>2026-05-04T13:35:43Z</time></trkpt><trkpt lat="43.69605399458441" lon="11.933336388133391"><ele>907.0</ele><time>2026-05-04T13:35:44Z</time></trkpt><trkpt lat="43.6960675682574" lon="11.933175529705082"><ele>907.0</ele><time>2026-05-04T13:35:45Z</time></trkpt><trkpt lat="43.69608544410252" lon="11.933006502737067"><ele>910.5</ele><time>2026-05-04T13:35:46Z</time></trkpt><trkpt lat="43.69610591798177" lon="11.932829973693334"><ele>914.0</ele><time>2026-05-04T13:35:47Z</time></trkpt><trkpt lat="43.696134196662506" lon="11.9326728554572"><ele>917.5</ele><time>2026-05-04T13:35:48Z</time></trkpt><trkpt lat="43.69616995868195" lon="11.932512755537278"><ele>921.0</ele><time>2026-05-04T13:35:49Z</time></trkpt><trkpt lat="43.696207037013465" lon="11.932352889315377"><ele>921.5999999999999</ele><time>2026-05-04T13:35:50Z</time></trkpt><trkpt lat="43.69625155964121" lon="11.932182123342157"><ele>922.1999999999999</ele><time>2026-05-04T13:35:51Z</time></trkpt><trkpt lat="43.69629236899191" lon="11.93202748182538"><ele>922.8000000000001</ele><time>2026-05-04T13:35:52Z</time></trkpt><trkpt lat="43.696330862349186" lon="11.93188874461123"><ele>923.4000000000001</ele><time>2026-05-04T13:35:53Z</time></trkpt><trkpt lat="43.69635572220962" lon="11.931769754873857"><ele>924.0</ele><time>2026-05-04T13:35:54Z</time></trkpt><trkpt lat="43.69637795256759" lon="11.931661480629733"><ele>924.8333333333334</ele><time>2026-05-04T13:35:55Z</time></trkpt><trkpt lat="43.69635817905808" lon="11.9315510915407"><ele>925.6666666666667</ele><time>2026-05-04T13:35:56Z</time></trkpt><trkpt lat="43.696309210073196" lon="11.931465055020874"><ele>926.5</ele><time>2026-05-04T13:35:57Z</time></trkpt><trkpt lat="43.69621178209641" lon="11.931409575052468"><ele>927.3333333333334</ele><time>2026-05-04T13:35:58Z</time></trkpt><trkpt lat="43.69613927623056" lon="11.931351491212101"><ele>928.1666666666667</ele><time>2026-05-04T13:35:59Z</time></trkpt><trkpt lat="43.69606752825479" lon="11.931264998676994"><ele>929.0</ele><time>2026-05-04T13:36:01Z</time></trkpt><trkpt lat="43.69606916837685" lon="11.931173185683935"><ele>929.0</ele><time>2026-05-04T13:36:03Z</time></trkpt><trkpt lat="43.69612424179281" lon="11.931088025605717"><ele>929.0000000000001</ele><time>2026-05-04T13:36:05Z</time></trkpt><trkpt lat="43.696202950522675" lon="11.930936699065319"><ele>929.0000000000001</ele><time>2026-05-04T13:36:07Z</time></trkpt><trkpt lat="43.696251825798775" lon="11.930835071588774"><ele>929.0</ele><time>2026-05-04T13:36:08Z</time></trkpt><trkpt lat="43.69631763165223" lon="11.93074773652217"><ele>929.0</ele><time>2026-05-04T13:36:09Z</time></trkpt><trkpt lat="43.696378064909844" lon="11.93067063173719"><ele>930.0</ele><time>2026-05-04T13:36:10Z</time></trkpt><trkpt lat="43.696428488744445" lon="11.930596720216013"><ele>931.0000000000001</ele><time>2026-05-04T13:36:11Z</time></trkpt><trkpt lat="43.6964995076762" lon="11.930482532186252"><ele>932.0000000000001</ele><time>2026-05-04T13:36:13Z</time></trkpt><trkpt lat="43.69657779448018" lon="11.93041394539833"><ele>933.0</ele><time>2026-05-04T13:36:16Z</time></trkpt><trkpt lat="43.69670891414957" lon="11.930364313414932"><ele>934.0</ele><time>2026-05-04T13:36:18Z</time></trkpt><trkpt lat="43.69677013712053" lon="11.930246069741218"><ele>934.0</ele><time>2026-05-04T13:36:19Z</time></trkpt><trkpt lat="43.696854114944244" lon="11.930192868402688"><ele>934.0000000000001</ele><time>2026-05-04T13:36:20Z</time></trkpt><trkpt lat="43.696942579695275" lon="11.930145877885694"><ele>934.0000000000001</ele><time>2026-05-04T13:36:21Z</time></trkpt><trkpt lat="43.69704715858754" lon="11.930107236675395"><ele>934.0</ele><time>2026-05-04T13:36:22Z</time></trkpt><trkpt lat="43.697155616735614" lon="11.930108233472321"><ele>934.0</ele><time>2026-05-04T13:36:23Z</time></trkpt><trkpt lat="43.69726601316512" lon="11.930092770282322"><ele>933.5</ele><time>2026-05-04T13:36:24Z</time></trkpt><trkpt lat="43.697377791297676" lon="11.930048370761133"><ele>933.0</ele><time>2026-05-04T13:36:25Z</time></trkpt><trkpt lat="43.69749454508864" lon="11.930007292649885"><ele>932.5</ele><time>2026-05-04T13:36:26Z</time></trkpt><trkpt lat="43.69760261844781" lon="11.929949022554018"><ele>932.0</ele><time>2026-05-04T13:36:27Z</time></trkpt><trkpt lat="43.697708222717196" lon="11.929878388801539"><ele>938.25</ele><time>2026-05-04T13:36:28Z</time></trkpt><trkpt lat="43.6978098721806" lon="11.929802517705696"><ele>944.5</ele><time>2026-05-04T13:36:29Z</time></trkpt><trkpt lat="43.69790745051221" lon="11.929712954005499"><ele>950.75</ele><time>2026-05-04T13:36:30Z</time></trkpt><trkpt lat="43.69799039720516" lon="11.929602634769527"><ele>957.0</ele><time>2026-05-04T13:36:31Z</time></trkpt><trkpt lat="43.69807979154635" lon="11.929487062629219"><ele>957.0</ele><time>2026-05-04T13:36:32Z</time></trkpt><trkpt lat="43.69813962714267" lon="11.929336187517764"><ele>957.0</ele><time>2026-05-04T13:36:33Z</time></trkpt><trkpt lat="43.69820802432976" lon="11.929196271627942"><ele>957.0</ele><time>2026-05-04T13:36:34Z</time></trkpt><trkpt lat="43.69827326175271" lon="11.92905650147745"><ele>957.0</ele><time>2026-05-04T13:36:35Z</time></trkpt><trkpt lat="43.69833625301055" lon="11.928914479938365"><ele>952.4000000000001</ele><time>2026-05-04T13:36:36Z</time></trkpt><trkpt lat="43.6984105842655" lon="11.92879026584246"><ele>947.8000000000001</ele><time>2026-05-04T13:36:37Z</time></trkpt><trkpt lat="43.69845736839773" lon="11.928647393089372"><ele>943.2</ele><time>2026-05-04T13:36:38Z</time></trkpt><trkpt lat="43.69850681843594" lon="11.928539565164492"><ele>938.6</ele><time>2026-05-04T13:36:39Z</time></trkpt><trkpt lat="43.698541219796425" lon="11.928450413077032"><ele>934.0</ele><time>2026-05-04T13:36:40Z</time></trkpt><trkpt lat="43.69855323478305" lon="11.928280338617604"><ele>930.75</ele><time>2026-05-04T13:36:42Z</time></trkpt><trkpt lat="43.698510377482265" lon="11.9281834533314"><ele>927.5</ele><time>2026-05-04T13:36:43Z</time></trkpt><trkpt lat="43.69837305576035" lon="11.928127598896573"><ele>924.25</ele><time>2026-05-04T13:36:44Z</time></trkpt><trkpt lat="43.698256736905776" lon="11.928045982823855"><ele>921.0</ele><time>2026-05-04T13:36:45Z</time></trkpt><trkpt lat="43.698145072765655" lon="11.928004018862264"><ele>921.0</ele><time>2026-05-04T13:36:46Z</time></trkpt><trkpt lat="43.69804506262452" lon="11.927974704659823"><ele>920.9999999999999</ele><time>2026-05-04T13:36:47Z</time></trkpt><trkpt lat="43.69795555202688" lon="11.927902352016241"><ele>920.9999999999999</ele><time>2026-05-04T13:36:48Z</time></trkpt><trkpt lat="43.69787172241303" lon="11.92781818157242"><ele>921.0</ele><time>2026-05-04T13:36:49Z</time></trkpt><trkpt lat="43.69779244904395" lon="11.927709530238221"><ele>921.0</ele><time>2026-05-04T13:36:50Z</time></trkpt><trkpt lat="43.69772567425752" lon="11.927598717880738"><ele>917.5999999999999</ele><time>2026-05-04T13:36:51Z</time></trkpt><trkpt lat="43.69766667375552" lon="11.927480208274753"><ele>914.1999999999999</ele><time>2026-05-04T13:36:52Z</time></trkpt><trkpt lat="43.69762735061099" lon="11.927351720276853"><ele>910.8000000000001</ele><time>2026-05-04T13:36:53Z</time></trkpt><trkpt lat="43.697592398816276" lon="11.927213860874486"><ele>907.4000000000001</ele><time>2026-05-04T13:36:54Z</time></trkpt><trkpt lat="43.69759895263209" lon="11.927060787715117"><ele>904.0</ele><time>2026-05-04T13:36:55Z</time></trkpt><trkpt lat="43.69754552505831" lon="11.926908352688892"><ele>904.0</ele><time>2026-05-04T13:36:56Z</time></trkpt><trkpt lat="43.69747662519095" lon="11.92677535200693"><ele>904.0</ele><time>2026-05-04T13:36:57Z</time></trkpt><trkpt lat="43.69739171463461" lon="11.926650885445808"><ele>904.0</ele><time>2026-05-04T13:36:58Z</time></trkpt><trkpt lat="43.69730589106776" lon="11.926541634511691"><ele>904.0</ele><time>2026-05-04T13:36:59Z</time></trkpt><trkpt lat="43.697220244097565" lon="11.926432816697464"><ele>902.75</ele><time>2026-05-04T13:37:00Z</time></trkpt><trkpt lat="43.69713057519318" lon="11.926318888881939"><ele>901.5</ele><time>2026-05-04T13:37:01Z</time></trkpt><trkpt lat="43.69704450098349" lon="11.926199841234316"><ele>900.25</ele><time>2026-05-04T13:37:02Z</time></trkpt><trkpt lat="43.69696554360369" lon="11.926086622818115"><ele>899.0</ele><time>2026-05-04T13:37:03Z</time></trkpt><trkpt lat="43.69689923889383" lon="11.925987045230595"><ele>897.4000000000001</ele><time>2026-05-04T13:37:04Z</time></trkpt><trkpt lat="43.69685080699925" lon="11.925907337587589"><ele>895.8000000000001</ele><time>2026-05-04T13:37:05Z</time></trkpt><trkpt lat="43.69681428204797" lon="11.925777814975032"><ele>894.1999999999999</ele><time>2026-05-04T13:37:07Z</time></trkpt><trkpt lat="43.69688367124597" lon="11.925584758972292"><ele>892.5999999999999</ele><time>2026-05-04T13:37:09Z</time></trkpt><trkpt lat="43.696895707568004" lon="11.925472439231733"><ele>891.0</ele><time>2026-05-04T13:37:10Z</time></trkpt><trkpt lat="43.696946945412414" lon="11.92534446690144"><ele>891.0</ele><time>2026-05-04T13:37:12Z</time></trkpt><trkpt lat="43.69700920771366" lon="11.925277512310725"><ele>891.0</ele><time>2026-05-04T13:37:14Z</time></trkpt><trkpt lat="43.69695148181904" lon="11.925357759873712"><ele>891.0</ele><time>2026-05-04T13:37:25Z</time></trkpt><trkpt lat="43.69701448356048" lon="11.925267061420321"><ele>891.0</ele><time>2026-05-04T13:37:31Z</time></trkpt><trkpt lat="43.69707281877865" lon="11.92512894510165"><ele>891.0</ele><time>2026-05-04T13:37:33Z</time></trkpt><trkpt lat="43.69709281172055" lon="11.925031465816447"><ele>891.0</ele><time>2026-05-04T13:37:34Z</time></trkpt><trkpt lat="43.697108365858675" lon="11.924946111804713"><ele>889.5714285714287</ele><time>2026-05-04T13:37:35Z</time></trkpt><trkpt lat="43.69712639260342" lon="11.92485729505539"><ele>888.1428571428571</ele><time>2026-05-04T13:37:36Z</time></trkpt><trkpt lat="43.69714726158995" lon="11.924755788741248"><ele>886.7142857142858</ele><time>2026-05-04T13:37:37Z</time></trkpt><trkpt lat="43.69716765933537" lon="11.92466756251434"><ele>885.2857142857143</ele><time>2026-05-04T13:37:38Z</time></trkpt><trkpt lat="43.69719086478166" lon="11.924580299208706"><ele>883.8571428571429</ele><time>2026-05-04T13:37:39Z</time></trkpt><trkpt lat="43.69721694680108" lon="11.924494873005717"><ele>882.4285714285714</ele><time>2026-05-04T13:37:40Z</time></trkpt><trkpt lat="43.69724891718945" lon="11.924395209537915"><ele>881.0</ele><time>2026-05-04T13:37:41Z</time></trkpt><trkpt lat="43.69728063345385" lon="11.924295053057913"><ele>880.1999999999999</ele><time>2026-05-04T13:37:42Z</time></trkpt><trkpt lat="43.69731305645204" lon="11.924192896175722"><ele>879.3999999999999</ele><time>2026-05-04T13:37:43Z</time></trkpt><trkpt lat="43.69737413719971" lon="11.924031936304752"><ele>878.6</ele><time>2026-05-04T13:37:45Z</time></trkpt><trkpt lat="43.69744765318751" lon="11.923892927527776"><ele>877.8</ele><time>2026-05-04T13:37:47Z</time></trkpt><trkpt lat="43.697535140086494" lon="11.923821742960879"><ele>877.0</ele><time>2026-05-04T13:37:49Z</time></trkpt><trkpt lat="43.697596185357376" lon="11.923787330519568"><ele>877.0</ele><time>2026-05-04T13:37:50Z</time></trkpt><trkpt lat="43.69771128108594" lon="11.923723093689638"><ele>877.0</ele><time>2026-05-04T13:37:52Z</time></trkpt><trkpt lat="43.69777251711093" lon="11.923693422698333"><ele>877.0</ele><time>2026-05-04T13:37:53Z</time></trkpt><trkpt lat="43.69787545421712" lon="11.923675379048664"><ele>877.0</ele><time>2026-05-04T13:37:55Z</time></trkpt><trkpt lat="43.69794937036234" lon="11.923637115012411"><ele>877.0</ele><time>2026-05-04T13:37:57Z</time></trkpt><trkpt lat="43.69807694422144" lon="11.923503934156946"><ele>876.0</ele><time>2026-05-04T13:37:58Z</time></trkpt><trkpt lat="43.69809265530861" lon="11.923363170729962"><ele>875.0</ele><time>2026-05-04T13:38:00Z</time></trkpt><trkpt lat="43.69764975289007" lon="11.923377755535572"><ele>881.5</ele><time>2026-05-04T13:38:01Z</time></trkpt><trkpt lat="43.69781981313035" lon="11.922825374414563"><ele>888.0</ele><time>2026-05-04T13:38:03Z</time></trkpt><trkpt lat="43.69779276560503" lon="11.922718867012168"><ele>886.0</ele><time>2026-05-04T13:38:04Z</time></trkpt><trkpt lat="43.69774990449078" lon="11.92262345469557"><ele>884.0</ele><time>2026-05-04T13:38:05Z</time></trkpt><trkpt lat="43.69769101764286" lon="11.922516646465096"><ele>882.0</ele><time>2026-05-04T13:38:06Z</time></trkpt><trkpt lat="43.69766450422887" lon="11.922412975847093"><ele>880.0</ele><time>2026-05-04T13:38:07Z</time></trkpt><trkpt lat="43.69764501893795" lon="11.922320900772084"><ele>878.0</ele><time>2026-05-04T13:38:08Z</time></trkpt><trkpt lat="43.69763125514228" lon="11.922231494558714"><ele>876.0</ele><time>2026-05-04T13:38:09Z</time></trkpt><trkpt lat="43.697659430521135" lon="11.922084259993223"><ele>876.0</ele><time>2026-05-04T13:38:11Z</time></trkpt><trkpt lat="43.69769598884314" lon="11.921990613463176"><ele>875.9999999999999</ele><time>2026-05-04T13:38:12Z</time></trkpt><trkpt lat="43.697742342662245" lon="11.921895327933054"><ele>875.9999999999999</ele><time>2026-05-04T13:38:13Z</time></trkpt><trkpt lat="43.69782479118464" lon="11.921782537756156"><ele>876.0</ele><time>2026-05-04T13:38:15Z</time></trkpt><trkpt lat="43.69785968130021" lon="11.921628532466357"><ele>876.0</ele><time>2026-05-04T13:38:17Z</time></trkpt><trkpt lat="43.697841826431215" lon="11.921539232921235"><ele>877.1666666666666</ele><time>2026-05-04T13:38:20Z</time></trkpt><trkpt lat="43.69785193930761" lon="11.921391094139898"><ele>878.3333333333333</ele><time>2026-05-04T13:38:24Z</time></trkpt><trkpt lat="43.697854116698686" lon="11.921290674753948"><ele>879.5</ele><time>2026-05-04T13:38:25Z</time></trkpt><trkpt lat="43.69783440618716" lon="11.921190497477072"><ele>880.6666666666666</ele><time>2026-05-04T13:38:26Z</time></trkpt><trkpt lat="43.69781226724197" lon="11.921107462126093"><ele>881.8333333333333</ele><time>2026-05-04T13:38:27Z</time></trkpt><trkpt lat="43.697761137940304" lon="11.920971496826619"><ele>883.0</ele><time>2026-05-04T13:38:29Z</time></trkpt><trkpt lat="43.69766241490478" lon="11.920876564196615"><ele>882.9999999999999</ele><time>2026-05-04T13:38:31Z</time></trkpt><trkpt lat="43.69758737259845" lon="11.920839922449392"><ele>883.0</ele><time>2026-05-04T13:38:32Z</time></trkpt><trkpt lat="43.69751169606607" lon="11.920823100300819"><ele>883.0</ele><time>2026-05-04T13:38:33Z</time></trkpt><trkpt lat="43.69742389036336" lon="11.920710108281305"><ele>883.0</ele><time>2026-05-04T13:38:35Z</time></trkpt><trkpt lat="43.697393745518525" lon="11.920631803685932"><ele>882.9999999999999</ele><time>2026-05-04T13:38:36Z</time></trkpt><trkpt lat="43.69736489643604" lon="11.920517805953041"><ele>883.0</ele><time>2026-05-04T13:38:38Z</time></trkpt><trkpt lat="43.69735235163406" lon="11.92038098796253"><ele>883.0</ele><time>2026-05-04T13:38:40Z</time></trkpt><trkpt lat="43.69735660715232" lon="11.920209206425852"><ele>883.0</ele><time>2026-05-04T13:38:42Z</time></trkpt><trkpt lat="43.697370195938234" lon="11.920029375750952"><ele>883.0</ele><time>2026-05-04T13:38:44Z</time></trkpt><trkpt lat="43.697350360868334" lon="11.919922000309107"><ele>883.0</ele><time>2026-05-04T13:38:45Z</time></trkpt><trkpt lat="43.69732892920408" lon="11.919828440006148"><ele>883.0</ele><time>2026-05-04T13:38:46Z</time></trkpt><trkpt lat="43.69731944793894" lon="11.919713090848013"><ele>883.8</ele><time>2026-05-04T13:38:47Z</time></trkpt><trkpt lat="43.69733694838624" lon="11.919622973726351"><ele>884.5999999999999</ele><time>2026-05-04T13:38:48Z</time></trkpt><trkpt lat="43.69734263440154" lon="11.919471713837769"><ele>885.4000000000001</ele><time>2026-05-04T13:38:50Z</time></trkpt><trkpt lat="43.697436445314" lon="11.919347033590348"><ele>886.2</ele><time>2026-05-04T13:38:52Z</time></trkpt><trkpt lat="43.69749621864688" lon="11.919268372443158"><ele>887.0</ele><time>2026-05-04T13:38:53Z</time></trkpt><trkpt lat="43.69755406260089" lon="11.919204940186521"><ele>887.8333333333334</ele><time>2026-05-04T13:38:54Z</time></trkpt><trkpt lat="43.69760585727002" lon="11.919103288935148"><ele>888.6666666666667</ele><time>2026-05-04T13:38:55Z</time></trkpt><trkpt lat="43.69764903480859" lon="11.918992886371713"><ele>889.5</ele><time>2026-05-04T13:38:56Z</time></trkpt><trkpt lat="43.69770457260133" lon="11.918939727114061"><ele>890.3333333333333</ele><time>2026-05-04T13:38:57Z</time></trkpt><trkpt lat="43.69776548797932" lon="11.918867723670077"><ele>891.1666666666666</ele><time>2026-05-04T13:38:58Z</time></trkpt><trkpt lat="43.69782870418449" lon="11.918798624777471"><ele>892.0</ele><time>2026-05-04T13:38:59Z</time></trkpt><trkpt lat="43.69785647191669" lon="11.918712103027426"><ele>893.8333333333333</ele><time>2026-05-04T13:39:00Z</time></trkpt><trkpt lat="43.697863178894224" lon="11.918610127016663"><ele>895.6666666666666</ele><time>2026-05-04T13:39:02Z</time></trkpt><trkpt lat="43.697803837680034" lon="11.918490930923266"><ele>897.5</ele><time>2026-05-04T13:39:05Z</time></trkpt><trkpt lat="43.69778349219353" lon="11.91839620139932"><ele>899.3333333333333</ele><time>2026-05-04T13:39:06Z</time></trkpt><trkpt lat="43.69777119775751" lon="11.918283677893921"><ele>901.1666666666666</ele><time>2026-05-04T13:39:07Z</time></trkpt><trkpt lat="43.69774060198745" lon="11.918185980131415"><ele>903.0</ele><time>2026-05-04T13:39:08Z</time></trkpt><trkpt lat="43.697682569626934" lon="11.918101900798424"><ele>903.0</ele><time>2026-05-04T13:39:09Z</time></trkpt><trkpt lat="43.69763407636877" lon="11.918012512160859"><ele>903.0</ele><time>2026-05-04T13:39:10Z</time></trkpt><trkpt lat="43.69757727890481" lon="11.917942654769016"><ele>903.0</ele><time>2026-05-04T13:39:11Z</time></trkpt><trkpt lat="43.69753147626217" lon="11.917879410380644"><ele>903.0</ele><time>2026-05-04T13:39:12Z</time></trkpt><trkpt lat="43.69750303498989" lon="11.917788438850353"><ele>903.0</ele><time>2026-05-04T13:39:13Z</time></trkpt><trkpt lat="43.69746268171725" lon="11.917692962476227"><ele>903.0</ele><time>2026-05-04T13:39:14Z</time></trkpt><trkpt lat="43.6974153458734" lon="11.91761059327751"><ele>903.0</ele><time>2026-05-04T13:39:15Z</time></trkpt><trkpt lat="43.69736464687802" lon="11.917548285416881"><ele>904.8</ele><time>2026-05-04T13:39:16Z</time></trkpt><trkpt lat="43.697319634681115" lon="11.917485677015149"><ele>906.5999999999999</ele><time>2026-05-04T13:39:17Z</time></trkpt><trkpt lat="43.69726494199664" lon="11.917405128448724"><ele>908.4000000000001</ele><time>2026-05-04T13:39:18Z</time></trkpt><trkpt lat="43.69720898280516" lon="11.917340406351718"><ele>910.2</ele><time>2026-05-04T13:39:19Z</time></trkpt><trkpt lat="43.69711397023422" lon="11.91723551924483"><ele>912.0</ele><time>2026-05-04T13:39:21Z</time></trkpt><trkpt lat="43.69704194486432" lon="11.91709892988173"><ele>912.0</ele><time>2026-05-04T13:39:23Z</time></trkpt><trkpt lat="43.697016916097375" lon="11.917014836088896"><ele>912.0</ele><time>2026-05-04T13:39:24Z</time></trkpt><trkpt lat="43.696986713734354" lon="11.916937228785962"><ele>912.0</ele><time>2026-05-04T13:39:25Z</time></trkpt><trkpt lat="43.69695130112328" lon="11.916771246831166"><ele>912.0</ele><time>2026-05-04T13:39:27Z</time></trkpt><trkpt lat="43.69692983884883" lon="11.916656692975213"><ele>912.0</ele><time>2026-05-04T13:39:28Z</time></trkpt><trkpt lat="43.696901138130016" lon="11.916564914642542"><ele>912.0</ele><time>2026-05-04T13:39:29Z</time></trkpt><trkpt lat="43.696876290672215" lon="11.9164831003931"><ele>911.3333333333334</ele><time>2026-05-04T13:39:30Z</time></trkpt><trkpt lat="43.69684934643313" lon="11.916402813501271"><ele>910.6666666666667</ele><time>2026-05-04T13:39:31Z</time></trkpt><trkpt lat="43.69681993673863" lon="11.916313287297053"><ele>910.0</ele><time>2026-05-04T13:39:32Z</time></trkpt><trkpt lat="43.69680027363163" lon="11.916225453501923"><ele>909.3333333333334</ele><time>2026-05-04T13:39:33Z</time></trkpt><trkpt lat="43.696775259313114" lon="11.91612700541104"><ele>908.6666666666667</ele><time>2026-05-04T13:39:34Z</time></trkpt><trkpt lat="43.69675576777975" lon="11.916015973318457"><ele>908.0</ele><time>2026-05-04T13:39:35Z</time></trkpt><trkpt lat="43.69673997606761" lon="11.915893344194034"><ele>910.4</ele><time>2026-05-04T13:39:36Z</time></trkpt><trkpt lat="43.696684500958604" lon="11.915741238987362"><ele>912.8</ele><time>2026-05-04T13:39:38Z</time></trkpt><trkpt lat="43.69662705724198" lon="11.915671244694103"><ele>915.2</ele><time>2026-05-04T13:39:39Z</time></trkpt><trkpt lat="43.69659514289983" lon="11.915593865262059"><ele>917.6</ele><time>2026-05-04T13:39:40Z</time></trkpt><trkpt lat="43.6966032461508" lon="11.915438669262743"><ele>920.0</ele><time>2026-05-04T13:39:42Z</time></trkpt><trkpt lat="43.69655866892005" lon="11.91524893345604"><ele>920.0000000000001</ele><time>2026-05-04T13:39:44Z</time></trkpt><trkpt lat="43.69653248547343" lon="11.91514440893293"><ele>920.0</ele><time>2026-05-04T13:39:45Z</time></trkpt><trkpt lat="43.69650191358503" lon="11.915041004973343"><ele>920.0</ele><time>2026-05-04T13:39:46Z</time></trkpt><trkpt lat="43.69647524098757" lon="11.914942859992987"><ele>920.0</ele><time>2026-05-04T13:39:47Z</time></trkpt><trkpt lat="43.696466230047555" lon="11.914830085706695"><ele>920.0000000000001</ele><time>2026-05-04T13:39:48Z</time></trkpt><trkpt lat="43.69644960800798" lon="11.914692008677397"><ele>920.0</ele><time>2026-05-04T13:39:49Z</time></trkpt><trkpt lat="43.696434877453086" lon="11.91460500333104"><ele>922.0000000000001</ele><time>2026-05-04T13:39:50Z</time></trkpt><trkpt lat="43.69642446081712" lon="11.914518614963288"><ele>924.0</ele><time>2026-05-04T13:39:51Z</time></trkpt><trkpt lat="43.69638331318606" lon="11.91438320915304"><ele>926.0</ele><time>2026-05-04T13:39:53Z</time></trkpt><trkpt lat="43.69634250752026" lon="11.914309726457542"><ele>928.0</ele><time>2026-05-04T13:39:54Z</time></trkpt><trkpt lat="43.696302424997526" lon="11.914208395769291"><ele>930.0000000000001</ele><time>2026-05-04T13:39:55Z</time></trkpt><trkpt lat="43.69627840791448" lon="11.91409863337055"><ele>932.0</ele><time>2026-05-04T13:39:56Z</time></trkpt><trkpt lat="43.696254039959186" lon="11.913976345330392"><ele>932.8333333333334</ele><time>2026-05-04T13:39:57Z</time></trkpt><trkpt lat="43.696212234696176" lon="11.913866557995132"><ele>933.6666666666667</ele><time>2026-05-04T13:39:58Z</time></trkpt><trkpt lat="43.69617137248382" lon="11.913782801309567"><ele>934.5</ele><time>2026-05-04T13:39:59Z</time></trkpt><trkpt lat="43.696135240289486" lon="11.91369857881967"><ele>935.3333333333333</ele><time>2026-05-04T13:40:00Z</time></trkpt><trkpt lat="43.69607341174813" lon="11.913597943649384"><ele>936.1666666666666</ele><time>2026-05-04T13:40:02Z</time></trkpt><trkpt lat="43.69603567406488" lon="11.913475606507443"><ele>937.0</ele><time>2026-05-04T13:40:04Z</time></trkpt><trkpt lat="43.69600751587651" lon="11.91331974023658"><ele>936.7142857142857</ele><time>2026-05-04T13:40:06Z</time></trkpt><trkpt lat="43.696004821070034" lon="11.913206707669508"><ele>936.4285714285716</ele><time>2026-05-04T13:40:07Z</time></trkpt><trkpt lat="43.6960094114894" lon="11.91311249887161"><ele>936.1428571428572</ele><time>2026-05-04T13:40:08Z</time></trkpt><trkpt lat="43.696013083491046" lon="11.913014586148941"><ele>935.8571428571429</ele><time>2026-05-04T13:40:09Z</time></trkpt><trkpt lat="43.6960309368784" lon="11.912907192435195"><ele>935.5714285714287</ele><time>2026-05-04T13:40:11Z</time></trkpt><trkpt lat="43.69606975574743" lon="11.91282509851196"><ele>935.2857142857144</ele><time>2026-05-04T13:40:25Z</time></trkpt><trkpt lat="43.696120722388464" lon="11.912762155923517"><ele>935.0000000000001</ele><time>2026-05-04T13:40:37Z</time></trkpt><trkpt lat="43.69623726320073" lon="11.912911640317851"><ele>935.0</ele><time>2026-05-04T13:40:39Z</time></trkpt><trkpt lat="43.69630187972532" lon="11.912861107029295"><ele>935.0</ele><time>2026-05-04T13:40:43Z</time></trkpt><trkpt lat="43.6963739821445" lon="11.91283270653018"><ele>935.0</ele><time>2026-05-04T13:41:17Z</time></trkpt><trkpt lat="43.69626687400026" lon="11.912242622845822"><ele>932.6666666666667</ele><time>2026-05-04T13:41:23Z</time></trkpt><trkpt lat="43.69620102341778" lon="11.912224810089635"><ele>930.3333333333334</ele><time>2026-05-04T13:41:30Z</time></trkpt><trkpt lat="43.69611186725543" lon="11.912282111349889"><ele>928.0</ele><time>2026-05-04T13:41:34Z</time></trkpt><trkpt lat="43.6960395723437" lon="11.912341829491435"><ele>925.6666666666667</ele><time>2026-05-04T13:41:37Z</time></trkpt><trkpt lat="43.69598384544908" lon="11.912297987439047"><ele>923.3333333333334</ele><time>2026-05-04T13:41:41Z</time></trkpt><trkpt lat="43.69600774303053" lon="11.91220915399619"><ele>921.0</ele><time>2026-05-04T13:41:45Z</time></trkpt><trkpt lat="43.6960195253522" lon="11.91232108407686"><ele>921.0000000000001</ele><time>2026-05-04T13:41:58Z</time></trkpt><trkpt lat="43.69609070988661" lon="11.912317132233094"><ele>921.0</ele><time>2026-05-04T13:42:01Z</time></trkpt><trkpt lat="43.696167916132175" lon="11.91228267067467"><ele>921.0000000000001</ele><time>2026-05-04T13:42:04Z</time></trkpt><trkpt lat="43.696234189916" lon="11.912285345985845"><ele>921.0000000000001</ele><time>2026-05-04T13:42:07Z</time></trkpt><trkpt lat="43.69629179310624" lon="11.912213052516522"><ele>921.0</ele><time>2026-05-04T13:42:36Z</time></trkpt><trkpt lat="43.69629349336386" lon="11.912123156201492"><ele>921.0000000000001</ele><time>2026-05-04T13:42:38Z</time></trkpt><trkpt lat="43.69627918526216" lon="11.912027016075712"><ele>921.0000000000001</ele><time>2026-05-04T13:42:42Z</time></trkpt><trkpt lat="43.69633913357009" lon="11.911976466395839"><ele>921.0</ele><time>2026-05-04T13:43:43Z</time></trkpt><trkpt lat="43.696283084733146" lon="11.912027852218031"><ele>921.0</ele><time>2026-05-04T13:43:56Z</time></trkpt><trkpt lat="43.69629138303306" lon="11.912148616541955"><ele>921.0</ele><time>2026-05-04T13:43:59Z</time></trkpt><trkpt lat="43.696277058260435" lon="11.912264704020982"><ele>921.0</ele><time>2026-05-04T13:44:01Z</time></trkpt><trkpt lat="43.69626773564333" lon="11.91237626365871"><ele>921.0</ele><time>2026-05-04T13:44:03Z</time></trkpt><trkpt lat="43.69625193920005" lon="11.91246910365948"><ele>921.0</ele><time>2026-05-04T13:44:05Z</time></trkpt><trkpt lat="43.6962197386295" lon="11.912565210718641"><ele>921.1666666666666</ele><time>2026-05-04T13:44:07Z</time></trkpt><trkpt lat="43.696156872045144" lon="11.912661501708124"><ele>921.3333333333333</ele><time>2026-05-04T13:44:09Z</time></trkpt><trkpt lat="43.69611887707771" lon="11.91277808871354"><ele>921.5</ele><time>2026-05-04T13:44:11Z</time></trkpt><trkpt lat="43.69608283459344" lon="11.912881006670231"><ele>921.6666666666666</ele><time>2026-05-04T13:44:13Z</time></trkpt><trkpt lat="43.696120884889176" lon="11.912978162011758"><ele>921.8333333333333</ele><time>2026-05-04T13:44:17Z</time></trkpt><trkpt lat="43.696196144488745" lon="11.912929127284638"><ele>922.0</ele><time>2026-05-04T13:53:59Z</time></trkpt><trkpt lat="43.696252189078265" lon="11.912880148444366"><ele>924.6</ele><time>2026-05-04T13:54:01Z</time></trkpt><trkpt lat="43.69634898065803" lon="11.912845541004822"><ele>927.2</ele><time>2026-05-04T13:54:04Z</time></trkpt><trkpt lat="43.69644496203157" lon="11.912883858281894"><ele>929.8</ele><time>2026-05-04T13:54:06Z</time></trkpt><trkpt lat="43.696548362094106" lon="11.912981207428382"><ele>932.4</ele><time>2026-05-04T13:54:08Z</time></trkpt><trkpt lat="43.696618681364605" lon="11.91303091408487"><ele>935.0</ele><time>2026-05-04T13:54:09Z</time></trkpt><trkpt lat="43.69668734376246" lon="11.913062209192846"><ele>935.0000000000001</ele><time>2026-05-04T13:54:10Z</time></trkpt><trkpt lat="43.69677128056506" lon="11.913082622944266"><ele>935.0</ele><time>2026-05-04T13:54:11Z</time></trkpt><trkpt lat="43.69683870418562" lon="11.913081323349875"><ele>935.0</ele><time>2026-05-04T13:54:12Z</time></trkpt><trkpt lat="43.696916394762496" lon="11.91305066725666"><ele>935.0</ele><time>2026-05-04T13:54:13Z</time></trkpt><trkpt lat="43.696978578985025" lon="11.912996302722457"><ele>935.0000000000001</ele><time>2026-05-04T13:54:14Z</time></trkpt><trkpt lat="43.69704913098491" lon="11.912928759807091"><ele>935.0</ele><time>2026-05-04T13:54:15Z</time></trkpt><trkpt lat="43.69713208289846" lon="11.912854446742287"><ele>935.8</ele><time>2026-05-04T13:54:16Z</time></trkpt><trkpt lat="43.697201591668055" lon="11.912778077922564"><ele>936.6</ele><time>2026-05-04T13:54:17Z</time></trkpt><trkpt lat="43.697294922568595" lon="11.912761795161373"><ele>937.4000000000001</ele><time>2026-05-04T13:54:18Z</time></trkpt><trkpt lat="43.69746334954765" lon="11.912717827026597"><ele>938.2</ele><time>2026-05-04T13:54:20Z</time></trkpt><trkpt lat="43.697530779782305" lon="11.912714578913913"><ele>939.0</ele><time>2026-05-04T13:54:21Z</time></trkpt><trkpt lat="43.697609251307604" lon="11.912726397575236"><ele>939.0</ele><time>2026-05-04T13:54:22Z</time></trkpt><trkpt lat="43.697682420617156" lon="11.912753457601646"><ele>939.0</ele><time>2026-05-04T13:54:23Z</time></trkpt><trkpt lat="43.69774483847578" lon="11.912815019415666"><ele>939.0</ele><time>2026-05-04T13:54:24Z</time></trkpt><trkpt lat="43.69782305994427" lon="11.912847229209635"><ele>939.0</ele><time>2026-05-04T13:54:25Z</time></trkpt><trkpt lat="43.697878640400795" lon="11.912898336277427"><ele>939.0</ele><time>2026-05-04T13:54:26Z</time></trkpt><trkpt lat="43.69795163166639" lon="11.91295790061165"><ele>939.0</ele><time>2026-05-04T13:54:27Z</time></trkpt><trkpt lat="43.69802343341427" lon="11.913015124049355"><ele>937.4000000000001</ele><time>2026-05-04T13:54:28Z</time></trkpt><trkpt lat="43.69811225235818" lon="11.913079955240235"><ele>935.8000000000001</ele><time>2026-05-04T13:54:29Z</time></trkpt><trkpt lat="43.698219937905236" lon="11.913135143639682"><ele>934.1999999999999</ele><time>2026-05-04T13:54:30Z</time></trkpt><trkpt lat="43.69829913032818" lon="11.913164828140674"><ele>932.5999999999999</ele><time>2026-05-04T13:54:31Z</time></trkpt><trkpt lat="43.698387574001536" lon="11.913182236778148"><ele>931.0</ele><time>2026-05-04T13:54:32Z</time></trkpt><trkpt lat="43.69848276312453" lon="11.91317563593883"><ele>931.0</ele><time>2026-05-04T13:54:33Z</time></trkpt><trkpt lat="43.698562509249875" lon="11.91314037931321"><ele>931.0</ele><time>2026-05-04T13:54:34Z</time></trkpt><trkpt lat="43.69863770300734" lon="11.913110146482232"><ele>931.0</ele><time>2026-05-04T13:54:35Z</time></trkpt><trkpt lat="43.69870965151931" lon="11.913101218123602"><ele>931.0</ele><time>2026-05-04T13:54:36Z</time></trkpt><trkpt lat="43.69877331904227" lon="11.913086200366676"><ele>931.0</ele><time>2026-05-04T13:54:37Z</time></trkpt><trkpt lat="43.6988339678601" lon="11.913047625043061"><ele>931.0</ele><time>2026-05-04T13:54:38Z</time></trkpt><trkpt lat="43.69889937847194" lon="11.91303494709938"><ele>931.0</ele><time>2026-05-04T13:54:39Z</time></trkpt><trkpt lat="43.69896851049095" lon="11.913005820056487"><ele>932.0</ele><time>2026-05-04T13:54:41Z</time></trkpt><trkpt lat="43.69897988622896" lon="11.91291097003991"><ele>932.9999999999999</ele><time>2026-05-04T13:54:51Z</time></trkpt><trkpt lat="43.69890690070376" lon="11.912816167536375"><ele>933.9999999999999</ele><time>2026-05-04T13:54:52Z</time></trkpt><trkpt lat="43.698877197691154" lon="11.912738586245442"><ele>935.0</ele><time>2026-05-04T13:54:53Z</time></trkpt><trkpt lat="43.69892398121998" lon="11.91256067476017"><ele>936.0</ele><time>2026-05-04T13:54:55Z</time></trkpt><trkpt lat="43.69897634974717" lon="11.91247196139136"><ele>933.4</ele><time>2026-05-04T13:54:56Z</time></trkpt><trkpt lat="43.69903612766493" lon="11.91239137814359"><ele>930.8</ele><time>2026-05-04T13:54:57Z</time></trkpt><trkpt lat="43.699104013884124" lon="11.912305685163778"><ele>928.1999999999999</ele><time>2026-05-04T13:54:58Z</time></trkpt><trkpt lat="43.69916980363193" lon="11.912201325496781"><ele>925.5999999999999</ele><time>2026-05-04T13:54:59Z</time></trkpt><trkpt lat="43.699227041781576" lon="11.912097062057752"><ele>923.0</ele><time>2026-05-04T13:55:00Z</time></trkpt><trkpt lat="43.69929013870509" lon="11.911997417434854"><ele>923.0</ele><time>2026-05-04T13:55:01Z</time></trkpt><trkpt lat="43.699335219625056" lon="11.91187926981889"><ele>923.0</ele><time>2026-05-04T13:55:02Z</time></trkpt><trkpt lat="43.69937570347752" lon="11.911759162207751"><ele>923.0</ele><time>2026-05-04T13:55:03Z</time></trkpt><trkpt lat="43.699414575660995" lon="11.911644207443745"><ele>923.0</ele><time>2026-05-04T13:55:04Z</time></trkpt><trkpt lat="43.69945392298127" lon="11.911527847559144"><ele>923.0</ele><time>2026-05-04T13:55:05Z</time></trkpt><trkpt lat="43.69949117262754" lon="11.911422374378438"><ele>922.5999999999999</ele><time>2026-05-04T13:55:06Z</time></trkpt><trkpt lat="43.699518988840126" lon="11.91132172297983"><ele>922.1999999999999</ele><time>2026-05-04T13:55:07Z</time></trkpt><trkpt lat="43.699593913226565" lon="11.911224066260722"><ele>921.8</ele><time>2026-05-04T13:55:09Z</time></trkpt><trkpt lat="43.69963917982647" lon="11.91115903875936"><ele>921.4</ele><time>2026-05-04T13:55:11Z</time></trkpt><trkpt lat="43.69967742952649" lon="11.911063503650059"><ele>921.0</ele><time>2026-05-04T13:55:14Z</time></trkpt><trkpt lat="43.699547998997495" lon="11.91077557324309"><ele>918.1999999999999</ele><time>2026-05-04T13:55:16Z</time></trkpt><trkpt lat="43.699586170216755" lon="11.910642326118653"><ele>915.3999999999999</ele><time>2026-05-04T13:55:18Z</time></trkpt><trkpt lat="43.699642262239564" lon="11.910510746198508"><ele>912.6</ele><time>2026-05-04T13:55:20Z</time></trkpt><trkpt lat="43.6997126544982" lon="11.910387941127953"><ele>909.8</ele><time>2026-05-04T13:55:22Z</time></trkpt><trkpt lat="43.69974695743368" lon="11.910313188487484"><ele>907.0</ele><time>2026-05-04T13:55:23Z</time></trkpt><trkpt lat="43.6997754791404" lon="11.910229101365644"><ele>907.0000000000001</ele><time>2026-05-04T13:55:24Z</time></trkpt><trkpt lat="43.69980025412034" lon="11.910138914374846"><ele>907.0</ele><time>2026-05-04T13:55:25Z</time></trkpt><trkpt lat="43.69981722126369" lon="11.910053890719196"><ele>907.0000000000001</ele><time>2026-05-04T13:55:26Z</time></trkpt><trkpt lat="43.699813247849605" lon="11.909951926953983"><ele>907.0000000000001</ele><time>2026-05-04T13:55:27Z</time></trkpt><trkpt lat="43.69980762369511" lon="11.909863320715875"><ele>907.0</ele><time>2026-05-04T13:55:28Z</time></trkpt><trkpt lat="43.69976625636138" lon="11.909738707795311"><ele>907.0000000000001</ele><time>2026-05-04T13:55:30Z</time></trkpt><trkpt lat="43.699751767416544" lon="11.90964839397937"><ele>907.0000000000001</ele><time>2026-05-04T13:55:34Z</time></trkpt><trkpt lat="43.69982662643449" lon="11.909559643377902"><ele>905.3333333333333</ele><time>2026-05-04T13:55:37Z</time></trkpt><trkpt lat="43.699899295431365" lon="11.909487319495394"><ele>903.6666666666666</ele><time>2026-05-04T13:55:39Z</time></trkpt><trkpt lat="43.699964689128365" lon="11.909382768411527"><ele>902.0</ele><time>2026-05-04T13:55:41Z</time></trkpt><trkpt lat="43.700045064615765" lon="11.909271253364098"><ele>900.3333333333333</ele><time>2026-05-04T13:55:43Z</time></trkpt><trkpt lat="43.70009907642637" lon="11.909218508779242"><ele>898.6666666666666</ele><time>2026-05-04T13:55:44Z</time></trkpt><trkpt lat="43.70015992314353" lon="11.90915141338469"><ele>897.0</ele><time>2026-05-04T13:55:45Z</time></trkpt><trkpt lat="43.700212860708945" lon="11.90909184652611"><ele>895.0</ele><time>2026-05-04T13:55:46Z</time></trkpt><trkpt lat="43.70026024530335" lon="11.909032258466222"><ele>893.0</ele><time>2026-05-04T13:55:47Z</time></trkpt><trkpt lat="43.70030367782989" lon="11.908953896483977"><ele>891.0</ele><time>2026-05-04T13:55:48Z</time></trkpt><trkpt lat="43.70034502869179" lon="11.908854586192442"><ele>889.0</ele><time>2026-05-04T13:55:49Z</time></trkpt><trkpt lat="43.7003679021834" lon="11.908760322772444"><ele>887.0</ele><time>2026-05-04T13:55:50Z</time></trkpt><trkpt lat="43.700397496628696" lon="11.908680584441692"><ele>885.0</ele><time>2026-05-04T13:55:51Z</time></trkpt><trkpt lat="43.700442424586996" lon="11.908525113207146"><ele>883.6</ele><time>2026-05-04T13:55:53Z</time></trkpt><trkpt lat="43.70049403646538" lon="11.908374432998295"><ele>882.2</ele><time>2026-05-04T13:55:55Z</time></trkpt><trkpt lat="43.70052700417625" lon="11.908217532009518"><ele>880.8</ele><time>2026-05-04T13:55:57Z</time></trkpt><trkpt lat="43.70057752363704" lon="11.90804505794223"><ele>879.4</ele><time>2026-05-04T13:55:59Z</time></trkpt><trkpt lat="43.70059689694624" lon="11.907945763091321"><ele>878.0</ele><time>2026-05-04T13:56:00Z</time></trkpt><trkpt lat="43.70062294351631" lon="11.90784547283405"><ele>878.0</ele><time>2026-05-04T13:56:01Z</time></trkpt><trkpt lat="43.70064544511197" lon="11.907745805701715"><ele>878.0</ele><time>2026-05-04T13:56:02Z</time></trkpt><trkpt lat="43.70067769533788" lon="11.907576330023211"><ele>878.0</ele><time>2026-05-04T13:56:04Z</time></trkpt><trkpt lat="43.7006907373847" lon="11.907485333848395"><ele>878.0</ele><time>2026-05-04T13:56:05Z</time></trkpt><trkpt lat="43.70070342677739" lon="11.907294828326991"><ele>878.0</ele><time>2026-05-04T13:56:07Z</time></trkpt><trkpt lat="43.70072084669576" lon="11.907185018769619"><ele>877.1666666666667</ele><time>2026-05-04T13:56:08Z</time></trkpt><trkpt lat="43.70073087194424" lon="11.90709838810994"><ele>876.3333333333334</ele><time>2026-05-04T13:56:09Z</time></trkpt><trkpt lat="43.700740088845436" lon="11.906968678988694"><ele>875.5</ele><time>2026-05-04T13:56:11Z</time></trkpt><trkpt lat="43.70073719963355" lon="11.906837359249868"><ele>874.6666666666667</ele><time>2026-05-04T13:56:52Z</time></trkpt><trkpt lat="43.70073256609791" lon="11.906726886446418"><ele>873.8333333333334</ele><time>2026-05-04T13:56:54Z</time></trkpt><trkpt lat="43.70076051638643" lon="11.906644544296242"><ele>873.0</ele><time>2026-05-04T13:56:57Z</time></trkpt><trkpt lat="43.70080281579624" lon="11.906576912573252"><ele>871.8333333333334</ele><time>2026-05-04T13:56:59Z</time></trkpt><trkpt lat="43.70084318546628" lon="11.906491632216046"><ele>870.6666666666667</ele><time>2026-05-04T13:57:01Z</time></trkpt><trkpt lat="43.70087958212559" lon="11.90641723812595"><ele>869.5</ele><time>2026-05-04T13:57:03Z</time></trkpt><trkpt lat="43.70092928053867" lon="11.906319583581025"><ele>868.3333333333334</ele><time>2026-05-04T13:57:06Z</time></trkpt><trkpt lat="43.70099816897278" lon="11.906228616330617"><ele>867.1666666666667</ele><time>2026-05-04T13:57:09Z</time></trkpt><trkpt lat="43.70107202929086" lon="11.90616789337295"><ele>866.0</ele><time>2026-05-04T13:57:11Z</time></trkpt><trkpt lat="43.701158606073136" lon="11.906069360227367"><ele>866.0</ele><time>2026-05-04T13:57:13Z</time></trkpt><trkpt lat="43.70122256404462" lon="11.905972204469709"><ele>865.9999999999999</ele><time>2026-05-04T13:57:15Z</time></trkpt><trkpt lat="43.70128316844503" lon="11.905852615603752"><ele>865.9999999999999</ele><time>2026-05-04T13:57:17Z</time></trkpt><trkpt lat="43.70134362706812" lon="11.905739155744103"><ele>866.0</ele><time>2026-05-04T13:57:19Z</time></trkpt><trkpt lat="43.70135996230524" lon="11.90562095859343"><ele>866.0</ele><time>2026-05-04T13:57:21Z</time></trkpt><trkpt lat="43.70140042802651" lon="11.905529599449704"><ele>864.1999999999999</ele><time>2026-05-04T13:57:23Z</time></trkpt><trkpt lat="43.701433673326065" lon="11.905447674908771"><ele>862.3999999999999</ele><time>2026-05-04T13:57:25Z</time></trkpt><trkpt lat="43.70149198537223" lon="11.905315162837072"><ele>860.6</ele><time>2026-05-04T13:57:27Z</time></trkpt><trkpt lat="43.70152461812721" lon="11.90519403164822"><ele>858.8</ele><time>2026-05-04T13:57:29Z</time></trkpt><trkpt lat="43.70156640302816" lon="11.90505899144873"><ele>857.0</ele><time>2026-05-04T13:57:31Z</time></trkpt><trkpt lat="43.70158775782301" lon="11.904916889223516"><ele>855.0000000000001</ele><time>2026-05-04T13:57:33Z</time></trkpt><trkpt lat="43.70160904715495" lon="11.904790497965704"><ele>853.0</ele><time>2026-05-04T13:57:35Z</time></trkpt><trkpt lat="43.70167633268012" lon="11.90467413462586"><ele>851.0</ele><time>2026-05-04T13:57:37Z</time></trkpt><trkpt lat="43.7017269668867" lon="11.904579155330142"><ele>849.0</ele><time>2026-05-04T13:57:39Z</time></trkpt><trkpt lat="43.70179419314855" lon="11.904526874282034"><ele>847.0000000000001</ele><time>2026-05-04T13:57:41Z</time></trkpt><trkpt lat="43.70186166498081" lon="11.90450596190919"><ele>845.0</ele><time>2026-05-04T13:57:46Z</time></trkpt><trkpt lat="43.701901062355226" lon="11.904414616579675"><ele>845.0000000000001</ele><time>2026-05-04T13:58:16Z</time></trkpt><trkpt lat="43.70180471761295" lon="11.904391733688408"><ele>845.0</ele><time>2026-05-04T13:58:18Z</time></trkpt><trkpt lat="43.70173523224276" lon="11.904398321792295"><ele>845.0</ele><time>2026-05-04T13:58:19Z</time></trkpt><trkpt lat="43.70165530341665" lon="11.904400418663796"><ele>845.0</ele><time>2026-05-04T13:58:20Z</time></trkpt><trkpt lat="43.70157199570507" lon="11.904408356634447"><ele>845.0000000000001</ele><time>2026-05-04T13:58:21Z</time></trkpt><trkpt lat="43.70148824534729" lon="11.904408026779729"><ele>845.0</ele><time>2026-05-04T13:58:22Z</time></trkpt><trkpt lat="43.70140561675727" lon="11.904413144373867"><ele>845.0000000000001</ele><time>2026-05-04T13:58:23Z</time></trkpt><trkpt lat="43.70132363048777" lon="11.904418304371962"><ele>845.0</ele><time>2026-05-04T13:58:24Z</time></trkpt><trkpt lat="43.70124067262294" lon="11.904421662961301"><ele>845.0</ele><time>2026-05-04T13:58:25Z</time></trkpt><trkpt lat="43.70115706864857" lon="11.904426518314438"><ele>845.0</ele><time>2026-05-04T13:58:26Z</time></trkpt><trkpt lat="43.70107746440525" lon="11.904453036198316"><ele>845.0000000000001</ele><time>2026-05-04T13:58:27Z</time></trkpt><trkpt lat="43.701012776963786" lon="11.904509599903957"><ele>845.0</ele><time>2026-05-04T13:58:28Z</time></trkpt><trkpt lat="43.70096563167508" lon="11.90460537044566"><ele>846.0000000000001</ele><time>2026-05-04T13:58:29Z</time></trkpt><trkpt lat="43.70093660432724" lon="11.904724552070384"><ele>847.0</ele><time>2026-05-04T13:58:30Z</time></trkpt><trkpt lat="43.70091752772867" lon="11.904849598691909"><ele>848.0</ele><time>2026-05-04T13:58:31Z</time></trkpt><trkpt lat="43.70088867144854" lon="11.9049638423582"><ele>849.0</ele><time>2026-05-04T13:58:32Z</time></trkpt><trkpt lat="43.70084298195997" lon="11.905056662754033"><ele>850.0000000000001</ele><time>2026-05-04T13:58:33Z</time></trkpt><trkpt lat="43.700768891379084" lon="11.905124298122676"><ele>851.0</ele><time>2026-05-04T13:58:34Z</time></trkpt><trkpt lat="43.70067862616349" lon="11.905151422236482"><ele>851.0</ele><time>2026-05-04T13:58:35Z</time></trkpt><trkpt lat="43.70057180791429" lon="11.905161143136521"><ele>851.0</ele><time>2026-05-04T13:58:36Z</time></trkpt><trkpt lat="43.700457672983376" lon="11.905160993090863"><ele>851.0</ele><time>2026-05-04T13:58:37Z</time></trkpt><trkpt lat="43.70034345453366" lon="11.905177427881767"><ele>851.0</ele><time>2026-05-04T13:58:38Z</time></trkpt><trkpt lat="43.70021992085031" lon="11.905181473028927"><ele>848.25</ele><time>2026-05-04T13:58:39Z</time></trkpt><trkpt lat="43.70010374369336" lon="11.905182968180883"><ele>845.5</ele><time>2026-05-04T13:58:40Z</time></trkpt><trkpt lat="43.69998498365584" lon="11.905209752164797"><ele>842.75</ele><time>2026-05-04T13:58:41Z</time></trkpt><trkpt lat="43.69986685725708" lon="11.905223131411"><ele>840.0</ele><time>2026-05-04T13:58:42Z</time></trkpt><trkpt lat="43.69974982820842" lon="11.905240402329246"><ele>840.0</ele><time>2026-05-04T13:58:43Z</time></trkpt><trkpt lat="43.699637398267" lon="11.905254235309458"><ele>840.0</ele><time>2026-05-04T13:58:44Z</time></trkpt><trkpt lat="43.69952716708186" lon="11.905274737767161"><ele>840.0</ele><time>2026-05-04T13:58:45Z</time></trkpt><trkpt lat="43.69942260137739" lon="11.905317709404839"><ele>840.0</ele><time>2026-05-04T13:58:46Z</time></trkpt><trkpt lat="43.69932612568624" lon="11.905391568867786"><ele>840.0</ele><time>2026-05-04T13:58:47Z</time></trkpt><trkpt lat="43.69922819529587" lon="11.905481064053332"><ele>837.2</ele><time>2026-05-04T13:58:48Z</time></trkpt><trkpt lat="43.69913420562191" lon="11.905567875468778"><ele>834.4</ele><time>2026-05-04T13:58:49Z</time></trkpt><trkpt lat="43.69903144242218" lon="11.905631961968842"><ele>831.5999999999999</ele><time>2026-05-04T13:58:50Z</time></trkpt><trkpt lat="43.69892500623931" lon="11.905673742693159"><ele>828.8</ele><time>2026-05-04T13:58:51Z</time></trkpt><trkpt lat="43.69881979478456" lon="11.905707964697388"><ele>826.0</ele><time>2026-05-04T13:58:52Z</time></trkpt><trkpt lat="43.69874575476266" lon="11.90572720146565"><ele>825.9999999999999</ele><time>2026-05-04T13:58:53Z</time></trkpt><trkpt lat="43.69867733770196" lon="11.90571880308215"><ele>826.0</ele><time>2026-05-04T13:58:54Z</time></trkpt><trkpt lat="43.69862524818263" lon="11.905657431295205"><ele>826.0</ele><time>2026-05-04T13:58:55Z</time></trkpt><trkpt lat="43.69860372765158" lon="11.905559157796093"><ele>826.0</ele><time>2026-05-04T13:58:56Z</time></trkpt><trkpt lat="43.698619303487085" lon="11.90545873251704"><ele>825.9999999999999</ele><time>2026-05-04T13:58:57Z</time></trkpt><trkpt lat="43.69867328771392" lon="11.905389712995172"><ele>826.0</ele><time>2026-05-04T13:58:58Z</time></trkpt><trkpt lat="43.698761470174006" lon="11.90535718986891"><ele>826.0</ele><time>2026-05-04T13:58:59Z</time></trkpt><trkpt lat="43.698859411775956" lon="11.905390106161986"><ele>826.0</ele><time>2026-05-04T13:59:00Z</time></trkpt><trkpt lat="43.698958562248684" lon="11.905385463983272"><ele>826.0</ele><time>2026-05-04T13:59:01Z</time></trkpt><trkpt lat="43.69904578250182" lon="11.905355549777536"><ele>826.0</ele><time>2026-05-04T13:59:02Z</time></trkpt><trkpt lat="43.699115662835794" lon="11.905261831650467"><ele>826.0</ele><time>2026-05-04T13:59:03Z</time></trkpt><trkpt lat="43.69918576678528" lon="11.905120168521426"><ele>824.25</ele><time>2026-05-04T13:59:04Z</time></trkpt><trkpt lat="43.69925073638811" lon="11.904984975740913"><ele>822.5</ele><time>2026-05-04T13:59:05Z</time></trkpt><trkpt lat="43.69933955199078" lon="11.904876434648727"><ele>820.75</ele><time>2026-05-04T13:59:06Z</time></trkpt><trkpt lat="43.699458457095105" lon="11.90482006055888"><ele>819.0</ele><time>2026-05-04T13:59:07Z</time></trkpt><trkpt lat="43.69956970994517" lon="11.904741410216081"><ele>819.0</ele><time>2026-05-04T13:59:08Z</time></trkpt><trkpt lat="43.69969158276291" lon="11.90474182679109"><ele>819.0</ele><time>2026-05-04T13:59:09Z</time></trkpt><trkpt lat="43.69980651596368" lon="11.904708319309545"><ele>819.0</ele><time>2026-05-04T13:59:10Z</time></trkpt><trkpt lat="43.69990105678534" lon="11.904669017017158"><ele>819.0</ele><time>2026-05-04T13:59:11Z</time></trkpt><trkpt lat="43.69998894157767" lon="11.904564813690483"><ele>819.0</ele><time>2026-05-04T13:59:12Z</time></trkpt><trkpt lat="43.70007829614413" lon="11.904413130260327"><ele>819.0</ele><time>2026-05-04T13:59:13Z</time></trkpt><trkpt lat="43.70017866312544" lon="11.904256085403857"><ele>819.0</ele><time>2026-05-04T13:59:14Z</time></trkpt><trkpt lat="43.70027803316214" lon="11.904126886900862"><ele>819.0</ele><time>2026-05-04T13:59:15Z</time></trkpt><trkpt lat="43.700365207525415" lon="11.904024435460983"><ele>818.6</ele><time>2026-05-04T13:59:16Z</time></trkpt><trkpt lat="43.70042638732757" lon="11.903930434226897"><ele>818.2</ele><time>2026-05-04T13:59:17Z</time></trkpt><trkpt lat="43.700453415992015" lon="11.903824559504564"><ele>817.8000000000001</ele><time>2026-05-04T13:59:18Z</time></trkpt><trkpt lat="43.70045300060647" lon="11.903694555537287"><ele>817.4000000000001</ele><time>2026-05-04T13:59:19Z</time></trkpt><trkpt lat="43.70041111055493" lon="11.90354896812299"><ele>817.0</ele><time>2026-05-04T13:59:20Z</time></trkpt><trkpt lat="43.700341772834136" lon="11.903394158337893"><ele>813.5</ele><time>2026-05-04T13:59:21Z</time></trkpt><trkpt lat="43.70027685791731" lon="11.903236213036175"><ele>810.0</ele><time>2026-05-04T13:59:22Z</time></trkpt><trkpt lat="43.7002124597758" lon="11.903075157298796"><ele>806.5</ele><time>2026-05-04T13:59:23Z</time></trkpt><trkpt lat="43.70015310154226" lon="11.902922173918562"><ele>803.0</ele><time>2026-05-04T13:59:24Z</time></trkpt><trkpt lat="43.700107294465504" lon="11.902799395015116"><ele>801.0</ele><time>2026-05-04T13:59:25Z</time></trkpt><trkpt lat="43.7001041913807" lon="11.902658321667083"><ele>799.0</ele><time>2026-05-04T13:59:26Z</time></trkpt><trkpt lat="43.70011862570679" lon="11.902533867023282"><ele>797.0</ele><time>2026-05-04T13:59:27Z</time></trkpt><trkpt lat="43.70016836000821" lon="11.902438332107039"><ele>795.0</ele><time>2026-05-04T13:59:28Z</time></trkpt><trkpt lat="43.70022271517388" lon="11.902354251697336"><ele>793.0</ele><time>2026-05-04T13:59:29Z</time></trkpt><trkpt lat="43.70032041484121" lon="11.902346010370684"><ele>791.75</ele><time>2026-05-04T13:59:30Z</time></trkpt><trkpt lat="43.700420669536605" lon="11.902373538366518"><ele>790.5</ele><time>2026-05-04T13:59:31Z</time></trkpt><trkpt lat="43.700524797643084" lon="11.902413147109462"><ele>789.25</ele><time>2026-05-04T13:59:32Z</time></trkpt><trkpt lat="43.70062122096052" lon="11.9024939414072"><ele>788.0</ele><time>2026-05-04T13:59:33Z</time></trkpt><trkpt lat="43.700736096163766" lon="11.902574755989903"><ele>791.75</ele><time>2026-05-04T13:59:34Z</time></trkpt><trkpt lat="43.70083785409462" lon="11.902650359621719"><ele>795.5</ele><time>2026-05-04T13:59:35Z</time></trkpt><trkpt lat="43.70094989528021" lon="11.902677325430828"><ele>799.25</ele><time>2026-05-04T13:59:36Z</time></trkpt><trkpt lat="43.70107467750192" lon="11.902659146616962"><ele>803.0</ele><time>2026-05-04T13:59:37Z</time></trkpt><trkpt lat="43.70119777367578" lon="11.902601192494856"><ele>799.5</ele><time>2026-05-04T13:59:38Z</time></trkpt><trkpt lat="43.70131529847449" lon="11.902550551216953"><ele>796.0</ele><time>2026-05-04T13:59:39Z</time></trkpt><trkpt lat="43.70141024953105" lon="11.902422285009854"><ele>792.5</ele><time>2026-05-04T13:59:40Z</time></trkpt><trkpt lat="43.70150666649714" lon="11.902280812964744"><ele>789.0</ele><time>2026-05-04T13:59:41Z</time></trkpt><trkpt lat="43.70159386629553" lon="11.90212319015352"><ele>789.0</ele><time>2026-05-04T13:59:42Z</time></trkpt><trkpt lat="43.70167994328328" lon="11.901963958825583"><ele>789.0</ele><time>2026-05-04T13:59:43Z</time></trkpt><trkpt lat="43.701754827757064" lon="11.90181372302573"><ele>789.0</ele><time>2026-05-04T13:59:44Z</time></trkpt><trkpt lat="43.70181219571074" lon="11.901665074278355"><ele>789.0</ele><time>2026-05-04T13:59:45Z</time></trkpt><trkpt lat="43.701850101057104" lon="11.901529785384241"><ele>789.0</ele><time>2026-05-04T13:59:46Z</time></trkpt><trkpt lat="43.70189938088833" lon="11.901434424332255"><ele>789.0</ele><time>2026-05-04T13:59:47Z</time></trkpt><trkpt lat="43.70197662948004" lon="11.90137660656663"><ele>789.0</ele><time>2026-05-04T13:59:48Z</time></trkpt><trkpt lat="43.702085617836815" lon="11.90133469579125"><ele>789.0</ele><time>2026-05-04T13:59:49Z</time></trkpt><trkpt lat="43.70218441181448" lon="11.901286776419274"><ele>789.0</ele><time>2026-05-04T13:59:50Z</time></trkpt><trkpt lat="43.70226221423257" lon="11.901213246965133"><ele>789.0</ele><time>2026-05-04T13:59:51Z</time></trkpt><trkpt lat="43.70229438002945" lon="11.901047344029454"><ele>789.0</ele><time>2026-05-04T13:59:52Z</time></trkpt><trkpt lat="43.70230791128865" lon="11.90087235523139"><ele>789.0</ele><time>2026-05-04T13:59:53Z</time></trkpt><trkpt lat="43.70231889995174" lon="11.900692381064951"><ele>789.0</ele><time>2026-05-04T13:59:54Z</time></trkpt><trkpt lat="43.70234735553907" lon="11.900532577248878"><ele>786.5</ele><time>2026-05-04T13:59:55Z</time></trkpt><trkpt lat="43.702379856025" lon="11.900389574549068"><ele>784.0</ele><time>2026-05-04T13:59:56Z</time></trkpt><trkpt lat="43.70236763971683" lon="11.900245538712415"><ele>781.5</ele><time>2026-05-04T13:59:57Z</time></trkpt><trkpt lat="43.70233168346577" lon="11.90008692233453"><ele>779.0</ele><time>2026-05-04T13:59:58Z</time></trkpt><trkpt lat="43.70227974496091" lon="11.899931204031144"><ele>778.0</ele><time>2026-05-04T13:59:59Z</time></trkpt><trkpt lat="43.7022484492429" lon="11.899786719358161"><ele>777.0</ele><time>2026-05-04T14:00:00Z</time></trkpt><trkpt lat="43.702257168268794" lon="11.899635115067387"><ele>776.0</ele><time>2026-05-04T14:00:01Z</time></trkpt><trkpt lat="43.702321160575075" lon="11.899487219187197"><ele>775.0</ele><time>2026-05-04T14:00:02Z</time></trkpt><trkpt lat="43.702351632718965" lon="11.899287644127588"><ele>774.3333333333333</ele><time>2026-05-04T14:00:03Z</time></trkpt><trkpt lat="43.70231205854882" lon="11.89905140430453"><ele>773.6666666666667</ele><time>2026-05-04T14:00:04Z</time></trkpt><trkpt lat="43.70229841728687" lon="11.898841174743916"><ele>773.0</ele><time>2026-05-04T14:00:05Z</time></trkpt><trkpt lat="43.70229169817555" lon="11.898655883356652"><ele>773.0</ele><time>2026-05-04T14:00:06Z</time></trkpt><trkpt lat="43.70227297672911" lon="11.898492014638668"><ele>773.0</ele><time>2026-05-04T14:00:07Z</time></trkpt><trkpt lat="43.70221332854014" lon="11.898311382899342"><ele>773.0</ele><time>2026-05-04T14:00:08Z</time></trkpt><trkpt lat="43.70213655033791" lon="11.898117034406047"><ele>773.0</ele><time>2026-05-04T14:00:09Z</time></trkpt><trkpt lat="43.70209390038519" lon="11.897919816686871"><ele>772.6666666666667</ele><time>2026-05-04T14:00:10Z</time></trkpt><trkpt lat="43.702035415964055" lon="11.897733997082344"><ele>772.3333333333333</ele><time>2026-05-04T14:00:11Z</time></trkpt><trkpt lat="43.70200817788255" lon="11.897538482466592"><ele>772.0</ele><time>2026-05-04T14:00:12Z</time></trkpt><trkpt lat="43.7019921910991" lon="11.897314267680882"><ele>771.0</ele><time>2026-05-04T14:00:13Z</time></trkpt><trkpt lat="43.701972161443415" lon="11.89709008369645"><ele>770.0</ele><time>2026-05-04T14:00:14Z</time></trkpt><trkpt lat="43.7019545254683" lon="11.896885392219879"><ele>769.0</ele><time>2026-05-04T14:00:15Z</time></trkpt><trkpt lat="43.70194990862566" lon="11.89666155627116"><ele>767.75</ele><time>2026-05-04T14:00:16Z</time></trkpt><trkpt lat="43.701918783512454" lon="11.896461630273087"><ele>766.5</ele><time>2026-05-04T14:00:17Z</time></trkpt><trkpt lat="43.701917426555966" lon="11.89626914289022"><ele>765.25</ele><time>2026-05-04T14:00:18Z</time></trkpt><trkpt lat="43.701934182086866" lon="11.896080617604634"><ele>764.0</ele><time>2026-05-04T14:00:19Z</time></trkpt><trkpt lat="43.70198060939355" lon="11.895895374296805"><ele>762.0</ele><time>2026-05-04T14:00:20Z</time></trkpt><trkpt lat="43.701999086223964" lon="11.895723115780328"><ele>760.0</ele><time>2026-05-04T14:00:21Z</time></trkpt><trkpt lat="43.70202283648931" lon="11.895560289557686"><ele>758.0</ele><time>2026-05-04T14:00:22Z</time></trkpt><trkpt lat="43.70202333667216" lon="11.895399319160456"><ele>756.0</ele><time>2026-05-04T14:00:23Z</time></trkpt><trkpt lat="43.70199775384616" lon="11.895251925770554"><ele>756.0</ele><time>2026-05-04T14:00:24Z</time></trkpt><trkpt lat="43.70198388597253" lon="11.89510261931983"><ele>756.0</ele><time>2026-05-04T14:00:25Z</time></trkpt><trkpt lat="43.701993962506805" lon="11.894961955811818"><ele>756.0</ele><time>2026-05-04T14:00:26Z</time></trkpt><trkpt lat="43.70204338816202" lon="11.894831987484299"><ele>756.0</ele><time>2026-05-04T14:00:27Z</time></trkpt><trkpt lat="43.70207840657166" lon="11.894699841591004"><ele>756.0</ele><time>2026-05-04T14:00:28Z</time></trkpt><trkpt lat="43.7021015759404" lon="11.894563767799271"><ele>754.0</ele><time>2026-05-04T14:00:29Z</time></trkpt><trkpt lat="43.70214561900395" lon="11.894444166717408"><ele>752.0</ele><time>2026-05-04T14:00:30Z</time></trkpt><trkpt lat="43.702203309586075" lon="11.894331112852077"><ele>750.0</ele><time>2026-05-04T14:00:31Z</time></trkpt><trkpt lat="43.70227278454482" lon="11.894226458737753"><ele>748.0</ele><time>2026-05-04T14:00:32Z</time></trkpt><trkpt lat="43.702344446779186" lon="11.894132682955334"><ele>746.0</ele><time>2026-05-04T14:00:33Z</time></trkpt><trkpt lat="43.70240664058298" lon="11.894019337204336"><ele>743.5</ele><time>2026-05-04T14:00:34Z</time></trkpt><trkpt lat="43.70244364037196" lon="11.893877929143606"><ele>741.0</ele><time>2026-05-04T14:00:35Z</time></trkpt><trkpt lat="43.70246169524001" lon="11.893717684218332"><ele>738.5</ele><time>2026-05-04T14:00:36Z</time></trkpt><trkpt lat="43.702460980328375" lon="11.893542353281278"><ele>736.0</ele><time>2026-05-04T14:00:37Z</time></trkpt><trkpt lat="43.7024493063012" lon="11.89335988557962"><ele>734.75</ele><time>2026-05-04T14:00:38Z</time></trkpt><trkpt lat="43.70242227964728" lon="11.893176504159886"><ele>733.5</ele><time>2026-05-04T14:00:39Z</time></trkpt><trkpt lat="43.70238398495853" lon="11.893002252271692"><ele>732.25</ele><time>2026-05-04T14:00:40Z</time></trkpt><trkpt lat="43.7023422247937" lon="11.892827077916051"><ele>731.0</ele><time>2026-05-04T14:00:41Z</time></trkpt><trkpt lat="43.70233781128156" lon="11.892649468171832"><ele>729.75</ele><time>2026-05-04T14:00:42Z</time></trkpt><trkpt lat="43.702332112844275" lon="11.89247405350183"><ele>728.5</ele><time>2026-05-04T14:00:43Z</time></trkpt><trkpt lat="43.702340850837324" lon="11.89229075073891"><ele>727.25</ele><time>2026-05-04T14:00:44Z</time></trkpt><trkpt lat="43.702355275651186" lon="11.892111195545766"><ele>726.0</ele><time>2026-05-04T14:00:45Z</time></trkpt><trkpt lat="43.702385841868235" lon="11.891938871390133"><ele>726.0</ele><time>2026-05-04T14:00:46Z</time></trkpt><trkpt lat="43.70243511486285" lon="11.891778146059963"><ele>726.0</ele><time>2026-05-04T14:00:47Z</time></trkpt><trkpt lat="43.702503564530524" lon="11.891639489165113"><ele>726.0</ele><time>2026-05-04T14:00:48Z</time></trkpt><trkpt lat="43.70255615029951" lon="11.891493651694582"><ele>726.0</ele><time>2026-05-04T14:00:49Z</time></trkpt><trkpt lat="43.70260865769369" lon="11.8913726529224"><ele>725.8</ele><time>2026-05-04T14:00:50Z</time></trkpt><trkpt lat="43.702635062347326" lon="11.891247427523027"><ele>725.5999999999999</ele><time>2026-05-04T14:00:51Z</time></trkpt><trkpt lat="43.702634980824705" lon="11.891107630222978"><ele>725.4</ele><time>2026-05-04T14:00:52Z</time></trkpt><trkpt lat="43.70260543961354" lon="11.890970578592746"><ele>725.2</ele><time>2026-05-04T14:00:53Z</time></trkpt><trkpt lat="43.70256789722137" lon="11.890833354447492"><ele>725.0</ele><time>2026-05-04T14:00:54Z</time></trkpt><trkpt lat="43.70248794939257" lon="11.8907402428865"><ele>724.5</ele><time>2026-05-04T14:00:55Z</time></trkpt><trkpt lat="43.70242390663109" lon="11.890686566298854"><ele>724.0</ele><time>2026-05-04T14:00:56Z</time></trkpt><trkpt lat="43.7023518741623" lon="11.890633304351987"><ele>723.5</ele><time>2026-05-04T14:00:58Z</time></trkpt><trkpt lat="43.70228736894132" lon="11.890620653152558"><ele>723.0</ele><time>2026-05-04T14:01:00Z</time></trkpt><trkpt lat="43.702247545667944" lon="11.89053294533043"><ele>722.5</ele><time>2026-05-04T14:01:03Z</time></trkpt><trkpt lat="43.70215987348915" lon="11.890489722172978"><ele>722.0</ele><time>2026-05-04T14:01:06Z</time></trkpt><trkpt lat="43.70208458899051" lon="11.890478365673902"><ele>720.0</ele><time>2026-05-04T14:01:08Z</time></trkpt><trkpt lat="43.70211582343699" lon="11.890061424180082"><ele>718.0</ele><time>2026-05-04T14:01:09Z</time></trkpt><trkpt lat="43.7020859390084" lon="11.889981588633562"><ele>716.0</ele><time>2026-05-04T14:01:10Z</time></trkpt><trkpt lat="43.702053916955265" lon="11.889897351195199"><ele>714.0</ele><time>2026-05-04T14:01:11Z</time></trkpt><trkpt lat="43.70200580828229" lon="11.889749197715826"><ele>714.0</ele><time>2026-05-04T14:01:13Z</time></trkpt><trkpt lat="43.70202446817719" lon="11.889648688577067"><ele>714.0</ele><time>2026-05-04T14:01:15Z</time></trkpt><trkpt lat="43.702100057347636" lon="11.88961201644387"><ele>714.0</ele><time>2026-05-04T14:01:18Z</time></trkpt><trkpt lat="43.70218388587841" lon="11.889607601932555"><ele>714.0</ele><time>2026-05-04T14:01:21Z</time></trkpt><trkpt lat="43.70228137478513" lon="11.889574236355603"><ele>714.0</ele><time>2026-05-04T14:01:23Z</time></trkpt><trkpt lat="43.70234659160661" lon="11.889554629998258"><ele>714.0</ele><time>2026-05-04T14:01:25Z</time></trkpt><trkpt lat="43.70240902578244" lon="11.889526882578798"><ele>714.0</ele><time>2026-05-04T14:01:27Z</time></trkpt><trkpt lat="43.70250884485883" lon="11.889533676469288"><ele>714.0</ele><time>2026-05-04T14:01:29Z</time></trkpt><trkpt lat="43.70262021043731" lon="11.889545054449513"><ele>714.0</ele><time>2026-05-04T14:01:31Z</time></trkpt><trkpt lat="43.70271709902187" lon="11.889534729765142"><ele>714.0</ele><time>2026-05-04T14:01:33Z</time></trkpt><trkpt lat="43.70281570919132" lon="11.889543513712564"><ele>714.0</ele><time>2026-05-04T14:01:35Z</time></trkpt><trkpt lat="43.7029119392667" lon="11.889505880471681"><ele>710.5</ele><time>2026-05-04T14:01:37Z</time></trkpt><trkpt lat="43.70300962267829" lon="11.88943198850157"><ele>707.0</ele><time>2026-05-04T14:01:39Z</time></trkpt><trkpt lat="43.70308578850576" lon="11.889347878727992"><ele>703.5</ele><time>2026-05-04T14:01:41Z</time></trkpt><trkpt lat="43.703146647931796" lon="11.88919844149015"><ele>700.0</ele><time>2026-05-04T14:01:43Z</time></trkpt><trkpt lat="43.70323547676517" lon="11.889091787335698"><ele>699.0</ele><time>2026-05-04T14:01:45Z</time></trkpt><trkpt lat="43.70330512625981" lon="11.8890499237327"><ele>698.0</ele><time>2026-05-04T14:01:46Z</time></trkpt><trkpt lat="43.70335161536371" lon="11.888990102986545"><ele>697.0</ele><time>2026-05-04T14:01:47Z</time></trkpt><trkpt lat="43.70340549856051" lon="11.888923155567207"><ele>696.0</ele><time>2026-05-04T14:01:48Z</time></trkpt><trkpt lat="43.70345782762605" lon="11.888841028630383"><ele>695.0</ele><time>2026-05-04T14:01:49Z</time></trkpt><trkpt lat="43.70350513770526" lon="11.888761110259326"><ele>694.0</ele><time>2026-05-04T14:01:50Z</time></trkpt><trkpt lat="43.70354848426307" lon="11.888692887167279"><ele>693.0</ele><time>2026-05-04T14:01:51Z</time></trkpt><trkpt lat="43.70358646650217" lon="11.888614279058451"><ele>691.4</ele><time>2026-05-04T14:01:52Z</time></trkpt><trkpt lat="43.70363518520606" lon="11.888447658895783"><ele>689.8</ele><time>2026-05-04T14:01:54Z</time></trkpt><trkpt lat="43.70368392870476" lon="11.88828840421808"><ele>688.2</ele><time>2026-05-04T14:01:56Z</time></trkpt><trkpt lat="43.703712955350724" lon="11.888136018015418"><ele>686.6</ele><time>2026-05-04T14:01:58Z</time></trkpt><trkpt lat="43.70372811777684" lon="11.88803832534937"><ele>685.0</ele><time>2026-05-04T14:01:59Z</time></trkpt><trkpt lat="43.70375156248633" lon="11.887949436552283"><ele>684.0</ele><time>2026-05-04T14:02:00Z</time></trkpt><trkpt lat="43.703779293788024" lon="11.887796255890857"><ele>683.0</ele><time>2026-05-04T14:02:02Z</time></trkpt><trkpt lat="43.70382009796947" lon="11.887640059432629"><ele>682.0</ele><time>2026-05-04T14:02:04Z</time></trkpt><trkpt lat="43.70384582959086" lon="11.887556699634251"><ele>681.0</ele><time>2026-05-04T14:02:05Z</time></trkpt><trkpt lat="43.703879881427866" lon="11.887420383277313"><ele>680.0</ele><time>2026-05-04T14:02:07Z</time></trkpt><trkpt lat="43.7039201218041" lon="11.887262590318985"><ele>678.6666666666666</ele><time>2026-05-04T14:02:09Z</time></trkpt><trkpt lat="43.703955470287106" lon="11.887117908841205"><ele>677.3333333333333</ele><time>2026-05-04T14:02:11Z</time></trkpt><trkpt lat="43.70399359125148" lon="11.88697812215698"><ele>676.0</ele><time>2026-05-04T14:02:13Z</time></trkpt><trkpt lat="43.70401749821776" lon="11.886880965458241"><ele>674.6666666666666</ele><time>2026-05-04T14:02:15Z</time></trkpt><trkpt lat="43.70404107343726" lon="11.886787160778047"><ele>673.3333333333334</ele><time>2026-05-04T14:02:17Z</time></trkpt><trkpt lat="43.704065696923706" lon="11.886675329974963"><ele>672.0</ele><time>2026-05-04T14:02:19Z</time></trkpt><trkpt lat="43.704071716197184" lon="11.88656051976223"><ele>670.2</ele><time>2026-05-04T14:02:21Z</time></trkpt><trkpt lat="43.704071285623776" lon="11.886443285188417"><ele>668.4000000000001</ele><time>2026-05-04T14:02:23Z</time></trkpt><trkpt lat="43.704071237023584" lon="11.886318781291417"><ele>666.5999999999999</ele><time>2026-05-04T14:02:25Z</time></trkpt><trkpt lat="43.70404723757514" lon="11.886211324200385"><ele>664.8</ele><time>2026-05-04T14:02:27Z</time></trkpt><trkpt lat="43.70402085097618" lon="11.886077340713525"><ele>663.0</ele><time>2026-05-04T14:02:29Z</time></trkpt><trkpt lat="43.703973341027115" lon="11.885965871875959"><ele>661.0</ele><time>2026-05-04T14:02:31Z</time></trkpt><trkpt lat="43.70396502190318" lon="11.88582019935591"><ele>659.0</ele><time>2026-05-04T14:02:33Z</time></trkpt><trkpt lat="43.703956656502015" lon="11.88567123322885"><ele>657.0</ele><time>2026-05-04T14:02:35Z</time></trkpt><trkpt lat="43.70393757744166" lon="11.885542726807998"><ele>655.0</ele><time>2026-05-04T14:02:37Z</time></trkpt><trkpt lat="43.70391113100969" lon="11.885432007619183"><ele>653.0</ele><time>2026-05-04T14:02:39Z</time></trkpt><trkpt lat="43.703884822286476" lon="11.885342220377733"><ele>653.0</ele><time>2026-05-04T14:03:18Z</time></trkpt><trkpt lat="43.703868063060725" lon="11.8852436458842"><ele>653.0</ele><time>2026-05-04T14:03:21Z</time></trkpt><trkpt lat="43.703847527732336" lon="11.885121881523729"><ele>653.0</ele><time>2026-05-04T14:03:24Z</time></trkpt><trkpt lat="43.7038232832882" lon="11.885035101738865"><ele>653.0</ele><time>2026-05-04T14:03:26Z</time></trkpt><trkpt lat="43.70380450158684" lon="11.884941418419114"><ele>653.0</ele><time>2026-05-04T14:03:28Z</time></trkpt><trkpt lat="43.70376820166913" lon="11.884847095224584"><ele>653.0</ele><time>2026-05-04T14:03:31Z</time></trkpt><trkpt lat="43.70371664055163" lon="11.88475565920313"><ele>651.3333333333333</ele><time>2026-05-04T14:03:33Z</time></trkpt><trkpt lat="43.70366103382107" lon="11.884649578343758"><ele>649.6666666666666</ele><time>2026-05-04T14:03:35Z</time></trkpt><trkpt lat="43.70364696592211" lon="11.884556279877819"><ele>648.0</ele><time>2026-05-04T14:03:37Z</time></trkpt><trkpt lat="43.70361613566663" lon="11.884455167224003"><ele>646.3333333333334</ele><time>2026-05-04T14:03:39Z</time></trkpt><trkpt lat="43.70359176262491" lon="11.884340079026332"><ele>644.6666666666667</ele><time>2026-05-04T14:03:42Z</time></trkpt><trkpt lat="43.703609606072035" lon="11.884246548420967"><ele>643.0</ele><time>2026-05-04T14:03:44Z</time></trkpt><trkpt lat="43.70361804539982" lon="11.884115514597983"><ele>641.8333333333334</ele><time>2026-05-04T14:03:46Z</time></trkpt><trkpt lat="43.703623358881366" lon="11.88400861255199"><ele>640.6666666666667</ele><time>2026-05-04T14:03:48Z</time></trkpt><trkpt lat="43.70357821715484" lon="11.883932782558848"><ele>639.5</ele><time>2026-05-04T14:03:50Z</time></trkpt><trkpt lat="43.70353068613187" lon="11.883826781574232"><ele>638.3333333333334</ele><time>2026-05-04T14:03:52Z</time></trkpt><trkpt lat="43.70349365013034" lon="11.88371460038416"><ele>637.1666666666666</ele><time>2026-05-04T14:03:55Z</time></trkpt><trkpt lat="43.70347391201609" lon="11.88359827230209"><ele>636.0</ele><time>2026-05-04T14:03:57Z</time></trkpt><trkpt lat="43.70342700525954" lon="11.883492266519056"><ele>633.3333333333334</ele><time>2026-05-04T14:03:59Z</time></trkpt><trkpt lat="43.70339966762139" lon="11.883378576169836"><ele>630.6666666666666</ele><time>2026-05-04T14:04:01Z</time></trkpt><trkpt lat="43.703362271454935" lon="11.883303677474341"><ele>628.0</ele><time>2026-05-04T14:04:02Z</time></trkpt><trkpt lat="43.703299233244834" lon="11.88318458785707"><ele>625.3333333333333</ele><time>2026-05-04T14:04:04Z</time></trkpt><trkpt lat="43.703242749760165" lon="11.883078558527494"><ele>622.6666666666666</ele><time>2026-05-04T14:04:06Z</time></trkpt><trkpt lat="43.70317033904476" lon="11.883015997586488"><ele>620.0</ele><time>2026-05-04T14:04:08Z</time></trkpt><trkpt lat="43.70309178602636" lon="11.882936999846187"><ele>620.0</ele><time>2026-05-04T14:04:10Z</time></trkpt><trkpt lat="43.703056508486455" lon="11.882840598467778"><ele>620.0</ele><time>2026-05-04T14:04:12Z</time></trkpt><trkpt lat="43.70302040496521" lon="11.882708503742775"><ele>620.0</ele><time>2026-05-04T14:04:14Z</time></trkpt><trkpt lat="43.70300790240239" lon="11.882582283551685"><ele>620.0</ele><time>2026-05-04T14:04:16Z</time></trkpt><trkpt lat="43.70300527941935" lon="11.88244350403158"><ele>620.0</ele><time>2026-05-04T14:04:18Z</time></trkpt><trkpt lat="43.70301613577227" lon="11.882328543971356"><ele>618.8</ele><time>2026-05-04T14:04:20Z</time></trkpt><trkpt lat="43.70299195255033" lon="11.882209836088668"><ele>617.6</ele><time>2026-05-04T14:04:22Z</time></trkpt><trkpt lat="43.702961708300315" lon="11.882087618644325"><ele>616.4</ele><time>2026-05-04T14:04:24Z</time></trkpt><trkpt lat="43.702915672392976" lon="11.881953070853502"><ele>615.2</ele><time>2026-05-04T14:04:26Z</time></trkpt><trkpt lat="43.70287321559178" lon="11.881801237150366"><ele>614.0</ele><time>2026-05-04T14:04:28Z</time></trkpt><trkpt lat="43.70281759743607" lon="11.881676376504736"><ele>613.1666666666666</ele><time>2026-05-04T14:04:30Z</time></trkpt><trkpt lat="43.70277913539083" lon="11.881607259007238"><ele>612.3333333333333</ele><time>2026-05-04T14:04:32Z</time></trkpt><trkpt lat="43.70272042789067" lon="11.881493985935194"><ele>611.5</ele><time>2026-05-04T14:04:34Z</time></trkpt><trkpt lat="43.70267063492972" lon="11.88138698416228"><ele>610.6666666666666</ele><time>2026-05-04T14:04:36Z</time></trkpt><trkpt lat="43.70262137968072" lon="11.881285355499623"><ele>609.8333333333334</ele><time>2026-05-04T14:04:38Z</time></trkpt><trkpt lat="43.70256864187762" lon="11.881209312921484"><ele>609.0</ele><time>2026-05-04T14:04:40Z</time></trkpt><trkpt lat="43.70250033830247" lon="11.881122722094807"><ele>606.3333333333334</ele><time>2026-05-04T14:04:42Z</time></trkpt><trkpt lat="43.702447191587765" lon="11.881014893506693"><ele>603.6666666666666</ele><time>2026-05-04T14:04:44Z</time></trkpt><trkpt lat="43.70239461659309" lon="11.880888410653306"><ele>601.0</ele><time>2026-05-04T14:04:46Z</time></trkpt><trkpt lat="43.70235862718951" lon="11.880775340888182"><ele>598.3333333333333</ele><time>2026-05-04T14:04:48Z</time></trkpt><trkpt lat="43.70228796241125" lon="11.880720025854428"><ele>595.6666666666666</ele><time>2026-05-04T14:04:50Z</time></trkpt><trkpt lat="43.70223210188002" lon="11.880645408479774"><ele>593.0</ele><time>2026-05-04T14:04:52Z</time></trkpt><trkpt lat="43.70216083347356" lon="11.880572776510153"><ele>593.0</ele><time>2026-05-04T14:04:54Z</time></trkpt><trkpt lat="43.70209047972175" lon="11.88048610285348"><ele>593.0</ele><time>2026-05-04T14:04:56Z</time></trkpt><trkpt lat="43.70205066951536" lon="11.880380304699102"><ele>593.0</ele><time>2026-05-04T14:04:58Z</time></trkpt><trkpt lat="43.702028490093355" lon="11.880262538604756"><ele>593.0</ele><time>2026-05-04T14:05:00Z</time></trkpt><trkpt lat="43.701984787781" lon="11.880179418530135"><ele>593.0</ele><time>2026-05-04T14:05:01Z</time></trkpt><trkpt lat="43.70193099091906" lon="11.880047296172645"><ele>589.6</ele><time>2026-05-04T14:05:03Z</time></trkpt><trkpt lat="43.70188318341626" lon="11.87990573404853"><ele>586.1999999999999</ele><time>2026-05-04T14:05:05Z</time></trkpt><trkpt lat="43.70182416004764" lon="11.879780830001856"><ele>582.8</ele><time>2026-05-04T14:05:07Z</time></trkpt><trkpt lat="43.701775288098446" lon="11.879656282758594"><ele>579.4</ele><time>2026-05-04T14:05:09Z</time></trkpt><trkpt lat="43.70173913501468" lon="11.879584015656636"><ele>576.0</ele><time>2026-05-04T14:05:10Z</time></trkpt><trkpt lat="43.701692171853864" lon="11.879469501415587"><ele>576.0</ele><time>2026-05-04T14:05:12Z</time></trkpt><trkpt lat="43.701634605986186" lon="11.879373007491074"><ele>576.0</ele><time>2026-05-04T14:05:14Z</time></trkpt><trkpt lat="43.701600097567585" lon="11.879231625394652"><ele>576.0</ele><time>2026-05-04T14:05:16Z</time></trkpt><trkpt lat="43.70154344864703" lon="11.879124016501535"><ele>576.0</ele><time>2026-05-04T14:05:18Z</time></trkpt><trkpt lat="43.70149856321145" lon="11.878993292850673"><ele>576.0</ele><time>2026-05-04T14:05:20Z</time></trkpt><trkpt lat="43.701454028464234" lon="11.878885207591903"><ele>575.8</ele><time>2026-05-04T14:05:22Z</time></trkpt><trkpt lat="43.7014181487357" lon="11.878756011693962"><ele>575.6</ele><time>2026-05-04T14:05:24Z</time></trkpt><trkpt lat="43.70139832104231" lon="11.878624293657461"><ele>575.4</ele><time>2026-05-04T14:05:26Z</time></trkpt><trkpt lat="43.70137733744451" lon="11.878493567440827"><ele>575.2</ele><time>2026-05-04T14:05:28Z</time></trkpt><trkpt lat="43.70136281729143" lon="11.87840539887618"><ele>575.0</ele><time>2026-05-04T14:05:29Z</time></trkpt><trkpt lat="43.70137785670413" lon="11.878272116099332"><ele>573.0</ele><time>2026-05-04T14:05:31Z</time></trkpt><trkpt lat="43.701361071939814" lon="11.878096482202386"><ele>571.0</ele><time>2026-05-04T14:05:33Z</time></trkpt><trkpt lat="43.70136156695796" lon="11.877944667046707"><ele>569.0</ele><time>2026-05-04T14:05:35Z</time></trkpt><trkpt lat="43.70135197754045" lon="11.877785880744591"><ele>567.0</ele><time>2026-05-04T14:05:37Z</time></trkpt><trkpt lat="43.70135238957909" lon="11.87761504069473"><ele>565.3333333333334</ele><time>2026-05-04T14:05:39Z</time></trkpt><trkpt lat="43.70135287252377" lon="11.877454184343108"><ele>563.6666666666666</ele><time>2026-05-04T14:05:41Z</time></trkpt><trkpt lat="43.70137170831165" lon="11.877350652829474"><ele>562.0</ele><time>2026-05-04T14:05:43Z</time></trkpt><trkpt lat="43.70138904307793" lon="11.87724641029225"><ele>560.3333333333333</ele><time>2026-05-04T14:05:45Z</time></trkpt><trkpt lat="43.70144035102886" lon="11.877138607796555"><ele>558.6666666666666</ele><time>2026-05-04T14:05:47Z</time></trkpt><trkpt lat="43.701456645697085" lon="11.87704278285763"><ele>557.0</ele><time>2026-05-04T14:05:49Z</time></trkpt><trkpt lat="43.7014164404352" lon="11.87693252204801"><ele>557.0</ele><time>2026-05-04T14:05:51Z</time></trkpt><trkpt lat="43.70135384974556" lon="11.876817388897384"><ele>557.0</ele><time>2026-05-04T14:05:53Z</time></trkpt><trkpt lat="43.70142384939932" lon="11.876666861590827"><ele>557.0</ele><time>2026-05-04T14:05:54Z</time></trkpt><trkpt lat="43.70137184199351" lon="11.876600592686875"><ele>557.0</ele><time>2026-05-04T14:05:59Z</time></trkpt><trkpt lat="43.7013269143831" lon="11.876502786269317"><ele>557.0</ele><time>2026-05-04T14:06:02Z</time></trkpt><trkpt lat="43.70128862697175" lon="11.876408916159924"><ele>555.8333333333333</ele><time>2026-05-04T14:06:04Z</time></trkpt><trkpt lat="43.70126778224416" lon="11.876275221672538"><ele>554.6666666666666</ele><time>2026-05-04T14:06:06Z</time></trkpt><trkpt lat="43.70129802257614" lon="11.876129978901886"><ele>553.5</ele><time>2026-05-04T14:06:08Z</time></trkpt><trkpt lat="43.70131066473427" lon="11.876036320414196"><ele>552.3333333333334</ele><time>2026-05-04T14:06:09Z</time></trkpt><trkpt lat="43.70132576684787" lon="11.875937940961958"><ele>551.1666666666667</ele><time>2026-05-04T14:06:10Z</time></trkpt><trkpt lat="43.70133084928043" lon="11.875823461883657"><ele>550.0</ele><time>2026-05-04T14:06:11Z</time></trkpt><trkpt lat="43.70132604928544" lon="11.875711861473759"><ele>548.0</ele><time>2026-05-04T14:06:12Z</time></trkpt><trkpt lat="43.70132604929209" lon="11.875600176570988"><ele>546.0</ele><time>2026-05-04T14:06:13Z</time></trkpt><trkpt lat="43.70133140458186" lon="11.875496249065248"><ele>544.0</ele><time>2026-05-04T14:06:14Z</time></trkpt><trkpt lat="43.70133732332406" lon="11.875388208303523"><ele>542.0</ele><time>2026-05-04T14:06:15Z</time></trkpt><trkpt lat="43.70134472333008" lon="11.875289668573005"><ele>540.0</ele><time>2026-05-04T14:06:16Z</time></trkpt><trkpt lat="43.70134989275579" lon="11.875181375331925"><ele>538.0</ele><time>2026-05-04T14:06:17Z</time></trkpt><trkpt lat="43.70134764467644" lon="11.875015029991552"><ele>536.1666666666667</ele><time>2026-05-04T14:06:19Z</time></trkpt><trkpt lat="43.70133222541726" lon="11.874916404545449"><ele>534.3333333333334</ele><time>2026-05-04T14:06:20Z</time></trkpt><trkpt lat="43.701308754056086" lon="11.87481596167199"><ele>532.5</ele><time>2026-05-04T14:06:21Z</time></trkpt><trkpt lat="43.70127348865274" lon="11.874701375521383"><ele>530.6666666666666</ele><time>2026-05-04T14:06:22Z</time></trkpt><trkpt lat="43.70122988414906" lon="11.874608237057297"><ele>528.8333333333333</ele><time>2026-05-04T14:06:23Z</time></trkpt><trkpt lat="43.70120033699822" lon="11.874491645538203"><ele>527.0</ele><time>2026-05-04T14:06:24Z</time></trkpt><trkpt lat="43.70115751286489" lon="11.874381095115483"><ele>527.0</ele><time>2026-05-04T14:06:25Z</time></trkpt><trkpt lat="43.70111670036789" lon="11.874288644379535"><ele>527.0</ele><time>2026-05-04T14:06:26Z</time></trkpt><trkpt lat="43.70110304933322" lon="11.874123532644148"><ele>527.0</ele><time>2026-05-04T14:06:28Z</time></trkpt><trkpt lat="43.701129880079606" lon="11.87404086211836"><ele>527.0</ele><time>2026-05-04T14:06:29Z</time></trkpt><trkpt lat="43.70112436635818" lon="11.87394082605569"><ele>527.0</ele><time>2026-05-04T14:06:30Z</time></trkpt><trkpt lat="43.70104292943834" lon="11.873873672688562"><ele>527.0</ele><time>2026-05-04T14:06:31Z</time></trkpt><trkpt lat="43.700969146649406" lon="11.873799262657288"><ele>526.1666666666666</ele><time>2026-05-04T14:06:32Z</time></trkpt><trkpt lat="43.7009259895423" lon="11.873691785846724"><ele>525.3333333333333</ele><time>2026-05-04T14:06:33Z</time></trkpt><trkpt lat="43.70089288334588" lon="11.873605347248304"><ele>524.5</ele><time>2026-05-04T14:06:34Z</time></trkpt><trkpt lat="43.70087233923016" lon="11.873505838594667"><ele>523.6666666666666</ele><time>2026-05-04T14:06:35Z</time></trkpt><trkpt lat="43.70085489378802" lon="11.87339324791614"><ele>522.8333333333334</ele><time>2026-05-04T14:06:36Z</time></trkpt><trkpt lat="43.70082124402847" lon="11.873295798459335"><ele>522.0</ele><time>2026-05-04T14:06:37Z</time></trkpt><trkpt lat="43.70080100145501" lon="11.873174048211455"><ele>521.1666666666666</ele><time>2026-05-04T14:06:38Z</time></trkpt><trkpt lat="43.70078639836935" lon="11.873045186137071"><ele>520.3333333333334</ele><time>2026-05-04T14:06:39Z</time></trkpt><trkpt lat="43.70079431703141" lon="11.872923932437542"><ele>519.5</ele><time>2026-05-04T14:06:40Z</time></trkpt><trkpt lat="43.70079761086685" lon="11.87281695553862"><ele>518.6666666666667</ele><time>2026-05-04T14:06:41Z</time></trkpt><trkpt lat="43.700807990196864" lon="11.872714822185205"><ele>517.8333333333334</ele><time>2026-05-04T14:06:42Z</time></trkpt><trkpt lat="43.700829883961774" lon="11.872593340433047"><ele>517.0</ele><time>2026-05-04T14:06:43Z</time></trkpt><trkpt lat="43.70083921418164" lon="11.872491778020912"><ele>516.0</ele><time>2026-05-04T14:06:44Z</time></trkpt><trkpt lat="43.70086912351582" lon="11.872392507076007"><ele>515.0</ele><time>2026-05-04T14:06:45Z</time></trkpt><trkpt lat="43.70088993293537" lon="11.872310314713664"><ele>514.0</ele><time>2026-05-04T14:06:46Z</time></trkpt><trkpt lat="43.70091582750886" lon="11.872191149512798"><ele>513.0</ele><time>2026-05-04T14:06:48Z</time></trkpt><trkpt lat="43.70088152541199" lon="11.872075936660012"><ele>512.0</ele><time>2026-05-04T14:06:50Z</time></trkpt><trkpt lat="43.70081716415804" lon="11.872044896875785"><ele>511.0</ele><time>2026-05-04T14:06:51Z</time></trkpt><trkpt lat="43.70075324489857" lon="11.87203184607706"><ele>511.00000000000006</ele><time>2026-05-04T14:06:52Z</time></trkpt><trkpt lat="43.70069552065671" lon="11.871992548515793"><ele>511.0</ele><time>2026-05-04T14:06:53Z</time></trkpt><trkpt lat="43.70063083443059" lon="11.871943208555903"><ele>511.0</ele><time>2026-05-04T14:06:54Z</time></trkpt><trkpt lat="43.70057375790898" lon="11.871898337891277"><ele>511.0</ele><time>2026-05-04T14:06:55Z</time></trkpt><trkpt lat="43.700497180460935" lon="11.871861215243054"><ele>511.00000000000006</ele><time>2026-05-04T14:06:56Z</time></trkpt><trkpt lat="43.700434955976604" lon="11.871799239532569"><ele>511.0</ele><time>2026-05-04T14:06:57Z</time></trkpt><trkpt lat="43.700357112069234" lon="11.871738079631259"><ele>509.33333333333337</ele><time>2026-05-04T14:06:58Z</time></trkpt><trkpt lat="43.70029368300789" lon="11.871663568681035"><ele>507.6666666666667</ele><time>2026-05-04T14:06:59Z</time></trkpt><trkpt lat="43.70021781842787" lon="11.871597783075073"><ele>506.0</ele><time>2026-05-04T14:07:00Z</time></trkpt><trkpt lat="43.700153497684816" lon="11.871540028345013"><ele>504.33333333333337</ele><time>2026-05-04T14:07:01Z</time></trkpt><trkpt lat="43.70008515453881" lon="11.871471048502238"><ele>502.6666666666667</ele><time>2026-05-04T14:07:02Z</time></trkpt><trkpt lat="43.700022291542815" lon="11.871396291371282"><ele>501.0</ele><time>2026-05-04T14:07:03Z</time></trkpt><trkpt lat="43.699966536155145" lon="11.8713311665046"><ele>500.0</ele><time>2026-05-04T14:07:04Z</time></trkpt><trkpt lat="43.699898053263425" lon="11.871289576139691"><ele>499.0</ele><time>2026-05-04T14:07:05Z</time></trkpt><trkpt lat="43.69984387766885" lon="11.871233923078046"><ele>498.0</ele><time>2026-05-04T14:07:06Z</time></trkpt><trkpt lat="43.69971740206788" lon="11.87119623473681"><ele>497.0</ele><time>2026-05-04T14:07:08Z</time></trkpt><trkpt lat="43.699638931104566" lon="11.871212572933887"><ele>496.0</ele><time>2026-05-04T14:07:09Z</time></trkpt><trkpt lat="43.69955413346333" lon="11.871240948761086"><ele>495.0</ele><time>2026-05-04T14:07:10Z</time></trkpt><trkpt lat="43.69946620019176" lon="11.871234490314933"><ele>494.99999999999994</ele><time>2026-05-04T14:07:11Z</time></trkpt><trkpt lat="43.699382071391646" lon="11.871236941998594"><ele>495.0</ele><time>2026-05-04T14:07:12Z</time></trkpt><trkpt lat="43.69931642200357" lon="11.871231998325392"><ele>494.99999999999994</ele><time>2026-05-04T14:07:13Z</time></trkpt><trkpt lat="43.69924837365084" lon="11.871215144264529"><ele>494.99999999999994</ele><time>2026-05-04T14:07:14Z</time></trkpt><trkpt lat="43.69918614605868" lon="11.871178423708772"><ele>495.0</ele><time>2026-05-04T14:07:15Z</time></trkpt><trkpt lat="43.69911967740757" lon="11.871139651584265"><ele>494.99999999999994</ele><time>2026-05-04T14:07:16Z</time></trkpt><trkpt lat="43.69905082922275" lon="11.871062842712638"><ele>494.99999999999994</ele><time>2026-05-04T14:07:17Z</time></trkpt><trkpt lat="43.69900250859222" lon="11.870968078713247"><ele>491.8</ele><time>2026-05-04T14:07:18Z</time></trkpt><trkpt lat="43.69895218786299" lon="11.870885264192465"><ele>488.6</ele><time>2026-05-04T14:07:19Z</time></trkpt><trkpt lat="43.69889905272333" lon="11.870779094150022"><ele>485.4</ele><time>2026-05-04T14:07:20Z</time></trkpt><trkpt lat="43.69882953328566" lon="11.870679277474716"><ele>482.2</ele><time>2026-05-04T14:07:21Z</time></trkpt><trkpt lat="43.698774561314224" lon="11.870556889195669"><ele>479.0</ele><time>2026-05-04T14:07:22Z</time></trkpt><trkpt lat="43.698720282541956" lon="11.870446988184737"><ele>479.0</ele><time>2026-05-04T14:07:23Z</time></trkpt><trkpt lat="43.69867886327401" lon="11.870359850427302"><ele>479.0</ele><time>2026-05-04T14:07:24Z</time></trkpt><trkpt lat="43.69861120251094" lon="11.870227427825148"><ele>479.0</ele><time>2026-05-04T14:07:26Z</time></trkpt><trkpt lat="43.69852872085898" lon="11.870098073128982"><ele>479.0</ele><time>2026-05-04T14:07:28Z</time></trkpt><trkpt lat="43.69849691306753" lon="11.870008669412682"><ele>479.0</ele><time>2026-05-04T14:07:29Z</time></trkpt><trkpt lat="43.69845149628518" lon="11.869927928454707"><ele>478.3333333333333</ele><time>2026-05-04T14:07:30Z</time></trkpt><trkpt lat="43.69840353128067" lon="11.869812957487095"><ele>477.66666666666663</ele><time>2026-05-04T14:07:32Z</time></trkpt><trkpt lat="43.69842318427401" lon="11.869701687672528"><ele>477.0</ele><time>2026-05-04T14:07:34Z</time></trkpt><trkpt lat="43.69843793220967" lon="11.869585675098731"><ele>476.33333333333337</ele><time>2026-05-04T14:07:36Z</time></trkpt><trkpt lat="43.6984670617925" lon="11.869477581688272"><ele>475.6666666666667</ele><time>2026-05-04T14:07:37Z</time></trkpt><trkpt lat="43.6984997666278" lon="11.86934490507973"><ele>475.0</ele><time>2026-05-04T14:07:38Z</time></trkpt><trkpt lat="43.6985280362222" lon="11.869224591053225"><ele>473.7142857142857</ele><time>2026-05-04T14:07:39Z</time></trkpt><trkpt lat="43.69856788805431" lon="11.869118983103636"><ele>472.42857142857144</ele><time>2026-05-04T14:07:40Z</time></trkpt><trkpt lat="43.69858671633491" lon="11.869024713146409"><ele>471.14285714285717</ele><time>2026-05-04T14:07:41Z</time></trkpt><trkpt lat="43.698591494080894" lon="11.86892794293011"><ele>469.8571428571429</ele><time>2026-05-04T14:07:42Z</time></trkpt><trkpt lat="43.698552647401435" lon="11.868835086473569"><ele>468.57142857142856</ele><time>2026-05-04T14:07:43Z</time></trkpt><trkpt lat="43.698558024526506" lon="11.868730735106828"><ele>467.28571428571433</ele><time>2026-05-04T14:07:44Z</time></trkpt><trkpt lat="43.698550311759085" lon="11.868635683029483"><ele>466.0</ele><time>2026-05-04T14:07:45Z</time></trkpt><trkpt lat="43.69856065194031" lon="11.868467418682805"><ele>464.1666666666667</ele><time>2026-05-04T14:07:47Z</time></trkpt><trkpt lat="43.69859141307635" lon="11.868362120697475"><ele>462.33333333333337</ele><time>2026-05-04T14:07:48Z</time></trkpt><trkpt lat="43.698630416362185" lon="11.8682617681997"><ele>460.5</ele><time>2026-05-04T14:07:49Z</time></trkpt><trkpt lat="43.6986643287058" lon="11.868171686835689"><ele>458.66666666666663</ele><time>2026-05-04T14:07:50Z</time></trkpt><trkpt lat="43.69868118957948" lon="11.868068240195333"><ele>456.8333333333333</ele><time>2026-05-04T14:07:51Z</time></trkpt><trkpt lat="43.698723609880986" lon="11.867993655165295"><ele>455.0</ele><time>2026-05-04T14:07:52Z</time></trkpt><trkpt lat="43.698792137657406" lon="11.867869838571021"><ele>455.0</ele><time>2026-05-04T14:07:54Z</time></trkpt><trkpt lat="43.69887052347698" lon="11.867748547627965"><ele>455.0</ele><time>2026-05-04T14:07:56Z</time></trkpt><trkpt lat="43.69897398326198" lon="11.867634415695193"><ele>455.0</ele><time>2026-05-04T14:07:58Z</time></trkpt><trkpt lat="43.69898028309116" lon="11.867438997791162"><ele>455.0</ele><time>2026-05-04T14:08:00Z</time></trkpt><trkpt lat="43.698995747849004" lon="11.86732782250014"><ele>452.3333333333333</ele><time>2026-05-04T14:08:01Z</time></trkpt><trkpt lat="43.698992949550295" lon="11.867213286424585"><ele>449.66666666666663</ele><time>2026-05-04T14:08:02Z</time></trkpt><trkpt lat="43.69901568526443" lon="11.867088550043357"><ele>447.0</ele><time>2026-05-04T14:08:03Z</time></trkpt><trkpt lat="43.69905430636881" lon="11.866992249837773"><ele>444.33333333333337</ele><time>2026-05-04T14:08:04Z</time></trkpt><trkpt lat="43.699070727843456" lon="11.866878314562816"><ele>441.6666666666667</ele><time>2026-05-04T14:08:05Z</time></trkpt><trkpt lat="43.69907442612148" lon="11.866774369557286"><ele>439.0</ele><time>2026-05-04T14:08:06Z</time></trkpt><trkpt lat="43.69905200055526" lon="11.86665516414393"><ele>437.50000000000006</ele><time>2026-05-04T14:08:07Z</time></trkpt><trkpt lat="43.69905283098314" lon="11.866538689329591"><ele>436.0</ele><time>2026-05-04T14:08:08Z</time></trkpt><trkpt lat="43.69903635772374" lon="11.866410302928188"><ele>434.5</ele><time>2026-05-04T14:08:09Z</time></trkpt><trkpt lat="43.69903564957018" lon="11.866319055755552"><ele>433.0</ele><time>2026-05-04T14:08:10Z</time></trkpt><trkpt lat="43.699045582546866" lon="11.866225207921905"><ele>431.50000000000006</ele><time>2026-05-04T14:08:11Z</time></trkpt><trkpt lat="43.699059023926296" lon="11.866103837493702"><ele>430.0</ele><time>2026-05-04T14:08:12Z</time></trkpt><trkpt lat="43.69905536142959" lon="11.865971520987108"><ele>429.1666666666667</ele><time>2026-05-04T14:08:13Z</time></trkpt><trkpt lat="43.69905921338015" lon="11.86586499184147"><ele>428.33333333333337</ele><time>2026-05-04T14:08:14Z</time></trkpt><trkpt lat="43.69907185100914" lon="11.865754961335107"><ele>427.5</ele><time>2026-05-04T14:08:15Z</time></trkpt><trkpt lat="43.699092280403846" lon="11.865656697464265"><ele>426.66666666666663</ele><time>2026-05-04T14:08:16Z</time></trkpt><trkpt lat="43.69910188767337" lon="11.865558478978349"><ele>425.8333333333333</ele><time>2026-05-04T14:08:17Z</time></trkpt><trkpt lat="43.69910080394966" lon="11.865458813655378"><ele>425.0</ele><time>2026-05-04T14:08:18Z</time></trkpt><trkpt lat="43.69911095283486" lon="11.865354324812749"><ele>425.0</ele><time>2026-05-04T14:08:19Z</time></trkpt><trkpt lat="43.69912197182774" lon="11.865225163981476"><ele>425.0</ele><time>2026-05-04T14:08:20Z</time></trkpt><trkpt lat="43.69913304209891" lon="11.865081355036065"><ele>425.0</ele><time>2026-05-04T14:08:21Z</time></trkpt><trkpt lat="43.69914739889523" lon="11.864943689626717"><ele>425.0</ele><time>2026-05-04T14:08:22Z</time></trkpt><trkpt lat="43.69915559831338" lon="11.86482403640633"><ele>425.0</ele><time>2026-05-04T14:08:23Z</time></trkpt><trkpt lat="43.69916618092729" lon="11.864726908738904"><ele>423.0</ele><time>2026-05-04T14:08:24Z</time></trkpt><trkpt lat="43.69918753107253" lon="11.864571247156318"><ele>421.0</ele><time>2026-05-04T14:08:26Z</time></trkpt><trkpt lat="43.69923446547176" lon="11.864419336630306"><ele>419.0</ele><time>2026-05-04T14:08:28Z</time></trkpt><trkpt lat="43.699260968900035" lon="11.864324598594715"><ele>417.0</ele><time>2026-05-04T14:08:29Z</time></trkpt><trkpt lat="43.6992576072638" lon="11.864225235209542"><ele>415.0</ele><time>2026-05-04T14:08:30Z</time></trkpt><trkpt lat="43.69927014322412" lon="11.864110748658002"><ele>412.8</ele><time>2026-05-04T14:08:31Z</time></trkpt><trkpt lat="43.69923889260829" lon="11.864011005481801"><ele>410.6</ele><time>2026-05-04T14:08:32Z</time></trkpt><trkpt lat="43.69915907188484" lon="11.863968957643515"><ele>408.4</ele><time>2026-05-04T14:08:33Z</time></trkpt><trkpt lat="43.699104263561146" lon="11.863907482905123"><ele>406.2</ele><time>2026-05-04T14:08:34Z</time></trkpt><trkpt lat="43.69905253755192" lon="11.863826699411664"><ele>404.0</ele><time>2026-05-04T14:08:35Z</time></trkpt><trkpt lat="43.69896299563596" lon="11.863673434170295"><ele>403.99999999999994</ele><time>2026-05-04T14:08:37Z</time></trkpt><trkpt lat="43.69891964555593" lon="11.863581204633446"><ele>404.0</ele><time>2026-05-04T14:08:38Z</time></trkpt><trkpt lat="43.69885725058804" lon="11.86350518805492"><ele>404.0</ele><time>2026-05-04T14:08:39Z</time></trkpt><trkpt lat="43.698790221928206" lon="11.863436501823138"><ele>404.0</ele><time>2026-05-04T14:08:40Z</time></trkpt><trkpt lat="43.69872893757038" lon="11.863357836398576"><ele>403.99999999999994</ele><time>2026-05-04T14:08:41Z</time></trkpt><trkpt lat="43.698672658284615" lon="11.863286505513884"><ele>404.0</ele><time>2026-05-04T14:08:42Z</time></trkpt><trkpt lat="43.69861403650227" lon="11.863212205260226"><ele>401.66666666666663</ele><time>2026-05-04T14:08:43Z</time></trkpt><trkpt lat="43.6985639605608" lon="11.863150665515981"><ele>399.3333333333333</ele><time>2026-05-04T14:08:44Z</time></trkpt><trkpt lat="43.69851539723934" lon="11.863091426355261"><ele>397.0</ele><time>2026-05-04T14:08:45Z</time></trkpt><trkpt lat="43.698441308051535" lon="11.86303887135464"><ele>394.66666666666663</ele><time>2026-05-04T14:08:46Z</time></trkpt><trkpt lat="43.69837311632735" lon="11.862976187196299"><ele>392.3333333333333</ele><time>2026-05-04T14:08:47Z</time></trkpt><trkpt lat="43.6982511138753" lon="11.862901366546938"><ele>390.0</ele><time>2026-05-04T14:08:49Z</time></trkpt><trkpt lat="43.69818315578392" lon="11.862854463422222"><ele>390.0</ele><time>2026-05-04T14:08:50Z</time></trkpt><trkpt lat="43.69806783271392" lon="11.862759516603427"><ele>390.0</ele><time>2026-05-04T14:08:52Z</time></trkpt><trkpt lat="43.69800298044081" lon="11.862699433724014"><ele>390.0</ele><time>2026-05-04T14:08:53Z</time></trkpt><trkpt lat="43.69794898277061" lon="11.86263477279831"><ele>390.0</ele><time>2026-05-04T14:08:54Z</time></trkpt><trkpt lat="43.697866825091246" lon="11.862519146245024"><ele>390.0</ele><time>2026-05-04T14:08:56Z</time></trkpt><trkpt lat="43.697772297970246" lon="11.862426148755263"><ele>387.6666666666667</ele><time>2026-05-04T14:08:58Z</time></trkpt><trkpt lat="43.697720460646984" lon="11.862318999310249"><ele>385.3333333333333</ele><time>2026-05-04T14:09:00Z</time></trkpt><trkpt lat="43.697693862069805" lon="11.862190865141196"><ele>383.0</ele><time>2026-05-04T14:09:02Z</time></trkpt><trkpt lat="43.697682899938464" lon="11.862101333775755"><ele>380.66666666666663</ele><time>2026-05-04T14:09:04Z</time></trkpt><trkpt lat="43.697696692411" lon="11.862004064308815"><ele>378.3333333333333</ele><time>2026-05-04T14:09:07Z</time></trkpt><trkpt lat="43.69777413277717" lon="11.86203080978729"><ele>376.0</ele><time>2026-05-04T14:09:10Z</time></trkpt><trkpt lat="43.697907713148844" lon="11.862049030190596"><ele>376.0</ele><time>2026-05-04T14:09:12Z</time></trkpt><trkpt lat="43.69801574892222" lon="11.862056650558067"><ele>376.0</ele><time>2026-05-04T14:09:14Z</time></trkpt><trkpt lat="43.6980878287059" lon="11.861959165524551"><ele>376.0</ele><time>2026-05-04T14:09:16Z</time></trkpt><trkpt lat="43.698088786049595" lon="11.861866766104278"><ele>376.0</ele><time>2026-05-04T14:09:17Z</time></trkpt><trkpt lat="43.6981178301421" lon="11.861761930337234"><ele>376.0</ele><time>2026-05-04T14:09:19Z</time></trkpt><trkpt lat="43.69814020533474" lon="11.861669772416391"><ele>376.0</ele><time>2026-05-04T14:09:23Z</time></trkpt><trkpt lat="43.698166612313436" lon="11.861566129454232"><ele>373.0</ele><time>2026-05-04T14:09:25Z</time></trkpt><trkpt lat="43.69819374918006" lon="11.861457979263697"><ele>370.0</ele><time>2026-05-04T14:09:27Z</time></trkpt><trkpt lat="43.698227154079625" lon="11.861323036577993"><ele>367.0</ele><time>2026-05-04T14:09:29Z</time></trkpt><trkpt lat="43.698267890294666" lon="11.861158477974989"><ele>364.0</ele><time>2026-05-04T14:09:31Z</time></trkpt><trkpt lat="43.698304335960415" lon="11.861011251540196"><ele>361.0</ele><time>2026-05-04T14:09:33Z</time></trkpt><trkpt lat="43.69833904801087" lon="11.86088139565995"><ele>360.4</ele><time>2026-05-04T14:09:35Z</time></trkpt><trkpt lat="43.6983639655358" lon="11.860792309248941"><ele>359.8</ele><time>2026-05-04T14:09:38Z</time></trkpt><trkpt lat="43.69847471166243" lon="11.860803552842471"><ele>359.2</ele><time>2026-05-04T14:09:43Z</time></trkpt><trkpt lat="43.69840306399014" lon="11.860702269851876"><ele>358.59999999999997</ele><time>2026-05-04T14:09:45Z</time></trkpt><trkpt lat="43.69838436083942" lon="11.86059011684314"><ele>358.0</ele><time>2026-05-04T14:09:47Z</time></trkpt><trkpt lat="43.698464317111345" lon="11.860447751334142"><ele>358.0</ele><time>2026-05-04T14:09:49Z</time></trkpt><trkpt lat="43.698487342332456" lon="11.860351817639108"><ele>358.0</ele><time>2026-05-04T14:09:50Z</time></trkpt><trkpt lat="43.69849844365712" lon="11.860256936018509"><ele>358.0</ele><time>2026-05-04T14:09:51Z</time></trkpt><trkpt lat="43.698520237291326" lon="11.860156651044639"><ele>358.0</ele><time>2026-05-04T14:09:52Z</time></trkpt><trkpt lat="43.69855563506054" lon="11.860067278364404"><ele>358.0</ele><time>2026-05-04T14:09:53Z</time></trkpt><trkpt lat="43.69858227868046" lon="11.859956268762591"><ele>358.0</ele><time>2026-05-04T14:09:54Z</time></trkpt><trkpt lat="43.69861248708992" lon="11.85983040597747"><ele>357.79999999999995</ele><time>2026-05-04T14:09:55Z</time></trkpt><trkpt lat="43.69864236919644" lon="11.859701961585378"><ele>357.6</ele><time>2026-05-04T14:09:56Z</time></trkpt><trkpt lat="43.69867507392098" lon="11.859558424156544"><ele>357.4</ele><time>2026-05-04T14:09:57Z</time></trkpt><trkpt lat="43.69870703935334" lon="11.859418131760627"><ele>357.20000000000005</ele><time>2026-05-04T14:09:58Z</time></trkpt><trkpt lat="43.698736226231965" lon="11.859290033410211"><ele>357.0</ele><time>2026-05-04T14:09:59Z</time></trkpt><trkpt lat="43.69876709898067" lon="11.859154536445272"><ele>357.40000000000003</ele><time>2026-05-04T14:10:00Z</time></trkpt><trkpt lat="43.698781852651294" lon="11.859014400919587"><ele>357.8</ele><time>2026-05-04T14:10:01Z</time></trkpt><trkpt lat="43.6988118643714" lon="11.858883896579217"><ele>358.2</ele><time>2026-05-04T14:10:02Z</time></trkpt><trkpt lat="43.698855955660825" lon="11.858768555031958"><ele>358.6</ele><time>2026-05-04T14:10:03Z</time></trkpt><trkpt lat="43.6988854631183" lon="11.858645294292772"><ele>359.0</ele><time>2026-05-04T14:10:04Z</time></trkpt><trkpt lat="43.69890301397218" lon="11.858508785972502"><ele>359.2</ele><time>2026-05-04T14:10:05Z</time></trkpt><trkpt lat="43.698936232447934" lon="11.858373119939197"><ele>359.4</ele><time>2026-05-04T14:10:06Z</time></trkpt><trkpt lat="43.69896812217893" lon="11.85824620291752"><ele>359.6</ele><time>2026-05-04T14:10:07Z</time></trkpt><trkpt lat="43.69899662973442" lon="11.858117185991233"><ele>359.8</ele><time>2026-05-04T14:10:08Z</time></trkpt><trkpt lat="43.699023491694426" lon="11.857994692365235"><ele>360.0</ele><time>2026-05-04T14:10:09Z</time></trkpt><trkpt lat="43.699051325958074" lon="11.857884711818249"><ele>360.0</ele><time>2026-05-04T14:10:10Z</time></trkpt><trkpt lat="43.69908786331303" lon="11.857783735481135"><ele>360.0</ele><time>2026-05-04T14:10:11Z</time></trkpt><trkpt lat="43.69910410820756" lon="11.857650414173214"><ele>360.0</ele><time>2026-05-04T14:10:13Z</time></trkpt><trkpt lat="43.699129915276764" lon="11.857562852515835"><ele>360.0</ele><time>2026-05-04T14:10:16Z</time></trkpt><trkpt lat="43.69904844264989" lon="11.85746227060808"><ele>360.0</ele><time>2026-05-04T14:10:17Z</time></trkpt><trkpt lat="43.698987791659945" lon="11.857355830645508"><ele>360.6666666666667</ele><time>2026-05-04T14:10:18Z</time></trkpt><trkpt lat="43.698939007953285" lon="11.857270767784643"><ele>361.3333333333333</ele><time>2026-05-04T14:10:19Z</time></trkpt><trkpt lat="43.69887491906539" lon="11.85716563109846"><ele>362.0</ele><time>2026-05-04T14:10:20Z</time></trkpt><trkpt lat="43.69881893623743" lon="11.857075777954202"><ele>362.66666666666663</ele><time>2026-05-04T14:10:21Z</time></trkpt><trkpt lat="43.698759197800776" lon="11.856997754532511"><ele>363.3333333333333</ele><time>2026-05-04T14:10:22Z</time></trkpt><trkpt lat="43.698694915426266" lon="11.856924090923249"><ele>364.0</ele><time>2026-05-04T14:10:23Z</time></trkpt><trkpt lat="43.69862638040327" lon="11.856838614081237"><ele>363.4</ele><time>2026-05-04T14:10:24Z</time></trkpt><trkpt lat="43.69854833475401" lon="11.856760495867492"><ele>362.79999999999995</ele><time>2026-05-04T14:10:25Z</time></trkpt><trkpt lat="43.698468616872816" lon="11.856683361657394"><ele>362.20000000000005</ele><time>2026-05-04T14:10:26Z</time></trkpt><trkpt lat="43.698388053848184" lon="11.856602204746872"><ele>361.6</ele><time>2026-05-04T14:10:27Z</time></trkpt><trkpt lat="43.698286729167506" lon="11.856498566714157"><ele>361.0</ele><time>2026-05-04T14:10:28Z</time></trkpt><trkpt lat="43.69818512177966" lon="11.856387415453783"><ele>361.0</ele><time>2026-05-04T14:10:29Z</time></trkpt><trkpt lat="43.698095332859104" lon="11.856279736687076"><ele>361.0</ele><time>2026-05-04T14:10:30Z</time></trkpt><trkpt lat="43.6980108538053" lon="11.856176925148448"><ele>361.0</ele><time>2026-05-04T14:10:31Z</time></trkpt><trkpt lat="43.697928046708896" lon="11.856080113662726"><ele>361.0</ele><time>2026-05-04T14:10:32Z</time></trkpt><trkpt lat="43.697848989518114" lon="11.855987341951131"><ele>361.0</ele><time>2026-05-04T14:10:33Z</time></trkpt><trkpt lat="43.69777798138592" lon="11.855892669716303"><ele>361.66666666666663</ele><time>2026-05-04T14:10:34Z</time></trkpt><trkpt lat="43.697713283494146" lon="11.85581216197017"><ele>362.3333333333333</ele><time>2026-05-04T14:10:35Z</time></trkpt><trkpt lat="43.69765713594276" lon="11.855733737601799"><ele>363.0</ele><time>2026-05-04T14:10:36Z</time></trkpt><trkpt lat="43.697609498249285" lon="11.855648075899547"><ele>363.6666666666667</ele><time>2026-05-04T14:10:37Z</time></trkpt><trkpt lat="43.69757552828698" lon="11.85554118146682"><ele>364.33333333333337</ele><time>2026-05-04T14:10:38Z</time></trkpt><trkpt lat="43.69755155488639" lon="11.855460380819775"><ele>365.0</ele><time>2026-05-04T14:10:39Z</time></trkpt><trkpt lat="43.69758366519394" lon="11.855302726510361"><ele>365.0</ele><time>2026-05-04T14:10:41Z</time></trkpt><trkpt lat="43.69758288249252" lon="11.855184383689002"><ele>365.0</ele><time>2026-05-04T14:10:42Z</time></trkpt><trkpt lat="43.69758243045576" lon="11.855067880646997"><ele>365.0</ele><time>2026-05-04T14:10:43Z</time></trkpt><trkpt lat="43.69757625753825" lon="11.854954831968206"><ele>365.0</ele><time>2026-05-04T14:10:44Z</time></trkpt><trkpt lat="43.69751067225958" lon="11.854888866148668"><ele>365.0</ele><time>2026-05-04T14:10:45Z</time></trkpt><trkpt lat="43.69744237904516" lon="11.85481861703853"><ele>365.0</ele><time>2026-05-04T14:10:46Z</time></trkpt><trkpt lat="43.69736343006409" lon="11.854757479358536"><ele>365.6666666666667</ele><time>2026-05-04T14:10:47Z</time></trkpt><trkpt lat="43.69728410967241" lon="11.854696290603565"><ele>366.33333333333337</ele><time>2026-05-04T14:10:48Z</time></trkpt><trkpt lat="43.697220205372204" lon="11.854636805773874"><ele>367.0</ele><time>2026-05-04T14:10:49Z</time></trkpt><trkpt lat="43.69716540351505" lon="11.854500106940531"><ele>367.6666666666667</ele><time>2026-05-04T14:10:51Z</time></trkpt><trkpt lat="43.697198968313025" lon="11.854397556652374"><ele>368.3333333333333</ele><time>2026-05-04T14:10:52Z</time></trkpt><trkpt lat="43.69724244253655" lon="11.854314227896626"><ele>369.0</ele><time>2026-05-04T14:10:53Z</time></trkpt><trkpt lat="43.697278409618285" lon="11.854214228493454"><ele>370.1666666666667</ele><time>2026-05-04T14:10:54Z</time></trkpt><trkpt lat="43.697329321161384" lon="11.854123931873701"><ele>371.3333333333333</ele><time>2026-05-04T14:10:55Z</time></trkpt><trkpt lat="43.69737089638027" lon="11.854015210242437"><ele>372.5</ele><time>2026-05-04T14:10:56Z</time></trkpt><trkpt lat="43.69738616588435" lon="11.853903459786814"><ele>373.66666666666663</ele><time>2026-05-04T14:10:57Z</time></trkpt><trkpt lat="43.69740340876707" lon="11.853779951153152"><ele>374.8333333333333</ele><time>2026-05-04T14:10:58Z</time></trkpt><trkpt lat="43.69741682840082" lon="11.853642665732783"><ele>376.0</ele><time>2026-05-04T14:10:59Z</time></trkpt><trkpt lat="43.69742245775873" lon="11.853510119342257"><ele>377.8</ele><time>2026-05-04T14:11:00Z</time></trkpt><trkpt lat="43.69742049927518" lon="11.853376828524034"><ele>379.6</ele><time>2026-05-04T14:11:01Z</time></trkpt><trkpt lat="43.69740321486847" lon="11.853238743798785"><ele>381.4</ele><time>2026-05-04T14:11:02Z</time></trkpt><trkpt lat="43.6973780619313" lon="11.853095799456147"><ele>383.2</ele><time>2026-05-04T14:11:03Z</time></trkpt><trkpt lat="43.69736791583046" lon="11.85299203839852"><ele>385.0</ele><time>2026-05-04T14:11:04Z</time></trkpt><trkpt lat="43.6973734543916" lon="11.85289552315975"><ele>385.00000000000006</ele><time>2026-05-04T14:11:05Z</time></trkpt><trkpt lat="43.69738073162943" lon="11.852796640095631"><ele>385.0</ele><time>2026-05-04T14:11:06Z</time></trkpt><trkpt lat="43.6973878679778" lon="11.852688266105774"><ele>385.0</ele><time>2026-05-04T14:11:07Z</time></trkpt><trkpt lat="43.69738057877778" lon="11.852559221469363"><ele>385.0</ele><time>2026-05-04T14:11:08Z</time></trkpt><trkpt lat="43.697345249929185" lon="11.8524337151754"><ele>385.00000000000006</ele><time>2026-05-04T14:11:09Z</time></trkpt><trkpt lat="43.697339281840726" lon="11.852288668820389"><ele>385.0</ele><time>2026-05-04T14:11:10Z</time></trkpt><trkpt lat="43.69733053057405" lon="11.852156442494286"><ele>387.2</ele><time>2026-05-04T14:11:11Z</time></trkpt><trkpt lat="43.697322944269594" lon="11.852028050770967"><ele>389.4</ele><time>2026-05-04T14:11:12Z</time></trkpt><trkpt lat="43.69731824042888" lon="11.851906707275843"><ele>391.6</ele><time>2026-05-04T14:11:13Z</time></trkpt><trkpt lat="43.69731824966067" lon="11.851810045248667"><ele>393.8</ele><time>2026-05-04T14:11:14Z</time></trkpt><trkpt lat="43.69733197481451" lon="11.851636961744955"><ele>396.0</ele><time>2026-05-04T14:11:16Z</time></trkpt><trkpt lat="43.69735784550051" lon="11.851501212306802"><ele>396.8333333333333</ele><time>2026-05-04T14:11:18Z</time></trkpt><trkpt lat="43.69745240436133" lon="11.85146443803177"><ele>397.66666666666663</ele><time>2026-05-04T14:11:20Z</time></trkpt><trkpt lat="43.697515543737566" lon="11.851479601826485"><ele>398.5</ele><time>2026-05-04T14:11:21Z</time></trkpt><trkpt lat="43.69762454759378" lon="11.85145403551986"><ele>399.3333333333333</ele><time>2026-05-04T14:11:23Z</time></trkpt><trkpt lat="43.69768587689317" lon="11.851422845597327"><ele>400.16666666666663</ele><time>2026-05-04T14:11:24Z</time></trkpt><trkpt lat="43.69776876378307" lon="11.85135180358929"><ele>401.0</ele><time>2026-05-04T14:11:25Z</time></trkpt><trkpt lat="43.69784197823988" lon="11.851283911692247"><ele>401.8</ele><time>2026-05-04T14:11:26Z</time></trkpt><trkpt lat="43.6979133759924" lon="11.851217704503634"><ele>402.6</ele><time>2026-05-04T14:11:27Z</time></trkpt><trkpt lat="43.69798662974683" lon="11.85114977604704"><ele>403.4</ele><time>2026-05-04T14:11:28Z</time></trkpt><trkpt lat="43.69807108181833" lon="11.851074649593386"><ele>404.2</ele><time>2026-05-04T14:11:29Z</time></trkpt><trkpt lat="43.69815758866144" lon="11.851000315721759"><ele>405.0</ele><time>2026-05-04T14:11:30Z</time></trkpt><trkpt lat="43.69823984730926" lon="11.850944498044438"><ele>406.0</ele><time>2026-05-04T14:11:31Z</time></trkpt><trkpt lat="43.69833024779104" lon="11.850863625943703"><ele>407.0</ele><time>2026-05-04T14:11:32Z</time></trkpt><trkpt lat="43.69841440107722" lon="11.850789883112531"><ele>408.0</ele><time>2026-05-04T14:11:33Z</time></trkpt><trkpt lat="43.698487610008925" lon="11.850711323471046"><ele>409.0</ele><time>2026-05-04T14:11:34Z</time></trkpt><trkpt lat="43.69853795357892" lon="11.850561035955879"><ele>410.0</ele><time>2026-05-04T14:11:35Z</time></trkpt><trkpt lat="43.69861753330311" lon="11.850427145611876"><ele>410.6</ele><time>2026-05-04T14:11:36Z</time></trkpt><trkpt lat="43.69867896052132" lon="11.850308679012242"><ele>411.2</ele><time>2026-05-04T14:11:37Z</time></trkpt><trkpt lat="43.69873709337986" lon="11.850193714293304"><ele>411.79999999999995</ele><time>2026-05-04T14:11:38Z</time></trkpt><trkpt lat="43.69879267796889" lon="11.85007394863776"><ele>412.4</ele><time>2026-05-04T14:11:39Z</time></trkpt><trkpt lat="43.698832984756294" lon="11.849965156806883"><ele>413.0</ele><time>2026-05-04T14:11:40Z</time></trkpt><trkpt lat="43.69886028931771" lon="11.849862982630793"><ele>414.59999999999997</ele><time>2026-05-04T14:11:41Z</time></trkpt><trkpt lat="43.69888339071238" lon="11.849728285144137"><ele>416.2</ele><time>2026-05-04T14:11:42Z</time></trkpt><trkpt lat="43.69887343341135" lon="11.849587916433508"><ele>417.8</ele><time>2026-05-04T14:11:43Z</time></trkpt><trkpt lat="43.69886857228023" lon="11.849470299147127"><ele>419.4</ele><time>2026-05-04T14:11:44Z</time></trkpt><trkpt lat="43.69886007757704" lon="11.849319777539856"><ele>421.0</ele><time>2026-05-04T14:11:45Z</time></trkpt><trkpt lat="43.6988452980651" lon="11.849166910481765"><ele>420.8</ele><time>2026-05-04T14:11:46Z</time></trkpt><trkpt lat="43.698828015114586" lon="11.849032573984514"><ele>420.6</ele><time>2026-05-04T14:11:47Z</time></trkpt><trkpt lat="43.69880229399416" lon="11.848910391849877"><ele>420.4</ele><time>2026-05-04T14:11:48Z</time></trkpt><trkpt lat="43.698743813938705" lon="11.848801253244932"><ele>420.2</ele><time>2026-05-04T14:11:49Z</time></trkpt><trkpt lat="43.6986481907941" lon="11.84870661165889"><ele>420.0</ele><time>2026-05-04T14:11:50Z</time></trkpt><trkpt lat="43.698559170687766" lon="11.848615961027544"><ele>420.0</ele><time>2026-05-04T14:11:51Z</time></trkpt><trkpt lat="43.698480220149044" lon="11.848535023867809"><ele>420.0</ele><time>2026-05-04T14:11:52Z</time></trkpt><trkpt lat="43.69841449380521" lon="11.848431474068946"><ele>420.0</ele><time>2026-05-04T14:11:53Z</time></trkpt><trkpt lat="43.698342964438275" lon="11.848334512545886"><ele>420.0</ele><time>2026-05-04T14:11:54Z</time></trkpt><trkpt lat="43.69829978351539" lon="11.848261544732031"><ele>420.0</ele><time>2026-05-04T14:11:55Z</time></trkpt><trkpt lat="43.6982553244276" lon="11.848138513449511"><ele>422.4</ele><time>2026-05-04T14:11:56Z</time></trkpt><trkpt lat="43.69820544719321" lon="11.848020023654046"><ele>424.8</ele><time>2026-05-04T14:11:57Z</time></trkpt><trkpt lat="43.698151175622016" lon="11.847898155554864"><ele>427.20000000000005</ele><time>2026-05-04T14:11:58Z</time></trkpt><trkpt lat="43.69809334587395" lon="11.847782173485717"><ele>429.6</ele><time>2026-05-04T14:11:59Z</time></trkpt><trkpt lat="43.69803907097119" lon="11.847683214673378"><ele>432.0</ele><time>2026-05-04T14:12:00Z</time></trkpt><trkpt lat="43.69798398204256" lon="11.847582712210578"><ele>435.1666666666667</ele><time>2026-05-04T14:12:01Z</time></trkpt><trkpt lat="43.697940204981606" lon="11.847496860321447"><ele>438.33333333333337</ele><time>2026-05-04T14:12:02Z</time></trkpt><trkpt lat="43.697904809327596" lon="11.8474216580279"><ele>441.5</ele><time>2026-05-04T14:12:03Z</time></trkpt><trkpt lat="43.69786642972067" lon="11.847330802486097"><ele>444.6666666666667</ele><time>2026-05-04T14:12:05Z</time></trkpt><trkpt lat="43.69796060112522" lon="11.847283378089093"><ele>447.83333333333337</ele><time>2026-05-04T14:12:08Z</time></trkpt><trkpt lat="43.69805647159124" lon="11.847319047719159"><ele>451.0</ele><time>2026-05-04T14:12:10Z</time></trkpt><trkpt lat="43.69818219132822" lon="11.847286349599353"><ele>451.0</ele><time>2026-05-04T14:12:12Z</time></trkpt><trkpt lat="43.6982788655316" lon="11.847231628275603"><ele>451.0</ele><time>2026-05-04T14:12:14Z</time></trkpt><trkpt lat="43.6982683167382" lon="11.847128680294539"><ele>451.0</ele><time>2026-05-04T14:12:16Z</time></trkpt><trkpt lat="43.69816603393262" lon="11.8470289144893"><ele>451.0</ele><time>2026-05-04T14:12:18Z</time></trkpt><trkpt lat="43.698108775225585" lon="11.846977299907175"><ele>451.0</ele><time>2026-05-04T14:12:19Z</time></trkpt><trkpt lat="43.69804139835649" lon="11.846839361403099"><ele>454.33333333333337</ele><time>2026-05-04T14:12:21Z</time></trkpt><trkpt lat="43.698000430824955" lon="11.846764385499768"><ele>457.6666666666667</ele><time>2026-05-04T14:12:22Z</time></trkpt><trkpt lat="43.69797954619912" lon="11.846679111920112"><ele>461.0</ele><time>2026-05-04T14:12:23Z</time></trkpt><trkpt lat="43.6979563649736" lon="11.846577055749599"><ele>464.33333333333337</ele><time>2026-05-04T14:12:24Z</time></trkpt><trkpt lat="43.6979241988067" lon="11.846472560706022"><ele>467.6666666666667</ele><time>2026-05-04T14:12:25Z</time></trkpt><trkpt lat="43.69790227106034" lon="11.846329518377322"><ele>471.0</ele><time>2026-05-04T14:12:26Z</time></trkpt><trkpt lat="43.69788571316868" lon="11.8461910384369"><ele>471.0</ele><time>2026-05-04T14:12:27Z</time></trkpt><trkpt lat="43.697867948022136" lon="11.84609153478729"><ele>471.0</ele><time>2026-05-04T14:12:28Z</time></trkpt><trkpt lat="43.69784131925482" lon="11.845999637282107"><ele>471.0</ele><time>2026-05-04T14:12:29Z</time></trkpt><trkpt lat="43.69780889863703" lon="11.845864717592658"><ele>471.0</ele><time>2026-05-04T14:12:30Z</time></trkpt><trkpt lat="43.69779913213746" lon="11.845757228021276"><ele>471.0</ele><time>2026-05-04T14:12:31Z</time></trkpt><trkpt lat="43.69778620042655" lon="11.845647506262695"><ele>471.0</ele><time>2026-05-04T14:12:32Z</time></trkpt><trkpt lat="43.69776568175384" lon="11.84556398732141"><ele>472.6666666666667</ele><time>2026-05-04T14:12:33Z</time></trkpt><trkpt lat="43.69772247206107" lon="11.845428707932955"><ele>474.33333333333337</ele><time>2026-05-04T14:12:35Z</time></trkpt><trkpt lat="43.69766936105146" lon="11.845323736728911"><ele>476.0</ele><time>2026-05-04T14:12:37Z</time></trkpt><trkpt lat="43.697643387399566" lon="11.845242906585787"><ele>477.6666666666667</ele><time>2026-05-04T14:12:38Z</time></trkpt><trkpt lat="43.69761300517813" lon="11.845154267143228"><ele>479.33333333333337</ele><time>2026-05-04T14:12:39Z</time></trkpt><trkpt lat="43.69758470382261" lon="11.84504655779275"><ele>481.0</ele><time>2026-05-04T14:12:40Z</time></trkpt><trkpt lat="43.69756840612063" lon="11.844950178456468"><ele>481.0</ele><time>2026-05-04T14:12:41Z</time></trkpt><trkpt lat="43.697561847083314" lon="11.844850444256439"><ele>481.0</ele><time>2026-05-04T14:12:42Z</time></trkpt><trkpt lat="43.69756114861048" lon="11.844758081920512"><ele>481.0</ele><time>2026-05-04T14:12:43Z</time></trkpt><trkpt lat="43.69763186901795" lon="11.844589663141903"><ele>481.0</ele><time>2026-05-04T14:12:45Z</time></trkpt><trkpt lat="43.697686478078985" lon="11.844488829373434"><ele>481.0</ele><time>2026-05-04T14:12:46Z</time></trkpt><trkpt lat="43.6977590487369" lon="11.844381339120092"><ele>480.4</ele><time>2026-05-04T14:12:47Z</time></trkpt><trkpt lat="43.69782780740994" lon="11.844261709079964"><ele>479.8</ele><time>2026-05-04T14:12:48Z</time></trkpt><trkpt lat="43.69788215086034" lon="11.844153550427608"><ele>479.19999999999993</ele><time>2026-05-04T14:12:49Z</time></trkpt><trkpt lat="43.697907436360985" lon="11.844050144121272"><ele>478.59999999999997</ele><time>2026-05-04T14:12:50Z</time></trkpt><trkpt lat="43.69790547323943" lon="11.843932543373663"><ele>478.0</ele><time>2026-05-04T14:12:51Z</time></trkpt><trkpt lat="43.69789354463626" lon="11.843817064557665"><ele>478.0</ele><time>2026-05-04T14:12:52Z</time></trkpt><trkpt lat="43.69785580075162" lon="11.843684410602107"><ele>477.99999999999994</ele><time>2026-05-04T14:12:53Z</time></trkpt><trkpt lat="43.69780612018472" lon="11.843561958044566"><ele>477.99999999999994</ele><time>2026-05-04T14:12:54Z</time></trkpt><trkpt lat="43.69778721857783" lon="11.843457702085828"><ele>478.0</ele><time>2026-05-04T14:12:55Z</time></trkpt><trkpt lat="43.69775843582733" lon="11.84328567200169"><ele>478.0</ele><time>2026-05-04T14:12:57Z</time></trkpt><trkpt lat="43.69776393144383" lon="11.843188215437511"><ele>476.4</ele><time>2026-05-04T14:12:58Z</time></trkpt><trkpt lat="43.69779879911024" lon="11.843101944349817"><ele>474.79999999999995</ele><time>2026-05-04T14:12:59Z</time></trkpt><trkpt lat="43.69788187335388" lon="11.843013684403614"><ele>473.2</ele><time>2026-05-04T14:13:01Z</time></trkpt><trkpt lat="43.69800510412172" lon="11.843057781523806"><ele>471.6</ele><time>2026-05-04T14:13:03Z</time></trkpt><trkpt lat="43.69807857936008" lon="11.843097871259221"><ele>470.0</ele><time>2026-05-04T14:13:04Z</time></trkpt><trkpt lat="43.6981476762556" lon="11.843134383462345"><ele>469.99999999999994</ele><time>2026-05-04T14:13:05Z</time></trkpt><trkpt lat="43.69822041819956" lon="11.843166246094587"><ele>470.0</ele><time>2026-05-04T14:13:06Z</time></trkpt><trkpt lat="43.69829267202222" lon="11.843215384005168"><ele>470.0</ele><time>2026-05-04T14:13:07Z</time></trkpt><trkpt lat="43.698356690919766" lon="11.843264495028967"><ele>470.0</ele><time>2026-05-04T14:13:08Z</time></trkpt><trkpt lat="43.698423994148406" lon="11.843278449301511"><ele>469.99999999999994</ele><time>2026-05-04T14:13:09Z</time></trkpt><trkpt lat="43.698512760481584" lon="11.843321080584701"><ele>470.0</ele><time>2026-05-04T14:13:10Z</time></trkpt><trkpt lat="43.698591587027174" lon="11.843329738315726"><ele>469.2</ele><time>2026-05-04T14:13:11Z</time></trkpt><trkpt lat="43.698670674129986" lon="11.843290546192597"><ele>468.4</ele><time>2026-05-04T14:13:12Z</time></trkpt><trkpt lat="43.69872216522678" lon="11.843223644894406"><ele>467.6</ele><time>2026-05-04T14:13:13Z</time></trkpt><trkpt lat="43.698767473419004" lon="11.84315015532152"><ele>466.8</ele><time>2026-05-04T14:13:14Z</time></trkpt><trkpt lat="43.698783162904725" lon="11.842986829601207"><ele>466.0</ele><time>2026-05-04T14:13:16Z</time></trkpt><trkpt lat="43.698734188185256" lon="11.842810613796436"><ele>466.00000000000006</ele><time>2026-05-04T14:13:17Z</time></trkpt><trkpt lat="43.6986885388641" lon="11.842698623438432"><ele>466.0</ele><time>2026-05-04T14:13:18Z</time></trkpt><trkpt lat="43.6986853186418" lon="11.84260302434873"><ele>466.0</ele><time>2026-05-04T14:13:19Z</time></trkpt><trkpt lat="43.69868750038896" lon="11.842485992769678"><ele>466.0</ele><time>2026-05-04T14:13:20Z</time></trkpt><trkpt lat="43.69870509128719" lon="11.84238712346702"><ele>466.00000000000006</ele><time>2026-05-04T14:13:21Z</time></trkpt><trkpt lat="43.69872305997769" lon="11.842298844706194"><ele>466.0</ele><time>2026-05-04T14:13:22Z</time></trkpt><trkpt lat="43.69872844844711" lon="11.842184005781373"><ele>465.1666666666667</ele><time>2026-05-04T14:13:24Z</time></trkpt><trkpt lat="43.698736416728465" lon="11.842097478681413"><ele>464.33333333333337</ele><time>2026-05-04T14:13:25Z</time></trkpt><trkpt lat="43.698741399532906" lon="11.842007626012297"><ele>463.5</ele><time>2026-05-04T14:13:26Z</time></trkpt><trkpt lat="43.69874913464078" lon="11.841910188526592"><ele>462.66666666666663</ele><time>2026-05-04T14:13:27Z</time></trkpt><trkpt lat="43.698747263782856" lon="11.841763306931776"><ele>461.8333333333333</ele><time>2026-05-04T14:13:29Z</time></trkpt><trkpt lat="43.698751103176285" lon="11.841668615548738"><ele>461.0</ele><time>2026-05-04T14:13:30Z</time></trkpt><trkpt lat="43.69874087620974" lon="11.841533176052545"><ele>458.99999999999994</ele><time>2026-05-04T14:13:32Z</time></trkpt><trkpt lat="43.69874041221765" lon="11.841438216520974"><ele>457.0</ele><time>2026-05-04T14:13:33Z</time></trkpt><trkpt lat="43.69876425544166" lon="11.841269125727276"><ele>455.0</ele><time>2026-05-04T14:13:35Z</time></trkpt><trkpt lat="43.69878445281302" lon="11.841184650540646"><ele>453.0</ele><time>2026-05-04T14:13:36Z</time></trkpt><trkpt lat="43.69883597845568" lon="11.841063095741738"><ele>450.99999999999994</ele><time>2026-05-04T14:13:38Z</time></trkpt><trkpt lat="43.6988721160889" lon="11.840983718510062"><ele>449.0</ele><time>2026-05-04T14:13:40Z</time></trkpt><trkpt lat="43.698935422482236" lon="11.840965469730522"><ele>448.99999999999994</ele><time>2026-05-04T14:13:42Z</time></trkpt><trkpt lat="43.69901890831832" lon="11.841043200908937"><ele>449.0</ele><time>2026-05-04T14:13:44Z</time></trkpt><trkpt lat="43.699066523346254" lon="11.841108411111643"><ele>449.0</ele><time>2026-05-04T14:13:47Z</time></trkpt><trkpt lat="43.69911903946014" lon="11.841165818298403"><ele>449.0</ele><time>2026-05-04T14:13:49Z</time></trkpt><trkpt lat="43.69919336535312" lon="11.841232545931048"><ele>448.99999999999994</ele><time>2026-05-04T14:13:51Z</time></trkpt><trkpt lat="43.69925549527201" lon="11.84126034050327"><ele>449.0</ele><time>2026-05-04T14:13:58Z</time></trkpt><trkpt lat="43.69931914410395" lon="11.841266935000275"><ele>448.99999999999994</ele><time>2026-05-04T14:14:00Z</time></trkpt><trkpt lat="43.69940979721163" lon="11.841260726659664"><ele>449.0</ele><time>2026-05-04T14:14:02Z</time></trkpt><trkpt lat="43.69948382479186" lon="11.841255118357571"><ele>449.0</ele><time>2026-05-04T14:14:04Z</time></trkpt><trkpt lat="43.69941821481606" lon="11.841258070978744"><ele>449.0</ele><time>2026-05-04T14:14:10Z</time></trkpt><trkpt lat="43.69932879725804" lon="11.841290943097498"><ele>448.99999999999994</ele><time>2026-05-04T14:14:12Z</time></trkpt><trkpt lat="43.6992279710636" lon="11.841264929376955"><ele>449.0</ele><time>2026-05-04T14:14:14Z</time></trkpt><trkpt lat="43.69913851039493" lon="11.841173654409808"><ele>449.0</ele><time>2026-05-04T14:14:16Z</time></trkpt><trkpt lat="43.699030049230196" lon="11.841071126469657"><ele>449.0</ele><time>2026-05-04T14:14:18Z</time></trkpt><trkpt lat="43.698937924038" lon="11.84098360767422"><ele>449.0</ele><time>2026-05-04T14:14:20Z</time></trkpt><trkpt lat="43.6988734405819" lon="11.84101892985075"><ele>449.0</ele><time>2026-05-04T14:14:23Z</time></trkpt><trkpt lat="43.69882769179916" lon="11.84109798722596"><ele>449.0</ele><time>2026-05-04T14:14:25Z</time></trkpt><trkpt lat="43.698816661755366" lon="11.841221587889686"><ele>449.0</ele><time>2026-05-04T14:14:27Z</time></trkpt><trkpt lat="43.69879141831651" lon="11.84131745366739"><ele>449.0</ele><time>2026-05-04T14:14:28Z</time></trkpt><trkpt lat="43.69876397623263" lon="11.841465405305788"><ele>449.0</ele><time>2026-05-04T14:14:30Z</time></trkpt><trkpt lat="43.69876092633069" lon="11.841610418915234"><ele>449.0</ele><time>2026-05-04T14:14:32Z</time></trkpt><trkpt lat="43.69877234613015" lon="11.84176392335676"><ele>449.0</ele><time>2026-05-04T14:14:34Z</time></trkpt><trkpt lat="43.69876438637433" lon="11.841853960107949"><ele>451.4</ele><time>2026-05-04T14:14:35Z</time></trkpt><trkpt lat="43.69875744843366" lon="11.842021464596403"><ele>453.79999999999995</ele><time>2026-05-04T14:14:37Z</time></trkpt><trkpt lat="43.698751334454826" lon="11.842139986835928"><ele>456.20000000000005</ele><time>2026-05-04T14:14:38Z</time></trkpt><trkpt lat="43.698731382505734" lon="11.84225986583183"><ele>458.6</ele><time>2026-05-04T14:14:40Z</time></trkpt><trkpt lat="43.69866460380945" lon="11.842244304111912"><ele>461.0</ele><time>2026-05-04T14:14:52Z</time></trkpt><trkpt lat="43.698607480601204" lon="11.842148643821668"><ele>460.4</ele><time>2026-05-04T14:14:55Z</time></trkpt><trkpt lat="43.69858006589538" lon="11.842015097611176"><ele>459.8</ele><time>2026-05-04T14:14:57Z</time></trkpt><trkpt lat="43.69855688962848" lon="11.841906490623337"><ele>459.19999999999993</ele><time>2026-05-04T14:14:59Z</time></trkpt><trkpt lat="43.698512810950156" lon="11.84178985023149"><ele>458.59999999999997</ele><time>2026-05-04T14:15:01Z</time></trkpt><trkpt lat="43.69846924149343" lon="11.841667107410624"><ele>458.0</ele><time>2026-05-04T14:15:03Z</time></trkpt><trkpt lat="43.69844060224341" lon="11.841551921574391"><ele>456.0</ele><time>2026-05-04T14:15:05Z</time></trkpt><trkpt lat="43.698486008403016" lon="11.84164875588516"><ele>454.0</ele><time>2026-05-04T14:15:09Z</time></trkpt><trkpt lat="43.69843158978152" lon="11.84126881505718"><ele>452.0</ele><time>2026-05-04T14:15:10Z</time></trkpt><trkpt lat="43.69841722209002" lon="11.841119246176614"><ele>452.0</ele><time>2026-05-04T14:15:12Z</time></trkpt><trkpt lat="43.69840668546729" lon="11.840980805527582"><ele>452.00000000000006</ele><time>2026-05-04T14:15:14Z</time></trkpt><trkpt lat="43.69835367462644" lon="11.840862591857828"><ele>452.00000000000006</ele><time>2026-05-04T14:15:16Z</time></trkpt><trkpt lat="43.698275290599064" lon="11.840742702744018"><ele>452.0</ele><time>2026-05-04T14:15:18Z</time></trkpt><trkpt lat="43.69823115638749" lon="11.840621486630008"><ele>452.0</ele><time>2026-05-04T14:15:20Z</time></trkpt><trkpt lat="43.69825310943665" lon="11.840514062852279"><ele>451.8</ele><time>2026-05-04T14:15:22Z</time></trkpt><trkpt lat="43.69826515995394" lon="11.840403049214824"><ele>451.6</ele><time>2026-05-04T14:15:24Z</time></trkpt><trkpt lat="43.69821528949006" lon="11.840260457071862"><ele>451.40000000000003</ele><time>2026-05-04T14:15:26Z</time></trkpt><trkpt lat="43.69818622527559" lon="11.840182907674818"><ele>451.20000000000005</ele><time>2026-05-04T14:15:27Z</time></trkpt><trkpt lat="43.698151145565895" lon="11.840100997754826"><ele>451.0</ele><time>2026-05-04T14:15:28Z</time></trkpt><trkpt lat="43.69807659081338" lon="11.839962119535434"><ele>449.83333333333337</ele><time>2026-05-04T14:15:30Z</time></trkpt><trkpt lat="43.69802553125637" lon="11.839898501016151"><ele>448.6666666666667</ele><time>2026-05-04T14:15:31Z</time></trkpt><trkpt lat="43.697951485713425" lon="11.83982966078876"><ele>447.5</ele><time>2026-05-04T14:15:32Z</time></trkpt><trkpt lat="43.69791909006152" lon="11.839754932503904"><ele>446.33333333333337</ele><time>2026-05-04T14:15:33Z</time></trkpt><trkpt lat="43.6978614504377" lon="11.83966103857485"><ele>445.1666666666667</ele><time>2026-05-04T14:15:35Z</time></trkpt><trkpt lat="43.69780640440332" lon="11.839510909240667"><ele>444.0</ele><time>2026-05-04T14:15:37Z</time></trkpt><trkpt lat="43.69777513059837" lon="11.83943490359091"><ele>443.85714285714283</ele><time>2026-05-04T14:15:38Z</time></trkpt><trkpt lat="43.69773757723733" lon="11.839362205700375"><ele>443.7142857142857</ele><time>2026-05-04T14:15:39Z</time></trkpt><trkpt lat="43.69769243225922" lon="11.839296773604646"><ele>443.57142857142856</ele><time>2026-05-04T14:15:40Z</time></trkpt><trkpt lat="43.697652109602565" lon="11.83921768824885"><ele>443.42857142857144</ele><time>2026-05-04T14:15:41Z</time></trkpt><trkpt lat="43.69760762774768" lon="11.83914754319088"><ele>443.28571428571433</ele><time>2026-05-04T14:15:42Z</time></trkpt><trkpt lat="43.697567335533904" lon="11.839064769333278"><ele>443.14285714285717</ele><time>2026-05-04T14:15:43Z</time></trkpt><trkpt lat="43.69752236488093" lon="11.83899119307744"><ele>443.0</ele><time>2026-05-04T14:15:44Z</time></trkpt><trkpt lat="43.69745082077512" lon="11.83888722708224"><ele>442.99999999999994</ele><time>2026-05-04T14:15:46Z</time></trkpt><trkpt lat="43.69739491306547" lon="11.838727188174373"><ele>443.0</ele><time>2026-05-04T14:15:48Z</time></trkpt><trkpt lat="43.69739480151873" lon="11.838633319719914"><ele>443.0</ele><time>2026-05-04T14:15:49Z</time></trkpt><trkpt lat="43.69735580376524" lon="11.83847941406536"><ele>443.0</ele><time>2026-05-04T14:15:51Z</time></trkpt><trkpt lat="43.697308803337904" lon="11.838410851341393"><ele>442.99999999999994</ele><time>2026-05-04T14:15:52Z</time></trkpt><trkpt lat="43.697266493788305" lon="11.838343450505022"><ele>443.0</ele><time>2026-05-04T14:15:53Z</time></trkpt><trkpt lat="43.697199489032386" lon="11.838185471672103"><ele>442.7142857142857</ele><time>2026-05-04T14:15:55Z</time></trkpt><trkpt lat="43.69716348299487" lon="11.838096853239007"><ele>442.42857142857144</ele><time>2026-05-04T14:15:56Z</time></trkpt><trkpt lat="43.6970930822339" lon="11.838016165898631"><ele>442.1428571428571</ele><time>2026-05-04T14:15:58Z</time></trkpt><trkpt lat="43.69702636530169" lon="11.837988364711101"><ele>441.8571428571429</ele><time>2026-05-04T14:15:59Z</time></trkpt><trkpt lat="43.696961701585224" lon="11.83795568056075"><ele>441.57142857142856</ele><time>2026-05-04T14:16:00Z</time></trkpt><trkpt lat="43.696918594753434" lon="11.837888658221273"><ele>441.2857142857143</ele><time>2026-05-04T14:16:01Z</time></trkpt><trkpt lat="43.696878227471" lon="11.837809641868626"><ele>441.0</ele><time>2026-05-04T14:16:02Z</time></trkpt><trkpt lat="43.69679406427385" lon="11.837699494671003"><ele>440.4</ele><time>2026-05-04T14:16:04Z</time></trkpt><trkpt lat="43.69673772438733" lon="11.837655144119298"><ele>439.8</ele><time>2026-05-04T14:16:05Z</time></trkpt><trkpt lat="43.696639821349144" lon="11.837599179995356"><ele>439.19999999999993</ele><time>2026-05-04T14:16:07Z</time></trkpt><trkpt lat="43.6965060815183" lon="11.83755289854025"><ele>438.59999999999997</ele><time>2026-05-04T14:16:09Z</time></trkpt><trkpt lat="43.696395910215244" lon="11.837452229885272"><ele>438.0</ele><time>2026-05-04T14:16:11Z</time></trkpt><trkpt lat="43.69634573449302" lon="11.837390893571268"><ele>438.0</ele><time>2026-05-04T14:16:12Z</time></trkpt><trkpt lat="43.69626454092222" lon="11.837267856172081"><ele>437.99999999999994</ele><time>2026-05-04T14:16:14Z</time></trkpt><trkpt lat="43.696187293345076" lon="11.83719909321826"><ele>437.99999999999994</ele><time>2026-05-04T14:16:16Z</time></trkpt><trkpt lat="43.69611326273325" lon="11.83713501326665"><ele>438.0</ele><time>2026-05-04T14:16:17Z</time></trkpt><trkpt lat="43.696024776070566" lon="11.837001712713391"><ele>438.0</ele><time>2026-05-04T14:16:19Z</time></trkpt><trkpt lat="43.695988280199614" lon="11.836926573482945"><ele>435.79999999999995</ele><time>2026-05-04T14:16:20Z</time></trkpt><trkpt lat="43.69585376600872" lon="11.83684357683467"><ele>433.59999999999997</ele><time>2026-05-04T14:16:22Z</time></trkpt><trkpt lat="43.6957649626378" lon="11.836775470728226"><ele>431.40000000000003</ele><time>2026-05-04T14:16:24Z</time></trkpt><trkpt lat="43.69569262254363" lon="11.83672861054814"><ele>429.20000000000005</ele><time>2026-05-04T14:16:25Z</time></trkpt><trkpt lat="43.695631275956565" lon="11.836683914833035"><ele>427.0</ele><time>2026-05-04T14:16:26Z</time></trkpt><trkpt lat="43.695585578933795" lon="11.836603885544728"><ele>427.00000000000006</ele><time>2026-05-04T14:16:27Z</time></trkpt><trkpt lat="43.69553898386969" lon="11.836539762355411"><ele>427.0</ele><time>2026-05-04T14:16:28Z</time></trkpt><trkpt lat="43.69549388673251" lon="11.83647694000628"><ele>427.0</ele><time>2026-05-04T14:16:29Z</time></trkpt><trkpt lat="43.69538072485136" lon="11.836436382933886"><ele>427.0</ele><time>2026-05-04T14:16:31Z</time></trkpt><trkpt lat="43.69529568392945" lon="11.836437522550217"><ele>427.00000000000006</ele><time>2026-05-04T14:16:32Z</time></trkpt><trkpt lat="43.695229808927365" lon="11.836425472594982"><ele>427.0</ele><time>2026-05-04T14:16:33Z</time></trkpt><trkpt lat="43.695161915160924" lon="11.836406761069277"><ele>424.20000000000005</ele><time>2026-05-04T14:16:34Z</time></trkpt><trkpt lat="43.69508096335275" lon="11.836367566639836"><ele>421.40000000000003</ele><time>2026-05-04T14:16:35Z</time></trkpt><trkpt lat="43.695002403644686" lon="11.836315991815248"><ele>418.6</ele><time>2026-05-04T14:16:36Z</time></trkpt><trkpt lat="43.6949397884574" lon="11.836292012489702"><ele>415.79999999999995</ele><time>2026-05-04T14:16:37Z</time></trkpt><trkpt lat="43.6948329486843" lon="11.836226780583006"><ele>413.0</ele><time>2026-05-04T14:16:39Z</time></trkpt><trkpt lat="43.69473167940434" lon="11.83612642196919"><ele>412.99999999999994</ele><time>2026-05-04T14:16:41Z</time></trkpt><trkpt lat="43.694631485607054" lon="11.836086251748961"><ele>413.0</ele><time>2026-05-04T14:16:43Z</time></trkpt><trkpt lat="43.69454702508804" lon="11.83610306558844"><ele>413.0</ele><time>2026-05-04T14:16:45Z</time></trkpt><trkpt lat="43.69448637985248" lon="11.83607607555659"><ele>413.0</ele><time>2026-05-04T14:16:47Z</time></trkpt><trkpt lat="43.694416646423925" lon="11.836064976289078"><ele>412.99999999999994</ele><time>2026-05-04T14:16:49Z</time></trkpt><trkpt lat="43.694338595384" lon="11.836036119901358"><ele>413.0</ele><time>2026-05-04T14:16:51Z</time></trkpt><trkpt lat="43.694242845305816" lon="11.836060238557573"><ele>411.16666666666663</ele><time>2026-05-04T14:16:53Z</time></trkpt><trkpt lat="43.69417091248078" lon="11.83600733633244"><ele>409.3333333333333</ele><time>2026-05-04T14:16:55Z</time></trkpt><trkpt lat="43.694104021331185" lon="11.835951775640721"><ele>407.5</ele><time>2026-05-04T14:16:57Z</time></trkpt><trkpt lat="43.69404975481519" lon="11.835879303692773"><ele>405.66666666666663</ele><time>2026-05-04T14:17:03Z</time></trkpt><trkpt lat="43.69399604792262" lon="11.835795907746084"><ele>403.8333333333333</ele><time>2026-05-04T14:17:05Z</time></trkpt><trkpt lat="43.693946194692344" lon="11.83570297883554"><ele>402.0</ele><time>2026-05-04T14:17:16Z</time></trkpt><trkpt lat="43.69386923220447" lon="11.835615476163511"><ele>401.0</ele><time>2026-05-04T14:17:29Z</time></trkpt><trkpt lat="43.69381525309438" lon="11.835504922072731"><ele>400.0</ele><time>2026-05-04T14:17:31Z</time></trkpt><trkpt lat="43.693756558933835" lon="11.835422095270989"><ele>399.0</ele><time>2026-05-04T14:17:33Z</time></trkpt><trkpt lat="43.693780585219336" lon="11.835339888947574"><ele>398.0</ele><time>2026-05-04T14:17:36Z</time></trkpt><trkpt lat="43.69386591540348" lon="11.835296747226838"><ele>397.0</ele><time>2026-05-04T14:17:38Z</time></trkpt><trkpt lat="43.693982369886" lon="11.835251377909614"><ele>397.0</ele><time>2026-05-04T14:17:40Z</time></trkpt><trkpt lat="43.69407365194661" lon="11.835150981072347"><ele>397.0</ele><time>2026-05-04T14:17:42Z</time></trkpt><trkpt lat="43.69410163341856" lon="11.834961647390939"><ele>397.0</ele><time>2026-05-04T14:17:44Z</time></trkpt><trkpt lat="43.69409347813092" lon="11.834835721248913"><ele>397.0</ele><time>2026-05-04T14:17:45Z</time></trkpt><trkpt lat="43.69409435757608" lon="11.834697270198916"><ele>397.0</ele><time>2026-05-04T14:17:46Z</time></trkpt><trkpt lat="43.694104196577136" lon="11.834567249499859"><ele>394.8</ele><time>2026-05-04T14:17:47Z</time></trkpt><trkpt lat="43.69411404170264" lon="11.834436124203192"><ele>392.6</ele><time>2026-05-04T14:17:48Z</time></trkpt><trkpt lat="43.69412293163237" lon="11.834302856815219"><ele>390.40000000000003</ele><time>2026-05-04T14:17:49Z</time></trkpt><trkpt lat="43.694135244279586" lon="11.834177502836303"><ele>388.20000000000005</ele><time>2026-05-04T14:17:50Z</time></trkpt><trkpt lat="43.694167461375585" lon="11.834047038646599"><ele>386.0</ele><time>2026-05-04T14:17:51Z</time></trkpt><trkpt lat="43.69418257314523" lon="11.833926550539747"><ele>384.99999999999994</ele><time>2026-05-04T14:17:52Z</time></trkpt><trkpt lat="43.69420069631637" lon="11.833811649494956"><ele>384.0</ele><time>2026-05-04T14:17:53Z</time></trkpt><trkpt lat="43.69421881575978" lon="11.833707515764639"><ele>383.0</ele><time>2026-05-04T14:17:54Z</time></trkpt><trkpt lat="43.69422465802669" lon="11.83357999030672"><ele>382.0</ele><time>2026-05-04T14:17:55Z</time></trkpt><trkpt lat="43.69424959277695" lon="11.83345948127561"><ele>381.0</ele><time>2026-05-04T14:17:56Z</time></trkpt><trkpt lat="43.694269370293874" lon="11.833336220541485"><ele>380.0</ele><time>2026-05-04T14:17:57Z</time></trkpt><trkpt lat="43.69427572442321" lon="11.833206175902871"><ele>378.0</ele><time>2026-05-04T14:17:58Z</time></trkpt><trkpt lat="43.69428293854306" lon="11.83308062246492"><ele>376.0</ele><time>2026-05-04T14:17:59Z</time></trkpt><trkpt lat="43.69429534872733" lon="11.832930008966608"><ele>374.0</ele><time>2026-05-04T14:18:00Z</time></trkpt><trkpt lat="43.694282802127915" lon="11.832800069712322"><ele>372.0</ele><time>2026-05-04T14:18:01Z</time></trkpt><trkpt lat="43.694280971091914" lon="11.832674603657557"><ele>370.0</ele><time>2026-05-04T14:18:02Z</time></trkpt><trkpt lat="43.694289122099285" lon="11.8325398343764"><ele>368.0</ele><time>2026-05-04T14:18:03Z</time></trkpt><trkpt lat="43.6943057124768" lon="11.832405007223862"><ele>366.0</ele><time>2026-05-04T14:18:04Z</time></trkpt><trkpt lat="43.69432808512923" lon="11.832266755863065"><ele>364.0</ele><time>2026-05-04T14:18:05Z</time></trkpt><trkpt lat="43.69434840522778" lon="11.832126164053713"><ele>362.0</ele><time>2026-05-04T14:18:06Z</time></trkpt><trkpt lat="43.69436272854475" lon="11.831987972204955"><ele>360.0</ele><time>2026-05-04T14:18:07Z</time></trkpt><trkpt lat="43.69438260404857" lon="11.831844992257025"><ele>359.2</ele><time>2026-05-04T14:18:08Z</time></trkpt><trkpt lat="43.69440381685709" lon="11.831715046661536"><ele>358.4</ele><time>2026-05-04T14:18:09Z</time></trkpt><trkpt lat="43.69442849879128" lon="11.83159104308678"><ele>357.6</ele><time>2026-05-04T14:18:10Z</time></trkpt><trkpt lat="43.69445175102137" lon="11.831458269367364"><ele>356.8</ele><time>2026-05-04T14:18:11Z</time></trkpt><trkpt lat="43.69447247324927" lon="11.831326076229717"><ele>356.0</ele><time>2026-05-04T14:18:12Z</time></trkpt><trkpt lat="43.69449879614483" lon="11.831183704323916"><ele>355.83333333333337</ele><time>2026-05-04T14:18:13Z</time></trkpt><trkpt lat="43.69453028441892" lon="11.83105510232344"><ele>355.6666666666667</ele><time>2026-05-04T14:18:14Z</time></trkpt><trkpt lat="43.69453859195308" lon="11.830948683392709"><ele>355.5</ele><time>2026-05-04T14:18:15Z</time></trkpt><trkpt lat="43.69454370576488" lon="11.830838224714752"><ele>355.3333333333333</ele><time>2026-05-04T14:18:16Z</time></trkpt><trkpt lat="43.69453422961139" lon="11.830725933622983"><ele>355.16666666666663</ele><time>2026-05-04T14:18:17Z</time></trkpt><trkpt lat="43.69451564960969" lon="11.830627085884053"><ele>355.0</ele><time>2026-05-04T14:18:18Z</time></trkpt><trkpt lat="43.694505073453975" lon="11.830522348690476"><ele>354.4</ele><time>2026-05-04T14:18:19Z</time></trkpt><trkpt lat="43.69445921500142" lon="11.830445635665866"><ele>353.8</ele><time>2026-05-04T14:18:20Z</time></trkpt><trkpt lat="43.694409997014425" lon="11.830298587529311"><ele>353.20000000000005</ele><time>2026-05-04T14:18:22Z</time></trkpt><trkpt lat="43.69445340917911" lon="11.830194962135115"><ele>352.6</ele><time>2026-05-04T14:18:23Z</time></trkpt><trkpt lat="43.694468099034346" lon="11.830071861368062"><ele>352.0</ele><time>2026-05-04T14:18:24Z</time></trkpt><trkpt lat="43.694502061941414" lon="11.829945464370935"><ele>350.40000000000003</ele><time>2026-05-04T14:18:25Z</time></trkpt><trkpt lat="43.69452079349782" lon="11.829828584091025"><ele>348.8</ele><time>2026-05-04T14:18:26Z</time></trkpt><trkpt lat="43.69454809422763" lon="11.829709035673023"><ele>347.2</ele><time>2026-05-04T14:18:27Z</time></trkpt><trkpt lat="43.69457875884751" lon="11.82958198976861"><ele>345.6</ele><time>2026-05-04T14:18:28Z</time></trkpt><trkpt lat="43.69460987756395" lon="11.829467950429626"><ele>344.0</ele><time>2026-05-04T14:18:29Z</time></trkpt><trkpt lat="43.694638477340234" lon="11.829353562477115"><ele>342.83333333333337</ele><time>2026-05-04T14:18:30Z</time></trkpt><trkpt lat="43.694669216087874" lon="11.829245868394127"><ele>341.6666666666667</ele><time>2026-05-04T14:18:31Z</time></trkpt><trkpt lat="43.694696258562054" lon="11.829143995742408"><ele>340.5</ele><time>2026-05-04T14:18:32Z</time></trkpt><trkpt lat="43.69472109759743" lon="11.829037647229677"><ele>339.3333333333333</ele><time>2026-05-04T14:18:33Z</time></trkpt><trkpt lat="43.69473743780711" lon="11.828931298677983"><ele>338.16666666666663</ele><time>2026-05-04T14:18:34Z</time></trkpt><trkpt lat="43.694767788239446" lon="11.828814799314895"><ele>337.0</ele><time>2026-05-04T14:18:35Z</time></trkpt><trkpt lat="43.69478483756801" lon="11.828699866214345"><ele>337.0</ele><time>2026-05-04T14:18:36Z</time></trkpt><trkpt lat="43.69479840481927" lon="11.828565840335104"><ele>337.0</ele><time>2026-05-04T14:18:37Z</time></trkpt><trkpt lat="43.69480154630549" lon="11.828431903506193"><ele>337.0</ele><time>2026-05-04T14:18:38Z</time></trkpt><trkpt lat="43.69479730118245" lon="11.828300924953192"><ele>337.0</ele><time>2026-05-04T14:18:39Z</time></trkpt><trkpt lat="43.69478443401082" lon="11.82818638482648"><ele>337.0</ele><time>2026-05-04T14:18:40Z</time></trkpt><trkpt lat="43.694780880101305" lon="11.828068770210022"><ele>336.0</ele><time>2026-05-04T14:18:41Z</time></trkpt><trkpt lat="43.69475440256398" lon="11.827960025492445"><ele>335.0</ele><time>2026-05-04T14:18:42Z</time></trkpt><trkpt lat="43.6947495722051" lon="11.827869252854123"><ele>334.0</ele><time>2026-05-04T14:18:43Z</time></trkpt><trkpt lat="43.69477333415169" lon="11.82778107073783"><ele>333.0</ele><time>2026-05-04T14:18:44Z</time></trkpt><trkpt lat="43.69478571849822" lon="11.827665565472298"><ele>332.0</ele><time>2026-05-04T14:18:45Z</time></trkpt><trkpt lat="43.69481005764619" lon="11.827555783173546"><ele>331.0</ele><time>2026-05-04T14:18:46Z</time></trkpt><trkpt lat="43.694837445310434" lon="11.82743496876109"><ele>330.8</ele><time>2026-05-04T14:18:47Z</time></trkpt><trkpt lat="43.69486774440689" lon="11.827326028548764"><ele>330.6</ele><time>2026-05-04T14:18:48Z</time></trkpt><trkpt lat="43.69491104634457" lon="11.827197028891035"><ele>330.4</ele><time>2026-05-04T14:18:49Z</time></trkpt><trkpt lat="43.69497190552594" lon="11.82709443448431"><ele>330.2</ele><time>2026-05-04T14:18:50Z</time></trkpt><trkpt lat="43.694991934195144" lon="11.826970466877626"><ele>330.0</ele><time>2026-05-04T14:18:51Z</time></trkpt><trkpt lat="43.69503257839663" lon="11.826871825995012"><ele>330.0</ele><time>2026-05-04T14:18:52Z</time></trkpt><trkpt lat="43.695109610585355" lon="11.826820907017936"><ele>330.0</ele><time>2026-05-04T14:18:53Z</time></trkpt><trkpt lat="43.69514833603248" lon="11.826740769188598"><ele>330.0</ele><time>2026-05-04T14:18:54Z</time></trkpt><trkpt lat="43.69518844630678" lon="11.826663723207567"><ele>330.0</ele><time>2026-05-04T14:18:55Z</time></trkpt><trkpt lat="43.69519507528835" lon="11.826562677106502"><ele>330.0</ele><time>2026-05-04T14:18:56Z</time></trkpt><trkpt lat="43.69518965244862" lon="11.826442406715096"><ele>330.0</ele><time>2026-05-04T14:18:57Z</time></trkpt><trkpt lat="43.695172296654114" lon="11.826306573275591"><ele>330.8</ele><time>2026-05-04T14:18:58Z</time></trkpt><trkpt lat="43.695181486408906" lon="11.826160474319892"><ele>331.6</ele><time>2026-05-04T14:18:59Z</time></trkpt><trkpt lat="43.69515826901263" lon="11.826009504414753"><ele>332.4</ele><time>2026-05-04T14:19:00Z</time></trkpt><trkpt lat="43.69515652587865" lon="11.825852820406384"><ele>333.2</ele><time>2026-05-04T14:19:01Z</time></trkpt><trkpt lat="43.695141719562166" lon="11.825704125600401"><ele>334.0</ele><time>2026-05-04T14:19:02Z</time></trkpt><trkpt lat="43.69511428172446" lon="11.82555258102112"><ele>335.75</ele><time>2026-05-04T14:19:03Z</time></trkpt><trkpt lat="43.695069824733615" lon="11.825392153663882"><ele>337.5</ele><time>2026-05-04T14:19:04Z</time></trkpt><trkpt lat="43.695023517659514" lon="11.825227680550435"><ele>339.25</ele><time>2026-05-04T14:19:05Z</time></trkpt><trkpt lat="43.694982705280225" lon="11.825068201507502"><ele>341.0</ele><time>2026-05-04T14:19:06Z</time></trkpt><trkpt lat="43.69494481321267" lon="11.824877877846204"><ele>343.5</ele><time>2026-05-04T14:19:07Z</time></trkpt><trkpt lat="43.69490778109624" lon="11.824669821444484"><ele>346.0</ele><time>2026-05-04T14:19:08Z</time></trkpt><trkpt lat="43.69485856688106" lon="11.824471838377866"><ele>348.5</ele><time>2026-05-04T14:19:09Z</time></trkpt><trkpt lat="43.69482000257749" lon="11.824318495182176"><ele>351.0</ele><time>2026-05-04T14:19:10Z</time></trkpt><trkpt lat="43.694785060590696" lon="11.824187569896864"><ele>352.3333333333333</ele><time>2026-05-04T14:19:11Z</time></trkpt><trkpt lat="43.69475381806993" lon="11.824081583511985"><ele>353.6666666666667</ele><time>2026-05-04T14:19:12Z</time></trkpt><trkpt lat="43.69473067201282" lon="11.823988384728091"><ele>355.0</ele><time>2026-05-04T14:19:13Z</time></trkpt><trkpt lat="43.69471170508389" lon="11.82385123640208"><ele>356.33333333333337</ele><time>2026-05-04T14:19:15Z</time></trkpt><trkpt lat="43.69476781462432" lon="11.823747080628833"><ele>357.6666666666667</ele><time>2026-05-04T14:19:17Z</time></trkpt><trkpt lat="43.6948104029101" lon="11.823674331005552"><ele>359.0</ele><time>2026-05-04T14:19:18Z</time></trkpt><trkpt lat="43.69487095430356" lon="11.823609455586427"><ele>359.0</ele><time>2026-05-04T14:19:19Z</time></trkpt><trkpt lat="43.69491068461182" lon="11.823514488376288"><ele>359.0</ele><time>2026-05-04T14:19:20Z</time></trkpt><trkpt lat="43.69495935566863" lon="11.823432082559801"><ele>359.0</ele><time>2026-05-04T14:19:21Z</time></trkpt><trkpt lat="43.69501019290526" lon="11.823339367320104"><ele>359.0</ele><time>2026-05-04T14:19:22Z</time></trkpt><trkpt lat="43.69505542074931" lon="11.823248935623145"><ele>359.0</ele><time>2026-05-04T14:19:23Z</time></trkpt><trkpt lat="43.695094307852145" lon="11.82315813707527"><ele>359.0</ele><time>2026-05-04T14:19:24Z</time></trkpt><trkpt lat="43.69513129526504" lon="11.823052210647678"><ele>360.0</ele><time>2026-05-04T14:19:25Z</time></trkpt><trkpt lat="43.695152492536" lon="11.822949261160796"><ele>361.0</ele><time>2026-05-04T14:19:26Z</time></trkpt><trkpt lat="43.695170760474454" lon="11.822840366700575"><ele>362.0</ele><time>2026-05-04T14:19:27Z</time></trkpt><trkpt lat="43.6951822580023" lon="11.822744089647927"><ele>363.0</ele><time>2026-05-04T14:19:28Z</time></trkpt><trkpt lat="43.695202639705606" lon="11.822589854646482"><ele>364.0</ele><time>2026-05-04T14:19:30Z</time></trkpt><trkpt lat="43.695268717474804" lon="11.822463812305914"><ele>365.2</ele><time>2026-05-04T14:19:32Z</time></trkpt><trkpt lat="43.69541346414254" lon="11.82245662397001"><ele>366.4</ele><time>2026-05-04T14:19:34Z</time></trkpt><trkpt lat="43.695485977212684" lon="11.8224399256933"><ele>367.6</ele><time>2026-05-04T14:19:35Z</time></trkpt><trkpt lat="43.69555265352804" lon="11.822403450246828"><ele>368.8</ele><time>2026-05-04T14:19:36Z</time></trkpt><trkpt lat="43.69566969740434" lon="11.82240345382011"><ele>370.0</ele><time>2026-05-04T14:19:38Z</time></trkpt><trkpt lat="43.69575628089308" lon="11.82238803048405"><ele>370.0</ele><time>2026-05-04T14:19:40Z</time></trkpt><trkpt lat="43.695771695881895" lon="11.822213511645735"><ele>370.0</ele><time>2026-05-04T14:19:42Z</time></trkpt><trkpt lat="43.69579422855112" lon="11.822070307528318"><ele>370.0</ele><time>2026-05-04T14:19:44Z</time></trkpt><trkpt lat="43.695876672061374" lon="11.822028483822086"><ele>370.0</ele><time>2026-05-04T14:19:46Z</time></trkpt><trkpt lat="43.696003330211326" lon="11.822068552342186"><ele>370.0</ele><time>2026-05-04T14:19:48Z</time></trkpt><trkpt lat="43.69607545251403" lon="11.822105337374861"><ele>370.0</ele><time>2026-05-04T14:19:49Z</time></trkpt><trkpt lat="43.696151977519804" lon="11.822122071478917"><ele>370.0</ele><time>2026-05-04T14:19:50Z</time></trkpt><trkpt lat="43.696230978756844" lon="11.822141762183673"><ele>370.0</ele><time>2026-05-04T14:19:51Z</time></trkpt><trkpt lat="43.696310234474865" lon="11.82216072798374"><ele>370.0</ele><time>2026-05-04T14:19:52Z</time></trkpt><trkpt lat="43.69640111211204" lon="11.822182474940963"><ele>370.0</ele><time>2026-05-04T14:19:53Z</time></trkpt><trkpt lat="43.69648410413145" lon="11.822200008014237"><ele>370.0</ele><time>2026-05-04T14:19:54Z</time></trkpt><trkpt lat="43.69657132146104" lon="11.822200407335194"><ele>370.0</ele><time>2026-05-04T14:19:55Z</time></trkpt><trkpt lat="43.69666150942963" lon="11.822232589762516"><ele>370.0</ele><time>2026-05-04T14:19:56Z</time></trkpt><trkpt lat="43.6967317923588" lon="11.822247625552226"><ele>370.0</ele><time>2026-05-04T14:19:57Z</time></trkpt><trkpt lat="43.69680699032362" lon="11.822258213977774"><ele>370.0</ele><time>2026-05-04T14:19:58Z</time></trkpt><trkpt lat="43.69687238020577" lon="11.822287211501411"><ele>370.0</ele><time>2026-05-04T14:19:59Z</time></trkpt><trkpt lat="43.696940335076995" lon="11.822285643141731"><ele>370.8333333333333</ele><time>2026-05-04T14:20:00Z</time></trkpt><trkpt lat="43.69700011732003" lon="11.822250325050737"><ele>371.66666666666663</ele><time>2026-05-04T14:20:01Z</time></trkpt><trkpt lat="43.69703358943214" lon="11.822143963617952"><ele>372.5</ele><time>2026-05-04T14:20:02Z</time></trkpt><trkpt lat="43.69706936633977" lon="11.822071488641084"><ele>373.3333333333333</ele><time>2026-05-04T14:20:03Z</time></trkpt><trkpt lat="43.69710548434878" lon="11.821975826702367"><ele>374.1666666666667</ele><time>2026-05-04T14:20:04Z</time></trkpt><trkpt lat="43.697169001816434" lon="11.821889398418142"><ele>375.0</ele><time>2026-05-04T14:20:05Z</time></trkpt><trkpt lat="43.69720615250504" lon="11.8217799395789"><ele>375.8333333333333</ele><time>2026-05-04T14:20:06Z</time></trkpt><trkpt lat="43.69725273648712" lon="11.821699192746467"><ele>376.6666666666667</ele><time>2026-05-04T14:20:07Z</time></trkpt><trkpt lat="43.697308055753325" lon="11.82159468167637"><ele>377.5</ele><time>2026-05-04T14:20:09Z</time></trkpt><trkpt lat="43.697358408517864" lon="11.821527480129987"><ele>378.33333333333337</ele><time>2026-05-04T14:20:13Z</time></trkpt><trkpt lat="43.69731047508447" lon="11.82143900342118"><ele>379.1666666666667</ele><time>2026-05-04T14:20:14Z</time></trkpt><trkpt lat="43.69726944994324" lon="11.821348193427017"><ele>380.0</ele><time>2026-05-04T14:20:15Z</time></trkpt><trkpt lat="43.69726331452241" lon="11.821247704728277"><ele>380.0</ele><time>2026-05-04T14:20:16Z</time></trkpt><trkpt lat="43.697251211095015" lon="11.821156087479588"><ele>380.0</ele><time>2026-05-04T14:20:17Z</time></trkpt><trkpt lat="43.69724426642328" lon="11.821056075044467"><ele>380.0</ele><time>2026-05-04T14:20:18Z</time></trkpt><trkpt lat="43.69724851480771" lon="11.820966035680593"><ele>380.0</ele><time>2026-05-04T14:20:19Z</time></trkpt><trkpt lat="43.69726736726637" lon="11.820854135675964"><ele>380.0</ele><time>2026-05-04T14:20:20Z</time></trkpt><trkpt lat="43.69728765997524" lon="11.820732764109875"><ele>380.0</ele><time>2026-05-04T14:20:21Z</time></trkpt><trkpt lat="43.697311806328365" lon="11.820605150437395"><ele>381.0</ele><time>2026-05-04T14:20:22Z</time></trkpt><trkpt lat="43.697341332333956" lon="11.820497147421511"><ele>382.0</ele><time>2026-05-04T14:20:23Z</time></trkpt><trkpt lat="43.697370970283714" lon="11.820400751272361"><ele>383.0</ele><time>2026-05-04T14:20:24Z</time></trkpt><trkpt lat="43.697416575616515" lon="11.82027278041786"><ele>384.0</ele><time>2026-05-04T14:20:26Z</time></trkpt><trkpt lat="43.697447339352486" lon="11.820188878952798"><ele>384.99999999999994</ele><time>2026-05-04T14:20:28Z</time></trkpt><trkpt lat="43.697543402268046" lon="11.820227556692242"><ele>386.0</ele><time>2026-05-04T14:20:38Z</time></trkpt><trkpt lat="43.69763232873419" lon="11.820273405424285"><ele>386.0</ele><time>2026-05-04T14:20:40Z</time></trkpt><trkpt lat="43.69773881011019" lon="11.820338324647377"><ele>386.0</ele><time>2026-05-04T14:20:42Z</time></trkpt><trkpt lat="43.697826311853014" lon="11.820405043394361"><ele>386.0</ele><time>2026-05-04T14:20:44Z</time></trkpt><trkpt lat="43.69789381953866" lon="11.820452079790867"><ele>386.0</ele><time>2026-05-04T14:20:46Z</time></trkpt><trkpt lat="43.69797891422411" lon="11.820331059750485"><ele>386.0</ele><time>2026-05-04T14:20:50Z</time></trkpt><trkpt lat="43.69799204046944" lon="11.820234482334481"><ele>389.20000000000005</ele><time>2026-05-04T14:20:51Z</time></trkpt><trkpt lat="43.69804354073269" lon="11.820099811316235"><ele>392.40000000000003</ele><time>2026-05-04T14:20:53Z</time></trkpt><trkpt lat="43.698079847117626" lon="11.819997262729343"><ele>395.6</ele><time>2026-05-04T14:20:56Z</time></trkpt><trkpt lat="43.69813129838915" lon="11.819842156840497"><ele>398.8</ele><time>2026-05-04T14:20:58Z</time></trkpt><trkpt lat="43.69816156037142" lon="11.819753049331355"><ele>402.0</ele><time>2026-05-04T14:20:59Z</time></trkpt><trkpt lat="43.69818992787838" lon="11.819674764479664"><ele>402.0</ele><time>2026-05-04T14:21:00Z</time></trkpt><trkpt lat="43.6981682935588" lon="11.819559251004113"><ele>402.0</ele><time>2026-05-04T14:21:02Z</time></trkpt><trkpt lat="43.69807140285707" lon="11.819510932266983"><ele>402.0</ele><time>2026-05-04T14:21:04Z</time></trkpt><trkpt lat="43.69803991077877" lon="11.81941542558523"><ele>402.0</ele><time>2026-05-04T14:21:59Z</time></trkpt><trkpt lat="43.697978680705724" lon="11.819338209279405"><ele>402.0</ele><time>2026-05-04T14:22:01Z</time></trkpt><trkpt lat="43.69791374262838" lon="11.819316017719014"><ele>402.0</ele><time>2026-05-04T14:22:02Z</time></trkpt><trkpt lat="43.69785041746052" lon="11.819295279418892"><ele>403.0</ele><time>2026-05-04T14:22:03Z</time></trkpt><trkpt lat="43.697738615102075" lon="11.8192332397284"><ele>404.0</ele><time>2026-05-04T14:22:05Z</time></trkpt><trkpt lat="43.6976310922012" lon="11.81917777661524"><ele>405.0</ele><time>2026-05-04T14:22:07Z</time></trkpt><trkpt lat="43.697572643526335" lon="11.819145081782084"><ele>406.0</ele><time>2026-05-04T14:22:08Z</time></trkpt><trkpt lat="43.697460495855516" lon="11.819089751055719"><ele>407.0</ele><time>2026-05-04T14:22:10Z</time></trkpt><trkpt lat="43.69740063791131" lon="11.819059540305528"><ele>406.99999999999994</ele><time>2026-05-04T14:22:11Z</time></trkpt><trkpt lat="43.69733931592808" lon="11.819038049259078"><ele>407.0</ele><time>2026-05-04T14:22:12Z</time></trkpt><trkpt lat="43.69727531545951" lon="11.819004293196315"><ele>407.0</ele><time>2026-05-04T14:22:13Z</time></trkpt><trkpt lat="43.69717291753089" lon="11.818938166449005"><ele>407.0</ele><time>2026-05-04T14:22:15Z</time></trkpt><trkpt lat="43.697078584817156" lon="11.818895888863826"><ele>406.99999999999994</ele><time>2026-05-04T14:22:17Z</time></trkpt><trkpt lat="43.69700539148427" lon="11.818842397054496"><ele>407.0</ele><time>2026-05-04T14:22:19Z</time></trkpt><trkpt lat="43.696930784969425" lon="11.81879758818983"><ele>407.40000000000003</ele><time>2026-05-04T14:22:22Z</time></trkpt><trkpt lat="43.696851652155" lon="11.818765521837639"><ele>407.8</ele><time>2026-05-04T14:22:25Z</time></trkpt><trkpt lat="43.696766589270695" lon="11.818673631837012"><ele>408.2</ele><time>2026-05-04T14:22:27Z</time></trkpt><trkpt lat="43.696710485608925" lon="11.818535794087188"><ele>408.6</ele><time>2026-05-04T14:22:29Z</time></trkpt><trkpt lat="43.69666988043481" lon="11.818400085968669"><ele>409.0</ele><time>2026-05-04T14:22:31Z</time></trkpt><trkpt lat="43.696644595334334" lon="11.818300320140901"><ele>409.0</ele><time>2026-05-04T14:22:33Z</time></trkpt><trkpt lat="43.696645809058694" lon="11.818212574173147"><ele>409.0</ele><time>2026-05-04T14:22:36Z</time></trkpt><trkpt lat="43.69665137729999" lon="11.818311560158591"><ele>409.0</ele><time>2026-05-04T14:22:47Z</time></trkpt><trkpt lat="43.696675347486654" lon="11.818414711578953"><ele>409.0</ele><time>2026-05-04T14:22:49Z</time></trkpt><trkpt lat="43.69670413093937" lon="11.81852272194508"><ele>409.0</ele><time>2026-05-04T14:22:52Z</time></trkpt><trkpt lat="43.69673082414494" lon="11.818606377988313"><ele>409.0</ele><time>2026-05-04T14:22:55Z</time></trkpt><trkpt lat="43.69677112241312" lon="11.818674601516484"><ele>409.0</ele><time>2026-05-04T14:22:59Z</time></trkpt><trkpt lat="43.69683701023257" lon="11.81878285345201"><ele>408.6666666666667</ele><time>2026-05-04T14:23:11Z</time></trkpt><trkpt lat="43.69694407172136" lon="11.818843390208457"><ele>408.33333333333337</ele><time>2026-05-04T14:23:13Z</time></trkpt><trkpt lat="43.69701405131379" lon="11.818883181168802"><ele>408.0</ele><time>2026-05-04T14:23:14Z</time></trkpt><trkpt lat="43.697080177336865" lon="11.81892674104248"><ele>407.66666666666663</ele><time>2026-05-04T14:23:15Z</time></trkpt><trkpt lat="43.69715923239796" lon="11.818959108355841"><ele>407.3333333333333</ele><time>2026-05-04T14:23:16Z</time></trkpt><trkpt lat="43.69724010849339" lon="11.818998648511007"><ele>407.0</ele><time>2026-05-04T14:23:17Z</time></trkpt><trkpt lat="43.69731591580037" lon="11.81904491294821"><ele>406.99999999999994</ele><time>2026-05-04T14:23:18Z</time></trkpt><trkpt lat="43.697391110474875" lon="11.81907860164708"><ele>407.0</ele><time>2026-05-04T14:23:19Z</time></trkpt><trkpt lat="43.697467282462874" lon="11.819137545950648"><ele>407.0</ele><time>2026-05-04T14:23:20Z</time></trkpt><trkpt lat="43.69756938622292" lon="11.819177214569061"><ele>407.0</ele><time>2026-05-04T14:23:21Z</time></trkpt><trkpt lat="43.697633164936725" lon="11.819218569351143"><ele>406.99999999999994</ele><time>2026-05-04T14:23:22Z</time></trkpt><trkpt lat="43.69770898681548" lon="11.819256090559456"><ele>407.0</ele><time>2026-05-04T14:23:23Z</time></trkpt><trkpt lat="43.697792631879594" lon="11.819292271242192"><ele>406.16666666666663</ele><time>2026-05-04T14:23:24Z</time></trkpt><trkpt lat="43.697874257347415" lon="11.819324880946136"><ele>405.3333333333333</ele><time>2026-05-04T14:23:25Z</time></trkpt><trkpt lat="43.69795553969212" lon="11.81937414874207"><ele>404.5</ele><time>2026-05-04T14:23:26Z</time></trkpt><trkpt lat="43.698033712057075" lon="11.819424326855799"><ele>403.66666666666663</ele><time>2026-05-04T14:23:27Z</time></trkpt><trkpt lat="43.69810372367739" lon="11.819462159246681"><ele>402.8333333333333</ele><time>2026-05-04T14:23:28Z</time></trkpt><trkpt lat="43.698193929556034" lon="11.819517848758341"><ele>402.0</ele><time>2026-05-04T14:23:29Z</time></trkpt><trkpt lat="43.69828352409269" lon="11.819545212780719"><ele>402.0</ele><time>2026-05-04T14:23:30Z</time></trkpt><trkpt lat="43.6983871867473" lon="11.819610814918725"><ele>402.0</ele><time>2026-05-04T14:23:31Z</time></trkpt><trkpt lat="43.698466222108635" lon="11.819659336409291"><ele>402.0</ele><time>2026-05-04T14:23:32Z</time></trkpt><trkpt lat="43.69855712760238" lon="11.819703924212389"><ele>402.0</ele><time>2026-05-04T14:23:33Z</time></trkpt><trkpt lat="43.698644045583514" lon="11.819758102016063"><ele>402.0</ele><time>2026-05-04T14:23:34Z</time></trkpt><trkpt lat="43.69872597063777" lon="11.819804653287862"><ele>402.1666666666667</ele><time>2026-05-04T14:23:35Z</time></trkpt><trkpt lat="43.69880325008151" lon="11.81984950671471"><ele>402.33333333333337</ele><time>2026-05-04T14:23:36Z</time></trkpt><trkpt lat="43.698883902955416" lon="11.819897724023319"><ele>402.5</ele><time>2026-05-04T14:23:37Z</time></trkpt><trkpt lat="43.698976156730666" lon="11.819936394202914"><ele>402.6666666666667</ele><time>2026-05-04T14:23:38Z</time></trkpt><trkpt lat="43.699061384469296" lon="11.819978104857846"><ele>402.83333333333337</ele><time>2026-05-04T14:23:39Z</time></trkpt><trkpt lat="43.69914472005752" lon="11.82002274750105"><ele>403.0</ele><time>2026-05-04T14:23:40Z</time></trkpt><trkpt lat="43.69923002899577" lon="11.820062096910133"><ele>403.00000000000006</ele><time>2026-05-04T14:23:41Z</time></trkpt><trkpt lat="43.69929930993885" lon="11.820109412224134"><ele>403.0</ele><time>2026-05-04T14:23:42Z</time></trkpt><trkpt lat="43.69937306551674" lon="11.820142202842973"><ele>403.0</ele><time>2026-05-04T14:23:43Z</time></trkpt><trkpt lat="43.69944647594054" lon="11.82016651556753"><ele>403.0</ele><time>2026-05-04T14:23:44Z</time></trkpt><trkpt lat="43.69951685572818" lon="11.820207545770218"><ele>403.00000000000006</ele><time>2026-05-04T14:23:45Z</time></trkpt><trkpt lat="43.69957683682725" lon="11.820238947820716"><ele>403.0</ele><time>2026-05-04T14:23:46Z</time></trkpt><trkpt lat="43.69968042147219" lon="11.820291902974834"><ele>407.0</ele><time>2026-05-04T14:23:48Z</time></trkpt><trkpt lat="43.69974372451708" lon="11.820323789213731"><ele>407.0</ele><time>2026-05-04T14:23:50Z</time></trkpt></trkseg><trkseg><trkpt lat="43.699687553419245" lon="11.820259851845737"><ele>407.00000000000006</ele><time>2026-05-04T14:49:01Z</time></trkpt><trkpt lat="43.6995905370601" lon="11.820213865496969"><ele>407.0</ele><time>2026-05-04T14:49:03Z</time></trkpt><trkpt lat="43.69953021630172" lon="11.820182497837603"><ele>407.0</ele><time>2026-05-04T14:49:04Z</time></trkpt><trkpt lat="43.69947018593206" lon="11.820155066927645"><ele>407.0</ele><time>2026-05-04T14:49:05Z</time></trkpt><trkpt lat="43.699408340305176" lon="11.82012780431338"><ele>407.0</ele><time>2026-05-04T14:49:06Z</time></trkpt><trkpt lat="43.69934272581381" lon="11.82010078879967"><ele>407.00000000000006</ele><time>2026-05-04T14:49:07Z</time></trkpt><trkpt lat="43.69927724947154" lon="11.820060464250119"><ele>407.0</ele><time>2026-05-04T14:49:08Z</time></trkpt><trkpt lat="43.699212193952185" lon="11.820031968817746"><ele>406.42857142857144</ele><time>2026-05-04T14:49:09Z</time></trkpt><trkpt lat="43.69915025441714" lon="11.81997971275433"><ele>405.8571428571429</ele><time>2026-05-04T14:49:10Z</time></trkpt><trkpt lat="43.69908499707378" lon="11.81994520052639"><ele>405.28571428571433</ele><time>2026-05-04T14:49:11Z</time></trkpt><trkpt lat="43.69901765442398" lon="11.819909586028945"><ele>404.7142857142857</ele><time>2026-05-04T14:49:12Z</time></trkpt><trkpt lat="43.698953997231065" lon="11.819876328190754"><ele>404.1428571428571</ele><time>2026-05-04T14:49:13Z</time></trkpt><trkpt lat="43.698877270811494" lon="11.819836055594067"><ele>403.5714285714286</ele><time>2026-05-04T14:49:14Z</time></trkpt><trkpt lat="43.6987992387226" lon="11.819794165340895"><ele>403.0</ele><time>2026-05-04T14:49:15Z</time></trkpt><trkpt lat="43.698721908137365" lon="11.819772477653194"><ele>403.00000000000006</ele><time>2026-05-04T14:49:16Z</time></trkpt><trkpt lat="43.69865956333442" lon="11.819737026034435"><ele>403.0</ele><time>2026-05-04T14:49:17Z</time></trkpt><trkpt lat="43.698585648904796" lon="11.819696099205778"><ele>403.0</ele><time>2026-05-04T14:49:18Z</time></trkpt><trkpt lat="43.69850938371953" lon="11.8196556391019"><ele>403.0</ele><time>2026-05-04T14:49:19Z</time></trkpt><trkpt lat="43.69841976789857" lon="11.819604238527464"><ele>403.00000000000006</ele><time>2026-05-04T14:49:20Z</time></trkpt><trkpt lat="43.69832314933296" lon="11.819557799078796"><ele>403.0</ele><time>2026-05-04T14:49:21Z</time></trkpt><trkpt lat="43.698222697304935" lon="11.819497965725999"><ele>402.79999999999995</ele><time>2026-05-04T14:49:22Z</time></trkpt><trkpt lat="43.6981304665285" lon="11.819454363341976"><ele>402.6</ele><time>2026-05-04T14:49:23Z</time></trkpt><trkpt lat="43.6980427281456" lon="11.819401580051583"><ele>402.4</ele><time>2026-05-04T14:49:24Z</time></trkpt><trkpt lat="43.697961718108616" lon="11.819362883274286"><ele>402.20000000000005</ele><time>2026-05-04T14:49:25Z</time></trkpt><trkpt lat="43.69788065029512" lon="11.819310297043694"><ele>402.0</ele><time>2026-05-04T14:49:26Z</time></trkpt><trkpt lat="43.69698249432018" lon="11.8171293730076"><ele>401.0</ele><time>2026-05-04T14:50:27Z</time></trkpt><trkpt lat="43.69696559549105" lon="11.817004327390444"><ele>400.0</ele><time>2026-05-04T14:50:28Z</time></trkpt><trkpt lat="43.69695768439252" lon="11.816877528017137"><ele>399.0</ele><time>2026-05-04T14:50:29Z</time></trkpt><trkpt lat="43.696947599483686" lon="11.816757692058774"><ele>398.0</ele><time>2026-05-04T14:50:30Z</time></trkpt><trkpt lat="43.69693988014" lon="11.816655031282767"><ele>397.0</ele><time>2026-05-04T14:50:31Z</time></trkpt><trkpt lat="43.69692541484815" lon="11.816565779722906"><ele>396.0</ele><time>2026-05-04T14:50:32Z</time></trkpt><trkpt lat="43.696915935358376" lon="11.816446231033467"><ele>394.4</ele><time>2026-05-04T14:50:34Z</time></trkpt><trkpt lat="43.696970799624445" lon="11.816379045977513"><ele>392.8</ele><time>2026-05-04T14:50:37Z</time></trkpt><trkpt lat="43.69710239154517" lon="11.81640406779171"><ele>391.2</ele><time>2026-05-04T14:50:39Z</time></trkpt><trkpt lat="43.69719505218485" lon="11.816418564859486"><ele>389.59999999999997</ele><time>2026-05-04T14:50:40Z</time></trkpt><trkpt lat="43.697294651471125" lon="11.816436435802409"><ele>388.0</ele><time>2026-05-04T14:50:41Z</time></trkpt><trkpt lat="43.697399019408195" lon="11.816453505005644"><ele>388.0</ele><time>2026-05-04T14:50:42Z</time></trkpt><trkpt lat="43.697503095757114" lon="11.816467620433452"><ele>388.0</ele><time>2026-05-04T14:50:43Z</time></trkpt><trkpt lat="43.69761185202742" lon="11.816486300745835"><ele>388.0</ele><time>2026-05-04T14:50:44Z</time></trkpt><trkpt lat="43.697724918025166" lon="11.816515663275439"><ele>388.0</ele><time>2026-05-04T14:50:45Z</time></trkpt><trkpt lat="43.69783629913296" lon="11.816530684407647"><ele>388.0</ele><time>2026-05-04T14:50:46Z</time></trkpt><trkpt lat="43.69795183598806" lon="11.816548170323584"><ele>386.2</ele><time>2026-05-04T14:50:47Z</time></trkpt><trkpt lat="43.69806793695649" lon="11.81656665566237"><ele>384.4</ele><time>2026-05-04T14:50:48Z</time></trkpt><trkpt lat="43.69818156446261" lon="11.816590552210675"><ele>382.59999999999997</ele><time>2026-05-04T14:50:49Z</time></trkpt><trkpt lat="43.698290073973894" lon="11.816598460875145"><ele>380.79999999999995</ele><time>2026-05-04T14:50:50Z</time></trkpt><trkpt lat="43.698382945618256" lon="11.8166142694263"><ele>379.0</ele><time>2026-05-04T14:50:51Z</time></trkpt><trkpt lat="43.69847659770769" lon="11.816622910822439"><ele>379.0</ele><time>2026-05-04T14:50:52Z</time></trkpt><trkpt lat="43.69857110371052" lon="11.816627753902225"><ele>379.0</ele><time>2026-05-04T14:50:53Z</time></trkpt><trkpt lat="43.6986684698205" lon="11.81663581620808"><ele>379.0</ele><time>2026-05-04T14:50:54Z</time></trkpt><trkpt lat="43.69876409317963" lon="11.816647231181657"><ele>379.0</ele><time>2026-05-04T14:50:55Z</time></trkpt><trkpt lat="43.69885924525332" lon="11.816661154795913"><ele>379.0</ele><time>2026-05-04T14:50:56Z</time></trkpt><trkpt lat="43.69895521820747" lon="11.81665385653997"><ele>377.6</ele><time>2026-05-04T14:50:57Z</time></trkpt><trkpt lat="43.69905006769789" lon="11.816658748776439"><ele>376.2</ele><time>2026-05-04T14:50:58Z</time></trkpt><trkpt lat="43.69915521287204" lon="11.816657044699351"><ele>374.8</ele><time>2026-05-04T14:50:59Z</time></trkpt><trkpt lat="43.69925778310276" lon="11.81666042886648"><ele>373.40000000000003</ele><time>2026-05-04T14:51:00Z</time></trkpt><trkpt lat="43.69936408079537" lon="11.816663576259614"><ele>372.0</ele><time>2026-05-04T14:51:01Z</time></trkpt><trkpt lat="43.69946789203444" lon="11.816664018418779"><ele>371.0</ele><time>2026-05-04T14:51:02Z</time></trkpt><trkpt lat="43.6995737936797" lon="11.816687127351276"><ele>370.0</ele><time>2026-05-04T14:51:03Z</time></trkpt><trkpt lat="43.69967802072813" lon="11.81668531473073"><ele>369.0</ele><time>2026-05-04T14:51:04Z</time></trkpt><trkpt lat="43.699787037350525" lon="11.816660099201437"><ele>368.0</ele><time>2026-05-04T14:51:05Z</time></trkpt><trkpt lat="43.69989111795049" lon="11.816667248911017"><ele>367.0</ele><time>2026-05-04T14:51:06Z</time></trkpt><trkpt lat="43.700000174769585" lon="11.816660709751918"><ele>367.0</ele><time>2026-05-04T14:51:07Z</time></trkpt><trkpt lat="43.70010585230292" lon="11.81668064803441"><ele>367.0</ele><time>2026-05-04T14:51:08Z</time></trkpt><trkpt lat="43.70021319226251" lon="11.816642027285514"><ele>367.0</ele><time>2026-05-04T14:51:09Z</time></trkpt><trkpt lat="43.70031456321005" lon="11.816597365042341"><ele>367.0</ele><time>2026-05-04T14:51:10Z</time></trkpt><trkpt lat="43.70042367612048" lon="11.816557731897847"><ele>367.0</ele><time>2026-05-04T14:51:11Z</time></trkpt><trkpt lat="43.70052374180945" lon="11.81647502290501"><ele>366.25</ele><time>2026-05-04T14:51:12Z</time></trkpt><trkpt lat="43.70060517933517" lon="11.816353982959994"><ele>365.5</ele><time>2026-05-04T14:51:13Z</time></trkpt><trkpt lat="43.700659384979815" lon="11.816207235337211"><ele>364.75</ele><time>2026-05-04T14:51:14Z</time></trkpt><trkpt lat="43.7007010408607" lon="11.816055876694863"><ele>364.0</ele><time>2026-05-04T14:51:15Z</time></trkpt><trkpt lat="43.700707429188476" lon="11.815891136752631"><ele>362.0</ele><time>2026-05-04T14:51:16Z</time></trkpt><trkpt lat="43.70069692331832" lon="11.815720589147352"><ele>360.0</ele><time>2026-05-04T14:51:17Z</time></trkpt><trkpt lat="43.70068168219908" lon="11.815548353974865"><ele>358.0</ele><time>2026-05-04T14:51:18Z</time></trkpt><trkpt lat="43.70066191176174" lon="11.815378917077066"><ele>356.0</ele><time>2026-05-04T14:51:19Z</time></trkpt><trkpt lat="43.70066187035548" lon="11.815207629042545"><ele>354.25</ele><time>2026-05-04T14:51:20Z</time></trkpt><trkpt lat="43.70064606837967" lon="11.815042612781685"><ele>352.5</ele><time>2026-05-04T14:51:21Z</time></trkpt><trkpt lat="43.7006227004965" lon="11.814880401383842"><ele>350.75</ele><time>2026-05-04T14:51:22Z</time></trkpt><trkpt lat="43.70059419764904" lon="11.814722814621666"><ele>349.0</ele><time>2026-05-04T14:51:23Z</time></trkpt><trkpt lat="43.70056049726809" lon="11.81456308059843"><ele>349.0</ele><time>2026-05-04T14:51:24Z</time></trkpt><trkpt lat="43.70052303320885" lon="11.814405699484167"><ele>349.0</ele><time>2026-05-04T14:51:25Z</time></trkpt><trkpt lat="43.70044952459957" lon="11.814257212705833"><ele>349.0</ele><time>2026-05-04T14:51:26Z</time></trkpt><trkpt lat="43.699635013963324" lon="11.809747530341921"><ele>346.25</ele><time>2026-05-04T14:52:27Z</time></trkpt><trkpt lat="43.69953423928797" lon="11.809734403414183"><ele>343.5</ele><time>2026-05-04T14:52:29Z</time></trkpt><trkpt lat="43.69943042242432" lon="11.809796140162717"><ele>340.75</ele><time>2026-05-04T14:52:31Z</time></trkpt><trkpt lat="43.69931691184531" lon="11.809838740269704"><ele>338.0</ele><time>2026-05-04T14:52:33Z</time></trkpt><trkpt lat="43.69919055327796" lon="11.809830315246748"><ele>337.7142857142857</ele><time>2026-05-04T14:52:35Z</time></trkpt><trkpt lat="43.69912303197794" lon="11.809819021256645"><ele>337.42857142857144</ele><time>2026-05-04T14:52:36Z</time></trkpt><trkpt lat="43.69905611308669" lon="11.809803528559561"><ele>337.1428571428571</ele><time>2026-05-04T14:52:37Z</time></trkpt><trkpt lat="43.698989183844496" lon="11.809797860735106"><ele>336.8571428571429</ele><time>2026-05-04T14:52:38Z</time></trkpt><trkpt lat="43.6989110175436" lon="11.809795378037798"><ele>336.57142857142856</ele><time>2026-05-04T14:52:39Z</time></trkpt><trkpt lat="43.698842169776505" lon="11.809793444341395"><ele>336.2857142857143</ele><time>2026-05-04T14:52:40Z</time></trkpt><trkpt lat="43.69875998190017" lon="11.809788564708633"><ele>336.0</ele><time>2026-05-04T14:52:41Z</time></trkpt><trkpt lat="43.69867248537251" lon="11.809788843998554"><ele>336.0</ele><time>2026-05-04T14:52:42Z</time></trkpt><trkpt lat="43.698595850327955" lon="11.809778971320627"><ele>336.0</ele><time>2026-05-04T14:52:43Z</time></trkpt><trkpt lat="43.69851762783146" lon="11.809773842795288"><ele>336.0</ele><time>2026-05-04T14:52:44Z</time></trkpt><trkpt lat="43.69845240400775" lon="11.809762559062886"><ele>336.0</ele><time>2026-05-04T14:52:45Z</time></trkpt><trkpt lat="43.6983600900555" lon="11.80974960903911"><ele>336.0</ele><time>2026-05-04T14:52:47Z</time></trkpt><trkpt lat="43.6983169453228" lon="11.809619783266086"><ele>336.0</ele><time>2026-05-04T14:52:50Z</time></trkpt><trkpt lat="43.6982538386788" lon="11.809520747956832"><ele>335.8</ele><time>2026-05-04T14:52:52Z</time></trkpt><trkpt lat="43.698143631413714" lon="11.809507164350594"><ele>335.6</ele><time>2026-05-04T14:52:54Z</time></trkpt><trkpt lat="43.6980552043664" lon="11.809446932838691"><ele>335.4</ele><time>2026-05-04T14:52:56Z</time></trkpt><trkpt lat="43.69804563883861" lon="11.809264849339046"><ele>335.2</ele><time>2026-05-04T14:52:58Z</time></trkpt><trkpt lat="43.698054929198754" lon="11.809156517511758"><ele>335.0</ele><time>2026-05-04T14:52:59Z</time></trkpt><trkpt lat="43.69806043478325" lon="11.80903758467131"><ele>335.0</ele><time>2026-05-04T14:53:00Z</time></trkpt><trkpt lat="43.69806939161133" lon="11.808916084683688"><ele>335.0</ele><time>2026-05-04T14:53:01Z</time></trkpt><trkpt lat="43.69808121143755" lon="11.808788328000928"><ele>335.0</ele><time>2026-05-04T14:53:02Z</time></trkpt><trkpt lat="43.69809786979981" lon="11.80864794932613"><ele>335.0</ele><time>2026-05-04T14:53:03Z</time></trkpt><trkpt lat="43.69811302111852" lon="11.80851614987722"><ele>335.0</ele><time>2026-05-04T14:53:04Z</time></trkpt><trkpt lat="43.69813375382788" lon="11.808401864155096"><ele>334.6666666666667</ele><time>2026-05-04T14:53:05Z</time></trkpt><trkpt lat="43.698160674440864" lon="11.808300295310984"><ele>334.33333333333337</ele><time>2026-05-04T14:53:06Z</time></trkpt><trkpt lat="43.69819163656147" lon="11.808197361835768"><ele>334.0</ele><time>2026-05-04T14:53:07Z</time></trkpt><trkpt lat="43.698214258006495" lon="11.808110399455773"><ele>333.6666666666667</ele><time>2026-05-04T14:53:08Z</time></trkpt><trkpt lat="43.69823041396037" lon="11.807985060517998"><ele>333.3333333333333</ele><time>2026-05-04T14:53:10Z</time></trkpt><trkpt lat="43.6981558557291" lon="11.807930565868443"><ele>333.0</ele><time>2026-05-04T14:53:12Z</time></trkpt><trkpt lat="43.69807092813851" lon="11.807900696046612"><ele>333.0</ele><time>2026-05-04T14:53:14Z</time></trkpt><trkpt lat="43.69800571449909" lon="11.807855868088037"><ele>333.0</ele><time>2026-05-04T14:53:16Z</time></trkpt><trkpt lat="43.69795506770202" lon="11.807804063877635"><ele>333.0</ele><time>2026-05-04T14:53:18Z</time></trkpt><trkpt lat="43.697116922711146" lon="11.808241750184735"><ele>333.2</ele><time>2026-05-04T14:54:27Z</time></trkpt><trkpt lat="43.69723474175857" lon="11.808254797230216"><ele>333.4</ele><time>2026-05-04T14:54:29Z</time></trkpt><trkpt lat="43.69732976774728" lon="11.808255416834667"><ele>333.59999999999997</ele><time>2026-05-04T14:54:31Z</time></trkpt><trkpt lat="43.697410465105605" lon="11.808271376451977"><ele>333.79999999999995</ele><time>2026-05-04T14:54:33Z</time></trkpt><trkpt lat="43.69746195033274" lon="11.808359435683368"><ele>334.0</ele><time>2026-05-04T14:54:35Z</time></trkpt><trkpt lat="43.697463620088456" lon="11.808495131010135"><ele>334.0</ele><time>2026-05-04T14:54:37Z</time></trkpt><trkpt lat="43.69746105217007" lon="11.80864464764333"><ele>334.0</ele><time>2026-05-04T14:54:39Z</time></trkpt><trkpt lat="43.69746150701902" lon="11.80873308567391"><ele>334.0</ele><time>2026-05-04T14:54:40Z</time></trkpt><trkpt lat="43.69746128017504" lon="11.8089056496445"><ele>334.0</ele><time>2026-05-04T14:54:42Z</time></trkpt><trkpt lat="43.69745794861383" lon="11.808994678478545"><ele>334.0</ele><time>2026-05-04T14:54:43Z</time></trkpt><trkpt lat="43.69745100313015" lon="11.809087440720772"><ele>334.0</ele><time>2026-05-04T14:54:44Z</time></trkpt><trkpt lat="43.697448491759474" lon="11.809178890580684"><ele>334.0</ele><time>2026-05-04T14:54:45Z</time></trkpt><trkpt lat="43.69744294685824" lon="11.809322275440369"><ele>334.0</ele><time>2026-05-04T14:54:47Z</time></trkpt><trkpt lat="43.69743420284218" lon="11.809424474717831"><ele>334.0</ele><time>2026-05-04T14:54:49Z</time></trkpt><trkpt lat="43.69733759382863" lon="11.80945073995339"><ele>334.0</ele><time>2026-05-04T14:54:52Z</time></trkpt><trkpt lat="43.69723866947051" lon="11.809439392325803"><ele>334.0</ele><time>2026-05-04T14:54:54Z</time></trkpt><trkpt lat="43.69713096647234" lon="11.80943468113729"><ele>334.0</ele><time>2026-05-04T14:54:56Z</time></trkpt><trkpt lat="43.697021150353315" lon="11.809430484312976"><ele>334.0</ele><time>2026-05-04T14:54:58Z</time></trkpt><trkpt lat="43.696929703839885" lon="11.809444426306195"><ele>334.0</ele><time>2026-05-04T14:55:00Z</time></trkpt><trkpt lat="43.69683402125335" lon="11.80953949848002"><ele>334.0</ele><time>2026-05-04T14:55:02Z</time></trkpt><trkpt lat="43.69677893858669" lon="11.809655175796978"><ele>334.0</ele><time>2026-05-04T14:55:04Z</time></trkpt><trkpt lat="43.696766437598896" lon="11.80977314112131"><ele>334.0</ele><time>2026-05-04T14:55:06Z</time></trkpt><trkpt lat="43.69676900469553" lon="11.809882600099161"><ele>334.0</ele><time>2026-05-04T14:55:09Z</time></trkpt><trkpt lat="43.69671950555374" lon="11.809941407496023"><ele>334.0</ele><time>2026-05-04T14:55:21Z</time></trkpt><trkpt lat="43.69661612495776" lon="11.80993345121465"><ele>334.0</ele><time>2026-05-04T14:55:23Z</time></trkpt><trkpt lat="43.696527655804104" lon="11.809839374082127"><ele>334.0</ele><time>2026-05-04T14:55:25Z</time></trkpt><trkpt lat="43.695808671239334" lon="11.8074619824646"><ele>333.0</ele><time>2026-05-04T14:56:27Z</time></trkpt><trkpt lat="43.69582813458707" lon="11.807341666178221"><ele>332.0</ele><time>2026-05-04T14:57:17Z</time></trkpt><trkpt lat="43.69585639932416" lon="11.807174934140535"><ele>331.0</ele><time>2026-05-04T14:57:19Z</time></trkpt><trkpt lat="43.69587531754808" lon="11.807071253764692"><ele>330.0</ele><time>2026-05-04T14:57:20Z</time></trkpt><trkpt lat="43.695897714258585" lon="11.806959231689623"><ele>329.0</ele><time>2026-05-04T14:57:21Z</time></trkpt><trkpt lat="43.69592126124212" lon="11.806841456324019"><ele>328.79999999999995</ele><time>2026-05-04T14:57:22Z</time></trkpt><trkpt lat="43.69594209490266" lon="11.806719872037256"><ele>328.59999999999997</ele><time>2026-05-04T14:57:23Z</time></trkpt><trkpt lat="43.695955077258645" lon="11.806597981695987"><ele>328.4</ele><time>2026-05-04T14:57:24Z</time></trkpt><trkpt lat="43.69595474986045" lon="11.806479748404374"><ele>328.2</ele><time>2026-05-04T14:57:25Z</time></trkpt><trkpt lat="43.69592970588994" lon="11.806352469612166"><ele>328.0</ele><time>2026-05-04T14:57:26Z</time></trkpt><trkpt lat="43.69639084327262" lon="11.799759523003885"><ele>327.16666666666663</ele><time>2026-05-04T14:58:27Z</time></trkpt><trkpt lat="43.69632314981226" lon="11.799716641005668"><ele>326.3333333333333</ele><time>2026-05-04T14:58:28Z</time></trkpt><trkpt lat="43.6962383533817" lon="11.799675024057477"><ele>325.5</ele><time>2026-05-04T14:58:29Z</time></trkpt><trkpt lat="43.69615040898144" lon="11.799642455233974"><ele>324.6666666666667</ele><time>2026-05-04T14:58:30Z</time></trkpt><trkpt lat="43.696065780022195" lon="11.799612860368523"><ele>323.83333333333337</ele><time>2026-05-04T14:58:31Z</time></trkpt><trkpt lat="43.695989048254134" lon="11.799564542742361"><ele>323.0</ele><time>2026-05-04T14:58:32Z</time></trkpt><trkpt lat="43.69593132074578" lon="11.799476490084853"><ele>323.0</ele><time>2026-05-04T14:58:33Z</time></trkpt><trkpt lat="43.695883157787634" lon="11.79937087322674"><ele>323.0</ele><time>2026-05-04T14:58:34Z</time></trkpt><trkpt lat="43.695823015993426" lon="11.799211647396863"><ele>323.0</ele><time>2026-05-04T14:58:35Z</time></trkpt><trkpt lat="43.69575243863299" lon="11.799039850371686"><ele>323.0</ele><time>2026-05-04T14:58:36Z</time></trkpt><trkpt lat="43.695678371015546" lon="11.798853806979917"><ele>323.0</ele><time>2026-05-04T14:58:37Z</time></trkpt><trkpt lat="43.695607867361446" lon="11.798671425536675"><ele>323.0</ele><time>2026-05-04T14:58:38Z</time></trkpt><trkpt lat="43.69555581903186" lon="11.798520503138183"><ele>323.0</ele><time>2026-05-04T14:58:39Z</time></trkpt><trkpt lat="43.69550775944176" lon="11.798377593753537"><ele>323.0</ele><time>2026-05-04T14:58:40Z</time></trkpt><trkpt lat="43.69545967824315" lon="11.798248590002403"><ele>323.0</ele><time>2026-05-04T14:58:41Z</time></trkpt><trkpt lat="43.69542135862084" lon="11.7981212768787"><ele>323.0</ele><time>2026-05-04T14:58:42Z</time></trkpt><trkpt lat="43.6953965859528" lon="11.79801129740474"><ele>323.0</ele><time>2026-05-04T14:58:43Z</time></trkpt><trkpt lat="43.69537067539491" lon="11.79788960246829"><ele>323.0</ele><time>2026-05-04T14:58:44Z</time></trkpt><trkpt lat="43.69535303773333" lon="11.797786003456569"><ele>323.0</ele><time>2026-05-04T14:58:45Z</time></trkpt><trkpt lat="43.69533780778935" lon="11.797672283546587"><ele>323.0</ele><time>2026-05-04T14:58:46Z</time></trkpt><trkpt lat="43.6953315236628" lon="11.797547466513775"><ele>323.25</ele><time>2026-05-04T14:58:47Z</time></trkpt><trkpt lat="43.695334313752554" lon="11.79741155975436"><ele>323.5</ele><time>2026-05-04T14:58:48Z</time></trkpt><trkpt lat="43.69534207752147" lon="11.797258406434516"><ele>323.75</ele><time>2026-05-04T14:58:49Z</time></trkpt><trkpt lat="43.69535194974919" lon="11.797096721322502"><ele>324.0</ele><time>2026-05-04T14:58:50Z</time></trkpt><trkpt lat="43.695363318478705" lon="11.796922870238873"><ele>324.5</ele><time>2026-05-04T14:58:51Z</time></trkpt><trkpt lat="43.695376990204224" lon="11.79674735186961"><ele>325.0</ele><time>2026-05-04T14:58:52Z</time></trkpt><trkpt lat="43.695390809628115" lon="11.796562720012716"><ele>325.5</ele><time>2026-05-04T14:58:53Z</time></trkpt><trkpt lat="43.69540486234946" lon="11.796372406579621"><ele>326.0</ele><time>2026-05-04T14:58:54Z</time></trkpt><trkpt lat="43.695416856374614" lon="11.796189569636457"><ele>325.75</ele><time>2026-05-04T14:58:55Z</time></trkpt><trkpt lat="43.69542948603459" lon="11.796002465914663"><ele>325.5</ele><time>2026-05-04T14:58:56Z</time></trkpt><trkpt lat="43.695443568230054" lon="11.79581402350876"><ele>325.25</ele><time>2026-05-04T14:58:57Z</time></trkpt><trkpt lat="43.69545745273687" lon="11.795609337025045"><ele>325.0</ele><time>2026-05-04T14:58:58Z</time></trkpt><trkpt lat="43.69547467781304" lon="11.795378810888966"><ele>324.3333333333333</ele><time>2026-05-04T14:58:59Z</time></trkpt><trkpt lat="43.69549106340015" lon="11.79514405037399"><ele>323.6666666666667</ele><time>2026-05-04T14:59:00Z</time></trkpt><trkpt lat="43.69550861732588" lon="11.794919418218962"><ele>323.0</ele><time>2026-05-04T14:59:01Z</time></trkpt><trkpt lat="43.69552773529847" lon="11.79469299742338"><ele>323.0</ele><time>2026-05-04T14:59:02Z</time></trkpt><trkpt lat="43.69554322041022" lon="11.794487070727227"><ele>323.0</ele><time>2026-05-04T14:59:03Z</time></trkpt><trkpt lat="43.695557988883266" lon="11.794267058638267"><ele>323.0</ele><time>2026-05-04T14:59:04Z</time></trkpt><trkpt lat="43.695569834957155" lon="11.794052387169216"><ele>323.0</ele><time>2026-05-04T14:59:05Z</time></trkpt><trkpt lat="43.695574952613654" lon="11.793857040532433"><ele>323.0</ele><time>2026-05-04T14:59:06Z</time></trkpt><trkpt lat="43.69555883715448" lon="11.793662794376615"><ele>323.0</ele><time>2026-05-04T14:59:07Z</time></trkpt><trkpt lat="43.6955303135622" lon="11.793472248964362"><ele>323.0</ele><time>2026-05-04T14:59:08Z</time></trkpt><trkpt lat="43.69547310195534" lon="11.793275392925091"><ele>323.0</ele><time>2026-05-04T14:59:09Z</time></trkpt><trkpt lat="43.69539684336447" lon="11.793084683046278"><ele>323.0</ele><time>2026-05-04T14:59:10Z</time></trkpt><trkpt lat="43.69530156999866" lon="11.792901966756586"><ele>323.0</ele><time>2026-05-04T14:59:11Z</time></trkpt><trkpt lat="43.69519274710436" lon="11.792733788190922"><ele>324.25</ele><time>2026-05-04T14:59:12Z</time></trkpt><trkpt lat="43.69507512987972" lon="11.792586595640774"><ele>325.5</ele><time>2026-05-04T14:59:13Z</time></trkpt><trkpt lat="43.694956078663004" lon="11.792468339095246"><ele>326.75</ele><time>2026-05-04T14:59:14Z</time></trkpt><trkpt lat="43.69484300762" lon="11.792345262938193"><ele>328.0</ele><time>2026-05-04T14:59:15Z</time></trkpt><trkpt lat="43.694748090973" lon="11.792230039301485"><ele>328.0</ele><time>2026-05-04T14:59:16Z</time></trkpt><trkpt lat="43.694661715508545" lon="11.792115447891216"><ele>328.0</ele><time>2026-05-04T14:59:17Z</time></trkpt><trkpt lat="43.69457892103612" lon="11.791994930665107"><ele>328.0</ele><time>2026-05-04T14:59:18Z</time></trkpt><trkpt lat="43.69450782457547" lon="11.791863045334532"><ele>328.0</ele><time>2026-05-04T14:59:19Z</time></trkpt><trkpt lat="43.694448987205405" lon="11.791721519730835"><ele>328.0</ele><time>2026-05-04T14:59:20Z</time></trkpt><trkpt lat="43.69440067519038" lon="11.79157025498676"><ele>328.0</ele><time>2026-05-04T14:59:21Z</time></trkpt><trkpt lat="43.69436555264297" lon="11.791413194933742"><ele>328.0</ele><time>2026-05-04T14:59:22Z</time></trkpt><trkpt lat="43.69435320123464" lon="11.791269174352967"><ele>328.0</ele><time>2026-05-04T14:59:23Z</time></trkpt><trkpt lat="43.694350028414206" lon="11.79114199849648"><ele>328.0</ele><time>2026-05-04T14:59:24Z</time></trkpt><trkpt lat="43.694340856181796" lon="11.791033057245663"><ele>329.5</ele><time>2026-05-04T14:59:25Z</time></trkpt><trkpt lat="43.694327858631574" lon="11.790936920355655"><ele>331.0</ele><time>2026-05-04T14:59:26Z</time></trkpt><trkpt lat="43.69529919007841" lon="11.791092346797116"><ele>332.6</ele><time>2026-05-04T15:01:27Z</time></trkpt><trkpt lat="43.695347707676845" lon="11.790951687494195"><ele>334.20000000000005</ele><time>2026-05-04T15:01:29Z</time></trkpt><trkpt lat="43.69541773470846" lon="11.790819684235267"><ele>335.79999999999995</ele><time>2026-05-04T15:01:31Z</time></trkpt><trkpt lat="43.69543981369387" lon="11.7906945358857"><ele>337.4</ele><time>2026-05-04T15:01:33Z</time></trkpt><trkpt lat="43.69541731795561" lon="11.790534670757639"><ele>339.0</ele><time>2026-05-04T15:01:35Z</time></trkpt><trkpt lat="43.6954537598019" lon="11.790381660106016"><ele>339.0</ele><time>2026-05-04T15:01:37Z</time></trkpt><trkpt lat="43.69549527134605" lon="11.790254938819896"><ele>339.0</ele><time>2026-05-04T15:01:39Z</time></trkpt><trkpt lat="43.695530223608486" lon="11.790173680698839"><ele>339.0</ele><time>2026-05-04T15:01:41Z</time></trkpt><trkpt lat="43.6955631228372" lon="11.790020246651615"><ele>339.0</ele><time>2026-05-04T15:01:43Z</time></trkpt><trkpt lat="43.69557898657218" lon="11.789866209386611"><ele>339.0</ele><time>2026-05-04T15:01:45Z</time></trkpt><trkpt lat="43.695591952911" lon="11.789702547274405"><ele>340.79999999999995</ele><time>2026-05-04T15:01:47Z</time></trkpt><trkpt lat="43.695612759836315" lon="11.789531363023922"><ele>342.59999999999997</ele><time>2026-05-04T15:01:49Z</time></trkpt><trkpt lat="43.69563994800522" lon="11.789438425556424"><ele>344.4</ele><time>2026-05-04T15:01:50Z</time></trkpt><trkpt lat="43.695669712520186" lon="11.78925113439494"><ele>346.2</ele><time>2026-05-04T15:01:52Z</time></trkpt><trkpt lat="43.69568161264723" lon="11.789141971956564"><ele>348.0</ele><time>2026-05-04T15:01:53Z</time></trkpt><trkpt lat="43.69570575212723" lon="11.789025862409943"><ele>349.5</ele><time>2026-05-04T15:01:54Z</time></trkpt><trkpt lat="43.69573134006027" lon="11.788911139284789"><ele>351.0</ele><time>2026-05-04T15:01:55Z</time></trkpt><trkpt lat="43.69576439132325" lon="11.788804836660718"><ele>352.5</ele><time>2026-05-04T15:01:56Z</time></trkpt><trkpt lat="43.69578725093186" lon="11.788690673659639"><ele>354.0</ele><time>2026-05-04T15:01:57Z</time></trkpt><trkpt lat="43.69580725652166" lon="11.788560973515693"><ele>355.5</ele><time>2026-05-04T15:01:58Z</time></trkpt><trkpt lat="43.69580978691813" lon="11.788457342273139"><ele>357.0</ele><time>2026-05-04T15:01:59Z</time></trkpt><trkpt lat="43.695818402733494" lon="11.788331898084941"><ele>357.8333333333333</ele><time>2026-05-04T15:02:00Z</time></trkpt><trkpt lat="43.695834725477035" lon="11.788205849485342"><ele>358.6666666666667</ele><time>2026-05-04T15:02:01Z</time></trkpt><trkpt lat="43.695859767872335" lon="11.788087781670878"><ele>359.5</ele><time>2026-05-04T15:02:02Z</time></trkpt><trkpt lat="43.69588142953013" lon="11.787973109254736"><ele>360.33333333333337</ele><time>2026-05-04T15:02:03Z</time></trkpt><trkpt lat="43.69589814469375" lon="11.787861464831218"><ele>361.1666666666667</ele><time>2026-05-04T15:02:04Z</time></trkpt><trkpt lat="43.695919327127456" lon="11.787758710439865"><ele>362.0</ele><time>2026-05-04T15:02:05Z</time></trkpt><trkpt lat="43.695953695731745" lon="11.787650287946123"><ele>362.33333333333337</ele><time>2026-05-04T15:02:06Z</time></trkpt><trkpt lat="43.69599725397997" lon="11.787565116664505"><ele>362.6666666666667</ele><time>2026-05-04T15:02:07Z</time></trkpt><trkpt lat="43.69603143811451" lon="11.787451129912675"><ele>363.0</ele><time>2026-05-04T15:02:08Z</time></trkpt><trkpt lat="43.696059652879256" lon="11.787371844460385"><ele>363.3333333333333</ele><time>2026-05-04T15:02:09Z</time></trkpt><trkpt lat="43.69609418168622" lon="11.787231108458823"><ele>363.66666666666663</ele><time>2026-05-04T15:02:11Z</time></trkpt><trkpt lat="43.69606620213338" lon="11.787080534571961"><ele>364.0</ele><time>2026-05-04T15:02:13Z</time></trkpt><trkpt lat="43.69606772837653" lon="11.786907238853228"><ele>365.16666666666663</ele><time>2026-05-04T15:02:15Z</time></trkpt><trkpt lat="43.69609209569904" lon="11.786796262549828"><ele>366.3333333333333</ele><time>2026-05-04T15:02:16Z</time></trkpt><trkpt lat="43.69612117768795" lon="11.786694552181851"><ele>367.5</ele><time>2026-05-04T15:02:17Z</time></trkpt><trkpt lat="43.69614457080816" lon="11.786583846787211"><ele>368.6666666666667</ele><time>2026-05-04T15:02:18Z</time></trkpt><trkpt lat="43.696170423389674" lon="11.786470076417386"><ele>369.83333333333337</ele><time>2026-05-04T15:02:19Z</time></trkpt><trkpt lat="43.69620030128573" lon="11.786360992362434"><ele>371.0</ele><time>2026-05-04T15:02:20Z</time></trkpt><trkpt lat="43.69622776329595" lon="11.7862460003116"><ele>371.0</ele><time>2026-05-04T15:02:21Z</time></trkpt><trkpt lat="43.69624948814183" lon="11.786136815988497"><ele>371.0</ele><time>2026-05-04T15:02:22Z</time></trkpt><trkpt lat="43.69626121004667" lon="11.786020635619526"><ele>371.0</ele><time>2026-05-04T15:02:23Z</time></trkpt><trkpt lat="43.69627517296657" lon="11.785903460760528"><ele>371.0</ele><time>2026-05-04T15:02:24Z</time></trkpt><trkpt lat="43.69628940857917" lon="11.785783717830094"><ele>371.0</ele><time>2026-05-04T15:02:25Z</time></trkpt><trkpt lat="43.69629684275008" lon="11.785669618072067"><ele>371.0</ele><time>2026-05-04T15:02:26Z</time></trkpt><trkpt lat="43.696641818716124" lon="11.781462425629682"><ele>374.83333333333337</ele><time>2026-05-04T15:03:27Z</time></trkpt><trkpt lat="43.696646449288664" lon="11.781597144459768"><ele>378.6666666666667</ele><time>2026-05-04T15:03:28Z</time></trkpt><trkpt lat="43.69664872640649" lon="11.781730508966021"><ele>382.5</ele><time>2026-05-04T15:03:29Z</time></trkpt><trkpt lat="43.69665965283677" lon="11.781856855948735"><ele>386.33333333333337</ele><time>2026-05-04T15:03:30Z</time></trkpt><trkpt lat="43.6966760542054" lon="11.781975376314252"><ele>390.1666666666667</ele><time>2026-05-04T15:03:31Z</time></trkpt><trkpt lat="43.6967003704505" lon="11.782072401122027"><ele>394.0</ele><time>2026-05-04T15:03:32Z</time></trkpt><trkpt lat="43.69674435243422" lon="11.782154069007344"><ele>394.00000000000006</ele><time>2026-05-04T15:03:33Z</time></trkpt><trkpt lat="43.69680602196864" lon="11.78222212589462"><ele>394.0</ele><time>2026-05-04T15:03:34Z</time></trkpt><trkpt lat="43.69688146988143" lon="11.782234255783418"><ele>394.0</ele><time>2026-05-04T15:03:35Z</time></trkpt><trkpt lat="43.696971898105076" lon="11.78224260070056"><ele>394.0</ele><time>2026-05-04T15:03:36Z</time></trkpt><trkpt lat="43.697067527686094" lon="11.782237167124903"><ele>394.00000000000006</ele><time>2026-05-04T15:03:37Z</time></trkpt><trkpt lat="43.697156527790845" lon="11.782227034843066"><ele>394.0</ele><time>2026-05-04T15:03:38Z</time></trkpt><trkpt lat="43.69723898752056" lon="11.782218161655209"><ele>394.50000000000006</ele><time>2026-05-04T15:03:39Z</time></trkpt><trkpt lat="43.69732124972643" lon="11.782204858445056"><ele>395.0</ele><time>2026-05-04T15:03:40Z</time></trkpt><trkpt lat="43.697403573717246" lon="11.78221115373704"><ele>395.5</ele><time>2026-05-04T15:03:41Z</time></trkpt><trkpt lat="43.697474933939766" lon="11.782202075829888"><ele>396.0</ele><time>2026-05-04T15:03:42Z</time></trkpt><trkpt lat="43.697556937156776" lon="11.782188699549984"><ele>396.50000000000006</ele><time>2026-05-04T15:03:44Z</time></trkpt><trkpt lat="43.697483430622974" lon="11.78216043864351"><ele>397.0</ele><time>2026-05-04T15:03:52Z</time></trkpt><trkpt lat="43.697387067216695" lon="11.7821730439143"><ele>397.00000000000006</ele><time>2026-05-04T15:03:54Z</time></trkpt><trkpt lat="43.697288361921615" lon="11.782179567548864"><ele>397.0</ele><time>2026-05-04T15:03:56Z</time></trkpt><trkpt lat="43.697188875964855" lon="11.782184080969795"><ele>397.0</ele><time>2026-05-04T15:03:58Z</time></trkpt><trkpt lat="43.69709811966854" lon="11.782195467892928"><ele>397.0</ele><time>2026-05-04T15:04:00Z</time></trkpt><trkpt lat="43.69705041639989" lon="11.782132268698135"><ele>397.00000000000006</ele><time>2026-05-04T15:04:02Z</time></trkpt><trkpt lat="43.69707015174973" lon="11.78204631946682"><ele>397.0</ele><time>2026-05-04T15:04:04Z</time></trkpt><trkpt lat="43.697134610063166" lon="11.782036370758854"><ele>397.0</ele><time>2026-05-04T15:04:05Z</time></trkpt><trkpt lat="43.69674986326103" lon="11.782061204728473"><ele>397.0</ele><time>2026-05-04T15:04:07Z</time></trkpt><trkpt lat="43.69669920207807" lon="11.781703143315015"><ele>407.0</ele><time>2026-05-04T15:04:08Z</time></trkpt><trkpt lat="43.69730282974056" lon="11.781818603082332"><ele>406.99999999999994</ele><time>2026-05-04T15:04:09Z</time></trkpt><trkpt lat="43.69735105386091" lon="11.781744200192877"><ele>407.0</ele><time>2026-05-04T15:04:10Z</time></trkpt><trkpt lat="43.69739375353845" lon="11.78165352949555"><ele>407.0</ele><time>2026-05-04T15:04:11Z</time></trkpt><trkpt lat="43.69744802684526" lon="11.781577741136832"><ele>407.0</ele><time>2026-05-04T15:04:12Z</time></trkpt><trkpt lat="43.69750260396611" lon="11.781494280439368"><ele>406.99999999999994</ele><time>2026-05-04T15:04:13Z</time></trkpt><trkpt lat="43.697564546886824" lon="11.781432172206822"><ele>407.0</ele><time>2026-05-04T15:04:14Z</time></trkpt><trkpt lat="43.69760336738975" lon="11.781346065854018"><ele>407.0</ele><time>2026-05-04T15:04:15Z</time></trkpt><trkpt lat="43.69764419855812" lon="11.781278662914817"><ele>407.0</ele><time>2026-05-04T15:04:16Z</time></trkpt><trkpt lat="43.6977350506895" lon="11.781167790817495"><ele>407.0</ele><time>2026-05-04T15:04:18Z</time></trkpt><trkpt lat="43.69779675430013" lon="11.78103174459019"><ele>407.0</ele><time>2026-05-04T15:04:20Z</time></trkpt><trkpt lat="43.697841085087866" lon="11.780968885407756"><ele>407.0</ele><time>2026-05-04T15:04:21Z</time></trkpt><trkpt lat="43.697941985822354" lon="11.780877994207346"><ele>411.0</ele><time>2026-05-04T15:04:23Z</time></trkpt><trkpt lat="43.697996691483695" lon="11.780819911566264"><ele>415.0</ele><time>2026-05-04T15:04:25Z</time></trkpt><trkpt lat="43.69814836824646" lon="11.780111230859092"><ele>415.83333333333337</ele><time>2026-05-04T15:05:27Z</time></trkpt><trkpt lat="43.69816401641405" lon="11.780020540289621"><ele>416.6666666666667</ele><time>2026-05-04T15:05:29Z</time></trkpt><trkpt lat="43.69818617331386" lon="11.779906895555111"><ele>417.5</ele><time>2026-05-04T15:05:31Z</time></trkpt><trkpt lat="43.698174366537515" lon="11.779802050586564"><ele>418.33333333333337</ele><time>2026-05-04T15:05:33Z</time></trkpt><trkpt lat="43.698145680031736" lon="11.779690977363131"><ele>419.1666666666667</ele><time>2026-05-04T15:05:35Z</time></trkpt><trkpt lat="43.69811652577932" lon="11.779610454528852"><ele>420.0</ele><time>2026-05-04T15:05:37Z</time></trkpt><trkpt lat="43.698056884325176" lon="11.779515660590532"><ele>420.0</ele><time>2026-05-04T15:05:41Z</time></trkpt><trkpt lat="43.69801001912513" lon="11.77945103863059"><ele>420.0</ele><time>2026-05-04T15:05:43Z</time></trkpt><trkpt lat="43.697988510202016" lon="11.779339463014473"><ele>420.0</ele><time>2026-05-04T15:05:58Z</time></trkpt><trkpt lat="43.69802059657176" lon="11.77924809174949"><ele>420.0</ele><time>2026-05-04T15:06:00Z</time></trkpt><trkpt lat="43.69809265242757" lon="11.779150988683782"><ele>420.0</ele><time>2026-05-04T15:06:02Z</time></trkpt><trkpt lat="43.698111289566725" lon="11.778982276424495"><ele>420.0</ele><time>2026-05-04T15:06:04Z</time></trkpt><trkpt lat="43.69805978840661" lon="11.778916035919528"><ele>421.4</ele><time>2026-05-04T15:06:06Z</time></trkpt><trkpt lat="43.69805945432941" lon="11.778808855676042"><ele>422.8</ele><time>2026-05-04T15:06:09Z</time></trkpt><trkpt lat="43.69805876667653" lon="11.77866745038298"><ele>424.20000000000005</ele><time>2026-05-04T15:06:12Z</time></trkpt><trkpt lat="43.69804466426025" lon="11.778563132407083"><ele>425.6</ele><time>2026-05-04T15:06:14Z</time></trkpt><trkpt lat="43.698044789357375" lon="11.778463750185674"><ele>427.0</ele><time>2026-05-04T15:06:15Z</time></trkpt><trkpt lat="43.6980948889576" lon="11.778306769832765"><ele>430.40000000000003</ele><time>2026-05-04T15:06:17Z</time></trkpt><trkpt lat="43.69815079601657" lon="11.778223384695018"><ele>433.80000000000007</ele><time>2026-05-04T15:06:19Z</time></trkpt><trkpt lat="43.69823793642441" lon="11.77810072441114"><ele>437.2</ele><time>2026-05-04T15:06:21Z</time></trkpt><trkpt lat="43.698286814725364" lon="11.778017789241733"><ele>440.6</ele><time>2026-05-04T15:06:22Z</time></trkpt><trkpt lat="43.69832980476505" lon="11.777947549243365"><ele>444.0</ele><time>2026-05-04T15:06:23Z</time></trkpt><trkpt lat="43.698418603087426" lon="11.777864585085837"><ele>444.0</ele><time>2026-05-04T15:06:25Z</time></trkpt><trkpt lat="43.69846972323775" lon="11.777804304865093"><ele>444.0</ele><time>2026-05-04T15:06:26Z</time></trkpt><trkpt lat="43.69848896160935" lon="11.77651543683518"><ele>448.2</ele><time>2026-05-04T15:07:27Z</time></trkpt><trkpt lat="43.69851451362159" lon="11.776403792999757"><ele>452.4</ele><time>2026-05-04T15:07:29Z</time></trkpt><trkpt lat="43.698539641314554" lon="11.776275374193258"><ele>456.6</ele><time>2026-05-04T15:07:31Z</time></trkpt><trkpt lat="43.698581909179076" lon="11.776163537227955"><ele>460.8</ele><time>2026-05-04T15:07:33Z</time></trkpt><trkpt lat="43.69862778346391" lon="11.776045821304972"><ele>465.0</ele><time>2026-05-04T15:07:36Z</time></trkpt><trkpt lat="43.69866281404051" lon="11.775944248736817"><ele>467.5</ele><time>2026-05-04T15:07:38Z</time></trkpt><trkpt lat="43.69872894007954" lon="11.775836356946941"><ele>470.0</ele><time>2026-05-04T15:07:40Z</time></trkpt><trkpt lat="43.6987960784147" lon="11.775838625278494"><ele>472.5</ele><time>2026-05-04T15:07:42Z</time></trkpt><trkpt lat="43.698905794429294" lon="11.775843177733208"><ele>475.0</ele><time>2026-05-04T15:07:45Z</time></trkpt><trkpt lat="43.698938321492115" lon="11.775763743337832"><ele>477.5</ele><time>2026-05-04T15:07:47Z</time></trkpt><trkpt lat="43.69894918274529" lon="11.775664723773806"><ele>480.0</ele><time>2026-05-04T15:07:49Z</time></trkpt><trkpt lat="43.6990140681718" lon="11.775605558010454"><ele>480.0</ele><time>2026-05-04T15:07:52Z</time></trkpt><trkpt lat="43.699036690010935" lon="11.775513379680527"><ele>480.0</ele><time>2026-05-04T15:07:54Z</time></trkpt><trkpt lat="43.69905707816923" lon="11.775393821041863"><ele>480.0</ele><time>2026-05-04T15:07:56Z</time></trkpt><trkpt lat="43.69905384169999" lon="11.77526203373309"><ele>480.0</ele><time>2026-05-04T15:07:58Z</time></trkpt><trkpt lat="43.699049531328086" lon="11.775111121050342"><ele>480.0</ele><time>2026-05-04T15:08:00Z</time></trkpt><trkpt lat="43.699054884175226" lon="11.774968902383153"><ele>480.0</ele><time>2026-05-04T15:08:02Z</time></trkpt><trkpt lat="43.699058392208094" lon="11.774880465249739"><ele>480.0</ele><time>2026-05-04T15:08:03Z</time></trkpt><trkpt lat="43.69907349929686" lon="11.77479544150634"><ele>480.0</ele><time>2026-05-04T15:08:04Z</time></trkpt><trkpt lat="43.699079267855986" lon="11.774662715894888"><ele>480.0</ele><time>2026-05-04T15:08:06Z</time></trkpt><trkpt lat="43.699087010032954" lon="11.774529140390108"><ele>480.0</ele><time>2026-05-04T15:08:08Z</time></trkpt><trkpt lat="43.69906729185196" lon="11.774384914692515"><ele>480.0</ele><time>2026-05-04T15:08:10Z</time></trkpt><trkpt lat="43.6990388647796" lon="11.774282254723966"><ele>481.8333333333333</ele><time>2026-05-04T15:08:12Z</time></trkpt><trkpt lat="43.69902180550428" lon="11.774155625054165"><ele>483.66666666666663</ele><time>2026-05-04T15:08:14Z</time></trkpt><trkpt lat="43.6989931796897" lon="11.774003693205406"><ele>485.5</ele><time>2026-05-04T15:08:17Z</time></trkpt><trkpt lat="43.69895874930899" lon="11.773926824819705"><ele>487.3333333333333</ele><time>2026-05-04T15:08:18Z</time></trkpt><trkpt lat="43.69895738608317" lon="11.773804386264112"><ele>489.16666666666663</ele><time>2026-05-04T15:08:20Z</time></trkpt><trkpt lat="43.69895878566392" lon="11.77370077242107"><ele>491.0</ele><time>2026-05-04T15:08:22Z</time></trkpt><trkpt lat="43.69892575466306" lon="11.77360748852866"><ele>491.0</ele><time>2026-05-04T15:08:24Z</time></trkpt><trkpt lat="43.698895890632855" lon="11.773528402711097"><ele>491.0</ele><time>2026-05-04T15:08:26Z</time></trkpt><trkpt lat="43.69848973472068" lon="11.770840360529034"><ele>494.20000000000005</ele><time>2026-05-04T15:09:27Z</time></trkpt><trkpt lat="43.69844006239607" lon="11.770724804621391"><ele>497.40000000000003</ele><time>2026-05-04T15:09:29Z</time></trkpt><trkpt lat="43.698426611851986" lon="11.77060480472041"><ele>500.6</ele><time>2026-05-04T15:09:31Z</time></trkpt><trkpt lat="43.698399201722815" lon="11.77045998038359"><ele>503.8</ele><time>2026-05-04T15:09:33Z</time></trkpt><trkpt lat="43.69838889198309" lon="11.770331140948414"><ele>507.0</ele><time>2026-05-04T15:09:35Z</time></trkpt><trkpt lat="43.698350298482204" lon="11.770191452997663"><ele>507.0</ele><time>2026-05-04T15:09:37Z</time></trkpt><trkpt lat="43.698284255240026" lon="11.770109646185412"><ele>507.0</ele><time>2026-05-04T15:09:39Z</time></trkpt><trkpt lat="43.698294366985834" lon="11.769964124127329"><ele>507.0</ele><time>2026-05-04T15:09:42Z</time></trkpt><trkpt lat="43.6983121440001" lon="11.769861259660413"><ele>507.0</ele><time>2026-05-04T15:09:44Z</time></trkpt><trkpt lat="43.69827402743914" lon="11.76978694662968"><ele>507.0</ele><time>2026-05-04T15:09:45Z</time></trkpt><trkpt lat="43.69826810369522" lon="11.769672184193354"><ele>507.0</ele><time>2026-05-04T15:09:47Z</time></trkpt><trkpt lat="43.698302159814254" lon="11.7695577400717"><ele>507.0</ele><time>2026-05-04T15:09:49Z</time></trkpt><trkpt lat="43.69833464216392" lon="11.769466515109189"><ele>507.0</ele><time>2026-05-04T15:09:51Z</time></trkpt><trkpt lat="43.69834670429172" lon="11.769379473799386"><ele>507.0</ele><time>2026-05-04T15:09:52Z</time></trkpt><trkpt lat="43.698365666409764" lon="11.769250514526831"><ele>507.0</ele><time>2026-05-04T15:09:54Z</time></trkpt><trkpt lat="43.698394951135086" lon="11.769161145629427"><ele>507.0</ele><time>2026-05-04T15:09:55Z</time></trkpt><trkpt lat="43.698457338210474" lon="11.769036823497832"><ele>507.0</ele><time>2026-05-04T15:09:57Z</time></trkpt><trkpt lat="43.698500927709816" lon="11.76889168538676"><ele>505.5</ele><time>2026-05-04T15:09:59Z</time></trkpt><trkpt lat="43.6985603658188" lon="11.768749141665747"><ele>504.0</ele><time>2026-05-04T15:10:01Z</time></trkpt><trkpt lat="43.69858573587731" lon="11.768613207055722"><ele>502.5</ele><time>2026-05-04T15:10:03Z</time></trkpt><trkpt lat="43.69857679210047" lon="11.768440283092236"><ele>501.0</ele><time>2026-05-04T15:10:05Z</time></trkpt><trkpt lat="43.69853622358646" lon="11.7683054902497"><ele>501.4</ele><time>2026-05-04T15:10:07Z</time></trkpt><trkpt lat="43.69850510987162" lon="11.768197634239305"><ele>501.8</ele><time>2026-05-04T15:10:08Z</time></trkpt><trkpt lat="43.69846022860559" lon="11.768035343072318"><ele>502.19999999999993</ele><time>2026-05-04T15:10:10Z</time></trkpt><trkpt lat="43.698436357971445" lon="11.767922922542194"><ele>502.59999999999997</ele><time>2026-05-04T15:10:11Z</time></trkpt><trkpt lat="43.69843326641257" lon="11.767775528029365"><ele>503.0</ele><time>2026-05-04T15:10:13Z</time></trkpt><trkpt lat="43.6984092594465" lon="11.767675736384863"><ele>503.0</ele><time>2026-05-04T15:10:15Z</time></trkpt><trkpt lat="43.69840195661758" lon="11.767558686017342"><ele>502.99999999999994</ele><time>2026-05-04T15:10:19Z</time></trkpt><trkpt lat="43.698419245032156" lon="11.767436755277245"><ele>502.99999999999994</ele><time>2026-05-04T15:10:22Z</time></trkpt><trkpt lat="43.6984238222583" lon="11.767331802108075"><ele>503.0</ele><time>2026-05-04T15:10:24Z</time></trkpt><trkpt lat="43.69842971215172" lon="11.767189642699234"><ele>503.0</ele><time>2026-05-04T15:10:26Z</time></trkpt><trkpt lat="43.69947234489284" lon="11.761713775689625"><ele>503.3333333333333</ele><time>2026-05-04T15:11:27Z</time></trkpt><trkpt lat="43.69950493696661" lon="11.761603027756722"><ele>503.66666666666663</ele><time>2026-05-04T15:11:28Z</time></trkpt><trkpt lat="43.69954620744523" lon="11.761503369322211"><ele>504.0</ele><time>2026-05-04T15:11:29Z</time></trkpt><trkpt lat="43.69959401586756" lon="11.761380942860624"><ele>504.33333333333337</ele><time>2026-05-04T15:11:30Z</time></trkpt><trkpt lat="43.69963916403581" lon="11.76128240400803"><ele>504.6666666666667</ele><time>2026-05-04T15:11:31Z</time></trkpt><trkpt lat="43.69969724148828" lon="11.76118739641819"><ele>505.0</ele><time>2026-05-04T15:11:32Z</time></trkpt><trkpt lat="43.699770871352" lon="11.76110386764767"><ele>506.83333333333337</ele><time>2026-05-04T15:11:33Z</time></trkpt><trkpt lat="43.69983921090815" lon="11.761018881078682"><ele>508.6666666666667</ele><time>2026-05-04T15:11:34Z</time></trkpt><trkpt lat="43.69987669496891" lon="11.760928117041502"><ele>510.5</ele><time>2026-05-04T15:11:35Z</time></trkpt><trkpt lat="43.69989070717936" lon="11.760827309650082"><ele>512.3333333333334</ele><time>2026-05-04T15:11:36Z</time></trkpt><trkpt lat="43.69993371839146" lon="11.760705789167918"><ele>514.1666666666666</ele><time>2026-05-04T15:11:37Z</time></trkpt><trkpt lat="43.699991123892474" lon="11.760623624048971"><ele>516.0</ele><time>2026-05-04T15:11:38Z</time></trkpt><trkpt lat="43.70005207020902" lon="11.760547669693995"><ele>516.0</ele><time>2026-05-04T15:11:39Z</time></trkpt><trkpt lat="43.700102795239225" lon="11.760468508810716"><ele>516.0</ele><time>2026-05-04T15:11:40Z</time></trkpt><trkpt lat="43.70013790796484" lon="11.760374870444604"><ele>516.0</ele><time>2026-05-04T15:11:41Z</time></trkpt><trkpt lat="43.70017452815373" lon="11.760276174118484"><ele>516.0</ele><time>2026-05-04T15:11:42Z</time></trkpt><trkpt lat="43.70027055223917" lon="11.760200536010451"><ele>516.0</ele><time>2026-05-04T15:11:44Z</time></trkpt><trkpt lat="43.700337916631916" lon="11.760186195911432"><ele>516.0</ele><time>2026-05-04T15:11:46Z</time></trkpt><trkpt lat="43.70042391467442" lon="11.760169153836904"><ele>515.8</ele><time>2026-05-04T15:11:48Z</time></trkpt><trkpt lat="43.70055089422355" lon="11.76021761727415"><ele>515.6</ele><time>2026-05-04T15:11:50Z</time></trkpt><trkpt lat="43.700625854405125" lon="11.76022651766599"><ele>515.4</ele><time>2026-05-04T15:11:51Z</time></trkpt><trkpt lat="43.70070332502955" lon="11.760205858119956"><ele>515.2</ele><time>2026-05-04T15:11:52Z</time></trkpt><trkpt lat="43.70080111860618" lon="11.76017484918252"><ele>515.0</ele><time>2026-05-04T15:11:53Z</time></trkpt><trkpt lat="43.7008874092466" lon="11.760154581669727"><ele>515.6666666666666</ele><time>2026-05-04T15:11:54Z</time></trkpt><trkpt lat="43.70096764016887" lon="11.760140072529692"><ele>516.3333333333333</ele><time>2026-05-04T15:11:55Z</time></trkpt><trkpt lat="43.70104630626526" lon="11.76013460019403"><ele>517.0</ele><time>2026-05-04T15:11:56Z</time></trkpt><trkpt lat="43.70112442218619" lon="11.76014526744297"><ele>517.6666666666666</ele><time>2026-05-04T15:11:57Z</time></trkpt><trkpt lat="43.70119353028285" lon="11.760179780746011"><ele>518.3333333333334</ele><time>2026-05-04T15:11:58Z</time></trkpt><trkpt lat="43.701253706273164" lon="11.760233366486311"><ele>519.0</ele><time>2026-05-04T15:11:59Z</time></trkpt><trkpt lat="43.70131254520673" lon="11.76030107179865"><ele>519.0</ele><time>2026-05-04T15:12:00Z</time></trkpt><trkpt lat="43.701374795181664" lon="11.760361391514511"><ele>519.0</ele><time>2026-05-04T15:12:01Z</time></trkpt><trkpt lat="43.70144536489673" lon="11.760413823016979"><ele>519.0</ele><time>2026-05-04T15:12:02Z</time></trkpt><trkpt lat="43.70152043287899" lon="11.760451091614952"><ele>519.0</ele><time>2026-05-04T15:12:03Z</time></trkpt><trkpt lat="43.70160490731553" lon="11.760468318819571"><ele>519.0</ele><time>2026-05-04T15:12:04Z</time></trkpt><trkpt lat="43.701700690106144" lon="11.760462219936555"><ele>519.0</ele><time>2026-05-04T15:12:05Z</time></trkpt><trkpt lat="43.70179599824413" lon="11.760453613638418"><ele>519.0</ele><time>2026-05-04T15:12:06Z</time></trkpt><trkpt lat="43.7018954113354" lon="11.760439999563754"><ele>519.0</ele><time>2026-05-04T15:12:07Z</time></trkpt><trkpt lat="43.70199608212411" lon="11.76042006285463"><ele>519.0</ele><time>2026-05-04T15:12:08Z</time></trkpt><trkpt lat="43.70209585889692" lon="11.760409517154892"><ele>519.0</ele><time>2026-05-04T15:12:09Z</time></trkpt><trkpt lat="43.70219380109737" lon="11.760394294134903"><ele>519.0</ele><time>2026-05-04T15:12:10Z</time></trkpt><trkpt lat="43.7022855780158" lon="11.76039340836478"><ele>518.6666666666666</ele><time>2026-05-04T15:12:11Z</time></trkpt><trkpt lat="43.702373300659744" lon="11.760385980447024"><ele>518.3333333333334</ele><time>2026-05-04T15:12:12Z</time></trkpt><trkpt lat="43.702459371360284" lon="11.760392486971"><ele>518.0</ele><time>2026-05-04T15:12:13Z</time></trkpt><trkpt lat="43.70253671896464" lon="11.76042182889542"><ele>517.6666666666667</ele><time>2026-05-04T15:12:14Z</time></trkpt><trkpt lat="43.702616619050005" lon="11.760475612452634"><ele>517.3333333333334</ele><time>2026-05-04T15:12:15Z</time></trkpt><trkpt lat="43.70268910412345" lon="11.760553620012006"><ele>517.0</ele><time>2026-05-04T15:12:16Z</time></trkpt><trkpt lat="43.70275630619509" lon="11.76063865197434"><ele>516.4</ele><time>2026-05-04T15:12:17Z</time></trkpt><trkpt lat="43.70281691958199" lon="11.760744284630528"><ele>515.8000000000001</ele><time>2026-05-04T15:12:18Z</time></trkpt><trkpt lat="43.70286876536134" lon="11.760870260616278"><ele>515.2</ele><time>2026-05-04T15:12:19Z</time></trkpt><trkpt lat="43.702920362600224" lon="11.760992500928683"><ele>514.6</ele><time>2026-05-04T15:12:20Z</time></trkpt><trkpt lat="43.702974268971964" lon="11.761103881374218"><ele>514.0</ele><time>2026-05-04T15:12:21Z</time></trkpt><trkpt lat="43.703029935932676" lon="11.761199909487486"><ele>514.0</ele><time>2026-05-04T15:12:22Z</time></trkpt><trkpt lat="43.703107822348436" lon="11.76128553017509"><ele>514.0</ele><time>2026-05-04T15:12:23Z</time></trkpt><trkpt lat="43.70319549466712" lon="11.76134767565565"><ele>514.0</ele><time>2026-05-04T15:12:24Z</time></trkpt><trkpt lat="43.703292022776445" lon="11.761395013076923"><ele>514.0</ele><time>2026-05-04T15:12:25Z</time></trkpt><trkpt lat="43.7033920249891" lon="11.76144389550053"><ele>514.0</ele><time>2026-05-04T15:12:26Z</time></trkpt><trkpt lat="43.70663622013841" lon="11.76553722794775"><ele>506.83333333333337</ele><time>2026-05-04T15:13:27Z</time></trkpt><trkpt lat="43.70654899086368" lon="11.765568206755352"><ele>499.6666666666667</ele><time>2026-05-04T15:13:37Z</time></trkpt><trkpt lat="43.706486659243424" lon="11.76563974908134"><ele>492.5</ele><time>2026-05-04T15:13:39Z</time></trkpt><trkpt lat="43.70642266413495" lon="11.765702774998928"><ele>485.33333333333337</ele><time>2026-05-04T15:13:41Z</time></trkpt><trkpt lat="43.70638006375582" lon="11.76577676472147"><ele>478.1666666666667</ele><time>2026-05-04T15:13:43Z</time></trkpt><trkpt lat="43.706326238409545" lon="11.765899650539351"><ele>471.0</ele><time>2026-05-04T15:13:46Z</time></trkpt><trkpt lat="43.70628929864334" lon="11.766018189329582"><ele>470.0</ele><time>2026-05-04T15:13:48Z</time></trkpt><trkpt lat="43.7062454860552" lon="11.766132488094147"><ele>469.0</ele><time>2026-05-04T15:13:50Z</time></trkpt><trkpt lat="43.70620836900301" lon="11.766243399476522"><ele>468.0</ele><time>2026-05-04T15:13:52Z</time></trkpt><trkpt lat="43.7061604580192" lon="11.766357393132923"><ele>467.0</ele><time>2026-05-04T15:13:54Z</time></trkpt><trkpt lat="43.70609815767006" lon="11.766451327082668"><ele>466.0</ele><time>2026-05-04T15:13:56Z</time></trkpt><trkpt lat="43.705993756709795" lon="11.766477157360766"><ele>466.00000000000006</ele><time>2026-05-04T15:13:58Z</time></trkpt><trkpt lat="43.70589506347162" lon="11.766483892333946"><ele>466.0</ele><time>2026-05-04T15:14:00Z</time></trkpt><trkpt lat="43.70582490329371" lon="11.76646249356167"><ele>466.0</ele><time>2026-05-04T15:14:04Z</time></trkpt><trkpt lat="43.70588721336312" lon="11.766477395209503"><ele>466.0</ele><time>2026-05-04T15:14:18Z</time></trkpt><trkpt lat="43.705998960485495" lon="11.76647053960604"><ele>466.00000000000006</ele><time>2026-05-04T15:14:20Z</time></trkpt><trkpt lat="43.70609575482106" lon="11.766434067490644"><ele>466.0</ele><time>2026-05-04T15:14:22Z</time></trkpt><trkpt lat="43.70618909275604" lon="11.7663158997093"><ele>466.0</ele><time>2026-05-04T15:14:24Z</time></trkpt><trkpt lat="43.70621909040465" lon="11.76622005370806"><ele>466.0</ele><time>2026-05-04T15:14:25Z</time></trkpt><trkpt lat="43.70624569241696" lon="11.766124180272376"><ele>466.0</ele><time>2026-05-04T15:14:26Z</time></trkpt><trkpt lat="43.70992767775133" lon="11.763715621280705"><ele>461.00000000000006</ele><time>2026-05-04T15:15:27Z</time></trkpt><trkpt lat="43.709993888663064" lon="11.763713641272037"><ele>456.0</ele><time>2026-05-04T15:15:28Z</time></trkpt><trkpt lat="43.71007654357243" lon="11.763702307368352"><ele>451.0</ele><time>2026-05-04T15:15:30Z</time></trkpt><trkpt lat="43.71011328442224" lon="11.763617481101601"><ele>446.0</ele><time>2026-05-04T15:16:06Z</time></trkpt><trkpt lat="43.71012763896766" lon="11.763476989364868"><ele>441.00000000000006</ele><time>2026-05-04T15:16:08Z</time></trkpt><trkpt lat="43.71015178023973" lon="11.763371821841059"><ele>436.0</ele><time>2026-05-04T15:16:09Z</time></trkpt><trkpt lat="43.71017980297196" lon="11.763257155221368"><ele>436.0</ele><time>2026-05-04T15:16:10Z</time></trkpt><trkpt lat="43.710204824012706" lon="11.763128057280017"><ele>436.0</ele><time>2026-05-04T15:16:11Z</time></trkpt><trkpt lat="43.710234177350166" lon="11.763001195488354"><ele>436.0</ele><time>2026-05-04T15:16:12Z</time></trkpt><trkpt lat="43.710267759857906" lon="11.762877981339802"><ele>436.0</ele><time>2026-05-04T15:16:13Z</time></trkpt><trkpt lat="43.71030198853848" lon="11.76276270856595"><ele>436.0</ele><time>2026-05-04T15:16:14Z</time></trkpt><trkpt lat="43.71031895279081" lon="11.762647989918392"><ele>435.8</ele><time>2026-05-04T15:16:15Z</time></trkpt><trkpt lat="43.710305866555224" lon="11.762525717010526"><ele>435.6</ele><time>2026-05-04T15:16:16Z</time></trkpt><trkpt lat="43.710273598396455" lon="11.762411234089539"><ele>435.4</ele><time>2026-05-04T15:16:17Z</time></trkpt><trkpt lat="43.71022835982806" lon="11.762295219623802"><ele>435.2</ele><time>2026-05-04T15:16:18Z</time></trkpt><trkpt lat="43.710176649246016" lon="11.76218460706587"><ele>435.0</ele><time>2026-05-04T15:16:19Z</time></trkpt><trkpt lat="43.71013139713076" lon="11.762069239838311"><ele>435.0</ele><time>2026-05-04T15:16:20Z</time></trkpt><trkpt lat="43.71008854008058" lon="11.76196041226606"><ele>435.0</ele><time>2026-05-04T15:16:21Z</time></trkpt><trkpt lat="43.710053091932366" lon="11.761850272855225"><ele>435.0</ele><time>2026-05-04T15:16:22Z</time></trkpt><trkpt lat="43.71001505065601" lon="11.76173855121361"><ele>435.0</ele><time>2026-05-04T15:16:23Z</time></trkpt><trkpt lat="43.709975162526895" lon="11.761621095970492"><ele>435.0</ele><time>2026-05-04T15:16:24Z</time></trkpt><trkpt lat="43.70993437467848" lon="11.761489111358927"><ele>435.5</ele><time>2026-05-04T15:16:25Z</time></trkpt><trkpt lat="43.709892178627925" lon="11.761368636228132"><ele>436.0</ele><time>2026-05-04T15:16:26Z</time></trkpt><trkpt lat="43.70921325232638" lon="11.758906052400109"><ele>438.0</ele><time>2026-05-04T15:17:27Z</time></trkpt><trkpt lat="43.709192115928104" lon="11.758779622626562"><ele>440.0</ele><time>2026-05-04T15:17:49Z</time></trkpt><trkpt lat="43.70915277288613" lon="11.758646708015148"><ele>442.0</ele><time>2026-05-04T15:17:51Z</time></trkpt><trkpt lat="43.70908548899372" lon="11.758524136117842"><ele>444.0</ele><time>2026-05-04T15:17:53Z</time></trkpt><trkpt lat="43.70900831805444" lon="11.758423762007657"><ele>446.0</ele><time>2026-05-04T15:17:55Z</time></trkpt><trkpt lat="43.708958733561374" lon="11.75830374451288"><ele>447.25</ele><time>2026-05-04T15:17:57Z</time></trkpt><trkpt lat="43.7090279546377" lon="11.758182434154989"><ele>448.5</ele><time>2026-05-04T15:17:59Z</time></trkpt><trkpt lat="43.709125851248864" lon="11.7580841333273"><ele>449.75</ele><time>2026-05-04T15:18:01Z</time></trkpt><trkpt lat="43.70922162694608" lon="11.757996915883426"><ele>451.0</ele><time>2026-05-04T15:18:03Z</time></trkpt><trkpt lat="43.70928394227409" lon="11.757882768758746"><ele>451.0</ele><time>2026-05-04T15:18:05Z</time></trkpt><trkpt lat="43.70929242988453" lon="11.757734108111705"><ele>451.0</ele><time>2026-05-04T15:18:07Z</time></trkpt><trkpt lat="43.70924069391916" lon="11.75761811864827"><ele>451.0</ele><time>2026-05-04T15:18:09Z</time></trkpt><trkpt lat="43.70918257966051" lon="11.75747774091349"><ele>451.0</ele><time>2026-05-04T15:18:11Z</time></trkpt><trkpt lat="43.70913467731818" lon="11.757417557528308"><ele>451.0</ele><time>2026-05-04T15:18:12Z</time></trkpt><trkpt lat="43.70905455097457" lon="11.75729730177443"><ele>451.00000000000006</ele><time>2026-05-04T15:18:14Z</time></trkpt><trkpt lat="43.709003609844956" lon="11.757240057270927"><ele>451.0</ele><time>2026-05-04T15:18:15Z</time></trkpt><trkpt lat="43.708970879956944" lon="11.757159592729653"><ele>451.0</ele><time>2026-05-04T15:18:16Z</time></trkpt><trkpt lat="43.70892655331287" lon="11.75709261589457"><ele>451.0</ele><time>2026-05-04T15:18:17Z</time></trkpt><trkpt lat="43.708843631781185" lon="11.756970205031777"><ele>451.00000000000006</ele><time>2026-05-04T15:18:19Z</time></trkpt><trkpt lat="43.70879352246603" lon="11.756912310552794"><ele>451.0</ele><time>2026-05-04T15:18:20Z</time></trkpt><trkpt lat="43.70873942358954" lon="11.756860148087101"><ele>451.0</ele><time>2026-05-04T15:18:21Z</time></trkpt><trkpt lat="43.70867852646395" lon="11.756806769637317"><ele>451.0</ele><time>2026-05-04T15:18:22Z</time></trkpt><trkpt lat="43.70861578255937" lon="11.756753462055528"><ele>451.0</ele><time>2026-05-04T15:18:23Z</time></trkpt><trkpt lat="43.70856141363664" lon="11.756707009337589"><ele>451.0</ele><time>2026-05-04T15:18:24Z</time></trkpt><trkpt lat="43.70846395582794" lon="11.756615688594804"><ele>451.0</ele><time>2026-05-04T15:18:26Z</time></trkpt><trkpt lat="43.707772291856614" lon="11.751472223956613"><ele>453.5</ele><time>2026-05-04T15:19:27Z</time></trkpt><trkpt lat="43.707745927875095" lon="11.75134281054159"><ele>456.0</ele><time>2026-05-04T15:19:29Z</time></trkpt><trkpt lat="43.70781577739216" lon="11.751278431380536"><ele>458.5</ele><time>2026-05-04T15:19:31Z</time></trkpt><trkpt lat="43.70790204488567" lon="11.751289280345953"><ele>461.0</ele><time>2026-05-04T15:19:33Z</time></trkpt><trkpt lat="43.707730102269224" lon="11.75138065767565"><ele>461.0</ele><time>2026-05-04T15:19:43Z</time></trkpt><trkpt lat="43.70778463847239" lon="11.751492417777298"><ele>461.0</ele><time>2026-05-04T15:19:47Z</time></trkpt><trkpt lat="43.7078556007089" lon="11.75161250459873"><ele>461.0</ele><time>2026-05-04T15:19:49Z</time></trkpt><trkpt lat="43.70793088643451" lon="11.751706197050662"><ele>461.0</ele><time>2026-05-04T15:19:51Z</time></trkpt><trkpt lat="43.7080111389514" lon="11.751816472702506"><ele>461.0</ele><time>2026-05-04T15:19:53Z</time></trkpt><trkpt lat="43.70803715532447" lon="11.751981731881823"><ele>461.0</ele><time>2026-05-04T15:19:55Z</time></trkpt><trkpt lat="43.7080165440236" lon="11.752111430433116"><ele>461.0</ele><time>2026-05-04T15:19:57Z</time></trkpt><trkpt lat="43.70797664171599" lon="11.752196044648823"><ele>461.0</ele><time>2026-05-04T15:19:59Z</time></trkpt><trkpt lat="43.706618104790145" lon="11.750835211314607"><ele>472.66666666666663</ele><time>2026-05-04T15:21:27Z</time></trkpt><trkpt lat="43.70663450170415" lon="11.750738865073428"><ele>484.33333333333337</ele><time>2026-05-04T15:21:35Z</time></trkpt><trkpt lat="43.70669076511557" lon="11.750692214400134"><ele>496.0</ele><time>2026-05-04T15:21:44Z</time></trkpt><trkpt lat="43.70749042599641" lon="11.74998184306351"><ele>495.33333333333337</ele><time>2026-05-04T15:23:27Z</time></trkpt><trkpt lat="43.70755405432972" lon="11.749933188953381"><ele>494.6666666666667</ele><time>2026-05-04T15:23:29Z</time></trkpt><trkpt lat="43.70761015526899" lon="11.749871943370712"><ele>494.0</ele><time>2026-05-04T15:23:32Z</time></trkpt><trkpt lat="43.70767860382914" lon="11.749807246758957"><ele>493.33333333333337</ele><time>2026-05-04T15:23:35Z</time></trkpt><trkpt lat="43.70777981324753" lon="11.749766043785453"><ele>492.6666666666667</ele><time>2026-05-04T15:23:37Z</time></trkpt><trkpt lat="43.70787058413719" lon="11.749683309225734"><ele>492.0</ele><time>2026-05-04T15:23:39Z</time></trkpt><trkpt lat="43.70795736906809" lon="11.749614148586682"><ele>492.0</ele><time>2026-05-04T15:23:41Z</time></trkpt><trkpt lat="43.708045714276786" lon="11.749545810218004"><ele>492.00000000000006</ele><time>2026-05-04T15:23:43Z</time></trkpt><trkpt lat="43.70814572229054" lon="11.749483737225807"><ele>492.00000000000006</ele><time>2026-05-04T15:23:45Z</time></trkpt><trkpt lat="43.70822175725401" lon="11.749402964293186"><ele>492.0</ele><time>2026-05-04T15:23:47Z</time></trkpt><trkpt lat="43.70830764190279" lon="11.749320071416196"><ele>492.0</ele><time>2026-05-04T15:23:49Z</time></trkpt><trkpt lat="43.708389949522335" lon="11.749251501303203"><ele>494.8</ele><time>2026-05-04T15:23:51Z</time></trkpt><trkpt lat="43.70842846631414" lon="11.74914029495984"><ele>497.6</ele><time>2026-05-04T15:23:53Z</time></trkpt><trkpt lat="43.708417869366976" lon="11.749036616605817"><ele>500.40000000000003</ele><time>2026-05-04T15:23:55Z</time></trkpt><trkpt lat="43.70830861128191" lon="11.748956377920601"><ele>503.20000000000005</ele><time>2026-05-04T15:23:58Z</time></trkpt><trkpt lat="43.70824209281107" lon="11.74887910311539"><ele>506.0</ele><time>2026-05-04T15:24:00Z</time></trkpt><trkpt lat="43.70816151680317" lon="11.748801132148177"><ele>506.0</ele><time>2026-05-04T15:24:02Z</time></trkpt><trkpt lat="43.708105334524305" lon="11.748726277534784"><ele>506.0</ele><time>2026-05-04T15:24:04Z</time></trkpt><trkpt lat="43.70802398483362" lon="11.74866951903442"><ele>506.0</ele><time>2026-05-04T15:24:06Z</time></trkpt><trkpt lat="43.70796160658882" lon="11.748593203191207"><ele>506.0</ele><time>2026-05-04T15:24:09Z</time></trkpt><trkpt lat="43.706990788488234" lon="11.74694443087556"><ele>507.8571428571429</ele><time>2026-05-04T15:25:27Z</time></trkpt><trkpt lat="43.70694413140508" lon="11.746862618722776"><ele>509.7142857142857</ele><time>2026-05-04T15:25:29Z</time></trkpt><trkpt lat="43.70690705181022" lon="11.746781134755762"><ele>511.57142857142856</ele><time>2026-05-04T15:25:31Z</time></trkpt><trkpt lat="43.70686793363219" lon="11.74670671711807"><ele>513.4285714285714</ele><time>2026-05-04T15:25:33Z</time></trkpt><trkpt lat="43.70682686047361" lon="11.746626004241598"><ele>515.2857142857142</ele><time>2026-05-04T15:25:35Z</time></trkpt><trkpt lat="43.70678879553434" lon="11.746525910516434"><ele>517.1428571428571</ele><time>2026-05-04T15:25:37Z</time></trkpt><trkpt lat="43.706736208398056" lon="11.74645847222463"><ele>519.0</ele><time>2026-05-04T15:25:39Z</time></trkpt><trkpt lat="43.706692323954414" lon="11.746356728330163"><ele>521.3333333333334</ele><time>2026-05-04T15:25:41Z</time></trkpt><trkpt lat="43.70665316018288" lon="11.746270129883811"><ele>523.6666666666666</ele><time>2026-05-04T15:25:43Z</time></trkpt><trkpt lat="43.706600596279614" lon="11.746197660920622"><ele>526.0</ele><time>2026-05-04T15:26:01Z</time></trkpt><trkpt lat="43.70653687359447" lon="11.746091726767618"><ele>528.3333333333333</ele><time>2026-05-04T15:26:04Z</time></trkpt><trkpt lat="43.70651246886876" lon="11.745986569409302"><ele>530.6666666666666</ele><time>2026-05-04T15:26:06Z</time></trkpt><trkpt lat="43.706498989706795" lon="11.745872333599248"><ele>533.0</ele><time>2026-05-04T15:26:08Z</time></trkpt><trkpt lat="43.70647730204251" lon="11.745775020748466"><ele>533.0</ele><time>2026-05-04T15:26:10Z</time></trkpt><trkpt lat="43.70643226195929" lon="11.745694145149487"><ele>533.0</ele><time>2026-05-04T15:26:12Z</time></trkpt><trkpt lat="43.706393036496664" lon="11.745610662062486"><ele>533.0</ele><time>2026-05-04T15:26:17Z</time></trkpt><trkpt lat="43.70637904067968" lon="11.745513517453979"><ele>533.0</ele><time>2026-05-04T15:26:19Z</time></trkpt><trkpt lat="43.70637590604075" lon="11.745422068807729"><ele>533.0</ele><time>2026-05-04T15:26:22Z</time></trkpt><trkpt lat="43.706375488621156" lon="11.745322630025521"><ele>533.0</ele><time>2026-05-04T15:26:26Z</time></trkpt><trkpt lat="43.705764901963725" lon="11.743093694839063"><ele>537.5</ele><time>2026-05-04T15:32:27Z</time></trkpt><trkpt lat="43.70571422762491" lon="11.743022124518594"><ele>542.0</ele><time>2026-05-04T15:32:35Z</time></trkpt><trkpt lat="43.70567861362398" lon="11.742914769220091"><ele>546.5</ele><time>2026-05-04T15:32:39Z</time></trkpt><trkpt lat="43.70565915512047" lon="11.742810014414104"><ele>551.0</ele><time>2026-05-04T15:32:42Z</time></trkpt><trkpt lat="43.70567274694558" lon="11.742697918652912"><ele>555.5</ele><time>2026-05-04T15:32:47Z</time></trkpt><trkpt lat="43.70576139983942" lon="11.742666121314176"><ele>560.0</ele><time>2026-05-04T15:32:51Z</time></trkpt><trkpt lat="43.70582857372584" lon="11.742647546435943"><ele>560.1428571428571</ele><time>2026-05-04T15:32:53Z</time></trkpt><trkpt lat="43.70589864301953" lon="11.742645261473074"><ele>560.2857142857142</ele><time>2026-05-04T15:32:56Z</time></trkpt><trkpt lat="43.7059869535284" lon="11.74261903850036"><ele>560.4285714285714</ele><time>2026-05-04T15:32:59Z</time></trkpt><trkpt lat="43.70607179026473" lon="11.742616495627027"><ele>560.5714285714286</ele><time>2026-05-04T15:33:02Z</time></trkpt><trkpt lat="43.70613771208431" lon="11.742608843057532"><ele>560.7142857142857</ele><time>2026-05-04T15:33:05Z</time></trkpt><trkpt lat="43.70620093227946" lon="11.742617876897484"><ele>560.8571428571429</ele><time>2026-05-04T15:33:09Z</time></trkpt><trkpt lat="43.7062672307561" lon="11.742618607063262"><ele>561.0</ele><time>2026-05-04T15:33:20Z</time></trkpt><trkpt lat="43.70633016513848" lon="11.742612189886183"><ele>565.0</ele><time>2026-05-04T15:33:25Z</time></trkpt><trkpt lat="43.70733128205419" lon="11.742071431550817"><ele>565.0</ele><time>2026-05-04T15:34:27Z</time></trkpt><trkpt lat="43.70733909272901" lon="11.741965745626187"><ele>565.0</ele><time>2026-05-04T15:34:42Z</time></trkpt><trkpt lat="43.707343661140264" lon="11.74183940701876"><ele>565.0</ele><time>2026-05-04T15:34:45Z</time></trkpt><trkpt lat="43.70732027575713" lon="11.741737914712377"><ele>565.0</ele><time>2026-05-04T15:34:47Z</time></trkpt><trkpt lat="43.707242071180936" lon="11.741669317479541"><ele>565.0</ele><time>2026-05-04T15:34:49Z</time></trkpt><trkpt lat="43.70720741350182" lon="11.741592907767446"><ele>565.0</ele><time>2026-05-04T15:34:51Z</time></trkpt><trkpt lat="43.7072390896377" lon="11.741481878510008"><ele>568.2</ele><time>2026-05-04T15:34:53Z</time></trkpt><trkpt lat="43.707216686632634" lon="11.74136789590336"><ele>571.4</ele><time>2026-05-04T15:34:55Z</time></trkpt><trkpt lat="43.707116868282235" lon="11.741337130307764"><ele>574.6</ele><time>2026-05-04T15:34:57Z</time></trkpt><trkpt lat="43.70702867087769" lon="11.74133040727205"><ele>577.8</ele><time>2026-05-04T15:34:59Z</time></trkpt><trkpt lat="43.70695448710319" lon="11.741293120084897"><ele>581.0</ele><time>2026-05-04T15:35:01Z</time></trkpt><trkpt lat="43.70689977091719" lon="11.741096845443394"><ele>582.6666666666666</ele><time>2026-05-04T15:35:04Z</time></trkpt><trkpt lat="43.70684614745464" lon="11.740941113605697"><ele>584.3333333333333</ele><time>2026-05-04T15:35:06Z</time></trkpt><trkpt lat="43.706835061230436" lon="11.740846267807703"><ele>586.0</ele><time>2026-05-04T15:35:07Z</time></trkpt><trkpt lat="43.70679287255989" lon="11.740758763546689"><ele>587.6666666666666</ele><time>2026-05-04T15:35:08Z</time></trkpt><trkpt lat="43.70676721283344" lon="11.74063949032539"><ele>589.3333333333334</ele><time>2026-05-04T15:35:09Z</time></trkpt><trkpt lat="43.706708765589525" lon="11.740557061820327"><ele>591.0</ele><time>2026-05-04T15:35:10Z</time></trkpt><trkpt lat="43.706670011706976" lon="11.740471220043132"><ele>591.0</ele><time>2026-05-04T15:35:11Z</time></trkpt><trkpt lat="43.70663803787633" lon="11.740332532741757"><ele>591.0</ele><time>2026-05-04T15:35:13Z</time></trkpt><trkpt lat="43.706773575108784" lon="11.740334251583043"><ele>591.0</ele><time>2026-05-04T15:35:16Z</time></trkpt><trkpt lat="43.706837013996925" lon="11.740364555182968"><ele>591.0</ele><time>2026-05-04T15:35:17Z</time></trkpt><trkpt lat="43.7069142852345" lon="11.740392759913641"><ele>591.0</ele><time>2026-05-04T15:35:18Z</time></trkpt><trkpt lat="43.707001438472055" lon="11.740408697644856"><ele>591.0</ele><time>2026-05-04T15:35:19Z</time></trkpt><trkpt lat="43.707082493352424" lon="11.740457571146194"><ele>591.0</ele><time>2026-05-04T15:35:20Z</time></trkpt><trkpt lat="43.70716917028072" lon="11.740492707145654"><ele>591.0</ele><time>2026-05-04T15:35:21Z</time></trkpt><trkpt lat="43.70724933347081" lon="11.74051212544111"><ele>591.0</ele><time>2026-05-04T15:35:22Z</time></trkpt><trkpt lat="43.70733977298613" lon="11.740536133293542"><ele>591.0</ele><time>2026-05-04T15:35:24Z</time></trkpt><trkpt lat="43.70680637070474" lon="11.74004382353618"><ele>591.0</ele><time>2026-05-04T15:36:37Z</time></trkpt><trkpt lat="43.70667043623537" lon="11.740359035438043"><ele>591.0</ele><time>2026-05-04T15:37:12Z</time></trkpt><trkpt lat="43.706759680044094" lon="11.74032225918909"><ele>591.0</ele><time>2026-05-04T15:37:14Z</time></trkpt><trkpt lat="43.70686509693842" lon="11.740374405441168"><ele>591.0</ele><time>2026-05-04T15:37:16Z</time></trkpt><trkpt lat="43.70693183106483" lon="11.740375865011057"><ele>591.0</ele><time>2026-05-04T15:37:17Z</time></trkpt><trkpt lat="43.70699974180625" lon="11.740403351978674"><ele>591.0</ele><time>2026-05-04T15:37:18Z</time></trkpt><trkpt lat="43.70706926751299" lon="11.740452475173315"><ele>591.0</ele><time>2026-05-04T15:37:19Z</time></trkpt><trkpt lat="43.7071448362779" lon="11.74046343349485"><ele>591.0</ele><time>2026-05-04T15:37:20Z</time></trkpt><trkpt lat="43.707212080696024" lon="11.740510238632261"><ele>591.0</ele><time>2026-05-04T15:37:21Z</time></trkpt><trkpt lat="43.70732571170134" lon="11.740533971731299"><ele>612.0</ele><time>2026-05-04T15:37:23Z</time></trkpt><trkpt lat="43.707365061816574" lon="11.739354558427832"><ele>612.0</ele><time>2026-05-04T15:38:28Z</time></trkpt></trkseg></trk></gpx>